<?xml version="1.0" encoding="UTF-8"?>
<gpx creator="Garmin Connect" version="1.1"
  xsi:schemaLocation="http://www.topografix.com/GPX/1/1 http://www.topografix.com/GPX/11.xsd"
  xmlns:ns3="http://www.garmin.com/xmlschemas/TrackPointExtension/v1"
  xmlns="http://www.topografix.com/GPX/1/1"
  xmlns:xsi="http://www.w3.org/2001/XMLSchema-instance" xmlns:ns2="http://www.garmin.com/xmlschemas/GpxExtensions/v3">
  <metadata>
    <link href="connect.garmin.com">
      <text>Garmin Connect</text>
    </link>
    <time>2026-04-22T08:54:02.000Z</time>
  </metadata>
  <trk>
    <name>Klüsserath Wandern</name>
    <type>hiking</type>
    <trkseg>
      <trkpt lat="49.8489871434867382049560546875" lon="6.86399306170642375946044921875">
        <ele>302.399993896484375</ele>
        <time>2026-04-22T08:54:02.000Z</time>
        <extensions>
          <ns3:TrackPointExtension>
            <ns3:hr>105</ns3:hr>
            <ns3:cad>0</ns3:cad>
          </ns3:TrackPointExtension>
        </extensions>
      </trkpt>
      <trkpt lat="49.848986975848674774169921875" lon="6.86399255879223346710205078125">
        <ele>302.399993896484375</ele>
        <time>2026-04-22T08:54:03.000Z</time>
        <extensions>
          <ns3:TrackPointExtension>
            <ns3:hr>104</ns3:hr>
            <ns3:cad>0</ns3:cad>
          </ns3:TrackPointExtension>
        </extensions>
      </trkpt>
      <trkpt lat="49.84898689202964305877685546875" lon="6.86399088241159915924072265625">
        <ele>302.600006103515625</ele>
        <time>2026-04-22T08:54:27.000Z</time>
        <extensions>
          <ns3:TrackPointExtension>
            <ns3:hr>101</ns3:hr>
            <ns3:cad>0</ns3:cad>
          </ns3:TrackPointExtension>
        </extensions>
      </trkpt>
      <trkpt lat="49.84896543435752391815185546875" lon="6.86406699009239673614501953125">
        <ele>303</ele>
        <time>2026-04-22T08:54:33.000Z</time>
        <extensions>
          <ns3:TrackPointExtension>
            <ns3:hr>101</ns3:hr>
            <ns3:cad>43</ns3:cad>
          </ns3:TrackPointExtension>
        </extensions>
      </trkpt>
      <trkpt lat="49.84894431196153163909912109375" lon="6.86412767507135868072509765625">
        <ele>302.399993896484375</ele>
        <time>2026-04-22T08:54:41.000Z</time>
        <extensions>
          <ns3:TrackPointExtension>
            <ns3:hr>101</ns3:hr>
            <ns3:cad>0</ns3:cad>
          </ns3:TrackPointExtension>
        </extensions>
      </trkpt>
      <trkpt lat="49.8489787615835666656494140625" lon="6.86417092569172382354736328125">
        <ele>302.600006103515625</ele>
        <time>2026-04-22T08:54:49.000Z</time>
        <extensions>
          <ns3:TrackPointExtension>
            <ns3:hr>100</ns3:hr>
            <ns3:cad>0</ns3:cad>
          </ns3:TrackPointExtension>
        </extensions>
      </trkpt>
      <trkpt lat="49.84898672439157962799072265625" lon="6.8642115779221057891845703125">
        <ele>302.399993896484375</ele>
        <time>2026-04-22T08:54:54.000Z</time>
        <extensions>
          <ns3:TrackPointExtension>
            <ns3:hr>99</ns3:hr>
            <ns3:cad>0</ns3:cad>
          </ns3:TrackPointExtension>
        </extensions>
      </trkpt>
      <trkpt lat="49.84898605383932590484619140625" lon="6.86419640667736530303955078125">
        <ele>302.399993896484375</ele>
        <time>2026-04-22T08:54:58.000Z</time>
        <extensions>
          <ns3:TrackPointExtension>
            <ns3:hr>96</ns3:hr>
            <ns3:cad>0</ns3:cad>
          </ns3:TrackPointExtension>
        </extensions>
      </trkpt>
      <trkpt lat="49.8489847965538501739501953125" lon="6.864204704761505126953125">
        <ele>302.20001220703125</ele>
        <time>2026-04-22T08:55:00.000Z</time>
        <extensions>
          <ns3:TrackPointExtension>
            <ns3:hr>95</ns3:hr>
            <ns3:cad>0</ns3:cad>
          </ns3:TrackPointExtension>
        </extensions>
      </trkpt>
      <trkpt lat="49.8489497601985931396484375" lon="6.8642598576843738555908203125">
        <ele>302.20001220703125</ele>
        <time>2026-04-22T08:55:06.000Z</time>
        <extensions>
          <ns3:TrackPointExtension>
            <ns3:hr>95</ns3:hr>
            <ns3:cad>51</ns3:cad>
          </ns3:TrackPointExtension>
        </extensions>
      </trkpt>
      <trkpt lat="49.84890039078891277313232421875" lon="6.86430654488503932952880859375">
        <ele>302</ele>
        <time>2026-04-22T08:55:16.000Z</time>
        <extensions>
          <ns3:TrackPointExtension>
            <ns3:hr>97</ns3:hr>
            <ns3:cad>0</ns3:cad>
          </ns3:TrackPointExtension>
        </extensions>
      </trkpt>
      <trkpt lat="49.848909862339496612548828125" lon="6.864283494651317596435546875">
        <ele>301.79998779296875</ele>
        <time>2026-04-22T08:55:26.000Z</time>
        <extensions>
          <ns3:TrackPointExtension>
            <ns3:hr>102</ns3:hr>
            <ns3:cad>0</ns3:cad>
          </ns3:TrackPointExtension>
        </extensions>
      </trkpt>
      <trkpt lat="49.848909862339496612548828125" lon="6.864283494651317596435546875">
        <ele>302</ele>
        <time>2026-04-22T08:55:28.000Z</time>
        <extensions>
          <ns3:TrackPointExtension>
            <ns3:hr>105</ns3:hr>
            <ns3:cad>0</ns3:cad>
          </ns3:TrackPointExtension>
        </extensions>
      </trkpt>
      <trkpt lat="49.848909862339496612548828125" lon="6.864283494651317596435546875">
        <ele>302</ele>
        <time>2026-04-22T08:55:33.000Z</time>
        <extensions>
          <ns3:TrackPointExtension>
            <ns3:hr>102</ns3:hr>
            <ns3:cad>0</ns3:cad>
          </ns3:TrackPointExtension>
        </extensions>
      </trkpt>
      <trkpt lat="49.8489194177091121673583984375" lon="6.8642729334533214569091796875">
        <ele>302</ele>
        <time>2026-04-22T08:55:43.000Z</time>
        <extensions>
          <ns3:TrackPointExtension>
            <ns3:hr>105</ns3:hr>
            <ns3:cad>0</ns3:cad>
          </ns3:TrackPointExtension>
        </extensions>
      </trkpt>
      <trkpt lat="49.84891966916620731353759765625" lon="6.8642722629010677337646484375">
        <ele>302</ele>
        <time>2026-04-22T08:55:45.000Z</time>
        <extensions>
          <ns3:TrackPointExtension>
            <ns3:hr>106</ns3:hr>
            <ns3:cad>0</ns3:cad>
          </ns3:TrackPointExtension>
        </extensions>
      </trkpt>
      <trkpt lat="49.84896006993949413299560546875" lon="6.8642303533852100372314453125">
        <ele>302.20001220703125</ele>
        <time>2026-04-22T08:55:53.000Z</time>
        <extensions>
          <ns3:TrackPointExtension>
            <ns3:hr>105</ns3:hr>
            <ns3:cad>47</ns3:cad>
          </ns3:TrackPointExtension>
        </extensions>
      </trkpt>
      <trkpt lat="49.84898722730576992034912109375" lon="6.86413371004164218902587890625">
        <ele>303</ele>
        <time>2026-04-22T08:56:01.000Z</time>
        <extensions>
          <ns3:TrackPointExtension>
            <ns3:hr>106</ns3:hr>
            <ns3:cad>0</ns3:cad>
          </ns3:TrackPointExtension>
        </extensions>
      </trkpt>
      <trkpt lat="49.8489844612777233123779296875" lon="6.86408693902194499969482421875">
        <ele>303</ele>
        <time>2026-04-22T08:56:13.000Z</time>
        <extensions>
          <ns3:TrackPointExtension>
            <ns3:hr>106</ns3:hr>
            <ns3:cad>0</ns3:cad>
          </ns3:TrackPointExtension>
        </extensions>
      </trkpt>
      <trkpt lat="49.84897792339324951171875" lon="6.86408869922161102294921875">
        <ele>302.600006103515625</ele>
        <time>2026-04-22T08:56:32.000Z</time>
        <extensions>
          <ns3:TrackPointExtension>
            <ns3:hr>107</ns3:hr>
            <ns3:cad>41</ns3:cad>
          </ns3:TrackPointExtension>
        </extensions>
      </trkpt>
      <trkpt lat="49.8489589802920818328857421875" lon="6.86399473808705806732177734375">
        <ele>302.79998779296875</ele>
        <time>2026-04-22T08:56:38.000Z</time>
        <extensions>
          <ns3:TrackPointExtension>
            <ns3:hr>107</ns3:hr>
            <ns3:cad>0</ns3:cad>
          </ns3:TrackPointExtension>
        </extensions>
      </trkpt>
      <trkpt lat="49.84895386733114719390869140625" lon="6.86396540142595767974853515625">
        <ele>302.600006103515625</ele>
        <time>2026-04-22T08:56:44.000Z</time>
        <extensions>
          <ns3:TrackPointExtension>
            <ns3:hr>107</ns3:hr>
            <ns3:cad>0</ns3:cad>
          </ns3:TrackPointExtension>
        </extensions>
      </trkpt>
      <trkpt lat="49.8489412106573581695556640625" lon="6.86393824405968189239501953125">
        <ele>302.399993896484375</ele>
        <time>2026-04-22T08:56:50.000Z</time>
        <extensions>
          <ns3:TrackPointExtension>
            <ns3:hr>107</ns3:hr>
            <ns3:cad>0</ns3:cad>
          </ns3:TrackPointExtension>
        </extensions>
      </trkpt>
      <trkpt lat="49.84894112683832645416259765625" lon="6.863937489688396453857421875">
        <ele>302.20001220703125</ele>
        <time>2026-04-22T08:57:06.000Z</time>
        <extensions>
          <ns3:TrackPointExtension>
            <ns3:hr>106</ns3:hr>
            <ns3:cad>0</ns3:cad>
          </ns3:TrackPointExtension>
        </extensions>
      </trkpt>
      <trkpt lat="49.84894573688507080078125" lon="6.8638330511748790740966796875">
        <ele>302</ele>
        <time>2026-04-22T08:57:14.000Z</time>
        <extensions>
          <ns3:TrackPointExtension>
            <ns3:hr>108</ns3:hr>
            <ns3:cad>0</ns3:cad>
          </ns3:TrackPointExtension>
        </extensions>
      </trkpt>
      <trkpt lat="49.84894506633281707763671875" lon="6.8638216517865657806396484375">
        <ele>302</ele>
        <time>2026-04-22T08:57:15.000Z</time>
        <extensions>
          <ns3:TrackPointExtension>
            <ns3:hr>107</ns3:hr>
            <ns3:cad>0</ns3:cad>
          </ns3:TrackPointExtension>
        </extensions>
      </trkpt>
      <trkpt lat="49.8489539511501789093017578125" lon="6.86372986994683742523193359375">
        <ele>301.600006103515625</ele>
        <time>2026-04-22T08:57:22.000Z</time>
        <extensions>
          <ns3:TrackPointExtension>
            <ns3:hr>105</ns3:hr>
            <ns3:cad>0</ns3:cad>
          </ns3:TrackPointExtension>
        </extensions>
      </trkpt>
      <trkpt lat="49.84896652400493621826171875" lon="6.863659881055355072021484375">
        <ele>301.399993896484375</ele>
        <time>2026-04-22T08:57:32.000Z</time>
        <extensions>
          <ns3:TrackPointExtension>
            <ns3:hr>105</ns3:hr>
            <ns3:cad>0</ns3:cad>
          </ns3:TrackPointExtension>
        </extensions>
      </trkpt>
      <trkpt lat="49.848921932280063629150390625" lon="6.86367890797555446624755859375">
        <ele>301.20001220703125</ele>
        <time>2026-04-22T08:57:39.000Z</time>
        <extensions>
          <ns3:TrackPointExtension>
            <ns3:hr>105</ns3:hr>
            <ns3:cad>0</ns3:cad>
          </ns3:TrackPointExtension>
        </extensions>
      </trkpt>
      <trkpt lat="49.84891346655786037445068359375" lon="6.86368661932647228240966796875">
        <ele>301</ele>
        <time>2026-04-22T08:57:42.000Z</time>
        <extensions>
          <ns3:TrackPointExtension>
            <ns3:hr>105</ns3:hr>
            <ns3:cad>0</ns3:cad>
          </ns3:TrackPointExtension>
        </extensions>
      </trkpt>
      <trkpt lat="49.84892101027071475982666015625" lon="6.86372601427137851715087890625">
        <ele>301</ele>
        <time>2026-04-22T08:57:46.000Z</time>
        <extensions>
          <ns3:TrackPointExtension>
            <ns3:hr>104</ns3:hr>
            <ns3:cad>0</ns3:cad>
          </ns3:TrackPointExtension>
        </extensions>
      </trkpt>
      <trkpt lat="49.84890391118824481964111328125" lon="6.86375903896987438201904296875">
        <ele>300.79998779296875</ele>
        <time>2026-04-22T08:57:52.000Z</time>
        <extensions>
          <ns3:TrackPointExtension>
            <ns3:hr>104</ns3:hr>
            <ns3:cad>0</ns3:cad>
          </ns3:TrackPointExtension>
        </extensions>
      </trkpt>
      <trkpt lat="49.8489174060523509979248046875" lon="6.86372928321361541748046875">
        <ele>300.79998779296875</ele>
        <time>2026-04-22T08:58:03.000Z</time>
        <extensions>
          <ns3:TrackPointExtension>
            <ns3:hr>103</ns3:hr>
            <ns3:cad>0</ns3:cad>
          </ns3:TrackPointExtension>
        </extensions>
      </trkpt>
      <trkpt lat="49.8489685356616973876953125" lon="6.86373154632747173309326171875">
        <ele>300.79998779296875</ele>
        <time>2026-04-22T08:58:10.000Z</time>
        <extensions>
          <ns3:TrackPointExtension>
            <ns3:hr>103</ns3:hr>
            <ns3:cad>0</ns3:cad>
          </ns3:TrackPointExtension>
        </extensions>
      </trkpt>
      <trkpt lat="49.84897968359291553497314453125" lon="6.86374629847705364227294921875">
        <ele>301</ele>
        <time>2026-04-22T08:58:17.000Z</time>
        <extensions>
          <ns3:TrackPointExtension>
            <ns3:hr>103</ns3:hr>
            <ns3:cad>0</ns3:cad>
          </ns3:TrackPointExtension>
        </extensions>
      </trkpt>
      <trkpt lat="49.8489873111248016357421875" lon="6.8637200631201267242431640625">
        <ele>301</ele>
        <time>2026-04-22T08:58:24.000Z</time>
        <extensions>
          <ns3:TrackPointExtension>
            <ns3:hr>103</ns3:hr>
            <ns3:cad>0</ns3:cad>
          </ns3:TrackPointExtension>
        </extensions>
      </trkpt>
      <trkpt lat="49.84898756258189678192138671875" lon="6.86371880583465099334716796875">
        <ele>301.20001220703125</ele>
        <time>2026-04-22T08:58:33.000Z</time>
        <extensions>
          <ns3:TrackPointExtension>
            <ns3:hr>100</ns3:hr>
            <ns3:cad>0</ns3:cad>
          </ns3:TrackPointExtension>
        </extensions>
      </trkpt>
      <trkpt lat="49.848984964191913604736328125" lon="6.863704808056354522705078125">
        <ele>301</ele>
        <time>2026-04-22T08:58:46.000Z</time>
        <extensions>
          <ns3:TrackPointExtension>
            <ns3:hr>100</ns3:hr>
            <ns3:cad>0</ns3:cad>
          </ns3:TrackPointExtension>
        </extensions>
      </trkpt>
      <trkpt lat="49.84899024479091167449951171875" lon="6.8636902235448360443115234375">
        <ele>301</ele>
        <time>2026-04-22T08:58:51.000Z</time>
        <extensions>
          <ns3:TrackPointExtension>
            <ns3:hr>103</ns3:hr>
            <ns3:cad>0</ns3:cad>
          </ns3:TrackPointExtension>
        </extensions>
      </trkpt>
      <trkpt lat="49.84899024479091167449951171875" lon="6.8636902235448360443115234375">
        <ele>301.20001220703125</ele>
        <time>2026-04-22T08:58:55.000Z</time>
        <extensions>
          <ns3:TrackPointExtension>
            <ns3:hr>106</ns3:hr>
            <ns3:cad>0</ns3:cad>
          </ns3:TrackPointExtension>
        </extensions>
      </trkpt>
      <trkpt lat="49.848988987505435943603515625" lon="6.8636902235448360443115234375">
        <ele>301.20001220703125</ele>
        <time>2026-04-22T08:58:58.000Z</time>
        <extensions>
          <ns3:TrackPointExtension>
            <ns3:hr>103</ns3:hr>
            <ns3:cad>0</ns3:cad>
          </ns3:TrackPointExtension>
        </extensions>
      </trkpt>
      <trkpt lat="49.84898672439157962799072265625" lon="6.86368611641228199005126953125">
        <ele>301.20001220703125</ele>
        <time>2026-04-22T08:59:02.000Z</time>
        <extensions>
          <ns3:TrackPointExtension>
            <ns3:hr>100</ns3:hr>
            <ns3:cad>0</ns3:cad>
          </ns3:TrackPointExtension>
        </extensions>
      </trkpt>
      <trkpt lat="49.8489851318299770355224609375" lon="6.8636856973171234130859375">
        <ele>301.20001220703125</ele>
        <time>2026-04-22T08:59:07.000Z</time>
        <extensions>
          <ns3:TrackPointExtension>
            <ns3:hr>97</ns3:hr>
            <ns3:cad>0</ns3:cad>
          </ns3:TrackPointExtension>
        </extensions>
      </trkpt>
      <trkpt lat="49.848952107131481170654296875" lon="6.8637572787702083587646484375">
        <ele>301</ele>
        <time>2026-04-22T08:59:14.000Z</time>
        <extensions>
          <ns3:TrackPointExtension>
            <ns3:hr>96</ns3:hr>
            <ns3:cad>0</ns3:cad>
          </ns3:TrackPointExtension>
        </extensions>
      </trkpt>
      <trkpt lat="49.8489405401051044464111328125" lon="6.86380128376185894012451171875">
        <ele>300.79998779296875</ele>
        <time>2026-04-22T08:59:22.000Z</time>
        <extensions>
          <ns3:TrackPointExtension>
            <ns3:hr>96</ns3:hr>
            <ns3:cad>0</ns3:cad>
          </ns3:TrackPointExtension>
        </extensions>
      </trkpt>
      <trkpt lat="49.84892050735652446746826171875" lon="6.86380706727504730224609375">
        <ele>300.79998779296875</ele>
        <time>2026-04-22T08:59:28.000Z</time>
        <extensions>
          <ns3:TrackPointExtension>
            <ns3:hr>99</ns3:hr>
            <ns3:cad>0</ns3:cad>
          </ns3:TrackPointExtension>
        </extensions>
      </trkpt>
      <trkpt lat="49.84895906411111354827880859375" lon="6.86377714388072490692138671875">
        <ele>300.79998779296875</ele>
        <time>2026-04-22T08:59:33.000Z</time>
        <extensions>
          <ns3:TrackPointExtension>
            <ns3:hr>102</ns3:hr>
            <ns3:cad>47</ns3:cad>
          </ns3:TrackPointExtension>
        </extensions>
      </trkpt>
      <trkpt lat="49.8489740677177906036376953125" lon="6.8637706898152828216552734375">
        <ele>300.79998779296875</ele>
        <time>2026-04-22T08:59:34.000Z</time>
        <extensions>
          <ns3:TrackPointExtension>
            <ns3:hr>102</ns3:hr>
            <ns3:cad>49</ns3:cad>
          </ns3:TrackPointExtension>
        </extensions>
      </trkpt>
      <trkpt lat="49.84898555092513561248779296875" lon="6.86377043835818767547607421875">
        <ele>300.600006103515625</ele>
        <time>2026-04-22T08:59:42.000Z</time>
        <extensions>
          <ns3:TrackPointExtension>
            <ns3:hr>101</ns3:hr>
            <ns3:cad>0</ns3:cad>
          </ns3:TrackPointExtension>
        </extensions>
      </trkpt>
      <trkpt lat="49.84900734387338161468505859375" lon="6.86384436674416065216064453125">
        <ele>300.600006103515625</ele>
        <time>2026-04-22T08:59:48.000Z</time>
        <extensions>
          <ns3:TrackPointExtension>
            <ns3:hr>101</ns3:hr>
            <ns3:cad>0</ns3:cad>
          </ns3:TrackPointExtension>
        </extensions>
      </trkpt>
      <trkpt lat="49.849023185670375823974609375" lon="6.863978393375873565673828125">
        <ele>300.20001220703125</ele>
        <time>2026-04-22T08:59:56.000Z</time>
        <extensions>
          <ns3:TrackPointExtension>
            <ns3:hr>102</ns3:hr>
            <ns3:cad>52</ns3:cad>
          </ns3:TrackPointExtension>
        </extensions>
      </trkpt>
      <trkpt lat="49.84900700859725475311279296875" lon="6.86407252214848995208740234375">
        <ele>300</ele>
        <time>2026-04-22T09:00:01.000Z</time>
        <extensions>
          <ns3:TrackPointExtension>
            <ns3:hr>101</ns3:hr>
            <ns3:cad>52</ns3:cad>
          </ns3:TrackPointExtension>
        </extensions>
      </trkpt>
      <trkpt lat="49.84898370690643787384033203125" lon="6.86414008028805255889892578125">
        <ele>299.79998779296875</ele>
        <time>2026-04-22T09:00:05.000Z</time>
        <extensions>
          <ns3:TrackPointExtension>
            <ns3:hr>101</ns3:hr>
            <ns3:cad>52</ns3:cad>
          </ns3:TrackPointExtension>
        </extensions>
      </trkpt>
      <trkpt lat="49.84897985123097896575927734375" lon="6.8641550838947296142578125">
        <ele>299.79998779296875</ele>
        <time>2026-04-22T09:00:06.000Z</time>
        <extensions>
          <ns3:TrackPointExtension>
            <ns3:hr>101</ns3:hr>
            <ns3:cad>52</ns3:cad>
          </ns3:TrackPointExtension>
        </extensions>
      </trkpt>
      <trkpt lat="49.848954118788242340087890625" lon="6.86429866589605808258056640625">
        <ele>299.20001220703125</ele>
        <time>2026-04-22T09:00:14.000Z</time>
        <extensions>
          <ns3:TrackPointExtension>
            <ns3:hr>101</ns3:hr>
            <ns3:cad>54</ns3:cad>
          </ns3:TrackPointExtension>
        </extensions>
      </trkpt>
      <trkpt lat="49.8489388637244701385498046875" lon="6.8643916212022304534912109375">
        <ele>299.20001220703125</ele>
        <time>2026-04-22T09:00:21.000Z</time>
        <extensions>
          <ns3:TrackPointExtension>
            <ns3:hr>100</ns3:hr>
            <ns3:cad>0</ns3:cad>
          </ns3:TrackPointExtension>
        </extensions>
      </trkpt>
      <trkpt lat="49.84893911518156528472900390625" lon="6.8644103966653347015380859375">
        <ele>299.20001220703125</ele>
        <time>2026-04-22T09:00:28.000Z</time>
        <extensions>
          <ns3:TrackPointExtension>
            <ns3:hr>99</ns3:hr>
            <ns3:cad>0</ns3:cad>
          </ns3:TrackPointExtension>
        </extensions>
      </trkpt>
      <trkpt lat="49.8489217646420001983642578125" lon="6.8645488657057285308837890625">
        <ele>299.600006103515625</ele>
        <time>2026-04-22T09:00:35.000Z</time>
        <extensions>
          <ns3:TrackPointExtension>
            <ns3:hr>99</ns3:hr>
            <ns3:cad>55</ns3:cad>
          </ns3:TrackPointExtension>
        </extensions>
      </trkpt>
      <trkpt lat="49.848897792398929595947265625" lon="6.8646823056042194366455078125">
        <ele>299.600006103515625</ele>
        <time>2026-04-22T09:00:44.000Z</time>
        <extensions>
          <ns3:TrackPointExtension>
            <ns3:hr>102</ns3:hr>
            <ns3:cad>0</ns3:cad>
          </ns3:TrackPointExtension>
        </extensions>
      </trkpt>
      <trkpt lat="49.8488600738346576690673828125" lon="6.86472010798752307891845703125">
        <ele>299.600006103515625</ele>
        <time>2026-04-22T09:00:50.000Z</time>
        <extensions>
          <ns3:TrackPointExtension>
            <ns3:hr>106</ns3:hr>
            <ns3:cad>0</ns3:cad>
          </ns3:TrackPointExtension>
        </extensions>
      </trkpt>
      <trkpt lat="49.848860241472721099853515625" lon="6.86472379602491855621337890625">
        <ele>299.600006103515625</ele>
        <time>2026-04-22T09:00:51.000Z</time>
        <extensions>
          <ns3:TrackPointExtension>
            <ns3:hr>107</ns3:hr>
            <ns3:cad>0</ns3:cad>
          </ns3:TrackPointExtension>
        </extensions>
      </trkpt>
      <trkpt lat="49.84887910075485706329345703125" lon="6.864775009453296661376953125">
        <ele>299.399993896484375</ele>
        <time>2026-04-22T09:00:57.000Z</time>
        <extensions>
          <ns3:TrackPointExtension>
            <ns3:hr>107</ns3:hr>
            <ns3:cad>0</ns3:cad>
          </ns3:TrackPointExtension>
        </extensions>
      </trkpt>
      <trkpt lat="49.84885060228407382965087890625" lon="6.864850781857967376708984375">
        <ele>299</ele>
        <time>2026-04-22T09:01:04.000Z</time>
        <extensions>
          <ns3:TrackPointExtension>
            <ns3:hr>108</ns3:hr>
            <ns3:cad>0</ns3:cad>
          </ns3:TrackPointExtension>
        </extensions>
      </trkpt>
      <trkpt lat="49.8488469980657100677490234375" lon="6.8648459203541278839111328125">
        <ele>298.79998779296875</ele>
        <time>2026-04-22T09:01:05.000Z</time>
        <extensions>
          <ns3:TrackPointExtension>
            <ns3:hr>108</ns3:hr>
            <ns3:cad>0</ns3:cad>
          </ns3:TrackPointExtension>
        </extensions>
      </trkpt>
      <trkpt lat="49.8488426394760608673095703125" lon="6.86482588760554790496826171875">
        <ele>298.399993896484375</ele>
        <time>2026-04-22T09:01:13.000Z</time>
        <extensions>
          <ns3:TrackPointExtension>
            <ns3:hr>108</ns3:hr>
            <ns3:cad>0</ns3:cad>
          </ns3:TrackPointExtension>
        </extensions>
      </trkpt>
      <trkpt lat="49.84884004108607769012451171875" lon="6.86491842381656169891357421875">
        <ele>298.600006103515625</ele>
        <time>2026-04-22T09:01:18.000Z</time>
        <extensions>
          <ns3:TrackPointExtension>
            <ns3:hr>108</ns3:hr>
            <ns3:cad>55</ns3:cad>
          </ns3:TrackPointExtension>
        </extensions>
      </trkpt>
      <trkpt lat="49.84882109798491001129150390625" lon="6.8650283105671405792236328125">
        <ele>298.399993896484375</ele>
        <time>2026-04-22T09:01:24.000Z</time>
        <extensions>
          <ns3:TrackPointExtension>
            <ns3:hr>108</ns3:hr>
            <ns3:cad>54</ns3:cad>
          </ns3:TrackPointExtension>
        </extensions>
      </trkpt>
      <trkpt lat="49.8488191701471805572509765625" lon="6.86507198028266429901123046875">
        <ele>298.20001220703125</ele>
        <time>2026-04-22T09:01:26.000Z</time>
        <extensions>
          <ns3:TrackPointExtension>
            <ns3:hr>108</ns3:hr>
            <ns3:cad>54</ns3:cad>
          </ns3:TrackPointExtension>
        </extensions>
      </trkpt>
      <trkpt lat="49.8488054238259792327880859375" lon="6.86512193642556667327880859375">
        <ele>298</ele>
        <time>2026-04-22T09:01:29.000Z</time>
        <extensions>
          <ns3:TrackPointExtension>
            <ns3:hr>107</ns3:hr>
            <ns3:cad>53</ns3:cad>
          </ns3:TrackPointExtension>
        </extensions>
      </trkpt>
      <trkpt lat="49.84880131669342517852783203125" lon="6.86513987369835376739501953125">
        <ele>297.79998779296875</ele>
        <time>2026-04-22T09:01:30.000Z</time>
        <extensions>
          <ns3:TrackPointExtension>
            <ns3:hr>107</ns3:hr>
            <ns3:cad>53</ns3:cad>
          </ns3:TrackPointExtension>
        </extensions>
      </trkpt>
      <trkpt lat="49.8487923480570316314697265625" lon="6.86518211849033832550048828125">
        <ele>297.79998779296875</ele>
        <time>2026-04-22T09:01:33.000Z</time>
        <extensions>
          <ns3:TrackPointExtension>
            <ns3:hr>107</ns3:hr>
            <ns3:cad>53</ns3:cad>
          </ns3:TrackPointExtension>
        </extensions>
      </trkpt>
      <trkpt lat="49.84877533279359340667724609375" lon="6.86524984426796436309814453125">
        <ele>297.399993896484375</ele>
        <time>2026-04-22T09:01:37.000Z</time>
        <extensions>
          <ns3:TrackPointExtension>
            <ns3:hr>107</ns3:hr>
            <ns3:cad>53</ns3:cad>
          </ns3:TrackPointExtension>
        </extensions>
      </trkpt>
      <trkpt lat="49.8487537913024425506591796875" lon="6.86528136022388935089111328125">
        <ele>297.399993896484375</ele>
        <time>2026-04-22T09:01:40.000Z</time>
        <extensions>
          <ns3:TrackPointExtension>
            <ns3:hr>106</ns3:hr>
            <ns3:cad>53</ns3:cad>
          </ns3:TrackPointExtension>
        </extensions>
      </trkpt>
      <trkpt lat="49.8487336747348308563232421875" lon="6.86531941406428813934326171875">
        <ele>297</ele>
        <time>2026-04-22T09:01:46.000Z</time>
        <extensions>
          <ns3:TrackPointExtension>
            <ns3:hr>106</ns3:hr>
            <ns3:cad>0</ns3:cad>
          </ns3:TrackPointExtension>
        </extensions>
      </trkpt>
      <trkpt lat="49.8487343452870845794677734375" lon="6.865335591137409210205078125">
        <ele>297</ele>
        <time>2026-04-22T09:01:48.000Z</time>
        <extensions>
          <ns3:TrackPointExtension>
            <ns3:hr>109</ns3:hr>
            <ns3:cad>0</ns3:cad>
          </ns3:TrackPointExtension>
        </extensions>
      </trkpt>
      <trkpt lat="49.84873426146805286407470703125" lon="6.865365765988826751708984375">
        <ele>297</ele>
        <time>2026-04-22T09:01:50.000Z</time>
        <extensions>
          <ns3:TrackPointExtension>
            <ns3:hr>110</ns3:hr>
            <ns3:cad>0</ns3:cad>
          </ns3:TrackPointExtension>
        </extensions>
      </trkpt>
      <trkpt lat="49.8487244546413421630859375" lon="6.86540574766695499420166015625">
        <ele>297</ele>
        <time>2026-04-22T09:01:52.000Z</time>
        <extensions>
          <ns3:TrackPointExtension>
            <ns3:hr>110</ns3:hr>
            <ns3:cad>53</ns3:cad>
          </ns3:TrackPointExtension>
        </extensions>
      </trkpt>
      <trkpt lat="49.8487135581672191619873046875" lon="6.86546945013105869293212890625">
        <ele>296.79998779296875</ele>
        <time>2026-04-22T09:01:56.000Z</time>
        <extensions>
          <ns3:TrackPointExtension>
            <ns3:hr>109</ns3:hr>
            <ns3:cad>53</ns3:cad>
          </ns3:TrackPointExtension>
        </extensions>
      </trkpt>
      <trkpt lat="49.84870274551212787628173828125" lon="6.86551555059850215911865234375">
        <ele>296.600006103515625</ele>
        <time>2026-04-22T09:01:59.000Z</time>
        <extensions>
          <ns3:TrackPointExtension>
            <ns3:hr>109</ns3:hr>
            <ns3:cad>53</ns3:cad>
          </ns3:TrackPointExtension>
        </extensions>
      </trkpt>
      <trkpt lat="49.84870023094117641448974609375" lon="6.86551563441753387451171875">
        <ele>296.20001220703125</ele>
        <time>2026-04-22T09:02:01.000Z</time>
        <extensions>
          <ns3:TrackPointExtension>
            <ns3:hr>108</ns3:hr>
            <ns3:cad>0</ns3:cad>
          </ns3:TrackPointExtension>
        </extensions>
      </trkpt>
      <trkpt lat="49.84870324842631816864013671875" lon="6.86555846594274044036865234375">
        <ele>296</ele>
        <time>2026-04-22T09:02:06.000Z</time>
        <extensions>
          <ns3:TrackPointExtension>
            <ns3:hr>105</ns3:hr>
            <ns3:cad>0</ns3:cad>
          </ns3:TrackPointExtension>
        </extensions>
      </trkpt>
      <trkpt lat="49.8486978001892566680908203125" lon="6.86557724140584468841552734375">
        <ele>296.20001220703125</ele>
        <time>2026-04-22T09:02:07.000Z</time>
        <extensions>
          <ns3:TrackPointExtension>
            <ns3:hr>104</ns3:hr>
            <ns3:cad>0</ns3:cad>
          </ns3:TrackPointExtension>
        </extensions>
      </trkpt>
      <trkpt lat="49.84868480823934078216552734375" lon="6.865605153143405914306640625">
        <ele>296.20001220703125</ele>
        <time>2026-04-22T09:02:08.000Z</time>
        <extensions>
          <ns3:TrackPointExtension>
            <ns3:hr>101</ns3:hr>
            <ns3:cad>0</ns3:cad>
          </ns3:TrackPointExtension>
        </extensions>
      </trkpt>
      <trkpt lat="49.8486535437405109405517578125" lon="6.86572141014039516448974609375">
        <ele>296</ele>
        <time>2026-04-22T09:02:16.000Z</time>
        <extensions>
          <ns3:TrackPointExtension>
            <ns3:hr>99</ns3:hr>
            <ns3:cad>56</ns3:cad>
          </ns3:TrackPointExtension>
        </extensions>
      </trkpt>
      <trkpt lat="49.848620854318141937255859375" lon="6.86578729189932346343994140625">
        <ele>295.79998779296875</ele>
        <time>2026-04-22T09:02:20.000Z</time>
        <extensions>
          <ns3:TrackPointExtension>
            <ns3:hr>98</ns3:hr>
            <ns3:cad>55</ns3:cad>
          </ns3:TrackPointExtension>
        </extensions>
      </trkpt>
      <trkpt lat="49.848591350018978118896484375" lon="6.86590262688696384429931640625">
        <ele>295.600006103515625</ele>
        <time>2026-04-22T09:02:26.000Z</time>
        <extensions>
          <ns3:TrackPointExtension>
            <ns3:hr>98</ns3:hr>
            <ns3:cad>55</ns3:cad>
          </ns3:TrackPointExtension>
        </extensions>
      </trkpt>
      <trkpt lat="49.848589003086090087890625" lon="6.86592073179781436920166015625">
        <ele>295.399993896484375</ele>
        <time>2026-04-22T09:02:27.000Z</time>
        <extensions>
          <ns3:TrackPointExtension>
            <ns3:hr>98</ns3:hr>
            <ns3:cad>55</ns3:cad>
          </ns3:TrackPointExtension>
        </extensions>
      </trkpt>
      <trkpt lat="49.84855505637824535369873046875" lon="6.8660026229918003082275390625">
        <ele>295.399993896484375</ele>
        <time>2026-04-22T09:02:32.000Z</time>
        <extensions>
          <ns3:TrackPointExtension>
            <ns3:hr>99</ns3:hr>
            <ns3:cad>55</ns3:cad>
          </ns3:TrackPointExtension>
        </extensions>
      </trkpt>
      <trkpt lat="49.84850996173918247222900390625" lon="6.8661296926438808441162109375">
        <ele>295.600006103515625</ele>
        <time>2026-04-22T09:02:40.000Z</time>
        <extensions>
          <ns3:TrackPointExtension>
            <ns3:hr>98</ns3:hr>
            <ns3:cad>55</ns3:cad>
          </ns3:TrackPointExtension>
        </extensions>
      </trkpt>
      <trkpt lat="49.84849353320896625518798828125" lon="6.866194568574428558349609375">
        <ele>295.600006103515625</ele>
        <time>2026-04-22T09:02:43.000Z</time>
        <extensions>
          <ns3:TrackPointExtension>
            <ns3:hr>98</ns3:hr>
            <ns3:cad>55</ns3:cad>
          </ns3:TrackPointExtension>
        </extensions>
      </trkpt>
      <trkpt lat="49.84847559593617916107177734375" lon="6.866247542202472686767578125">
        <ele>295.600006103515625</ele>
        <time>2026-04-22T09:02:46.000Z</time>
        <extensions>
          <ns3:TrackPointExtension>
            <ns3:hr>98</ns3:hr>
            <ns3:cad>55</ns3:cad>
          </ns3:TrackPointExtension>
        </extensions>
      </trkpt>
      <trkpt lat="49.8484419845044612884521484375" lon="6.8663839995861053466796875">
        <ele>296</ele>
        <time>2026-04-22T09:02:54.000Z</time>
        <extensions>
          <ns3:TrackPointExtension>
            <ns3:hr>98</ns3:hr>
            <ns3:cad>55</ns3:cad>
          </ns3:TrackPointExtension>
        </extensions>
      </trkpt>
      <trkpt lat="49.84842932783067226409912109375" lon="6.86639917083084583282470703125">
        <ele>295.79998779296875</ele>
        <time>2026-04-22T09:02:55.000Z</time>
        <extensions>
          <ns3:TrackPointExtension>
            <ns3:hr>98</ns3:hr>
            <ns3:cad>55</ns3:cad>
          </ns3:TrackPointExtension>
        </extensions>
      </trkpt>
      <trkpt lat="49.84842631034553050994873046875" lon="6.86639850027859210968017578125">
        <ele>294.600006103515625</ele>
        <time>2026-04-22T09:02:58.000Z</time>
        <extensions>
          <ns3:TrackPointExtension>
            <ns3:hr>98</ns3:hr>
            <ns3:cad>0</ns3:cad>
          </ns3:TrackPointExtension>
        </extensions>
      </trkpt>
      <trkpt lat="49.8484255559742450714111328125" lon="6.86639782972633838653564453125">
        <ele>294.600006103515625</ele>
        <time>2026-04-22T09:02:59.000Z</time>
        <extensions>
          <ns3:TrackPointExtension>
            <ns3:hr>98</ns3:hr>
            <ns3:cad>0</ns3:cad>
          </ns3:TrackPointExtension>
        </extensions>
      </trkpt>
      <trkpt lat="49.84842161647975444793701171875" lon="6.86642079614102840423583984375">
        <ele>294.399993896484375</ele>
        <time>2026-04-22T09:03:04.000Z</time>
        <extensions>
          <ns3:TrackPointExtension>
            <ns3:hr>101</ns3:hr>
            <ns3:cad>0</ns3:cad>
          </ns3:TrackPointExtension>
        </extensions>
      </trkpt>
      <trkpt lat="49.848412312567234039306640625" lon="6.86649824492633342742919921875">
        <ele>294.79998779296875</ele>
        <time>2026-04-22T09:03:07.000Z</time>
        <extensions>
          <ns3:TrackPointExtension>
            <ns3:hr>104</ns3:hr>
            <ns3:cad>0</ns3:cad>
          </ns3:TrackPointExtension>
        </extensions>
      </trkpt>
      <trkpt lat="49.848412312567234039306640625" lon="6.86649824492633342742919921875">
        <ele>294.79998779296875</ele>
        <time>2026-04-22T09:03:08.000Z</time>
        <extensions>
          <ns3:TrackPointExtension>
            <ns3:hr>104</ns3:hr>
            <ns3:cad>0</ns3:cad>
          </ns3:TrackPointExtension>
        </extensions>
      </trkpt>
      <trkpt lat="49.848395884037017822265625" lon="6.86655071564018726348876953125">
        <ele>294.79998779296875</ele>
        <time>2026-04-22T09:03:11.000Z</time>
        <extensions>
          <ns3:TrackPointExtension>
            <ns3:hr>104</ns3:hr>
            <ns3:cad>55</ns3:cad>
          </ns3:TrackPointExtension>
        </extensions>
      </trkpt>
      <trkpt lat="49.84838238917291164398193359375" lon="6.86657971702516078948974609375">
        <ele>295.20001220703125</ele>
        <time>2026-04-22T09:03:13.000Z</time>
        <extensions>
          <ns3:TrackPointExtension>
            <ns3:hr>104</ns3:hr>
            <ns3:cad>55</ns3:cad>
          </ns3:TrackPointExtension>
        </extensions>
      </trkpt>
      <trkpt lat="49.84837803058326244354248046875" lon="6.86662204563617706298828125">
        <ele>295.399993896484375</ele>
        <time>2026-04-22T09:03:14.000Z</time>
        <extensions>
          <ns3:TrackPointExtension>
            <ns3:hr>104</ns3:hr>
            <ns3:cad>55</ns3:cad>
          </ns3:TrackPointExtension>
        </extensions>
      </trkpt>
      <trkpt lat="49.8483784496784210205078125" lon="6.8666513822972774505615234375">
        <ele>295.79998779296875</ele>
        <time>2026-04-22T09:03:17.000Z</time>
        <extensions>
          <ns3:TrackPointExtension>
            <ns3:hr>104</ns3:hr>
            <ns3:cad>55</ns3:cad>
          </ns3:TrackPointExtension>
        </extensions>
      </trkpt>
      <trkpt lat="49.8483705706894397735595703125" lon="6.8667063675820827484130859375">
        <ele>295.79998779296875</ele>
        <time>2026-04-22T09:03:20.000Z</time>
        <extensions>
          <ns3:TrackPointExtension>
            <ns3:hr>105</ns3:hr>
            <ns3:cad>55</ns3:cad>
          </ns3:TrackPointExtension>
        </extensions>
      </trkpt>
      <trkpt lat="49.84832908026874065399169921875" lon="6.86689563095569610595703125">
        <ele>295.600006103515625</ele>
        <time>2026-04-22T09:03:29.000Z</time>
        <extensions>
          <ns3:TrackPointExtension>
            <ns3:hr>106</ns3:hr>
            <ns3:cad>55</ns3:cad>
          </ns3:TrackPointExtension>
        </extensions>
      </trkpt>
      <trkpt lat="49.84829572029411792755126953125" lon="6.86694349162280559539794921875">
        <ele>295.399993896484375</ele>
        <time>2026-04-22T09:03:33.000Z</time>
        <extensions>
          <ns3:TrackPointExtension>
            <ns3:hr>106</ns3:hr>
            <ns3:cad>56</ns3:cad>
          </ns3:TrackPointExtension>
        </extensions>
      </trkpt>
      <trkpt lat="49.84827853739261627197265625" lon="6.86697383411228656768798828125">
        <ele>295.399993896484375</ele>
        <time>2026-04-22T09:03:35.000Z</time>
        <extensions>
          <ns3:TrackPointExtension>
            <ns3:hr>106</ns3:hr>
            <ns3:cad>56</ns3:cad>
          </ns3:TrackPointExtension>
        </extensions>
      </trkpt>
      <trkpt lat="49.848273508250713348388671875" lon="6.8670097924768924713134765625">
        <ele>295.399993896484375</ele>
        <time>2026-04-22T09:03:36.000Z</time>
        <extensions>
          <ns3:TrackPointExtension>
            <ns3:hr>106</ns3:hr>
            <ns3:cad>56</ns3:cad>
          </ns3:TrackPointExtension>
        </extensions>
      </trkpt>
      <trkpt lat="49.84823319129645824432373046875" lon="6.86707776971161365509033203125">
        <ele>295.600006103515625</ele>
        <time>2026-04-22T09:03:41.000Z</time>
        <extensions>
          <ns3:TrackPointExtension>
            <ns3:hr>106</ns3:hr>
            <ns3:cad>56</ns3:cad>
          </ns3:TrackPointExtension>
        </extensions>
      </trkpt>
      <trkpt lat="49.84819999895989894866943359375" lon="6.86721883714199066162109375">
        <ele>295.20001220703125</ele>
        <time>2026-04-22T09:03:49.000Z</time>
        <extensions>
          <ns3:TrackPointExtension>
            <ns3:hr>107</ns3:hr>
            <ns3:cad>51</ns3:cad>
          </ns3:TrackPointExtension>
        </extensions>
      </trkpt>
      <trkpt lat="49.8481620289385318756103515625" lon="6.86733911745250225067138671875">
        <ele>296.600006103515625</ele>
        <time>2026-04-22T09:03:57.000Z</time>
        <extensions>
          <ns3:TrackPointExtension>
            <ns3:hr>110</ns3:hr>
            <ns3:cad>54</ns3:cad>
          </ns3:TrackPointExtension>
        </extensions>
      </trkpt>
      <trkpt lat="49.84815993346273899078369140625" lon="6.86735856346786022186279296875">
        <ele>296.600006103515625</ele>
        <time>2026-04-22T09:03:58.000Z</time>
        <extensions>
          <ns3:TrackPointExtension>
            <ns3:hr>110</ns3:hr>
            <ns3:cad>54</ns3:cad>
          </ns3:TrackPointExtension>
        </extensions>
      </trkpt>
      <trkpt lat="49.84814937226474285125732421875" lon="6.8674013949930667877197265625">
        <ele>296.79998779296875</ele>
        <time>2026-04-22T09:04:01.000Z</time>
        <extensions>
          <ns3:TrackPointExtension>
            <ns3:hr>113</ns3:hr>
            <ns3:cad>54</ns3:cad>
          </ns3:TrackPointExtension>
        </extensions>
      </trkpt>
      <trkpt lat="49.8481348715722560882568359375" lon="6.86742913909256458282470703125">
        <ele>296.79998779296875</ele>
        <time>2026-04-22T09:04:02.000Z</time>
        <extensions>
          <ns3:TrackPointExtension>
            <ns3:hr>115</ns3:hr>
            <ns3:cad>54</ns3:cad>
          </ns3:TrackPointExtension>
        </extensions>
      </trkpt>
      <trkpt lat="49.84813143499195575714111328125" lon="6.867446489632129669189453125">
        <ele>296.79998779296875</ele>
        <time>2026-04-22T09:04:04.000Z</time>
        <extensions>
          <ns3:TrackPointExtension>
            <ns3:hr>116</ns3:hr>
            <ns3:cad>54</ns3:cad>
          </ns3:TrackPointExtension>
        </extensions>
      </trkpt>
      <trkpt lat="49.84812607057392597198486328125" lon="6.86752569861710071563720703125">
        <ele>297.20001220703125</ele>
        <time>2026-04-22T09:04:08.000Z</time>
        <extensions>
          <ns3:TrackPointExtension>
            <ns3:hr>119</ns3:hr>
            <ns3:cad>54</ns3:cad>
          </ns3:TrackPointExtension>
        </extensions>
      </trkpt>
      <trkpt lat="49.84812255017459392547607421875" lon="6.86758093535900115966796875">
        <ele>296</ele>
        <time>2026-04-22T09:04:13.000Z</time>
        <extensions>
          <ns3:TrackPointExtension>
            <ns3:hr>118</ns3:hr>
            <ns3:cad>53</ns3:cad>
          </ns3:TrackPointExtension>
        </extensions>
      </trkpt>
      <trkpt lat="49.84810343943536281585693359375" lon="6.86758152209222316741943359375">
        <ele>296</ele>
        <time>2026-04-22T09:04:19.000Z</time>
        <extensions>
          <ns3:TrackPointExtension>
            <ns3:hr>117</ns3:hr>
            <ns3:cad>0</ns3:cad>
          </ns3:TrackPointExtension>
        </extensions>
      </trkpt>
      <trkpt lat="49.84810209833085536956787109375" lon="6.8676857091486454010009765625">
        <ele>296.399993896484375</ele>
        <time>2026-04-22T09:04:26.000Z</time>
        <extensions>
          <ns3:TrackPointExtension>
            <ns3:hr>115</ns3:hr>
            <ns3:cad>0</ns3:cad>
          </ns3:TrackPointExtension>
        </extensions>
      </trkpt>
      <trkpt lat="49.84808801673352718353271484375" lon="6.86769819818437099456787109375">
        <ele>295.79998779296875</ele>
        <time>2026-04-22T09:04:33.000Z</time>
        <extensions>
          <ns3:TrackPointExtension>
            <ns3:hr>113</ns3:hr>
            <ns3:cad>0</ns3:cad>
          </ns3:TrackPointExtension>
        </extensions>
      </trkpt>
      <trkpt lat="49.84808516688644886016845703125" lon="6.8677841126918792724609375">
        <ele>297.399993896484375</ele>
        <time>2026-04-22T09:04:39.000Z</time>
        <extensions>
          <ns3:TrackPointExtension>
            <ns3:hr>113</ns3:hr>
            <ns3:cad>0</ns3:cad>
          </ns3:TrackPointExtension>
        </extensions>
      </trkpt>
      <trkpt lat="49.8480758629739284515380859375" lon="6.86794261448085308074951171875">
        <ele>297</ele>
        <time>2026-04-22T09:04:47.000Z</time>
        <extensions>
          <ns3:TrackPointExtension>
            <ns3:hr>113</ns3:hr>
            <ns3:cad>0</ns3:cad>
          </ns3:TrackPointExtension>
        </extensions>
      </trkpt>
      <trkpt lat="49.8480644635856151580810546875" lon="6.868067085742950439453125">
        <ele>298</ele>
        <time>2026-04-22T09:04:54.000Z</time>
        <extensions>
          <ns3:TrackPointExtension>
            <ns3:hr>115</ns3:hr>
            <ns3:cad>0</ns3:cad>
          </ns3:TrackPointExtension>
        </extensions>
      </trkpt>
      <trkpt lat="49.8480704985558986663818359375" lon="6.8680980987846851348876953125">
        <ele>298</ele>
        <time>2026-04-22T09:04:56.000Z</time>
        <extensions>
          <ns3:TrackPointExtension>
            <ns3:hr>116</ns3:hr>
            <ns3:cad>53</ns3:cad>
          </ns3:TrackPointExtension>
        </extensions>
      </trkpt>
      <trkpt lat="49.848044179379940032958984375" lon="6.8682255037128925323486328125">
        <ele>297.399993896484375</ele>
        <time>2026-04-22T09:05:03.000Z</time>
        <extensions>
          <ns3:TrackPointExtension>
            <ns3:hr>118</ns3:hr>
            <ns3:cad>0</ns3:cad>
          </ns3:TrackPointExtension>
        </extensions>
      </trkpt>
      <trkpt lat="49.848036803305149078369140625" lon="6.86833790503442287445068359375">
        <ele>297.79998779296875</ele>
        <time>2026-04-22T09:05:09.000Z</time>
        <extensions>
          <ns3:TrackPointExtension>
            <ns3:hr>117</ns3:hr>
            <ns3:cad>0</ns3:cad>
          </ns3:TrackPointExtension>
        </extensions>
      </trkpt>
      <trkpt lat="49.847995229065418243408203125" lon="6.86843681149184703826904296875">
        <ele>297.79998779296875</ele>
        <time>2026-04-22T09:05:16.000Z</time>
        <extensions>
          <ns3:TrackPointExtension>
            <ns3:hr>116</ns3:hr>
            <ns3:cad>0</ns3:cad>
          </ns3:TrackPointExtension>
        </extensions>
      </trkpt>
      <trkpt lat="49.847985170781612396240234375" lon="6.86844401992857456207275390625">
        <ele>297.79998779296875</ele>
        <time>2026-04-22T09:05:17.000Z</time>
        <extensions>
          <ns3:TrackPointExtension>
            <ns3:hr>115</ns3:hr>
            <ns3:cad>0</ns3:cad>
          </ns3:TrackPointExtension>
        </extensions>
      </trkpt>
      <trkpt lat="49.84796077944338321685791015625" lon="6.86845122836530208587646484375">
        <ele>297</ele>
        <time>2026-04-22T09:05:21.000Z</time>
        <extensions>
          <ns3:TrackPointExtension>
            <ns3:hr>115</ns3:hr>
            <ns3:cad>0</ns3:cad>
          </ns3:TrackPointExtension>
        </extensions>
      </trkpt>
      <trkpt lat="49.8479883559048175811767578125" lon="6.86850571073591709136962890625">
        <ele>297.20001220703125</ele>
        <time>2026-04-22T09:05:28.000Z</time>
        <extensions>
          <ns3:TrackPointExtension>
            <ns3:hr>115</ns3:hr>
            <ns3:cad>0</ns3:cad>
          </ns3:TrackPointExtension>
        </extensions>
      </trkpt>
      <trkpt lat="49.84799229539930820465087890625" lon="6.86859271489083766937255859375">
        <ele>298.399993896484375</ele>
        <time>2026-04-22T09:05:33.000Z</time>
        <extensions>
          <ns3:TrackPointExtension>
            <ns3:hr>114</ns3:hr>
            <ns3:cad>0</ns3:cad>
          </ns3:TrackPointExtension>
        </extensions>
      </trkpt>
      <trkpt lat="49.847971759736537933349609375" lon="6.86869581229984760284423828125">
        <ele>299</ele>
        <time>2026-04-22T09:05:39.000Z</time>
        <extensions>
          <ns3:TrackPointExtension>
            <ns3:hr>115</ns3:hr>
            <ns3:cad>53</ns3:cad>
          </ns3:TrackPointExtension>
        </extensions>
      </trkpt>
      <trkpt lat="49.84796346165239810943603515625" lon="6.86872011981904506683349609375">
        <ele>299.79998779296875</ele>
        <time>2026-04-22T09:05:41.000Z</time>
        <extensions>
          <ns3:TrackPointExtension>
            <ns3:hr>116</ns3:hr>
            <ns3:cad>53</ns3:cad>
          </ns3:TrackPointExtension>
        </extensions>
      </trkpt>
      <trkpt lat="49.8479528166353702545166015625" lon="6.868778206408023834228515625">
        <ele>299.600006103515625</ele>
        <time>2026-04-22T09:05:45.000Z</time>
        <extensions>
          <ns3:TrackPointExtension>
            <ns3:hr>119</ns3:hr>
            <ns3:cad>53</ns3:cad>
          </ns3:TrackPointExtension>
        </extensions>
      </trkpt>
      <trkpt lat="49.84795725904405117034912109375" lon="6.8688690662384033203125">
        <ele>299.399993896484375</ele>
        <time>2026-04-22T09:05:50.000Z</time>
        <extensions>
          <ns3:TrackPointExtension>
            <ns3:hr>121</ns3:hr>
            <ns3:cad>53</ns3:cad>
          </ns3:TrackPointExtension>
        </extensions>
      </trkpt>
      <trkpt lat="49.84795155934989452362060546875" lon="6.86888180673122406005859375">
        <ele>299.399993896484375</ele>
        <time>2026-04-22T09:05:51.000Z</time>
        <extensions>
          <ns3:TrackPointExtension>
            <ns3:hr>122</ns3:hr>
            <ns3:cad>53</ns3:cad>
          </ns3:TrackPointExtension>
        </extensions>
      </trkpt>
      <trkpt lat="49.84795172698795795440673828125" lon="6.86894726939499378204345703125">
        <ele>299.600006103515625</ele>
        <time>2026-04-22T09:05:55.000Z</time>
        <extensions>
          <ns3:TrackPointExtension>
            <ns3:hr>123</ns3:hr>
            <ns3:cad>53</ns3:cad>
          </ns3:TrackPointExtension>
        </extensions>
      </trkpt>
      <trkpt lat="49.847950302064418792724609375" lon="6.86899923719465732574462890625">
        <ele>299.79998779296875</ele>
        <time>2026-04-22T09:05:58.000Z</time>
        <extensions>
          <ns3:TrackPointExtension>
            <ns3:hr>124</ns3:hr>
            <ns3:cad>53</ns3:cad>
          </ns3:TrackPointExtension>
        </extensions>
      </trkpt>
      <trkpt lat="49.847945272922515869140625" lon="6.8690382130444049835205078125">
        <ele>300</ele>
        <time>2026-04-22T09:06:00.000Z</time>
        <extensions>
          <ns3:TrackPointExtension>
            <ns3:hr>124</ns3:hr>
            <ns3:cad>53</ns3:cad>
          </ns3:TrackPointExtension>
        </extensions>
      </trkpt>
      <trkpt lat="49.84794334508478641510009765625" lon="6.86905388720333576202392578125">
        <ele>300</ele>
        <time>2026-04-22T09:06:01.000Z</time>
        <extensions>
          <ns3:TrackPointExtension>
            <ns3:hr>124</ns3:hr>
            <ns3:cad>53</ns3:cad>
          </ns3:TrackPointExtension>
        </extensions>
      </trkpt>
      <trkpt lat="49.847939908504486083984375" lon="6.86914105899631977081298828125">
        <ele>300.20001220703125</ele>
        <time>2026-04-22T09:06:06.000Z</time>
        <extensions>
          <ns3:TrackPointExtension>
            <ns3:hr>122</ns3:hr>
            <ns3:cad>53</ns3:cad>
          </ns3:TrackPointExtension>
        </extensions>
      </trkpt>
      <trkpt lat="49.8479464463889598846435546875" lon="6.86921800486743450164794921875">
        <ele>301.399993896484375</ele>
        <time>2026-04-22T09:06:10.000Z</time>
        <extensions>
          <ns3:TrackPointExtension>
            <ns3:hr>121</ns3:hr>
            <ns3:cad>53</ns3:cad>
          </ns3:TrackPointExtension>
        </extensions>
      </trkpt>
      <trkpt lat="49.84794720076024532318115234375" lon="6.86923946253955364227294921875">
        <ele>301.399993896484375</ele>
        <time>2026-04-22T09:06:11.000Z</time>
        <extensions>
          <ns3:TrackPointExtension>
            <ns3:hr>121</ns3:hr>
            <ns3:cad>53</ns3:cad>
          </ns3:TrackPointExtension>
        </extensions>
      </trkpt>
      <trkpt lat="49.84793731011450290679931640625" lon="6.869435347616672515869140625">
        <ele>302</ele>
        <time>2026-04-22T09:06:21.000Z</time>
        <extensions>
          <ns3:TrackPointExtension>
            <ns3:hr>123</ns3:hr>
            <ns3:cad>55</ns3:cad>
          </ns3:TrackPointExtension>
        </extensions>
      </trkpt>
      <trkpt lat="49.8479278385639190673828125" lon="6.8696316517889499664306640625">
        <ele>301</ele>
        <time>2026-04-22T09:06:31.000Z</time>
        <extensions>
          <ns3:TrackPointExtension>
            <ns3:hr>122</ns3:hr>
            <ns3:cad>55</ns3:cad>
          </ns3:TrackPointExtension>
        </extensions>
      </trkpt>
      <trkpt lat="49.84792046248912811279296875" lon="6.8696356751024723052978515625">
        <ele>301</ele>
        <time>2026-04-22T09:06:33.000Z</time>
        <extensions>
          <ns3:TrackPointExtension>
            <ns3:hr>121</ns3:hr>
            <ns3:cad>0</ns3:cad>
          </ns3:TrackPointExtension>
        </extensions>
      </trkpt>
      <trkpt lat="49.84791400842368602752685546875" lon="6.8696282990276813507080078125">
        <ele>300.399993896484375</ele>
        <time>2026-04-22T09:06:36.000Z</time>
        <extensions>
          <ns3:TrackPointExtension>
            <ns3:hr>120</ns3:hr>
            <ns3:cad>0</ns3:cad>
          </ns3:TrackPointExtension>
        </extensions>
      </trkpt>
      <trkpt lat="49.84791384078562259674072265625" lon="6.86962787993252277374267578125">
        <ele>300.399993896484375</ele>
        <time>2026-04-22T09:06:43.000Z</time>
        <extensions>
          <ns3:TrackPointExtension>
            <ns3:hr>117</ns3:hr>
            <ns3:cad>0</ns3:cad>
          </ns3:TrackPointExtension>
        </extensions>
      </trkpt>
      <trkpt lat="49.8479135893285274505615234375" lon="6.86962754465639591217041015625">
        <ele>301</ele>
        <time>2026-04-22T09:06:56.000Z</time>
        <extensions>
          <ns3:TrackPointExtension>
            <ns3:hr>114</ns3:hr>
            <ns3:cad>0</ns3:cad>
          </ns3:TrackPointExtension>
        </extensions>
      </trkpt>
      <trkpt lat="49.84791367314755916595458984375" lon="6.86962754465639591217041015625">
        <ele>300.79998779296875</ele>
        <time>2026-04-22T09:06:57.000Z</time>
        <extensions>
          <ns3:TrackPointExtension>
            <ns3:hr>114</ns3:hr>
            <ns3:cad>0</ns3:cad>
          </ns3:TrackPointExtension>
        </extensions>
      </trkpt>
      <trkpt lat="49.84792004339396953582763671875" lon="6.869628466665744781494140625">
        <ele>300.600006103515625</ele>
        <time>2026-04-22T09:07:09.000Z</time>
        <extensions>
          <ns3:TrackPointExtension>
            <ns3:hr>111</ns3:hr>
            <ns3:cad>0</ns3:cad>
          </ns3:TrackPointExtension>
        </extensions>
      </trkpt>
      <trkpt lat="49.84791819937527179718017578125" lon="6.86967917717993259429931640625">
        <ele>300.399993896484375</ele>
        <time>2026-04-22T09:07:20.000Z</time>
        <extensions>
          <ns3:TrackPointExtension>
            <ns3:hr>108</ns3:hr>
            <ns3:cad>54</ns3:cad>
          </ns3:TrackPointExtension>
        </extensions>
      </trkpt>
      <trkpt lat="49.84791819937527179718017578125" lon="6.8697027303278446197509765625">
        <ele>300.20001220703125</ele>
        <time>2026-04-22T09:07:21.000Z</time>
        <extensions>
          <ns3:TrackPointExtension>
            <ns3:hr>108</ns3:hr>
            <ns3:cad>54</ns3:cad>
          </ns3:TrackPointExtension>
        </extensions>
      </trkpt>
      <trkpt lat="49.84790042974054813385009765625" lon="6.869857795536518096923828125">
        <ele>300</ele>
        <time>2026-04-22T09:07:28.000Z</time>
        <extensions>
          <ns3:TrackPointExtension>
            <ns3:hr>107</ns3:hr>
            <ns3:cad>55</ns3:cad>
          </ns3:TrackPointExtension>
        </extensions>
      </trkpt>
      <trkpt lat="49.84787176363170146942138671875" lon="6.8698834441602230072021484375">
        <ele>299.20001220703125</ele>
        <time>2026-04-22T09:07:31.000Z</time>
        <extensions>
          <ns3:TrackPointExtension>
            <ns3:hr>107</ns3:hr>
            <ns3:cad>53</ns3:cad>
          </ns3:TrackPointExtension>
        </extensions>
      </trkpt>
      <trkpt lat="49.847850389778614044189453125" lon="6.86990196816623210906982421875">
        <ele>299.20001220703125</ele>
        <time>2026-04-22T09:07:35.000Z</time>
        <extensions>
          <ns3:TrackPointExtension>
            <ns3:hr>107</ns3:hr>
            <ns3:cad>0</ns3:cad>
          </ns3:TrackPointExtension>
        </extensions>
      </trkpt>
      <trkpt lat="49.84784946776926517486572265625" lon="6.8699042312800884246826171875">
        <ele>299.79998779296875</ele>
        <time>2026-04-22T09:07:42.000Z</time>
        <extensions>
          <ns3:TrackPointExtension>
            <ns3:hr>106</ns3:hr>
            <ns3:cad>0</ns3:cad>
          </ns3:TrackPointExtension>
        </extensions>
      </trkpt>
      <trkpt lat="49.8477902077138423919677734375" lon="6.869862489402294158935546875">
        <ele>299.399993896484375</ele>
        <time>2026-04-22T09:07:50.000Z</time>
        <extensions>
          <ns3:TrackPointExtension>
            <ns3:hr>105</ns3:hr>
            <ns3:cad>0</ns3:cad>
          </ns3:TrackPointExtension>
        </extensions>
      </trkpt>
      <trkpt lat="49.8477908782660961151123046875" lon="6.86986190266907215118408203125">
        <ele>299</ele>
        <time>2026-04-22T09:07:56.000Z</time>
        <extensions>
          <ns3:TrackPointExtension>
            <ns3:hr>109</ns3:hr>
            <ns3:cad>0</ns3:cad>
          </ns3:TrackPointExtension>
        </extensions>
      </trkpt>
      <trkpt lat="49.847821556031703948974609375" lon="6.86990766786038875579833984375">
        <ele>299.399993896484375</ele>
        <time>2026-04-22T09:08:02.000Z</time>
        <extensions>
          <ns3:TrackPointExtension>
            <ns3:hr>110</ns3:hr>
            <ns3:cad>0</ns3:cad>
          </ns3:TrackPointExtension>
        </extensions>
      </trkpt>
      <trkpt lat="49.847821891307830810546875" lon="6.86991185881197452545166015625">
        <ele>299.600006103515625</ele>
        <time>2026-04-22T09:08:08.000Z</time>
        <extensions>
          <ns3:TrackPointExtension>
            <ns3:hr>110</ns3:hr>
            <ns3:cad>0</ns3:cad>
          </ns3:TrackPointExtension>
        </extensions>
      </trkpt>
      <trkpt lat="49.84784779138863086700439453125" lon="6.86994572170078754425048828125">
        <ele>299.20001220703125</ele>
        <time>2026-04-22T09:08:32.000Z</time>
        <extensions>
          <ns3:TrackPointExtension>
            <ns3:hr>110</ns3:hr>
            <ns3:cad>0</ns3:cad>
          </ns3:TrackPointExtension>
        </extensions>
      </trkpt>
      <trkpt lat="49.84789120964705944061279296875" lon="6.87001906335353851318359375">
        <ele>299</ele>
        <time>2026-04-22T09:08:38.000Z</time>
        <extensions>
          <ns3:TrackPointExtension>
            <ns3:hr>111</ns3:hr>
            <ns3:cad>50</ns3:cad>
          </ns3:TrackPointExtension>
        </extensions>
      </trkpt>
      <trkpt lat="49.847864806652069091796875" lon="6.87015426345169544219970703125">
        <ele>299.399993896484375</ele>
        <time>2026-04-22T09:08:45.000Z</time>
        <extensions>
          <ns3:TrackPointExtension>
            <ns3:hr>108</ns3:hr>
            <ns3:cad>0</ns3:cad>
          </ns3:TrackPointExtension>
        </extensions>
      </trkpt>
      <trkpt lat="49.847859442234039306640625" lon="6.87020572833716869354248046875">
        <ele>299.600006103515625</ele>
        <time>2026-04-22T09:08:48.000Z</time>
        <extensions>
          <ns3:TrackPointExtension>
            <ns3:hr>108</ns3:hr>
            <ns3:cad>53</ns3:cad>
          </ns3:TrackPointExtension>
        </extensions>
      </trkpt>
      <trkpt lat="49.84783538617193698883056640625" lon="6.87045668251812458038330078125">
        <ele>299.399993896484375</ele>
        <time>2026-04-22T09:09:00.000Z</time>
        <extensions>
          <ns3:TrackPointExtension>
            <ns3:hr>108</ns3:hr>
            <ns3:cad>55</ns3:cad>
          </ns3:TrackPointExtension>
        </extensions>
      </trkpt>
      <trkpt lat="49.84783329069614410400390625" lon="6.87061912380158901214599609375">
        <ele>299.20001220703125</ele>
        <time>2026-04-22T09:09:10.000Z</time>
        <extensions>
          <ns3:TrackPointExtension>
            <ns3:hr>110</ns3:hr>
            <ns3:cad>56</ns3:cad>
          </ns3:TrackPointExtension>
        </extensions>
      </trkpt>
      <trkpt lat="49.8478151857852935791015625" lon="6.870807297527790069580078125">
        <ele>298.600006103515625</ele>
        <time>2026-04-22T09:09:20.000Z</time>
        <extensions>
          <ns3:TrackPointExtension>
            <ns3:hr>111</ns3:hr>
            <ns3:cad>0</ns3:cad>
          </ns3:TrackPointExtension>
        </extensions>
      </trkpt>
      <trkpt lat="49.84780185855925083160400390625" lon="6.87094065360724925994873046875">
        <ele>298.399993896484375</ele>
        <time>2026-04-22T09:09:27.000Z</time>
        <extensions>
          <ns3:TrackPointExtension>
            <ns3:hr>111</ns3:hr>
            <ns3:cad>56</ns3:cad>
          </ns3:TrackPointExtension>
        </extensions>
      </trkpt>
      <trkpt lat="49.8477989248931407928466796875" lon="6.87096479348838329315185546875">
        <ele>298.399993896484375</ele>
        <time>2026-04-22T09:09:29.000Z</time>
        <extensions>
          <ns3:TrackPointExtension>
            <ns3:hr>111</ns3:hr>
            <ns3:cad>56</ns3:cad>
          </ns3:TrackPointExtension>
        </extensions>
      </trkpt>
      <trkpt lat="49.84779465012252330780029296875" lon="6.870971582829952239990234375">
        <ele>298.20001220703125</ele>
        <time>2026-04-22T09:09:32.000Z</time>
        <extensions>
          <ns3:TrackPointExtension>
            <ns3:hr>110</ns3:hr>
            <ns3:cad>0</ns3:cad>
          </ns3:TrackPointExtension>
        </extensions>
      </trkpt>
      <trkpt lat="49.84779213555157184600830078125" lon="6.87096881680190563201904296875">
        <ele>298</ele>
        <time>2026-04-22T09:09:34.000Z</time>
        <extensions>
          <ns3:TrackPointExtension>
            <ns3:hr>110</ns3:hr>
            <ns3:cad>0</ns3:cad>
          </ns3:TrackPointExtension>
        </extensions>
      </trkpt>
      <trkpt lat="49.84779029153287410736083984375" lon="6.87096856534481048583984375">
        <ele>297.79998779296875</ele>
        <time>2026-04-22T09:09:40.000Z</time>
        <extensions>
          <ns3:TrackPointExtension>
            <ns3:hr>110</ns3:hr>
            <ns3:cad>0</ns3:cad>
          </ns3:TrackPointExtension>
        </extensions>
      </trkpt>
      <trkpt lat="49.8477910459041595458984375" lon="6.87096797861158847808837890625">
        <ele>297.600006103515625</ele>
        <time>2026-04-22T09:09:47.000Z</time>
        <extensions>
          <ns3:TrackPointExtension>
            <ns3:hr>113</ns3:hr>
            <ns3:cad>0</ns3:cad>
          </ns3:TrackPointExtension>
        </extensions>
      </trkpt>
      <trkpt lat="49.84779029153287410736083984375" lon="6.87096797861158847808837890625">
        <ele>297.600006103515625</ele>
        <time>2026-04-22T09:09:58.000Z</time>
        <extensions>
          <ns3:TrackPointExtension>
            <ns3:hr>110</ns3:hr>
            <ns3:cad>0</ns3:cad>
          </ns3:TrackPointExtension>
        </extensions>
      </trkpt>
      <trkpt lat="49.84779632650315761566162109375" lon="6.87098876573145389556884765625">
        <ele>297.399993896484375</ele>
        <time>2026-04-22T09:10:00.000Z</time>
        <extensions>
          <ns3:TrackPointExtension>
            <ns3:hr>110</ns3:hr>
            <ns3:cad>0</ns3:cad>
          </ns3:TrackPointExtension>
        </extensions>
      </trkpt>
      <trkpt lat="49.84779347665607929229736328125" lon="6.8711165897548198699951171875">
        <ele>297.20001220703125</ele>
        <time>2026-04-22T09:10:08.000Z</time>
        <extensions>
          <ns3:TrackPointExtension>
            <ns3:hr>108</ns3:hr>
            <ns3:cad>0</ns3:cad>
          </ns3:TrackPointExtension>
        </extensions>
      </trkpt>
      <trkpt lat="49.8477707616984844207763671875" lon="6.8711363710463047027587890625">
        <ele>297</ele>
        <time>2026-04-22T09:10:12.000Z</time>
        <extensions>
          <ns3:TrackPointExtension>
            <ns3:hr>105</ns3:hr>
            <ns3:cad>0</ns3:cad>
          </ns3:TrackPointExtension>
        </extensions>
      </trkpt>
      <trkpt lat="49.84776900149881839752197265625" lon="6.8711323477327823638916015625">
        <ele>297</ele>
        <time>2026-04-22T09:10:14.000Z</time>
        <extensions>
          <ns3:TrackPointExtension>
            <ns3:hr>104</ns3:hr>
            <ns3:cad>0</ns3:cad>
          </ns3:TrackPointExtension>
        </extensions>
      </trkpt>
      <trkpt lat="49.84776891767978668212890625" lon="6.87112958170473575592041015625">
        <ele>297.20001220703125</ele>
        <time>2026-04-22T09:10:30.000Z</time>
        <extensions>
          <ns3:TrackPointExtension>
            <ns3:hr>107</ns3:hr>
            <ns3:cad>0</ns3:cad>
          </ns3:TrackPointExtension>
        </extensions>
      </trkpt>
      <trkpt lat="49.84776950441300868988037109375" lon="6.8711316771805286407470703125">
        <ele>296.399993896484375</ele>
        <time>2026-04-22T09:10:36.000Z</time>
        <extensions>
          <ns3:TrackPointExtension>
            <ns3:hr>104</ns3:hr>
            <ns3:cad>0</ns3:cad>
          </ns3:TrackPointExtension>
        </extensions>
      </trkpt>
      <trkpt lat="49.8477722704410552978515625" lon="6.87113394029438495635986328125">
        <ele>296.20001220703125</ele>
        <time>2026-04-22T09:10:38.000Z</time>
        <extensions>
          <ns3:TrackPointExtension>
            <ns3:hr>101</ns3:hr>
            <ns3:cad>0</ns3:cad>
          </ns3:TrackPointExtension>
        </extensions>
      </trkpt>
      <trkpt lat="49.84777436591684818267822265625" lon="6.871147267520427703857421875">
        <ele>296</ele>
        <time>2026-04-22T09:10:42.000Z</time>
        <extensions>
          <ns3:TrackPointExtension>
            <ns3:hr>102</ns3:hr>
            <ns3:cad>0</ns3:cad>
          </ns3:TrackPointExtension>
        </extensions>
      </trkpt>
      <trkpt lat="49.847777970135211944580078125" lon="6.87116294167935848236083984375">
        <ele>296.20001220703125</ele>
        <time>2026-04-22T09:10:47.000Z</time>
        <extensions>
          <ns3:TrackPointExtension>
            <ns3:hr>105</ns3:hr>
            <ns3:cad>0</ns3:cad>
          </ns3:TrackPointExtension>
        </extensions>
      </trkpt>
      <trkpt lat="49.847757518291473388671875" lon="6.871253214776515960693359375">
        <ele>296</ele>
        <time>2026-04-22T09:10:51.000Z</time>
        <extensions>
          <ns3:TrackPointExtension>
            <ns3:hr>106</ns3:hr>
            <ns3:cad>0</ns3:cad>
          </ns3:TrackPointExtension>
        </extensions>
      </trkpt>
      <trkpt lat="49.84775491990149021148681640625" lon="6.871263943612575531005859375">
        <ele>296</ele>
        <time>2026-04-22T09:10:52.000Z</time>
        <extensions>
          <ns3:TrackPointExtension>
            <ns3:hr>106</ns3:hr>
            <ns3:cad>0</ns3:cad>
          </ns3:TrackPointExtension>
        </extensions>
      </trkpt>
      <trkpt lat="49.84775424934923648834228515625" lon="6.87129470519721508026123046875">
        <ele>295.79998779296875</ele>
        <time>2026-04-22T09:10:56.000Z</time>
        <extensions>
          <ns3:TrackPointExtension>
            <ns3:hr>105</ns3:hr>
            <ns3:cad>0</ns3:cad>
          </ns3:TrackPointExtension>
        </extensions>
      </trkpt>
      <trkpt lat="49.8477714322507381439208984375" lon="6.87128883786499500274658203125">
        <ele>295.79998779296875</ele>
        <time>2026-04-22T09:11:02.000Z</time>
        <extensions>
          <ns3:TrackPointExtension>
            <ns3:hr>108</ns3:hr>
            <ns3:cad>0</ns3:cad>
          </ns3:TrackPointExtension>
        </extensions>
      </trkpt>
      <trkpt lat="49.847775287926197052001953125" lon="6.87129252590239048004150390625">
        <ele>295.79998779296875</ele>
        <time>2026-04-22T09:11:03.000Z</time>
        <extensions>
          <ns3:TrackPointExtension>
            <ns3:hr>108</ns3:hr>
            <ns3:cad>0</ns3:cad>
          </ns3:TrackPointExtension>
        </extensions>
      </trkpt>
      <trkpt lat="49.84779699705541133880615234375" lon="6.87128196470439434051513671875">
        <ele>296</ele>
        <time>2026-04-22T09:11:10.000Z</time>
        <extensions>
          <ns3:TrackPointExtension>
            <ns3:hr>110</ns3:hr>
            <ns3:cad>0</ns3:cad>
          </ns3:TrackPointExtension>
        </extensions>
      </trkpt>
      <trkpt lat="49.8478599451482295989990234375" lon="6.87125279568135738372802734375">
        <ele>295.79998779296875</ele>
        <time>2026-04-22T09:11:15.000Z</time>
        <extensions>
          <ns3:TrackPointExtension>
            <ns3:hr>110</ns3:hr>
            <ns3:cad>52</ns3:cad>
          </ns3:TrackPointExtension>
        </extensions>
      </trkpt>
      <trkpt lat="49.84787159599363803863525390625" lon="6.871249862015247344970703125">
        <ele>295.79998779296875</ele>
        <time>2026-04-22T09:11:16.000Z</time>
        <extensions>
          <ns3:TrackPointExtension>
            <ns3:hr>111</ns3:hr>
            <ns3:cad>52</ns3:cad>
          </ns3:TrackPointExtension>
        </extensions>
      </trkpt>
      <trkpt lat="49.8478837497532367706298828125" lon="6.8712413124740123748779296875">
        <ele>295.79998779296875</ele>
        <time>2026-04-22T09:11:21.000Z</time>
        <extensions>
          <ns3:TrackPointExtension>
            <ns3:hr>112</ns3:hr>
            <ns3:cad>44</ns3:cad>
          </ns3:TrackPointExtension>
        </extensions>
      </trkpt>
      <trkpt lat="49.8479031957685947418212890625" lon="6.87125698663294315338134765625">
        <ele>296</ele>
        <time>2026-04-22T09:11:28.000Z</time>
        <extensions>
          <ns3:TrackPointExtension>
            <ns3:hr>113</ns3:hr>
            <ns3:cad>0</ns3:cad>
          </ns3:TrackPointExtension>
        </extensions>
      </trkpt>
      <trkpt lat="49.84791149385273456573486328125" lon="6.8712937831878662109375">
        <ele>296.600006103515625</ele>
        <time>2026-04-22T09:11:34.000Z</time>
        <extensions>
          <ns3:TrackPointExtension>
            <ns3:hr>113</ns3:hr>
            <ns3:cad>0</ns3:cad>
          </ns3:TrackPointExtension>
        </extensions>
      </trkpt>
      <trkpt lat="49.84790361486375331878662109375" lon="6.87129420228302478790283203125">
        <ele>297</ele>
        <time>2026-04-22T09:11:36.000Z</time>
        <extensions>
          <ns3:TrackPointExtension>
            <ns3:hr>113</ns3:hr>
            <ns3:cad>0</ns3:cad>
          </ns3:TrackPointExtension>
        </extensions>
      </trkpt>
      <trkpt lat="49.8478768765926361083984375" lon="6.87130392529070377349853515625">
        <ele>298</ele>
        <time>2026-04-22T09:11:41.000Z</time>
        <extensions>
          <ns3:TrackPointExtension>
            <ns3:hr>113</ns3:hr>
            <ns3:cad>0</ns3:cad>
          </ns3:TrackPointExtension>
        </extensions>
      </trkpt>
      <trkpt lat="49.84787486493587493896484375" lon="6.8713080324232578277587890625">
        <ele>298.20001220703125</ele>
        <time>2026-04-22T09:11:42.000Z</time>
        <extensions>
          <ns3:TrackPointExtension>
            <ns3:hr>113</ns3:hr>
            <ns3:cad>0</ns3:cad>
          </ns3:TrackPointExtension>
        </extensions>
      </trkpt>
      <trkpt lat="49.84788383357226848602294921875" lon="6.87132085673511028289794921875">
        <ele>299.20001220703125</ele>
        <time>2026-04-22T09:11:48.000Z</time>
        <extensions>
          <ns3:TrackPointExtension>
            <ns3:hr>115</ns3:hr>
            <ns3:cad>0</ns3:cad>
          </ns3:TrackPointExtension>
        </extensions>
      </trkpt>
      <trkpt lat="49.84788383357226848602294921875" lon="6.87132085673511028289794921875">
        <ele>300.20001220703125</ele>
        <time>2026-04-22T09:11:55.000Z</time>
        <extensions>
          <ns3:TrackPointExtension>
            <ns3:hr>116</ns3:hr>
            <ns3:cad>0</ns3:cad>
          </ns3:TrackPointExtension>
        </extensions>
      </trkpt>
      <trkpt lat="49.84788383357226848602294921875" lon="6.871316246688365936279296875">
        <ele>301.20001220703125</ele>
        <time>2026-04-22T09:12:03.000Z</time>
        <extensions>
          <ns3:TrackPointExtension>
            <ns3:hr>118</ns3:hr>
            <ns3:cad>0</ns3:cad>
          </ns3:TrackPointExtension>
        </extensions>
      </trkpt>
      <trkpt lat="49.84788383357226848602294921875" lon="6.8713083676993846893310546875">
        <ele>302</ele>
        <time>2026-04-22T09:12:08.000Z</time>
        <extensions>
          <ns3:TrackPointExtension>
            <ns3:hr>121</ns3:hr>
            <ns3:cad>0</ns3:cad>
          </ns3:TrackPointExtension>
        </extensions>
      </trkpt>
      <trkpt lat="49.84788416884839534759521484375" lon="6.87131063081324100494384765625">
        <ele>302.399993896484375</ele>
        <time>2026-04-22T09:12:10.000Z</time>
        <extensions>
          <ns3:TrackPointExtension>
            <ns3:hr>120</ns3:hr>
            <ns3:cad>0</ns3:cad>
          </ns3:TrackPointExtension>
        </extensions>
      </trkpt>
      <trkpt lat="49.84789841808378696441650390625" lon="6.8713160790503025054931640625">
        <ele>303.600006103515625</ele>
        <time>2026-04-22T09:12:18.000Z</time>
        <extensions>
          <ns3:TrackPointExtension>
            <ns3:hr>122</ns3:hr>
            <ns3:cad>0</ns3:cad>
          </ns3:TrackPointExtension>
        </extensions>
      </trkpt>
      <trkpt lat="49.84790981747210025787353515625" lon="6.8713160790503025054931640625">
        <ele>304</ele>
        <time>2026-04-22T09:12:23.000Z</time>
        <extensions>
          <ns3:TrackPointExtension>
            <ns3:hr>125</ns3:hr>
            <ns3:cad>0</ns3:cad>
          </ns3:TrackPointExtension>
        </extensions>
      </trkpt>
      <trkpt lat="49.84791635535657405853271484375" lon="6.87134332023561000823974609375">
        <ele>304.600006103515625</ele>
        <time>2026-04-22T09:12:27.000Z</time>
        <extensions>
          <ns3:TrackPointExtension>
            <ns3:hr>127</ns3:hr>
            <ns3:cad>0</ns3:cad>
          </ns3:TrackPointExtension>
        </extensions>
      </trkpt>
      <trkpt lat="49.84793295152485370635986328125" lon="6.87135136686265468597412109375">
        <ele>305.79998779296875</ele>
        <time>2026-04-22T09:12:33.000Z</time>
        <extensions>
          <ns3:TrackPointExtension>
            <ns3:hr>128</ns3:hr>
            <ns3:cad>0</ns3:cad>
          </ns3:TrackPointExtension>
        </extensions>
      </trkpt>
      <trkpt lat="49.84796161763370037078857421875" lon="6.87137265689671039581298828125">
        <ele>306.79998779296875</ele>
        <time>2026-04-22T09:12:42.000Z</time>
        <extensions>
          <ns3:TrackPointExtension>
            <ns3:hr>127</ns3:hr>
            <ns3:cad>0</ns3:cad>
          </ns3:TrackPointExtension>
        </extensions>
      </trkpt>
      <trkpt lat="49.84798324294388294219970703125" lon="6.87141523696482181549072265625">
        <ele>308</ele>
        <time>2026-04-22T09:12:50.000Z</time>
        <extensions>
          <ns3:TrackPointExtension>
            <ns3:hr>127</ns3:hr>
            <ns3:cad>0</ns3:cad>
          </ns3:TrackPointExtension>
        </extensions>
      </trkpt>
      <trkpt lat="49.8479957319796085357666015625" lon="6.8715232796967029571533203125">
        <ele>309.20001220703125</ele>
        <time>2026-04-22T09:12:56.000Z</time>
        <extensions>
          <ns3:TrackPointExtension>
            <ns3:hr>127</ns3:hr>
            <ns3:cad>43</ns3:cad>
          </ns3:TrackPointExtension>
        </extensions>
      </trkpt>
      <trkpt lat="49.84799212776124477386474609375" lon="6.871609948575496673583984375">
        <ele>309.600006103515625</ele>
        <time>2026-04-22T09:13:00.000Z</time>
        <extensions>
          <ns3:TrackPointExtension>
            <ns3:hr>128</ns3:hr>
            <ns3:cad>0</ns3:cad>
          </ns3:TrackPointExtension>
        </extensions>
      </trkpt>
      <trkpt lat="49.84799128957092761993408203125" lon="6.87167557887732982635498046875">
        <ele>310.20001220703125</ele>
        <time>2026-04-22T09:13:05.000Z</time>
        <extensions>
          <ns3:TrackPointExtension>
            <ns3:hr>128</ns3:hr>
            <ns3:cad>0</ns3:cad>
          </ns3:TrackPointExtension>
        </extensions>
      </trkpt>
      <trkpt lat="49.84799430705606937408447265625" lon="6.8716885708272457122802734375">
        <ele>310.399993896484375</ele>
        <time>2026-04-22T09:13:06.000Z</time>
        <extensions>
          <ns3:TrackPointExtension>
            <ns3:hr>128</ns3:hr>
            <ns3:cad>0</ns3:cad>
          </ns3:TrackPointExtension>
        </extensions>
      </trkpt>
      <trkpt lat="49.84799866564571857452392578125" lon="6.871738024055957794189453125">
        <ele>311.20001220703125</ele>
        <time>2026-04-22T09:13:12.000Z</time>
        <extensions>
          <ns3:TrackPointExtension>
            <ns3:hr>128</ns3:hr>
            <ns3:cad>0</ns3:cad>
          </ns3:TrackPointExtension>
        </extensions>
      </trkpt>
      <trkpt lat="49.84798994846642017364501953125" lon="6.8717700429260730743408203125">
        <ele>311.79998779296875</ele>
        <time>2026-04-22T09:13:15.000Z</time>
        <extensions>
          <ns3:TrackPointExtension>
            <ns3:hr>127</ns3:hr>
            <ns3:cad>0</ns3:cad>
          </ns3:TrackPointExtension>
        </extensions>
      </trkpt>
      <trkpt lat="49.8479937203228473663330078125" lon="6.8718521855771541595458984375">
        <ele>312.399993896484375</ele>
        <time>2026-04-22T09:13:19.000Z</time>
        <extensions>
          <ns3:TrackPointExtension>
            <ns3:hr>127</ns3:hr>
            <ns3:cad>0</ns3:cad>
          </ns3:TrackPointExtension>
        </extensions>
      </trkpt>
      <trkpt lat="49.84800201840698719024658203125" lon="6.8718900717794895172119140625">
        <ele>312.79998779296875</ele>
        <time>2026-04-22T09:13:21.000Z</time>
        <extensions>
          <ns3:TrackPointExtension>
            <ns3:hr>127</ns3:hr>
            <ns3:cad>0</ns3:cad>
          </ns3:TrackPointExtension>
        </extensions>
      </trkpt>
      <trkpt lat="49.84802263788878917694091796875" lon="6.87192703597247600555419921875">
        <ele>313.399993896484375</ele>
        <time>2026-04-22T09:13:26.000Z</time>
        <extensions>
          <ns3:TrackPointExtension>
            <ns3:hr>129</ns3:hr>
            <ns3:cad>0</ns3:cad>
          </ns3:TrackPointExtension>
        </extensions>
      </trkpt>
      <trkpt lat="49.84802314080297946929931640625" lon="6.8719470687210559844970703125">
        <ele>313.399993896484375</ele>
        <time>2026-04-22T09:13:28.000Z</time>
        <extensions>
          <ns3:TrackPointExtension>
            <ns3:hr>129</ns3:hr>
            <ns3:cad>0</ns3:cad>
          </ns3:TrackPointExtension>
        </extensions>
      </trkpt>
      <trkpt lat="49.8480265773832798004150390625" lon="6.87195503152906894683837890625">
        <ele>314.20001220703125</ele>
        <time>2026-04-22T09:13:34.000Z</time>
        <extensions>
          <ns3:TrackPointExtension>
            <ns3:hr>129</ns3:hr>
            <ns3:cad>0</ns3:cad>
          </ns3:TrackPointExtension>
        </extensions>
      </trkpt>
      <trkpt lat="49.84800956211984157562255859375" lon="6.87195561826229095458984375">
        <ele>314</ele>
        <time>2026-04-22T09:13:39.000Z</time>
        <extensions>
          <ns3:TrackPointExtension>
            <ns3:hr>128</ns3:hr>
            <ns3:cad>0</ns3:cad>
          </ns3:TrackPointExtension>
        </extensions>
      </trkpt>
      <trkpt lat="49.84799162484705448150634765625" lon="6.87195561826229095458984375">
        <ele>314.20001220703125</ele>
        <time>2026-04-22T09:13:46.000Z</time>
        <extensions>
          <ns3:TrackPointExtension>
            <ns3:hr>128</ns3:hr>
            <ns3:cad>0</ns3:cad>
          </ns3:TrackPointExtension>
        </extensions>
      </trkpt>
      <trkpt lat="49.847993887960910797119140625" lon="6.87195251695811748504638671875">
        <ele>314.20001220703125</ele>
        <time>2026-04-22T09:13:55.000Z</time>
        <extensions>
          <ns3:TrackPointExtension>
            <ns3:hr>125</ns3:hr>
            <ns3:cad>0</ns3:cad>
          </ns3:TrackPointExtension>
        </extensions>
      </trkpt>
      <trkpt lat="49.847993887960910797119140625" lon="6.87195251695811748504638671875">
        <ele>314.399993896484375</ele>
        <time>2026-04-22T09:13:56.000Z</time>
        <extensions>
          <ns3:TrackPointExtension>
            <ns3:hr>125</ns3:hr>
            <ns3:cad>0</ns3:cad>
          </ns3:TrackPointExtension>
        </extensions>
      </trkpt>
      <trkpt lat="49.8479927144944667816162109375" lon="6.87195519916713237762451171875">
        <ele>314.399993896484375</ele>
        <time>2026-04-22T09:14:07.000Z</time>
        <extensions>
          <ns3:TrackPointExtension>
            <ns3:hr>122</ns3:hr>
            <ns3:cad>0</ns3:cad>
          </ns3:TrackPointExtension>
        </extensions>
      </trkpt>
      <trkpt lat="49.8479922115802764892578125" lon="6.87195586971938610076904296875">
        <ele>314.20001220703125</ele>
        <time>2026-04-22T09:14:12.000Z</time>
        <extensions>
          <ns3:TrackPointExtension>
            <ns3:hr>119</ns3:hr>
            <ns3:cad>0</ns3:cad>
          </ns3:TrackPointExtension>
        </extensions>
      </trkpt>
      <trkpt lat="49.84799212776124477386474609375" lon="6.8719567917287349700927734375">
        <ele>314.399993896484375</ele>
        <time>2026-04-22T09:14:16.000Z</time>
        <extensions>
          <ns3:TrackPointExtension>
            <ns3:hr>118</ns3:hr>
            <ns3:cad>0</ns3:cad>
          </ns3:TrackPointExtension>
        </extensions>
      </trkpt>
      <trkpt lat="49.84799162484705448150634765625" lon="6.8720020540058612823486328125">
        <ele>314.600006103515625</ele>
        <time>2026-04-22T09:14:34.000Z</time>
        <extensions>
          <ns3:TrackPointExtension>
            <ns3:hr>115</ns3:hr>
            <ns3:cad>49</ns3:cad>
          </ns3:TrackPointExtension>
        </extensions>
      </trkpt>
      <trkpt lat="49.84799019992351531982421875" lon="6.872016973793506622314453125">
        <ele>314.600006103515625</ele>
        <time>2026-04-22T09:14:35.000Z</time>
        <extensions>
          <ns3:TrackPointExtension>
            <ns3:hr>115</ns3:hr>
            <ns3:cad>49</ns3:cad>
          </ns3:TrackPointExtension>
        </extensions>
      </trkpt>
      <trkpt lat="49.84799028374254703521728515625" lon="6.87206986360251903533935546875">
        <ele>314.600006103515625</ele>
        <time>2026-04-22T09:14:41.000Z</time>
        <extensions>
          <ns3:TrackPointExtension>
            <ns3:hr>112</ns3:hr>
            <ns3:cad>0</ns3:cad>
          </ns3:TrackPointExtension>
        </extensions>
      </trkpt>
      <trkpt lat="49.8479788005352020263671875" lon="6.87209668569266796112060546875">
        <ele>314.399993896484375</ele>
        <time>2026-04-22T09:14:44.000Z</time>
        <extensions>
          <ns3:TrackPointExtension>
            <ns3:hr>108</ns3:hr>
            <ns3:cad>0</ns3:cad>
          </ns3:TrackPointExtension>
        </extensions>
      </trkpt>
      <trkpt lat="49.8479531519114971160888671875" lon="6.87214395962655544281005859375">
        <ele>314.20001220703125</ele>
        <time>2026-04-22T09:14:47.000Z</time>
        <extensions>
          <ns3:TrackPointExtension>
            <ns3:hr>107</ns3:hr>
            <ns3:cad>51</ns3:cad>
          </ns3:TrackPointExtension>
        </extensions>
      </trkpt>
      <trkpt lat="49.847894646227359771728515625" lon="6.8722136132419109344482421875">
        <ele>313.399993896484375</ele>
        <time>2026-04-22T09:14:54.000Z</time>
        <extensions>
          <ns3:TrackPointExtension>
            <ns3:hr>104</ns3:hr>
            <ns3:cad>52</ns3:cad>
          </ns3:TrackPointExtension>
        </extensions>
      </trkpt>
      <trkpt lat="49.84788215719163417816162109375" lon="6.8722287006676197052001953125">
        <ele>313.399993896484375</ele>
        <time>2026-04-22T09:14:56.000Z</time>
        <extensions>
          <ns3:TrackPointExtension>
            <ns3:hr>105</ns3:hr>
            <ns3:cad>52</ns3:cad>
          </ns3:TrackPointExtension>
        </extensions>
      </trkpt>
      <trkpt lat="49.84786438755691051483154296875" lon="6.87225225381553173065185546875">
        <ele>313.20001220703125</ele>
        <time>2026-04-22T09:14:58.000Z</time>
        <extensions>
          <ns3:TrackPointExtension>
            <ns3:hr>106</ns3:hr>
            <ns3:cad>52</ns3:cad>
          </ns3:TrackPointExtension>
        </extensions>
      </trkpt>
      <trkpt lat="49.8478073067963123321533203125" lon="6.87235367484390735626220703125">
        <ele>313.20001220703125</ele>
        <time>2026-04-22T09:15:06.000Z</time>
        <extensions>
          <ns3:TrackPointExtension>
            <ns3:hr>105</ns3:hr>
            <ns3:cad>50</ns3:cad>
          </ns3:TrackPointExtension>
        </extensions>
      </trkpt>
      <trkpt lat="49.847733043134212493896484375" lon="6.87248401343822479248046875">
        <ele>312.20001220703125</ele>
        <time>2026-04-22T09:15:16.000Z</time>
        <extensions>
          <ns3:TrackPointExtension>
            <ns3:hr>106</ns3:hr>
            <ns3:cad>54</ns3:cad>
          </ns3:TrackPointExtension>
        </extensions>
      </trkpt>
      <trkpt lat="49.84771820716559886932373046875" lon="6.87251410447061061859130859375">
        <ele>312</ele>
        <time>2026-04-22T09:15:18.000Z</time>
        <extensions>
          <ns3:TrackPointExtension>
            <ns3:hr>106</ns3:hr>
            <ns3:cad>54</ns3:cad>
          </ns3:TrackPointExtension>
        </extensions>
      </trkpt>
      <trkpt lat="49.84767143614590167999267578125" lon="6.87260462902486324310302734375">
        <ele>311</ele>
        <time>2026-04-22T09:15:24.000Z</time>
        <extensions>
          <ns3:TrackPointExtension>
            <ns3:hr>106</ns3:hr>
            <ns3:cad>53</ns3:cad>
          </ns3:TrackPointExtension>
        </extensions>
      </trkpt>
      <trkpt lat="49.84765827655792236328125" lon="6.87264360487461090087890625">
        <ele>310.20001220703125</ele>
        <time>2026-04-22T09:15:27.000Z</time>
        <extensions>
          <ns3:TrackPointExtension>
            <ns3:hr>105</ns3:hr>
            <ns3:cad>53</ns3:cad>
          </ns3:TrackPointExtension>
        </extensions>
      </trkpt>
      <trkpt lat="49.84764821827411651611328125" lon="6.8726712651550769805908203125">
        <ele>309.79998779296875</ele>
        <time>2026-04-22T09:15:29.000Z</time>
        <extensions>
          <ns3:TrackPointExtension>
            <ns3:hr>104</ns3:hr>
            <ns3:cad>54</ns3:cad>
          </ns3:TrackPointExtension>
        </extensions>
      </trkpt>
      <trkpt lat="49.8476131819188594818115234375" lon="6.87274494208395481109619140625">
        <ele>308.600006103515625</ele>
        <time>2026-04-22T09:15:35.000Z</time>
        <extensions>
          <ns3:TrackPointExtension>
            <ns3:hr>104</ns3:hr>
            <ns3:cad>53</ns3:cad>
          </ns3:TrackPointExtension>
        </extensions>
      </trkpt>
      <trkpt lat="49.847584180533885955810546875" lon="6.87279875390231609344482421875">
        <ele>307.399993896484375</ele>
        <time>2026-04-22T09:15:40.000Z</time>
        <extensions>
          <ns3:TrackPointExtension>
            <ns3:hr>103</ns3:hr>
            <ns3:cad>53</ns3:cad>
          </ns3:TrackPointExtension>
        </extensions>
      </trkpt>
      <trkpt lat="49.84754771925508975982666015625" lon="6.87287000007927417755126953125">
        <ele>306</ele>
        <time>2026-04-22T09:15:47.000Z</time>
        <extensions>
          <ns3:TrackPointExtension>
            <ns3:hr>103</ns3:hr>
            <ns3:cad>53</ns3:cad>
          </ns3:TrackPointExtension>
        </extensions>
      </trkpt>
      <trkpt lat="49.847528524696826934814453125" lon="6.87291584908962249755859375">
        <ele>305</ele>
        <time>2026-04-22T09:15:50.000Z</time>
        <extensions>
          <ns3:TrackPointExtension>
            <ns3:hr>103</ns3:hr>
            <ns3:cad>54</ns3:cad>
          </ns3:TrackPointExtension>
        </extensions>
      </trkpt>
      <trkpt lat="49.8474881239235401153564453125" lon="6.87301701866090297698974609375">
        <ele>303.79998779296875</ele>
        <time>2026-04-22T09:15:57.000Z</time>
        <extensions>
          <ns3:TrackPointExtension>
            <ns3:hr>102</ns3:hr>
            <ns3:cad>54</ns3:cad>
          </ns3:TrackPointExtension>
        </extensions>
      </trkpt>
      <trkpt lat="49.84748267568647861480712890625" lon="6.87302850186824798583984375">
        <ele>303.399993896484375</ele>
        <time>2026-04-22T09:15:58.000Z</time>
        <extensions>
          <ns3:TrackPointExtension>
            <ns3:hr>102</ns3:hr>
            <ns3:cad>54</ns3:cad>
          </ns3:TrackPointExtension>
        </extensions>
      </trkpt>
      <trkpt lat="49.84746515750885009765625" lon="6.8730819784104824066162109375">
        <ele>302.79998779296875</ele>
        <time>2026-04-22T09:16:02.000Z</time>
        <extensions>
          <ns3:TrackPointExtension>
            <ns3:hr>103</ns3:hr>
            <ns3:cad>53</ns3:cad>
          </ns3:TrackPointExtension>
        </extensions>
      </trkpt>
      <trkpt lat="49.8474378325045108795166015625" lon="6.87314517796039581298828125">
        <ele>301.79998779296875</ele>
        <time>2026-04-22T09:16:07.000Z</time>
        <extensions>
          <ns3:TrackPointExtension>
            <ns3:hr>104</ns3:hr>
            <ns3:cad>53</ns3:cad>
          </ns3:TrackPointExtension>
        </extensions>
      </trkpt>
      <trkpt lat="49.84741486608982086181640625" lon="6.87318742275238037109375">
        <ele>301.20001220703125</ele>
        <time>2026-04-22T09:16:10.000Z</time>
        <extensions>
          <ns3:TrackPointExtension>
            <ns3:hr>109</ns3:hr>
            <ns3:cad>54</ns3:cad>
          </ns3:TrackPointExtension>
        </extensions>
      </trkpt>
      <trkpt lat="49.8474083282053470611572265625" lon="6.8732046894729137420654296875">
        <ele>301</ele>
        <time>2026-04-22T09:16:11.000Z</time>
        <extensions>
          <ns3:TrackPointExtension>
            <ns3:hr>109</ns3:hr>
            <ns3:cad>55</ns3:cad>
          </ns3:TrackPointExtension>
        </extensions>
      </trkpt>
      <trkpt lat="49.8473996110260486602783203125" lon="6.87324710190296173095703125">
        <ele>300.600006103515625</ele>
        <time>2026-04-22T09:16:14.000Z</time>
        <extensions>
          <ns3:TrackPointExtension>
            <ns3:hr>110</ns3:hr>
            <ns3:cad>54</ns3:cad>
          </ns3:TrackPointExtension>
        </extensions>
      </trkpt>
      <trkpt lat="49.8473908938467502593994140625" lon="6.87327283434569835662841796875">
        <ele>300.399993896484375</ele>
        <time>2026-04-22T09:16:16.000Z</time>
        <extensions>
          <ns3:TrackPointExtension>
            <ns3:hr>109</ns3:hr>
            <ns3:cad>54</ns3:cad>
          </ns3:TrackPointExtension>
        </extensions>
      </trkpt>
      <trkpt lat="49.847352504730224609375" lon="6.873354054987430572509765625">
        <ele>299.600006103515625</ele>
        <time>2026-04-22T09:16:22.000Z</time>
        <extensions>
          <ns3:TrackPointExtension>
            <ns3:hr>109</ns3:hr>
            <ns3:cad>53</ns3:cad>
          </ns3:TrackPointExtension>
        </extensions>
      </trkpt>
      <trkpt lat="49.84733716584742069244384765625" lon="6.87341582961380481719970703125">
        <ele>299.20001220703125</ele>
        <time>2026-04-22T09:16:26.000Z</time>
        <extensions>
          <ns3:TrackPointExtension>
            <ns3:hr>109</ns3:hr>
            <ns3:cad>53</ns3:cad>
          </ns3:TrackPointExtension>
        </extensions>
      </trkpt>
      <trkpt lat="49.84725904650986194610595703125" lon="6.8735557235777378082275390625">
        <ele>299</ele>
        <time>2026-04-22T09:16:36.000Z</time>
        <extensions>
          <ns3:TrackPointExtension>
            <ns3:hr>108</ns3:hr>
            <ns3:cad>55</ns3:cad>
          </ns3:TrackPointExtension>
        </extensions>
      </trkpt>
      <trkpt lat="49.8472319729626178741455078125" lon="6.873595453798770904541015625">
        <ele>298.399993896484375</ele>
        <time>2026-04-22T09:16:39.000Z</time>
        <extensions>
          <ns3:TrackPointExtension>
            <ns3:hr>108</ns3:hr>
            <ns3:cad>18</ns3:cad>
          </ns3:TrackPointExtension>
        </extensions>
      </trkpt>
      <trkpt lat="49.84718042425811290740966796875" lon="6.8736720643937587738037109375">
        <ele>299</ele>
        <time>2026-04-22T09:16:46.000Z</time>
        <extensions>
          <ns3:TrackPointExtension>
            <ns3:hr>108</ns3:hr>
            <ns3:cad>53</ns3:cad>
          </ns3:TrackPointExtension>
        </extensions>
      </trkpt>
      <trkpt lat="49.84709610231220722198486328125" lon="6.87376032583415508270263671875">
        <ele>299.20001220703125</ele>
        <time>2026-04-22T09:16:55.000Z</time>
        <extensions>
          <ns3:TrackPointExtension>
            <ns3:hr>109</ns3:hr>
            <ns3:cad>53</ns3:cad>
          </ns3:TrackPointExtension>
        </extensions>
      </trkpt>
      <trkpt lat="49.84701513312757015228271484375" lon="6.8738941848278045654296875">
        <ele>299.399993896484375</ele>
        <time>2026-04-22T09:17:05.000Z</time>
        <extensions>
          <ns3:TrackPointExtension>
            <ns3:hr>111</ns3:hr>
            <ns3:cad>53</ns3:cad>
          </ns3:TrackPointExtension>
        </extensions>
      </trkpt>
      <trkpt lat="49.8470110259950160980224609375" lon="6.8740041553974151611328125">
        <ele>299.20001220703125</ele>
        <time>2026-04-22T09:17:12.000Z</time>
        <extensions>
          <ns3:TrackPointExtension>
            <ns3:hr>112</ns3:hr>
            <ns3:cad>0</ns3:cad>
          </ns3:TrackPointExtension>
        </extensions>
      </trkpt>
      <trkpt lat="49.84701387584209442138671875" lon="6.87401077710092067718505859375">
        <ele>299.20001220703125</ele>
        <time>2026-04-22T09:17:14.000Z</time>
        <extensions>
          <ns3:TrackPointExtension>
            <ns3:hr>112</ns3:hr>
            <ns3:cad>0</ns3:cad>
          </ns3:TrackPointExtension>
        </extensions>
      </trkpt>
      <trkpt lat="49.84701731242239475250244140625" lon="6.87402301467955112457275390625">
        <ele>299</ele>
        <time>2026-04-22T09:17:22.000Z</time>
        <extensions>
          <ns3:TrackPointExtension>
            <ns3:hr>113</ns3:hr>
            <ns3:cad>0</ns3:cad>
          </ns3:TrackPointExtension>
        </extensions>
      </trkpt>
      <trkpt lat="49.847065173089504241943359375" lon="6.8740452267229557037353515625">
        <ele>299.399993896484375</ele>
        <time>2026-04-22T09:17:29.000Z</time>
        <extensions>
          <ns3:TrackPointExtension>
            <ns3:hr>113</ns3:hr>
            <ns3:cad>0</ns3:cad>
          </ns3:TrackPointExtension>
        </extensions>
      </trkpt>
      <trkpt lat="49.84708822332322597503662109375" lon="6.87405754812061786651611328125">
        <ele>299.600006103515625</ele>
        <time>2026-04-22T09:17:31.000Z</time>
        <extensions>
          <ns3:TrackPointExtension>
            <ns3:hr>114</ns3:hr>
            <ns3:cad>52</ns3:cad>
          </ns3:TrackPointExtension>
        </extensions>
      </trkpt>
      <trkpt lat="49.84714522026479244232177734375" lon="6.874085962772369384765625">
        <ele>299.600006103515625</ele>
        <time>2026-04-22T09:17:36.000Z</time>
        <extensions>
          <ns3:TrackPointExtension>
            <ns3:hr>115</ns3:hr>
            <ns3:cad>53</ns3:cad>
          </ns3:TrackPointExtension>
        </extensions>
      </trkpt>
      <trkpt lat="49.84717790968716144561767578125" lon="6.87410138547420501708984375">
        <ele>300.600006103515625</ele>
        <time>2026-04-22T09:17:39.000Z</time>
        <extensions>
          <ns3:TrackPointExtension>
            <ns3:hr>115</ns3:hr>
            <ns3:cad>51</ns3:cad>
          </ns3:TrackPointExtension>
        </extensions>
      </trkpt>
      <trkpt lat="49.84724110923707485198974609375" lon="6.8741236813366413116455078125">
        <ele>300.20001220703125</ele>
        <time>2026-04-22T09:17:46.000Z</time>
        <extensions>
          <ns3:TrackPointExtension>
            <ns3:hr>116</ns3:hr>
            <ns3:cad>52</ns3:cad>
          </ns3:TrackPointExtension>
        </extensions>
      </trkpt>
      <trkpt lat="49.84724613837897777557373046875" lon="6.87412074767053127288818359375">
        <ele>300.20001220703125</ele>
        <time>2026-04-22T09:17:47.000Z</time>
        <extensions>
          <ns3:TrackPointExtension>
            <ns3:hr>116</ns3:hr>
            <ns3:cad>52</ns3:cad>
          </ns3:TrackPointExtension>
        </extensions>
      </trkpt>
      <trkpt lat="49.8472510837018489837646484375" lon="6.8741196580231189727783203125">
        <ele>300.20001220703125</ele>
        <time>2026-04-22T09:17:52.000Z</time>
        <extensions>
          <ns3:TrackPointExtension>
            <ns3:hr>115</ns3:hr>
            <ns3:cad>0</ns3:cad>
          </ns3:TrackPointExtension>
        </extensions>
      </trkpt>
      <trkpt lat="49.84729844145476818084716796875" lon="6.87416064552962779998779296875">
        <ele>300</ele>
        <time>2026-04-22T09:17:59.000Z</time>
        <extensions>
          <ns3:TrackPointExtension>
            <ns3:hr>114</ns3:hr>
            <ns3:cad>0</ns3:cad>
          </ns3:TrackPointExtension>
        </extensions>
      </trkpt>
      <trkpt lat="49.84737169928848743438720703125" lon="6.8742038123309612274169921875">
        <ele>299.600006103515625</ele>
        <time>2026-04-22T09:18:06.000Z</time>
        <extensions>
          <ns3:TrackPointExtension>
            <ns3:hr>114</ns3:hr>
            <ns3:cad>0</ns3:cad>
          </ns3:TrackPointExtension>
        </extensions>
      </trkpt>
      <trkpt lat="49.8473902232944965362548828125" lon="6.874217055737972259521484375">
        <ele>299.399993896484375</ele>
        <time>2026-04-22T09:18:08.000Z</time>
        <extensions>
          <ns3:TrackPointExtension>
            <ns3:hr>114</ns3:hr>
            <ns3:cad>54</ns3:cad>
          </ns3:TrackPointExtension>
        </extensions>
      </trkpt>
      <trkpt lat="49.84751469455659389495849609375" lon="6.87427950091660022735595703125">
        <ele>300.20001220703125</ele>
        <time>2026-04-22T09:18:19.000Z</time>
        <extensions>
          <ns3:TrackPointExtension>
            <ns3:hr>113</ns3:hr>
            <ns3:cad>55</ns3:cad>
          </ns3:TrackPointExtension>
        </extensions>
      </trkpt>
      <trkpt lat="49.84765836037695407867431640625" lon="6.87436692416667938232421875">
        <ele>300</ele>
        <time>2026-04-22T09:18:32.000Z</time>
        <extensions>
          <ns3:TrackPointExtension>
            <ns3:hr>112</ns3:hr>
            <ns3:cad>0</ns3:cad>
          </ns3:TrackPointExtension>
        </extensions>
      </trkpt>
      <trkpt lat="49.84783194959163665771484375" lon="6.87445317395031452178955078125">
        <ele>299.399993896484375</ele>
        <time>2026-04-22T09:18:47.000Z</time>
        <extensions>
          <ns3:TrackPointExtension>
            <ns3:hr>113</ns3:hr>
            <ns3:cad>55</ns3:cad>
          </ns3:TrackPointExtension>
        </extensions>
      </trkpt>
      <trkpt lat="49.84795709140598773956298828125" lon="6.874508075416088104248046875">
        <ele>300.600006103515625</ele>
        <time>2026-04-22T09:18:58.000Z</time>
        <extensions>
          <ns3:TrackPointExtension>
            <ns3:hr>114</ns3:hr>
            <ns3:cad>0</ns3:cad>
          </ns3:TrackPointExtension>
        </extensions>
      </trkpt>
      <trkpt lat="49.84804560430347919464111328125" lon="6.87455241568386554718017578125">
        <ele>300.600006103515625</ele>
        <time>2026-04-22T09:19:06.000Z</time>
        <extensions>
          <ns3:TrackPointExtension>
            <ns3:hr>115</ns3:hr>
            <ns3:cad>55</ns3:cad>
          </ns3:TrackPointExtension>
        </extensions>
      </trkpt>
      <trkpt lat="49.8480932973325252532958984375" lon="6.87458024360239505767822265625">
        <ele>301</ele>
        <time>2026-04-22T09:19:10.000Z</time>
        <extensions>
          <ns3:TrackPointExtension>
            <ns3:hr>117</ns3:hr>
            <ns3:cad>0</ns3:cad>
          </ns3:TrackPointExtension>
        </extensions>
      </trkpt>
      <trkpt lat="49.84820745885372161865234375" lon="6.8746329657733440399169921875">
        <ele>300</ele>
        <time>2026-04-22T09:19:20.000Z</time>
        <extensions>
          <ns3:TrackPointExtension>
            <ns3:hr>119</ns3:hr>
            <ns3:cad>56</ns3:cad>
          </ns3:TrackPointExtension>
        </extensions>
      </trkpt>
      <trkpt lat="49.84825381077826023101806640625" lon="6.8746584467589855194091796875">
        <ele>299.600006103515625</ele>
        <time>2026-04-22T09:19:24.000Z</time>
        <extensions>
          <ns3:TrackPointExtension>
            <ns3:hr>118</ns3:hr>
            <ns3:cad>54</ns3:cad>
          </ns3:TrackPointExtension>
        </extensions>
      </trkpt>
      <trkpt lat="49.8483326844871044158935546875" lon="6.87472089193761348724365234375">
        <ele>299</ele>
        <time>2026-04-22T09:19:32.000Z</time>
        <extensions>
          <ns3:TrackPointExtension>
            <ns3:hr>117</ns3:hr>
            <ns3:cad>55</ns3:cad>
          </ns3:TrackPointExtension>
        </extensions>
      </trkpt>
      <trkpt lat="49.8483367078006267547607421875" lon="6.87473949976265430450439453125">
        <ele>299</ele>
        <time>2026-04-22T09:19:33.000Z</time>
        <extensions>
          <ns3:TrackPointExtension>
            <ns3:hr>116</ns3:hr>
            <ns3:cad>55</ns3:cad>
          </ns3:TrackPointExtension>
        </extensions>
      </trkpt>
      <trkpt lat="49.8483355343341827392578125" lon="6.87477596104145050048828125">
        <ele>299</ele>
        <time>2026-04-22T09:19:35.000Z</time>
        <extensions>
          <ns3:TrackPointExtension>
            <ns3:hr>116</ns3:hr>
            <ns3:cad>54</ns3:cad>
          </ns3:TrackPointExtension>
        </extensions>
      </trkpt>
      <trkpt lat="49.848322458565235137939453125" lon="6.87480001710355281829833984375">
        <ele>298.79998779296875</ele>
        <time>2026-04-22T09:19:37.000Z</time>
        <extensions>
          <ns3:TrackPointExtension>
            <ns3:hr>116</ns3:hr>
            <ns3:cad>53</ns3:cad>
          </ns3:TrackPointExtension>
        </extensions>
      </trkpt>
      <trkpt lat="49.84828080050647258758544921875" lon="6.87484527938067913055419921875">
        <ele>298.399993896484375</ele>
        <time>2026-04-22T09:19:41.000Z</time>
        <extensions>
          <ns3:TrackPointExtension>
            <ns3:hr>115</ns3:hr>
            <ns3:cad>53</ns3:cad>
          </ns3:TrackPointExtension>
        </extensions>
      </trkpt>
      <trkpt lat="49.8482196964323520660400390625" lon="6.87489825300872325897216796875">
        <ele>297.600006103515625</ele>
        <time>2026-04-22T09:19:47.000Z</time>
        <extensions>
          <ns3:TrackPointExtension>
            <ns3:hr>114</ns3:hr>
            <ns3:cad>55</ns3:cad>
          </ns3:TrackPointExtension>
        </extensions>
      </trkpt>
      <trkpt lat="49.84820586629211902618408203125" lon="6.87491568736732006072998046875">
        <ele>297.20001220703125</ele>
        <time>2026-04-22T09:19:49.000Z</time>
        <extensions>
          <ns3:TrackPointExtension>
            <ns3:hr>115</ns3:hr>
            <ns3:cad>55</ns3:cad>
          </ns3:TrackPointExtension>
        </extensions>
      </trkpt>
      <trkpt lat="49.84815113246440887451171875" lon="6.87498576007783412933349609375">
        <ele>296.20001220703125</ele>
        <time>2026-04-22T09:19:55.000Z</time>
        <extensions>
          <ns3:TrackPointExtension>
            <ns3:hr>115</ns3:hr>
            <ns3:cad>55</ns3:cad>
          </ns3:TrackPointExtension>
        </extensions>
      </trkpt>
      <trkpt lat="49.8481429181993007659912109375" lon="6.87499523162841796875">
        <ele>296.20001220703125</ele>
        <time>2026-04-22T09:19:56.000Z</time>
        <extensions>
          <ns3:TrackPointExtension>
            <ns3:hr>115</ns3:hr>
            <ns3:cad>55</ns3:cad>
          </ns3:TrackPointExtension>
        </extensions>
      </trkpt>
      <trkpt lat="49.8480490408837795257568359375" lon="6.87510562129318714141845703125">
        <ele>295</ele>
        <time>2026-04-22T09:20:06.000Z</time>
        <extensions>
          <ns3:TrackPointExtension>
            <ns3:hr>114</ns3:hr>
            <ns3:cad>55</ns3:cad>
          </ns3:TrackPointExtension>
        </extensions>
      </trkpt>
      <trkpt lat="49.84802766703069210052490234375" lon="6.8751288391649723052978515625">
        <ele>294.79998779296875</ele>
        <time>2026-04-22T09:20:08.000Z</time>
        <extensions>
          <ns3:TrackPointExtension>
            <ns3:hr>114</ns3:hr>
            <ns3:cad>55</ns3:cad>
          </ns3:TrackPointExtension>
        </extensions>
      </trkpt>
      <trkpt lat="49.84796312637627124786376953125" lon="6.87519329600036144256591796875">
        <ele>294</ele>
        <time>2026-04-22T09:20:15.000Z</time>
        <extensions>
          <ns3:TrackPointExtension>
            <ns3:hr>114</ns3:hr>
            <ns3:cad>56</ns3:cad>
          </ns3:TrackPointExtension>
        </extensions>
      </trkpt>
      <trkpt lat="49.84795457683503627777099609375" lon="6.8752029351890087127685546875">
        <ele>293.79998779296875</ele>
        <time>2026-04-22T09:20:16.000Z</time>
        <extensions>
          <ns3:TrackPointExtension>
            <ns3:hr>113</ns3:hr>
            <ns3:cad>55</ns3:cad>
          </ns3:TrackPointExtension>
        </extensions>
      </trkpt>
      <trkpt lat="49.84790193848311901092529296875" lon="6.87524509616196155548095703125">
        <ele>292.79998779296875</ele>
        <time>2026-04-22T09:20:20.000Z</time>
        <extensions>
          <ns3:TrackPointExtension>
            <ns3:hr>113</ns3:hr>
            <ns3:cad>55</ns3:cad>
          </ns3:TrackPointExtension>
        </extensions>
      </trkpt>
      <trkpt lat="49.84785231761634349822998046875" lon="6.8753005005419254302978515625">
        <ele>292.20001220703125</ele>
        <time>2026-04-22T09:20:24.000Z</time>
        <extensions>
          <ns3:TrackPointExtension>
            <ns3:hr>112</ns3:hr>
            <ns3:cad>55</ns3:cad>
          </ns3:TrackPointExtension>
        </extensions>
      </trkpt>
      <trkpt lat="49.84783153049647808074951171875" lon="6.8753199465572834014892578125">
        <ele>291.79998779296875</ele>
        <time>2026-04-22T09:20:26.000Z</time>
        <extensions>
          <ns3:TrackPointExtension>
            <ns3:hr>111</ns3:hr>
            <ns3:cad>56</ns3:cad>
          </ns3:TrackPointExtension>
        </extensions>
      </trkpt>
      <trkpt lat="49.8478213883936405181884765625" lon="6.8753216229379177093505859375">
        <ele>291.79998779296875</ele>
        <time>2026-04-22T09:20:27.000Z</time>
        <extensions>
          <ns3:TrackPointExtension>
            <ns3:hr>110</ns3:hr>
            <ns3:cad>56</ns3:cad>
          </ns3:TrackPointExtension>
        </extensions>
      </trkpt>
      <trkpt lat="49.847781993448734283447265625" lon="6.87531885690987110137939453125">
        <ele>291.600006103515625</ele>
        <time>2026-04-22T09:20:30.000Z</time>
        <extensions>
          <ns3:TrackPointExtension>
            <ns3:hr>110</ns3:hr>
            <ns3:cad>55</ns3:cad>
          </ns3:TrackPointExtension>
        </extensions>
      </trkpt>
      <trkpt lat="49.84777403064072132110595703125" lon="6.87532472424209117889404296875">
        <ele>291.600006103515625</ele>
        <time>2026-04-22T09:20:31.000Z</time>
        <extensions>
          <ns3:TrackPointExtension>
            <ns3:hr>110</ns3:hr>
            <ns3:cad>55</ns3:cad>
          </ns3:TrackPointExtension>
        </extensions>
      </trkpt>
      <trkpt lat="49.8477251641452312469482421875" lon="6.87535263597965240478515625">
        <ele>290.600006103515625</ele>
        <time>2026-04-22T09:20:35.000Z</time>
        <extensions>
          <ns3:TrackPointExtension>
            <ns3:hr>110</ns3:hr>
            <ns3:cad>55</ns3:cad>
          </ns3:TrackPointExtension>
        </extensions>
      </trkpt>
      <trkpt lat="49.84771200455725193023681640625" lon="6.87536470592021942138671875">
        <ele>290.399993896484375</ele>
        <time>2026-04-22T09:20:36.000Z</time>
        <extensions>
          <ns3:TrackPointExtension>
            <ns3:hr>110</ns3:hr>
            <ns3:cad>55</ns3:cad>
          </ns3:TrackPointExtension>
        </extensions>
      </trkpt>
      <trkpt lat="49.8476349748671054840087890625" lon="6.875408627092838287353515625">
        <ele>289.600006103515625</ele>
        <time>2026-04-22T09:20:43.000Z</time>
        <extensions>
          <ns3:TrackPointExtension>
            <ns3:hr>111</ns3:hr>
            <ns3:cad>55</ns3:cad>
          </ns3:TrackPointExtension>
        </extensions>
      </trkpt>
      <trkpt lat="49.84761326573789119720458984375" lon="6.8754245527088642120361328125">
        <ele>289.20001220703125</ele>
        <time>2026-04-22T09:20:45.000Z</time>
        <extensions>
          <ns3:TrackPointExtension>
            <ns3:hr>112</ns3:hr>
            <ns3:cad>55</ns3:cad>
          </ns3:TrackPointExtension>
        </extensions>
      </trkpt>
      <trkpt lat="49.84753967262804508209228515625" lon="6.87548046000301837921142578125">
        <ele>288.399993896484375</ele>
        <time>2026-04-22T09:20:53.000Z</time>
        <extensions>
          <ns3:TrackPointExtension>
            <ns3:hr>113</ns3:hr>
            <ns3:cad>55</ns3:cad>
          </ns3:TrackPointExtension>
        </extensions>
      </trkpt>
      <trkpt lat="49.8475142754614353179931640625" lon="6.8755035102367401123046875">
        <ele>288.20001220703125</ele>
        <time>2026-04-22T09:20:56.000Z</time>
        <extensions>
          <ns3:TrackPointExtension>
            <ns3:hr>113</ns3:hr>
            <ns3:cad>55</ns3:cad>
          </ns3:TrackPointExtension>
        </extensions>
      </trkpt>
      <trkpt lat="49.8474898003041744232177734375" lon="6.875526644289493560791015625">
        <ele>287.79998779296875</ele>
        <time>2026-04-22T09:20:59.000Z</time>
        <extensions>
          <ns3:TrackPointExtension>
            <ns3:hr>113</ns3:hr>
            <ns3:cad>55</ns3:cad>
          </ns3:TrackPointExtension>
        </extensions>
      </trkpt>
      <trkpt lat="49.84748351387679576873779296875" lon="6.87554399482905864715576171875">
        <ele>287.79998779296875</ele>
        <time>2026-04-22T09:21:00.000Z</time>
        <extensions>
          <ns3:TrackPointExtension>
            <ns3:hr>112</ns3:hr>
            <ns3:cad>56</ns3:cad>
          </ns3:TrackPointExtension>
        </extensions>
      </trkpt>
      <trkpt lat="49.8474737070500850677490234375" lon="6.87555505894124507904052734375">
        <ele>287.79998779296875</ele>
        <time>2026-04-22T09:21:01.000Z</time>
        <extensions>
          <ns3:TrackPointExtension>
            <ns3:hr>112</ns3:hr>
            <ns3:cad>56</ns3:cad>
          </ns3:TrackPointExtension>
        </extensions>
      </trkpt>
      <trkpt lat="49.847419559955596923828125" lon="6.8755781091749668121337890625">
        <ele>287.399993896484375</ele>
        <time>2026-04-22T09:21:05.000Z</time>
        <extensions>
          <ns3:TrackPointExtension>
            <ns3:hr>112</ns3:hr>
            <ns3:cad>54</ns3:cad>
          </ns3:TrackPointExtension>
        </extensions>
      </trkpt>
      <trkpt lat="49.8474190570414066314697265625" lon="6.87559135258197784423828125">
        <ele>287</ele>
        <time>2026-04-22T09:21:07.000Z</time>
        <extensions>
          <ns3:TrackPointExtension>
            <ns3:hr>112</ns3:hr>
            <ns3:cad>54</ns3:cad>
          </ns3:TrackPointExtension>
        </extensions>
      </trkpt>
      <trkpt lat="49.84738594852387905120849609375" lon="6.87566268257796764373779296875">
        <ele>286.399993896484375</ele>
        <time>2026-04-22T09:21:15.000Z</time>
        <extensions>
          <ns3:TrackPointExtension>
            <ns3:hr>111</ns3:hr>
            <ns3:cad>52</ns3:cad>
          </ns3:TrackPointExtension>
        </extensions>
      </trkpt>
      <trkpt lat="49.8473808355629444122314453125" lon="6.875682212412357330322265625">
        <ele>286.20001220703125</ele>
        <time>2026-04-22T09:21:16.000Z</time>
        <extensions>
          <ns3:TrackPointExtension>
            <ns3:hr>111</ns3:hr>
            <ns3:cad>52</ns3:cad>
          </ns3:TrackPointExtension>
        </extensions>
      </trkpt>
      <trkpt lat="49.84737672843039035797119140625" lon="6.87570073641836643218994140625">
        <ele>286.20001220703125</ele>
        <time>2026-04-22T09:21:17.000Z</time>
        <extensions>
          <ns3:TrackPointExtension>
            <ns3:hr>111</ns3:hr>
            <ns3:cad>52</ns3:cad>
          </ns3:TrackPointExtension>
        </extensions>
      </trkpt>
      <trkpt lat="49.847349487245082855224609375" lon="6.8757628463208675384521484375">
        <ele>285.399993896484375</ele>
        <time>2026-04-22T09:21:22.000Z</time>
        <extensions>
          <ns3:TrackPointExtension>
            <ns3:hr>110</ns3:hr>
            <ns3:cad>53</ns3:cad>
          </ns3:TrackPointExtension>
        </extensions>
      </trkpt>
      <trkpt lat="49.84734169207513332366943359375" lon="6.87577382661402225494384765625">
        <ele>285.20001220703125</ele>
        <time>2026-04-22T09:21:23.000Z</time>
        <extensions>
          <ns3:TrackPointExtension>
            <ns3:hr>110</ns3:hr>
            <ns3:cad>53</ns3:cad>
          </ns3:TrackPointExtension>
        </extensions>
      </trkpt>
      <trkpt lat="49.84728612005710601806640625" lon="6.875848509371280670166015625">
        <ele>284.399993896484375</ele>
        <time>2026-04-22T09:21:29.000Z</time>
        <extensions>
          <ns3:TrackPointExtension>
            <ns3:hr>111</ns3:hr>
            <ns3:cad>54</ns3:cad>
          </ns3:TrackPointExtension>
        </extensions>
      </trkpt>
      <trkpt lat="49.847275726497173309326171875" lon="6.87586301006376743316650390625">
        <ele>284.20001220703125</ele>
        <time>2026-04-22T09:21:30.000Z</time>
        <extensions>
          <ns3:TrackPointExtension>
            <ns3:hr>111</ns3:hr>
            <ns3:cad>53</ns3:cad>
          </ns3:TrackPointExtension>
        </extensions>
      </trkpt>
      <trkpt lat="49.84723473899066448211669921875" lon="6.8759314902126789093017578125">
        <ele>283</ele>
        <time>2026-04-22T09:21:36.000Z</time>
        <extensions>
          <ns3:TrackPointExtension>
            <ns3:hr>110</ns3:hr>
            <ns3:cad>53</ns3:cad>
          </ns3:TrackPointExtension>
        </extensions>
      </trkpt>
      <trkpt lat="49.8472178913652896881103515625" lon="6.87595219351351261138916015625">
        <ele>282.600006103515625</ele>
        <time>2026-04-22T09:21:38.000Z</time>
        <extensions>
          <ns3:TrackPointExtension>
            <ns3:hr>109</ns3:hr>
            <ns3:cad>54</ns3:cad>
          </ns3:TrackPointExtension>
        </extensions>
      </trkpt>
      <trkpt lat="49.8471857048571109771728515625" lon="6.875995695590972900390625">
        <ele>282</ele>
        <time>2026-04-22T09:21:42.000Z</time>
        <extensions>
          <ns3:TrackPointExtension>
            <ns3:hr>109</ns3:hr>
            <ns3:cad>53</ns3:cad>
          </ns3:TrackPointExtension>
        </extensions>
      </trkpt>
      <trkpt lat="49.847165085375308990478515625" lon="6.8760265409946441650390625">
        <ele>281.600006103515625</ele>
        <time>2026-04-22T09:21:45.000Z</time>
        <extensions>
          <ns3:TrackPointExtension>
            <ns3:hr>109</ns3:hr>
            <ns3:cad>0</ns3:cad>
          </ns3:TrackPointExtension>
        </extensions>
      </trkpt>
      <trkpt lat="49.84709970653057098388671875" lon="6.87611010856926441192626953125">
        <ele>281.20001220703125</ele>
        <time>2026-04-22T09:21:54.000Z</time>
        <extensions>
          <ns3:TrackPointExtension>
            <ns3:hr>109</ns3:hr>
            <ns3:cad>0</ns3:cad>
          </ns3:TrackPointExtension>
        </extensions>
      </trkpt>
      <trkpt lat="49.84706819057464599609375" lon="6.8761816062033176422119140625">
        <ele>281.20001220703125</ele>
        <time>2026-04-22T09:21:59.000Z</time>
        <extensions>
          <ns3:TrackPointExtension>
            <ns3:hr>109</ns3:hr>
            <ns3:cad>0</ns3:cad>
          </ns3:TrackPointExtension>
        </extensions>
      </trkpt>
      <trkpt lat="49.8469536937773227691650390625" lon="6.8762952648103237152099609375">
        <ele>281.600006103515625</ele>
        <time>2026-04-22T09:22:11.000Z</time>
        <extensions>
          <ns3:TrackPointExtension>
            <ns3:hr>110</ns3:hr>
            <ns3:cad>0</ns3:cad>
          </ns3:TrackPointExtension>
        </extensions>
      </trkpt>
      <trkpt lat="49.846877753734588623046875" lon="6.876386292278766632080078125">
        <ele>282.20001220703125</ele>
        <time>2026-04-22T09:22:19.000Z</time>
        <extensions>
          <ns3:TrackPointExtension>
            <ns3:hr>113</ns3:hr>
            <ns3:cad>0</ns3:cad>
          </ns3:TrackPointExtension>
        </extensions>
      </trkpt>
      <trkpt lat="49.84683592803776264190673828125" lon="6.87641940079629421234130859375">
        <ele>282</ele>
        <time>2026-04-22T09:22:23.000Z</time>
        <extensions>
          <ns3:TrackPointExtension>
            <ns3:hr>115</ns3:hr>
            <ns3:cad>0</ns3:cad>
          </ns3:TrackPointExtension>
        </extensions>
      </trkpt>
      <trkpt lat="49.8467153124511241912841796875" lon="6.8765135295689105987548828125">
        <ele>281.399993896484375</ele>
        <time>2026-04-22T09:22:35.000Z</time>
        <extensions>
          <ns3:TrackPointExtension>
            <ns3:hr>116</ns3:hr>
            <ns3:cad>0</ns3:cad>
          </ns3:TrackPointExtension>
        </extensions>
      </trkpt>
      <trkpt lat="49.8466720618307590484619140625" lon="6.876547895371913909912109375">
        <ele>281</ele>
        <time>2026-04-22T09:22:39.000Z</time>
        <extensions>
          <ns3:TrackPointExtension>
            <ns3:hr>116</ns3:hr>
            <ns3:cad>0</ns3:cad>
          </ns3:TrackPointExtension>
        </extensions>
      </trkpt>
      <trkpt lat="49.8466080240905284881591796875" lon="6.87662458978593349456787109375">
        <ele>280.399993896484375</ele>
        <time>2026-04-22T09:22:46.000Z</time>
        <extensions>
          <ns3:TrackPointExtension>
            <ns3:hr>116</ns3:hr>
            <ns3:cad>53</ns3:cad>
          </ns3:TrackPointExtension>
        </extensions>
      </trkpt>
      <trkpt lat="49.846583046019077301025390625" lon="6.87666934914886951446533203125">
        <ele>280.399993896484375</ele>
        <time>2026-04-22T09:22:50.000Z</time>
        <extensions>
          <ns3:TrackPointExtension>
            <ns3:hr>116</ns3:hr>
            <ns3:cad>0</ns3:cad>
          </ns3:TrackPointExtension>
        </extensions>
      </trkpt>
      <trkpt lat="49.84657675959169864654541015625" lon="6.8766892142593860626220703125">
        <ele>280.399993896484375</ele>
        <time>2026-04-22T09:22:53.000Z</time>
        <extensions>
          <ns3:TrackPointExtension>
            <ns3:hr>116</ns3:hr>
            <ns3:cad>0</ns3:cad>
          </ns3:TrackPointExtension>
        </extensions>
      </trkpt>
      <trkpt lat="49.84657726250588893890380859375" lon="6.8766915611922740936279296875">
        <ele>280</ele>
        <time>2026-04-22T09:22:57.000Z</time>
        <extensions>
          <ns3:TrackPointExtension>
            <ns3:hr>116</ns3:hr>
            <ns3:cad>0</ns3:cad>
          </ns3:TrackPointExtension>
        </extensions>
      </trkpt>
      <trkpt lat="49.84654256142675876617431640625" lon="6.87669315375387668609619140625">
        <ele>280</ele>
        <time>2026-04-22T09:23:02.000Z</time>
        <extensions>
          <ns3:TrackPointExtension>
            <ns3:hr>113</ns3:hr>
            <ns3:cad>0</ns3:cad>
          </ns3:TrackPointExtension>
        </extensions>
      </trkpt>
      <trkpt lat="49.8465208522975444793701171875" lon="6.876708157360553741455078125">
        <ele>280</ele>
        <time>2026-04-22T09:23:04.000Z</time>
        <extensions>
          <ns3:TrackPointExtension>
            <ns3:hr>113</ns3:hr>
            <ns3:cad>0</ns3:cad>
          </ns3:TrackPointExtension>
        </extensions>
      </trkpt>
      <trkpt lat="49.8464484326541423797607421875" lon="6.87678149901330471038818359375">
        <ele>280.600006103515625</ele>
        <time>2026-04-22T09:23:11.000Z</time>
        <extensions>
          <ns3:TrackPointExtension>
            <ns3:hr>116</ns3:hr>
            <ns3:cad>56</ns3:cad>
          </ns3:TrackPointExtension>
        </extensions>
      </trkpt>
      <trkpt lat="49.846437871456146240234375" lon="6.87679164111614227294921875">
        <ele>280.600006103515625</ele>
        <time>2026-04-22T09:23:12.000Z</time>
        <extensions>
          <ns3:TrackPointExtension>
            <ns3:hr>116</ns3:hr>
            <ns3:cad>56</ns3:cad>
          </ns3:TrackPointExtension>
        </extensions>
      </trkpt>
      <trkpt lat="49.846321530640125274658203125" lon="6.8769239075481891632080078125">
        <ele>279.600006103515625</ele>
        <time>2026-04-22T09:23:24.000Z</time>
        <extensions>
          <ns3:TrackPointExtension>
            <ns3:hr>115</ns3:hr>
            <ns3:cad>56</ns3:cad>
          </ns3:TrackPointExtension>
        </extensions>
      </trkpt>
      <trkpt lat="49.84621080569922924041748046875" lon="6.8770392425358295440673828125">
        <ele>279</ele>
        <time>2026-04-22T09:23:35.000Z</time>
        <extensions>
          <ns3:TrackPointExtension>
            <ns3:hr>114</ns3:hr>
            <ns3:cad>55</ns3:cad>
          </ns3:TrackPointExtension>
        </extensions>
      </trkpt>
      <trkpt lat="49.8461334407329559326171875" lon="6.87713219784200191497802734375">
        <ele>278</ele>
        <time>2026-04-22T09:23:44.000Z</time>
        <extensions>
          <ns3:TrackPointExtension>
            <ns3:hr>113</ns3:hr>
            <ns3:cad>56</ns3:cad>
          </ns3:TrackPointExtension>
        </extensions>
      </trkpt>
      <trkpt lat="49.84613411128520965576171875" lon="6.87713772989809513092041015625">
        <ele>277.79998779296875</ele>
        <time>2026-04-22T09:23:45.000Z</time>
        <extensions>
          <ns3:TrackPointExtension>
            <ns3:hr>113</ns3:hr>
            <ns3:cad>0</ns3:cad>
          </ns3:TrackPointExtension>
        </extensions>
      </trkpt>
      <trkpt lat="49.846137128770351409912109375" lon="6.87714259140193462371826171875">
        <ele>277.79998779296875</ele>
        <time>2026-04-22T09:23:49.000Z</time>
        <extensions>
          <ns3:TrackPointExtension>
            <ns3:hr>113</ns3:hr>
            <ns3:cad>0</ns3:cad>
          </ns3:TrackPointExtension>
        </extensions>
      </trkpt>
      <trkpt lat="49.84610217623412609100341796875" lon="6.87715214677155017852783203125">
        <ele>277</ele>
        <time>2026-04-22T09:24:09.000Z</time>
        <extensions>
          <ns3:TrackPointExtension>
            <ns3:hr>113</ns3:hr>
            <ns3:cad>0</ns3:cad>
          </ns3:TrackPointExtension>
        </extensions>
      </trkpt>
      <trkpt lat="49.8460333608090877532958984375" lon="6.8771844170987606048583984375">
        <ele>277</ele>
        <time>2026-04-22T09:24:15.000Z</time>
        <extensions>
          <ns3:TrackPointExtension>
            <ns3:hr>113</ns3:hr>
            <ns3:cad>0</ns3:cad>
          </ns3:TrackPointExtension>
        </extensions>
      </trkpt>
      <trkpt lat="49.845979548990726470947265625" lon="6.87724200077354907989501953125">
        <ele>277.20001220703125</ele>
        <time>2026-04-22T09:24:20.000Z</time>
        <extensions>
          <ns3:TrackPointExtension>
            <ns3:hr>110</ns3:hr>
            <ns3:cad>0</ns3:cad>
          </ns3:TrackPointExtension>
        </extensions>
      </trkpt>
      <trkpt lat="49.8459569178521633148193359375" lon="6.877267062664031982421875">
        <ele>277.20001220703125</ele>
        <time>2026-04-22T09:24:22.000Z</time>
        <extensions>
          <ns3:TrackPointExtension>
            <ns3:hr>110</ns3:hr>
            <ns3:cad>55</ns3:cad>
          </ns3:TrackPointExtension>
        </extensions>
      </trkpt>
      <trkpt lat="49.84589212574064731597900390625" lon="6.877309642732143402099609375">
        <ele>276.79998779296875</ele>
        <time>2026-04-22T09:24:28.000Z</time>
        <extensions>
          <ns3:TrackPointExtension>
            <ns3:hr>111</ns3:hr>
            <ns3:cad>0</ns3:cad>
          </ns3:TrackPointExtension>
        </extensions>
      </trkpt>
      <trkpt lat="49.84586857259273529052734375" lon="6.8773245625197887420654296875">
        <ele>276.600006103515625</ele>
        <time>2026-04-22T09:24:30.000Z</time>
        <extensions>
          <ns3:TrackPointExtension>
            <ns3:hr>111</ns3:hr>
            <ns3:cad>0</ns3:cad>
          </ns3:TrackPointExtension>
        </extensions>
      </trkpt>
      <trkpt lat="49.845742173492908477783203125" lon="6.8774090521037578582763671875">
        <ele>276</ele>
        <time>2026-04-22T09:24:41.000Z</time>
        <extensions>
          <ns3:TrackPointExtension>
            <ns3:hr>111</ns3:hr>
            <ns3:cad>0</ns3:cad>
          </ns3:TrackPointExtension>
        </extensions>
      </trkpt>
      <trkpt lat="49.8456243239343166351318359375" lon="6.87750552780926227569580078125">
        <ele>276.600006103515625</ele>
        <time>2026-04-22T09:24:52.000Z</time>
        <extensions>
          <ns3:TrackPointExtension>
            <ns3:hr>109</ns3:hr>
            <ns3:cad>0</ns3:cad>
          </ns3:TrackPointExtension>
        </extensions>
      </trkpt>
      <trkpt lat="49.84554058872163295745849609375" lon="6.87754928134381771087646484375">
        <ele>275.79998779296875</ele>
        <time>2026-04-22T09:25:00.000Z</time>
        <extensions>
          <ns3:TrackPointExtension>
            <ns3:hr>109</ns3:hr>
            <ns3:cad>0</ns3:cad>
          </ns3:TrackPointExtension>
        </extensions>
      </trkpt>
      <trkpt lat="49.8455364815890789031982421875" lon="6.87754475511610507965087890625">
        <ele>276.20001220703125</ele>
        <time>2026-04-22T09:25:02.000Z</time>
        <extensions>
          <ns3:TrackPointExtension>
            <ns3:hr>109</ns3:hr>
            <ns3:cad>0</ns3:cad>
          </ns3:TrackPointExtension>
        </extensions>
      </trkpt>
      <trkpt lat="49.8454851843416690826416015625" lon="6.87759689055383205413818359375">
        <ele>276.20001220703125</ele>
        <time>2026-04-22T09:25:12.000Z</time>
        <extensions>
          <ns3:TrackPointExtension>
            <ns3:hr>109</ns3:hr>
            <ns3:cad>0</ns3:cad>
          </ns3:TrackPointExtension>
        </extensions>
      </trkpt>
      <trkpt lat="49.8454010300338268280029296875" lon="6.87766260467469692230224609375">
        <ele>275.79998779296875</ele>
        <time>2026-04-22T09:25:20.000Z</time>
        <extensions>
          <ns3:TrackPointExtension>
            <ns3:hr>111</ns3:hr>
            <ns3:cad>0</ns3:cad>
          </ns3:TrackPointExtension>
        </extensions>
      </trkpt>
      <trkpt lat="49.84533959068357944488525390625" lon="6.87772077508270740509033203125">
        <ele>276.20001220703125</ele>
        <time>2026-04-22T09:25:26.000Z</time>
        <extensions>
          <ns3:TrackPointExtension>
            <ns3:hr>114</ns3:hr>
            <ns3:cad>0</ns3:cad>
          </ns3:TrackPointExtension>
        </extensions>
      </trkpt>
      <trkpt lat="49.8452974297106266021728515625" lon="6.87776821665465831756591796875">
        <ele>276.399993896484375</ele>
        <time>2026-04-22T09:25:30.000Z</time>
        <extensions>
          <ns3:TrackPointExtension>
            <ns3:hr>114</ns3:hr>
            <ns3:cad>0</ns3:cad>
          </ns3:TrackPointExtension>
        </extensions>
      </trkpt>
      <trkpt lat="49.8451857827603816986083984375" lon="6.8778623454272747039794921875">
        <ele>276.20001220703125</ele>
        <time>2026-04-22T09:25:41.000Z</time>
        <extensions>
          <ns3:TrackPointExtension>
            <ns3:hr>115</ns3:hr>
            <ns3:cad>57</ns3:cad>
          </ns3:TrackPointExtension>
        </extensions>
      </trkpt>
      <trkpt lat="49.84506533481180667877197265625" lon="6.87795597128570079803466796875">
        <ele>276</ele>
        <time>2026-04-22T09:25:52.000Z</time>
        <extensions>
          <ns3:TrackPointExtension>
            <ns3:hr>114</ns3:hr>
            <ns3:cad>55</ns3:cad>
          </ns3:TrackPointExtension>
        </extensions>
      </trkpt>
      <trkpt lat="49.84503096900880336761474609375" lon="6.87798161990940570831298828125">
        <ele>275.79998779296875</ele>
        <time>2026-04-22T09:25:55.000Z</time>
        <extensions>
          <ns3:TrackPointExtension>
            <ns3:hr>113</ns3:hr>
            <ns3:cad>54</ns3:cad>
          </ns3:TrackPointExtension>
        </extensions>
      </trkpt>
      <trkpt lat="49.84499551355838775634765625" lon="6.8780283071100711822509765625">
        <ele>275</ele>
        <time>2026-04-22T09:26:01.000Z</time>
        <extensions>
          <ns3:TrackPointExtension>
            <ns3:hr>112</ns3:hr>
            <ns3:cad>0</ns3:cad>
          </ns3:TrackPointExtension>
        </extensions>
      </trkpt>
      <trkpt lat="49.84495134092867374420166015625" lon="6.8780765868723392486572265625">
        <ele>275.399993896484375</ele>
        <time>2026-04-22T09:26:12.000Z</time>
        <extensions>
          <ns3:TrackPointExtension>
            <ns3:hr>112</ns3:hr>
            <ns3:cad>0</ns3:cad>
          </ns3:TrackPointExtension>
        </extensions>
      </trkpt>
      <trkpt lat="49.84485779888927936553955078125" lon="6.8781469948589801788330078125">
        <ele>275.399993896484375</ele>
        <time>2026-04-22T09:26:20.000Z</time>
        <extensions>
          <ns3:TrackPointExtension>
            <ns3:hr>113</ns3:hr>
            <ns3:cad>56</ns3:cad>
          </ns3:TrackPointExtension>
        </extensions>
      </trkpt>
      <trkpt lat="49.84474145807325839996337890625" lon="6.8782623298466205596923828125">
        <ele>275.20001220703125</ele>
        <time>2026-04-22T09:26:31.000Z</time>
        <extensions>
          <ns3:TrackPointExtension>
            <ns3:hr>116</ns3:hr>
            <ns3:cad>56</ns3:cad>
          </ns3:TrackPointExtension>
        </extensions>
      </trkpt>
      <trkpt lat="49.84470474533736705780029296875" lon="6.87830247916281223297119140625">
        <ele>274.79998779296875</ele>
        <time>2026-04-22T09:26:35.000Z</time>
        <extensions>
          <ns3:TrackPointExtension>
            <ns3:hr>117</ns3:hr>
            <ns3:cad>56</ns3:cad>
          </ns3:TrackPointExtension>
        </extensions>
      </trkpt>
      <trkpt lat="49.84460935927927494049072265625" lon="6.87839132733643054962158203125">
        <ele>274.600006103515625</ele>
        <time>2026-04-22T09:26:44.000Z</time>
        <extensions>
          <ns3:TrackPointExtension>
            <ns3:hr>116</ns3:hr>
            <ns3:cad>56</ns3:cad>
          </ns3:TrackPointExtension>
        </extensions>
      </trkpt>
      <trkpt lat="49.84460131265223026275634765625" lon="6.8784028105437755584716796875">
        <ele>274.600006103515625</ele>
        <time>2026-04-22T09:26:45.000Z</time>
        <extensions>
          <ns3:TrackPointExtension>
            <ns3:hr>116</ns3:hr>
            <ns3:cad>55</ns3:cad>
          </ns3:TrackPointExtension>
        </extensions>
      </trkpt>
      <trkpt lat="49.8444756679236888885498046875" lon="6.87851638533174991607666015625">
        <ele>274.20001220703125</ele>
        <time>2026-04-22T09:26:56.000Z</time>
        <extensions>
          <ns3:TrackPointExtension>
            <ns3:hr>116</ns3:hr>
            <ns3:cad>56</ns3:cad>
          </ns3:TrackPointExtension>
        </extensions>
      </trkpt>
      <trkpt lat="49.844392351806163787841796875" lon="6.87859953381121158599853515625">
        <ele>274.399993896484375</ele>
        <time>2026-04-22T09:27:04.000Z</time>
        <extensions>
          <ns3:TrackPointExtension>
            <ns3:hr>116</ns3:hr>
            <ns3:cad>56</ns3:cad>
          </ns3:TrackPointExtension>
        </extensions>
      </trkpt>
      <trkpt lat="49.84428263269364833831787109375" lon="6.87868754379451274871826171875">
        <ele>273.600006103515625</ele>
        <time>2026-04-22T09:27:14.000Z</time>
        <extensions>
          <ns3:TrackPointExtension>
            <ns3:hr>117</ns3:hr>
            <ns3:cad>56</ns3:cad>
          </ns3:TrackPointExtension>
        </extensions>
      </trkpt>
      <trkpt lat="49.84427223913371562957763671875" lon="6.878698356449604034423828125">
        <ele>273.600006103515625</ele>
        <time>2026-04-22T09:27:15.000Z</time>
        <extensions>
          <ns3:TrackPointExtension>
            <ns3:hr>117</ns3:hr>
            <ns3:cad>56</ns3:cad>
          </ns3:TrackPointExtension>
        </extensions>
      </trkpt>
      <trkpt lat="49.84418003819882869720458984375" lon="6.87878259457647800445556640625">
        <ele>273.79998779296875</ele>
        <time>2026-04-22T09:27:24.000Z</time>
        <extensions>
          <ns3:TrackPointExtension>
            <ns3:hr>116</ns3:hr>
            <ns3:cad>56</ns3:cad>
          </ns3:TrackPointExtension>
        </extensions>
      </trkpt>
      <trkpt lat="49.8440505377948284149169921875" lon="6.87890413217246532440185546875">
        <ele>273.20001220703125</ele>
        <time>2026-04-22T09:27:36.000Z</time>
        <extensions>
          <ns3:TrackPointExtension>
            <ns3:hr>116</ns3:hr>
            <ns3:cad>56</ns3:cad>
          </ns3:TrackPointExtension>
        </extensions>
      </trkpt>
      <trkpt lat="49.8439486138522624969482421875" lon="6.8789801560342311859130859375">
        <ele>273.600006103515625</ele>
        <time>2026-04-22T09:27:46.000Z</time>
        <extensions>
          <ns3:TrackPointExtension>
            <ns3:hr>116</ns3:hr>
            <ns3:cad>53</ns3:cad>
          </ns3:TrackPointExtension>
        </extensions>
      </trkpt>
      <trkpt lat="49.843939729034900665283203125" lon="6.87899499200284481048583984375">
        <ele>273.79998779296875</ele>
        <time>2026-04-22T09:27:51.000Z</time>
        <extensions>
          <ns3:TrackPointExtension>
            <ns3:hr>114</ns3:hr>
            <ns3:cad>0</ns3:cad>
          </ns3:TrackPointExtension>
        </extensions>
      </trkpt>
      <trkpt lat="49.8439393937587738037109375" lon="6.87901142053306102752685546875">
        <ele>274.20001220703125</ele>
        <time>2026-04-22T09:27:52.000Z</time>
        <extensions>
          <ns3:TrackPointExtension>
            <ns3:hr>115</ns3:hr>
            <ns3:cad>0</ns3:cad>
          </ns3:TrackPointExtension>
        </extensions>
      </trkpt>
      <trkpt lat="49.84392891637980937957763671875" lon="6.87904243357479572296142578125">
        <ele>274.399993896484375</ele>
        <time>2026-04-22T09:27:54.000Z</time>
        <extensions>
          <ns3:TrackPointExtension>
            <ns3:hr>115</ns3:hr>
            <ns3:cad>0</ns3:cad>
          </ns3:TrackPointExtension>
        </extensions>
      </trkpt>
      <trkpt lat="49.8439120687544345855712890625" lon="6.8790669925510883331298828125">
        <ele>274.399993896484375</ele>
        <time>2026-04-22T09:27:56.000Z</time>
        <extensions>
          <ns3:TrackPointExtension>
            <ns3:hr>115</ns3:hr>
            <ns3:cad>0</ns3:cad>
          </ns3:TrackPointExtension>
        </extensions>
      </trkpt>
      <trkpt lat="49.8438242264091968536376953125" lon="6.8791612051427364349365234375">
        <ele>273.79998779296875</ele>
        <time>2026-04-22T09:28:04.000Z</time>
        <extensions>
          <ns3:TrackPointExtension>
            <ns3:hr>115</ns3:hr>
            <ns3:cad>56</ns3:cad>
          </ns3:TrackPointExtension>
        </extensions>
      </trkpt>
      <trkpt lat="49.84373152256011962890625" lon="6.87928249128162860870361328125">
        <ele>273.399993896484375</ele>
        <time>2026-04-22T09:28:15.000Z</time>
        <extensions>
          <ns3:TrackPointExtension>
            <ns3:hr>116</ns3:hr>
            <ns3:cad>56</ns3:cad>
          </ns3:TrackPointExtension>
        </extensions>
      </trkpt>
      <trkpt lat="49.843605458736419677734375" lon="6.8794079683721065521240234375">
        <ele>273.20001220703125</ele>
        <time>2026-04-22T09:28:27.000Z</time>
        <extensions>
          <ns3:TrackPointExtension>
            <ns3:hr>116</ns3:hr>
            <ns3:cad>55</ns3:cad>
          </ns3:TrackPointExtension>
        </extensions>
      </trkpt>
      <trkpt lat="49.84351267106831073760986328125" lon="6.87951349653303623199462890625">
        <ele>272.600006103515625</ele>
        <time>2026-04-22T09:28:36.000Z</time>
        <extensions>
          <ns3:TrackPointExtension>
            <ns3:hr>115</ns3:hr>
            <ns3:cad>55</ns3:cad>
          </ns3:TrackPointExtension>
        </extensions>
      </trkpt>
      <trkpt lat="49.8434805683791637420654296875" lon="6.87954266555607318878173828125">
        <ele>272.399993896484375</ele>
        <time>2026-04-22T09:28:39.000Z</time>
        <extensions>
          <ns3:TrackPointExtension>
            <ns3:hr>115</ns3:hr>
            <ns3:cad>55</ns3:cad>
          </ns3:TrackPointExtension>
        </extensions>
      </trkpt>
      <trkpt lat="49.84346665441989898681640625" lon="6.87956445850431919097900390625">
        <ele>273.399993896484375</ele>
        <time>2026-04-22T09:28:45.000Z</time>
        <extensions>
          <ns3:TrackPointExtension>
            <ns3:hr>115</ns3:hr>
            <ns3:cad>0</ns3:cad>
          </ns3:TrackPointExtension>
        </extensions>
      </trkpt>
      <trkpt lat="49.84341963194310665130615234375" lon="6.879587508738040924072265625">
        <ele>272.600006103515625</ele>
        <time>2026-04-22T09:28:52.000Z</time>
        <extensions>
          <ns3:TrackPointExtension>
            <ns3:hr>115</ns3:hr>
            <ns3:cad>50</ns3:cad>
          </ns3:TrackPointExtension>
        </extensions>
      </trkpt>
      <trkpt lat="49.8433337174355983734130859375" lon="6.8796502053737640380859375">
        <ele>273.20001220703125</ele>
        <time>2026-04-22T09:29:00.000Z</time>
        <extensions>
          <ns3:TrackPointExtension>
            <ns3:hr>114</ns3:hr>
            <ns3:cad>53</ns3:cad>
          </ns3:TrackPointExtension>
        </extensions>
      </trkpt>
      <trkpt lat="49.8432505689561367034912109375" lon="6.879753135144710540771484375">
        <ele>273.20001220703125</ele>
        <time>2026-04-22T09:29:08.000Z</time>
        <extensions>
          <ns3:TrackPointExtension>
            <ns3:hr>115</ns3:hr>
            <ns3:cad>53</ns3:cad>
          </ns3:TrackPointExtension>
        </extensions>
      </trkpt>
      <trkpt lat="49.84323305077850818634033203125" lon="6.87977819703519344329833984375">
        <ele>273</ele>
        <time>2026-04-22T09:29:11.000Z</time>
        <extensions>
          <ns3:TrackPointExtension>
            <ns3:hr>115</ns3:hr>
            <ns3:cad>53</ns3:cad>
          </ns3:TrackPointExtension>
        </extensions>
      </trkpt>
      <trkpt lat="49.84319549985229969024658203125" lon="6.87981373630464076995849609375">
        <ele>273.600006103515625</ele>
        <time>2026-04-22T09:29:15.000Z</time>
        <extensions>
          <ns3:TrackPointExtension>
            <ns3:hr>115</ns3:hr>
            <ns3:cad>53</ns3:cad>
          </ns3:TrackPointExtension>
        </extensions>
      </trkpt>
      <trkpt lat="49.84313665889203548431396484375" lon="6.8798683024942874908447265625">
        <ele>274</ele>
        <time>2026-04-22T09:29:21.000Z</time>
        <extensions>
          <ns3:TrackPointExtension>
            <ns3:hr>118</ns3:hr>
            <ns3:cad>0</ns3:cad>
          </ns3:TrackPointExtension>
        </extensions>
      </trkpt>
      <trkpt lat="49.8430601321160793304443359375" lon="6.87995262444019317626953125">
        <ele>274.20001220703125</ele>
        <time>2026-04-22T09:29:29.000Z</time>
        <extensions>
          <ns3:TrackPointExtension>
            <ns3:hr>121</ns3:hr>
            <ns3:cad>55</ns3:cad>
          </ns3:TrackPointExtension>
        </extensions>
      </trkpt>
      <trkpt lat="49.843036495149135589599609375" lon="6.87997433356940746307373046875">
        <ele>274.399993896484375</ele>
        <time>2026-04-22T09:29:31.000Z</time>
        <extensions>
          <ns3:TrackPointExtension>
            <ns3:hr>121</ns3:hr>
            <ns3:cad>55</ns3:cad>
          </ns3:TrackPointExtension>
        </extensions>
      </trkpt>
      <trkpt lat="49.8429362475872039794921875" lon="6.88009620644152164459228515625">
        <ele>273.79998779296875</ele>
        <time>2026-04-22T09:29:41.000Z</time>
        <extensions>
          <ns3:TrackPointExtension>
            <ns3:hr>118</ns3:hr>
            <ns3:cad>55</ns3:cad>
          </ns3:TrackPointExtension>
        </extensions>
      </trkpt>
      <trkpt lat="49.84289668500423431396484375" lon="6.88013811595737934112548828125">
        <ele>273.399993896484375</ele>
        <time>2026-04-22T09:29:45.000Z</time>
        <extensions>
          <ns3:TrackPointExtension>
            <ns3:hr>117</ns3:hr>
            <ns3:cad>56</ns3:cad>
          </ns3:TrackPointExtension>
        </extensions>
      </trkpt>
      <trkpt lat="49.84275519847869873046875" lon="6.88029737211763858795166015625">
        <ele>272.600006103515625</ele>
        <time>2026-04-22T09:29:59.000Z</time>
        <extensions>
          <ns3:TrackPointExtension>
            <ns3:hr>116</ns3:hr>
            <ns3:cad>56</ns3:cad>
          </ns3:TrackPointExtension>
        </extensions>
      </trkpt>
      <trkpt lat="49.842710606753826141357421875" lon="6.88033643178641796112060546875">
        <ele>272.600006103515625</ele>
        <time>2026-04-22T09:30:03.000Z</time>
        <extensions>
          <ns3:TrackPointExtension>
            <ns3:hr>116</ns3:hr>
            <ns3:cad>0</ns3:cad>
          </ns3:TrackPointExtension>
        </extensions>
      </trkpt>
      <trkpt lat="49.84263542108237743377685546875" lon="6.88040985725820064544677734375">
        <ele>271.399993896484375</ele>
        <time>2026-04-22T09:30:10.000Z</time>
        <extensions>
          <ns3:TrackPointExtension>
            <ns3:hr>117</ns3:hr>
            <ns3:cad>55</ns3:cad>
          </ns3:TrackPointExtension>
        </extensions>
      </trkpt>
      <trkpt lat="49.84261513687670230865478515625" lon="6.88042477704584598541259765625">
        <ele>271.399993896484375</ele>
        <time>2026-04-22T09:30:12.000Z</time>
        <extensions>
          <ns3:TrackPointExtension>
            <ns3:hr>117</ns3:hr>
            <ns3:cad>57</ns3:cad>
          </ns3:TrackPointExtension>
        </extensions>
      </trkpt>
      <trkpt lat="49.8424821160733699798583984375" lon="6.88053759746253490447998046875">
        <ele>271</ele>
        <time>2026-04-22T09:30:25.000Z</time>
        <extensions>
          <ns3:TrackPointExtension>
            <ns3:hr>117</ns3:hr>
            <ns3:cad>55</ns3:cad>
          </ns3:TrackPointExtension>
        </extensions>
      </trkpt>
      <trkpt lat="49.84246392734348773956298828125" lon="6.88055612146854400634765625">
        <ele>270.399993896484375</ele>
        <time>2026-04-22T09:30:27.000Z</time>
        <extensions>
          <ns3:TrackPointExtension>
            <ns3:hr>117</ns3:hr>
            <ns3:cad>55</ns3:cad>
          </ns3:TrackPointExtension>
        </extensions>
      </trkpt>
      <trkpt lat="49.84237289987504482269287109375" lon="6.88065058551728725433349609375">
        <ele>271.20001220703125</ele>
        <time>2026-04-22T09:30:36.000Z</time>
        <extensions>
          <ns3:TrackPointExtension>
            <ns3:hr>118</ns3:hr>
            <ns3:cad>55</ns3:cad>
          </ns3:TrackPointExtension>
        </extensions>
      </trkpt>
      <trkpt lat="49.8423453234136104583740234375" lon="6.880685202777385711669921875">
        <ele>271.399993896484375</ele>
        <time>2026-04-22T09:30:39.000Z</time>
        <extensions>
          <ns3:TrackPointExtension>
            <ns3:hr>118</ns3:hr>
            <ns3:cad>54</ns3:cad>
          </ns3:TrackPointExtension>
        </extensions>
      </trkpt>
      <trkpt lat="49.8422775976359844207763671875" lon="6.8807785771787166595458984375">
        <ele>271.600006103515625</ele>
        <time>2026-04-22T09:30:46.000Z</time>
        <extensions>
          <ns3:TrackPointExtension>
            <ns3:hr>118</ns3:hr>
            <ns3:cad>0</ns3:cad>
          </ns3:TrackPointExtension>
        </extensions>
      </trkpt>
      <trkpt lat="49.84215681441128253936767578125" lon="6.88088762573897838592529296875">
        <ele>271.600006103515625</ele>
        <time>2026-04-22T09:30:59.000Z</time>
        <extensions>
          <ns3:TrackPointExtension>
            <ns3:hr>117</ns3:hr>
            <ns3:cad>54</ns3:cad>
          </ns3:TrackPointExtension>
        </extensions>
      </trkpt>
      <trkpt lat="49.8421404697000980377197265625" lon="6.8808858655393123626708984375">
        <ele>271.79998779296875</ele>
        <time>2026-04-22T09:31:06.000Z</time>
        <extensions>
          <ns3:TrackPointExtension>
            <ns3:hr>115</ns3:hr>
            <ns3:cad>0</ns3:cad>
          </ns3:TrackPointExtension>
        </extensions>
      </trkpt>
      <trkpt lat="49.84212395735085010528564453125" lon="6.8809894658625125885009765625">
        <ele>271.79998779296875</ele>
        <time>2026-04-22T09:31:14.000Z</time>
        <extensions>
          <ns3:TrackPointExtension>
            <ns3:hr>114</ns3:hr>
            <ns3:cad>0</ns3:cad>
          </ns3:TrackPointExtension>
        </extensions>
      </trkpt>
      <trkpt lat="49.84204567037522792816162109375" lon="6.88111804425716400146484375">
        <ele>272.600006103515625</ele>
        <time>2026-04-22T09:31:24.000Z</time>
        <extensions>
          <ns3:TrackPointExtension>
            <ns3:hr>116</ns3:hr>
            <ns3:cad>0</ns3:cad>
          </ns3:TrackPointExtension>
        </extensions>
      </trkpt>
      <trkpt lat="49.84203276224434375762939453125" lon="6.88114159740507602691650390625">
        <ele>272.79998779296875</ele>
        <time>2026-04-22T09:31:26.000Z</time>
        <extensions>
          <ns3:TrackPointExtension>
            <ns3:hr>118</ns3:hr>
            <ns3:cad>0</ns3:cad>
          </ns3:TrackPointExtension>
        </extensions>
      </trkpt>
      <trkpt lat="49.8419170081615447998046875" lon="6.88134611584246158599853515625">
        <ele>272.399993896484375</ele>
        <time>2026-04-22T09:31:40.000Z</time>
        <extensions>
          <ns3:TrackPointExtension>
            <ns3:hr>118</ns3:hr>
            <ns3:cad>55</ns3:cad>
          </ns3:TrackPointExtension>
        </extensions>
      </trkpt>
      <trkpt lat="49.84190736897289752960205078125" lon="6.88135399483144283294677734375">
        <ele>272.20001220703125</ele>
        <time>2026-04-22T09:31:41.000Z</time>
        <extensions>
          <ns3:TrackPointExtension>
            <ns3:hr>118</ns3:hr>
            <ns3:cad>55</ns3:cad>
          </ns3:TrackPointExtension>
        </extensions>
      </trkpt>
      <trkpt lat="49.84182455576956272125244140625" lon="6.88146815635263919830322265625">
        <ele>272.79998779296875</ele>
        <time>2026-04-22T09:31:50.000Z</time>
        <extensions>
          <ns3:TrackPointExtension>
            <ns3:hr>117</ns3:hr>
            <ns3:cad>54</ns3:cad>
          </ns3:TrackPointExtension>
        </extensions>
      </trkpt>
      <trkpt lat="49.8417820595204830169677734375" lon="6.88150419853627681732177734375">
        <ele>273</ele>
        <time>2026-04-22T09:31:54.000Z</time>
        <extensions>
          <ns3:TrackPointExtension>
            <ns3:hr>120</ns3:hr>
            <ns3:cad>55</ns3:cad>
          </ns3:TrackPointExtension>
        </extensions>
      </trkpt>
      <trkpt lat="49.841712154448032379150390625" lon="6.88156404532492160797119140625">
        <ele>273</ele>
        <time>2026-04-22T09:32:00.000Z</time>
        <extensions>
          <ns3:TrackPointExtension>
            <ns3:hr>120</ns3:hr>
            <ns3:cad>55</ns3:cad>
          </ns3:TrackPointExtension>
        </extensions>
      </trkpt>
      <trkpt lat="49.84164585359394550323486328125" lon="6.881596483290195465087890625">
        <ele>273.600006103515625</ele>
        <time>2026-04-22T09:32:06.000Z</time>
        <extensions>
          <ns3:TrackPointExtension>
            <ns3:hr>121</ns3:hr>
            <ns3:cad>55</ns3:cad>
          </ns3:TrackPointExtension>
        </extensions>
      </trkpt>
      <trkpt lat="49.84162121079862117767333984375" lon="6.88161182217299938201904296875">
        <ele>273.600006103515625</ele>
        <time>2026-04-22T09:32:08.000Z</time>
        <extensions>
          <ns3:TrackPointExtension>
            <ns3:hr>121</ns3:hr>
            <ns3:cad>55</ns3:cad>
          </ns3:TrackPointExtension>
        </extensions>
      </trkpt>
      <trkpt lat="49.84148324467241764068603515625" lon="6.88167854212224483489990234375">
        <ele>274</ele>
        <time>2026-04-22T09:32:20.000Z</time>
        <extensions>
          <ns3:TrackPointExtension>
            <ns3:hr>122</ns3:hr>
            <ns3:cad>55</ns3:cad>
          </ns3:TrackPointExtension>
        </extensions>
      </trkpt>
      <trkpt lat="49.84138836152851581573486328125" lon="6.88172279857099056243896484375">
        <ele>274.600006103515625</ele>
        <time>2026-04-22T09:32:29.000Z</time>
        <extensions>
          <ns3:TrackPointExtension>
            <ns3:hr>122</ns3:hr>
            <ns3:cad>0</ns3:cad>
          </ns3:TrackPointExtension>
        </extensions>
      </trkpt>
      <trkpt lat="49.84124620445072650909423828125" lon="6.88179438002407550811767578125">
        <ele>275.20001220703125</ele>
        <time>2026-04-22T09:32:42.000Z</time>
        <extensions>
          <ns3:TrackPointExtension>
            <ns3:hr>122</ns3:hr>
            <ns3:cad>54</ns3:cad>
          </ns3:TrackPointExtension>
        </extensions>
      </trkpt>
      <trkpt lat="49.84114293940365314483642578125" lon="6.881859004497528076171875">
        <ele>275.600006103515625</ele>
        <time>2026-04-22T09:32:52.000Z</time>
        <extensions>
          <ns3:TrackPointExtension>
            <ns3:hr>122</ns3:hr>
            <ns3:cad>54</ns3:cad>
          </ns3:TrackPointExtension>
        </extensions>
      </trkpt>
      <trkpt lat="49.84105006791651248931884765625" lon="6.88189496286213397979736328125">
        <ele>276.20001220703125</ele>
        <time>2026-04-22T09:33:01.000Z</time>
        <extensions>
          <ns3:TrackPointExtension>
            <ns3:hr>122</ns3:hr>
            <ns3:cad>53</ns3:cad>
          </ns3:TrackPointExtension>
        </extensions>
      </trkpt>
      <trkpt lat="49.841048307716846466064453125" lon="6.881866715848445892333984375">
        <ele>276.399993896484375</ele>
        <time>2026-04-22T09:33:06.000Z</time>
        <extensions>
          <ns3:TrackPointExtension>
            <ns3:hr>121</ns3:hr>
            <ns3:cad>0</ns3:cad>
          </ns3:TrackPointExtension>
        </extensions>
      </trkpt>
      <trkpt lat="49.8410291969776153564453125" lon="6.8818293325603008270263671875">
        <ele>276.20001220703125</ele>
        <time>2026-04-22T09:33:13.000Z</time>
        <extensions>
          <ns3:TrackPointExtension>
            <ns3:hr>122</ns3:hr>
            <ns3:cad>0</ns3:cad>
          </ns3:TrackPointExtension>
        </extensions>
      </trkpt>
      <trkpt lat="49.84099005348980426788330078125" lon="6.8817280791699886322021484375">
        <ele>275.79998779296875</ele>
        <time>2026-04-22T09:33:21.000Z</time>
        <extensions>
          <ns3:TrackPointExtension>
            <ns3:hr>121</ns3:hr>
            <ns3:cad>57</ns3:cad>
          </ns3:TrackPointExtension>
        </extensions>
      </trkpt>
      <trkpt lat="49.8409844376146793365478515625" lon="6.8817208707332611083984375">
        <ele>275.399993896484375</ele>
        <time>2026-04-22T09:33:27.000Z</time>
        <extensions>
          <ns3:TrackPointExtension>
            <ns3:hr>120</ns3:hr>
            <ns3:cad>0</ns3:cad>
          </ns3:TrackPointExtension>
        </extensions>
      </trkpt>
      <trkpt lat="49.84097463078796863555908203125" lon="6.88168860040605068206787109375">
        <ele>274.600006103515625</ele>
        <time>2026-04-22T09:33:34.000Z</time>
        <extensions>
          <ns3:TrackPointExtension>
            <ns3:hr>121</ns3:hr>
            <ns3:cad>0</ns3:cad>
          </ns3:TrackPointExtension>
        </extensions>
      </trkpt>
      <trkpt lat="49.8409760557115077972412109375" lon="6.88168491236865520477294921875">
        <ele>274.399993896484375</ele>
        <time>2026-04-22T09:33:35.000Z</time>
        <extensions>
          <ns3:TrackPointExtension>
            <ns3:hr>120</ns3:hr>
            <ns3:cad>0</ns3:cad>
          </ns3:TrackPointExtension>
        </extensions>
      </trkpt>
      <trkpt lat="49.840976893901824951171875" lon="6.8816811405122280120849609375">
        <ele>273.79998779296875</ele>
        <time>2026-04-22T09:33:43.000Z</time>
        <extensions>
          <ns3:TrackPointExtension>
            <ns3:hr>119</ns3:hr>
            <ns3:cad>0</ns3:cad>
          </ns3:TrackPointExtension>
        </extensions>
      </trkpt>
      <trkpt lat="49.840976893901824951171875" lon="6.8816811405122280120849609375">
        <ele>273.600006103515625</ele>
        <time>2026-04-22T09:33:46.000Z</time>
        <extensions>
          <ns3:TrackPointExtension>
            <ns3:hr>119</ns3:hr>
            <ns3:cad>0</ns3:cad>
          </ns3:TrackPointExtension>
        </extensions>
      </trkpt>
      <trkpt lat="49.84098569490015506744384765625" lon="6.88166362233459949493408203125">
        <ele>272.600006103515625</ele>
        <time>2026-04-22T09:34:05.000Z</time>
        <extensions>
          <ns3:TrackPointExtension>
            <ns3:hr>117</ns3:hr>
            <ns3:cad>0</ns3:cad>
          </ns3:TrackPointExtension>
        </extensions>
      </trkpt>
      <trkpt lat="49.84100815840065479278564453125" lon="6.88163512386381626129150390625">
        <ele>272.399993896484375</ele>
        <time>2026-04-22T09:34:18.000Z</time>
        <extensions>
          <ns3:TrackPointExtension>
            <ns3:hr>114</ns3:hr>
            <ns3:cad>0</ns3:cad>
          </ns3:TrackPointExtension>
        </extensions>
      </trkpt>
      <trkpt lat="49.841010086238384246826171875" lon="6.8816355429589748382568359375">
        <ele>272</ele>
        <time>2026-04-22T09:34:34.000Z</time>
        <extensions>
          <ns3:TrackPointExtension>
            <ns3:hr>117</ns3:hr>
            <ns3:cad>0</ns3:cad>
          </ns3:TrackPointExtension>
        </extensions>
      </trkpt>
      <trkpt lat="49.84100664965808391571044921875" lon="6.88163612969219684600830078125">
        <ele>272.20001220703125</ele>
        <time>2026-04-22T09:34:46.000Z</time>
        <extensions>
          <ns3:TrackPointExtension>
            <ns3:hr>114</ns3:hr>
            <ns3:cad>0</ns3:cad>
          </ns3:TrackPointExtension>
        </extensions>
      </trkpt>
      <trkpt lat="49.84101167879998683929443359375" lon="6.881635375320911407470703125">
        <ele>271.399993896484375</ele>
        <time>2026-04-22T09:35:10.000Z</time>
        <extensions>
          <ns3:TrackPointExtension>
            <ns3:hr>113</ns3:hr>
            <ns3:cad>0</ns3:cad>
          </ns3:TrackPointExtension>
        </extensions>
      </trkpt>
      <trkpt lat="49.8410142771899700164794921875" lon="6.8816350400447845458984375">
        <ele>271</ele>
        <time>2026-04-22T09:35:15.000Z</time>
        <extensions>
          <ns3:TrackPointExtension>
            <ns3:hr>110</ns3:hr>
            <ns3:cad>0</ns3:cad>
          </ns3:TrackPointExtension>
        </extensions>
      </trkpt>
      <trkpt lat="49.8410157859325408935546875" lon="6.88163512386381626129150390625">
        <ele>271</ele>
        <time>2026-04-22T09:35:20.000Z</time>
        <extensions>
          <ns3:TrackPointExtension>
            <ns3:hr>107</ns3:hr>
            <ns3:cad>0</ns3:cad>
          </ns3:TrackPointExtension>
        </extensions>
      </trkpt>
      <trkpt lat="49.8410176299512386322021484375" lon="6.88163462094962596893310546875">
        <ele>271.20001220703125</ele>
        <time>2026-04-22T09:35:26.000Z</time>
        <extensions>
          <ns3:TrackPointExtension>
            <ns3:hr>110</ns3:hr>
            <ns3:cad>0</ns3:cad>
          </ns3:TrackPointExtension>
        </extensions>
      </trkpt>
      <trkpt lat="49.84102182090282440185546875" lon="6.88163143582642078399658203125">
        <ele>270.600006103515625</ele>
        <time>2026-04-22T09:35:35.000Z</time>
        <extensions>
          <ns3:TrackPointExtension>
            <ns3:hr>106</ns3:hr>
            <ns3:cad>0</ns3:cad>
          </ns3:TrackPointExtension>
        </extensions>
      </trkpt>
      <trkpt lat="49.84102492220699787139892578125" lon="6.88162875361740589141845703125">
        <ele>270.399993896484375</ele>
        <time>2026-04-22T09:35:49.000Z</time>
        <extensions>
          <ns3:TrackPointExtension>
            <ns3:hr>107</ns3:hr>
            <ns3:cad>0</ns3:cad>
          </ns3:TrackPointExtension>
        </extensions>
      </trkpt>
      <trkpt lat="49.84102559275925159454345703125" lon="6.88162858597934246063232421875">
        <ele>270.399993896484375</ele>
        <time>2026-04-22T09:36:03.000Z</time>
        <extensions>
          <ns3:TrackPointExtension>
            <ns3:hr>104</ns3:hr>
            <ns3:cad>0</ns3:cad>
          </ns3:TrackPointExtension>
        </extensions>
      </trkpt>
      <trkpt lat="49.841020144522190093994140625" lon="6.8816345371305942535400390625">
        <ele>270.20001220703125</ele>
        <time>2026-04-22T09:37:03.000Z</time>
        <extensions>
          <ns3:TrackPointExtension>
            <ns3:hr>107</ns3:hr>
            <ns3:cad>0</ns3:cad>
          </ns3:TrackPointExtension>
        </extensions>
      </trkpt>
      <trkpt lat="49.8410193063318729400634765625" lon="6.881633698940277099609375">
        <ele>270.399993896484375</ele>
        <time>2026-04-22T09:37:16.000Z</time>
        <extensions>
          <ns3:TrackPointExtension>
            <ns3:hr>104</ns3:hr>
            <ns3:cad>0</ns3:cad>
          </ns3:TrackPointExtension>
        </extensions>
      </trkpt>
      <trkpt lat="49.84101704321801662445068359375" lon="6.8816338665783405303955078125">
        <ele>271.600006103515625</ele>
        <time>2026-04-22T09:38:07.000Z</time>
        <extensions>
          <ns3:TrackPointExtension>
            <ns3:hr>104</ns3:hr>
            <ns3:cad>0</ns3:cad>
          </ns3:TrackPointExtension>
        </extensions>
      </trkpt>
      <trkpt lat="49.84101712703704833984375" lon="6.88163495622575283050537109375">
        <ele>272.600006103515625</ele>
        <time>2026-04-22T09:38:12.000Z</time>
        <extensions>
          <ns3:TrackPointExtension>
            <ns3:hr>106</ns3:hr>
            <ns3:cad>0</ns3:cad>
          </ns3:TrackPointExtension>
        </extensions>
      </trkpt>
      <trkpt lat="49.84102056361734867095947265625" lon="6.881678961217403411865234375">
        <ele>272.79998779296875</ele>
        <time>2026-04-22T09:38:16.000Z</time>
        <extensions>
          <ns3:TrackPointExtension>
            <ns3:hr>110</ns3:hr>
            <ns3:cad>0</ns3:cad>
          </ns3:TrackPointExtension>
        </extensions>
      </trkpt>
      <trkpt lat="49.84102307818830013275146484375" lon="6.88181541860103607177734375">
        <ele>272.600006103515625</ele>
        <time>2026-04-22T09:38:20.000Z</time>
        <extensions>
          <ns3:TrackPointExtension>
            <ns3:hr>112</ns3:hr>
            <ns3:cad>0</ns3:cad>
          </ns3:TrackPointExtension>
        </extensions>
      </trkpt>
      <trkpt lat="49.8410095833241939544677734375" lon="6.8818403966724872589111328125">
        <ele>272.600006103515625</ele>
        <time>2026-04-22T09:38:21.000Z</time>
        <extensions>
          <ns3:TrackPointExtension>
            <ns3:hr>112</ns3:hr>
            <ns3:cad>0</ns3:cad>
          </ns3:TrackPointExtension>
        </extensions>
      </trkpt>
      <trkpt lat="49.84095518477261066436767578125" lon="6.88195229507982730865478515625">
        <ele>273</ele>
        <time>2026-04-22T09:38:26.000Z</time>
        <extensions>
          <ns3:TrackPointExtension>
            <ns3:hr>113</ns3:hr>
            <ns3:cad>49</ns3:cad>
          </ns3:TrackPointExtension>
        </extensions>
      </trkpt>
      <trkpt lat="49.84083448536694049835205078125" lon="6.88204784877598285675048828125">
        <ele>273.399993896484375</ele>
        <time>2026-04-22T09:38:37.000Z</time>
        <extensions>
          <ns3:TrackPointExtension>
            <ns3:hr>113</ns3:hr>
            <ns3:cad>53</ns3:cad>
          </ns3:TrackPointExtension>
        </extensions>
      </trkpt>
      <trkpt lat="49.8407836072146892547607421875" lon="6.88208875246345996856689453125">
        <ele>273.600006103515625</ele>
        <time>2026-04-22T09:38:42.000Z</time>
        <extensions>
          <ns3:TrackPointExtension>
            <ns3:hr>114</ns3:hr>
            <ns3:cad>53</ns3:cad>
          </ns3:TrackPointExtension>
        </extensions>
      </trkpt>
      <trkpt lat="49.84074245207011699676513671875" lon="6.88211850821971893310546875">
        <ele>273.600006103515625</ele>
        <time>2026-04-22T09:38:46.000Z</time>
        <extensions>
          <ns3:TrackPointExtension>
            <ns3:hr>115</ns3:hr>
            <ns3:cad>0</ns3:cad>
          </ns3:TrackPointExtension>
        </extensions>
      </trkpt>
      <trkpt lat="49.84059727750718593597412109375" lon="6.88221196644008159637451171875">
        <ele>274.20001220703125</ele>
        <time>2026-04-22T09:38:59.000Z</time>
        <extensions>
          <ns3:TrackPointExtension>
            <ns3:hr>116</ns3:hr>
            <ns3:cad>55</ns3:cad>
          </ns3:TrackPointExtension>
        </extensions>
      </trkpt>
      <trkpt lat="49.84048110432922840118408203125" lon="6.8822997249662876129150390625">
        <ele>274.600006103515625</ele>
        <time>2026-04-22T09:39:10.000Z</time>
        <extensions>
          <ns3:TrackPointExtension>
            <ns3:hr>117</ns3:hr>
            <ns3:cad>55</ns3:cad>
          </ns3:TrackPointExtension>
        </extensions>
      </trkpt>
      <trkpt lat="49.84043299220502376556396484375" lon="6.88233920373022556304931640625">
        <ele>274.600006103515625</ele>
        <time>2026-04-22T09:39:15.000Z</time>
        <extensions>
          <ns3:TrackPointExtension>
            <ns3:hr>117</ns3:hr>
            <ns3:cad>54</ns3:cad>
          </ns3:TrackPointExtension>
        </extensions>
      </trkpt>
      <trkpt lat="49.8403980396687984466552734375" lon="6.8823647685348987579345703125">
        <ele>274.600006103515625</ele>
        <time>2026-04-22T09:39:18.000Z</time>
        <extensions>
          <ns3:TrackPointExtension>
            <ns3:hr>117</ns3:hr>
            <ns3:cad>55</ns3:cad>
          </ns3:TrackPointExtension>
        </extensions>
      </trkpt>
      <trkpt lat="49.84029586426913738250732421875" lon="6.882453449070453643798828125">
        <ele>274.79998779296875</ele>
        <time>2026-04-22T09:39:28.000Z</time>
        <extensions>
          <ns3:TrackPointExtension>
            <ns3:hr>117</ns3:hr>
            <ns3:cad>55</ns3:cad>
          </ns3:TrackPointExtension>
        </extensions>
      </trkpt>
      <trkpt lat="49.84014901332557201385498046875" lon="6.8825826980173587799072265625">
        <ele>275</ele>
        <time>2026-04-22T09:39:42.000Z</time>
        <extensions>
          <ns3:TrackPointExtension>
            <ns3:hr>117</ns3:hr>
            <ns3:cad>55</ns3:cad>
          </ns3:TrackPointExtension>
        </extensions>
      </trkpt>
      <trkpt lat="49.8400282301008701324462890625" lon="6.8827044032514095306396484375">
        <ele>275</ele>
        <time>2026-04-22T09:39:54.000Z</time>
        <extensions>
          <ns3:TrackPointExtension>
            <ns3:hr>118</ns3:hr>
            <ns3:cad>55</ns3:cad>
          </ns3:TrackPointExtension>
        </extensions>
      </trkpt>
      <trkpt lat="49.83993292786180973052978515625" lon="6.8827892281115055084228515625">
        <ele>275</ele>
        <time>2026-04-22T09:40:03.000Z</time>
        <extensions>
          <ns3:TrackPointExtension>
            <ns3:hr>118</ns3:hr>
            <ns3:cad>0</ns3:cad>
          </ns3:TrackPointExtension>
        </extensions>
      </trkpt>
      <trkpt lat="49.839846678078174591064453125" lon="6.88290984369814395904541015625">
        <ele>275</ele>
        <time>2026-04-22T09:40:15.000Z</time>
        <extensions>
          <ns3:TrackPointExtension>
            <ns3:hr>117</ns3:hr>
            <ns3:cad>55</ns3:cad>
          </ns3:TrackPointExtension>
        </extensions>
      </trkpt>
      <trkpt lat="49.83983092010021209716796875" lon="6.882942952215671539306640625">
        <ele>275</ele>
        <time>2026-04-22T09:40:17.000Z</time>
        <extensions>
          <ns3:TrackPointExtension>
            <ns3:hr>117</ns3:hr>
            <ns3:cad>55</ns3:cad>
          </ns3:TrackPointExtension>
        </extensions>
      </trkpt>
      <trkpt lat="49.83978339470922946929931640625" lon="6.8830110132694244384765625">
        <ele>275</ele>
        <time>2026-04-22T09:40:21.000Z</time>
        <extensions>
          <ns3:TrackPointExtension>
            <ns3:hr>117</ns3:hr>
            <ns3:cad>54</ns3:cad>
          </ns3:TrackPointExtension>
        </extensions>
      </trkpt>
      <trkpt lat="49.83977635391056537628173828125" lon="6.88301595859229564666748046875">
        <ele>275.20001220703125</ele>
        <time>2026-04-22T09:40:22.000Z</time>
        <extensions>
          <ns3:TrackPointExtension>
            <ns3:hr>117</ns3:hr>
            <ns3:cad>54</ns3:cad>
          </ns3:TrackPointExtension>
        </extensions>
      </trkpt>
      <trkpt lat="49.83967845328152179718017578125" lon="6.88307044096291065216064453125">
        <ele>275.399993896484375</ele>
        <time>2026-04-22T09:40:30.000Z</time>
        <extensions>
          <ns3:TrackPointExtension>
            <ns3:hr>117</ns3:hr>
            <ns3:cad>53</ns3:cad>
          </ns3:TrackPointExtension>
        </extensions>
      </trkpt>
      <trkpt lat="49.83964559622108936309814453125" lon="6.88309240154922008514404296875">
        <ele>275.600006103515625</ele>
        <time>2026-04-22T09:40:33.000Z</time>
        <extensions>
          <ns3:TrackPointExtension>
            <ns3:hr>118</ns3:hr>
            <ns3:cad>53</ns3:cad>
          </ns3:TrackPointExtension>
        </extensions>
      </trkpt>
      <trkpt lat="49.83956831507384777069091796875" lon="6.88316549174487590789794921875">
        <ele>275.600006103515625</ele>
        <time>2026-04-22T09:40:41.000Z</time>
        <extensions>
          <ns3:TrackPointExtension>
            <ns3:hr>117</ns3:hr>
            <ns3:cad>54</ns3:cad>
          </ns3:TrackPointExtension>
        </extensions>
      </trkpt>
      <trkpt lat="49.8395233042538166046142578125" lon="6.88317722640931606292724609375">
        <ele>275.399993896484375</ele>
        <time>2026-04-22T09:40:46.000Z</time>
        <extensions>
          <ns3:TrackPointExtension>
            <ns3:hr>117</ns3:hr>
            <ns3:cad>0</ns3:cad>
          </ns3:TrackPointExtension>
        </extensions>
      </trkpt>
      <trkpt lat="49.839515425264835357666015625" lon="6.8831798247992992401123046875">
        <ele>275.79998779296875</ele>
        <time>2026-04-22T09:40:49.000Z</time>
        <extensions>
          <ns3:TrackPointExtension>
            <ns3:hr>117</ns3:hr>
            <ns3:cad>0</ns3:cad>
          </ns3:TrackPointExtension>
        </extensions>
      </trkpt>
      <trkpt lat="49.8395149223506450653076171875" lon="6.88318577595055103302001953125">
        <ele>275.79998779296875</ele>
        <time>2026-04-22T09:40:56.000Z</time>
        <extensions>
          <ns3:TrackPointExtension>
            <ns3:hr>116</ns3:hr>
            <ns3:cad>0</ns3:cad>
          </ns3:TrackPointExtension>
        </extensions>
      </trkpt>
      <trkpt lat="49.83948449604213237762451171875" lon="6.88319650478661060333251953125">
        <ele>276</ele>
        <time>2026-04-22T09:41:03.000Z</time>
        <extensions>
          <ns3:TrackPointExtension>
            <ns3:hr>115</ns3:hr>
            <ns3:cad>0</ns3:cad>
          </ns3:TrackPointExtension>
        </extensions>
      </trkpt>
      <trkpt lat="49.8394306004047393798828125" lon="6.8831436149775981903076171875">
        <ele>275.79998779296875</ele>
        <time>2026-04-22T09:41:10.000Z</time>
        <extensions>
          <ns3:TrackPointExtension>
            <ns3:hr>115</ns3:hr>
            <ns3:cad>0</ns3:cad>
          </ns3:TrackPointExtension>
        </extensions>
      </trkpt>
      <trkpt lat="49.83941073529422283172607421875" lon="6.8831104226410388946533203125">
        <ele>275.399993896484375</ele>
        <time>2026-04-22T09:41:16.000Z</time>
        <extensions>
          <ns3:TrackPointExtension>
            <ns3:hr>114</ns3:hr>
            <ns3:cad>0</ns3:cad>
          </ns3:TrackPointExtension>
        </extensions>
      </trkpt>
      <trkpt lat="49.83937502838671207427978515625" lon="6.88306490890681743621826171875">
        <ele>275.20001220703125</ele>
        <time>2026-04-22T09:41:23.000Z</time>
        <extensions>
          <ns3:TrackPointExtension>
            <ns3:hr>112</ns3:hr>
            <ns3:cad>0</ns3:cad>
          </ns3:TrackPointExtension>
        </extensions>
      </trkpt>
      <trkpt lat="49.83935642056167125701904296875" lon="6.88300522975623607635498046875">
        <ele>274.600006103515625</ele>
        <time>2026-04-22T09:41:28.000Z</time>
        <extensions>
          <ns3:TrackPointExtension>
            <ns3:hr>112</ns3:hr>
            <ns3:cad>0</ns3:cad>
          </ns3:TrackPointExtension>
        </extensions>
      </trkpt>
      <trkpt lat="49.83935214579105377197265625" lon="6.88299148343503475189208984375">
        <ele>274.399993896484375</ele>
        <time>2026-04-22T09:41:30.000Z</time>
        <extensions>
          <ns3:TrackPointExtension>
            <ns3:hr>111</ns3:hr>
            <ns3:cad>0</ns3:cad>
          </ns3:TrackPointExtension>
        </extensions>
      </trkpt>
      <trkpt lat="49.8393392376601696014404296875" lon="6.88298142515122890472412109375">
        <ele>274</ele>
        <time>2026-04-22T09:41:35.000Z</time>
        <extensions>
          <ns3:TrackPointExtension>
            <ns3:hr>110</ns3:hr>
            <ns3:cad>0</ns3:cad>
          </ns3:TrackPointExtension>
        </extensions>
      </trkpt>
      <trkpt lat="49.8393420875072479248046875" lon="6.88298846594989299774169921875">
        <ele>274</ele>
        <time>2026-04-22T09:41:40.000Z</time>
        <extensions>
          <ns3:TrackPointExtension>
            <ns3:hr>109</ns3:hr>
            <ns3:cad>0</ns3:cad>
          </ns3:TrackPointExtension>
        </extensions>
      </trkpt>
      <trkpt lat="49.8393420875072479248046875" lon="6.88298846594989299774169921875">
        <ele>274.600006103515625</ele>
        <time>2026-04-22T09:41:49.000Z</time>
        <extensions>
          <ns3:TrackPointExtension>
            <ns3:hr>112</ns3:hr>
            <ns3:cad>0</ns3:cad>
          </ns3:TrackPointExtension>
        </extensions>
      </trkpt>
      <trkpt lat="49.8393422551453113555908203125" lon="6.88298846594989299774169921875">
        <ele>274.600006103515625</ele>
        <time>2026-04-22T09:41:53.000Z</time>
        <extensions>
          <ns3:TrackPointExtension>
            <ns3:hr>108</ns3:hr>
            <ns3:cad>0</ns3:cad>
          </ns3:TrackPointExtension>
        </extensions>
      </trkpt>
      <trkpt lat="49.839348457753658294677734375" lon="6.882909424602985382080078125">
        <ele>274.20001220703125</ele>
        <time>2026-04-22T09:42:13.000Z</time>
        <extensions>
          <ns3:TrackPointExtension>
            <ns3:hr>107</ns3:hr>
            <ns3:cad>50</ns3:cad>
          </ns3:TrackPointExtension>
        </extensions>
      </trkpt>
      <trkpt lat="49.83934770338237285614013671875" lon="6.88288335688412189483642578125">
        <ele>273.79998779296875</ele>
        <time>2026-04-22T09:42:20.000Z</time>
        <extensions>
          <ns3:TrackPointExtension>
            <ns3:hr>104</ns3:hr>
            <ns3:cad>0</ns3:cad>
          </ns3:TrackPointExtension>
        </extensions>
      </trkpt>
      <trkpt lat="49.839351475238800048828125" lon="6.88289391808211803436279296875">
        <ele>273.79998779296875</ele>
        <time>2026-04-22T09:42:21.000Z</time>
        <extensions>
          <ns3:TrackPointExtension>
            <ns3:hr>103</ns3:hr>
            <ns3:cad>0</ns3:cad>
          </ns3:TrackPointExtension>
        </extensions>
      </trkpt>
      <trkpt lat="49.8393447697162628173828125" lon="6.88295728527009487152099609375">
        <ele>274.20001220703125</ele>
        <time>2026-04-22T09:42:27.000Z</time>
        <extensions>
          <ns3:TrackPointExtension>
            <ns3:hr>103</ns3:hr>
            <ns3:cad>0</ns3:cad>
          </ns3:TrackPointExtension>
        </extensions>
      </trkpt>
      <trkpt lat="49.839379303157329559326171875" lon="6.8830202333629131317138671875">
        <ele>274.600006103515625</ele>
        <time>2026-04-22T09:42:33.000Z</time>
        <extensions>
          <ns3:TrackPointExtension>
            <ns3:hr>106</ns3:hr>
            <ns3:cad>47</ns3:cad>
          </ns3:TrackPointExtension>
        </extensions>
      </trkpt>
      <trkpt lat="49.8393791355192661285400390625" lon="6.88303314149379730224609375">
        <ele>275</ele>
        <time>2026-04-22T09:42:34.000Z</time>
        <extensions>
          <ns3:TrackPointExtension>
            <ns3:hr>106</ns3:hr>
            <ns3:cad>47</ns3:cad>
          </ns3:TrackPointExtension>
        </extensions>
      </trkpt>
      <trkpt lat="49.83939531259238719940185546875" lon="6.883079074323177337646484375">
        <ele>275.79998779296875</ele>
        <time>2026-04-22T09:42:38.000Z</time>
        <extensions>
          <ns3:TrackPointExtension>
            <ns3:hr>107</ns3:hr>
            <ns3:cad>0</ns3:cad>
          </ns3:TrackPointExtension>
        </extensions>
      </trkpt>
      <trkpt lat="49.8394186981022357940673828125" lon="6.88310086727142333984375">
        <ele>276.399993896484375</ele>
        <time>2026-04-22T09:42:41.000Z</time>
        <extensions>
          <ns3:TrackPointExtension>
            <ns3:hr>109</ns3:hr>
            <ns3:cad>43</ns3:cad>
          </ns3:TrackPointExtension>
        </extensions>
      </trkpt>
      <trkpt lat="49.83948449604213237762451171875" lon="6.88312031328678131103515625">
        <ele>276.79998779296875</ele>
        <time>2026-04-22T09:42:47.000Z</time>
        <extensions>
          <ns3:TrackPointExtension>
            <ns3:hr>112</ns3:hr>
            <ns3:cad>47</ns3:cad>
          </ns3:TrackPointExtension>
        </extensions>
      </trkpt>
      <trkpt lat="49.83948784880340099334716796875" lon="6.88313045538961887359619140625">
        <ele>277</ele>
        <time>2026-04-22T09:42:48.000Z</time>
        <extensions>
          <ns3:TrackPointExtension>
            <ns3:hr>113</ns3:hr>
            <ns3:cad>47</ns3:cad>
          </ns3:TrackPointExtension>
        </extensions>
      </trkpt>
      <trkpt lat="49.83949296176433563232421875" lon="6.88313665799796581268310546875">
        <ele>277.399993896484375</ele>
        <time>2026-04-22T09:42:49.000Z</time>
        <extensions>
          <ns3:TrackPointExtension>
            <ns3:hr>114</ns3:hr>
            <ns3:cad>47</ns3:cad>
          </ns3:TrackPointExtension>
        </extensions>
      </trkpt>
      <trkpt lat="49.8395212925970554351806640625" lon="6.88316884450614452362060546875">
        <ele>277.399993896484375</ele>
        <time>2026-04-22T09:42:53.000Z</time>
        <extensions>
          <ns3:TrackPointExtension>
            <ns3:hr>117</ns3:hr>
            <ns3:cad>47</ns3:cad>
          </ns3:TrackPointExtension>
        </extensions>
      </trkpt>
      <trkpt lat="49.8395611904561519622802734375" lon="6.883168928325176239013671875">
        <ele>277.79998779296875</ele>
        <time>2026-04-22T09:43:00.000Z</time>
        <extensions>
          <ns3:TrackPointExtension>
            <ns3:hr>117</ns3:hr>
            <ns3:cad>0</ns3:cad>
          </ns3:TrackPointExtension>
        </extensions>
      </trkpt>
      <trkpt lat="49.83959815464913845062255859375" lon="6.8831664137542247772216796875">
        <ele>277.79998779296875</ele>
        <time>2026-04-22T09:43:03.000Z</time>
        <extensions>
          <ns3:TrackPointExtension>
            <ns3:hr>114</ns3:hr>
            <ns3:cad>52</ns3:cad>
          </ns3:TrackPointExtension>
        </extensions>
      </trkpt>
      <trkpt lat="49.83963101170957088470458984375" lon="6.883174963295459747314453125">
        <ele>278</ele>
        <time>2026-04-22T09:43:06.000Z</time>
        <extensions>
          <ns3:TrackPointExtension>
            <ns3:hr>114</ns3:hr>
            <ns3:cad>52</ns3:cad>
          </ns3:TrackPointExtension>
        </extensions>
      </trkpt>
      <trkpt lat="49.83965255320072174072265625" lon="6.8831925652921199798583984375">
        <ele>278</ele>
        <time>2026-04-22T09:43:09.000Z</time>
        <extensions>
          <ns3:TrackPointExtension>
            <ns3:hr>116</ns3:hr>
            <ns3:cad>52</ns3:cad>
          </ns3:TrackPointExtension>
        </extensions>
      </trkpt>
      <trkpt lat="49.83967266976833343505859375" lon="6.883196420967578887939453125">
        <ele>278</ele>
        <time>2026-04-22T09:43:11.000Z</time>
        <extensions>
          <ns3:TrackPointExtension>
            <ns3:hr>119</ns3:hr>
            <ns3:cad>51</ns3:cad>
          </ns3:TrackPointExtension>
        </extensions>
      </trkpt>
      <trkpt lat="49.83974869363009929656982421875" lon="6.8831888772547245025634765625">
        <ele>278</ele>
        <time>2026-04-22T09:43:16.000Z</time>
        <extensions>
          <ns3:TrackPointExtension>
            <ns3:hr>120</ns3:hr>
            <ns3:cad>53</ns3:cad>
          </ns3:TrackPointExtension>
        </extensions>
      </trkpt>
      <trkpt lat="49.83989906497299671173095703125" lon="6.88316565938293933868408203125">
        <ele>277.79998779296875</ele>
        <time>2026-04-22T09:43:29.000Z</time>
        <extensions>
          <ns3:TrackPointExtension>
            <ns3:hr>120</ns3:hr>
            <ns3:cad>53</ns3:cad>
          </ns3:TrackPointExtension>
        </extensions>
      </trkpt>
      <trkpt lat="49.84001188538968563079833984375" lon="6.883171610534191131591796875">
        <ele>277.399993896484375</ele>
        <time>2026-04-22T09:43:39.000Z</time>
        <extensions>
          <ns3:TrackPointExtension>
            <ns3:hr>119</ns3:hr>
            <ns3:cad>54</ns3:cad>
          </ns3:TrackPointExtension>
        </extensions>
      </trkpt>
      <trkpt lat="49.84010056592524051666259765625" lon="6.8831798247992992401123046875">
        <ele>277.20001220703125</ele>
        <time>2026-04-22T09:43:47.000Z</time>
        <extensions>
          <ns3:TrackPointExtension>
            <ns3:hr>119</ns3:hr>
            <ns3:cad>0</ns3:cad>
          </ns3:TrackPointExtension>
        </extensions>
      </trkpt>
      <trkpt lat="49.8401083610951900482177734375" lon="6.88318946398794651031494140625">
        <ele>277.20001220703125</ele>
        <time>2026-04-22T09:43:48.000Z</time>
        <extensions>
          <ns3:TrackPointExtension>
            <ns3:hr>119</ns3:hr>
            <ns3:cad>0</ns3:cad>
          </ns3:TrackPointExtension>
        </extensions>
      </trkpt>
      <trkpt lat="49.8401620052754878997802734375" lon="6.88325869850814342498779296875">
        <ele>277.399993896484375</ele>
        <time>2026-04-22T09:43:53.000Z</time>
        <extensions>
          <ns3:TrackPointExtension>
            <ns3:hr>118</ns3:hr>
            <ns3:cad>0</ns3:cad>
          </ns3:TrackPointExtension>
        </extensions>
      </trkpt>
      <trkpt lat="49.8402032442390918731689453125" lon="6.88330530188977718353271484375">
        <ele>277.20001220703125</ele>
        <time>2026-04-22T09:43:58.000Z</time>
        <extensions>
          <ns3:TrackPointExtension>
            <ns3:hr>118</ns3:hr>
            <ns3:cad>0</ns3:cad>
          </ns3:TrackPointExtension>
        </extensions>
      </trkpt>
      <trkpt lat="49.840214811265468597412109375" lon="6.8833172880113124847412109375">
        <ele>277.20001220703125</ele>
        <time>2026-04-22T09:43:59.000Z</time>
        <extensions>
          <ns3:TrackPointExtension>
            <ns3:hr>118</ns3:hr>
            <ns3:cad>0</ns3:cad>
          </ns3:TrackPointExtension>
        </extensions>
      </trkpt>
      <trkpt lat="49.8402433097362518310546875" lon="6.8833514861762523651123046875">
        <ele>277</ele>
        <time>2026-04-22T09:44:02.000Z</time>
        <extensions>
          <ns3:TrackPointExtension>
            <ns3:hr>118</ns3:hr>
            <ns3:cad>0</ns3:cad>
          </ns3:TrackPointExtension>
        </extensions>
      </trkpt>
      <trkpt lat="49.84025345183908939361572265625" lon="6.8833856843411922454833984375">
        <ele>277</ele>
        <time>2026-04-22T09:44:04.000Z</time>
        <extensions>
          <ns3:TrackPointExtension>
            <ns3:hr>117</ns3:hr>
            <ns3:cad>0</ns3:cad>
          </ns3:TrackPointExtension>
        </extensions>
      </trkpt>
      <trkpt lat="49.84032436273992061614990234375" lon="6.8834882788360118865966796875">
        <ele>277</ele>
        <time>2026-04-22T09:44:11.000Z</time>
        <extensions>
          <ns3:TrackPointExtension>
            <ns3:hr>117</ns3:hr>
            <ns3:cad>53</ns3:cad>
          </ns3:TrackPointExtension>
        </extensions>
      </trkpt>
      <trkpt lat="49.8403340019285678863525390625" lon="6.8835083954036235809326171875">
        <ele>277</ele>
        <time>2026-04-22T09:44:12.000Z</time>
        <extensions>
          <ns3:TrackPointExtension>
            <ns3:hr>117</ns3:hr>
            <ns3:cad>53</ns3:cad>
          </ns3:TrackPointExtension>
        </extensions>
      </trkpt>
      <trkpt lat="49.84034481458365917205810546875" lon="6.88353513367474079132080078125">
        <ele>277</ele>
        <time>2026-04-22T09:44:14.000Z</time>
        <extensions>
          <ns3:TrackPointExtension>
            <ns3:hr>117</ns3:hr>
            <ns3:cad>54</ns3:cad>
          </ns3:TrackPointExtension>
        </extensions>
      </trkpt>
      <trkpt lat="49.84036744572222232818603515625" lon="6.88356958329677581787109375">
        <ele>276.79998779296875</ele>
        <time>2026-04-22T09:44:17.000Z</time>
        <extensions>
          <ns3:TrackPointExtension>
            <ns3:hr>116</ns3:hr>
            <ns3:cad>56</ns3:cad>
          </ns3:TrackPointExtension>
        </extensions>
      </trkpt>
      <trkpt lat="49.84042176045477390289306640625" lon="6.883674524724483489990234375">
        <ele>276.600006103515625</ele>
        <time>2026-04-22T09:44:25.000Z</time>
        <extensions>
          <ns3:TrackPointExtension>
            <ns3:hr>115</ns3:hr>
            <ns3:cad>56</ns3:cad>
          </ns3:TrackPointExtension>
        </extensions>
      </trkpt>
      <trkpt lat="49.840488731861114501953125" lon="6.883784830570220947265625">
        <ele>276.20001220703125</ele>
        <time>2026-04-22T09:44:33.000Z</time>
        <extensions>
          <ns3:TrackPointExtension>
            <ns3:hr>115</ns3:hr>
            <ns3:cad>0</ns3:cad>
          </ns3:TrackPointExtension>
        </extensions>
      </trkpt>
      <trkpt lat="49.84050356782972812652587890625" lon="6.8838054500520229339599609375">
        <ele>275.79998779296875</ele>
        <time>2026-04-22T09:44:35.000Z</time>
        <extensions>
          <ns3:TrackPointExtension>
            <ns3:hr>115</ns3:hr>
            <ns3:cad>0</ns3:cad>
          </ns3:TrackPointExtension>
        </extensions>
      </trkpt>
      <trkpt lat="49.84053877182304859161376953125" lon="6.88384425826370716094970703125">
        <ele>275.600006103515625</ele>
        <time>2026-04-22T09:44:39.000Z</time>
        <extensions>
          <ns3:TrackPointExtension>
            <ns3:hr>114</ns3:hr>
            <ns3:cad>0</ns3:cad>
          </ns3:TrackPointExtension>
        </extensions>
      </trkpt>
      <trkpt lat="49.84056157059967517852783203125" lon="6.8838798813521862030029296875">
        <ele>275.20001220703125</ele>
        <time>2026-04-22T09:44:42.000Z</time>
        <extensions>
          <ns3:TrackPointExtension>
            <ns3:hr>114</ns3:hr>
            <ns3:cad>0</ns3:cad>
          </ns3:TrackPointExtension>
        </extensions>
      </trkpt>
      <trkpt lat="49.8405941762030124664306640625" lon="6.8839643709361553192138671875">
        <ele>274.600006103515625</ele>
        <time>2026-04-22T09:44:48.000Z</time>
        <extensions>
          <ns3:TrackPointExtension>
            <ns3:hr>114</ns3:hr>
            <ns3:cad>0</ns3:cad>
          </ns3:TrackPointExtension>
        </extensions>
      </trkpt>
      <trkpt lat="49.84061303548514842987060546875" lon="6.8839824758470058441162109375">
        <ele>274.600006103515625</ele>
        <time>2026-04-22T09:44:50.000Z</time>
        <extensions>
          <ns3:TrackPointExtension>
            <ns3:hr>114</ns3:hr>
            <ns3:cad>0</ns3:cad>
          </ns3:TrackPointExtension>
        </extensions>
      </trkpt>
      <trkpt lat="49.84070238657295703887939453125" lon="6.8840693123638629913330078125">
        <ele>273.79998779296875</ele>
        <time>2026-04-22T09:44:59.000Z</time>
        <extensions>
          <ns3:TrackPointExtension>
            <ns3:hr>112</ns3:hr>
            <ns3:cad>0</ns3:cad>
          </ns3:TrackPointExtension>
        </extensions>
      </trkpt>
      <trkpt lat="49.84072820283472537994384765625" lon="6.88410191796720027923583984375">
        <ele>273.600006103515625</ele>
        <time>2026-04-22T09:45:02.000Z</time>
        <extensions>
          <ns3:TrackPointExtension>
            <ns3:hr>113</ns3:hr>
            <ns3:cad>0</ns3:cad>
          </ns3:TrackPointExtension>
        </extensions>
      </trkpt>
      <trkpt lat="49.84078821726143360137939453125" lon="6.884160004556179046630859375">
        <ele>273.399993896484375</ele>
        <time>2026-04-22T09:45:07.000Z</time>
        <extensions>
          <ns3:TrackPointExtension>
            <ns3:hr>112</ns3:hr>
            <ns3:cad>55</ns3:cad>
          </ns3:TrackPointExtension>
        </extensions>
      </trkpt>
      <trkpt lat="49.84082157723605632781982421875" lon="6.884182803332805633544921875">
        <ele>273.20001220703125</ele>
        <time>2026-04-22T09:45:10.000Z</time>
        <extensions>
          <ns3:TrackPointExtension>
            <ns3:hr>112</ns3:hr>
            <ns3:cad>0</ns3:cad>
          </ns3:TrackPointExtension>
        </extensions>
      </trkpt>
      <trkpt lat="49.84083540737628936767578125" lon="6.88422806560993194580078125">
        <ele>273</ele>
        <time>2026-04-22T09:45:13.000Z</time>
        <extensions>
          <ns3:TrackPointExtension>
            <ns3:hr>113</ns3:hr>
            <ns3:cad>55</ns3:cad>
          </ns3:TrackPointExtension>
        </extensions>
      </trkpt>
      <trkpt lat="49.84089701436460018157958984375" lon="6.8843157403171062469482421875">
        <ele>272.79998779296875</ele>
        <time>2026-04-22T09:45:20.000Z</time>
        <extensions>
          <ns3:TrackPointExtension>
            <ns3:hr>111</ns3:hr>
            <ns3:cad>0</ns3:cad>
          </ns3:TrackPointExtension>
        </extensions>
      </trkpt>
      <trkpt lat="49.84089952893555164337158203125" lon="6.88433744944632053375244140625">
        <ele>272.600006103515625</ele>
        <time>2026-04-22T09:45:21.000Z</time>
        <extensions>
          <ns3:TrackPointExtension>
            <ns3:hr>111</ns3:hr>
            <ns3:cad>0</ns3:cad>
          </ns3:TrackPointExtension>
        </extensions>
      </trkpt>
      <trkpt lat="49.84094395302236080169677734375" lon="6.88442612998187541961669921875">
        <ele>272</ele>
        <time>2026-04-22T09:45:28.000Z</time>
        <extensions>
          <ns3:TrackPointExtension>
            <ns3:hr>110</ns3:hr>
            <ns3:cad>55</ns3:cad>
          </ns3:TrackPointExtension>
        </extensions>
      </trkpt>
      <trkpt lat="49.840985946357250213623046875" lon="6.88448664732277393341064453125">
        <ele>271.399993896484375</ele>
        <time>2026-04-22T09:45:33.000Z</time>
        <extensions>
          <ns3:TrackPointExtension>
            <ns3:hr>110</ns3:hr>
            <ns3:cad>55</ns3:cad>
          </ns3:TrackPointExtension>
        </extensions>
      </trkpt>
      <trkpt lat="49.841023497283458709716796875" lon="6.8845452368259429931640625">
        <ele>271</ele>
        <time>2026-04-22T09:45:38.000Z</time>
        <extensions>
          <ns3:TrackPointExtension>
            <ns3:hr>111</ns3:hr>
            <ns3:cad>0</ns3:cad>
          </ns3:TrackPointExtension>
        </extensions>
      </trkpt>
      <trkpt lat="49.8410524986684322357177734375" lon="6.8845903314650058746337890625">
        <ele>270.399993896484375</ele>
        <time>2026-04-22T09:45:42.000Z</time>
        <extensions>
          <ns3:TrackPointExtension>
            <ns3:hr>112</ns3:hr>
            <ns3:cad>56</ns3:cad>
          </ns3:TrackPointExtension>
        </extensions>
      </trkpt>
      <trkpt lat="49.8410675860941410064697265625" lon="6.88461421988904476165771484375">
        <ele>270.20001220703125</ele>
        <time>2026-04-22T09:45:44.000Z</time>
        <extensions>
          <ns3:TrackPointExtension>
            <ns3:hr>111</ns3:hr>
            <ns3:cad>55</ns3:cad>
          </ns3:TrackPointExtension>
        </extensions>
      </trkpt>
      <trkpt lat="49.841072447597980499267578125" lon="6.88463098369538784027099609375">
        <ele>270</ele>
        <time>2026-04-22T09:45:45.000Z</time>
        <extensions>
          <ns3:TrackPointExtension>
            <ns3:hr>111</ns3:hr>
            <ns3:cad>55</ns3:cad>
          </ns3:TrackPointExtension>
        </extensions>
      </trkpt>
      <trkpt lat="49.84113405458629131317138671875" lon="6.884727962315082550048828125">
        <ele>269.399993896484375</ele>
        <time>2026-04-22T09:45:53.000Z</time>
        <extensions>
          <ns3:TrackPointExtension>
            <ns3:hr>111</ns3:hr>
            <ns3:cad>55</ns3:cad>
          </ns3:TrackPointExtension>
        </extensions>
      </trkpt>
      <trkpt lat="49.8411597870290279388427734375" lon="6.88476224429905414581298828125">
        <ele>268.79998779296875</ele>
        <time>2026-04-22T09:45:56.000Z</time>
        <extensions>
          <ns3:TrackPointExtension>
            <ns3:hr>111</ns3:hr>
            <ns3:cad>55</ns3:cad>
          </ns3:TrackPointExtension>
        </extensions>
      </trkpt>
      <trkpt lat="49.8411834239959716796875" lon="6.88479895703494548797607421875">
        <ele>268.399993896484375</ele>
        <time>2026-04-22T09:45:59.000Z</time>
        <extensions>
          <ns3:TrackPointExtension>
            <ns3:hr>110</ns3:hr>
            <ns3:cad>0</ns3:cad>
          </ns3:TrackPointExtension>
        </extensions>
      </trkpt>
      <trkpt lat="49.84118820168077945709228515625" lon="6.88481186516582965850830078125">
        <ele>268.20001220703125</ele>
        <time>2026-04-22T09:46:00.000Z</time>
        <extensions>
          <ns3:TrackPointExtension>
            <ns3:hr>110</ns3:hr>
            <ns3:cad>0</ns3:cad>
          </ns3:TrackPointExtension>
        </extensions>
      </trkpt>
      <trkpt lat="49.8412231542170047760009765625" lon="6.8848659284412860870361328125">
        <ele>267.20001220703125</ele>
        <time>2026-04-22T09:46:05.000Z</time>
        <extensions>
          <ns3:TrackPointExtension>
            <ns3:hr>110</ns3:hr>
            <ns3:cad>53</ns3:cad>
          </ns3:TrackPointExtension>
        </extensions>
      </trkpt>
      <trkpt lat="49.84123446978628635406494140625" lon="6.88487087376415729522705078125">
        <ele>267</ele>
        <time>2026-04-22T09:46:06.000Z</time>
        <extensions>
          <ns3:TrackPointExtension>
            <ns3:hr>110</ns3:hr>
            <ns3:cad>53</ns3:cad>
          </ns3:TrackPointExtension>
        </extensions>
      </trkpt>
      <trkpt lat="49.84125383198261260986328125" lon="6.88487975858151912689208984375">
        <ele>266.600006103515625</ele>
        <time>2026-04-22T09:46:08.000Z</time>
        <extensions>
          <ns3:TrackPointExtension>
            <ns3:hr>111</ns3:hr>
            <ns3:cad>53</ns3:cad>
          </ns3:TrackPointExtension>
        </extensions>
      </trkpt>
      <trkpt lat="49.8412705957889556884765625" lon="6.884916722774505615234375">
        <ele>266</ele>
        <time>2026-04-22T09:46:11.000Z</time>
        <extensions>
          <ns3:TrackPointExtension>
            <ns3:hr>111</ns3:hr>
            <ns3:cad>0</ns3:cad>
          </ns3:TrackPointExtension>
        </extensions>
      </trkpt>
      <trkpt lat="49.8413039557635784149169921875" lon="6.88494823873043060302734375">
        <ele>265.20001220703125</ele>
        <time>2026-04-22T09:46:15.000Z</time>
        <extensions>
          <ns3:TrackPointExtension>
            <ns3:hr>112</ns3:hr>
            <ns3:cad>0</ns3:cad>
          </ns3:TrackPointExtension>
        </extensions>
      </trkpt>
      <trkpt lat="49.8413135111331939697265625" lon="6.88495703972876071929931640625">
        <ele>265</ele>
        <time>2026-04-22T09:46:16.000Z</time>
        <extensions>
          <ns3:TrackPointExtension>
            <ns3:hr>112</ns3:hr>
            <ns3:cad>53</ns3:cad>
          </ns3:TrackPointExtension>
        </extensions>
      </trkpt>
      <trkpt lat="49.84136086888611316680908203125" lon="6.8850137852132320404052734375">
        <ele>264.399993896484375</ele>
        <time>2026-04-22T09:46:22.000Z</time>
        <extensions>
          <ns3:TrackPointExtension>
            <ns3:hr>111</ns3:hr>
            <ns3:cad>53</ns3:cad>
          </ns3:TrackPointExtension>
        </extensions>
      </trkpt>
      <trkpt lat="49.84137629158794879913330078125" lon="6.884998194873332977294921875">
        <ele>264.20001220703125</ele>
        <time>2026-04-22T09:46:24.000Z</time>
        <extensions>
          <ns3:TrackPointExtension>
            <ns3:hr>110</ns3:hr>
            <ns3:cad>53</ns3:cad>
          </ns3:TrackPointExtension>
        </extensions>
      </trkpt>
      <trkpt lat="49.8414105735719203948974609375" lon="6.88494664616882801055908203125">
        <ele>263.79998779296875</ele>
        <time>2026-04-22T09:46:28.000Z</time>
        <extensions>
          <ns3:TrackPointExtension>
            <ns3:hr>110</ns3:hr>
            <ns3:cad>53</ns3:cad>
          </ns3:TrackPointExtension>
        </extensions>
      </trkpt>
      <trkpt lat="49.841435886919498443603515625" lon="6.8848937563598155975341796875">
        <ele>263.399993896484375</ele>
        <time>2026-04-22T09:46:32.000Z</time>
        <extensions>
          <ns3:TrackPointExtension>
            <ns3:hr>109</ns3:hr>
            <ns3:cad>0</ns3:cad>
          </ns3:TrackPointExtension>
        </extensions>
      </trkpt>
      <trkpt lat="49.841497242450714111328125" lon="6.8847925029695034027099609375">
        <ele>262.79998779296875</ele>
        <time>2026-04-22T09:46:39.000Z</time>
        <extensions>
          <ns3:TrackPointExtension>
            <ns3:hr>108</ns3:hr>
            <ns3:cad>0</ns3:cad>
          </ns3:TrackPointExtension>
        </extensions>
      </trkpt>
      <trkpt lat="49.8415259085595607757568359375" lon="6.884736679494380950927734375">
        <ele>262.600006103515625</ele>
        <time>2026-04-22T09:46:43.000Z</time>
        <extensions>
          <ns3:TrackPointExtension>
            <ns3:hr>108</ns3:hr>
            <ns3:cad>0</ns3:cad>
          </ns3:TrackPointExtension>
        </extensions>
      </trkpt>
      <trkpt lat="49.841593466699123382568359375" lon="6.884556300938129425048828125">
        <ele>262</ele>
        <time>2026-04-22T09:46:55.000Z</time>
        <extensions>
          <ns3:TrackPointExtension>
            <ns3:hr>110</ns3:hr>
            <ns3:cad>0</ns3:cad>
          </ns3:TrackPointExtension>
        </extensions>
      </trkpt>
      <trkpt lat="49.8416264913976192474365234375" lon="6.8844706378877162933349609375">
        <ele>261.79998779296875</ele>
        <time>2026-04-22T09:47:01.000Z</time>
        <extensions>
          <ns3:TrackPointExtension>
            <ns3:hr>110</ns3:hr>
            <ns3:cad>54</ns3:cad>
          </ns3:TrackPointExtension>
        </extensions>
      </trkpt>
      <trkpt lat="49.84164702706038951873779296875" lon="6.88440131954848766326904296875">
        <ele>261.600006103515625</ele>
        <time>2026-04-22T09:47:05.000Z</time>
        <extensions>
          <ns3:TrackPointExtension>
            <ns3:hr>110</ns3:hr>
            <ns3:cad>0</ns3:cad>
          </ns3:TrackPointExtension>
        </extensions>
      </trkpt>
      <trkpt lat="49.84171894378960132598876953125" lon="6.88420518301427364349365234375">
        <ele>261.20001220703125</ele>
        <time>2026-04-22T09:47:17.000Z</time>
        <extensions>
          <ns3:TrackPointExtension>
            <ns3:hr>110</ns3:hr>
            <ns3:cad>56</ns3:cad>
          </ns3:TrackPointExtension>
        </extensions>
      </trkpt>
      <trkpt lat="49.84176571480929851531982421875" lon="6.8840864114463329315185546875">
        <ele>260.79998779296875</ele>
        <time>2026-04-22T09:47:25.000Z</time>
        <extensions>
          <ns3:TrackPointExtension>
            <ns3:hr>111</ns3:hr>
            <ns3:cad>56</ns3:cad>
          </ns3:TrackPointExtension>
        </extensions>
      </trkpt>
      <trkpt lat="49.84180594794452190399169921875" lon="6.8840180151164531707763671875">
        <ele>260.399993896484375</ele>
        <time>2026-04-22T09:47:30.000Z</time>
        <extensions>
          <ns3:TrackPointExtension>
            <ns3:hr>111</ns3:hr>
            <ns3:cad>55</ns3:cad>
          </ns3:TrackPointExtension>
        </extensions>
      </trkpt>
      <trkpt lat="49.84186143614351749420166015625" lon="6.88391818664968013763427734375">
        <ele>260.20001220703125</ele>
        <time>2026-04-22T09:47:37.000Z</time>
        <extensions>
          <ns3:TrackPointExtension>
            <ns3:hr>114</ns3:hr>
            <ns3:cad>0</ns3:cad>
          </ns3:TrackPointExtension>
        </extensions>
      </trkpt>
      <trkpt lat="49.84192513860762119293212890625" lon="6.88385867513716220855712890625">
        <ele>259.79998779296875</ele>
        <time>2026-04-22T09:47:43.000Z</time>
        <extensions>
          <ns3:TrackPointExtension>
            <ns3:hr>114</ns3:hr>
            <ns3:cad>56</ns3:cad>
          </ns3:TrackPointExtension>
        </extensions>
      </trkpt>
      <trkpt lat="49.84197475947439670562744140625" lon="6.88382665626704692840576171875">
        <ele>259.79998779296875</ele>
        <time>2026-04-22T09:47:47.000Z</time>
        <extensions>
          <ns3:TrackPointExtension>
            <ns3:hr>113</ns3:hr>
            <ns3:cad>55</ns3:cad>
          </ns3:TrackPointExtension>
        </extensions>
      </trkpt>
      <trkpt lat="49.84207416884601116180419921875" lon="6.8837829865515232086181640625">
        <ele>259.79998779296875</ele>
        <time>2026-04-22T09:47:56.000Z</time>
        <extensions>
          <ns3:TrackPointExtension>
            <ns3:hr>113</ns3:hr>
            <ns3:cad>55</ns3:cad>
          </ns3:TrackPointExtension>
        </extensions>
      </trkpt>
      <trkpt lat="49.842179529368877410888671875" lon="6.883717440068721771240234375">
        <ele>259.600006103515625</ele>
        <time>2026-04-22T09:48:07.000Z</time>
        <extensions>
          <ns3:TrackPointExtension>
            <ns3:hr>114</ns3:hr>
            <ns3:cad>0</ns3:cad>
          </ns3:TrackPointExtension>
        </extensions>
      </trkpt>
      <trkpt lat="49.84218715690076351165771484375" lon="6.88371517695486545562744140625">
        <ele>259.399993896484375</ele>
        <time>2026-04-22T09:48:08.000Z</time>
        <extensions>
          <ns3:TrackPointExtension>
            <ns3:hr>114</ns3:hr>
            <ns3:cad>0</ns3:cad>
          </ns3:TrackPointExtension>
        </extensions>
      </trkpt>
      <trkpt lat="49.84223912470042705535888671875" lon="6.88376429490745067596435546875">
        <ele>258.79998779296875</ele>
        <time>2026-04-22T09:48:15.000Z</time>
        <extensions>
          <ns3:TrackPointExtension>
            <ns3:hr>114</ns3:hr>
            <ns3:cad>52</ns3:cad>
          </ns3:TrackPointExtension>
        </extensions>
      </trkpt>
      <trkpt lat="49.84225270338356494903564453125" lon="6.883775778114795684814453125">
        <ele>258.600006103515625</ele>
        <time>2026-04-22T09:48:17.000Z</time>
        <extensions>
          <ns3:TrackPointExtension>
            <ns3:hr>114</ns3:hr>
            <ns3:cad>52</ns3:cad>
          </ns3:TrackPointExtension>
        </extensions>
      </trkpt>
      <trkpt lat="49.84227768145501613616943359375" lon="6.8838250637054443359375">
        <ele>257.600006103515625</ele>
        <time>2026-04-22T09:48:22.000Z</time>
        <extensions>
          <ns3:TrackPointExtension>
            <ns3:hr>115</ns3:hr>
            <ns3:cad>0</ns3:cad>
          </ns3:TrackPointExtension>
        </extensions>
      </trkpt>
      <trkpt lat="49.84230953268706798553466796875" lon="6.88385750167071819305419921875">
        <ele>256.399993896484375</ele>
        <time>2026-04-22T09:48:27.000Z</time>
        <extensions>
          <ns3:TrackPointExtension>
            <ns3:hr>115</ns3:hr>
            <ns3:cad>0</ns3:cad>
          </ns3:TrackPointExtension>
        </extensions>
      </trkpt>
      <trkpt lat="49.84233065508306026458740234375" lon="6.8838731758296489715576171875">
        <ele>256.20001220703125</ele>
        <time>2026-04-22T09:48:30.000Z</time>
        <extensions>
          <ns3:TrackPointExtension>
            <ns3:hr>114</ns3:hr>
            <ns3:cad>0</ns3:cad>
          </ns3:TrackPointExtension>
        </extensions>
      </trkpt>
      <trkpt lat="49.84238748438656330108642578125" lon="6.88392723910510540008544921875">
        <ele>255.399993896484375</ele>
        <time>2026-04-22T09:48:37.000Z</time>
        <extensions>
          <ns3:TrackPointExtension>
            <ns3:hr>114</ns3:hr>
            <ns3:cad>0</ns3:cad>
          </ns3:TrackPointExtension>
        </extensions>
      </trkpt>
      <trkpt lat="49.84242193400859832763671875" lon="6.8839623592793941497802734375">
        <ele>254.600006103515625</ele>
        <time>2026-04-22T09:48:42.000Z</time>
        <extensions>
          <ns3:TrackPointExtension>
            <ns3:hr>114</ns3:hr>
            <ns3:cad>0</ns3:cad>
          </ns3:TrackPointExtension>
        </extensions>
      </trkpt>
      <trkpt lat="49.8424271307885646820068359375" lon="6.88397266902029514312744140625">
        <ele>254.399993896484375</ele>
        <time>2026-04-22T09:48:43.000Z</time>
        <extensions>
          <ns3:TrackPointExtension>
            <ns3:hr>114</ns3:hr>
            <ns3:cad>0</ns3:cad>
          </ns3:TrackPointExtension>
        </extensions>
      </trkpt>
      <trkpt lat="49.842462837696075439453125" lon="6.884020529687404632568359375">
        <ele>253.399993896484375</ele>
        <time>2026-04-22T09:48:49.000Z</time>
        <extensions>
          <ns3:TrackPointExtension>
            <ns3:hr>113</ns3:hr>
            <ns3:cad>0</ns3:cad>
          </ns3:TrackPointExtension>
        </extensions>
      </trkpt>
      <trkpt lat="49.842472560703754425048828125" lon="6.8840347789227962493896484375">
        <ele>252.8000030517578125</ele>
        <time>2026-04-22T09:48:51.000Z</time>
        <extensions>
          <ns3:TrackPointExtension>
            <ns3:hr>113</ns3:hr>
            <ns3:cad>0</ns3:cad>
          </ns3:TrackPointExtension>
        </extensions>
      </trkpt>
      <trkpt lat="49.8424854688346385955810546875" lon="6.88405397348105907440185546875">
        <ele>252.399993896484375</ele>
        <time>2026-04-22T09:48:53.000Z</time>
        <extensions>
          <ns3:TrackPointExtension>
            <ns3:hr>113</ns3:hr>
            <ns3:cad>0</ns3:cad>
          </ns3:TrackPointExtension>
        </extensions>
      </trkpt>
      <trkpt lat="49.8425220139324665069580078125" lon="6.88410677947103977203369140625">
        <ele>251.1999969482421875</ele>
        <time>2026-04-22T09:49:00.000Z</time>
        <extensions>
          <ns3:TrackPointExtension>
            <ns3:hr>113</ns3:hr>
            <ns3:cad>0</ns3:cad>
          </ns3:TrackPointExtension>
        </extensions>
      </trkpt>
      <trkpt lat="49.8425515182316303253173828125" lon="6.88417232595384120941162109375">
        <ele>250</ele>
        <time>2026-04-22T09:49:07.000Z</time>
        <extensions>
          <ns3:TrackPointExtension>
            <ns3:hr>111</ns3:hr>
            <ns3:cad>0</ns3:cad>
          </ns3:TrackPointExtension>
        </extensions>
      </trkpt>
      <trkpt lat="49.84256350435316562652587890625" lon="6.88419520854949951171875">
        <ele>249.600006103515625</ele>
        <time>2026-04-22T09:49:09.000Z</time>
        <extensions>
          <ns3:TrackPointExtension>
            <ns3:hr>111</ns3:hr>
            <ns3:cad>52</ns3:cad>
          </ns3:TrackPointExtension>
        </extensions>
      </trkpt>
      <trkpt lat="49.842578507959842681884765625" lon="6.8842315860092639923095703125">
        <ele>248.8000030517578125</ele>
        <time>2026-04-22T09:49:12.000Z</time>
        <extensions>
          <ns3:TrackPointExtension>
            <ns3:hr>111</ns3:hr>
            <ns3:cad>0</ns3:cad>
          </ns3:TrackPointExtension>
        </extensions>
      </trkpt>
      <trkpt lat="49.842612706124782562255859375" lon="6.88428170979022979736328125">
        <ele>247.8000030517578125</ele>
        <time>2026-04-22T09:49:18.000Z</time>
        <extensions>
          <ns3:TrackPointExtension>
            <ns3:hr>111</ns3:hr>
            <ns3:cad>0</ns3:cad>
          </ns3:TrackPointExtension>
        </extensions>
      </trkpt>
      <trkpt lat="49.842619411647319793701171875" lon="6.884289421141147613525390625">
        <ele>247.600006103515625</ele>
        <time>2026-04-22T09:49:19.000Z</time>
        <extensions>
          <ns3:TrackPointExtension>
            <ns3:hr>110</ns3:hr>
            <ns3:cad>0</ns3:cad>
          </ns3:TrackPointExtension>
        </extensions>
      </trkpt>
      <trkpt lat="49.84266174025833606719970703125" lon="6.8843360245227813720703125">
        <ele>246.399993896484375</ele>
        <time>2026-04-22T09:49:25.000Z</time>
        <extensions>
          <ns3:TrackPointExtension>
            <ns3:hr>109</ns3:hr>
            <ns3:cad>53</ns3:cad>
          </ns3:TrackPointExtension>
        </extensions>
      </trkpt>
      <trkpt lat="49.84268872998654842376708984375" lon="6.88438774086534976959228515625">
        <ele>245.399993896484375</ele>
        <time>2026-04-22T09:49:29.000Z</time>
        <extensions>
          <ns3:TrackPointExtension>
            <ns3:hr>110</ns3:hr>
            <ns3:cad>53</ns3:cad>
          </ns3:TrackPointExtension>
        </extensions>
      </trkpt>
      <trkpt lat="49.84269124455749988555908203125" lon="6.88440735451877117156982421875">
        <ele>245</ele>
        <time>2026-04-22T09:49:30.000Z</time>
        <extensions>
          <ns3:TrackPointExtension>
            <ns3:hr>110</ns3:hr>
            <ns3:cad>53</ns3:cad>
          </ns3:TrackPointExtension>
        </extensions>
      </trkpt>
      <trkpt lat="49.84265084378421306610107421875" lon="6.8845635093748569488525390625">
        <ele>244.600006103515625</ele>
        <time>2026-04-22T09:49:40.000Z</time>
        <extensions>
          <ns3:TrackPointExtension>
            <ns3:hr>111</ns3:hr>
            <ns3:cad>0</ns3:cad>
          </ns3:TrackPointExtension>
        </extensions>
      </trkpt>
      <trkpt lat="49.84260910190641880035400390625" lon="6.884658895432949066162109375">
        <ele>244</ele>
        <time>2026-04-22T09:49:47.000Z</time>
        <extensions>
          <ns3:TrackPointExtension>
            <ns3:hr>112</ns3:hr>
            <ns3:cad>0</ns3:cad>
          </ns3:TrackPointExtension>
        </extensions>
      </trkpt>
      <trkpt lat="49.84258244745433330535888671875" lon="6.884696781635284423828125">
        <ele>243.8000030517578125</ele>
        <time>2026-04-22T09:49:50.000Z</time>
        <extensions>
          <ns3:TrackPointExtension>
            <ns3:hr>112</ns3:hr>
            <ns3:cad>0</ns3:cad>
          </ns3:TrackPointExtension>
        </extensions>
      </trkpt>
      <trkpt lat="49.842532239854335784912109375" lon="6.88474866561591625213623046875">
        <ele>243</ele>
        <time>2026-04-22T09:49:56.000Z</time>
        <extensions>
          <ns3:TrackPointExtension>
            <ns3:hr>113</ns3:hr>
            <ns3:cad>0</ns3:cad>
          </ns3:TrackPointExtension>
        </extensions>
      </trkpt>
      <trkpt lat="49.8424730636179447174072265625" lon="6.88477381132543087005615234375">
        <ele>241.600006103515625</ele>
        <time>2026-04-22T09:50:01.000Z</time>
        <extensions>
          <ns3:TrackPointExtension>
            <ns3:hr>113</ns3:hr>
            <ns3:cad>54</ns3:cad>
          </ns3:TrackPointExtension>
        </extensions>
      </trkpt>
      <trkpt lat="49.8424613289535045623779296875" lon="6.8847747333347797393798828125">
        <ele>241.399993896484375</ele>
        <time>2026-04-22T09:50:02.000Z</time>
        <extensions>
          <ns3:TrackPointExtension>
            <ns3:hr>113</ns3:hr>
            <ns3:cad>54</ns3:cad>
          </ns3:TrackPointExtension>
        </extensions>
      </trkpt>
      <trkpt lat="49.8423600755631923675537109375" lon="6.88475151546299457550048828125">
        <ele>241</ele>
        <time>2026-04-22T09:50:10.000Z</time>
        <extensions>
          <ns3:TrackPointExtension>
            <ns3:hr>112</ns3:hr>
            <ns3:cad>54</ns3:cad>
          </ns3:TrackPointExtension>
        </extensions>
      </trkpt>
      <trkpt lat="49.84225253574550151824951171875" lon="6.88476861454546451568603515625">
        <ele>241.1999969482421875</ele>
        <time>2026-04-22T09:50:20.000Z</time>
        <extensions>
          <ns3:TrackPointExtension>
            <ns3:hr>113</ns3:hr>
            <ns3:cad>54</ns3:cad>
          </ns3:TrackPointExtension>
        </extensions>
      </trkpt>
      <trkpt lat="49.842185564339160919189453125" lon="6.88478739000856876373291015625">
        <ele>241.399993896484375</ele>
        <time>2026-04-22T09:50:28.000Z</time>
        <extensions>
          <ns3:TrackPointExtension>
            <ns3:hr>113</ns3:hr>
            <ns3:cad>56</ns3:cad>
          </ns3:TrackPointExtension>
        </extensions>
      </trkpt>
      <trkpt lat="49.842176847159862518310546875" lon="6.88479208387434482574462890625">
        <ele>241.1999969482421875</ele>
        <time>2026-04-22T09:50:29.000Z</time>
        <extensions>
          <ns3:TrackPointExtension>
            <ns3:hr>113</ns3:hr>
            <ns3:cad>56</ns3:cad>
          </ns3:TrackPointExtension>
        </extensions>
      </trkpt>
      <trkpt lat="49.84211591072380542755126953125" lon="6.88483214937150478363037109375">
        <ele>240.600006103515625</ele>
        <time>2026-04-22T09:50:36.000Z</time>
        <extensions>
          <ns3:TrackPointExtension>
            <ns3:hr>112</ns3:hr>
            <ns3:cad>0</ns3:cad>
          </ns3:TrackPointExtension>
        </extensions>
      </trkpt>
      <trkpt lat="49.8421128094196319580078125" lon="6.88483432866632938385009765625">
        <ele>240.600006103515625</ele>
        <time>2026-04-22T09:50:37.000Z</time>
        <extensions>
          <ns3:TrackPointExtension>
            <ns3:hr>113</ns3:hr>
            <ns3:cad>0</ns3:cad>
          </ns3:TrackPointExtension>
        </extensions>
      </trkpt>
      <trkpt lat="49.84212010167539119720458984375" lon="6.88490808941423892974853515625">
        <ele>240</ele>
        <time>2026-04-22T09:50:43.000Z</time>
        <extensions>
          <ns3:TrackPointExtension>
            <ns3:hr>113</ns3:hr>
            <ns3:cad>0</ns3:cad>
          </ns3:TrackPointExtension>
        </extensions>
      </trkpt>
      <trkpt lat="49.84212420880794525146484375" lon="6.8849279545247554779052734375">
        <ele>239.399993896484375</ele>
        <time>2026-04-22T09:50:45.000Z</time>
        <extensions>
          <ns3:TrackPointExtension>
            <ns3:hr>113</ns3:hr>
            <ns3:cad>0</ns3:cad>
          </ns3:TrackPointExtension>
        </extensions>
      </trkpt>
      <trkpt lat="49.8421267233788967132568359375" lon="6.88498117960989475250244140625">
        <ele>238.1999969482421875</ele>
        <time>2026-04-22T09:50:49.000Z</time>
        <extensions>
          <ns3:TrackPointExtension>
            <ns3:hr>114</ns3:hr>
            <ns3:cad>0</ns3:cad>
          </ns3:TrackPointExtension>
        </extensions>
      </trkpt>
      <trkpt lat="49.84211909584701061248779296875" lon="6.88500397838652133941650390625">
        <ele>237.8000030517578125</ele>
        <time>2026-04-22T09:50:51.000Z</time>
        <extensions>
          <ns3:TrackPointExtension>
            <ns3:hr>114</ns3:hr>
            <ns3:cad>55</ns3:cad>
          </ns3:TrackPointExtension>
        </extensions>
      </trkpt>
      <trkpt lat="49.842122532427310943603515625" lon="6.8850332312285900115966796875">
        <ele>237</ele>
        <time>2026-04-22T09:50:54.000Z</time>
        <extensions>
          <ns3:TrackPointExtension>
            <ns3:hr>114</ns3:hr>
            <ns3:cad>50</ns3:cad>
          </ns3:TrackPointExtension>
        </extensions>
      </trkpt>
      <trkpt lat="49.84212764538824558258056640625" lon="6.885049156844615936279296875">
        <ele>236.8000030517578125</ele>
        <time>2026-04-22T09:50:55.000Z</time>
        <extensions>
          <ns3:TrackPointExtension>
            <ns3:hr>114</ns3:hr>
            <ns3:cad>50</ns3:cad>
          </ns3:TrackPointExtension>
        </extensions>
      </trkpt>
      <trkpt lat="49.84213032759726047515869140625" lon="6.885080002248287200927734375">
        <ele>236.8000030517578125</ele>
        <time>2026-04-22T09:50:58.000Z</time>
        <extensions>
          <ns3:TrackPointExtension>
            <ns3:hr>114</ns3:hr>
            <ns3:cad>0</ns3:cad>
          </ns3:TrackPointExtension>
        </extensions>
      </trkpt>
      <trkpt lat="49.84212814830243587493896484375" lon="6.885134316980838775634765625">
        <ele>235.8000030517578125</ele>
        <time>2026-04-22T09:51:07.000Z</time>
        <extensions>
          <ns3:TrackPointExtension>
            <ns3:hr>115</ns3:hr>
            <ns3:cad>55</ns3:cad>
          </ns3:TrackPointExtension>
        </extensions>
      </trkpt>
      <trkpt lat="49.84212529845535755157470703125" lon="6.88517027534544467926025390625">
        <ele>234.600006103515625</ele>
        <time>2026-04-22T09:51:15.000Z</time>
        <extensions>
          <ns3:TrackPointExtension>
            <ns3:hr>115</ns3:hr>
            <ns3:cad>0</ns3:cad>
          </ns3:TrackPointExtension>
        </extensions>
      </trkpt>
      <trkpt lat="49.8421294055879116058349609375" lon="6.885165832936763763427734375">
        <ele>234.399993896484375</ele>
        <time>2026-04-22T09:51:17.000Z</time>
        <extensions>
          <ns3:TrackPointExtension>
            <ns3:hr>115</ns3:hr>
            <ns3:cad>0</ns3:cad>
          </ns3:TrackPointExtension>
        </extensions>
      </trkpt>
      <trkpt lat="49.84214298427104949951171875" lon="6.88517513684928417205810546875">
        <ele>233.600006103515625</ele>
        <time>2026-04-22T09:51:22.000Z</time>
        <extensions>
          <ns3:TrackPointExtension>
            <ns3:hr>116</ns3:hr>
            <ns3:cad>0</ns3:cad>
          </ns3:TrackPointExtension>
        </extensions>
      </trkpt>
      <trkpt lat="49.84215346165001392364501953125" lon="6.88520648516714572906494140625">
        <ele>232.8000030517578125</ele>
        <time>2026-04-22T09:51:28.000Z</time>
        <extensions>
          <ns3:TrackPointExtension>
            <ns3:hr>116</ns3:hr>
            <ns3:cad>0</ns3:cad>
          </ns3:TrackPointExtension>
        </extensions>
      </trkpt>
      <trkpt lat="49.84215748496353626251220703125" lon="6.88520765863358974456787109375">
        <ele>232.600006103515625</ele>
        <time>2026-04-22T09:51:29.000Z</time>
        <extensions>
          <ns3:TrackPointExtension>
            <ns3:hr>117</ns3:hr>
            <ns3:cad>0</ns3:cad>
          </ns3:TrackPointExtension>
        </extensions>
      </trkpt>
      <trkpt lat="49.8421857319772243499755859375" lon="6.88519625924527645111083984375">
        <ele>231.600006103515625</ele>
        <time>2026-04-22T09:51:37.000Z</time>
        <extensions>
          <ns3:TrackPointExtension>
            <ns3:hr>116</ns3:hr>
            <ns3:cad>65</ns3:cad>
          </ns3:TrackPointExtension>
        </extensions>
      </trkpt>
      <trkpt lat="49.8421921022236347198486328125" lon="6.88521109521389007568359375">
        <ele>230.600006103515625</ele>
        <time>2026-04-22T09:51:43.000Z</time>
        <extensions>
          <ns3:TrackPointExtension>
            <ns3:hr>115</ns3:hr>
            <ns3:cad>79</ns3:cad>
          </ns3:TrackPointExtension>
        </extensions>
      </trkpt>
      <trkpt lat="49.84219470061361789703369140625" lon="6.88522090204060077667236328125">
        <ele>230.1999969482421875</ele>
        <time>2026-04-22T09:51:44.000Z</time>
        <extensions>
          <ns3:TrackPointExtension>
            <ns3:hr>115</ns3:hr>
            <ns3:cad>0</ns3:cad>
          </ns3:TrackPointExtension>
        </extensions>
      </trkpt>
      <trkpt lat="49.8421944491565227508544921875" lon="6.88525074161589145660400390625">
        <ele>229.1999969482421875</ele>
        <time>2026-04-22T09:51:48.000Z</time>
        <extensions>
          <ns3:TrackPointExtension>
            <ns3:hr>115</ns3:hr>
            <ns3:cad>0</ns3:cad>
          </ns3:TrackPointExtension>
        </extensions>
      </trkpt>
      <trkpt lat="49.84219520352780818939208984375" lon="6.885267756879329681396484375">
        <ele>228.8000030517578125</ele>
        <time>2026-04-22T09:51:50.000Z</time>
        <extensions>
          <ns3:TrackPointExtension>
            <ns3:hr>115</ns3:hr>
            <ns3:cad>0</ns3:cad>
          </ns3:TrackPointExtension>
        </extensions>
      </trkpt>
      <trkpt lat="49.8422038368880748748779296875" lon="6.88528795726597309112548828125">
        <ele>228.1999969482421875</ele>
        <time>2026-04-22T09:51:54.000Z</time>
        <extensions>
          <ns3:TrackPointExtension>
            <ns3:hr>113</ns3:hr>
            <ns3:cad>53</ns3:cad>
          </ns3:TrackPointExtension>
        </extensions>
      </trkpt>
      <trkpt lat="49.842204339802265167236328125" lon="6.885304637253284454345703125">
        <ele>227.600006103515625</ele>
        <time>2026-04-22T09:51:57.000Z</time>
        <extensions>
          <ns3:TrackPointExtension>
            <ns3:hr>113</ns3:hr>
            <ns3:cad>0</ns3:cad>
          </ns3:TrackPointExtension>
        </extensions>
      </trkpt>
      <trkpt lat="49.84219788573682308197021484375" lon="6.88530539162456989288330078125">
        <ele>227</ele>
        <time>2026-04-22T09:52:02.000Z</time>
        <extensions>
          <ns3:TrackPointExtension>
            <ns3:hr>113</ns3:hr>
            <ns3:cad>0</ns3:cad>
          </ns3:TrackPointExtension>
        </extensions>
      </trkpt>
      <trkpt lat="49.842198304831981658935546875" lon="6.8853016197681427001953125">
        <ele>226.399993896484375</ele>
        <time>2026-04-22T09:52:04.000Z</time>
        <extensions>
          <ns3:TrackPointExtension>
            <ns3:hr>113</ns3:hr>
            <ns3:cad>0</ns3:cad>
          </ns3:TrackPointExtension>
        </extensions>
      </trkpt>
      <trkpt lat="49.8422138951718807220458984375" lon="6.885284520685672760009765625">
        <ele>225.8000030517578125</ele>
        <time>2026-04-22T09:52:07.000Z</time>
        <extensions>
          <ns3:TrackPointExtension>
            <ns3:hr>113</ns3:hr>
            <ns3:cad>0</ns3:cad>
          </ns3:TrackPointExtension>
        </extensions>
      </trkpt>
      <trkpt lat="49.84222169034183025360107421875" lon="6.88530606217682361602783203125">
        <ele>225.1999969482421875</ele>
        <time>2026-04-22T09:52:10.000Z</time>
        <extensions>
          <ns3:TrackPointExtension>
            <ns3:hr>112</ns3:hr>
            <ns3:cad>55</ns3:cad>
          </ns3:TrackPointExtension>
        </extensions>
      </trkpt>
      <trkpt lat="49.84223409555852413177490234375" lon="6.8853383325040340423583984375">
        <ele>224.8000030517578125</ele>
        <time>2026-04-22T09:52:13.000Z</time>
        <extensions>
          <ns3:TrackPointExtension>
            <ns3:hr>112</ns3:hr>
            <ns3:cad>49</ns3:cad>
          </ns3:TrackPointExtension>
        </extensions>
      </trkpt>
      <trkpt lat="49.842250607907772064208984375" lon="6.8853953294456005096435546875">
        <ele>224.1999969482421875</ele>
        <time>2026-04-22T09:52:18.000Z</time>
        <extensions>
          <ns3:TrackPointExtension>
            <ns3:hr>113</ns3:hr>
            <ns3:cad>0</ns3:cad>
          </ns3:TrackPointExtension>
        </extensions>
      </trkpt>
      <trkpt lat="49.8422549664974212646484375" lon="6.88542458228766918182373046875">
        <ele>223.8000030517578125</ele>
        <time>2026-04-22T09:52:20.000Z</time>
        <extensions>
          <ns3:TrackPointExtension>
            <ns3:hr>113</ns3:hr>
            <ns3:cad>0</ns3:cad>
          </ns3:TrackPointExtension>
        </extensions>
      </trkpt>
      <trkpt lat="49.842284135520458221435546875" lon="6.88553002662956714630126953125">
        <ele>222.600006103515625</ele>
        <time>2026-04-22T09:52:27.000Z</time>
        <extensions>
          <ns3:TrackPointExtension>
            <ns3:hr>113</ns3:hr>
            <ns3:cad>0</ns3:cad>
          </ns3:TrackPointExtension>
        </extensions>
      </trkpt>
      <trkpt lat="49.84224935062229633331298828125" lon="6.88566849566996097564697265625">
        <ele>221.600006103515625</ele>
        <time>2026-04-22T09:52:35.000Z</time>
        <extensions>
          <ns3:TrackPointExtension>
            <ns3:hr>112</ns3:hr>
            <ns3:cad>0</ns3:cad>
          </ns3:TrackPointExtension>
        </extensions>
      </trkpt>
      <trkpt lat="49.84228673391044139862060546875" lon="6.8856652267277240753173828125">
        <ele>220.600006103515625</ele>
        <time>2026-04-22T09:52:41.000Z</time>
        <extensions>
          <ns3:TrackPointExtension>
            <ns3:hr>110</ns3:hr>
            <ns3:cad>51</ns3:cad>
          </ns3:TrackPointExtension>
        </extensions>
      </trkpt>
      <trkpt lat="49.84229075722396373748779296875" lon="6.88565810211002826690673828125">
        <ele>220.399993896484375</ele>
        <time>2026-04-22T09:52:42.000Z</time>
        <extensions>
          <ns3:TrackPointExtension>
            <ns3:hr>110</ns3:hr>
            <ns3:cad>0</ns3:cad>
          </ns3:TrackPointExtension>
        </extensions>
      </trkpt>
      <trkpt lat="49.8423268832266330718994140625" lon="6.8855978362262248992919921875">
        <ele>219.8000030517578125</ele>
        <time>2026-04-22T09:52:47.000Z</time>
        <extensions>
          <ns3:TrackPointExtension>
            <ns3:hr>111</ns3:hr>
            <ns3:cad>0</ns3:cad>
          </ns3:TrackPointExtension>
        </extensions>
      </trkpt>
      <trkpt lat="49.84233451075851917266845703125" lon="6.88558501191437244415283203125">
        <ele>219.600006103515625</ele>
        <time>2026-04-22T09:52:51.000Z</time>
        <extensions>
          <ns3:TrackPointExtension>
            <ns3:hr>110</ns3:hr>
            <ns3:cad>0</ns3:cad>
          </ns3:TrackPointExtension>
        </extensions>
      </trkpt>
      <trkpt lat="49.842330403625965118408203125" lon="6.8855859339237213134765625">
        <ele>219.399993896484375</ele>
        <time>2026-04-22T09:52:52.000Z</time>
        <extensions>
          <ns3:TrackPointExtension>
            <ns3:hr>110</ns3:hr>
            <ns3:cad>0</ns3:cad>
          </ns3:TrackPointExtension>
        </extensions>
      </trkpt>
      <trkpt lat="49.8423329181969165802001953125" lon="6.885605715215206146240234375">
        <ele>219</ele>
        <time>2026-04-22T09:52:55.000Z</time>
        <extensions>
          <ns3:TrackPointExtension>
            <ns3:hr>109</ns3:hr>
            <ns3:cad>0</ns3:cad>
          </ns3:TrackPointExtension>
        </extensions>
      </trkpt>
      <trkpt lat="49.84231757931411266326904296875" lon="6.88566816039383411407470703125">
        <ele>218.399993896484375</ele>
        <time>2026-04-22T09:53:00.000Z</time>
        <extensions>
          <ns3:TrackPointExtension>
            <ns3:hr>111</ns3:hr>
            <ns3:cad>51</ns3:cad>
          </ns3:TrackPointExtension>
        </extensions>
      </trkpt>
      <trkpt lat="49.84232495538890361785888671875" lon="6.88575482927262783050537109375">
        <ele>217.8000030517578125</ele>
        <time>2026-04-22T09:53:05.000Z</time>
        <extensions>
          <ns3:TrackPointExtension>
            <ns3:hr>113</ns3:hr>
            <ns3:cad>53</ns3:cad>
          </ns3:TrackPointExtension>
        </extensions>
      </trkpt>
      <trkpt lat="49.84231707639992237091064453125" lon="6.8857517279684543609619140625">
        <ele>217.1999969482421875</ele>
        <time>2026-04-22T09:53:08.000Z</time>
        <extensions>
          <ns3:TrackPointExtension>
            <ns3:hr>112</ns3:hr>
            <ns3:cad>53</ns3:cad>
          </ns3:TrackPointExtension>
        </extensions>
      </trkpt>
      <trkpt lat="49.8423258773982524871826171875" lon="6.8857349641621112823486328125">
        <ele>216.600006103515625</ele>
        <time>2026-04-22T09:53:10.000Z</time>
        <extensions>
          <ns3:TrackPointExtension>
            <ns3:hr>112</ns3:hr>
            <ns3:cad>53</ns3:cad>
          </ns3:TrackPointExtension>
        </extensions>
      </trkpt>
      <trkpt lat="49.84233367256820201873779296875" lon="6.885726749897003173828125">
        <ele>216</ele>
        <time>2026-04-22T09:53:15.000Z</time>
        <extensions>
          <ns3:TrackPointExtension>
            <ns3:hr>112</ns3:hr>
            <ns3:cad>0</ns3:cad>
          </ns3:TrackPointExtension>
        </extensions>
      </trkpt>
      <trkpt lat="49.842358566820621490478515625" lon="6.88574217259883880615234375">
        <ele>216</ele>
        <time>2026-04-22T09:53:16.000Z</time>
        <extensions>
          <ns3:TrackPointExtension>
            <ns3:hr>112</ns3:hr>
            <ns3:cad>0</ns3:cad>
          </ns3:TrackPointExtension>
        </extensions>
      </trkpt>
      <trkpt lat="49.8423939384520053863525390625" lon="6.8857817351818084716796875">
        <ele>215.600006103515625</ele>
        <time>2026-04-22T09:53:21.000Z</time>
        <extensions>
          <ns3:TrackPointExtension>
            <ns3:hr>111</ns3:hr>
            <ns3:cad>0</ns3:cad>
          </ns3:TrackPointExtension>
        </extensions>
      </trkpt>
      <trkpt lat="49.84238798730075359344482421875" lon="6.88584082759916782379150390625">
        <ele>215</ele>
        <time>2026-04-22T09:53:27.000Z</time>
        <extensions>
          <ns3:TrackPointExtension>
            <ns3:hr>112</ns3:hr>
            <ns3:cad>0</ns3:cad>
          </ns3:TrackPointExtension>
        </extensions>
      </trkpt>
      <trkpt lat="49.84238597564399242401123046875" lon="6.88584669493138790130615234375">
        <ele>215</ele>
        <time>2026-04-22T09:53:28.000Z</time>
        <extensions>
          <ns3:TrackPointExtension>
            <ns3:hr>112</ns3:hr>
            <ns3:cad>0</ns3:cad>
          </ns3:TrackPointExtension>
        </extensions>
      </trkpt>
      <trkpt lat="49.8423838801681995391845703125" lon="6.88588944263756275177001953125">
        <ele>214.399993896484375</ele>
        <time>2026-04-22T09:53:33.000Z</time>
        <extensions>
          <ns3:TrackPointExtension>
            <ns3:hr>111</ns3:hr>
            <ns3:cad>51</ns3:cad>
          </ns3:TrackPointExtension>
        </extensions>
      </trkpt>
      <trkpt lat="49.84237189404666423797607421875" lon="6.88591785728931427001953125">
        <ele>213.8000030517578125</ele>
        <time>2026-04-22T09:53:36.000Z</time>
        <extensions>
          <ns3:TrackPointExtension>
            <ns3:hr>111</ns3:hr>
            <ns3:cad>0</ns3:cad>
          </ns3:TrackPointExtension>
        </extensions>
      </trkpt>
      <trkpt lat="49.842352531850337982177734375" lon="6.88591056503355503082275390625">
        <ele>213.1999969482421875</ele>
        <time>2026-04-22T09:53:42.000Z</time>
        <extensions>
          <ns3:TrackPointExtension>
            <ns3:hr>110</ns3:hr>
            <ns3:cad>0</ns3:cad>
          </ns3:TrackPointExtension>
        </extensions>
      </trkpt>
      <trkpt lat="49.84236921183764934539794921875" lon="6.8858965672552585601806640625">
        <ele>212.600006103515625</ele>
        <time>2026-04-22T09:53:45.000Z</time>
        <extensions>
          <ns3:TrackPointExtension>
            <ns3:hr>110</ns3:hr>
            <ns3:cad>0</ns3:cad>
          </ns3:TrackPointExtension>
        </extensions>
      </trkpt>
      <trkpt lat="49.84237759374082088470458984375" lon="6.88588642515242099761962890625">
        <ele>212</ele>
        <time>2026-04-22T09:53:48.000Z</time>
        <extensions>
          <ns3:TrackPointExtension>
            <ns3:hr>111</ns3:hr>
            <ns3:cad>0</ns3:cad>
          </ns3:TrackPointExtension>
        </extensions>
      </trkpt>
      <trkpt lat="49.84239854849874973297119140625" lon="6.88588743098080158233642578125">
        <ele>211.600006103515625</ele>
        <time>2026-04-22T09:53:50.000Z</time>
        <extensions>
          <ns3:TrackPointExtension>
            <ns3:hr>111</ns3:hr>
            <ns3:cad>0</ns3:cad>
          </ns3:TrackPointExtension>
        </extensions>
      </trkpt>
      <trkpt lat="49.84241447411477565765380859375" lon="6.88586262054741382598876953125">
        <ele>210.399993896484375</ele>
        <time>2026-04-22T09:53:56.000Z</time>
        <extensions>
          <ns3:TrackPointExtension>
            <ns3:hr>109</ns3:hr>
            <ns3:cad>0</ns3:cad>
          </ns3:TrackPointExtension>
        </extensions>
      </trkpt>
      <trkpt lat="49.842435680329799652099609375" lon="6.88591995276510715484619140625">
        <ele>209.399993896484375</ele>
        <time>2026-04-22T09:54:02.000Z</time>
        <extensions>
          <ns3:TrackPointExtension>
            <ns3:hr>109</ns3:hr>
            <ns3:cad>0</ns3:cad>
          </ns3:TrackPointExtension>
        </extensions>
      </trkpt>
      <trkpt lat="49.84243358485400676727294921875" lon="6.885930597782135009765625">
        <ele>209.1999969482421875</ele>
        <time>2026-04-22T09:54:03.000Z</time>
        <extensions>
          <ns3:TrackPointExtension>
            <ns3:hr>109</ns3:hr>
            <ns3:cad>0</ns3:cad>
          </ns3:TrackPointExtension>
        </extensions>
      </trkpt>
      <trkpt lat="49.8424170725047588348388671875" lon="6.885988600552082061767578125">
        <ele>208.399993896484375</ele>
        <time>2026-04-22T09:54:10.000Z</time>
        <extensions>
          <ns3:TrackPointExtension>
            <ns3:hr>111</ns3:hr>
            <ns3:cad>0</ns3:cad>
          </ns3:TrackPointExtension>
        </extensions>
      </trkpt>
      <trkpt lat="49.842420257627964019775390625" lon="6.8859874270856380462646484375">
        <ele>208.1999969482421875</ele>
        <time>2026-04-22T09:54:11.000Z</time>
        <extensions>
          <ns3:TrackPointExtension>
            <ns3:hr>111</ns3:hr>
            <ns3:cad>0</ns3:cad>
          </ns3:TrackPointExtension>
        </extensions>
      </trkpt>
      <trkpt lat="49.8424626700580120086669921875" lon="6.88600905239582061767578125">
        <ele>207</ele>
        <time>2026-04-22T09:54:16.000Z</time>
        <extensions>
          <ns3:TrackPointExtension>
            <ns3:hr>111</ns3:hr>
            <ns3:cad>0</ns3:cad>
          </ns3:TrackPointExtension>
        </extensions>
      </trkpt>
      <trkpt lat="49.84245336614549160003662109375" lon="6.88611173070967197418212890625">
        <ele>206</ele>
        <time>2026-04-22T09:54:21.000Z</time>
        <extensions>
          <ns3:TrackPointExtension>
            <ns3:hr>111</ns3:hr>
            <ns3:cad>52</ns3:cad>
          </ns3:TrackPointExtension>
        </extensions>
      </trkpt>
      <trkpt lat="49.84244733117520809173583984375" lon="6.88611893914639949798583984375">
        <ele>206</ele>
        <time>2026-04-22T09:54:22.000Z</time>
        <extensions>
          <ns3:TrackPointExtension>
            <ns3:hr>111</ns3:hr>
            <ns3:cad>52</ns3:cad>
          </ns3:TrackPointExtension>
        </extensions>
      </trkpt>
      <trkpt lat="49.84247599728405475616455078125" lon="6.8861765228211879730224609375">
        <ele>205</ele>
        <time>2026-04-22T09:54:28.000Z</time>
        <extensions>
          <ns3:TrackPointExtension>
            <ns3:hr>111</ns3:hr>
            <ns3:cad>0</ns3:cad>
          </ns3:TrackPointExtension>
        </extensions>
      </trkpt>
      <trkpt lat="49.84247046522796154022216796875" lon="6.88618498854339122772216796875">
        <ele>204.8000030517578125</ele>
        <time>2026-04-22T09:54:29.000Z</time>
        <extensions>
          <ns3:TrackPointExtension>
            <ns3:hr>111</ns3:hr>
            <ns3:cad>0</ns3:cad>
          </ns3:TrackPointExtension>
        </extensions>
      </trkpt>
      <trkpt lat="49.842503406107425689697265625" lon="6.8862030096352100372314453125">
        <ele>204.399993896484375</ele>
        <time>2026-04-22T09:54:35.000Z</time>
        <extensions>
          <ns3:TrackPointExtension>
            <ns3:hr>111</ns3:hr>
            <ns3:cad>0</ns3:cad>
          </ns3:TrackPointExtension>
        </extensions>
      </trkpt>
      <trkpt lat="49.8425324074923992156982421875" lon="6.88619052059948444366455078125">
        <ele>203.8000030517578125</ele>
        <time>2026-04-22T09:54:38.000Z</time>
        <extensions>
          <ns3:TrackPointExtension>
            <ns3:hr>112</ns3:hr>
            <ns3:cad>0</ns3:cad>
          </ns3:TrackPointExtension>
        </extensions>
      </trkpt>
      <trkpt lat="49.8425521887838840484619140625" lon="6.8861681409180164337158203125">
        <ele>203</ele>
        <time>2026-04-22T09:54:43.000Z</time>
        <extensions>
          <ns3:TrackPointExtension>
            <ns3:hr>112</ns3:hr>
            <ns3:cad>0</ns3:cad>
          </ns3:TrackPointExtension>
        </extensions>
      </trkpt>
      <trkpt lat="49.84255562536418437957763671875" lon="6.886173002421855926513671875">
        <ele>202.8000030517578125</ele>
        <time>2026-04-22T09:54:44.000Z</time>
        <extensions>
          <ns3:TrackPointExtension>
            <ns3:hr>112</ns3:hr>
            <ns3:cad>0</ns3:cad>
          </ns3:TrackPointExtension>
        </extensions>
      </trkpt>
      <trkpt lat="49.84258797951042652130126953125" lon="6.88621382229030132293701171875">
        <ele>201.8000030517578125</ele>
        <time>2026-04-22T09:54:50.000Z</time>
        <extensions>
          <ns3:TrackPointExtension>
            <ns3:hr>111</ns3:hr>
            <ns3:cad>53</ns3:cad>
          </ns3:TrackPointExtension>
        </extensions>
      </trkpt>
      <trkpt lat="49.842605330049991607666015625" lon="6.88628322444856166839599609375">
        <ele>200.8000030517578125</ele>
        <time>2026-04-22T09:54:55.000Z</time>
        <extensions>
          <ns3:TrackPointExtension>
            <ns3:hr>112</ns3:hr>
            <ns3:cad>0</ns3:cad>
          </ns3:TrackPointExtension>
        </extensions>
      </trkpt>
      <trkpt lat="49.84261572360992431640625" lon="6.88630837015807628631591796875">
        <ele>200.399993896484375</ele>
        <time>2026-04-22T09:54:58.000Z</time>
        <extensions>
          <ns3:TrackPointExtension>
            <ns3:hr>112</ns3:hr>
            <ns3:cad>0</ns3:cad>
          </ns3:TrackPointExtension>
        </extensions>
      </trkpt>
      <trkpt lat="49.84264732338488101959228515625" lon="6.88624785281717777252197265625">
        <ele>200.600006103515625</ele>
        <time>2026-04-22T09:55:03.000Z</time>
        <extensions>
          <ns3:TrackPointExtension>
            <ns3:hr>113</ns3:hr>
            <ns3:cad>0</ns3:cad>
          </ns3:TrackPointExtension>
        </extensions>
      </trkpt>
      <trkpt lat="49.8427087627351284027099609375" lon="6.8862564861774444580078125">
        <ele>200.399993896484375</ele>
        <time>2026-04-22T09:55:10.000Z</time>
        <extensions>
          <ns3:TrackPointExtension>
            <ns3:hr>113</ns3:hr>
            <ns3:cad>0</ns3:cad>
          </ns3:TrackPointExtension>
        </extensions>
      </trkpt>
      <trkpt lat="49.84275544993579387664794921875" lon="6.88626696355640888214111328125">
        <ele>200.600006103515625</ele>
        <time>2026-04-22T09:55:15.000Z</time>
        <extensions>
          <ns3:TrackPointExtension>
            <ns3:hr>113</ns3:hr>
            <ns3:cad>55</ns3:cad>
          </ns3:TrackPointExtension>
        </extensions>
      </trkpt>
      <trkpt lat="49.84276718460023403167724609375" lon="6.8862519599497318267822265625">
        <ele>200.600006103515625</ele>
        <time>2026-04-22T09:55:17.000Z</time>
        <extensions>
          <ns3:TrackPointExtension>
            <ns3:hr>113</ns3:hr>
            <ns3:cad>55</ns3:cad>
          </ns3:TrackPointExtension>
        </extensions>
      </trkpt>
      <trkpt lat="49.8427728004753589630126953125" lon="6.88623704016208648681640625">
        <ele>200.600006103515625</ele>
        <time>2026-04-22T09:55:18.000Z</time>
        <extensions>
          <ns3:TrackPointExtension>
            <ns3:hr>113</ns3:hr>
            <ns3:cad>55</ns3:cad>
          </ns3:TrackPointExtension>
        </extensions>
      </trkpt>
      <trkpt lat="49.84287229366600513458251953125" lon="6.8861738406121730804443359375">
        <ele>200.600006103515625</ele>
        <time>2026-04-22T09:55:27.000Z</time>
        <extensions>
          <ns3:TrackPointExtension>
            <ns3:hr>114</ns3:hr>
            <ns3:cad>53</ns3:cad>
          </ns3:TrackPointExtension>
        </extensions>
      </trkpt>
      <trkpt lat="49.8428787477314472198486328125" lon="6.88615917228162288665771484375">
        <ele>200.600006103515625</ele>
        <time>2026-04-22T09:55:28.000Z</time>
        <extensions>
          <ns3:TrackPointExtension>
            <ns3:hr>114</ns3:hr>
            <ns3:cad>53</ns3:cad>
          </ns3:TrackPointExtension>
        </extensions>
      </trkpt>
      <trkpt lat="49.842935912311077117919921875" lon="6.8860875070095062255859375">
        <ele>200.399993896484375</ele>
        <time>2026-04-22T09:55:34.000Z</time>
        <extensions>
          <ns3:TrackPointExtension>
            <ns3:hr>115</ns3:hr>
            <ns3:cad>55</ns3:cad>
          </ns3:TrackPointExtension>
        </extensions>
      </trkpt>
      <trkpt lat="49.84295980073511600494384765625" lon="6.88607074320316314697265625">
        <ele>200.399993896484375</ele>
        <time>2026-04-22T09:55:36.000Z</time>
        <extensions>
          <ns3:TrackPointExtension>
            <ns3:hr>115</ns3:hr>
            <ns3:cad>55</ns3:cad>
          </ns3:TrackPointExtension>
        </extensions>
      </trkpt>
      <trkpt lat="49.8430001176893711090087890625" lon="6.88600838184356689453125">
        <ele>200.399993896484375</ele>
        <time>2026-04-22T09:55:41.000Z</time>
        <extensions>
          <ns3:TrackPointExtension>
            <ns3:hr>116</ns3:hr>
            <ns3:cad>55</ns3:cad>
          </ns3:TrackPointExtension>
        </extensions>
      </trkpt>
      <trkpt lat="49.84304563142359256744384765625" lon="6.8859230540692806243896484375">
        <ele>200.399993896484375</ele>
        <time>2026-04-22T09:55:48.000Z</time>
        <extensions>
          <ns3:TrackPointExtension>
            <ns3:hr>117</ns3:hr>
            <ns3:cad>56</ns3:cad>
          </ns3:TrackPointExtension>
        </extensions>
      </trkpt>
      <trkpt lat="49.84312961809337139129638671875" lon="6.88578433357179164886474609375">
        <ele>200.1999969482421875</ele>
        <time>2026-04-22T09:55:56.000Z</time>
        <extensions>
          <ns3:TrackPointExtension>
            <ns3:hr>116</ns3:hr>
            <ns3:cad>55</ns3:cad>
          </ns3:TrackPointExtension>
        </extensions>
      </trkpt>
      <trkpt lat="49.84325316734611988067626953125" lon="6.8856779672205448150634765625">
        <ele>199.8000030517578125</ele>
        <time>2026-04-22T09:56:06.000Z</time>
        <extensions>
          <ns3:TrackPointExtension>
            <ns3:hr>115</ns3:hr>
            <ns3:cad>53</ns3:cad>
          </ns3:TrackPointExtension>
        </extensions>
      </trkpt>
      <trkpt lat="49.84326423145830631256103515625" lon="6.88564804382622241973876953125">
        <ele>199.8000030517578125</ele>
        <time>2026-04-22T09:56:09.000Z</time>
        <extensions>
          <ns3:TrackPointExtension>
            <ns3:hr>115</ns3:hr>
            <ns3:cad>53</ns3:cad>
          </ns3:TrackPointExtension>
        </extensions>
      </trkpt>
      <trkpt lat="49.84329633414745330810546875" lon="6.885623149573802947998046875">
        <ele>199.8000030517578125</ele>
        <time>2026-04-22T09:56:12.000Z</time>
        <extensions>
          <ns3:TrackPointExtension>
            <ns3:hr>116</ns3:hr>
            <ns3:cad>0</ns3:cad>
          </ns3:TrackPointExtension>
        </extensions>
      </trkpt>
      <trkpt lat="49.8433276824653148651123046875" lon="6.88559733331203460693359375">
        <ele>199.8000030517578125</ele>
        <time>2026-04-22T09:56:15.000Z</time>
        <extensions>
          <ns3:TrackPointExtension>
            <ns3:hr>116</ns3:hr>
            <ns3:cad>0</ns3:cad>
          </ns3:TrackPointExtension>
        </extensions>
      </trkpt>
      <trkpt lat="49.84335190616548061370849609375" lon="6.885544359683990478515625">
        <ele>199.600006103515625</ele>
        <time>2026-04-22T09:56:19.000Z</time>
        <extensions>
          <ns3:TrackPointExtension>
            <ns3:hr>117</ns3:hr>
            <ns3:cad>55</ns3:cad>
          </ns3:TrackPointExtension>
        </extensions>
      </trkpt>
      <trkpt lat="49.8434399999678134918212890625" lon="6.8854871951043605804443359375">
        <ele>199.600006103515625</ele>
        <time>2026-04-22T09:56:27.000Z</time>
        <extensions>
          <ns3:TrackPointExtension>
            <ns3:hr>117</ns3:hr>
            <ns3:cad>0</ns3:cad>
          </ns3:TrackPointExtension>
        </extensions>
      </trkpt>
      <trkpt lat="49.84352323226630687713623046875" lon="6.88541402108967304229736328125">
        <ele>199.399993896484375</ele>
        <time>2026-04-22T09:56:35.000Z</time>
        <extensions>
          <ns3:TrackPointExtension>
            <ns3:hr>116</ns3:hr>
            <ns3:cad>54</ns3:cad>
          </ns3:TrackPointExtension>
        </extensions>
      </trkpt>
      <trkpt lat="49.84353228472173213958740234375" lon="6.88540647737681865692138671875">
        <ele>199.399993896484375</ele>
        <time>2026-04-22T09:56:36.000Z</time>
        <extensions>
          <ns3:TrackPointExtension>
            <ns3:hr>116</ns3:hr>
            <ns3:cad>54</ns3:cad>
          </ns3:TrackPointExtension>
        </extensions>
      </trkpt>
      <trkpt lat="49.84358006156980991363525390625" lon="6.88534897752106189727783203125">
        <ele>199.1999969482421875</ele>
        <time>2026-04-22T09:56:41.000Z</time>
        <extensions>
          <ns3:TrackPointExtension>
            <ns3:hr>116</ns3:hr>
            <ns3:cad>0</ns3:cad>
          </ns3:TrackPointExtension>
        </extensions>
      </trkpt>
      <trkpt lat="49.8436911217868328094482421875" lon="6.885247640311717987060546875">
        <ele>198.8000030517578125</ele>
        <time>2026-04-22T09:56:51.000Z</time>
        <extensions>
          <ns3:TrackPointExtension>
            <ns3:hr>116</ns3:hr>
            <ns3:cad>56</ns3:cad>
          </ns3:TrackPointExtension>
        </extensions>
      </trkpt>
      <trkpt lat="49.84373378567397594451904296875" lon="6.88518569804728031158447265625">
        <ele>198.8000030517578125</ele>
        <time>2026-04-22T09:56:56.000Z</time>
        <extensions>
          <ns3:TrackPointExtension>
            <ns3:hr>116</ns3:hr>
            <ns3:cad>0</ns3:cad>
          </ns3:TrackPointExtension>
        </extensions>
      </trkpt>
      <trkpt lat="49.84379547648131847381591796875" lon="6.88513465225696563720703125">
        <ele>198.8000030517578125</ele>
        <time>2026-04-22T09:57:01.000Z</time>
        <extensions>
          <ns3:TrackPointExtension>
            <ns3:hr>116</ns3:hr>
            <ns3:cad>55</ns3:cad>
          </ns3:TrackPointExtension>
        </extensions>
      </trkpt>
      <trkpt lat="49.843883402645587921142578125" lon="6.88502090983092784881591796875">
        <ele>198.399993896484375</ele>
        <time>2026-04-22T09:57:11.000Z</time>
        <extensions>
          <ns3:TrackPointExtension>
            <ns3:hr>116</ns3:hr>
            <ns3:cad>0</ns3:cad>
          </ns3:TrackPointExtension>
        </extensions>
      </trkpt>
      <trkpt lat="49.8439647071063518524169921875" lon="6.8849582970142364501953125">
        <ele>197.600006103515625</ele>
        <time>2026-04-22T09:57:19.000Z</time>
        <extensions>
          <ns3:TrackPointExtension>
            <ns3:hr>116</ns3:hr>
            <ns3:cad>55</ns3:cad>
          </ns3:TrackPointExtension>
        </extensions>
      </trkpt>
      <trkpt lat="49.84405430965125560760498046875" lon="6.884927116334438323974609375">
        <ele>197.600006103515625</ele>
        <time>2026-04-22T09:57:27.000Z</time>
        <extensions>
          <ns3:TrackPointExtension>
            <ns3:hr>116</ns3:hr>
            <ns3:cad>55</ns3:cad>
          </ns3:TrackPointExtension>
        </extensions>
      </trkpt>
      <trkpt lat="49.84416428022086620330810546875" lon="6.884913034737110137939453125">
        <ele>197.600006103515625</ele>
        <time>2026-04-22T09:57:36.000Z</time>
        <extensions>
          <ns3:TrackPointExtension>
            <ns3:hr>115</ns3:hr>
            <ns3:cad>57</ns3:cad>
          </ns3:TrackPointExtension>
        </extensions>
      </trkpt>
      <trkpt lat="49.84425229020416736602783203125" lon="6.88488394953310489654541015625">
        <ele>197.1999969482421875</ele>
        <time>2026-04-22T09:57:44.000Z</time>
        <extensions>
          <ns3:TrackPointExtension>
            <ns3:hr>115</ns3:hr>
            <ns3:cad>54</ns3:cad>
          </ns3:TrackPointExtension>
        </extensions>
      </trkpt>
      <trkpt lat="49.844357483088970184326171875" lon="6.88483801670372486114501953125">
        <ele>197.1999969482421875</ele>
        <time>2026-04-22T09:57:53.000Z</time>
        <extensions>
          <ns3:TrackPointExtension>
            <ns3:hr>114</ns3:hr>
            <ns3:cad>0</ns3:cad>
          </ns3:TrackPointExtension>
        </extensions>
      </trkpt>
      <trkpt lat="49.84444943256676197052001953125" lon="6.8847244419157505035400390625">
        <ele>197.1999969482421875</ele>
        <time>2026-04-22T09:58:02.000Z</time>
        <extensions>
          <ns3:TrackPointExtension>
            <ns3:hr>114</ns3:hr>
            <ns3:cad>55</ns3:cad>
          </ns3:TrackPointExtension>
        </extensions>
      </trkpt>
      <trkpt lat="49.84455185942351818084716796875" lon="6.88467926345765590667724609375">
        <ele>196.8000030517578125</ele>
        <time>2026-04-22T09:58:11.000Z</time>
        <extensions>
          <ns3:TrackPointExtension>
            <ns3:hr>116</ns3:hr>
            <ns3:cad>0</ns3:cad>
          </ns3:TrackPointExtension>
        </extensions>
      </trkpt>
      <trkpt lat="49.84464548528194427490234375" lon="6.88461824320256710052490234375">
        <ele>196.600006103515625</ele>
        <time>2026-04-22T09:58:20.000Z</time>
        <extensions>
          <ns3:TrackPointExtension>
            <ns3:hr>116</ns3:hr>
            <ns3:cad>0</ns3:cad>
          </ns3:TrackPointExtension>
        </extensions>
      </trkpt>
      <trkpt lat="49.8447521030902862548828125" lon="6.8845390342175960540771484375">
        <ele>196.600006103515625</ele>
        <time>2026-04-22T09:58:30.000Z</time>
        <extensions>
          <ns3:TrackPointExtension>
            <ns3:hr>115</ns3:hr>
            <ns3:cad>55</ns3:cad>
          </ns3:TrackPointExtension>
        </extensions>
      </trkpt>
      <trkpt lat="49.844821505248546600341796875" lon="6.884449683129787445068359375">
        <ele>196</ele>
        <time>2026-04-22T09:58:39.000Z</time>
        <extensions>
          <ns3:TrackPointExtension>
            <ns3:hr>116</ns3:hr>
            <ns3:cad>0</ns3:cad>
          </ns3:TrackPointExtension>
        </extensions>
      </trkpt>
      <trkpt lat="49.84484606422483921051025390625" lon="6.88440316356718540191650390625">
        <ele>195.8000030517578125</ele>
        <time>2026-04-22T09:58:43.000Z</time>
        <extensions>
          <ns3:TrackPointExtension>
            <ns3:hr>115</ns3:hr>
            <ns3:cad>54</ns3:cad>
          </ns3:TrackPointExtension>
        </extensions>
      </trkpt>
      <trkpt lat="49.8448498360812664031982421875" lon="6.8844012357294559478759765625">
        <ele>196</ele>
        <time>2026-04-22T09:58:46.000Z</time>
        <extensions>
          <ns3:TrackPointExtension>
            <ns3:hr>113</ns3:hr>
            <ns3:cad>0</ns3:cad>
          </ns3:TrackPointExtension>
        </extensions>
      </trkpt>
      <trkpt lat="49.8448545299470424652099609375" lon="6.88438958488404750823974609375">
        <ele>196.1999969482421875</ele>
        <time>2026-04-22T09:58:53.000Z</time>
        <extensions>
          <ns3:TrackPointExtension>
            <ns3:hr>113</ns3:hr>
            <ns3:cad>0</ns3:cad>
          </ns3:TrackPointExtension>
        </extensions>
      </trkpt>
      <trkpt lat="49.844848997890949249267578125" lon="6.88438874669373035430908203125">
        <ele>195.8000030517578125</ele>
        <time>2026-04-22T09:59:00.000Z</time>
        <extensions>
          <ns3:TrackPointExtension>
            <ns3:hr>113</ns3:hr>
            <ns3:cad>0</ns3:cad>
          </ns3:TrackPointExtension>
        </extensions>
      </trkpt>
      <trkpt lat="49.84490591101348400115966796875" lon="6.88436754047870635986328125">
        <ele>195.8000030517578125</ele>
        <time>2026-04-22T09:59:07.000Z</time>
        <extensions>
          <ns3:TrackPointExtension>
            <ns3:hr>115</ns3:hr>
            <ns3:cad>51</ns3:cad>
          </ns3:TrackPointExtension>
        </extensions>
      </trkpt>
      <trkpt lat="49.84501898288726806640625" lon="6.88430576585233211517333984375">
        <ele>196.399993896484375</ele>
        <time>2026-04-22T09:59:16.000Z</time>
        <extensions>
          <ns3:TrackPointExtension>
            <ns3:hr>115</ns3:hr>
            <ns3:cad>0</ns3:cad>
          </ns3:TrackPointExtension>
        </extensions>
      </trkpt>
      <trkpt lat="49.8451530933380126953125" lon="6.88426293432712554931640625">
        <ele>196.8000030517578125</ele>
        <time>2026-04-22T09:59:27.000Z</time>
        <extensions>
          <ns3:TrackPointExtension>
            <ns3:hr>115</ns3:hr>
            <ns3:cad>0</ns3:cad>
          </ns3:TrackPointExtension>
        </extensions>
      </trkpt>
      <trkpt lat="49.84524034895002841949462890625" lon="6.8842134810984134674072265625">
        <ele>197.399993896484375</ele>
        <time>2026-04-22T09:59:35.000Z</time>
        <extensions>
          <ns3:TrackPointExtension>
            <ns3:hr>117</ns3:hr>
            <ns3:cad>0</ns3:cad>
          </ns3:TrackPointExtension>
        </extensions>
      </trkpt>
      <trkpt lat="49.84528326429426670074462890625" lon="6.88418908976018428802490234375">
        <ele>197.8000030517578125</ele>
        <time>2026-04-22T09:59:39.000Z</time>
        <extensions>
          <ns3:TrackPointExtension>
            <ns3:hr>117</ns3:hr>
            <ns3:cad>0</ns3:cad>
          </ns3:TrackPointExtension>
        </extensions>
      </trkpt>
      <trkpt lat="49.84532802365720272064208984375" lon="6.88416863791644573211669921875">
        <ele>198.600006103515625</ele>
        <time>2026-04-22T09:59:44.000Z</time>
        <extensions>
          <ns3:TrackPointExtension>
            <ns3:hr>119</ns3:hr>
            <ns3:cad>43</ns3:cad>
          </ns3:TrackPointExtension>
        </extensions>
      </trkpt>
      <trkpt lat="49.84533942304551601409912109375" lon="6.884164698421955108642578125">
        <ele>198.8000030517578125</ele>
        <time>2026-04-22T09:59:45.000Z</time>
        <extensions>
          <ns3:TrackPointExtension>
            <ns3:hr>118</ns3:hr>
            <ns3:cad>43</ns3:cad>
          </ns3:TrackPointExtension>
        </extensions>
      </trkpt>
      <trkpt lat="49.84542173333466053009033203125" lon="6.8841108866035938262939453125">
        <ele>199.600006103515625</ele>
        <time>2026-04-22T09:59:55.000Z</time>
        <extensions>
          <ns3:TrackPointExtension>
            <ns3:hr>119</ns3:hr>
            <ns3:cad>45</ns3:cad>
          </ns3:TrackPointExtension>
        </extensions>
      </trkpt>
      <trkpt lat="49.84550253488123416900634765625" lon="6.8840361200273036956787109375">
        <ele>199.600006103515625</ele>
        <time>2026-04-22T10:00:05.000Z</time>
        <extensions>
          <ns3:TrackPointExtension>
            <ns3:hr>121</ns3:hr>
            <ns3:cad>47</ns3:cad>
          </ns3:TrackPointExtension>
        </extensions>
      </trkpt>
      <trkpt lat="49.8455136828124523162841796875" lon="6.8840193562209606170654296875">
        <ele>200</ele>
        <time>2026-04-22T10:00:07.000Z</time>
        <extensions>
          <ns3:TrackPointExtension>
            <ns3:hr>121</ns3:hr>
            <ns3:cad>46</ns3:cad>
          </ns3:TrackPointExtension>
        </extensions>
      </trkpt>
      <trkpt lat="49.84559540636837482452392578125" lon="6.883973591029644012451171875">
        <ele>201</ele>
        <time>2026-04-22T10:00:16.000Z</time>
        <extensions>
          <ns3:TrackPointExtension>
            <ns3:hr>122</ns3:hr>
            <ns3:cad>42</ns3:cad>
          </ns3:TrackPointExtension>
        </extensions>
      </trkpt>
      <trkpt lat="49.845606386661529541015625" lon="6.8839734233915805816650390625">
        <ele>201.1999969482421875</ele>
        <time>2026-04-22T10:00:17.000Z</time>
        <extensions>
          <ns3:TrackPointExtension>
            <ns3:hr>122</ns3:hr>
            <ns3:cad>42</ns3:cad>
          </ns3:TrackPointExtension>
        </extensions>
      </trkpt>
      <trkpt lat="49.84563522040843963623046875" lon="6.88395238481462001800537109375">
        <ele>201.1999969482421875</ele>
        <time>2026-04-22T10:00:21.000Z</time>
        <extensions>
          <ns3:TrackPointExtension>
            <ns3:hr>122</ns3:hr>
            <ns3:cad>44</ns3:cad>
          </ns3:TrackPointExtension>
        </extensions>
      </trkpt>
      <trkpt lat="49.84566397033631801605224609375" lon="6.8839392252266407012939453125">
        <ele>201.1999969482421875</ele>
        <time>2026-04-22T10:00:24.000Z</time>
        <extensions>
          <ns3:TrackPointExtension>
            <ns3:hr>122</ns3:hr>
            <ns3:cad>43</ns3:cad>
          </ns3:TrackPointExtension>
        </extensions>
      </trkpt>
      <trkpt lat="49.8457309417426586151123046875" lon="6.88390594907104969024658203125">
        <ele>201.8000030517578125</ele>
        <time>2026-04-22T10:00:32.000Z</time>
        <extensions>
          <ns3:TrackPointExtension>
            <ns3:hr>123</ns3:hr>
            <ns3:cad>44</ns3:cad>
          </ns3:TrackPointExtension>
        </extensions>
      </trkpt>
      <trkpt lat="49.84574854373931884765625" lon="6.88390963710844516754150390625">
        <ele>202.399993896484375</ele>
        <time>2026-04-22T10:00:36.000Z</time>
        <extensions>
          <ns3:TrackPointExtension>
            <ns3:hr>123</ns3:hr>
            <ns3:cad>0</ns3:cad>
          </ns3:TrackPointExtension>
        </extensions>
      </trkpt>
      <trkpt lat="49.84574225731194019317626953125" lon="6.88389756716787815093994140625">
        <ele>202.8000030517578125</ele>
        <time>2026-04-22T10:00:39.000Z</time>
        <extensions>
          <ns3:TrackPointExtension>
            <ns3:hr>124</ns3:hr>
            <ns3:cad>0</ns3:cad>
          </ns3:TrackPointExtension>
        </extensions>
      </trkpt>
      <trkpt lat="49.8457406647503376007080078125" lon="6.8838839046657085418701171875">
        <ele>203.399993896484375</ele>
        <time>2026-04-22T10:00:46.000Z</time>
        <extensions>
          <ns3:TrackPointExtension>
            <ns3:hr>123</ns3:hr>
            <ns3:cad>0</ns3:cad>
          </ns3:TrackPointExtension>
        </extensions>
      </trkpt>
      <trkpt lat="49.84574116766452789306640625" lon="6.8838835693895816802978515625">
        <ele>203.8000030517578125</ele>
        <time>2026-04-22T10:00:49.000Z</time>
        <extensions>
          <ns3:TrackPointExtension>
            <ns3:hr>124</ns3:hr>
            <ns3:cad>0</ns3:cad>
          </ns3:TrackPointExtension>
        </extensions>
      </trkpt>
      <trkpt lat="49.84573923982679843902587890625" lon="6.88388884998857975006103515625">
        <ele>203</ele>
        <time>2026-04-22T10:00:59.000Z</time>
        <extensions>
          <ns3:TrackPointExtension>
            <ns3:hr>121</ns3:hr>
            <ns3:cad>0</ns3:cad>
          </ns3:TrackPointExtension>
        </extensions>
      </trkpt>
      <trkpt lat="49.84571426175534725189208984375" lon="6.88393260352313518524169921875">
        <ele>202.600006103515625</ele>
        <time>2026-04-22T10:01:02.000Z</time>
        <extensions>
          <ns3:TrackPointExtension>
            <ns3:hr>120</ns3:hr>
            <ns3:cad>50</ns3:cad>
          </ns3:TrackPointExtension>
        </extensions>
      </trkpt>
      <trkpt lat="49.84569665975868701934814453125" lon="6.8839658796787261962890625">
        <ele>202.399993896484375</ele>
        <time>2026-04-22T10:01:04.000Z</time>
        <extensions>
          <ns3:TrackPointExtension>
            <ns3:hr>120</ns3:hr>
            <ns3:cad>50</ns3:cad>
          </ns3:TrackPointExtension>
        </extensions>
      </trkpt>
      <trkpt lat="49.84564268030226230621337890625" lon="6.88409521244466304779052734375">
        <ele>201.399993896484375</ele>
        <time>2026-04-22T10:01:11.000Z</time>
        <extensions>
          <ns3:TrackPointExtension>
            <ns3:hr>120</ns3:hr>
            <ns3:cad>50</ns3:cad>
          </ns3:TrackPointExtension>
        </extensions>
      </trkpt>
      <trkpt lat="49.8456273414194583892822265625" lon="6.88411382026970386505126953125">
        <ele>201.1999969482421875</ele>
        <time>2026-04-22T10:01:13.000Z</time>
        <extensions>
          <ns3:TrackPointExtension>
            <ns3:hr>120</ns3:hr>
            <ns3:cad>50</ns3:cad>
          </ns3:TrackPointExtension>
        </extensions>
      </trkpt>
      <trkpt lat="49.845572523772716522216796875" lon="6.88418489880859851837158203125">
        <ele>200.399993896484375</ele>
        <time>2026-04-22T10:01:20.000Z</time>
        <extensions>
          <ns3:TrackPointExtension>
            <ns3:hr>119</ns3:hr>
            <ns3:cad>0</ns3:cad>
          </ns3:TrackPointExtension>
        </extensions>
      </trkpt>
      <trkpt lat="49.84556674025952816009521484375" lon="6.88419495709240436553955078125">
        <ele>200.1999969482421875</ele>
        <time>2026-04-22T10:01:21.000Z</time>
        <extensions>
          <ns3:TrackPointExtension>
            <ns3:hr>118</ns3:hr>
            <ns3:cad>0</ns3:cad>
          </ns3:TrackPointExtension>
        </extensions>
      </trkpt>
      <trkpt lat="49.84551594592630863189697265625" lon="6.88426922075450420379638671875">
        <ele>199</ele>
        <time>2026-04-22T10:01:28.000Z</time>
        <extensions>
          <ns3:TrackPointExtension>
            <ns3:hr>118</ns3:hr>
            <ns3:cad>0</ns3:cad>
          </ns3:TrackPointExtension>
        </extensions>
      </trkpt>
      <trkpt lat="49.84550370834767818450927734375" lon="6.88428078778088092803955078125">
        <ele>199</ele>
        <time>2026-04-22T10:01:29.000Z</time>
        <extensions>
          <ns3:TrackPointExtension>
            <ns3:hr>117</ns3:hr>
            <ns3:cad>0</ns3:cad>
          </ns3:TrackPointExtension>
        </extensions>
      </trkpt>
      <trkpt lat="49.84544436447322368621826171875" lon="6.8843361921608448028564453125">
        <ele>198</ele>
        <time>2026-04-22T10:01:35.000Z</time>
        <extensions>
          <ns3:TrackPointExtension>
            <ns3:hr>115</ns3:hr>
            <ns3:cad>52</ns3:cad>
          </ns3:TrackPointExtension>
        </extensions>
      </trkpt>
      <trkpt lat="49.84539591707289218902587890625" lon="6.8843801133334636688232421875">
        <ele>197.1999969482421875</ele>
        <time>2026-04-22T10:01:40.000Z</time>
        <extensions>
          <ns3:TrackPointExtension>
            <ns3:hr>115</ns3:hr>
            <ns3:cad>0</ns3:cad>
          </ns3:TrackPointExtension>
        </extensions>
      </trkpt>
      <trkpt lat="49.845378398895263671875" lon="6.88439696095883846282958984375">
        <ele>196.8000030517578125</ele>
        <time>2026-04-22T10:01:42.000Z</time>
        <extensions>
          <ns3:TrackPointExtension>
            <ns3:hr>114</ns3:hr>
            <ns3:cad>0</ns3:cad>
          </ns3:TrackPointExtension>
        </extensions>
      </trkpt>
      <trkpt lat="49.84532198868691921234130859375" lon="6.88444800674915313720703125">
        <ele>195.8000030517578125</ele>
        <time>2026-04-22T10:01:48.000Z</time>
        <extensions>
          <ns3:TrackPointExtension>
            <ns3:hr>114</ns3:hr>
            <ns3:cad>52</ns3:cad>
          </ns3:TrackPointExtension>
        </extensions>
      </trkpt>
      <trkpt lat="49.8452992737293243408203125" lon="6.8844594061374664306640625">
        <ele>195.399993896484375</ele>
        <time>2026-04-22T10:01:50.000Z</time>
        <extensions>
          <ns3:TrackPointExtension>
            <ns3:hr>114</ns3:hr>
            <ns3:cad>52</ns3:cad>
          </ns3:TrackPointExtension>
        </extensions>
      </trkpt>
      <trkpt lat="49.8452652432024478912353515625" lon="6.88450240530073642730712890625">
        <ele>194.8000030517578125</ele>
        <time>2026-04-22T10:01:54.000Z</time>
        <extensions>
          <ns3:TrackPointExtension>
            <ns3:hr>113</ns3:hr>
            <ns3:cad>0</ns3:cad>
          </ns3:TrackPointExtension>
        </extensions>
      </trkpt>
      <trkpt lat="49.845215119421482086181640625" lon="6.8845735676586627960205078125">
        <ele>193.600006103515625</ele>
        <time>2026-04-22T10:02:00.000Z</time>
        <extensions>
          <ns3:TrackPointExtension>
            <ns3:hr>112</ns3:hr>
            <ns3:cad>53</ns3:cad>
          </ns3:TrackPointExtension>
        </extensions>
      </trkpt>
      <trkpt lat="49.845205061137676239013671875" lon="6.88458169810473918914794921875">
        <ele>193.399993896484375</ele>
        <time>2026-04-22T10:02:01.000Z</time>
        <extensions>
          <ns3:TrackPointExtension>
            <ns3:hr>112</ns3:hr>
            <ns3:cad>54</ns3:cad>
          </ns3:TrackPointExtension>
        </extensions>
      </trkpt>
      <trkpt lat="49.8451535962522029876708984375" lon="6.88463333062827587127685546875">
        <ele>192.399993896484375</ele>
        <time>2026-04-22T10:02:07.000Z</time>
        <extensions>
          <ns3:TrackPointExtension>
            <ns3:hr>111</ns3:hr>
            <ns3:cad>54</ns3:cad>
          </ns3:TrackPointExtension>
        </extensions>
      </trkpt>
      <trkpt lat="49.84509282745420932769775390625" lon="6.88469954766333103179931640625">
        <ele>191.600006103515625</ele>
        <time>2026-04-22T10:02:14.000Z</time>
        <extensions>
          <ns3:TrackPointExtension>
            <ns3:hr>111</ns3:hr>
            <ns3:cad>54</ns3:cad>
          </ns3:TrackPointExtension>
        </extensions>
      </trkpt>
      <trkpt lat="49.845085032284259796142578125" lon="6.88470860011875629425048828125">
        <ele>191.399993896484375</ele>
        <time>2026-04-22T10:02:15.000Z</time>
        <extensions>
          <ns3:TrackPointExtension>
            <ns3:hr>111</ns3:hr>
            <ns3:cad>0</ns3:cad>
          </ns3:TrackPointExtension>
        </extensions>
      </trkpt>
      <trkpt lat="49.84499509446322917938232421875" lon="6.884809099137783050537109375">
        <ele>190.1999969482421875</ele>
        <time>2026-04-22T10:02:26.000Z</time>
        <extensions>
          <ns3:TrackPointExtension>
            <ns3:hr>112</ns3:hr>
            <ns3:cad>53</ns3:cad>
          </ns3:TrackPointExtension>
        </extensions>
      </trkpt>
      <trkpt lat="49.84494027681648731231689453125" lon="6.88487724401056766510009765625">
        <ele>189.1999969482421875</ele>
        <time>2026-04-22T10:02:32.000Z</time>
        <extensions>
          <ns3:TrackPointExtension>
            <ns3:hr>110</ns3:hr>
            <ns3:cad>53</ns3:cad>
          </ns3:TrackPointExtension>
        </extensions>
      </trkpt>
      <trkpt lat="49.8448944278061389923095703125" lon="6.884949244558811187744140625">
        <ele>188.399993896484375</ele>
        <time>2026-04-22T10:02:38.000Z</time>
        <extensions>
          <ns3:TrackPointExtension>
            <ns3:hr>111</ns3:hr>
            <ns3:cad>53</ns3:cad>
          </ns3:TrackPointExtension>
        </extensions>
      </trkpt>
      <trkpt lat="49.84487724490463733673095703125" lon="6.88498285599052906036376953125">
        <ele>188.1999969482421875</ele>
        <time>2026-04-22T10:02:41.000Z</time>
        <extensions>
          <ns3:TrackPointExtension>
            <ns3:hr>111</ns3:hr>
            <ns3:cad>0</ns3:cad>
          </ns3:TrackPointExtension>
        </extensions>
      </trkpt>
      <trkpt lat="49.84481873922049999237060546875" lon="6.8850701116025447845458984375">
        <ele>187.600006103515625</ele>
        <time>2026-04-22T10:02:49.000Z</time>
        <extensions>
          <ns3:TrackPointExtension>
            <ns3:hr>110</ns3:hr>
            <ns3:cad>53</ns3:cad>
          </ns3:TrackPointExtension>
        </extensions>
      </trkpt>
      <trkpt lat="49.844805411994457244873046875" lon="6.88509584404528141021728515625">
        <ele>187</ele>
        <time>2026-04-22T10:02:51.000Z</time>
        <extensions>
          <ns3:TrackPointExtension>
            <ns3:hr>110</ns3:hr>
            <ns3:cad>54</ns3:cad>
          </ns3:TrackPointExtension>
        </extensions>
      </trkpt>
      <trkpt lat="49.844760484993457794189453125" lon="6.88517932780086994171142578125">
        <ele>185.8000030517578125</ele>
        <time>2026-04-22T10:02:58.000Z</time>
        <extensions>
          <ns3:TrackPointExtension>
            <ns3:hr>109</ns3:hr>
            <ns3:cad>53</ns3:cad>
          </ns3:TrackPointExtension>
        </extensions>
      </trkpt>
      <trkpt lat="49.84473072923719882965087890625" lon="6.885241605341434478759765625">
        <ele>184.8000030517578125</ele>
        <time>2026-04-22T10:03:02.000Z</time>
        <extensions>
          <ns3:TrackPointExtension>
            <ns3:hr>110</ns3:hr>
            <ns3:cad>54</ns3:cad>
          </ns3:TrackPointExtension>
        </extensions>
      </trkpt>
      <trkpt lat="49.84470793046057224273681640625" lon="6.885290555655956268310546875">
        <ele>183.8000030517578125</ele>
        <time>2026-04-22T10:03:07.000Z</time>
        <extensions>
          <ns3:TrackPointExtension>
            <ns3:hr>109</ns3:hr>
            <ns3:cad>53</ns3:cad>
          </ns3:TrackPointExtension>
        </extensions>
      </trkpt>
      <trkpt lat="49.84468211419880390167236328125" lon="6.8853284418582916259765625">
        <ele>182.8000030517578125</ele>
        <time>2026-04-22T10:03:10.000Z</time>
        <extensions>
          <ns3:TrackPointExtension>
            <ns3:hr>109</ns3:hr>
            <ns3:cad>52</ns3:cad>
          </ns3:TrackPointExtension>
        </extensions>
      </trkpt>
      <trkpt lat="49.84466719441115856170654296875" lon="6.88534344546496868133544921875">
        <ele>182.600006103515625</ele>
        <time>2026-04-22T10:03:13.000Z</time>
        <extensions>
          <ns3:TrackPointExtension>
            <ns3:hr>109</ns3:hr>
            <ns3:cad>52</ns3:cad>
          </ns3:TrackPointExtension>
        </extensions>
      </trkpt>
      <trkpt lat="49.8446332477033138275146484375" lon="6.8853842653334140777587890625">
        <ele>181.8000030517578125</ele>
        <time>2026-04-22T10:03:20.000Z</time>
        <extensions>
          <ns3:TrackPointExtension>
            <ns3:hr>107</ns3:hr>
            <ns3:cad>0</ns3:cad>
          </ns3:TrackPointExtension>
        </extensions>
      </trkpt>
      <trkpt lat="49.84463131986558437347412109375" lon="6.88538535498082637786865234375">
        <ele>181.8000030517578125</ele>
        <time>2026-04-22T10:03:21.000Z</time>
        <extensions>
          <ns3:TrackPointExtension>
            <ns3:hr>107</ns3:hr>
            <ns3:cad>0</ns3:cad>
          </ns3:TrackPointExtension>
        </extensions>
      </trkpt>
      <trkpt lat="49.8446285538375377655029296875" lon="6.88539273105561733245849609375">
        <ele>182.1999969482421875</ele>
        <time>2026-04-22T10:03:28.000Z</time>
        <extensions>
          <ns3:TrackPointExtension>
            <ns3:hr>109</ns3:hr>
            <ns3:cad>0</ns3:cad>
          </ns3:TrackPointExtension>
        </extensions>
      </trkpt>
      <trkpt lat="49.8446295596659183502197265625" lon="6.88539482653141021728515625">
        <ele>182.600006103515625</ele>
        <time>2026-04-22T10:03:32.000Z</time>
        <extensions>
          <ns3:TrackPointExtension>
            <ns3:hr>112</ns3:hr>
            <ns3:cad>0</ns3:cad>
          </ns3:TrackPointExtension>
        </extensions>
      </trkpt>
      <trkpt lat="49.84465487301349639892578125" lon="6.88546062447130680084228515625">
        <ele>181.600006103515625</ele>
        <time>2026-04-22T10:03:42.000Z</time>
        <extensions>
          <ns3:TrackPointExtension>
            <ns3:hr>113</ns3:hr>
            <ns3:cad>0</ns3:cad>
          </ns3:TrackPointExtension>
        </extensions>
      </trkpt>
      <trkpt lat="49.84464171342551708221435546875" lon="6.885601691901683807373046875">
        <ele>181.8000030517578125</ele>
        <time>2026-04-22T10:03:49.000Z</time>
        <extensions>
          <ns3:TrackPointExtension>
            <ns3:hr>113</ns3:hr>
            <ns3:cad>0</ns3:cad>
          </ns3:TrackPointExtension>
        </extensions>
      </trkpt>
      <trkpt lat="49.84462277032434940338134765625" lon="6.8856890313327312469482421875">
        <ele>182.8000030517578125</ele>
        <time>2026-04-22T10:03:54.000Z</time>
        <extensions>
          <ns3:TrackPointExtension>
            <ns3:hr>113</ns3:hr>
            <ns3:cad>0</ns3:cad>
          </ns3:TrackPointExtension>
        </extensions>
      </trkpt>
      <trkpt lat="49.84461220912635326385498046875" lon="6.88574544154107570648193359375">
        <ele>183</ele>
        <time>2026-04-22T10:03:57.000Z</time>
        <extensions>
          <ns3:TrackPointExtension>
            <ns3:hr>112</ns3:hr>
            <ns3:cad>0</ns3:cad>
          </ns3:TrackPointExtension>
        </extensions>
      </trkpt>
      <trkpt lat="49.84455336816608905792236328125" lon="6.8858943879604339599609375">
        <ele>182.600006103515625</ele>
        <time>2026-04-22T10:04:06.000Z</time>
        <extensions>
          <ns3:TrackPointExtension>
            <ns3:hr>112</ns3:hr>
            <ns3:cad>0</ns3:cad>
          </ns3:TrackPointExtension>
        </extensions>
      </trkpt>
      <trkpt lat="49.8445294797420501708984375" lon="6.886046938598155975341796875">
        <ele>183.1999969482421875</ele>
        <time>2026-04-22T10:04:15.000Z</time>
        <extensions>
          <ns3:TrackPointExtension>
            <ns3:hr>113</ns3:hr>
            <ns3:cad>0</ns3:cad>
          </ns3:TrackPointExtension>
        </extensions>
      </trkpt>
      <trkpt lat="49.8445125482976436614990234375" lon="6.88612170517444610595703125">
        <ele>184</ele>
        <time>2026-04-22T10:04:20.000Z</time>
        <extensions>
          <ns3:TrackPointExtension>
            <ns3:hr>114</ns3:hr>
            <ns3:cad>0</ns3:cad>
          </ns3:TrackPointExtension>
        </extensions>
      </trkpt>
      <trkpt lat="49.84449368901550769805908203125" lon="6.886204183101654052734375">
        <ele>184.1999969482421875</ele>
        <time>2026-04-22T10:04:25.000Z</time>
        <extensions>
          <ns3:TrackPointExtension>
            <ns3:hr>115</ns3:hr>
            <ns3:cad>0</ns3:cad>
          </ns3:TrackPointExtension>
        </extensions>
      </trkpt>
      <trkpt lat="49.84446485526859760284423828125" lon="6.886324547231197357177734375">
        <ele>184.600006103515625</ele>
        <time>2026-04-22T10:04:33.000Z</time>
        <extensions>
          <ns3:TrackPointExtension>
            <ns3:hr>117</ns3:hr>
            <ns3:cad>0</ns3:cad>
          </ns3:TrackPointExtension>
        </extensions>
      </trkpt>
      <trkpt lat="49.8444434814155101776123046875" lon="6.8864279799163341522216796875">
        <ele>185</ele>
        <time>2026-04-22T10:04:39.000Z</time>
        <extensions>
          <ns3:TrackPointExtension>
            <ns3:hr>118</ns3:hr>
            <ns3:cad>52</ns3:cad>
          </ns3:TrackPointExtension>
        </extensions>
      </trkpt>
      <trkpt lat="49.84443266876041889190673828125" lon="6.88648858107626438140869140625">
        <ele>185.399993896484375</ele>
        <time>2026-04-22T10:04:43.000Z</time>
        <extensions>
          <ns3:TrackPointExtension>
            <ns3:hr>118</ns3:hr>
            <ns3:cad>0</ns3:cad>
          </ns3:TrackPointExtension>
        </extensions>
      </trkpt>
      <trkpt lat="49.8444149829447269439697265625" lon="6.88657558523118495941162109375">
        <ele>186.1999969482421875</ele>
        <time>2026-04-22T10:04:48.000Z</time>
        <extensions>
          <ns3:TrackPointExtension>
            <ns3:hr>119</ns3:hr>
            <ns3:cad>0</ns3:cad>
          </ns3:TrackPointExtension>
        </extensions>
      </trkpt>
      <trkpt lat="49.8444009013473987579345703125" lon="6.8866757489740848541259765625">
        <ele>186.600006103515625</ele>
        <time>2026-04-22T10:04:53.000Z</time>
        <extensions>
          <ns3:TrackPointExtension>
            <ns3:hr>120</ns3:hr>
            <ns3:cad>0</ns3:cad>
          </ns3:TrackPointExtension>
        </extensions>
      </trkpt>
      <trkpt lat="49.844376258552074432373046875" lon="6.88680969178676605224609375">
        <ele>187.1999969482421875</ele>
        <time>2026-04-22T10:05:01.000Z</time>
        <extensions>
          <ns3:TrackPointExtension>
            <ns3:hr>120</ns3:hr>
            <ns3:cad>0</ns3:cad>
          </ns3:TrackPointExtension>
        </extensions>
      </trkpt>
      <trkpt lat="49.84437567181885242462158203125" lon="6.8868438899517059326171875">
        <ele>187.399993896484375</ele>
        <time>2026-04-22T10:05:03.000Z</time>
        <extensions>
          <ns3:TrackPointExtension>
            <ns3:hr>121</ns3:hr>
            <ns3:cad>0</ns3:cad>
          </ns3:TrackPointExtension>
        </extensions>
      </trkpt>
      <trkpt lat="49.8443378694355487823486328125" lon="6.887038685381412506103515625">
        <ele>187.399993896484375</ele>
        <time>2026-04-22T10:05:14.000Z</time>
        <extensions>
          <ns3:TrackPointExtension>
            <ns3:hr>121</ns3:hr>
            <ns3:cad>54</ns3:cad>
          </ns3:TrackPointExtension>
        </extensions>
      </trkpt>
      <trkpt lat="49.84429017640650272369384765625" lon="6.88719995319843292236328125">
        <ele>188.1999969482421875</ele>
        <time>2026-04-22T10:05:24.000Z</time>
        <extensions>
          <ns3:TrackPointExtension>
            <ns3:hr>121</ns3:hr>
            <ns3:cad>0</ns3:cad>
          </ns3:TrackPointExtension>
        </extensions>
      </trkpt>
      <trkpt lat="49.8442667908966541290283203125" lon="6.8873392604291439056396484375">
        <ele>188.399993896484375</ele>
        <time>2026-04-22T10:05:32.000Z</time>
        <extensions>
          <ns3:TrackPointExtension>
            <ns3:hr>121</ns3:hr>
            <ns3:cad>0</ns3:cad>
          </ns3:TrackPointExtension>
        </extensions>
      </trkpt>
      <trkpt lat="49.8442612588405609130859375" lon="6.887393407523632049560546875">
        <ele>188.600006103515625</ele>
        <time>2026-04-22T10:05:35.000Z</time>
        <extensions>
          <ns3:TrackPointExtension>
            <ns3:hr>122</ns3:hr>
            <ns3:cad>53</ns3:cad>
          </ns3:TrackPointExtension>
        </extensions>
      </trkpt>
      <trkpt lat="49.84422932378947734832763671875" lon="6.8875434435904026031494140625">
        <ele>188.399993896484375</ele>
        <time>2026-04-22T10:05:44.000Z</time>
        <extensions>
          <ns3:TrackPointExtension>
            <ns3:hr>121</ns3:hr>
            <ns3:cad>54</ns3:cad>
          </ns3:TrackPointExtension>
        </extensions>
      </trkpt>
      <trkpt lat="49.84417098574340343475341796875" lon="6.88778341747820377349853515625">
        <ele>188.1999969482421875</ele>
        <time>2026-04-22T10:05:59.000Z</time>
        <extensions>
          <ns3:TrackPointExtension>
            <ns3:hr>120</ns3:hr>
            <ns3:cad>54</ns3:cad>
          </ns3:TrackPointExtension>
        </extensions>
      </trkpt>
      <trkpt lat="49.844142235815525054931640625" lon="6.887970082461833953857421875">
        <ele>188.399993896484375</ele>
        <time>2026-04-22T10:06:10.000Z</time>
        <extensions>
          <ns3:TrackPointExtension>
            <ns3:hr>120</ns3:hr>
            <ns3:cad>55</ns3:cad>
          </ns3:TrackPointExtension>
        </extensions>
      </trkpt>
      <trkpt lat="49.84412379562854766845703125" lon="6.8881516344845294952392578125">
        <ele>187.8000030517578125</ele>
        <time>2026-04-22T10:06:20.000Z</time>
        <extensions>
          <ns3:TrackPointExtension>
            <ns3:hr>117</ns3:hr>
            <ns3:cad>54</ns3:cad>
          </ns3:TrackPointExtension>
        </extensions>
      </trkpt>
      <trkpt lat="49.84412287361919879913330078125" lon="6.88816948793828487396240234375">
        <ele>187.600006103515625</ele>
        <time>2026-04-22T10:06:21.000Z</time>
        <extensions>
          <ns3:TrackPointExtension>
            <ns3:hr>117</ns3:hr>
            <ns3:cad>55</ns3:cad>
          </ns3:TrackPointExtension>
        </extensions>
      </trkpt>
      <trkpt lat="49.84411776065826416015625" lon="6.8882046081125736236572265625">
        <ele>187.1999969482421875</ele>
        <time>2026-04-22T10:06:23.000Z</time>
        <extensions>
          <ns3:TrackPointExtension>
            <ns3:hr>117</ns3:hr>
            <ns3:cad>55</ns3:cad>
          </ns3:TrackPointExtension>
        </extensions>
      </trkpt>
      <trkpt lat="49.84409890137612819671630859375" lon="6.88833327032625675201416015625">
        <ele>186.600006103515625</ele>
        <time>2026-04-22T10:06:30.000Z</time>
        <extensions>
          <ns3:TrackPointExtension>
            <ns3:hr>117</ns3:hr>
            <ns3:cad>55</ns3:cad>
          </ns3:TrackPointExtension>
        </extensions>
      </trkpt>
      <trkpt lat="49.84408213756978511810302734375" lon="6.888418011367321014404296875">
        <ele>186.1999969482421875</ele>
        <time>2026-04-22T10:06:35.000Z</time>
        <extensions>
          <ns3:TrackPointExtension>
            <ns3:hr>115</ns3:hr>
            <ns3:cad>54</ns3:cad>
          </ns3:TrackPointExtension>
        </extensions>
      </trkpt>
      <trkpt lat="49.8440629430115222930908203125" lon="6.88850811682641506195068359375">
        <ele>186.399993896484375</ele>
        <time>2026-04-22T10:06:40.000Z</time>
        <extensions>
          <ns3:TrackPointExtension>
            <ns3:hr>115</ns3:hr>
            <ns3:cad>55</ns3:cad>
          </ns3:TrackPointExtension>
        </extensions>
      </trkpt>
      <trkpt lat="49.84402212314307689666748046875" lon="6.88868178986012935638427734375">
        <ele>185.600006103515625</ele>
        <time>2026-04-22T10:06:51.000Z</time>
        <extensions>
          <ns3:TrackPointExtension>
            <ns3:hr>117</ns3:hr>
            <ns3:cad>55</ns3:cad>
          </ns3:TrackPointExtension>
        </extensions>
      </trkpt>
      <trkpt lat="49.84400980174541473388671875" lon="6.8887712247669696807861328125">
        <ele>185</ele>
        <time>2026-04-22T10:06:56.000Z</time>
        <extensions>
          <ns3:TrackPointExtension>
            <ns3:hr>118</ns3:hr>
            <ns3:cad>55</ns3:cad>
          </ns3:TrackPointExtension>
        </extensions>
      </trkpt>
      <trkpt lat="49.84397250227630138397216796875" lon="6.8888862244784832000732421875">
        <ele>184.8000030517578125</ele>
        <time>2026-04-22T10:07:02.000Z</time>
        <extensions>
          <ns3:TrackPointExtension>
            <ns3:hr>116</ns3:hr>
            <ns3:cad>55</ns3:cad>
          </ns3:TrackPointExtension>
        </extensions>
      </trkpt>
      <trkpt lat="49.8439553193747997283935546875" lon="6.88900164328515529632568359375">
        <ele>184.600006103515625</ele>
        <time>2026-04-22T10:07:09.000Z</time>
        <extensions>
          <ns3:TrackPointExtension>
            <ns3:hr>113</ns3:hr>
            <ns3:cad>55</ns3:cad>
          </ns3:TrackPointExtension>
        </extensions>
      </trkpt>
      <trkpt lat="49.84394534491002559661865234375" lon="6.88905310817062854766845703125">
        <ele>184.399993896484375</ele>
        <time>2026-04-22T10:07:12.000Z</time>
        <extensions>
          <ns3:TrackPointExtension>
            <ns3:hr>112</ns3:hr>
            <ns3:cad>55</ns3:cad>
          </ns3:TrackPointExtension>
        </extensions>
      </trkpt>
      <trkpt lat="49.8439340293407440185546875" lon="6.88913156278431415557861328125">
        <ele>184</ele>
        <time>2026-04-22T10:07:16.000Z</time>
        <extensions>
          <ns3:TrackPointExtension>
            <ns3:hr>110</ns3:hr>
            <ns3:cad>56</ns3:cad>
          </ns3:TrackPointExtension>
        </extensions>
      </trkpt>
      <trkpt lat="49.84391324222087860107421875" lon="6.88927841372787952423095703125">
        <ele>183.399993896484375</ele>
        <time>2026-04-22T10:07:25.000Z</time>
        <extensions>
          <ns3:TrackPointExtension>
            <ns3:hr>110</ns3:hr>
            <ns3:cad>0</ns3:cad>
          </ns3:TrackPointExtension>
        </extensions>
      </trkpt>
      <trkpt lat="49.8439110629260540008544921875" lon="6.88932149671018123626708984375">
        <ele>183</ele>
        <time>2026-04-22T10:07:28.000Z</time>
        <extensions>
          <ns3:TrackPointExtension>
            <ns3:hr>110</ns3:hr>
            <ns3:cad>55</ns3:cad>
          </ns3:TrackPointExtension>
        </extensions>
      </trkpt>
      <trkpt lat="49.84390310011804103851318359375" lon="6.88932937569916248321533203125">
        <ele>182.399993896484375</ele>
        <time>2026-04-22T10:07:32.000Z</time>
        <extensions>
          <ns3:TrackPointExtension>
            <ns3:hr>110</ns3:hr>
            <ns3:cad>0</ns3:cad>
          </ns3:TrackPointExtension>
        </extensions>
      </trkpt>
      <trkpt lat="49.843941740691661834716796875" lon="6.8893448822200298309326171875">
        <ele>182.1999969482421875</ele>
        <time>2026-04-22T10:07:42.000Z</time>
        <extensions>
          <ns3:TrackPointExtension>
            <ns3:hr>109</ns3:hr>
            <ns3:cad>0</ns3:cad>
          </ns3:TrackPointExtension>
        </extensions>
      </trkpt>
      <trkpt lat="49.84398457221686840057373046875" lon="6.8894196487963199615478515625">
        <ele>182.1999969482421875</ele>
        <time>2026-04-22T10:07:49.000Z</time>
        <extensions>
          <ns3:TrackPointExtension>
            <ns3:hr>109</ns3:hr>
            <ns3:cad>54</ns3:cad>
          </ns3:TrackPointExtension>
        </extensions>
      </trkpt>
      <trkpt lat="49.84399395994842052459716796875" lon="6.889431215822696685791015625">
        <ele>182</ele>
        <time>2026-04-22T10:07:50.000Z</time>
        <extensions>
          <ns3:TrackPointExtension>
            <ns3:hr>109</ns3:hr>
            <ns3:cad>55</ns3:cad>
          </ns3:TrackPointExtension>
        </extensions>
      </trkpt>
      <trkpt lat="49.84400301240384578704833984375" lon="6.88945300877094268798828125">
        <ele>181.8000030517578125</ele>
        <time>2026-04-22T10:07:52.000Z</time>
        <extensions>
          <ns3:TrackPointExtension>
            <ns3:hr>109</ns3:hr>
            <ns3:cad>50</ns3:cad>
          </ns3:TrackPointExtension>
        </extensions>
      </trkpt>
      <trkpt lat="49.84401114284992218017578125" lon="6.88946013338863849639892578125">
        <ele>181</ele>
        <time>2026-04-22T10:07:55.000Z</time>
        <extensions>
          <ns3:TrackPointExtension>
            <ns3:hr>109</ns3:hr>
            <ns3:cad>0</ns3:cad>
          </ns3:TrackPointExtension>
        </extensions>
      </trkpt>
      <trkpt lat="49.84401122666895389556884765625" lon="6.889455355703830718994140625">
        <ele>180.8000030517578125</ele>
        <time>2026-04-22T10:07:57.000Z</time>
        <extensions>
          <ns3:TrackPointExtension>
            <ns3:hr>109</ns3:hr>
            <ns3:cad>0</ns3:cad>
          </ns3:TrackPointExtension>
        </extensions>
      </trkpt>
      <trkpt lat="49.8439984023571014404296875" lon="6.889466755092144012451171875">
        <ele>180.8000030517578125</ele>
        <time>2026-04-22T10:08:01.000Z</time>
        <extensions>
          <ns3:TrackPointExtension>
            <ns3:hr>108</ns3:hr>
            <ns3:cad>0</ns3:cad>
          </ns3:TrackPointExtension>
        </extensions>
      </trkpt>
      <trkpt lat="49.84399328939616680145263671875" lon="6.88948963768780231475830078125">
        <ele>180.399993896484375</ele>
        <time>2026-04-22T10:08:09.000Z</time>
        <extensions>
          <ns3:TrackPointExtension>
            <ns3:hr>108</ns3:hr>
            <ns3:cad>0</ns3:cad>
          </ns3:TrackPointExtension>
        </extensions>
      </trkpt>
      <trkpt lat="49.84399144537746906280517578125" lon="6.8894910626113414764404296875">
        <ele>181</ele>
        <time>2026-04-22T10:08:17.000Z</time>
        <extensions>
          <ns3:TrackPointExtension>
            <ns3:hr>108</ns3:hr>
            <ns3:cad>0</ns3:cad>
          </ns3:TrackPointExtension>
        </extensions>
      </trkpt>
      <trkpt lat="49.843989349901676177978515625" lon="6.88949190080165863037109375">
        <ele>181.399993896484375</ele>
        <time>2026-04-22T10:08:28.000Z</time>
        <extensions>
          <ns3:TrackPointExtension>
            <ns3:hr>105</ns3:hr>
            <ns3:cad>0</ns3:cad>
          </ns3:TrackPointExtension>
        </extensions>
      </trkpt>
      <trkpt lat="49.8439841531217098236083984375" lon="6.8894867040216922760009765625">
        <ele>181.8000030517578125</ele>
        <time>2026-04-22T10:09:04.000Z</time>
        <extensions>
          <ns3:TrackPointExtension>
            <ns3:hr>106</ns3:hr>
            <ns3:cad>0</ns3:cad>
          </ns3:TrackPointExtension>
        </extensions>
      </trkpt>
      <trkpt lat="49.8440118134021759033203125" lon="6.88949282281100749969482421875">
        <ele>181.8000030517578125</ele>
        <time>2026-04-22T10:09:06.000Z</time>
        <extensions>
          <ns3:TrackPointExtension>
            <ns3:hr>106</ns3:hr>
            <ns3:cad>0</ns3:cad>
          </ns3:TrackPointExtension>
        </extensions>
      </trkpt>
      <trkpt lat="49.8440587520599365234375" lon="6.88948293216526508331298828125">
        <ele>180.600006103515625</ele>
        <time>2026-04-22T10:09:10.000Z</time>
        <extensions>
          <ns3:TrackPointExtension>
            <ns3:hr>108</ns3:hr>
            <ns3:cad>0</ns3:cad>
          </ns3:TrackPointExtension>
        </extensions>
      </trkpt>
      <trkpt lat="49.84410393051803112030029296875" lon="6.88945443369448184967041015625">
        <ele>180</ele>
        <time>2026-04-22T10:09:14.000Z</time>
        <extensions>
          <ns3:TrackPointExtension>
            <ns3:hr>108</ns3:hr>
            <ns3:cad>55</ns3:cad>
          </ns3:TrackPointExtension>
        </extensions>
      </trkpt>
      <trkpt lat="49.84411172568798065185546875" lon="6.8894518353044986724853515625">
        <ele>179.8000030517578125</ele>
        <time>2026-04-22T10:09:15.000Z</time>
        <extensions>
          <ns3:TrackPointExtension>
            <ns3:hr>108</ns3:hr>
            <ns3:cad>51</ns3:cad>
          </ns3:TrackPointExtension>
        </extensions>
      </trkpt>
      <trkpt lat="49.8441648669540882110595703125" lon="6.889450661838054656982421875">
        <ele>179.600006103515625</ele>
        <time>2026-04-22T10:09:20.000Z</time>
        <extensions>
          <ns3:TrackPointExtension>
            <ns3:hr>108</ns3:hr>
            <ns3:cad>47</ns3:cad>
          </ns3:TrackPointExtension>
        </extensions>
      </trkpt>
      <trkpt lat="49.8442339338362216949462890625" lon="6.8894146196544170379638671875">
        <ele>180.1999969482421875</ele>
        <time>2026-04-22T10:09:28.000Z</time>
        <extensions>
          <ns3:TrackPointExtension>
            <ns3:hr>108</ns3:hr>
            <ns3:cad>48</ns3:cad>
          </ns3:TrackPointExtension>
        </extensions>
      </trkpt>
      <trkpt lat="49.8443060182034969329833984375" lon="6.8894102610647678375244140625">
        <ele>180.8000030517578125</ele>
        <time>2026-04-22T10:09:36.000Z</time>
        <extensions>
          <ns3:TrackPointExtension>
            <ns3:hr>110</ns3:hr>
            <ns3:cad>44</ns3:cad>
          </ns3:TrackPointExtension>
        </extensions>
      </trkpt>
      <trkpt lat="49.844359494745731353759765625" lon="6.88939576037228107452392578125">
        <ele>181.399993896484375</ele>
        <time>2026-04-22T10:09:41.000Z</time>
        <extensions>
          <ns3:TrackPointExtension>
            <ns3:hr>113</ns3:hr>
            <ns3:cad>46</ns3:cad>
          </ns3:TrackPointExtension>
        </extensions>
      </trkpt>
      <trkpt lat="49.8443767614662647247314453125" lon="6.88938637264072895050048828125">
        <ele>181.600006103515625</ele>
        <time>2026-04-22T10:09:43.000Z</time>
        <extensions>
          <ns3:TrackPointExtension>
            <ns3:hr>115</ns3:hr>
            <ns3:cad>45</ns3:cad>
          </ns3:TrackPointExtension>
        </extensions>
      </trkpt>
      <trkpt lat="49.8443824611604213714599609375" lon="6.88937924802303314208984375">
        <ele>181.8000030517578125</ele>
        <time>2026-04-22T10:09:44.000Z</time>
        <extensions>
          <ns3:TrackPointExtension>
            <ns3:hr>115</ns3:hr>
            <ns3:cad>44</ns3:cad>
          </ns3:TrackPointExtension>
        </extensions>
      </trkpt>
      <trkpt lat="49.84440953470766544342041015625" lon="6.88936055637896060943603515625">
        <ele>182</ele>
        <time>2026-04-22T10:09:47.000Z</time>
        <extensions>
          <ns3:TrackPointExtension>
            <ns3:hr>115</ns3:hr>
            <ns3:cad>45</ns3:cad>
          </ns3:TrackPointExtension>
        </extensions>
      </trkpt>
      <trkpt lat="49.84443417750298976898193359375" lon="6.889333985745906829833984375">
        <ele>182.1999969482421875</ele>
        <time>2026-04-22T10:09:50.000Z</time>
        <extensions>
          <ns3:TrackPointExtension>
            <ns3:hr>115</ns3:hr>
            <ns3:cad>45</ns3:cad>
          </ns3:TrackPointExtension>
        </extensions>
      </trkpt>
      <trkpt lat="49.84444490633904933929443359375" lon="6.889329962432384490966796875">
        <ele>182.1999969482421875</ele>
        <time>2026-04-22T10:09:51.000Z</time>
        <extensions>
          <ns3:TrackPointExtension>
            <ns3:hr>115</ns3:hr>
            <ns3:cad>0</ns3:cad>
          </ns3:TrackPointExtension>
        </extensions>
      </trkpt>
      <trkpt lat="49.84449326992034912109375" lon="6.88930205069482326507568359375">
        <ele>182.1999969482421875</ele>
        <time>2026-04-22T10:09:57.000Z</time>
        <extensions>
          <ns3:TrackPointExtension>
            <ns3:hr>118</ns3:hr>
            <ns3:cad>43</ns3:cad>
          </ns3:TrackPointExtension>
        </extensions>
      </trkpt>
      <trkpt lat="49.8445024900138378143310546875" lon="6.88929668627679347991943359375">
        <ele>182.1999969482421875</ele>
        <time>2026-04-22T10:09:58.000Z</time>
        <extensions>
          <ns3:TrackPointExtension>
            <ns3:hr>118</ns3:hr>
            <ns3:cad>43</ns3:cad>
          </ns3:TrackPointExtension>
        </extensions>
      </trkpt>
      <trkpt lat="49.84452906064689159393310546875" lon="6.8892795033752918243408203125">
        <ele>182.399993896484375</ele>
        <time>2026-04-22T10:10:01.000Z</time>
        <extensions>
          <ns3:TrackPointExtension>
            <ns3:hr>118</ns3:hr>
            <ns3:cad>42</ns3:cad>
          </ns3:TrackPointExtension>
        </extensions>
      </trkpt>
      <trkpt lat="49.8445397056639194488525390625" lon="6.88925896771252155303955078125">
        <ele>182.600006103515625</ele>
        <time>2026-04-22T10:10:03.000Z</time>
        <extensions>
          <ns3:TrackPointExtension>
            <ns3:hr>119</ns3:hr>
            <ns3:cad>42</ns3:cad>
          </ns3:TrackPointExtension>
        </extensions>
      </trkpt>
      <trkpt lat="49.84454867430031299591064453125" lon="6.8892533518373966217041015625">
        <ele>182.8000030517578125</ele>
        <time>2026-04-22T10:10:04.000Z</time>
        <extensions>
          <ns3:TrackPointExtension>
            <ns3:hr>120</ns3:hr>
            <ns3:cad>42</ns3:cad>
          </ns3:TrackPointExtension>
        </extensions>
      </trkpt>
      <trkpt lat="49.84460231848061084747314453125" lon="6.8892449699342250823974609375">
        <ele>184</ele>
        <time>2026-04-22T10:10:09.000Z</time>
        <extensions>
          <ns3:TrackPointExtension>
            <ns3:hr>121</ns3:hr>
            <ns3:cad>44</ns3:cad>
          </ns3:TrackPointExtension>
        </extensions>
      </trkpt>
      <trkpt lat="49.84461866319179534912109375" lon="6.8892245180904865264892578125">
        <ele>184.600006103515625</ele>
        <time>2026-04-22T10:10:12.000Z</time>
        <extensions>
          <ns3:TrackPointExtension>
            <ns3:hr>122</ns3:hr>
            <ns3:cad>43</ns3:cad>
          </ns3:TrackPointExtension>
        </extensions>
      </trkpt>
      <trkpt lat="49.84463567845523357391357421875" lon="6.88921588473021984100341796875">
        <ele>185</ele>
        <time>2026-04-22T10:10:15.000Z</time>
        <extensions>
          <ns3:TrackPointExtension>
            <ns3:hr>121</ns3:hr>
            <ns3:cad>41</ns3:cad>
          </ns3:TrackPointExtension>
        </extensions>
      </trkpt>
      <trkpt lat="49.84468077309429645538330078125" lon="6.88919861800968647003173828125">
        <ele>185.399993896484375</ele>
        <time>2026-04-22T10:10:19.000Z</time>
        <extensions>
          <ns3:TrackPointExtension>
            <ns3:hr>121</ns3:hr>
            <ns3:cad>43</ns3:cad>
          </ns3:TrackPointExtension>
        </extensions>
      </trkpt>
      <trkpt lat="49.84474740922451019287109375" lon="6.8891720473766326904296875">
        <ele>185.600006103515625</ele>
        <time>2026-04-22T10:10:27.000Z</time>
        <extensions>
          <ns3:TrackPointExtension>
            <ns3:hr>123</ns3:hr>
            <ns3:cad>40</ns3:cad>
          </ns3:TrackPointExtension>
        </extensions>
      </trkpt>
      <trkpt lat="49.84477615915238857269287109375" lon="6.8891403637826442718505859375">
        <ele>186.1999969482421875</ele>
        <time>2026-04-22T10:10:31.000Z</time>
        <extensions>
          <ns3:TrackPointExtension>
            <ns3:hr>122</ns3:hr>
            <ns3:cad>44</ns3:cad>
          </ns3:TrackPointExtension>
        </extensions>
      </trkpt>
      <trkpt lat="49.84482712112367153167724609375" lon="6.88910155557096004486083984375">
        <ele>186.600006103515625</ele>
        <time>2026-04-22T10:10:36.000Z</time>
        <extensions>
          <ns3:TrackPointExtension>
            <ns3:hr>122</ns3:hr>
            <ns3:cad>44</ns3:cad>
          </ns3:TrackPointExtension>
        </extensions>
      </trkpt>
      <trkpt lat="49.844882525503635406494140625" lon="6.8890843726694583892822265625">
        <ele>187.1999969482421875</ele>
        <time>2026-04-22T10:10:41.000Z</time>
        <extensions>
          <ns3:TrackPointExtension>
            <ns3:hr>122</ns3:hr>
            <ns3:cad>44</ns3:cad>
          </ns3:TrackPointExtension>
        </extensions>
      </trkpt>
      <trkpt lat="49.8449115268886089324951171875" lon="6.889072470366954803466796875">
        <ele>187.399993896484375</ele>
        <time>2026-04-22T10:10:44.000Z</time>
        <extensions>
          <ns3:TrackPointExtension>
            <ns3:hr>123</ns3:hr>
            <ns3:cad>44</ns3:cad>
          </ns3:TrackPointExtension>
        </extensions>
      </trkpt>
      <trkpt lat="49.84499149024486541748046875" lon="6.889024190604686737060546875">
        <ele>188.1999969482421875</ele>
        <time>2026-04-22T10:10:52.000Z</time>
        <extensions>
          <ns3:TrackPointExtension>
            <ns3:hr>123</ns3:hr>
            <ns3:cad>44</ns3:cad>
          </ns3:TrackPointExtension>
        </extensions>
      </trkpt>
      <trkpt lat="49.84500817023217678070068359375" lon="6.88898898661136627197265625">
        <ele>188.600006103515625</ele>
        <time>2026-04-22T10:10:54.000Z</time>
        <extensions>
          <ns3:TrackPointExtension>
            <ns3:hr>123</ns3:hr>
            <ns3:cad>44</ns3:cad>
          </ns3:TrackPointExtension>
        </extensions>
      </trkpt>
      <trkpt lat="49.84501722268760204315185546875" lon="6.8889789283275604248046875">
        <ele>188.600006103515625</ele>
        <time>2026-04-22T10:10:55.000Z</time>
        <extensions>
          <ns3:TrackPointExtension>
            <ns3:hr>123</ns3:hr>
            <ns3:cad>44</ns3:cad>
          </ns3:TrackPointExtension>
        </extensions>
      </trkpt>
      <trkpt lat="49.84505661763250827789306640625" lon="6.88896945677697658538818359375">
        <ele>188.8000030517578125</ele>
        <time>2026-04-22T10:11:00.000Z</time>
        <extensions>
          <ns3:TrackPointExtension>
            <ns3:hr>123</ns3:hr>
            <ns3:cad>43</ns3:cad>
          </ns3:TrackPointExtension>
        </extensions>
      </trkpt>
      <trkpt lat="49.84508427791297435760498046875" lon="6.8889596499502658843994140625">
        <ele>189.399993896484375</ele>
        <time>2026-04-22T10:11:05.000Z</time>
        <extensions>
          <ns3:TrackPointExtension>
            <ns3:hr>123</ns3:hr>
            <ns3:cad>45</ns3:cad>
          </ns3:TrackPointExtension>
        </extensions>
      </trkpt>
      <trkpt lat="49.84515971504151821136474609375" lon="6.8889391981065273284912109375">
        <ele>190</ele>
        <time>2026-04-22T10:11:13.000Z</time>
        <extensions>
          <ns3:TrackPointExtension>
            <ns3:hr>124</ns3:hr>
            <ns3:cad>45</ns3:cad>
          </ns3:TrackPointExtension>
        </extensions>
      </trkpt>
      <trkpt lat="49.84521386213600635528564453125" lon="6.88894548453390598297119140625">
        <ele>190.1999969482421875</ele>
        <time>2026-04-22T10:11:19.000Z</time>
        <extensions>
          <ns3:TrackPointExtension>
            <ns3:hr>124</ns3:hr>
            <ns3:cad>46</ns3:cad>
          </ns3:TrackPointExtension>
        </extensions>
      </trkpt>
      <trkpt lat="49.845236241817474365234375" lon="6.88895990140736103057861328125">
        <ele>190.399993896484375</ele>
        <time>2026-04-22T10:11:22.000Z</time>
        <extensions>
          <ns3:TrackPointExtension>
            <ns3:hr>124</ns3:hr>
            <ns3:cad>46</ns3:cad>
          </ns3:TrackPointExtension>
        </extensions>
      </trkpt>
      <trkpt lat="49.8452697694301605224609375" lon="6.8889579735696315765380859375">
        <ele>191</ele>
        <time>2026-04-22T10:11:26.000Z</time>
        <extensions>
          <ns3:TrackPointExtension>
            <ns3:hr>123</ns3:hr>
            <ns3:cad>45</ns3:cad>
          </ns3:TrackPointExtension>
        </extensions>
      </trkpt>
      <trkpt lat="49.8453302867710590362548828125" lon="6.8889167346060276031494140625">
        <ele>191.399993896484375</ele>
        <time>2026-04-22T10:11:31.000Z</time>
        <extensions>
          <ns3:TrackPointExtension>
            <ns3:hr>124</ns3:hr>
            <ns3:cad>47</ns3:cad>
          </ns3:TrackPointExtension>
        </extensions>
      </trkpt>
      <trkpt lat="49.8453597910702228546142578125" lon="6.888930983841419219970703125">
        <ele>191.600006103515625</ele>
        <time>2026-04-22T10:11:34.000Z</time>
        <extensions>
          <ns3:TrackPointExtension>
            <ns3:hr>124</ns3:hr>
            <ns3:cad>46</ns3:cad>
          </ns3:TrackPointExtension>
        </extensions>
      </trkpt>
      <trkpt lat="49.84537278302013874053955078125" lon="6.88894204795360565185546875">
        <ele>191.8000030517578125</ele>
        <time>2026-04-22T10:11:35.000Z</time>
        <extensions>
          <ns3:TrackPointExtension>
            <ns3:hr>124</ns3:hr>
            <ns3:cad>46</ns3:cad>
          </ns3:TrackPointExtension>
        </extensions>
      </trkpt>
      <trkpt lat="49.84538820572197437286376953125" lon="6.88894816674292087554931640625">
        <ele>191.8000030517578125</ele>
        <time>2026-04-22T10:11:36.000Z</time>
        <extensions>
          <ns3:TrackPointExtension>
            <ns3:hr>125</ns3:hr>
            <ns3:cad>47</ns3:cad>
          </ns3:TrackPointExtension>
        </extensions>
      </trkpt>
      <trkpt lat="49.845412261784076690673828125" lon="6.88895872794091701507568359375">
        <ele>192</ele>
        <time>2026-04-22T10:11:39.000Z</time>
        <extensions>
          <ns3:TrackPointExtension>
            <ns3:hr>125</ns3:hr>
            <ns3:cad>47</ns3:cad>
          </ns3:TrackPointExtension>
        </extensions>
      </trkpt>
      <trkpt lat="49.84544754959642887115478515625" lon="6.88894204795360565185546875">
        <ele>192.1999969482421875</ele>
        <time>2026-04-22T10:11:42.000Z</time>
        <extensions>
          <ns3:TrackPointExtension>
            <ns3:hr>125</ns3:hr>
            <ns3:cad>47</ns3:cad>
          </ns3:TrackPointExtension>
        </extensions>
      </trkpt>
      <trkpt lat="49.84553421847522258758544921875" lon="6.88892771489918231964111328125">
        <ele>192.399993896484375</ele>
        <time>2026-04-22T10:11:50.000Z</time>
        <extensions>
          <ns3:TrackPointExtension>
            <ns3:hr>125</ns3:hr>
            <ns3:cad>47</ns3:cad>
          </ns3:TrackPointExtension>
        </extensions>
      </trkpt>
      <trkpt lat="49.84555467031896114349365234375" lon="6.88890860415995121002197265625">
        <ele>192.8000030517578125</ele>
        <time>2026-04-22T10:11:54.000Z</time>
        <extensions>
          <ns3:TrackPointExtension>
            <ns3:hr>125</ns3:hr>
            <ns3:cad>48</ns3:cad>
          </ns3:TrackPointExtension>
        </extensions>
      </trkpt>
      <trkpt lat="49.8455777205526828765869140625" lon="6.8889133818447589874267578125">
        <ele>193</ele>
        <time>2026-04-22T10:11:56.000Z</time>
        <extensions>
          <ns3:TrackPointExtension>
            <ns3:hr>125</ns3:hr>
            <ns3:cad>46</ns3:cad>
          </ns3:TrackPointExtension>
        </extensions>
      </trkpt>
      <trkpt lat="49.845589287579059600830078125" lon="6.888908855617046356201171875">
        <ele>193.1999969482421875</ele>
        <time>2026-04-22T10:11:57.000Z</time>
        <extensions>
          <ns3:TrackPointExtension>
            <ns3:hr>125</ns3:hr>
            <ns3:cad>47</ns3:cad>
          </ns3:TrackPointExtension>
        </extensions>
      </trkpt>
      <trkpt lat="49.8456410877406597137451171875" lon="6.88888915814459323883056640625">
        <ele>193.8000030517578125</ele>
        <time>2026-04-22T10:12:01.000Z</time>
        <extensions>
          <ns3:TrackPointExtension>
            <ns3:hr>125</ns3:hr>
            <ns3:cad>47</ns3:cad>
          </ns3:TrackPointExtension>
        </extensions>
      </trkpt>
      <trkpt lat="49.8456900380551815032958984375" lon="6.88889645040035247802734375">
        <ele>194.399993896484375</ele>
        <time>2026-04-22T10:12:05.000Z</time>
        <extensions>
          <ns3:TrackPointExtension>
            <ns3:hr>125</ns3:hr>
            <ns3:cad>47</ns3:cad>
          </ns3:TrackPointExtension>
        </extensions>
      </trkpt>
      <trkpt lat="49.8457391560077667236328125" lon="6.88891916535794734954833984375">
        <ele>194.8000030517578125</ele>
        <time>2026-04-22T10:12:10.000Z</time>
        <extensions>
          <ns3:TrackPointExtension>
            <ns3:hr>125</ns3:hr>
            <ns3:cad>46</ns3:cad>
          </ns3:TrackPointExtension>
        </extensions>
      </trkpt>
      <trkpt lat="49.84576396644115447998046875" lon="6.8889241106808185577392578125">
        <ele>195</ele>
        <time>2026-04-22T10:12:13.000Z</time>
        <extensions>
          <ns3:TrackPointExtension>
            <ns3:hr>125</ns3:hr>
            <ns3:cad>47</ns3:cad>
          </ns3:TrackPointExtension>
        </extensions>
      </trkpt>
      <trkpt lat="49.84578408300876617431640625" lon="6.88892134465277194976806640625">
        <ele>195</ele>
        <time>2026-04-22T10:12:14.000Z</time>
        <extensions>
          <ns3:TrackPointExtension>
            <ns3:hr>125</ns3:hr>
            <ns3:cad>47</ns3:cad>
          </ns3:TrackPointExtension>
        </extensions>
      </trkpt>
      <trkpt lat="49.84580847434699535369873046875" lon="6.8889117054641246795654296875">
        <ele>195</ele>
        <time>2026-04-22T10:12:16.000Z</time>
        <extensions>
          <ns3:TrackPointExtension>
            <ns3:hr>125</ns3:hr>
            <ns3:cad>46</ns3:cad>
          </ns3:TrackPointExtension>
        </extensions>
      </trkpt>
      <trkpt lat="49.8458429239690303802490234375" lon="6.888919584453105926513671875">
        <ele>195.399993896484375</ele>
        <time>2026-04-22T10:12:20.000Z</time>
        <extensions>
          <ns3:TrackPointExtension>
            <ns3:hr>125</ns3:hr>
            <ns3:cad>46</ns3:cad>
          </ns3:TrackPointExtension>
        </extensions>
      </trkpt>
      <trkpt lat="49.84585247933864593505859375" lon="6.8889207579195499420166015625">
        <ele>195.399993896484375</ele>
        <time>2026-04-22T10:12:21.000Z</time>
        <extensions>
          <ns3:TrackPointExtension>
            <ns3:hr>125</ns3:hr>
            <ns3:cad>46</ns3:cad>
          </ns3:TrackPointExtension>
        </extensions>
      </trkpt>
      <trkpt lat="49.84588793478906154632568359375" lon="6.888932995498180389404296875">
        <ele>195.8000030517578125</ele>
        <time>2026-04-22T10:12:27.000Z</time>
        <extensions>
          <ns3:TrackPointExtension>
            <ns3:hr>125</ns3:hr>
            <ns3:cad>46</ns3:cad>
          </ns3:TrackPointExtension>
        </extensions>
      </trkpt>
      <trkpt lat="49.84594501554965972900390625" lon="6.88892520032823085784912109375">
        <ele>196.1999969482421875</ele>
        <time>2026-04-22T10:12:34.000Z</time>
        <extensions>
          <ns3:TrackPointExtension>
            <ns3:hr>125</ns3:hr>
            <ns3:cad>46</ns3:cad>
          </ns3:TrackPointExtension>
        </extensions>
      </trkpt>
      <trkpt lat="49.8459988273680210113525390625" lon="6.88890122808516025543212890625">
        <ele>196.399993896484375</ele>
        <time>2026-04-22T10:12:40.000Z</time>
        <extensions>
          <ns3:TrackPointExtension>
            <ns3:hr>124</ns3:hr>
            <ns3:cad>45</ns3:cad>
          </ns3:TrackPointExtension>
        </extensions>
      </trkpt>
      <trkpt lat="49.846062697470188140869140625" lon="6.88880634494125843048095703125">
        <ele>197</ele>
        <time>2026-04-22T10:12:46.000Z</time>
        <extensions>
          <ns3:TrackPointExtension>
            <ns3:hr>124</ns3:hr>
            <ns3:cad>46</ns3:cad>
          </ns3:TrackPointExtension>
        </extensions>
      </trkpt>
      <trkpt lat="49.8460665531456470489501953125" lon="6.88879712484776973724365234375">
        <ele>197</ele>
        <time>2026-04-22T10:12:47.000Z</time>
        <extensions>
          <ns3:TrackPointExtension>
            <ns3:hr>125</ns3:hr>
            <ns3:cad>46</ns3:cad>
          </ns3:TrackPointExtension>
        </extensions>
      </trkpt>
      <trkpt lat="49.846099913120269775390625" lon="6.8887467496097087860107421875">
        <ele>197.399993896484375</ele>
        <time>2026-04-22T10:12:51.000Z</time>
        <extensions>
          <ns3:TrackPointExtension>
            <ns3:hr>125</ns3:hr>
            <ns3:cad>44</ns3:cad>
          </ns3:TrackPointExtension>
        </extensions>
      </trkpt>
      <trkpt lat="49.84611424617469310760498046875" lon="6.888716407120227813720703125">
        <ele>197.600006103515625</ele>
        <time>2026-04-22T10:12:53.000Z</time>
        <extensions>
          <ns3:TrackPointExtension>
            <ns3:hr>125</ns3:hr>
            <ns3:cad>45</ns3:cad>
          </ns3:TrackPointExtension>
        </extensions>
      </trkpt>
      <trkpt lat="49.8461205326020717620849609375" lon="6.88871012069284915924072265625">
        <ele>197.8000030517578125</ele>
        <time>2026-04-22T10:12:54.000Z</time>
        <extensions>
          <ns3:TrackPointExtension>
            <ns3:hr>125</ns3:hr>
            <ns3:cad>45</ns3:cad>
          </ns3:TrackPointExtension>
        </extensions>
      </trkpt>
      <trkpt lat="49.84612832777202129364013671875" lon="6.8886927701532840728759765625">
        <ele>198</ele>
        <time>2026-04-22T10:12:56.000Z</time>
        <extensions>
          <ns3:TrackPointExtension>
            <ns3:hr>125</ns3:hr>
            <ns3:cad>45</ns3:cad>
          </ns3:TrackPointExtension>
        </extensions>
      </trkpt>
      <trkpt lat="49.8461362905800342559814453125" lon="6.888673491775989532470703125">
        <ele>198.399993896484375</ele>
        <time>2026-04-22T10:12:58.000Z</time>
        <extensions>
          <ns3:TrackPointExtension>
            <ns3:hr>126</ns3:hr>
            <ns3:cad>45</ns3:cad>
          </ns3:TrackPointExtension>
        </extensions>
      </trkpt>
      <trkpt lat="49.8461805470287799835205078125" lon="6.88864340074360370635986328125">
        <ele>199</ele>
        <time>2026-04-22T10:13:03.000Z</time>
        <extensions>
          <ns3:TrackPointExtension>
            <ns3:hr>126</ns3:hr>
            <ns3:cad>45</ns3:cad>
          </ns3:TrackPointExtension>
        </extensions>
      </trkpt>
      <trkpt lat="49.8461865819990634918212890625" lon="6.8886317498981952667236328125">
        <ele>199</ele>
        <time>2026-04-22T10:13:04.000Z</time>
        <extensions>
          <ns3:TrackPointExtension>
            <ns3:hr>126</ns3:hr>
            <ns3:cad>46</ns3:cad>
          </ns3:TrackPointExtension>
        </extensions>
      </trkpt>
      <trkpt lat="49.84622639603912830352783203125" lon="6.88861037604510784149169921875">
        <ele>199.399993896484375</ele>
        <time>2026-04-22T10:13:09.000Z</time>
        <extensions>
          <ns3:TrackPointExtension>
            <ns3:hr>126</ns3:hr>
            <ns3:cad>45</ns3:cad>
          </ns3:TrackPointExtension>
        </extensions>
      </trkpt>
      <trkpt lat="49.8462782800197601318359375" lon="6.88856075517833232879638671875">
        <ele>200</ele>
        <time>2026-04-22T10:13:16.000Z</time>
        <extensions>
          <ns3:TrackPointExtension>
            <ns3:hr>126</ns3:hr>
            <ns3:cad>46</ns3:cad>
          </ns3:TrackPointExtension>
        </extensions>
      </trkpt>
      <trkpt lat="49.84629361890256404876708984375" lon="6.8885596655309200286865234375">
        <ele>200.1999969482421875</ele>
        <time>2026-04-22T10:13:17.000Z</time>
        <extensions>
          <ns3:TrackPointExtension>
            <ns3:hr>127</ns3:hr>
            <ns3:cad>46</ns3:cad>
          </ns3:TrackPointExtension>
        </extensions>
      </trkpt>
      <trkpt lat="49.84631390310823917388916015625" lon="6.88849369995296001434326171875">
        <ele>200.8000030517578125</ele>
        <time>2026-04-22T10:13:24.000Z</time>
        <extensions>
          <ns3:TrackPointExtension>
            <ns3:hr>126</ns3:hr>
            <ns3:cad>46</ns3:cad>
          </ns3:TrackPointExtension>
        </extensions>
      </trkpt>
      <trkpt lat="49.84634005464613437652587890625" lon="6.8884617649018764495849609375">
        <ele>201.1999969482421875</ele>
        <time>2026-04-22T10:13:27.000Z</time>
        <extensions>
          <ns3:TrackPointExtension>
            <ns3:hr>126</ns3:hr>
            <ns3:cad>47</ns3:cad>
          </ns3:TrackPointExtension>
        </extensions>
      </trkpt>
      <trkpt lat="49.84637551009654998779296875" lon="6.8884547241032123565673828125">
        <ele>201.399993896484375</ele>
        <time>2026-04-22T10:13:30.000Z</time>
        <extensions>
          <ns3:TrackPointExtension>
            <ns3:hr>126</ns3:hr>
            <ns3:cad>47</ns3:cad>
          </ns3:TrackPointExtension>
        </extensions>
      </trkpt>
      <trkpt lat="49.84643242321908473968505859375" lon="6.88843234442174434661865234375">
        <ele>202.1999969482421875</ele>
        <time>2026-04-22T10:13:35.000Z</time>
        <extensions>
          <ns3:TrackPointExtension>
            <ns3:hr>126</ns3:hr>
            <ns3:cad>42</ns3:cad>
          </ns3:TrackPointExtension>
        </extensions>
      </trkpt>
      <trkpt lat="49.84643493779003620147705078125" lon="6.88842915929853916168212890625">
        <ele>202.1999969482421875</ele>
        <time>2026-04-22T10:13:36.000Z</time>
        <extensions>
          <ns3:TrackPointExtension>
            <ns3:hr>126</ns3:hr>
            <ns3:cad>42</ns3:cad>
          </ns3:TrackPointExtension>
        </extensions>
      </trkpt>
      <trkpt lat="49.84648472629487514495849609375" lon="6.88839018344879150390625">
        <ele>202.8000030517578125</ele>
        <time>2026-04-22T10:13:41.000Z</time>
        <extensions>
          <ns3:TrackPointExtension>
            <ns3:hr>126</ns3:hr>
            <ns3:cad>46</ns3:cad>
          </ns3:TrackPointExtension>
        </extensions>
      </trkpt>
      <trkpt lat="49.846528060734272003173828125" lon="6.8883779458701610565185546875">
        <ele>203.1999969482421875</ele>
        <time>2026-04-22T10:13:46.000Z</time>
        <extensions>
          <ns3:TrackPointExtension>
            <ns3:hr>126</ns3:hr>
            <ns3:cad>46</ns3:cad>
          </ns3:TrackPointExtension>
        </extensions>
      </trkpt>
      <trkpt lat="49.84655379317700862884521484375" lon="6.88837668858468532562255859375">
        <ele>203.399993896484375</ele>
        <time>2026-04-22T10:13:48.000Z</time>
        <extensions>
          <ns3:TrackPointExtension>
            <ns3:hr>126</ns3:hr>
            <ns3:cad>46</ns3:cad>
          </ns3:TrackPointExtension>
        </extensions>
      </trkpt>
      <trkpt lat="49.84660559333860874176025390625" lon="6.88837635330855846405029296875">
        <ele>203.8000030517578125</ele>
        <time>2026-04-22T10:13:53.000Z</time>
        <extensions>
          <ns3:TrackPointExtension>
            <ns3:hr>126</ns3:hr>
            <ns3:cad>44</ns3:cad>
          </ns3:TrackPointExtension>
        </extensions>
      </trkpt>
      <trkpt lat="49.84663660638034343719482421875" lon="6.88836243934929370880126953125">
        <ele>204.399993896484375</ele>
        <time>2026-04-22T10:13:57.000Z</time>
        <extensions>
          <ns3:TrackPointExtension>
            <ns3:hr>127</ns3:hr>
            <ns3:cad>44</ns3:cad>
          </ns3:TrackPointExtension>
        </extensions>
      </trkpt>
      <trkpt lat="49.84665856696665287017822265625" lon="6.88835523091256618499755859375">
        <ele>204.600006103515625</ele>
        <time>2026-04-22T10:14:00.000Z</time>
        <extensions>
          <ns3:TrackPointExtension>
            <ns3:hr>127</ns3:hr>
            <ns3:cad>44</ns3:cad>
          </ns3:TrackPointExtension>
        </extensions>
      </trkpt>
      <trkpt lat="49.84670273959636688232421875" lon="6.88836537301540374755859375">
        <ele>205.399993896484375</ele>
        <time>2026-04-22T10:14:06.000Z</time>
        <extensions>
          <ns3:TrackPointExtension>
            <ns3:hr>127</ns3:hr>
            <ns3:cad>45</ns3:cad>
          </ns3:TrackPointExtension>
        </extensions>
      </trkpt>
      <trkpt lat="49.84671841375529766082763671875" lon="6.88835741020739078521728515625">
        <ele>205.600006103515625</ele>
        <time>2026-04-22T10:14:08.000Z</time>
        <extensions>
          <ns3:TrackPointExtension>
            <ns3:hr>127</ns3:hr>
            <ns3:cad>44</ns3:cad>
          </ns3:TrackPointExtension>
        </extensions>
      </trkpt>
      <trkpt lat="49.8467572219669818878173828125" lon="6.8883460946381092071533203125">
        <ele>205.8000030517578125</ele>
        <time>2026-04-22T10:14:11.000Z</time>
        <extensions>
          <ns3:TrackPointExtension>
            <ns3:hr>126</ns3:hr>
            <ns3:cad>47</ns3:cad>
          </ns3:TrackPointExtension>
        </extensions>
      </trkpt>
      <trkpt lat="49.84679955057799816131591796875" lon="6.88831751234829425811767578125">
        <ele>206</ele>
        <time>2026-04-22T10:14:15.000Z</time>
        <extensions>
          <ns3:TrackPointExtension>
            <ns3:hr>126</ns3:hr>
            <ns3:cad>46</ns3:cad>
          </ns3:TrackPointExtension>
        </extensions>
      </trkpt>
      <trkpt lat="49.8468108661472797393798828125" lon="6.88832455314695835113525390625">
        <ele>206</ele>
        <time>2026-04-22T10:14:16.000Z</time>
        <extensions>
          <ns3:TrackPointExtension>
            <ns3:hr>126</ns3:hr>
            <ns3:cad>46</ns3:cad>
          </ns3:TrackPointExtension>
        </extensions>
      </trkpt>
      <trkpt lat="49.84686057083308696746826171875" lon="6.88832924701273441314697265625">
        <ele>206.600006103515625</ele>
        <time>2026-04-22T10:14:22.000Z</time>
        <extensions>
          <ns3:TrackPointExtension>
            <ns3:hr>126</ns3:hr>
            <ns3:cad>46</ns3:cad>
          </ns3:TrackPointExtension>
        </extensions>
      </trkpt>
      <trkpt lat="49.84688973985612392425537109375" lon="6.8883030116558074951171875">
        <ele>206.600006103515625</ele>
        <time>2026-04-22T10:14:24.000Z</time>
        <extensions>
          <ns3:TrackPointExtension>
            <ns3:hr>126</ns3:hr>
            <ns3:cad>46</ns3:cad>
          </ns3:TrackPointExtension>
        </extensions>
      </trkpt>
      <trkpt lat="49.84696350060403347015380859375" lon="6.88827828504145145416259765625">
        <ele>207.1999969482421875</ele>
        <time>2026-04-22T10:14:30.000Z</time>
        <extensions>
          <ns3:TrackPointExtension>
            <ns3:hr>126</ns3:hr>
            <ns3:cad>45</ns3:cad>
          </ns3:TrackPointExtension>
        </extensions>
      </trkpt>
      <trkpt lat="49.84698059968650341033935546875" lon="6.88827660866081714630126953125">
        <ele>207.600006103515625</ele>
        <time>2026-04-22T10:14:31.000Z</time>
        <extensions>
          <ns3:TrackPointExtension>
            <ns3:hr>126</ns3:hr>
            <ns3:cad>45</ns3:cad>
          </ns3:TrackPointExtension>
        </extensions>
      </trkpt>
      <trkpt lat="49.84698596410453319549560546875" lon="6.888277865946292877197265625">
        <ele>207.600006103515625</ele>
        <time>2026-04-22T10:14:32.000Z</time>
        <extensions>
          <ns3:TrackPointExtension>
            <ns3:hr>126</ns3:hr>
            <ns3:cad>45</ns3:cad>
          </ns3:TrackPointExtension>
        </extensions>
      </trkpt>
      <trkpt lat="49.84700306318700313568115234375" lon="6.88828214071691036224365234375">
        <ele>208.1999969482421875</ele>
        <time>2026-04-22T10:14:35.000Z</time>
        <extensions>
          <ns3:TrackPointExtension>
            <ns3:hr>126</ns3:hr>
            <ns3:cad>44</ns3:cad>
          </ns3:TrackPointExtension>
        </extensions>
      </trkpt>
      <trkpt lat="49.84703189693391323089599609375" lon="6.888276524841785430908203125">
        <ele>208.8000030517578125</ele>
        <time>2026-04-22T10:14:37.000Z</time>
        <extensions>
          <ns3:TrackPointExtension>
            <ns3:hr>127</ns3:hr>
            <ns3:cad>46</ns3:cad>
          </ns3:TrackPointExtension>
        </extensions>
      </trkpt>
      <trkpt lat="49.8470599763095378875732421875" lon="6.8882761895656585693359375">
        <ele>209.1999969482421875</ele>
        <time>2026-04-22T10:14:41.000Z</time>
        <extensions>
          <ns3:TrackPointExtension>
            <ns3:hr>127</ns3:hr>
            <ns3:cad>45</ns3:cad>
          </ns3:TrackPointExtension>
        </extensions>
      </trkpt>
      <trkpt lat="49.8471317254006862640380859375" lon="6.8882300890982151031494140625">
        <ele>209.8000030517578125</ele>
        <time>2026-04-22T10:14:48.000Z</time>
        <extensions>
          <ns3:TrackPointExtension>
            <ns3:hr>127</ns3:hr>
            <ns3:cad>45</ns3:cad>
          </ns3:TrackPointExtension>
        </extensions>
      </trkpt>
      <trkpt lat="49.8471391014754772186279296875" lon="6.8882213719189167022705078125">
        <ele>209.8000030517578125</ele>
        <time>2026-04-22T10:14:49.000Z</time>
        <extensions>
          <ns3:TrackPointExtension>
            <ns3:hr>127</ns3:hr>
            <ns3:cad>46</ns3:cad>
          </ns3:TrackPointExtension>
        </extensions>
      </trkpt>
      <trkpt lat="49.8471473157405853271484375" lon="6.88821508549153804779052734375">
        <ele>210</ele>
        <time>2026-04-22T10:14:50.000Z</time>
        <extensions>
          <ns3:TrackPointExtension>
            <ns3:hr>127</ns3:hr>
            <ns3:cad>46</ns3:cad>
          </ns3:TrackPointExtension>
        </extensions>
      </trkpt>
      <trkpt lat="49.84726256690919399261474609375" lon="6.888263113796710968017578125">
        <ele>210.8000030517578125</ele>
        <time>2026-04-22T10:14:58.000Z</time>
        <extensions>
          <ns3:TrackPointExtension>
            <ns3:hr>127</ns3:hr>
            <ns3:cad>47</ns3:cad>
          </ns3:TrackPointExtension>
        </extensions>
      </trkpt>
      <trkpt lat="49.84727513976395130157470703125" lon="6.8882542289793491363525390625">
        <ele>211</ele>
        <time>2026-04-22T10:14:59.000Z</time>
        <extensions>
          <ns3:TrackPointExtension>
            <ns3:hr>126</ns3:hr>
            <ns3:cad>46</ns3:cad>
          </ns3:TrackPointExtension>
        </extensions>
      </trkpt>
      <trkpt lat="49.84728477895259857177734375" lon="6.88824157230556011199951171875">
        <ele>211</ele>
        <time>2026-04-22T10:15:00.000Z</time>
        <extensions>
          <ns3:TrackPointExtension>
            <ns3:hr>126</ns3:hr>
            <ns3:cad>46</ns3:cad>
          </ns3:TrackPointExtension>
        </extensions>
      </trkpt>
      <trkpt lat="49.847316630184650421142578125" lon="6.8882280774414539337158203125">
        <ele>211.600006103515625</ele>
        <time>2026-04-22T10:15:04.000Z</time>
        <extensions>
          <ns3:TrackPointExtension>
            <ns3:hr>127</ns3:hr>
            <ns3:cad>48</ns3:cad>
          </ns3:TrackPointExtension>
        </extensions>
      </trkpt>
      <trkpt lat="49.8473224975168704986572265625" lon="6.888230927288532257080078125">
        <ele>211.600006103515625</ele>
        <time>2026-04-22T10:15:05.000Z</time>
        <extensions>
          <ns3:TrackPointExtension>
            <ns3:hr>127</ns3:hr>
            <ns3:cad>47</ns3:cad>
          </ns3:TrackPointExtension>
        </extensions>
      </trkpt>
      <trkpt lat="49.84735786914825439453125" lon="6.88817334361374378204345703125">
        <ele>212</ele>
        <time>2026-04-22T10:15:10.000Z</time>
        <extensions>
          <ns3:TrackPointExtension>
            <ns3:hr>128</ns3:hr>
            <ns3:cad>47</ns3:cad>
          </ns3:TrackPointExtension>
        </extensions>
      </trkpt>
      <trkpt lat="49.84738863073289394378662109375" lon="6.88815289177000522613525390625">
        <ele>212</ele>
        <time>2026-04-22T10:15:13.000Z</time>
        <extensions>
          <ns3:TrackPointExtension>
            <ns3:hr>128</ns3:hr>
            <ns3:cad>47</ns3:cad>
          </ns3:TrackPointExtension>
        </extensions>
      </trkpt>
      <trkpt lat="49.84746725298464298248291015625" lon="6.88810427673161029815673828125">
        <ele>212.600006103515625</ele>
        <time>2026-04-22T10:15:21.000Z</time>
        <extensions>
          <ns3:TrackPointExtension>
            <ns3:hr>126</ns3:hr>
            <ns3:cad>47</ns3:cad>
          </ns3:TrackPointExtension>
        </extensions>
      </trkpt>
      <trkpt lat="49.8474995233118534088134765625" lon="6.8880775384604930877685546875">
        <ele>212.8000030517578125</ele>
        <time>2026-04-22T10:15:25.000Z</time>
        <extensions>
          <ns3:TrackPointExtension>
            <ns3:hr>126</ns3:hr>
            <ns3:cad>47</ns3:cad>
          </ns3:TrackPointExtension>
        </extensions>
      </trkpt>
      <trkpt lat="49.84752592630684375762939453125" lon="6.88807309605181217193603515625">
        <ele>213</ele>
        <time>2026-04-22T10:15:28.000Z</time>
        <extensions>
          <ns3:TrackPointExtension>
            <ns3:hr>125</ns3:hr>
            <ns3:cad>47</ns3:cad>
          </ns3:TrackPointExtension>
        </extensions>
      </trkpt>
      <trkpt lat="49.847533889114856719970703125" lon="6.88806496560573577880859375">
        <ele>213</ele>
        <time>2026-04-22T10:15:29.000Z</time>
        <extensions>
          <ns3:TrackPointExtension>
            <ns3:hr>125</ns3:hr>
            <ns3:cad>47</ns3:cad>
          </ns3:TrackPointExtension>
        </extensions>
      </trkpt>
      <trkpt lat="49.84754419885575771331787109375" lon="6.88806186430156230926513671875">
        <ele>213</ele>
        <time>2026-04-22T10:15:30.000Z</time>
        <extensions>
          <ns3:TrackPointExtension>
            <ns3:hr>126</ns3:hr>
            <ns3:cad>47</ns3:cad>
          </ns3:TrackPointExtension>
        </extensions>
      </trkpt>
      <trkpt lat="49.8476245813071727752685546875" lon="6.88798760063946247100830078125">
        <ele>213.399993896484375</ele>
        <time>2026-04-22T10:15:38.000Z</time>
        <extensions>
          <ns3:TrackPointExtension>
            <ns3:hr>126</ns3:hr>
            <ns3:cad>49</ns3:cad>
          </ns3:TrackPointExtension>
        </extensions>
      </trkpt>
      <trkpt lat="49.84765760600566864013671875" lon="6.88795172609388828277587890625">
        <ele>213.399993896484375</ele>
        <time>2026-04-22T10:15:42.000Z</time>
        <extensions>
          <ns3:TrackPointExtension>
            <ns3:hr>125</ns3:hr>
            <ns3:cad>50</ns3:cad>
          </ns3:TrackPointExtension>
        </extensions>
      </trkpt>
      <trkpt lat="49.847681410610675811767578125" lon="6.8879323638975620269775390625">
        <ele>213.399993896484375</ele>
        <time>2026-04-22T10:15:44.000Z</time>
        <extensions>
          <ns3:TrackPointExtension>
            <ns3:hr>125</ns3:hr>
            <ns3:cad>50</ns3:cad>
          </ns3:TrackPointExtension>
        </extensions>
      </trkpt>
      <trkpt lat="49.8477563448250293731689453125" lon="6.88786338083446025848388671875">
        <ele>213.399993896484375</ele>
        <time>2026-04-22T10:15:52.000Z</time>
        <extensions>
          <ns3:TrackPointExtension>
            <ns3:hr>125</ns3:hr>
            <ns3:cad>53</ns3:cad>
          </ns3:TrackPointExtension>
        </extensions>
      </trkpt>
      <trkpt lat="49.84777436591684818267822265625" lon="6.88785416074097156524658203125">
        <ele>213.1999969482421875</ele>
        <time>2026-04-22T10:15:54.000Z</time>
        <extensions>
          <ns3:TrackPointExtension>
            <ns3:hr>125</ns3:hr>
            <ns3:cad>53</ns3:cad>
          </ns3:TrackPointExtension>
        </extensions>
      </trkpt>
      <trkpt lat="49.84779900871217250823974609375" lon="6.88783161342144012451171875">
        <ele>213.1999969482421875</ele>
        <time>2026-04-22T10:15:57.000Z</time>
        <extensions>
          <ns3:TrackPointExtension>
            <ns3:hr>124</ns3:hr>
            <ns3:cad>52</ns3:cad>
          </ns3:TrackPointExtension>
        </extensions>
      </trkpt>
      <trkpt lat="49.84784075058996677398681640625" lon="6.8877746164798736572265625">
        <ele>214</ele>
        <time>2026-04-22T10:16:03.000Z</time>
        <extensions>
          <ns3:TrackPointExtension>
            <ns3:hr>123</ns3:hr>
            <ns3:cad>47</ns3:cad>
          </ns3:TrackPointExtension>
        </extensions>
      </trkpt>
      <trkpt lat="49.8478562571108341217041015625" lon="6.8877727724611759185791015625">
        <ele>214</ele>
        <time>2026-04-22T10:16:04.000Z</time>
        <extensions>
          <ns3:TrackPointExtension>
            <ns3:hr>123</ns3:hr>
            <ns3:cad>47</ns3:cad>
          </ns3:TrackPointExtension>
        </extensions>
      </trkpt>
      <trkpt lat="49.84791736118495464324951171875" lon="6.88770848326385021209716796875">
        <ele>214</ele>
        <time>2026-04-22T10:16:10.000Z</time>
        <extensions>
          <ns3:TrackPointExtension>
            <ns3:hr>123</ns3:hr>
            <ns3:cad>48</ns3:cad>
          </ns3:TrackPointExtension>
        </extensions>
      </trkpt>
      <trkpt lat="49.84800838865339756011962890625" lon="6.88769289292395114898681640625">
        <ele>214</ele>
        <time>2026-04-22T10:16:17.000Z</time>
        <extensions>
          <ns3:TrackPointExtension>
            <ns3:hr>123</ns3:hr>
            <ns3:cad>49</ns3:cad>
          </ns3:TrackPointExtension>
        </extensions>
      </trkpt>
      <trkpt lat="49.8480619490146636962890625" lon="6.8876700103282928466796875">
        <ele>214.1999969482421875</ele>
        <time>2026-04-22T10:16:23.000Z</time>
        <extensions>
          <ns3:TrackPointExtension>
            <ns3:hr>123</ns3:hr>
            <ns3:cad>0</ns3:cad>
          </ns3:TrackPointExtension>
        </extensions>
      </trkpt>
      <trkpt lat="49.848109893500804901123046875" lon="6.88766623847186565399169921875">
        <ele>214.600006103515625</ele>
        <time>2026-04-22T10:16:26.000Z</time>
        <extensions>
          <ns3:TrackPointExtension>
            <ns3:hr>122</ns3:hr>
            <ns3:cad>0</ns3:cad>
          </ns3:TrackPointExtension>
        </extensions>
      </trkpt>
      <trkpt lat="49.84815892763435840606689453125" lon="6.8876557610929012298583984375">
        <ele>214.600006103515625</ele>
        <time>2026-04-22T10:16:30.000Z</time>
        <extensions>
          <ns3:TrackPointExtension>
            <ns3:hr>122</ns3:hr>
            <ns3:cad>0</ns3:cad>
          </ns3:TrackPointExtension>
        </extensions>
      </trkpt>
      <trkpt lat="49.84825850464403629302978515625" lon="6.88764578662812709808349609375">
        <ele>214.8000030517578125</ele>
        <time>2026-04-22T10:16:38.000Z</time>
        <extensions>
          <ns3:TrackPointExtension>
            <ns3:hr>123</ns3:hr>
            <ns3:cad>51</ns3:cad>
          </ns3:TrackPointExtension>
        </extensions>
      </trkpt>
      <trkpt lat="49.84832371585071086883544921875" lon="6.88760354183614253997802734375">
        <ele>214.8000030517578125</ele>
        <time>2026-04-22T10:16:46.000Z</time>
        <extensions>
          <ns3:TrackPointExtension>
            <ns3:hr>122</ns3:hr>
            <ns3:cad>52</ns3:cad>
          </ns3:TrackPointExtension>
        </extensions>
      </trkpt>
      <trkpt lat="49.84835523180663585662841796875" lon="6.8875957466661930084228515625">
        <ele>215.1999969482421875</ele>
        <time>2026-04-22T10:16:49.000Z</time>
        <extensions>
          <ns3:TrackPointExtension>
            <ns3:hr>122</ns3:hr>
            <ns3:cad>52</ns3:cad>
          </ns3:TrackPointExtension>
        </extensions>
      </trkpt>
      <trkpt lat="49.84836512245237827301025390625" lon="6.88758644275367259979248046875">
        <ele>215.1999969482421875</ele>
        <time>2026-04-22T10:16:50.000Z</time>
        <extensions>
          <ns3:TrackPointExtension>
            <ns3:hr>122</ns3:hr>
            <ns3:cad>52</ns3:cad>
          </ns3:TrackPointExtension>
        </extensions>
      </trkpt>
      <trkpt lat="49.84839429147541522979736328125" lon="6.88756012357771396636962890625">
        <ele>215.399993896484375</ele>
        <time>2026-04-22T10:16:53.000Z</time>
        <extensions>
          <ns3:TrackPointExtension>
            <ns3:hr>122</ns3:hr>
            <ns3:cad>52</ns3:cad>
          </ns3:TrackPointExtension>
        </extensions>
      </trkpt>
      <trkpt lat="49.84843838028609752655029296875" lon="6.88753648661077022552490234375">
        <ele>215.1999969482421875</ele>
        <time>2026-04-22T10:16:57.000Z</time>
        <extensions>
          <ns3:TrackPointExtension>
            <ns3:hr>122</ns3:hr>
            <ns3:cad>52</ns3:cad>
          </ns3:TrackPointExtension>
        </extensions>
      </trkpt>
      <trkpt lat="49.84846922568976879119873046875" lon="6.887512095272541046142578125">
        <ele>215.1999969482421875</ele>
        <time>2026-04-22T10:17:00.000Z</time>
        <extensions>
          <ns3:TrackPointExtension>
            <ns3:hr>122</ns3:hr>
            <ns3:cad>52</ns3:cad>
          </ns3:TrackPointExtension>
        </extensions>
      </trkpt>
      <trkpt lat="49.84853460453450679779052734375" lon="6.88743120990693569183349609375">
        <ele>215</ele>
        <time>2026-04-22T10:17:07.000Z</time>
        <extensions>
          <ns3:TrackPointExtension>
            <ns3:hr>124</ns3:hr>
            <ns3:cad>53</ns3:cad>
          </ns3:TrackPointExtension>
        </extensions>
      </trkpt>
      <trkpt lat="49.84862127341330051422119140625" lon="6.88738008029758930206298828125">
        <ele>214.8000030517578125</ele>
        <time>2026-04-22T10:17:13.000Z</time>
        <extensions>
          <ns3:TrackPointExtension>
            <ns3:hr>123</ns3:hr>
            <ns3:cad>53</ns3:cad>
          </ns3:TrackPointExtension>
        </extensions>
      </trkpt>
      <trkpt lat="49.8486408032476902008056640625" lon="6.88736834563314914703369140625">
        <ele>214.8000030517578125</ele>
        <time>2026-04-22T10:17:15.000Z</time>
        <extensions>
          <ns3:TrackPointExtension>
            <ns3:hr>122</ns3:hr>
            <ns3:cad>53</ns3:cad>
          </ns3:TrackPointExtension>
        </extensions>
      </trkpt>
      <trkpt lat="49.848717749118804931640625" lon="6.88732140697538852691650390625">
        <ele>215</ele>
        <time>2026-04-22T10:17:23.000Z</time>
        <extensions>
          <ns3:TrackPointExtension>
            <ns3:hr>122</ns3:hr>
            <ns3:cad>51</ns3:cad>
          </ns3:TrackPointExtension>
        </extensions>
      </trkpt>
      <trkpt lat="49.84874431975185871124267578125" lon="6.88731704838573932647705078125">
        <ele>215</ele>
        <time>2026-04-22T10:17:24.000Z</time>
        <extensions>
          <ns3:TrackPointExtension>
            <ns3:hr>122</ns3:hr>
            <ns3:cad>51</ns3:cad>
          </ns3:TrackPointExtension>
        </extensions>
      </trkpt>
      <trkpt lat="49.84875865280628204345703125" lon="6.8873281963169574737548828125">
        <ele>215.1999969482421875</ele>
        <time>2026-04-22T10:17:28.000Z</time>
        <extensions>
          <ns3:TrackPointExtension>
            <ns3:hr>122</ns3:hr>
            <ns3:cad>50</ns3:cad>
          </ns3:TrackPointExtension>
        </extensions>
      </trkpt>
      <trkpt lat="49.84882730059325695037841796875" lon="6.88727161847054958343505859375">
        <ele>215.8000030517578125</ele>
        <time>2026-04-22T10:17:36.000Z</time>
        <extensions>
          <ns3:TrackPointExtension>
            <ns3:hr>122</ns3:hr>
            <ns3:cad>50</ns3:cad>
          </ns3:TrackPointExtension>
        </extensions>
      </trkpt>
      <trkpt lat="49.84886954538524150848388671875" lon="6.88726424239575862884521484375">
        <ele>216.1999969482421875</ele>
        <time>2026-04-22T10:17:41.000Z</time>
        <extensions>
          <ns3:TrackPointExtension>
            <ns3:hr>122</ns3:hr>
            <ns3:cad>50</ns3:cad>
          </ns3:TrackPointExtension>
        </extensions>
      </trkpt>
      <trkpt lat="49.84887943603098392486572265625" lon="6.88726692460477352142333984375">
        <ele>216.1999969482421875</ele>
        <time>2026-04-22T10:17:42.000Z</time>
        <extensions>
          <ns3:TrackPointExtension>
            <ns3:hr>122</ns3:hr>
            <ns3:cad>51</ns3:cad>
          </ns3:TrackPointExtension>
        </extensions>
      </trkpt>
      <trkpt lat="49.84889586456120014190673828125" lon="6.88726340420544147491455078125">
        <ele>216.1999969482421875</ele>
        <time>2026-04-22T10:17:43.000Z</time>
        <extensions>
          <ns3:TrackPointExtension>
            <ns3:hr>122</ns3:hr>
            <ns3:cad>51</ns3:cad>
          </ns3:TrackPointExtension>
        </extensions>
      </trkpt>
      <trkpt lat="49.84899141825735569000244140625" lon="6.88724647276103496551513671875">
        <ele>216.8000030517578125</ele>
        <time>2026-04-22T10:17:49.000Z</time>
        <extensions>
          <ns3:TrackPointExtension>
            <ns3:hr>124</ns3:hr>
            <ns3:cad>50</ns3:cad>
          </ns3:TrackPointExtension>
        </extensions>
      </trkpt>
      <trkpt lat="49.8490414582192897796630859375" lon="6.88726373948156833648681640625">
        <ele>217.1999969482421875</ele>
        <time>2026-04-22T10:17:53.000Z</time>
        <extensions>
          <ns3:TrackPointExtension>
            <ns3:hr>124</ns3:hr>
            <ns3:cad>0</ns3:cad>
          </ns3:TrackPointExtension>
        </extensions>
      </trkpt>
      <trkpt lat="49.8490837030112743377685546875" lon="6.88727614469826221466064453125">
        <ele>217.600006103515625</ele>
        <time>2026-04-22T10:17:57.000Z</time>
        <extensions>
          <ns3:TrackPointExtension>
            <ns3:hr>124</ns3:hr>
            <ns3:cad>50</ns3:cad>
          </ns3:TrackPointExtension>
        </extensions>
      </trkpt>
      <trkpt lat="49.8491638340055942535400390625" lon="6.88730581663548946380615234375">
        <ele>217.8000030517578125</ele>
        <time>2026-04-22T10:18:04.000Z</time>
        <extensions>
          <ns3:TrackPointExtension>
            <ns3:hr>124</ns3:hr>
            <ns3:cad>51</ns3:cad>
          </ns3:TrackPointExtension>
        </extensions>
      </trkpt>
      <trkpt lat="49.849196188151836395263671875" lon="6.887306906282901763916015625">
        <ele>217.8000030517578125</ele>
        <time>2026-04-22T10:18:07.000Z</time>
        <extensions>
          <ns3:TrackPointExtension>
            <ns3:hr>124</ns3:hr>
            <ns3:cad>49</ns3:cad>
          </ns3:TrackPointExtension>
        </extensions>
      </trkpt>
      <trkpt lat="49.84927095472812652587890625" lon="6.88732174225151538848876953125">
        <ele>218.1999969482421875</ele>
        <time>2026-04-22T10:18:12.000Z</time>
        <extensions>
          <ns3:TrackPointExtension>
            <ns3:hr>123</ns3:hr>
            <ns3:cad>49</ns3:cad>
          </ns3:TrackPointExtension>
        </extensions>
      </trkpt>
      <trkpt lat="49.84926282428205013275146484375" lon="6.88732869923114776611328125">
        <ele>218.1999969482421875</ele>
        <time>2026-04-22T10:18:14.000Z</time>
        <extensions>
          <ns3:TrackPointExtension>
            <ns3:hr>123</ns3:hr>
            <ns3:cad>49</ns3:cad>
          </ns3:TrackPointExtension>
        </extensions>
      </trkpt>
      <trkpt lat="49.849261902272701263427734375" lon="6.88733096234500408172607421875">
        <ele>218.1999969482421875</ele>
        <time>2026-04-22T10:18:15.000Z</time>
        <extensions>
          <ns3:TrackPointExtension>
            <ns3:hr>123</ns3:hr>
            <ns3:cad>49</ns3:cad>
          </ns3:TrackPointExtension>
        </extensions>
      </trkpt>
      <trkpt lat="49.84928897581994533538818359375" lon="6.88734319992363452911376953125">
        <ele>218.1999969482421875</ele>
        <time>2026-04-22T10:18:17.000Z</time>
        <extensions>
          <ns3:TrackPointExtension>
            <ns3:hr>123</ns3:hr>
            <ns3:cad>49</ns3:cad>
          </ns3:TrackPointExtension>
        </extensions>
      </trkpt>
      <trkpt lat="49.84932384453713893890380859375" lon="6.88726893626153469085693359375">
        <ele>218.399993896484375</ele>
        <time>2026-04-22T10:18:20.000Z</time>
        <extensions>
          <ns3:TrackPointExtension>
            <ns3:hr>123</ns3:hr>
            <ns3:cad>53</ns3:cad>
          </ns3:TrackPointExtension>
        </extensions>
      </trkpt>
      <trkpt lat="49.84938620589673519134521484375" lon="6.88727295957505702972412109375">
        <ele>218.1999969482421875</ele>
        <time>2026-04-22T10:18:27.000Z</time>
        <extensions>
          <ns3:TrackPointExtension>
            <ns3:hr>124</ns3:hr>
            <ns3:cad>0</ns3:cad>
          </ns3:TrackPointExtension>
        </extensions>
      </trkpt>
      <trkpt lat="49.84947807155549526214599609375" lon="6.88727094791829586029052734375">
        <ele>217.1999969482421875</ele>
        <time>2026-04-22T10:18:37.000Z</time>
        <extensions>
          <ns3:TrackPointExtension>
            <ns3:hr>123</ns3:hr>
            <ns3:cad>53</ns3:cad>
          </ns3:TrackPointExtension>
        </extensions>
      </trkpt>
      <trkpt lat="49.849572367966175079345703125" lon="6.8872353248298168182373046875">
        <ele>216.8000030517578125</ele>
        <time>2026-04-22T10:18:46.000Z</time>
        <extensions>
          <ns3:TrackPointExtension>
            <ns3:hr>122</ns3:hr>
            <ns3:cad>55</ns3:cad>
          </ns3:TrackPointExtension>
        </extensions>
      </trkpt>
      <trkpt lat="49.84963615424931049346923828125" lon="6.88725250773131847381591796875">
        <ele>216.1999969482421875</ele>
        <time>2026-04-22T10:18:52.000Z</time>
        <extensions>
          <ns3:TrackPointExtension>
            <ns3:hr>121</ns3:hr>
            <ns3:cad>53</ns3:cad>
          </ns3:TrackPointExtension>
        </extensions>
      </trkpt>
      <trkpt lat="49.849642775952816009521484375" lon="6.88725099898874759674072265625">
        <ele>216.1999969482421875</ele>
        <time>2026-04-22T10:18:53.000Z</time>
        <extensions>
          <ns3:TrackPointExtension>
            <ns3:hr>120</ns3:hr>
            <ns3:cad>53</ns3:cad>
          </ns3:TrackPointExtension>
        </extensions>
      </trkpt>
      <trkpt lat="49.849740676581859588623046875" lon="6.8872623145580291748046875">
        <ele>215.600006103515625</ele>
        <time>2026-04-22T10:19:00.000Z</time>
        <extensions>
          <ns3:TrackPointExtension>
            <ns3:hr>120</ns3:hr>
            <ns3:cad>53</ns3:cad>
          </ns3:TrackPointExtension>
        </extensions>
      </trkpt>
      <trkpt lat="49.8498635552823543548583984375" lon="6.88721965067088603973388671875">
        <ele>215.399993896484375</ele>
        <time>2026-04-22T10:19:09.000Z</time>
        <extensions>
          <ns3:TrackPointExtension>
            <ns3:hr>119</ns3:hr>
            <ns3:cad>0</ns3:cad>
          </ns3:TrackPointExtension>
        </extensions>
      </trkpt>
      <trkpt lat="49.84994762577116489410400390625" lon="6.88725653104484081268310546875">
        <ele>215.600006103515625</ele>
        <time>2026-04-22T10:19:16.000Z</time>
        <extensions>
          <ns3:TrackPointExtension>
            <ns3:hr>118</ns3:hr>
            <ns3:cad>0</ns3:cad>
          </ns3:TrackPointExtension>
        </extensions>
      </trkpt>
      <trkpt lat="49.8500087298452854156494140625" lon="6.88725049607455730438232421875">
        <ele>215.600006103515625</ele>
        <time>2026-04-22T10:19:23.000Z</time>
        <extensions>
          <ns3:TrackPointExtension>
            <ns3:hr>118</ns3:hr>
            <ns3:cad>52</ns3:cad>
          </ns3:TrackPointExtension>
        </extensions>
      </trkpt>
      <trkpt lat="49.85006220638751983642578125" lon="6.8872569501399993896484375">
        <ele>215.8000030517578125</ele>
        <time>2026-04-22T10:19:28.000Z</time>
        <extensions>
          <ns3:TrackPointExtension>
            <ns3:hr>118</ns3:hr>
            <ns3:cad>0</ns3:cad>
          </ns3:TrackPointExtension>
        </extensions>
      </trkpt>
      <trkpt lat="49.85012632794678211212158203125" lon="6.88727027736604213714599609375">
        <ele>216</ele>
        <time>2026-04-22T10:19:34.000Z</time>
        <extensions>
          <ns3:TrackPointExtension>
            <ns3:hr>119</ns3:hr>
            <ns3:cad>51</ns3:cad>
          </ns3:TrackPointExtension>
        </extensions>
      </trkpt>
      <trkpt lat="49.85022087581455707550048828125" lon="6.88734479248523712158203125">
        <ele>216</ele>
        <time>2026-04-22T10:19:42.000Z</time>
        <extensions>
          <ns3:TrackPointExtension>
            <ns3:hr>119</ns3:hr>
            <ns3:cad>52</ns3:cad>
          </ns3:TrackPointExtension>
        </extensions>
      </trkpt>
      <trkpt lat="49.8502430878579616546630859375" lon="6.88734923489391803741455078125">
        <ele>216</ele>
        <time>2026-04-22T10:19:44.000Z</time>
        <extensions>
          <ns3:TrackPointExtension>
            <ns3:hr>119</ns3:hr>
            <ns3:cad>52</ns3:cad>
          </ns3:TrackPointExtension>
        </extensions>
      </trkpt>
      <trkpt lat="49.8503148369491100311279296875" lon="6.88736683689057826995849609375">
        <ele>216.1999969482421875</ele>
        <time>2026-04-22T10:19:48.000Z</time>
        <extensions>
          <ns3:TrackPointExtension>
            <ns3:hr>119</ns3:hr>
            <ns3:cad>53</ns3:cad>
          </ns3:TrackPointExtension>
        </extensions>
      </trkpt>
      <trkpt lat="49.8503745160996913909912109375" lon="6.88733112998306751251220703125">
        <ele>216.399993896484375</ele>
        <time>2026-04-22T10:19:55.000Z</time>
        <extensions>
          <ns3:TrackPointExtension>
            <ns3:hr>119</ns3:hr>
            <ns3:cad>53</ns3:cad>
          </ns3:TrackPointExtension>
        </extensions>
      </trkpt>
      <trkpt lat="49.85048892907798290252685546875" lon="6.88737035728991031646728515625">
        <ele>216.8000030517578125</ele>
        <time>2026-04-22T10:20:03.000Z</time>
        <extensions>
          <ns3:TrackPointExtension>
            <ns3:hr>120</ns3:hr>
            <ns3:cad>0</ns3:cad>
          </ns3:TrackPointExtension>
        </extensions>
      </trkpt>
      <trkpt lat="49.85055296681821346282958984375" lon="6.887388713657855987548828125">
        <ele>217</ele>
        <time>2026-04-22T10:20:08.000Z</time>
        <extensions>
          <ns3:TrackPointExtension>
            <ns3:hr>120</ns3:hr>
            <ns3:cad>0</ns3:cad>
          </ns3:TrackPointExtension>
        </extensions>
      </trkpt>
      <trkpt lat="49.85057006590068340301513671875" lon="6.8873969279229640960693359375">
        <ele>217</ele>
        <time>2026-04-22T10:20:09.000Z</time>
        <extensions>
          <ns3:TrackPointExtension>
            <ns3:hr>120</ns3:hr>
            <ns3:cad>0</ns3:cad>
          </ns3:TrackPointExtension>
        </extensions>
      </trkpt>
      <trkpt lat="49.85059722326695919036865234375" lon="6.887390054762363433837890625">
        <ele>217</ele>
        <time>2026-04-22T10:20:12.000Z</time>
        <extensions>
          <ns3:TrackPointExtension>
            <ns3:hr>121</ns3:hr>
            <ns3:cad>52</ns3:cad>
          </ns3:TrackPointExtension>
        </extensions>
      </trkpt>
      <trkpt lat="49.85061499290168285369873046875" lon="6.88741494901478290557861328125">
        <ele>216.8000030517578125</ele>
        <time>2026-04-22T10:20:14.000Z</time>
        <extensions>
          <ns3:TrackPointExtension>
            <ns3:hr>120</ns3:hr>
            <ns3:cad>0</ns3:cad>
          </ns3:TrackPointExtension>
        </extensions>
      </trkpt>
      <trkpt lat="49.8507154919207096099853515625" lon="6.88741411082446575164794921875">
        <ele>216.8000030517578125</ele>
        <time>2026-04-22T10:20:24.000Z</time>
        <extensions>
          <ns3:TrackPointExtension>
            <ns3:hr>120</ns3:hr>
            <ns3:cad>0</ns3:cad>
          </ns3:TrackPointExtension>
        </extensions>
      </trkpt>
      <trkpt lat="49.850782714784145355224609375" lon="6.88739181496202945709228515625">
        <ele>216.8000030517578125</ele>
        <time>2026-04-22T10:20:31.000Z</time>
        <extensions>
          <ns3:TrackPointExtension>
            <ns3:hr>119</ns3:hr>
            <ns3:cad>0</ns3:cad>
          </ns3:TrackPointExtension>
        </extensions>
      </trkpt>
      <trkpt lat="49.85079721547663211822509765625" lon="6.88739298842847347259521484375">
        <ele>216.8000030517578125</ele>
        <time>2026-04-22T10:20:32.000Z</time>
        <extensions>
          <ns3:TrackPointExtension>
            <ns3:hr>119</ns3:hr>
            <ns3:cad>0</ns3:cad>
          </ns3:TrackPointExtension>
        </extensions>
      </trkpt>
      <trkpt lat="49.85083560459315776824951171875" lon="6.8873925693333148956298828125">
        <ele>216.8000030517578125</ele>
        <time>2026-04-22T10:20:35.000Z</time>
        <extensions>
          <ns3:TrackPointExtension>
            <ns3:hr>119</ns3:hr>
            <ns3:cad>54</ns3:cad>
          </ns3:TrackPointExtension>
        </extensions>
      </trkpt>
      <trkpt lat="49.85084599815309047698974609375" lon="6.8873918987810611724853515625">
        <ele>216.8000030517578125</ele>
        <time>2026-04-22T10:20:36.000Z</time>
        <extensions>
          <ns3:TrackPointExtension>
            <ns3:hr>119</ns3:hr>
            <ns3:cad>54</ns3:cad>
          </ns3:TrackPointExtension>
        </extensions>
      </trkpt>
      <trkpt lat="49.85087516717612743377685546875" lon="6.88740673474967479705810546875">
        <ele>216.8000030517578125</ele>
        <time>2026-04-22T10:20:38.000Z</time>
        <extensions>
          <ns3:TrackPointExtension>
            <ns3:hr>119</ns3:hr>
            <ns3:cad>55</ns3:cad>
          </ns3:TrackPointExtension>
        </extensions>
      </trkpt>
      <trkpt lat="49.85093057155609130859375" lon="6.88740841113030910491943359375">
        <ele>216.8000030517578125</ele>
        <time>2026-04-22T10:20:43.000Z</time>
        <extensions>
          <ns3:TrackPointExtension>
            <ns3:hr>119</ns3:hr>
            <ns3:cad>56</ns3:cad>
          </ns3:TrackPointExtension>
        </extensions>
      </trkpt>
      <trkpt lat="49.8510212637484073638916015625" lon="6.88740941695868968963623046875">
        <ele>216.8000030517578125</ele>
        <time>2026-04-22T10:20:50.000Z</time>
        <extensions>
          <ns3:TrackPointExtension>
            <ns3:hr>119</ns3:hr>
            <ns3:cad>53</ns3:cad>
          </ns3:TrackPointExtension>
        </extensions>
      </trkpt>
      <trkpt lat="49.8510266281664371490478515625" lon="6.8874153681099414825439453125">
        <ele>216.8000030517578125</ele>
        <time>2026-04-22T10:20:51.000Z</time>
        <extensions>
          <ns3:TrackPointExtension>
            <ns3:hr>119</ns3:hr>
            <ns3:cad>53</ns3:cad>
          </ns3:TrackPointExtension>
        </extensions>
      </trkpt>
      <trkpt lat="49.85105906613171100616455078125" lon="6.887440346181392669677734375">
        <ele>217</ele>
        <time>2026-04-22T10:20:54.000Z</time>
        <extensions>
          <ns3:TrackPointExtension>
            <ns3:hr>119</ns3:hr>
            <ns3:cad>48</ns3:cad>
          </ns3:TrackPointExtension>
        </extensions>
      </trkpt>
      <trkpt lat="49.8510816134512424468994140625" lon="6.88743925653398036956787109375">
        <ele>217</ele>
        <time>2026-04-22T10:20:56.000Z</time>
        <extensions>
          <ns3:TrackPointExtension>
            <ns3:hr>119</ns3:hr>
            <ns3:cad>48</ns3:cad>
          </ns3:TrackPointExtension>
        </extensions>
      </trkpt>
      <trkpt lat="49.85109041444957256317138671875" lon="6.88743330538272857666015625">
        <ele>217</ele>
        <time>2026-04-22T10:20:57.000Z</time>
        <extensions>
          <ns3:TrackPointExtension>
            <ns3:hr>119</ns3:hr>
            <ns3:cad>48</ns3:cad>
          </ns3:TrackPointExtension>
        </extensions>
      </trkpt>
      <trkpt lat="49.85110114328563213348388671875" lon="6.88742869533598423004150390625">
        <ele>217.1999969482421875</ele>
        <time>2026-04-22T10:20:58.000Z</time>
        <extensions>
          <ns3:TrackPointExtension>
            <ns3:hr>119</ns3:hr>
            <ns3:cad>48</ns3:cad>
          </ns3:TrackPointExtension>
        </extensions>
      </trkpt>
      <trkpt lat="49.8511587269604206085205078125" lon="6.88746792264282703399658203125">
        <ele>217</ele>
        <time>2026-04-22T10:21:04.000Z</time>
        <extensions>
          <ns3:TrackPointExtension>
            <ns3:hr>120</ns3:hr>
            <ns3:cad>51</ns3:cad>
          </ns3:TrackPointExtension>
        </extensions>
      </trkpt>
      <trkpt lat="49.8512710444629192352294921875" lon="6.887470185756683349609375">
        <ele>217</ele>
        <time>2026-04-22T10:21:14.000Z</time>
        <extensions>
          <ns3:TrackPointExtension>
            <ns3:hr>120</ns3:hr>
            <ns3:cad>53</ns3:cad>
          </ns3:TrackPointExtension>
        </extensions>
      </trkpt>
      <trkpt lat="49.8513394407927989959716796875" lon="6.88746658153831958770751953125">
        <ele>217.1999969482421875</ele>
        <time>2026-04-22T10:21:20.000Z</time>
        <extensions>
          <ns3:TrackPointExtension>
            <ns3:hr>119</ns3:hr>
            <ns3:cad>0</ns3:cad>
          </ns3:TrackPointExtension>
        </extensions>
      </trkpt>
      <trkpt lat="49.851377494633197784423828125" lon="6.887460462749004364013671875">
        <ele>217.399993896484375</ele>
        <time>2026-04-22T10:21:23.000Z</time>
        <extensions>
          <ns3:TrackPointExtension>
            <ns3:hr>119</ns3:hr>
            <ns3:cad>0</ns3:cad>
          </ns3:TrackPointExtension>
        </extensions>
      </trkpt>
      <trkpt lat="49.85138663090765476226806640625" lon="6.887465827167034149169921875">
        <ele>217.399993896484375</ele>
        <time>2026-04-22T10:21:24.000Z</time>
        <extensions>
          <ns3:TrackPointExtension>
            <ns3:hr>119</ns3:hr>
            <ns3:cad>0</ns3:cad>
          </ns3:TrackPointExtension>
        </extensions>
      </trkpt>
      <trkpt lat="49.85141001641750335693359375" lon="6.88746909610927104949951171875">
        <ele>217.399993896484375</ele>
        <time>2026-04-22T10:21:26.000Z</time>
        <extensions>
          <ns3:TrackPointExtension>
            <ns3:hr>120</ns3:hr>
            <ns3:cad>0</ns3:cad>
          </ns3:TrackPointExtension>
        </extensions>
      </trkpt>
      <trkpt lat="49.851427115499973297119140625" lon="6.8874807469546794891357421875">
        <ele>217.600006103515625</ele>
        <time>2026-04-22T10:21:30.000Z</time>
        <extensions>
          <ns3:TrackPointExtension>
            <ns3:hr>121</ns3:hr>
            <ns3:cad>0</ns3:cad>
          </ns3:TrackPointExtension>
        </extensions>
      </trkpt>
      <trkpt lat="49.8515000380575656890869140625" lon="6.8874542601406574249267578125">
        <ele>218</ele>
        <time>2026-04-22T10:21:36.000Z</time>
        <extensions>
          <ns3:TrackPointExtension>
            <ns3:hr>122</ns3:hr>
            <ns3:cad>53</ns3:cad>
          </ns3:TrackPointExtension>
        </extensions>
      </trkpt>
      <trkpt lat="49.85154907219111919403076171875" lon="6.8874415196478366851806640625">
        <ele>218.1999969482421875</ele>
        <time>2026-04-22T10:21:39.000Z</time>
        <extensions>
          <ns3:TrackPointExtension>
            <ns3:hr>123</ns3:hr>
            <ns3:cad>53</ns3:cad>
          </ns3:TrackPointExtension>
        </extensions>
      </trkpt>
      <trkpt lat="49.8515717871487140655517578125" lon="6.88745434395968914031982421875">
        <ele>218.1999969482421875</ele>
        <time>2026-04-22T10:21:41.000Z</time>
        <extensions>
          <ns3:TrackPointExtension>
            <ns3:hr>123</ns3:hr>
            <ns3:cad>53</ns3:cad>
          </ns3:TrackPointExtension>
        </extensions>
      </trkpt>
      <trkpt lat="49.85158327035605907440185546875" lon="6.887455098330974578857421875">
        <ele>218.399993896484375</ele>
        <time>2026-04-22T10:21:42.000Z</time>
        <extensions>
          <ns3:TrackPointExtension>
            <ns3:hr>123</ns3:hr>
            <ns3:cad>0</ns3:cad>
          </ns3:TrackPointExtension>
        </extensions>
      </trkpt>
      <trkpt lat="49.8516136966645717620849609375" lon="6.88745099119842052459716796875">
        <ele>218.399993896484375</ele>
        <time>2026-04-22T10:21:45.000Z</time>
        <extensions>
          <ns3:TrackPointExtension>
            <ns3:hr>123</ns3:hr>
            <ns3:cad>52</ns3:cad>
          </ns3:TrackPointExtension>
        </extensions>
      </trkpt>
      <trkpt lat="49.85164797864854335784912109375" lon="6.887459792196750640869140625">
        <ele>218.8000030517578125</ele>
        <time>2026-04-22T10:21:49.000Z</time>
        <extensions>
          <ns3:TrackPointExtension>
            <ns3:hr>124</ns3:hr>
            <ns3:cad>52</ns3:cad>
          </ns3:TrackPointExtension>
        </extensions>
      </trkpt>
      <trkpt lat="49.8516556061804294586181640625" lon="6.8874690122902393341064453125">
        <ele>218.8000030517578125</ele>
        <time>2026-04-22T10:21:50.000Z</time>
        <extensions>
          <ns3:TrackPointExtension>
            <ns3:hr>124</ns3:hr>
            <ns3:cad>52</ns3:cad>
          </ns3:TrackPointExtension>
        </extensions>
      </trkpt>
      <trkpt lat="49.8517365753650665283203125" lon="6.8874956667423248291015625">
        <ele>219.1999969482421875</ele>
        <time>2026-04-22T10:21:56.000Z</time>
        <extensions>
          <ns3:TrackPointExtension>
            <ns3:hr>124</ns3:hr>
            <ns3:cad>0</ns3:cad>
          </ns3:TrackPointExtension>
        </extensions>
      </trkpt>
      <trkpt lat="49.85178728587925434112548828125" lon="6.887534558773040771484375">
        <ele>219.1999969482421875</ele>
        <time>2026-04-22T10:22:01.000Z</time>
        <extensions>
          <ns3:TrackPointExtension>
            <ns3:hr>124</ns3:hr>
            <ns3:cad>53</ns3:cad>
          </ns3:TrackPointExtension>
        </extensions>
      </trkpt>
      <trkpt lat="49.851812683045864105224609375" lon="6.88753665424883365631103515625">
        <ele>219.399993896484375</ele>
        <time>2026-04-22T10:22:03.000Z</time>
        <extensions>
          <ns3:TrackPointExtension>
            <ns3:hr>123</ns3:hr>
            <ns3:cad>53</ns3:cad>
          </ns3:TrackPointExtension>
        </extensions>
      </trkpt>
      <trkpt lat="49.851822070777416229248046875" lon="6.88754134811460971832275390625">
        <ele>219.399993896484375</ele>
        <time>2026-04-22T10:22:04.000Z</time>
        <extensions>
          <ns3:TrackPointExtension>
            <ns3:hr>123</ns3:hr>
            <ns3:cad>53</ns3:cad>
          </ns3:TrackPointExtension>
        </extensions>
      </trkpt>
      <trkpt lat="49.85184595920145511627197265625" lon="6.88753816299140453338623046875">
        <ele>219.399993896484375</ele>
        <time>2026-04-22T10:22:06.000Z</time>
        <extensions>
          <ns3:TrackPointExtension>
            <ns3:hr>123</ns3:hr>
            <ns3:cad>53</ns3:cad>
          </ns3:TrackPointExtension>
        </extensions>
      </trkpt>
      <trkpt lat="49.8518886230885982513427734375" lon="6.8875266797840595245361328125">
        <ele>219.399993896484375</ele>
        <time>2026-04-22T10:22:10.000Z</time>
        <extensions>
          <ns3:TrackPointExtension>
            <ns3:hr>123</ns3:hr>
            <ns3:cad>53</ns3:cad>
          </ns3:TrackPointExtension>
        </extensions>
      </trkpt>
      <trkpt lat="49.85191234387457370758056640625" lon="6.88753128983080387115478515625">
        <ele>219.399993896484375</ele>
        <time>2026-04-22T10:22:12.000Z</time>
        <extensions>
          <ns3:TrackPointExtension>
            <ns3:hr>123</ns3:hr>
            <ns3:cad>53</ns3:cad>
          </ns3:TrackPointExtension>
        </extensions>
      </trkpt>
      <trkpt lat="49.851937405765056610107421875" lon="6.887541599571704864501953125">
        <ele>219.600006103515625</ele>
        <time>2026-04-22T10:22:16.000Z</time>
        <extensions>
          <ns3:TrackPointExtension>
            <ns3:hr>124</ns3:hr>
            <ns3:cad>53</ns3:cad>
          </ns3:TrackPointExtension>
        </extensions>
      </trkpt>
      <trkpt lat="49.85202600248157978057861328125" lon="6.88747353851795196533203125">
        <ele>219.8000030517578125</ele>
        <time>2026-04-22T10:22:23.000Z</time>
        <extensions>
          <ns3:TrackPointExtension>
            <ns3:hr>123</ns3:hr>
            <ns3:cad>51</ns3:cad>
          </ns3:TrackPointExtension>
        </extensions>
      </trkpt>
      <trkpt lat="49.85204746015369892120361328125" lon="6.88748284243047237396240234375">
        <ele>219.8000030517578125</ele>
        <time>2026-04-22T10:22:25.000Z</time>
        <extensions>
          <ns3:TrackPointExtension>
            <ns3:hr>123</ns3:hr>
            <ns3:cad>0</ns3:cad>
          </ns3:TrackPointExtension>
        </extensions>
      </trkpt>
      <trkpt lat="49.85205533914268016815185546875" lon="6.88748351298272609710693359375">
        <ele>220</ele>
        <time>2026-04-22T10:22:26.000Z</time>
        <extensions>
          <ns3:TrackPointExtension>
            <ns3:hr>124</ns3:hr>
            <ns3:cad>53</ns3:cad>
          </ns3:TrackPointExtension>
        </extensions>
      </trkpt>
      <trkpt lat="49.85207461751997470855712890625" lon="6.8874911405146121978759765625">
        <ele>220</ele>
        <time>2026-04-22T10:22:28.000Z</time>
        <extensions>
          <ns3:TrackPointExtension>
            <ns3:hr>124</ns3:hr>
            <ns3:cad>53</ns3:cad>
          </ns3:TrackPointExtension>
        </extensions>
      </trkpt>
      <trkpt lat="49.85208995640277862548828125" lon="6.8875115923583507537841796875">
        <ele>220</ele>
        <time>2026-04-22T10:22:30.000Z</time>
        <extensions>
          <ns3:TrackPointExtension>
            <ns3:hr>124</ns3:hr>
            <ns3:cad>53</ns3:cad>
          </ns3:TrackPointExtension>
        </extensions>
      </trkpt>
      <trkpt lat="49.8521013557910919189453125" lon="6.88751779496669769287109375">
        <ele>220</ele>
        <time>2026-04-22T10:22:31.000Z</time>
        <extensions>
          <ns3:TrackPointExtension>
            <ns3:hr>123</ns3:hr>
            <ns3:cad>53</ns3:cad>
          </ns3:TrackPointExtension>
        </extensions>
      </trkpt>
      <trkpt lat="49.85214150510728359222412109375" lon="6.887531541287899017333984375">
        <ele>220.1999969482421875</ele>
        <time>2026-04-22T10:22:35.000Z</time>
        <extensions>
          <ns3:TrackPointExtension>
            <ns3:hr>124</ns3:hr>
            <ns3:cad>52</ns3:cad>
          </ns3:TrackPointExtension>
        </extensions>
      </trkpt>
      <trkpt lat="49.85216313041746616363525390625" lon="6.88754654489457607269287109375">
        <ele>220.1999969482421875</ele>
        <time>2026-04-22T10:22:37.000Z</time>
        <extensions>
          <ns3:TrackPointExtension>
            <ns3:hr>124</ns3:hr>
            <ns3:cad>52</ns3:cad>
          </ns3:TrackPointExtension>
        </extensions>
      </trkpt>
      <trkpt lat="49.852204620838165283203125" lon="6.88760320656001567840576171875">
        <ele>220.399993896484375</ele>
        <time>2026-04-22T10:22:42.000Z</time>
        <extensions>
          <ns3:TrackPointExtension>
            <ns3:hr>124</ns3:hr>
            <ns3:cad>53</ns3:cad>
          </ns3:TrackPointExtension>
        </extensions>
      </trkpt>
      <trkpt lat="49.85223479568958282470703125" lon="6.8875783123075962066650390625">
        <ele>220.399993896484375</ele>
        <time>2026-04-22T10:22:44.000Z</time>
        <extensions>
          <ns3:TrackPointExtension>
            <ns3:hr>124</ns3:hr>
            <ns3:cad>53</ns3:cad>
          </ns3:TrackPointExtension>
        </extensions>
      </trkpt>
      <trkpt lat="49.85228517092764377593994140625" lon="6.88753346912562847137451171875">
        <ele>220.600006103515625</ele>
        <time>2026-04-22T10:22:48.000Z</time>
        <extensions>
          <ns3:TrackPointExtension>
            <ns3:hr>125</ns3:hr>
            <ns3:cad>0</ns3:cad>
          </ns3:TrackPointExtension>
        </extensions>
      </trkpt>
      <trkpt lat="49.85233915038406848907470703125" lon="6.88757454045116901397705078125">
        <ele>221</ele>
        <time>2026-04-22T10:22:54.000Z</time>
        <extensions>
          <ns3:TrackPointExtension>
            <ns3:hr>125</ns3:hr>
            <ns3:cad>51</ns3:cad>
          </ns3:TrackPointExtension>
        </extensions>
      </trkpt>
      <trkpt lat="49.85238558612763881683349609375" lon="6.88757370226085186004638671875">
        <ele>221</ele>
        <time>2026-04-22T10:22:58.000Z</time>
        <extensions>
          <ns3:TrackPointExtension>
            <ns3:hr>126</ns3:hr>
            <ns3:cad>0</ns3:cad>
          </ns3:TrackPointExtension>
        </extensions>
      </trkpt>
      <trkpt lat="49.852435626089572906494140625" lon="6.8875360675156116485595703125">
        <ele>221.1999969482421875</ele>
        <time>2026-04-22T10:23:03.000Z</time>
        <extensions>
          <ns3:TrackPointExtension>
            <ns3:hr>125</ns3:hr>
            <ns3:cad>52</ns3:cad>
          </ns3:TrackPointExtension>
        </extensions>
      </trkpt>
      <trkpt lat="49.85250326804816722869873046875" lon="6.88753791153430938720703125">
        <ele>221.399993896484375</ele>
        <time>2026-04-22T10:23:08.000Z</time>
        <extensions>
          <ns3:TrackPointExtension>
            <ns3:hr>125</ns3:hr>
            <ns3:cad>17</ns3:cad>
          </ns3:TrackPointExtension>
        </extensions>
      </trkpt>
      <trkpt lat="49.8525313474237918853759765625" lon="6.887512095272541046142578125">
        <ele>221.399993896484375</ele>
        <time>2026-04-22T10:23:10.000Z</time>
        <extensions>
          <ns3:TrackPointExtension>
            <ns3:hr>125</ns3:hr>
            <ns3:cad>17</ns3:cad>
          </ns3:TrackPointExtension>
        </extensions>
      </trkpt>
      <trkpt lat="49.85265883617103099822998046875" lon="6.88748024404048919677734375">
        <ele>222.1999969482421875</ele>
        <time>2026-04-22T10:23:19.000Z</time>
        <extensions>
          <ns3:TrackPointExtension>
            <ns3:hr>127</ns3:hr>
            <ns3:cad>52</ns3:cad>
          </ns3:TrackPointExtension>
        </extensions>
      </trkpt>
      <trkpt lat="49.85267459414899349212646484375" lon="6.8874857760965824127197265625">
        <ele>222.1999969482421875</ele>
        <time>2026-04-22T10:23:21.000Z</time>
        <extensions>
          <ns3:TrackPointExtension>
            <ns3:hr>127</ns3:hr>
            <ns3:cad>0</ns3:cad>
          </ns3:TrackPointExtension>
        </extensions>
      </trkpt>
      <trkpt lat="49.852683730423450469970703125" lon="6.88747831620275974273681640625">
        <ele>222.399993896484375</ele>
        <time>2026-04-22T10:23:22.000Z</time>
        <extensions>
          <ns3:TrackPointExtension>
            <ns3:hr>127</ns3:hr>
            <ns3:cad>0</ns3:cad>
          </ns3:TrackPointExtension>
        </extensions>
      </trkpt>
      <trkpt lat="49.85269772820174694061279296875" lon="6.88747999258339405059814453125">
        <ele>222.399993896484375</ele>
        <time>2026-04-22T10:23:23.000Z</time>
        <extensions>
          <ns3:TrackPointExtension>
            <ns3:hr>126</ns3:hr>
            <ns3:cad>0</ns3:cad>
          </ns3:TrackPointExtension>
        </extensions>
      </trkpt>
      <trkpt lat="49.85273636877536773681640625" lon="6.88747613690793514251708984375">
        <ele>222.600006103515625</ele>
        <time>2026-04-22T10:23:27.000Z</time>
        <extensions>
          <ns3:TrackPointExtension>
            <ns3:hr>127</ns3:hr>
            <ns3:cad>0</ns3:cad>
          </ns3:TrackPointExtension>
        </extensions>
      </trkpt>
      <trkpt lat="49.85276478342711925506591796875" lon="6.88746750354766845703125">
        <ele>222.8000030517578125</ele>
        <time>2026-04-22T10:23:29.000Z</time>
        <extensions>
          <ns3:TrackPointExtension>
            <ns3:hr>126</ns3:hr>
            <ns3:cad>0</ns3:cad>
          </ns3:TrackPointExtension>
        </extensions>
      </trkpt>
      <trkpt lat="49.8528330959379673004150390625" lon="6.8874539248645305633544921875">
        <ele>223</ele>
        <time>2026-04-22T10:23:35.000Z</time>
        <extensions>
          <ns3:TrackPointExtension>
            <ns3:hr>125</ns3:hr>
            <ns3:cad>0</ns3:cad>
          </ns3:TrackPointExtension>
        </extensions>
      </trkpt>
      <trkpt lat="49.8528800345957279205322265625" lon="6.88750480301678180694580078125">
        <ele>223.399993896484375</ele>
        <time>2026-04-22T10:23:41.000Z</time>
        <extensions>
          <ns3:TrackPointExtension>
            <ns3:hr>125</ns3:hr>
            <ns3:cad>51</ns3:cad>
          </ns3:TrackPointExtension>
        </extensions>
      </trkpt>
      <trkpt lat="49.85290241427719593048095703125" lon="6.887534223496913909912109375">
        <ele>223.600006103515625</ele>
        <time>2026-04-22T10:23:43.000Z</time>
        <extensions>
          <ns3:TrackPointExtension>
            <ns3:hr>125</ns3:hr>
            <ns3:cad>51</ns3:cad>
          </ns3:TrackPointExtension>
        </extensions>
      </trkpt>
      <trkpt lat="49.85294231213629245758056640625" lon="6.88760588876903057098388671875">
        <ele>223.8000030517578125</ele>
        <time>2026-04-22T10:23:48.000Z</time>
        <extensions>
          <ns3:TrackPointExtension>
            <ns3:hr>125</ns3:hr>
            <ns3:cad>52</ns3:cad>
          </ns3:TrackPointExtension>
        </extensions>
      </trkpt>
      <trkpt lat="49.85296444036066532135009765625" lon="6.88761041499674320220947265625">
        <ele>224</ele>
        <time>2026-04-22T10:23:50.000Z</time>
        <extensions>
          <ns3:TrackPointExtension>
            <ns3:hr>125</ns3:hr>
            <ns3:cad>52</ns3:cad>
          </ns3:TrackPointExtension>
        </extensions>
      </trkpt>
      <trkpt lat="49.85307541675865650177001953125" lon="6.88764913938939571380615234375">
        <ele>224.399993896484375</ele>
        <time>2026-04-22T10:23:57.000Z</time>
        <extensions>
          <ns3:TrackPointExtension>
            <ns3:hr>126</ns3:hr>
            <ns3:cad>54</ns3:cad>
          </ns3:TrackPointExtension>
        </extensions>
      </trkpt>
      <trkpt lat="49.8531475849449634552001953125" lon="6.88772440887987613677978515625">
        <ele>224.8000030517578125</ele>
        <time>2026-04-22T10:24:04.000Z</time>
        <extensions>
          <ns3:TrackPointExtension>
            <ns3:hr>127</ns3:hr>
            <ns3:cad>53</ns3:cad>
          </ns3:TrackPointExtension>
        </extensions>
      </trkpt>
      <trkpt lat="49.85316895879805088043212890625" lon="6.88774536363780498504638671875">
        <ele>225</ele>
        <time>2026-04-22T10:24:07.000Z</time>
        <extensions>
          <ns3:TrackPointExtension>
            <ns3:hr>127</ns3:hr>
            <ns3:cad>53</ns3:cad>
          </ns3:TrackPointExtension>
        </extensions>
      </trkpt>
      <trkpt lat="49.8532354272902011871337890625" lon="6.887748129665851593017578125">
        <ele>225.399993896484375</ele>
        <time>2026-04-22T10:24:12.000Z</time>
        <extensions>
          <ns3:TrackPointExtension>
            <ns3:hr>127</ns3:hr>
            <ns3:cad>52</ns3:cad>
          </ns3:TrackPointExtension>
        </extensions>
      </trkpt>
      <trkpt lat="49.8532505147159099578857421875" lon="6.887752823531627655029296875">
        <ele>225.600006103515625</ele>
        <time>2026-04-22T10:24:13.000Z</time>
        <extensions>
          <ns3:TrackPointExtension>
            <ns3:hr>126</ns3:hr>
            <ns3:cad>52</ns3:cad>
          </ns3:TrackPointExtension>
        </extensions>
      </trkpt>
      <trkpt lat="49.85333760268986225128173828125" lon="6.88779515214264392852783203125">
        <ele>225.600006103515625</ele>
        <time>2026-04-22T10:24:21.000Z</time>
        <extensions>
          <ns3:TrackPointExtension>
            <ns3:hr>125</ns3:hr>
            <ns3:cad>51</ns3:cad>
          </ns3:TrackPointExtension>
        </extensions>
      </trkpt>
      <trkpt lat="49.8533527739346027374267578125" lon="6.88780269585549831390380859375">
        <ele>225.600006103515625</ele>
        <time>2026-04-22T10:24:23.000Z</time>
        <extensions>
          <ns3:TrackPointExtension>
            <ns3:hr>125</ns3:hr>
            <ns3:cad>51</ns3:cad>
          </ns3:TrackPointExtension>
        </extensions>
      </trkpt>
      <trkpt lat="49.8534049093723297119140625" lon="6.8877853453159332275390625">
        <ele>225.600006103515625</ele>
        <time>2026-04-22T10:24:27.000Z</time>
        <extensions>
          <ns3:TrackPointExtension>
            <ns3:hr>126</ns3:hr>
            <ns3:cad>0</ns3:cad>
          </ns3:TrackPointExtension>
        </extensions>
      </trkpt>
      <trkpt lat="49.85343617387115955352783203125" lon="6.8877799808979034423828125">
        <ele>225.600006103515625</ele>
        <time>2026-04-22T10:24:29.000Z</time>
        <extensions>
          <ns3:TrackPointExtension>
            <ns3:hr>126</ns3:hr>
            <ns3:cad>53</ns3:cad>
          </ns3:TrackPointExtension>
        </extensions>
      </trkpt>
      <trkpt lat="49.85350356437265872955322265625" lon="6.88776028342545032501220703125">
        <ele>225.8000030517578125</ele>
        <time>2026-04-22T10:24:36.000Z</time>
        <extensions>
          <ns3:TrackPointExtension>
            <ns3:hr>125</ns3:hr>
            <ns3:cad>53</ns3:cad>
          </ns3:TrackPointExtension>
        </extensions>
      </trkpt>
      <trkpt lat="49.85356659628450870513916015625" lon="6.8877550028264522552490234375">
        <ele>226.1999969482421875</ele>
        <time>2026-04-22T10:24:43.000Z</time>
        <extensions>
          <ns3:TrackPointExtension>
            <ns3:hr>127</ns3:hr>
            <ns3:cad>53</ns3:cad>
          </ns3:TrackPointExtension>
        </extensions>
      </trkpt>
      <trkpt lat="49.8536075837910175323486328125" lon="6.88775341026484966278076171875">
        <ele>226.399993896484375</ele>
        <time>2026-04-22T10:24:48.000Z</time>
        <extensions>
          <ns3:TrackPointExtension>
            <ns3:hr>126</ns3:hr>
            <ns3:cad>52</ns3:cad>
          </ns3:TrackPointExtension>
        </extensions>
      </trkpt>
      <trkpt lat="49.8536350764334201812744140625" lon="6.88776145689189434051513671875">
        <ele>226.399993896484375</ele>
        <time>2026-04-22T10:24:50.000Z</time>
        <extensions>
          <ns3:TrackPointExtension>
            <ns3:hr>126</ns3:hr>
            <ns3:cad>54</ns3:cad>
          </ns3:TrackPointExtension>
        </extensions>
      </trkpt>
      <trkpt lat="49.85364370979368686676025390625" lon="6.88776162452995777130126953125">
        <ele>226.600006103515625</ele>
        <time>2026-04-22T10:24:51.000Z</time>
        <extensions>
          <ns3:TrackPointExtension>
            <ns3:hr>126</ns3:hr>
            <ns3:cad>54</ns3:cad>
          </ns3:TrackPointExtension>
        </extensions>
      </trkpt>
      <trkpt lat="49.853697605431079864501953125" lon="6.88775626011192798614501953125">
        <ele>226.8000030517578125</ele>
        <time>2026-04-22T10:24:57.000Z</time>
        <extensions>
          <ns3:TrackPointExtension>
            <ns3:hr>127</ns3:hr>
            <ns3:cad>53</ns3:cad>
          </ns3:TrackPointExtension>
        </extensions>
      </trkpt>
      <trkpt lat="49.853786788880825042724609375" lon="6.88772591762244701385498046875">
        <ele>227</ele>
        <time>2026-04-22T10:25:05.000Z</time>
        <extensions>
          <ns3:TrackPointExtension>
            <ns3:hr>128</ns3:hr>
            <ns3:cad>0</ns3:cad>
          </ns3:TrackPointExtension>
        </extensions>
      </trkpt>
      <trkpt lat="49.8539200611412525177001953125" lon="6.88768199644982814788818359375">
        <ele>227.399993896484375</ele>
        <time>2026-04-22T10:25:16.000Z</time>
        <extensions>
          <ns3:TrackPointExtension>
            <ns3:hr>128</ns3:hr>
            <ns3:cad>50</ns3:cad>
          </ns3:TrackPointExtension>
        </extensions>
      </trkpt>
      <trkpt lat="49.8539458774030208587646484375" lon="6.88769071362912654876708984375">
        <ele>227.600006103515625</ele>
        <time>2026-04-22T10:25:19.000Z</time>
        <extensions>
          <ns3:TrackPointExtension>
            <ns3:hr>128</ns3:hr>
            <ns3:cad>51</ns3:cad>
          </ns3:TrackPointExtension>
        </extensions>
      </trkpt>
      <trkpt lat="49.8539923131465911865234375" lon="6.8876634724438190460205078125">
        <ele>227.600006103515625</ele>
        <time>2026-04-22T10:25:24.000Z</time>
        <extensions>
          <ns3:TrackPointExtension>
            <ns3:hr>128</ns3:hr>
            <ns3:cad>51</ns3:cad>
          </ns3:TrackPointExtension>
        </extensions>
      </trkpt>
      <trkpt lat="49.85415282659232616424560546875" lon="6.8875920586287975311279296875">
        <ele>228</ele>
        <time>2026-04-22T10:25:31.000Z</time>
        <extensions>
          <ns3:TrackPointExtension>
            <ns3:hr>128</ns3:hr>
            <ns3:cad>0</ns3:cad>
          </ns3:TrackPointExtension>
        </extensions>
      </trkpt>
      <trkpt lat="49.8541594482958316802978515625" lon="6.88759415410459041595458984375">
        <ele>228</ele>
        <time>2026-04-22T10:25:32.000Z</time>
        <extensions>
          <ns3:TrackPointExtension>
            <ns3:hr>128</ns3:hr>
            <ns3:cad>0</ns3:cad>
          </ns3:TrackPointExtension>
        </extensions>
      </trkpt>
      <trkpt lat="49.85422122292220592498779296875" lon="6.8875903822481632232666015625">
        <ele>228.1999969482421875</ele>
        <time>2026-04-22T10:25:38.000Z</time>
        <extensions>
          <ns3:TrackPointExtension>
            <ns3:hr>127</ns3:hr>
            <ns3:cad>52</ns3:cad>
          </ns3:TrackPointExtension>
        </extensions>
      </trkpt>
      <trkpt lat="49.854304455220699310302734375" lon="6.88754922710359096527099609375">
        <ele>228.600006103515625</ele>
        <time>2026-04-22T10:25:46.000Z</time>
        <extensions>
          <ns3:TrackPointExtension>
            <ns3:hr>126</ns3:hr>
            <ns3:cad>51</ns3:cad>
          </ns3:TrackPointExtension>
        </extensions>
      </trkpt>
      <trkpt lat="49.8543250747025012969970703125" lon="6.88754805363714694976806640625">
        <ele>228.600006103515625</ele>
        <time>2026-04-22T10:25:49.000Z</time>
        <extensions>
          <ns3:TrackPointExtension>
            <ns3:hr>127</ns3:hr>
            <ns3:cad>0</ns3:cad>
          </ns3:TrackPointExtension>
        </extensions>
      </trkpt>
      <trkpt lat="49.85434896312654018402099609375" lon="6.88753061927855014801025390625">
        <ele>229.1999969482421875</ele>
        <time>2026-04-22T10:25:52.000Z</time>
        <extensions>
          <ns3:TrackPointExtension>
            <ns3:hr>127</ns3:hr>
            <ns3:cad>53</ns3:cad>
          </ns3:TrackPointExtension>
        </extensions>
      </trkpt>
      <trkpt lat="49.8544098995625972747802734375" lon="6.88752475194633007049560546875">
        <ele>229.399993896484375</ele>
        <time>2026-04-22T10:25:59.000Z</time>
        <extensions>
          <ns3:TrackPointExtension>
            <ns3:hr>127</ns3:hr>
            <ns3:cad>53</ns3:cad>
          </ns3:TrackPointExtension>
        </extensions>
      </trkpt>
      <trkpt lat="49.85445356927812099456787109375" lon="6.88753514550626277923583984375">
        <ele>229.399993896484375</ele>
        <time>2026-04-22T10:26:03.000Z</time>
        <extensions>
          <ns3:TrackPointExtension>
            <ns3:hr>127</ns3:hr>
            <ns3:cad>52</ns3:cad>
          </ns3:TrackPointExtension>
        </extensions>
      </trkpt>
      <trkpt lat="49.85450151376426219940185546875" lon="6.887534558773040771484375">
        <ele>229.600006103515625</ele>
        <time>2026-04-22T10:26:06.000Z</time>
        <extensions>
          <ns3:TrackPointExtension>
            <ns3:hr>126</ns3:hr>
            <ns3:cad>53</ns3:cad>
          </ns3:TrackPointExtension>
        </extensions>
      </trkpt>
      <trkpt lat="49.85457208938896656036376953125" lon="6.88752944581210613250732421875">
        <ele>229.8000030517578125</ele>
        <time>2026-04-22T10:26:12.000Z</time>
        <extensions>
          <ns3:TrackPointExtension>
            <ns3:hr>127</ns3:hr>
            <ns3:cad>0</ns3:cad>
          </ns3:TrackPointExtension>
        </extensions>
      </trkpt>
      <trkpt lat="49.85459371469914913177490234375" lon="6.88753330148756504058837890625">
        <ele>229.8000030517578125</ele>
        <time>2026-04-22T10:26:14.000Z</time>
        <extensions>
          <ns3:TrackPointExtension>
            <ns3:hr>127</ns3:hr>
            <ns3:cad>0</ns3:cad>
          </ns3:TrackPointExtension>
        </extensions>
      </trkpt>
      <trkpt lat="49.85466915182769298553466796875" lon="6.88754470087587833404541015625">
        <ele>230</ele>
        <time>2026-04-22T10:26:20.000Z</time>
        <extensions>
          <ns3:TrackPointExtension>
            <ns3:hr>127</ns3:hr>
            <ns3:cad>55</ns3:cad>
          </ns3:TrackPointExtension>
        </extensions>
      </trkpt>
      <trkpt lat="49.85469798557460308074951171875" lon="6.88755375333130359649658203125">
        <ele>230</ele>
        <time>2026-04-22T10:26:22.000Z</time>
        <extensions>
          <ns3:TrackPointExtension>
            <ns3:hr>127</ns3:hr>
            <ns3:cad>55</ns3:cad>
          </ns3:TrackPointExtension>
        </extensions>
      </trkpt>
      <trkpt lat="49.854718185961246490478515625" lon="6.88756045885384082794189453125">
        <ele>230.399993896484375</ele>
        <time>2026-04-22T10:26:25.000Z</time>
        <extensions>
          <ns3:TrackPointExtension>
            <ns3:hr>127</ns3:hr>
            <ns3:cad>50</ns3:cad>
          </ns3:TrackPointExtension>
        </extensions>
      </trkpt>
      <trkpt lat="49.85473453067243099212646484375" lon="6.887548305094242095947265625">
        <ele>230.600006103515625</ele>
        <time>2026-04-22T10:26:27.000Z</time>
        <extensions>
          <ns3:TrackPointExtension>
            <ns3:hr>127</ns3:hr>
            <ns3:cad>47</ns3:cad>
          </ns3:TrackPointExtension>
        </extensions>
      </trkpt>
      <trkpt lat="49.85480225645005702972412109375" lon="6.88753447495400905609130859375">
        <ele>230.8000030517578125</ele>
        <time>2026-04-22T10:26:30.000Z</time>
        <extensions>
          <ns3:TrackPointExtension>
            <ns3:hr>127</ns3:hr>
            <ns3:cad>50</ns3:cad>
          </ns3:TrackPointExtension>
        </extensions>
      </trkpt>
      <trkpt lat="49.854822121560573577880859375" lon="6.88752944581210613250732421875">
        <ele>230.8000030517578125</ele>
        <time>2026-04-22T10:26:32.000Z</time>
        <extensions>
          <ns3:TrackPointExtension>
            <ns3:hr>127</ns3:hr>
            <ns3:cad>50</ns3:cad>
          </ns3:TrackPointExtension>
        </extensions>
      </trkpt>
      <trkpt lat="49.85484031029045581817626953125" lon="6.88752776943147182464599609375">
        <ele>231</ele>
        <time>2026-04-22T10:26:34.000Z</time>
        <extensions>
          <ns3:TrackPointExtension>
            <ns3:hr>127</ns3:hr>
            <ns3:cad>50</ns3:cad>
          </ns3:TrackPointExtension>
        </extensions>
      </trkpt>
      <trkpt lat="49.85488523729145526885986328125" lon="6.88751067034900188446044921875">
        <ele>231.1999969482421875</ele>
        <time>2026-04-22T10:26:38.000Z</time>
        <extensions>
          <ns3:TrackPointExtension>
            <ns3:hr>127</ns3:hr>
            <ns3:cad>51</ns3:cad>
          </ns3:TrackPointExtension>
        </extensions>
      </trkpt>
      <trkpt lat="49.8548983968794345855712890625" lon="6.8875035457313060760498046875">
        <ele>231.399993896484375</ele>
        <time>2026-04-22T10:26:40.000Z</time>
        <extensions>
          <ns3:TrackPointExtension>
            <ns3:hr>127</ns3:hr>
            <ns3:cad>51</ns3:cad>
          </ns3:TrackPointExtension>
        </extensions>
      </trkpt>
      <trkpt lat="49.854907952249050140380859375" lon="6.88751352019608020782470703125">
        <ele>231.600006103515625</ele>
        <time>2026-04-22T10:26:41.000Z</time>
        <extensions>
          <ns3:TrackPointExtension>
            <ns3:hr>127</ns3:hr>
            <ns3:cad>51</ns3:cad>
          </ns3:TrackPointExtension>
        </extensions>
      </trkpt>
      <trkpt lat="49.854923374950885772705078125" lon="6.88752651214599609375">
        <ele>231.600006103515625</ele>
        <time>2026-04-22T10:26:43.000Z</time>
        <extensions>
          <ns3:TrackPointExtension>
            <ns3:hr>127</ns3:hr>
            <ns3:cad>48</ns3:cad>
          </ns3:TrackPointExtension>
        </extensions>
      </trkpt>
      <trkpt lat="49.85493854619562625885009765625" lon="6.8875397555530071258544921875">
        <ele>231.8000030517578125</ele>
        <time>2026-04-22T10:26:45.000Z</time>
        <extensions>
          <ns3:TrackPointExtension>
            <ns3:hr>127</ns3:hr>
            <ns3:cad>48</ns3:cad>
          </ns3:TrackPointExtension>
        </extensions>
      </trkpt>
      <trkpt lat="49.85494944266974925994873046875" lon="6.88753078691661357879638671875">
        <ele>231.8000030517578125</ele>
        <time>2026-04-22T10:26:47.000Z</time>
        <extensions>
          <ns3:TrackPointExtension>
            <ns3:hr>127</ns3:hr>
            <ns3:cad>48</ns3:cad>
          </ns3:TrackPointExtension>
        </extensions>
      </trkpt>
      <trkpt lat="49.8549574054777622222900390625" lon="6.8875239975750446319580078125">
        <ele>231.8000030517578125</ele>
        <time>2026-04-22T10:26:48.000Z</time>
        <extensions>
          <ns3:TrackPointExtension>
            <ns3:hr>127</ns3:hr>
            <ns3:cad>49</ns3:cad>
          </ns3:TrackPointExtension>
        </extensions>
      </trkpt>
      <trkpt lat="49.855037033557891845703125" lon="6.88753296621143817901611328125">
        <ele>232.399993896484375</ele>
        <time>2026-04-22T10:26:56.000Z</time>
        <extensions>
          <ns3:TrackPointExtension>
            <ns3:hr>128</ns3:hr>
            <ns3:cad>49</ns3:cad>
          </ns3:TrackPointExtension>
        </extensions>
      </trkpt>
      <trkpt lat="49.85509880818426609039306640625" lon="6.88756146468222141265869140625">
        <ele>232.8000030517578125</ele>
        <time>2026-04-22T10:27:01.000Z</time>
        <extensions>
          <ns3:TrackPointExtension>
            <ns3:hr>128</ns3:hr>
            <ns3:cad>46</ns3:cad>
          </ns3:TrackPointExtension>
        </extensions>
      </trkpt>
      <trkpt lat="49.8551106266677379608154296875" lon="6.887574456632137298583984375">
        <ele>233</ele>
        <time>2026-04-22T10:27:02.000Z</time>
        <extensions>
          <ns3:TrackPointExtension>
            <ns3:hr>128</ns3:hr>
            <ns3:cad>46</ns3:cad>
          </ns3:TrackPointExtension>
        </extensions>
      </trkpt>
      <trkpt lat="49.85512646846473217010498046875" lon="6.88760438002645969390869140625">
        <ele>233</ele>
        <time>2026-04-22T10:27:04.000Z</time>
        <extensions>
          <ns3:TrackPointExtension>
            <ns3:hr>128</ns3:hr>
            <ns3:cad>47</ns3:cad>
          </ns3:TrackPointExtension>
        </extensions>
      </trkpt>
      <trkpt lat="49.85514105297625064849853515625" lon="6.8876205570995807647705078125">
        <ele>233.1999969482421875</ele>
        <time>2026-04-22T10:27:06.000Z</time>
        <extensions>
          <ns3:TrackPointExtension>
            <ns3:hr>128</ns3:hr>
            <ns3:cad>0</ns3:cad>
          </ns3:TrackPointExtension>
        </extensions>
      </trkpt>
      <trkpt lat="49.85516645014286041259765625" lon="6.8876711837947368621826171875">
        <ele>233.600006103515625</ele>
        <time>2026-04-22T10:27:10.000Z</time>
        <extensions>
          <ns3:TrackPointExtension>
            <ns3:hr>128</ns3:hr>
            <ns3:cad>0</ns3:cad>
          </ns3:TrackPointExtension>
        </extensions>
      </trkpt>
      <trkpt lat="49.85519737936556339263916015625" lon="6.88769222237169742584228515625">
        <ele>233.600006103515625</ele>
        <time>2026-04-22T10:27:13.000Z</time>
        <extensions>
          <ns3:TrackPointExtension>
            <ns3:hr>126</ns3:hr>
            <ns3:cad>48</ns3:cad>
          </ns3:TrackPointExtension>
        </extensions>
      </trkpt>
      <trkpt lat="49.8552403785288333892822265625" lon="6.88768534921109676361083984375">
        <ele>234</ele>
        <time>2026-04-22T10:27:16.000Z</time>
        <extensions>
          <ns3:TrackPointExtension>
            <ns3:hr>124</ns3:hr>
            <ns3:cad>49</ns3:cad>
          </ns3:TrackPointExtension>
        </extensions>
      </trkpt>
      <trkpt lat="49.85525286756455898284912109375" lon="6.88768786378204822540283203125">
        <ele>234</ele>
        <time>2026-04-22T10:27:17.000Z</time>
        <extensions>
          <ns3:TrackPointExtension>
            <ns3:hr>124</ns3:hr>
            <ns3:cad>49</ns3:cad>
          </ns3:TrackPointExtension>
        </extensions>
      </trkpt>
      <trkpt lat="49.85527239739894866943359375" lon="6.88768954016268253326416015625">
        <ele>234.1999969482421875</ele>
        <time>2026-04-22T10:27:19.000Z</time>
        <extensions>
          <ns3:TrackPointExtension>
            <ns3:hr>125</ns3:hr>
            <ns3:cad>47</ns3:cad>
          </ns3:TrackPointExtension>
        </extensions>
      </trkpt>
      <trkpt lat="49.85528807155787944793701171875" lon="6.88768585212528705596923828125">
        <ele>234.399993896484375</ele>
        <time>2026-04-22T10:27:21.000Z</time>
        <extensions>
          <ns3:TrackPointExtension>
            <ns3:hr>124</ns3:hr>
            <ns3:cad>46</ns3:cad>
          </ns3:TrackPointExtension>
        </extensions>
      </trkpt>
      <trkpt lat="49.85531606711447238922119140625" lon="6.8877097405493259429931640625">
        <ele>234.600006103515625</ele>
        <time>2026-04-22T10:27:24.000Z</time>
        <extensions>
          <ns3:TrackPointExtension>
            <ns3:hr>125</ns3:hr>
            <ns3:cad>44</ns3:cad>
          </ns3:TrackPointExtension>
        </extensions>
      </trkpt>
      <trkpt lat="49.855344481766223907470703125" lon="6.88773497007787227630615234375">
        <ele>234.8000030517578125</ele>
        <time>2026-04-22T10:27:27.000Z</time>
        <extensions>
          <ns3:TrackPointExtension>
            <ns3:hr>127</ns3:hr>
            <ns3:cad>45</ns3:cad>
          </ns3:TrackPointExtension>
        </extensions>
      </trkpt>
      <trkpt lat="49.855381362140178680419921875" lon="6.88771686516702175140380859375">
        <ele>234.8000030517578125</ele>
        <time>2026-04-22T10:27:30.000Z</time>
        <extensions>
          <ns3:TrackPointExtension>
            <ns3:hr>127</ns3:hr>
            <ns3:cad>47</ns3:cad>
          </ns3:TrackPointExtension>
        </extensions>
      </trkpt>
      <trkpt lat="49.855391420423984527587890625" lon="6.8877211399376392364501953125">
        <ele>234.8000030517578125</ele>
        <time>2026-04-22T10:27:31.000Z</time>
        <extensions>
          <ns3:TrackPointExtension>
            <ns3:hr>127</ns3:hr>
            <ns3:cad>47</ns3:cad>
          </ns3:TrackPointExtension>
        </extensions>
      </trkpt>
      <trkpt lat="49.8554093576967716217041015625" lon="6.88772709108889102935791015625">
        <ele>235</ele>
        <time>2026-04-22T10:27:33.000Z</time>
        <extensions>
          <ns3:TrackPointExtension>
            <ns3:hr>128</ns3:hr>
            <ns3:cad>47</ns3:cad>
          </ns3:TrackPointExtension>
        </extensions>
      </trkpt>
      <trkpt lat="49.855421595275402069091796875" lon="6.88773547299206256866455078125">
        <ele>235</ele>
        <time>2026-04-22T10:27:35.000Z</time>
        <extensions>
          <ns3:TrackPointExtension>
            <ns3:hr>128</ns3:hr>
            <ns3:cad>47</ns3:cad>
          </ns3:TrackPointExtension>
        </extensions>
      </trkpt>
      <trkpt lat="49.8554998822510242462158203125" lon="6.88776162452995777130126953125">
        <ele>235.8000030517578125</ele>
        <time>2026-04-22T10:27:43.000Z</time>
        <extensions>
          <ns3:TrackPointExtension>
            <ns3:hr>128</ns3:hr>
            <ns3:cad>46</ns3:cad>
          </ns3:TrackPointExtension>
        </extensions>
      </trkpt>
      <trkpt lat="49.85551379621028900146484375" lon="6.887772940099239349365234375">
        <ele>236</ele>
        <time>2026-04-22T10:27:45.000Z</time>
        <extensions>
          <ns3:TrackPointExtension>
            <ns3:hr>128</ns3:hr>
            <ns3:cad>46</ns3:cad>
          </ns3:TrackPointExtension>
        </extensions>
      </trkpt>
      <trkpt lat="49.855557046830654144287109375" lon="6.8878036178648471832275390625">
        <ele>236.1999969482421875</ele>
        <time>2026-04-22T10:27:50.000Z</time>
        <extensions>
          <ns3:TrackPointExtension>
            <ns3:hr>128</ns3:hr>
            <ns3:cad>47</ns3:cad>
          </ns3:TrackPointExtension>
        </extensions>
      </trkpt>
      <trkpt lat="49.8555786721408367156982421875" lon="6.887820549309253692626953125">
        <ele>236.600006103515625</ele>
        <time>2026-04-22T10:27:52.000Z</time>
        <extensions>
          <ns3:TrackPointExtension>
            <ns3:hr>128</ns3:hr>
            <ns3:cad>47</ns3:cad>
          </ns3:TrackPointExtension>
        </extensions>
      </trkpt>
      <trkpt lat="49.85560121946036815643310546875" lon="6.88782624900341033935546875">
        <ele>237</ele>
        <time>2026-04-22T10:27:54.000Z</time>
        <extensions>
          <ns3:TrackPointExtension>
            <ns3:hr>128</ns3:hr>
            <ns3:cad>47</ns3:cad>
          </ns3:TrackPointExtension>
        </extensions>
      </trkpt>
      <trkpt lat="49.85561630688607692718505859375" lon="6.88782264478504657745361328125">
        <ele>237.1999969482421875</ele>
        <time>2026-04-22T10:27:55.000Z</time>
        <extensions>
          <ns3:TrackPointExtension>
            <ns3:hr>128</ns3:hr>
            <ns3:cad>48</ns3:cad>
          </ns3:TrackPointExtension>
        </extensions>
      </trkpt>
      <trkpt lat="49.8556564562022686004638671875" lon="6.88781149685382843017578125">
        <ele>237.399993896484375</ele>
        <time>2026-04-22T10:27:59.000Z</time>
        <extensions>
          <ns3:TrackPointExtension>
            <ns3:hr>128</ns3:hr>
            <ns3:cad>48</ns3:cad>
          </ns3:TrackPointExtension>
        </extensions>
      </trkpt>
      <trkpt lat="49.85573507845401763916015625" lon="6.88783739693462848663330078125">
        <ele>238.1999969482421875</ele>
        <time>2026-04-22T10:28:06.000Z</time>
        <extensions>
          <ns3:TrackPointExtension>
            <ns3:hr>128</ns3:hr>
            <ns3:cad>49</ns3:cad>
          </ns3:TrackPointExtension>
        </extensions>
      </trkpt>
      <trkpt lat="49.85574237070977687835693359375" lon="6.88783689402043819427490234375">
        <ele>238.1999969482421875</ele>
        <time>2026-04-22T10:28:07.000Z</time>
        <extensions>
          <ns3:TrackPointExtension>
            <ns3:hr>128</ns3:hr>
            <ns3:cad>49</ns3:cad>
          </ns3:TrackPointExtension>
        </extensions>
      </trkpt>
      <trkpt lat="49.8558403551578521728515625" lon="6.88787746243178844451904296875">
        <ele>238.600006103515625</ele>
        <time>2026-04-22T10:28:15.000Z</time>
        <extensions>
          <ns3:TrackPointExtension>
            <ns3:hr>128</ns3:hr>
            <ns3:cad>50</ns3:cad>
          </ns3:TrackPointExtension>
        </extensions>
      </trkpt>
      <trkpt lat="49.85593817196786403656005859375" lon="6.8878914602100849151611328125">
        <ele>238.8000030517578125</ele>
        <time>2026-04-22T10:28:24.000Z</time>
        <extensions>
          <ns3:TrackPointExtension>
            <ns3:hr>128</ns3:hr>
            <ns3:cad>51</ns3:cad>
          </ns3:TrackPointExtension>
        </extensions>
      </trkpt>
      <trkpt lat="49.85603825189173221588134765625" lon="6.88791903667151927947998046875">
        <ele>239</ele>
        <time>2026-04-22T10:28:32.000Z</time>
        <extensions>
          <ns3:TrackPointExtension>
            <ns3:hr>128</ns3:hr>
            <ns3:cad>51</ns3:cad>
          </ns3:TrackPointExtension>
        </extensions>
      </trkpt>
      <trkpt lat="49.856163226068019866943359375" lon="6.887977458536624908447265625">
        <ele>238.8000030517578125</ele>
        <time>2026-04-22T10:28:41.000Z</time>
        <extensions>
          <ns3:TrackPointExtension>
            <ns3:hr>126</ns3:hr>
            <ns3:cad>53</ns3:cad>
          </ns3:TrackPointExtension>
        </extensions>
      </trkpt>
      <trkpt lat="49.856221564114093780517578125" lon="6.88799749128520488739013671875">
        <ele>238.8000030517578125</ele>
        <time>2026-04-22T10:28:49.000Z</time>
        <extensions>
          <ns3:TrackPointExtension>
            <ns3:hr>125</ns3:hr>
            <ns3:cad>0</ns3:cad>
          </ns3:TrackPointExtension>
        </extensions>
      </trkpt>
      <trkpt lat="49.8562344722449779510498046875" lon="6.8880000896751880645751953125">
        <ele>239</ele>
        <time>2026-04-22T10:28:50.000Z</time>
        <extensions>
          <ns3:TrackPointExtension>
            <ns3:hr>124</ns3:hr>
            <ns3:cad>0</ns3:cad>
          </ns3:TrackPointExtension>
        </extensions>
      </trkpt>
      <trkpt lat="49.856257103383541107177734375" lon="6.88799656927585601806640625">
        <ele>239.1999969482421875</ele>
        <time>2026-04-22T10:28:52.000Z</time>
        <extensions>
          <ns3:TrackPointExtension>
            <ns3:hr>124</ns3:hr>
            <ns3:cad>54</ns3:cad>
          </ns3:TrackPointExtension>
        </extensions>
      </trkpt>
      <trkpt lat="49.85634787939488887786865234375" lon="6.88799799419939517974853515625">
        <ele>239.399993896484375</ele>
        <time>2026-04-22T10:29:00.000Z</time>
        <extensions>
          <ns3:TrackPointExtension>
            <ns3:hr>124</ns3:hr>
            <ns3:cad>52</ns3:cad>
          </ns3:TrackPointExtension>
        </extensions>
      </trkpt>
      <trkpt lat="49.8563902080059051513671875" lon="6.88800998032093048095703125">
        <ele>239</ele>
        <time>2026-04-22T10:29:08.000Z</time>
        <extensions>
          <ns3:TrackPointExtension>
            <ns3:hr>123</ns3:hr>
            <ns3:cad>0</ns3:cad>
          </ns3:TrackPointExtension>
        </extensions>
      </trkpt>
      <trkpt lat="49.85639649443328380584716796875" lon="6.88800000585615634918212890625">
        <ele>239</ele>
        <time>2026-04-22T10:29:13.000Z</time>
        <extensions>
          <ns3:TrackPointExtension>
            <ns3:hr>121</ns3:hr>
            <ns3:cad>0</ns3:cad>
          </ns3:TrackPointExtension>
        </extensions>
      </trkpt>
      <trkpt lat="49.85643605701625347137451171875" lon="6.88807561062276363372802734375">
        <ele>239</ele>
        <time>2026-04-22T10:29:19.000Z</time>
        <extensions>
          <ns3:TrackPointExtension>
            <ns3:hr>121</ns3:hr>
            <ns3:cad>50</ns3:cad>
          </ns3:TrackPointExtension>
        </extensions>
      </trkpt>
      <trkpt lat="49.85651970840990543365478515625" lon="6.88815959729254245758056640625">
        <ele>238.1999969482421875</ele>
        <time>2026-04-22T10:29:25.000Z</time>
        <extensions>
          <ns3:TrackPointExtension>
            <ns3:hr>122</ns3:hr>
            <ns3:cad>51</ns3:cad>
          </ns3:TrackPointExtension>
        </extensions>
      </trkpt>
      <trkpt lat="49.85655851662158966064453125" lon="6.88820184208452701568603515625">
        <ele>238.1999969482421875</ele>
        <time>2026-04-22T10:29:28.000Z</time>
        <extensions>
          <ns3:TrackPointExtension>
            <ns3:hr>122</ns3:hr>
            <ns3:cad>51</ns3:cad>
          </ns3:TrackPointExtension>
        </extensions>
      </trkpt>
      <trkpt lat="49.85660889185965061187744140625" lon="6.8883004970848560333251953125">
        <ele>237.8000030517578125</ele>
        <time>2026-04-22T10:29:36.000Z</time>
        <extensions>
          <ns3:TrackPointExtension>
            <ns3:hr>121</ns3:hr>
            <ns3:cad>0</ns3:cad>
          </ns3:TrackPointExtension>
        </extensions>
      </trkpt>
      <trkpt lat="49.85663789324462413787841796875" lon="6.88842077739536762237548828125">
        <ele>237.399993896484375</ele>
        <time>2026-04-22T10:29:43.000Z</time>
        <extensions>
          <ns3:TrackPointExtension>
            <ns3:hr>118</ns3:hr>
            <ns3:cad>0</ns3:cad>
          </ns3:TrackPointExtension>
        </extensions>
      </trkpt>
      <trkpt lat="49.8566492088139057159423828125" lon="6.8884476833045482635498046875">
        <ele>237.1999969482421875</ele>
        <time>2026-04-22T10:29:45.000Z</time>
        <extensions>
          <ns3:TrackPointExtension>
            <ns3:hr>118</ns3:hr>
            <ns3:cad>0</ns3:cad>
          </ns3:TrackPointExtension>
        </extensions>
      </trkpt>
      <trkpt lat="49.8566530644893646240234375" lon="6.88846134580671787261962890625">
        <ele>237</ele>
        <time>2026-04-22T10:29:46.000Z</time>
        <extensions>
          <ns3:TrackPointExtension>
            <ns3:hr>118</ns3:hr>
            <ns3:cad>0</ns3:cad>
          </ns3:TrackPointExtension>
        </extensions>
      </trkpt>
      <trkpt lat="49.8566582612693309783935546875" lon="6.8885854817926883697509765625">
        <ele>237</ele>
        <time>2026-04-22T10:29:55.000Z</time>
        <extensions>
          <ns3:TrackPointExtension>
            <ns3:hr>118</ns3:hr>
            <ns3:cad>0</ns3:cad>
          </ns3:TrackPointExtension>
        </extensions>
      </trkpt>
      <trkpt lat="49.8566492088139057159423828125" lon="6.88857584260404109954833984375">
        <ele>237</ele>
        <time>2026-04-22T10:29:56.000Z</time>
        <extensions>
          <ns3:TrackPointExtension>
            <ns3:hr>118</ns3:hr>
            <ns3:cad>0</ns3:cad>
          </ns3:TrackPointExtension>
        </extensions>
      </trkpt>
      <trkpt lat="49.85663839615881443023681640625" lon="6.88852923922240734100341796875">
        <ele>236.8000030517578125</ele>
        <time>2026-04-22T10:30:00.000Z</time>
        <extensions>
          <ns3:TrackPointExtension>
            <ns3:hr>118</ns3:hr>
            <ns3:cad>48</ns3:cad>
          </ns3:TrackPointExtension>
        </extensions>
      </trkpt>
      <trkpt lat="49.85662825405597686767578125" lon="6.8885083682835102081298828125">
        <ele>236.600006103515625</ele>
        <time>2026-04-22T10:30:07.000Z</time>
        <extensions>
          <ns3:TrackPointExtension>
            <ns3:hr>117</ns3:hr>
            <ns3:cad>0</ns3:cad>
          </ns3:TrackPointExtension>
        </extensions>
      </trkpt>
      <trkpt lat="49.8566394858062267303466796875" lon="6.88855974934995174407958984375">
        <ele>236.8000030517578125</ele>
        <time>2026-04-22T10:30:14.000Z</time>
        <extensions>
          <ns3:TrackPointExtension>
            <ns3:hr>117</ns3:hr>
            <ns3:cad>0</ns3:cad>
          </ns3:TrackPointExtension>
        </extensions>
      </trkpt>
      <trkpt lat="49.85665264539420604705810546875" lon="6.8886471726000308990478515625">
        <ele>236.8000030517578125</ele>
        <time>2026-04-22T10:30:21.000Z</time>
        <extensions>
          <ns3:TrackPointExtension>
            <ns3:hr>118</ns3:hr>
            <ns3:cad>0</ns3:cad>
          </ns3:TrackPointExtension>
        </extensions>
      </trkpt>
      <trkpt lat="49.85664593987166881561279296875" lon="6.8886612541973590850830078125">
        <ele>237</ele>
        <time>2026-04-22T10:30:29.000Z</time>
        <extensions>
          <ns3:TrackPointExtension>
            <ns3:hr>117</ns3:hr>
            <ns3:cad>0</ns3:cad>
          </ns3:TrackPointExtension>
        </extensions>
      </trkpt>
      <trkpt lat="49.8566394858062267303466796875" lon="6.888660751283168792724609375">
        <ele>236.8000030517578125</ele>
        <time>2026-04-22T10:30:37.000Z</time>
        <extensions>
          <ns3:TrackPointExtension>
            <ns3:hr>117</ns3:hr>
            <ns3:cad>0</ns3:cad>
          </ns3:TrackPointExtension>
        </extensions>
      </trkpt>
      <trkpt lat="49.8566046170890331268310546875" lon="6.88871498219668865203857421875">
        <ele>236.399993896484375</ele>
        <time>2026-04-22T10:30:47.000Z</time>
        <extensions>
          <ns3:TrackPointExtension>
            <ns3:hr>116</ns3:hr>
            <ns3:cad>53</ns3:cad>
          </ns3:TrackPointExtension>
        </extensions>
      </trkpt>
      <trkpt lat="49.85657150857150554656982421875" lon="6.88874733634293079376220703125">
        <ele>236.1999969482421875</ele>
        <time>2026-04-22T10:30:53.000Z</time>
        <extensions>
          <ns3:TrackPointExtension>
            <ns3:hr>116</ns3:hr>
            <ns3:cad>0</ns3:cad>
          </ns3:TrackPointExtension>
        </extensions>
      </trkpt>
      <trkpt lat="49.85657368786633014678955078125" lon="6.8887480907142162322998046875">
        <ele>236</ele>
        <time>2026-04-22T10:30:55.000Z</time>
        <extensions>
          <ns3:TrackPointExtension>
            <ns3:hr>115</ns3:hr>
            <ns3:cad>0</ns3:cad>
          </ns3:TrackPointExtension>
        </extensions>
      </trkpt>
      <trkpt lat="49.85657486133277416229248046875" lon="6.88874733634293079376220703125">
        <ele>236.1999969482421875</ele>
        <time>2026-04-22T10:31:03.000Z</time>
        <extensions>
          <ns3:TrackPointExtension>
            <ns3:hr>114</ns3:hr>
            <ns3:cad>0</ns3:cad>
          </ns3:TrackPointExtension>
        </extensions>
      </trkpt>
      <trkpt lat="49.85658709891140460968017578125" lon="6.8887698836624622344970703125">
        <ele>235.600006103515625</ele>
        <time>2026-04-22T10:31:31.000Z</time>
        <extensions>
          <ns3:TrackPointExtension>
            <ns3:hr>109</ns3:hr>
            <ns3:cad>0</ns3:cad>
          </ns3:TrackPointExtension>
        </extensions>
      </trkpt>
      <trkpt lat="49.8566022701561450958251953125" lon="6.888770721852779388427734375">
        <ele>236</ele>
        <time>2026-04-22T10:31:37.000Z</time>
        <extensions>
          <ns3:TrackPointExtension>
            <ns3:hr>112</ns3:hr>
            <ns3:cad>0</ns3:cad>
          </ns3:TrackPointExtension>
        </extensions>
      </trkpt>
      <trkpt lat="49.85660034231841564178466796875" lon="6.888707019388675689697265625">
        <ele>236</ele>
        <time>2026-04-22T10:31:42.000Z</time>
        <extensions>
          <ns3:TrackPointExtension>
            <ns3:hr>112</ns3:hr>
            <ns3:cad>0</ns3:cad>
          </ns3:TrackPointExtension>
        </extensions>
      </trkpt>
      <trkpt lat="49.8565965704619884490966796875" lon="6.88866904936730861663818359375">
        <ele>235.8000030517578125</ele>
        <time>2026-04-22T10:31:47.000Z</time>
        <extensions>
          <ns3:TrackPointExtension>
            <ns3:hr>112</ns3:hr>
            <ns3:cad>0</ns3:cad>
          </ns3:TrackPointExtension>
        </extensions>
      </trkpt>
      <trkpt lat="49.85659933649003505706787109375" lon="6.888727135956287384033203125">
        <ele>236</ele>
        <time>2026-04-22T10:31:52.000Z</time>
        <extensions>
          <ns3:TrackPointExtension>
            <ns3:hr>109</ns3:hr>
            <ns3:cad>0</ns3:cad>
          </ns3:TrackPointExtension>
        </extensions>
      </trkpt>
      <trkpt lat="49.8566026054322719573974609375" lon="6.88873174600303173065185546875">
        <ele>236.1999969482421875</ele>
        <time>2026-04-22T10:31:55.000Z</time>
        <extensions>
          <ns3:TrackPointExtension>
            <ns3:hr>109</ns3:hr>
            <ns3:cad>0</ns3:cad>
          </ns3:TrackPointExtension>
        </extensions>
      </trkpt>
      <trkpt lat="49.85663219355046749114990234375" lon="6.8887175805866718292236328125">
        <ele>236.399993896484375</ele>
        <time>2026-04-22T10:32:00.000Z</time>
        <extensions>
          <ns3:TrackPointExtension>
            <ns3:hr>111</ns3:hr>
            <ns3:cad>0</ns3:cad>
          </ns3:TrackPointExtension>
        </extensions>
      </trkpt>
      <trkpt lat="49.85666739754378795623779296875" lon="6.8887504376471042633056640625">
        <ele>236.399993896484375</ele>
        <time>2026-04-22T10:32:05.000Z</time>
        <extensions>
          <ns3:TrackPointExtension>
            <ns3:hr>114</ns3:hr>
            <ns3:cad>0</ns3:cad>
          </ns3:TrackPointExtension>
        </extensions>
      </trkpt>
      <trkpt lat="49.85667494125664234161376953125" lon="6.88877172768115997314453125">
        <ele>236.1999969482421875</ele>
        <time>2026-04-22T10:32:07.000Z</time>
        <extensions>
          <ns3:TrackPointExtension>
            <ns3:hr>114</ns3:hr>
            <ns3:cad>0</ns3:cad>
          </ns3:TrackPointExtension>
        </extensions>
      </trkpt>
      <trkpt lat="49.8566798865795135498046875" lon="6.88879963941872119903564453125">
        <ele>235</ele>
        <time>2026-04-22T10:32:14.000Z</time>
        <extensions>
          <ns3:TrackPointExtension>
            <ns3:hr>113</ns3:hr>
            <ns3:cad>0</ns3:cad>
          </ns3:TrackPointExtension>
        </extensions>
      </trkpt>
      <trkpt lat="49.8566813953220844268798828125" lon="6.888799555599689483642578125">
        <ele>234.8000030517578125</ele>
        <time>2026-04-22T10:32:15.000Z</time>
        <extensions>
          <ns3:TrackPointExtension>
            <ns3:hr>113</ns3:hr>
            <ns3:cad>0</ns3:cad>
          </ns3:TrackPointExtension>
        </extensions>
      </trkpt>
      <trkpt lat="49.8567112348973751068115234375" lon="6.8888205103576183319091796875">
        <ele>234.1999969482421875</ele>
        <time>2026-04-22T10:32:21.000Z</time>
        <extensions>
          <ns3:TrackPointExtension>
            <ns3:hr>112</ns3:hr>
            <ns3:cad>0</ns3:cad>
          </ns3:TrackPointExtension>
        </extensions>
      </trkpt>
      <trkpt lat="49.85672037117183208465576171875" lon="6.88881757669150829315185546875">
        <ele>233.8000030517578125</ele>
        <time>2026-04-22T10:32:23.000Z</time>
        <extensions>
          <ns3:TrackPointExtension>
            <ns3:hr>112</ns3:hr>
            <ns3:cad>0</ns3:cad>
          </ns3:TrackPointExtension>
        </extensions>
      </trkpt>
      <trkpt lat="49.8567296750843524932861328125" lon="6.88882009126245975494384765625">
        <ele>233.399993896484375</ele>
        <time>2026-04-22T10:32:27.000Z</time>
        <extensions>
          <ns3:TrackPointExtension>
            <ns3:hr>111</ns3:hr>
            <ns3:cad>0</ns3:cad>
          </ns3:TrackPointExtension>
        </extensions>
      </trkpt>
      <trkpt lat="49.85672414302825927734375" lon="6.8888366036117076873779296875">
        <ele>232.600006103515625</ele>
        <time>2026-04-22T10:32:31.000Z</time>
        <extensions>
          <ns3:TrackPointExtension>
            <ns3:hr>111</ns3:hr>
            <ns3:cad>0</ns3:cad>
          </ns3:TrackPointExtension>
        </extensions>
      </trkpt>
      <trkpt lat="49.85672389157116413116455078125" lon="6.88883802853524684906005859375">
        <ele>232.1999969482421875</ele>
        <time>2026-04-22T10:32:35.000Z</time>
        <extensions>
          <ns3:TrackPointExtension>
            <ns3:hr>112</ns3:hr>
            <ns3:cad>0</ns3:cad>
          </ns3:TrackPointExtension>
        </extensions>
      </trkpt>
      <trkpt lat="49.8567263223230838775634765625" lon="6.8888372741639614105224609375">
        <ele>231.600006103515625</ele>
        <time>2026-04-22T10:32:51.000Z</time>
        <extensions>
          <ns3:TrackPointExtension>
            <ns3:hr>113</ns3:hr>
            <ns3:cad>0</ns3:cad>
          </ns3:TrackPointExtension>
        </extensions>
      </trkpt>
      <trkpt lat="49.85673629678785800933837890625" lon="6.8888268806040287017822265625">
        <ele>230.600006103515625</ele>
        <time>2026-04-22T10:32:57.000Z</time>
        <extensions>
          <ns3:TrackPointExtension>
            <ns3:hr>114</ns3:hr>
            <ns3:cad>0</ns3:cad>
          </ns3:TrackPointExtension>
        </extensions>
      </trkpt>
      <trkpt lat="49.85676965676248073577880859375" lon="6.88879578374326229095458984375">
        <ele>229.8000030517578125</ele>
        <time>2026-04-22T10:33:00.000Z</time>
        <extensions>
          <ns3:TrackPointExtension>
            <ns3:hr>113</ns3:hr>
            <ns3:cad>0</ns3:cad>
          </ns3:TrackPointExtension>
        </extensions>
      </trkpt>
      <trkpt lat="49.85678792931139469146728515625" lon="6.888803578913211822509765625">
        <ele>229.600006103515625</ele>
        <time>2026-04-22T10:33:02.000Z</time>
        <extensions>
          <ns3:TrackPointExtension>
            <ns3:hr>113</ns3:hr>
            <ns3:cad>52</ns3:cad>
          </ns3:TrackPointExtension>
        </extensions>
      </trkpt>
      <trkpt lat="49.85679865814745426177978515625" lon="6.88881137408316135406494140625">
        <ele>229.399993896484375</ele>
        <time>2026-04-22T10:33:03.000Z</time>
        <extensions>
          <ns3:TrackPointExtension>
            <ns3:hr>113</ns3:hr>
            <ns3:cad>53</ns3:cad>
          </ns3:TrackPointExtension>
        </extensions>
      </trkpt>
      <trkpt lat="49.85681827180087566375732421875" lon="6.88881774432957172393798828125">
        <ele>229</ele>
        <time>2026-04-22T10:33:06.000Z</time>
        <extensions>
          <ns3:TrackPointExtension>
            <ns3:hr>113</ns3:hr>
            <ns3:cad>0</ns3:cad>
          </ns3:TrackPointExtension>
        </extensions>
      </trkpt>
      <trkpt lat="49.8568218760192394256591796875" lon="6.8888744898140430450439453125">
        <ele>228.399993896484375</ele>
        <time>2026-04-22T10:33:11.000Z</time>
        <extensions>
          <ns3:TrackPointExtension>
            <ns3:hr>113</ns3:hr>
            <ns3:cad>51</ns3:cad>
          </ns3:TrackPointExtension>
        </extensions>
      </trkpt>
      <trkpt lat="49.856818355619907379150390625" lon="6.88892520032823085784912109375">
        <ele>227.600006103515625</ele>
        <time>2026-04-22T10:33:16.000Z</time>
        <extensions>
          <ns3:TrackPointExtension>
            <ns3:hr>112</ns3:hr>
            <ns3:cad>50</ns3:cad>
          </ns3:TrackPointExtension>
        </extensions>
      </trkpt>
      <trkpt lat="49.85681642778217792510986328125" lon="6.88892620615661144256591796875">
        <ele>227.399993896484375</ele>
        <time>2026-04-22T10:33:17.000Z</time>
        <extensions>
          <ns3:TrackPointExtension>
            <ns3:hr>112</ns3:hr>
            <ns3:cad>50</ns3:cad>
          </ns3:TrackPointExtension>
        </extensions>
      </trkpt>
      <trkpt lat="49.85682179220020771026611328125" lon="6.8889412097632884979248046875">
        <ele>226.600006103515625</ele>
        <time>2026-04-22T10:33:21.000Z</time>
        <extensions>
          <ns3:TrackPointExtension>
            <ns3:hr>112</ns3:hr>
            <ns3:cad>50</ns3:cad>
          </ns3:TrackPointExtension>
        </extensions>
      </trkpt>
      <trkpt lat="49.8568108119070529937744140625" lon="6.88896107487380504608154296875">
        <ele>226.399993896484375</ele>
        <time>2026-04-22T10:33:25.000Z</time>
        <extensions>
          <ns3:TrackPointExtension>
            <ns3:hr>111</ns3:hr>
            <ns3:cad>0</ns3:cad>
          </ns3:TrackPointExtension>
        </extensions>
      </trkpt>
      <trkpt lat="49.8568139970302581787109375" lon="6.889008767902851104736328125">
        <ele>225</ele>
        <time>2026-04-22T10:33:30.000Z</time>
        <extensions>
          <ns3:TrackPointExtension>
            <ns3:hr>111</ns3:hr>
            <ns3:cad>0</ns3:cad>
          </ns3:TrackPointExtension>
        </extensions>
      </trkpt>
      <trkpt lat="49.8568155057728290557861328125" lon="6.8890401162207126617431640625">
        <ele>223.8000030517578125</ele>
        <time>2026-04-22T10:33:36.000Z</time>
        <extensions>
          <ns3:TrackPointExtension>
            <ns3:hr>112</ns3:hr>
            <ns3:cad>0</ns3:cad>
          </ns3:TrackPointExtension>
        </extensions>
      </trkpt>
      <trkpt lat="49.85682564787566661834716796875" lon="6.889056377112865447998046875">
        <ele>223.600006103515625</ele>
        <time>2026-04-22T10:33:41.000Z</time>
        <extensions>
          <ns3:TrackPointExtension>
            <ns3:hr>113</ns3:hr>
            <ns3:cad>0</ns3:cad>
          </ns3:TrackPointExtension>
        </extensions>
      </trkpt>
      <trkpt lat="49.8568275757133960723876953125" lon="6.88910809345543384552001953125">
        <ele>223.399993896484375</ele>
        <time>2026-04-22T10:33:49.000Z</time>
        <extensions>
          <ns3:TrackPointExtension>
            <ns3:hr>113</ns3:hr>
            <ns3:cad>0</ns3:cad>
          </ns3:TrackPointExtension>
        </extensions>
      </trkpt>
      <trkpt lat="49.85682950355112552642822265625" lon="6.88915704376995563507080078125">
        <ele>222.600006103515625</ele>
        <time>2026-04-22T10:33:54.000Z</time>
        <extensions>
          <ns3:TrackPointExtension>
            <ns3:hr>113</ns3:hr>
            <ns3:cad>0</ns3:cad>
          </ns3:TrackPointExtension>
        </extensions>
      </trkpt>
      <trkpt lat="49.856828413903713226318359375" lon="6.88916224054992198944091796875">
        <ele>222.399993896484375</ele>
        <time>2026-04-22T10:33:56.000Z</time>
        <extensions>
          <ns3:TrackPointExtension>
            <ns3:hr>113</ns3:hr>
            <ns3:cad>0</ns3:cad>
          </ns3:TrackPointExtension>
        </extensions>
      </trkpt>
      <trkpt lat="49.85682631842792034149169921875" lon="6.88916240818798542022705078125">
        <ele>222.1999969482421875</ele>
        <time>2026-04-22T10:34:04.000Z</time>
        <extensions>
          <ns3:TrackPointExtension>
            <ns3:hr>113</ns3:hr>
            <ns3:cad>0</ns3:cad>
          </ns3:TrackPointExtension>
        </extensions>
      </trkpt>
      <trkpt lat="49.85685062594711780548095703125" lon="6.88913407735526561737060546875">
        <ele>221.600006103515625</ele>
        <time>2026-04-22T10:34:13.000Z</time>
        <extensions>
          <ns3:TrackPointExtension>
            <ns3:hr>114</ns3:hr>
            <ns3:cad>0</ns3:cad>
          </ns3:TrackPointExtension>
        </extensions>
      </trkpt>
      <trkpt lat="49.8568560741841793060302734375" lon="6.88913038931787014007568359375">
        <ele>221.399993896484375</ele>
        <time>2026-04-22T10:34:14.000Z</time>
        <extensions>
          <ns3:TrackPointExtension>
            <ns3:hr>114</ns3:hr>
            <ns3:cad>0</ns3:cad>
          </ns3:TrackPointExtension>
        </extensions>
      </trkpt>
      <trkpt lat="49.856864623725414276123046875" lon="6.88913323916494846343994140625">
        <ele>220.600006103515625</ele>
        <time>2026-04-22T10:34:19.000Z</time>
        <extensions>
          <ns3:TrackPointExtension>
            <ns3:hr>115</ns3:hr>
            <ns3:cad>0</ns3:cad>
          </ns3:TrackPointExtension>
        </extensions>
      </trkpt>
      <trkpt lat="49.8568617738783359527587890625" lon="6.88913105987012386322021484375">
        <ele>219.8000030517578125</ele>
        <time>2026-04-22T10:34:21.000Z</time>
        <extensions>
          <ns3:TrackPointExtension>
            <ns3:hr>115</ns3:hr>
            <ns3:cad>0</ns3:cad>
          </ns3:TrackPointExtension>
        </extensions>
      </trkpt>
      <trkpt lat="49.8568607680499553680419921875" lon="6.88913105987012386322021484375">
        <ele>220</ele>
        <time>2026-04-22T10:34:32.000Z</time>
        <extensions>
          <ns3:TrackPointExtension>
            <ns3:hr>115</ns3:hr>
            <ns3:cad>0</ns3:cad>
          </ns3:TrackPointExtension>
        </extensions>
      </trkpt>
      <trkpt lat="49.85687367618083953857421875" lon="6.88911681063473224639892578125">
        <ele>219.600006103515625</ele>
        <time>2026-04-22T10:34:34.000Z</time>
        <extensions>
          <ns3:TrackPointExtension>
            <ns3:hr>115</ns3:hr>
            <ns3:cad>0</ns3:cad>
          </ns3:TrackPointExtension>
        </extensions>
      </trkpt>
      <trkpt lat="49.85690108500421047210693359375" lon="6.88907749950885772705078125">
        <ele>219</ele>
        <time>2026-04-22T10:34:37.000Z</time>
        <extensions>
          <ns3:TrackPointExtension>
            <ns3:hr>115</ns3:hr>
            <ns3:cad>0</ns3:cad>
          </ns3:TrackPointExtension>
        </extensions>
      </trkpt>
      <trkpt lat="49.85694098286330699920654296875" lon="6.88901522196829319000244140625">
        <ele>218.600006103515625</ele>
        <time>2026-04-22T10:34:41.000Z</time>
        <extensions>
          <ns3:TrackPointExtension>
            <ns3:hr>112</ns3:hr>
            <ns3:cad>0</ns3:cad>
          </ns3:TrackPointExtension>
        </extensions>
      </trkpt>
      <trkpt lat="49.8569512926042079925537109375" lon="6.8890002183616161346435546875">
        <ele>218.600006103515625</ele>
        <time>2026-04-22T10:34:42.000Z</time>
        <extensions>
          <ns3:TrackPointExtension>
            <ns3:hr>112</ns3:hr>
            <ns3:cad>0</ns3:cad>
          </ns3:TrackPointExtension>
        </extensions>
      </trkpt>
      <trkpt lat="49.856954477727413177490234375" lon="6.88898471184074878692626953125">
        <ele>218.600006103515625</ele>
        <time>2026-04-22T10:34:43.000Z</time>
        <extensions>
          <ns3:TrackPointExtension>
            <ns3:hr>111</ns3:hr>
            <ns3:cad>53</ns3:cad>
          </ns3:TrackPointExtension>
        </extensions>
      </trkpt>
      <trkpt lat="49.85699093900620937347412109375" lon="6.88891916535794734954833984375">
        <ele>217.399993896484375</ele>
        <time>2026-04-22T10:34:49.000Z</time>
        <extensions>
          <ns3:TrackPointExtension>
            <ns3:hr>111</ns3:hr>
            <ns3:cad>53</ns3:cad>
          </ns3:TrackPointExtension>
        </extensions>
      </trkpt>
      <trkpt lat="49.856998063623905181884765625" lon="6.88889133743941783905029296875">
        <ele>217.1999969482421875</ele>
        <time>2026-04-22T10:34:51.000Z</time>
        <extensions>
          <ns3:TrackPointExtension>
            <ns3:hr>111</ns3:hr>
            <ns3:cad>0</ns3:cad>
          </ns3:TrackPointExtension>
        </extensions>
      </trkpt>
      <trkpt lat="49.85700510442256927490234375" lon="6.88880835659801959991455078125">
        <ele>216.399993896484375</ele>
        <time>2026-04-22T10:34:56.000Z</time>
        <extensions>
          <ns3:TrackPointExtension>
            <ns3:hr>111</ns3:hr>
            <ns3:cad>53</ns3:cad>
          </ns3:TrackPointExtension>
        </extensions>
      </trkpt>
      <trkpt lat="49.8569989018142223358154296875" lon="6.88873442821204662322998046875">
        <ele>216</ele>
        <time>2026-04-22T10:35:00.000Z</time>
        <extensions>
          <ns3:TrackPointExtension>
            <ns3:hr>109</ns3:hr>
            <ns3:cad>0</ns3:cad>
          </ns3:TrackPointExtension>
        </extensions>
      </trkpt>
      <trkpt lat="49.856994040310382843017578125" lon="6.88869930803775787353515625">
        <ele>215.600006103515625</ele>
        <time>2026-04-22T10:35:02.000Z</time>
        <extensions>
          <ns3:TrackPointExtension>
            <ns3:hr>108</ns3:hr>
            <ns3:cad>0</ns3:cad>
          </ns3:TrackPointExtension>
        </extensions>
      </trkpt>
      <trkpt lat="49.85699705779552459716796875" lon="6.88865362666547298431396484375">
        <ele>215.399993896484375</ele>
        <time>2026-04-22T10:35:05.000Z</time>
        <extensions>
          <ns3:TrackPointExtension>
            <ns3:hr>108</ns3:hr>
            <ns3:cad>55</ns3:cad>
          </ns3:TrackPointExtension>
        </extensions>
      </trkpt>
      <trkpt lat="49.8569962196052074432373046875" lon="6.88860618509352207183837890625">
        <ele>215</ele>
        <time>2026-04-22T10:35:08.000Z</time>
        <extensions>
          <ns3:TrackPointExtension>
            <ns3:hr>108</ns3:hr>
            <ns3:cad>55</ns3:cad>
          </ns3:TrackPointExtension>
        </extensions>
      </trkpt>
      <trkpt lat="49.8570002429187297821044921875" lon="6.888526976108551025390625">
        <ele>214.399993896484375</ele>
        <time>2026-04-22T10:35:13.000Z</time>
        <extensions>
          <ns3:TrackPointExtension>
            <ns3:hr>108</ns3:hr>
            <ns3:cad>52</ns3:cad>
          </ns3:TrackPointExtension>
        </extensions>
      </trkpt>
      <trkpt lat="49.85699630342423915863037109375" lon="6.8884520418941974639892578125">
        <ele>214</ele>
        <time>2026-04-22T10:35:19.000Z</time>
        <extensions>
          <ns3:TrackPointExtension>
            <ns3:hr>110</ns3:hr>
            <ns3:cad>53</ns3:cad>
          </ns3:TrackPointExtension>
        </extensions>
      </trkpt>
      <trkpt lat="49.85697786323726177215576171875" lon="6.88832455314695835113525390625">
        <ele>213.8000030517578125</ele>
        <time>2026-04-22T10:35:27.000Z</time>
        <extensions>
          <ns3:TrackPointExtension>
            <ns3:hr>111</ns3:hr>
            <ns3:cad>0</ns3:cad>
          </ns3:TrackPointExtension>
        </extensions>
      </trkpt>
      <trkpt lat="49.8569707386195659637451171875" lon="6.888183653354644775390625">
        <ele>213.600006103515625</ele>
        <time>2026-04-22T10:35:35.000Z</time>
        <extensions>
          <ns3:TrackPointExtension>
            <ns3:hr>112</ns3:hr>
            <ns3:cad>54</ns3:cad>
          </ns3:TrackPointExtension>
        </extensions>
      </trkpt>
      <trkpt lat="49.856942407786846160888671875" lon="6.88810519874095916748046875">
        <ele>213.600006103515625</ele>
        <time>2026-04-22T10:35:41.000Z</time>
        <extensions>
          <ns3:TrackPointExtension>
            <ns3:hr>114</ns3:hr>
            <ns3:cad>53</ns3:cad>
          </ns3:TrackPointExtension>
        </extensions>
      </trkpt>
      <trkpt lat="49.85694073140621185302734375" lon="6.88797536306083202362060546875">
        <ele>213.600006103515625</ele>
        <time>2026-04-22T10:35:47.000Z</time>
        <extensions>
          <ns3:TrackPointExtension>
            <ns3:hr>115</ns3:hr>
            <ns3:cad>52</ns3:cad>
          </ns3:TrackPointExtension>
        </extensions>
      </trkpt>
      <trkpt lat="49.85696579329669475555419921875" lon="6.88791417516767978668212890625">
        <ele>213.600006103515625</ele>
        <time>2026-04-22T10:35:50.000Z</time>
        <extensions>
          <ns3:TrackPointExtension>
            <ns3:hr>115</ns3:hr>
            <ns3:cad>52</ns3:cad>
          </ns3:TrackPointExtension>
        </extensions>
      </trkpt>
      <trkpt lat="49.85695682466030120849609375" lon="6.8878130055963993072509765625">
        <ele>213.600006103515625</ele>
        <time>2026-04-22T10:35:55.000Z</time>
        <extensions>
          <ns3:TrackPointExtension>
            <ns3:hr>116</ns3:hr>
            <ns3:cad>0</ns3:cad>
          </ns3:TrackPointExtension>
        </extensions>
      </trkpt>
      <trkpt lat="49.856941401958465576171875" lon="6.88765198923647403717041015625">
        <ele>213.8000030517578125</ele>
        <time>2026-04-22T10:36:05.000Z</time>
        <extensions>
          <ns3:TrackPointExtension>
            <ns3:hr>116</ns3:hr>
            <ns3:cad>0</ns3:cad>
          </ns3:TrackPointExtension>
        </extensions>
      </trkpt>
      <trkpt lat="49.8569293320178985595703125" lon="6.8875377438962459564208984375">
        <ele>213.600006103515625</ele>
        <time>2026-04-22T10:36:13.000Z</time>
        <extensions>
          <ns3:TrackPointExtension>
            <ns3:hr>116</ns3:hr>
            <ns3:cad>54</ns3:cad>
          </ns3:TrackPointExtension>
        </extensions>
      </trkpt>
      <trkpt lat="49.85693394206464290618896484375" lon="6.887480914592742919921875">
        <ele>213.1999969482421875</ele>
        <time>2026-04-22T10:36:16.000Z</time>
        <extensions>
          <ns3:TrackPointExtension>
            <ns3:hr>116</ns3:hr>
            <ns3:cad>53</ns3:cad>
          </ns3:TrackPointExtension>
        </extensions>
      </trkpt>
      <trkpt lat="49.8569549806416034698486328125" lon="6.8874210678040981292724609375">
        <ele>212.8000030517578125</ele>
        <time>2026-04-22T10:36:20.000Z</time>
        <extensions>
          <ns3:TrackPointExtension>
            <ns3:hr>117</ns3:hr>
            <ns3:cad>54</ns3:cad>
          </ns3:TrackPointExtension>
        </extensions>
      </trkpt>
      <trkpt lat="49.8569740913808345794677734375" lon="6.88732643611729145050048828125">
        <ele>212.1999969482421875</ele>
        <time>2026-04-22T10:36:25.000Z</time>
        <extensions>
          <ns3:TrackPointExtension>
            <ns3:hr>117</ns3:hr>
            <ns3:cad>0</ns3:cad>
          </ns3:TrackPointExtension>
        </extensions>
      </trkpt>
      <trkpt lat="49.8569804616272449493408203125" lon="6.88728704117238521575927734375">
        <ele>211.8000030517578125</ele>
        <time>2026-04-22T10:36:28.000Z</time>
        <extensions>
          <ns3:TrackPointExtension>
            <ns3:hr>117</ns3:hr>
            <ns3:cad>0</ns3:cad>
          </ns3:TrackPointExtension>
        </extensions>
      </trkpt>
      <trkpt lat="49.85699228011071681976318359375" lon="6.8872058205306529998779296875">
        <ele>211</ele>
        <time>2026-04-22T10:36:34.000Z</time>
        <extensions>
          <ns3:TrackPointExtension>
            <ns3:hr>117</ns3:hr>
            <ns3:cad>0</ns3:cad>
          </ns3:TrackPointExtension>
        </extensions>
      </trkpt>
      <trkpt lat="49.85699429176747798919677734375" lon="6.887199617922306060791015625">
        <ele>210.8000030517578125</ele>
        <time>2026-04-22T10:36:35.000Z</time>
        <extensions>
          <ns3:TrackPointExtension>
            <ns3:hr>117</ns3:hr>
            <ns3:cad>0</ns3:cad>
          </ns3:TrackPointExtension>
        </extensions>
      </trkpt>
      <trkpt lat="49.85700510442256927490234375" lon="6.88711772672832012176513671875">
        <ele>209.8000030517578125</ele>
        <time>2026-04-22T10:36:41.000Z</time>
        <extensions>
          <ns3:TrackPointExtension>
            <ns3:hr>115</ns3:hr>
            <ns3:cad>0</ns3:cad>
          </ns3:TrackPointExtension>
        </extensions>
      </trkpt>
      <trkpt lat="49.857005774974822998046875" lon="6.88709928654134273529052734375">
        <ele>209.8000030517578125</ele>
        <time>2026-04-22T10:36:42.000Z</time>
        <extensions>
          <ns3:TrackPointExtension>
            <ns3:hr>115</ns3:hr>
            <ns3:cad>0</ns3:cad>
          </ns3:TrackPointExtension>
        </extensions>
      </trkpt>
      <trkpt lat="49.85701692290604114532470703125" lon="6.88701915554702281951904296875">
        <ele>209.1999969482421875</ele>
        <time>2026-04-22T10:36:47.000Z</time>
        <extensions>
          <ns3:TrackPointExtension>
            <ns3:hr>114</ns3:hr>
            <ns3:cad>0</ns3:cad>
          </ns3:TrackPointExtension>
        </extensions>
      </trkpt>
      <trkpt lat="49.857024885714054107666015625" lon="6.8869711272418498992919921875">
        <ele>208.8000030517578125</ele>
        <time>2026-04-22T10:36:50.000Z</time>
        <extensions>
          <ns3:TrackPointExtension>
            <ns3:hr>115</ns3:hr>
            <ns3:cad>0</ns3:cad>
          </ns3:TrackPointExtension>
        </extensions>
      </trkpt>
      <trkpt lat="49.85703326761722564697265625" lon="6.8869298882782459259033203125">
        <ele>208.399993896484375</ele>
        <time>2026-04-22T10:36:53.000Z</time>
        <extensions>
          <ns3:TrackPointExtension>
            <ns3:hr>115</ns3:hr>
            <ns3:cad>0</ns3:cad>
          </ns3:TrackPointExtension>
        </extensions>
      </trkpt>
      <trkpt lat="49.85705631785094738006591796875" lon="6.8868380226194858551025390625">
        <ele>207.8000030517578125</ele>
        <time>2026-04-22T10:36:59.000Z</time>
        <extensions>
          <ns3:TrackPointExtension>
            <ns3:hr>115</ns3:hr>
            <ns3:cad>54</ns3:cad>
          </ns3:TrackPointExtension>
        </extensions>
      </trkpt>
      <trkpt lat="49.8570639453828334808349609375" lon="6.8868266232311725616455078125">
        <ele>207.8000030517578125</ele>
        <time>2026-04-22T10:37:00.000Z</time>
        <extensions>
          <ns3:TrackPointExtension>
            <ns3:hr>115</ns3:hr>
            <ns3:cad>54</ns3:cad>
          </ns3:TrackPointExtension>
        </extensions>
      </trkpt>
      <trkpt lat="49.85706604085862636566162109375" lon="6.88680776394903659820556640625">
        <ele>207.600006103515625</ele>
        <time>2026-04-22T10:37:01.000Z</time>
        <extensions>
          <ns3:TrackPointExtension>
            <ns3:hr>115</ns3:hr>
            <ns3:cad>54</ns3:cad>
          </ns3:TrackPointExtension>
        </extensions>
      </trkpt>
      <trkpt lat="49.857071153819561004638671875" lon="6.88676468096673488616943359375">
        <ele>207.399993896484375</ele>
        <time>2026-04-22T10:37:03.000Z</time>
        <extensions>
          <ns3:TrackPointExtension>
            <ns3:hr>115</ns3:hr>
            <ns3:cad>54</ns3:cad>
          </ns3:TrackPointExtension>
        </extensions>
      </trkpt>
      <trkpt lat="49.8570706509053707122802734375" lon="6.88675680197775363922119140625">
        <ele>207.1999969482421875</ele>
        <time>2026-04-22T10:37:04.000Z</time>
        <extensions>
          <ns3:TrackPointExtension>
            <ns3:hr>115</ns3:hr>
            <ns3:cad>54</ns3:cad>
          </ns3:TrackPointExtension>
        </extensions>
      </trkpt>
      <trkpt lat="49.857077188789844512939453125" lon="6.8867186643183231353759765625">
        <ele>206.8000030517578125</ele>
        <time>2026-04-22T10:37:07.000Z</time>
        <extensions>
          <ns3:TrackPointExtension>
            <ns3:hr>115</ns3:hr>
            <ns3:cad>0</ns3:cad>
          </ns3:TrackPointExtension>
        </extensions>
      </trkpt>
      <trkpt lat="49.85710090957581996917724609375" lon="6.886647082865238189697265625">
        <ele>206.399993896484375</ele>
        <time>2026-04-22T10:37:10.000Z</time>
        <extensions>
          <ns3:TrackPointExtension>
            <ns3:hr>115</ns3:hr>
            <ns3:cad>0</ns3:cad>
          </ns3:TrackPointExtension>
        </extensions>
      </trkpt>
      <trkpt lat="49.85709822736680507659912109375" lon="6.88663006760179996490478515625">
        <ele>206.1999969482421875</ele>
        <time>2026-04-22T10:37:11.000Z</time>
        <extensions>
          <ns3:TrackPointExtension>
            <ns3:hr>115</ns3:hr>
            <ns3:cad>0</ns3:cad>
          </ns3:TrackPointExtension>
        </extensions>
      </trkpt>
      <trkpt lat="49.8571078665554523468017578125" lon="6.886559240520000457763671875">
        <ele>205.600006103515625</ele>
        <time>2026-04-22T10:37:15.000Z</time>
        <extensions>
          <ns3:TrackPointExtension>
            <ns3:hr>115</ns3:hr>
            <ns3:cad>0</ns3:cad>
          </ns3:TrackPointExtension>
        </extensions>
      </trkpt>
      <trkpt lat="49.857121445238590240478515625" lon="6.886535771191120147705078125">
        <ele>205.399993896484375</ele>
        <time>2026-04-22T10:37:17.000Z</time>
        <extensions>
          <ns3:TrackPointExtension>
            <ns3:hr>115</ns3:hr>
            <ns3:cad>52</ns3:cad>
          </ns3:TrackPointExtension>
        </extensions>
      </trkpt>
      <trkpt lat="49.8571474291384220123291015625" lon="6.88648137263953685760498046875">
        <ele>205.1999969482421875</ele>
        <time>2026-04-22T10:37:20.000Z</time>
        <extensions>
          <ns3:TrackPointExtension>
            <ns3:hr>115</ns3:hr>
            <ns3:cad>55</ns3:cad>
          </ns3:TrackPointExtension>
        </extensions>
      </trkpt>
      <trkpt lat="49.85714499838650226593017578125" lon="6.88644365407526493072509765625">
        <ele>205</ele>
        <time>2026-04-22T10:37:22.000Z</time>
        <extensions>
          <ns3:TrackPointExtension>
            <ns3:hr>115</ns3:hr>
            <ns3:cad>54</ns3:cad>
          </ns3:TrackPointExtension>
        </extensions>
      </trkpt>
      <trkpt lat="49.85717735253274440765380859375" lon="6.88635547645390033721923828125">
        <ele>204.8000030517578125</ele>
        <time>2026-04-22T10:37:28.000Z</time>
        <extensions>
          <ns3:TrackPointExtension>
            <ns3:hr>115</ns3:hr>
            <ns3:cad>52</ns3:cad>
          </ns3:TrackPointExtension>
        </extensions>
      </trkpt>
      <trkpt lat="49.85718422569334506988525390625" lon="6.88630417920649051666259765625">
        <ele>204.600006103515625</ele>
        <time>2026-04-22T10:37:32.000Z</time>
        <extensions>
          <ns3:TrackPointExtension>
            <ns3:hr>115</ns3:hr>
            <ns3:cad>52</ns3:cad>
          </ns3:TrackPointExtension>
        </extensions>
      </trkpt>
      <trkpt lat="49.85719059593975543975830078125" lon="6.88627584837377071380615234375">
        <ele>204.600006103515625</ele>
        <time>2026-04-22T10:37:33.000Z</time>
        <extensions>
          <ns3:TrackPointExtension>
            <ns3:hr>115</ns3:hr>
            <ns3:cad>52</ns3:cad>
          </ns3:TrackPointExtension>
        </extensions>
      </trkpt>
      <trkpt lat="49.85719059593975543975830078125" lon="6.88627584837377071380615234375">
        <ele>204.600006103515625</ele>
        <time>2026-04-22T10:37:34.000Z</time>
        <extensions>
          <ns3:TrackPointExtension>
            <ns3:hr>115</ns3:hr>
            <ns3:cad>52</ns3:cad>
          </ns3:TrackPointExtension>
        </extensions>
      </trkpt>
      <trkpt lat="49.85725278966128826141357421875" lon="6.886163614690303802490234375">
        <ele>204.600006103515625</ele>
        <time>2026-04-22T10:37:42.000Z</time>
        <extensions>
          <ns3:TrackPointExtension>
            <ns3:hr>115</ns3:hr>
            <ns3:cad>55</ns3:cad>
          </ns3:TrackPointExtension>
        </extensions>
      </trkpt>
      <trkpt lat="49.8572644405066967010498046875" lon="6.886122711002826690673828125">
        <ele>204.399993896484375</ele>
        <time>2026-04-22T10:37:45.000Z</time>
        <extensions>
          <ns3:TrackPointExtension>
            <ns3:hr>115</ns3:hr>
            <ns3:cad>55</ns3:cad>
          </ns3:TrackPointExtension>
        </extensions>
      </trkpt>
      <trkpt lat="49.85727424733340740203857421875" lon="6.8860687315464019775390625">
        <ele>204.600006103515625</ele>
        <time>2026-04-22T10:37:49.000Z</time>
        <extensions>
          <ns3:TrackPointExtension>
            <ns3:hr>115</ns3:hr>
            <ns3:cad>51</ns3:cad>
          </ns3:TrackPointExtension>
        </extensions>
      </trkpt>
      <trkpt lat="49.85728480853140354156494140625" lon="6.8860430829226970672607421875">
        <ele>204.600006103515625</ele>
        <time>2026-04-22T10:37:51.000Z</time>
        <extensions>
          <ns3:TrackPointExtension>
            <ns3:hr>114</ns3:hr>
            <ns3:cad>0</ns3:cad>
          </ns3:TrackPointExtension>
        </extensions>
      </trkpt>
      <trkpt lat="49.85730475746095180511474609375" lon="6.88602254725992679595947265625">
        <ele>204.600006103515625</ele>
        <time>2026-04-22T10:37:54.000Z</time>
        <extensions>
          <ns3:TrackPointExtension>
            <ns3:hr>114</ns3:hr>
            <ns3:cad>0</ns3:cad>
          </ns3:TrackPointExtension>
        </extensions>
      </trkpt>
      <trkpt lat="49.85731548629701137542724609375" lon="6.886002682149410247802734375">
        <ele>204.600006103515625</ele>
        <time>2026-04-22T10:37:56.000Z</time>
        <extensions>
          <ns3:TrackPointExtension>
            <ns3:hr>115</ns3:hr>
            <ns3:cad>0</ns3:cad>
          </ns3:TrackPointExtension>
        </extensions>
      </trkpt>
      <trkpt lat="49.8573311604559421539306640625" lon="6.885971166193485260009765625">
        <ele>204.600006103515625</ele>
        <time>2026-04-22T10:37:58.000Z</time>
        <extensions>
          <ns3:TrackPointExtension>
            <ns3:hr>115</ns3:hr>
            <ns3:cad>0</ns3:cad>
          </ns3:TrackPointExtension>
        </extensions>
      </trkpt>
      <trkpt lat="49.85734934918582439422607421875" lon="6.885886676609516143798828125">
        <ele>204.1999969482421875</ele>
        <time>2026-04-22T10:38:03.000Z</time>
        <extensions>
          <ns3:TrackPointExtension>
            <ns3:hr>115</ns3:hr>
            <ns3:cad>53</ns3:cad>
          </ns3:TrackPointExtension>
        </extensions>
      </trkpt>
      <trkpt lat="49.8573559708893299102783203125" lon="6.885861866176128387451171875">
        <ele>204</ele>
        <time>2026-04-22T10:38:05.000Z</time>
        <extensions>
          <ns3:TrackPointExtension>
            <ns3:hr>116</ns3:hr>
            <ns3:cad>55</ns3:cad>
          </ns3:TrackPointExtension>
        </extensions>
      </trkpt>
      <trkpt lat="49.85738790594041347503662109375" lon="6.885801851749420166015625">
        <ele>203.8000030517578125</ele>
        <time>2026-04-22T10:38:10.000Z</time>
        <extensions>
          <ns3:TrackPointExtension>
            <ns3:hr>117</ns3:hr>
            <ns3:cad>55</ns3:cad>
          </ns3:TrackPointExtension>
        </extensions>
      </trkpt>
      <trkpt lat="49.85740634612739086151123046875" lon="6.8856772966682910919189453125">
        <ele>203.8000030517578125</ele>
        <time>2026-04-22T10:38:18.000Z</time>
        <extensions>
          <ns3:TrackPointExtension>
            <ns3:hr>118</ns3:hr>
            <ns3:cad>0</ns3:cad>
          </ns3:TrackPointExtension>
        </extensions>
      </trkpt>
      <trkpt lat="49.85742998309433460235595703125" lon="6.885578893125057220458984375">
        <ele>203.600006103515625</ele>
        <time>2026-04-22T10:38:23.000Z</time>
        <extensions>
          <ns3:TrackPointExtension>
            <ns3:hr>115</ns3:hr>
            <ns3:cad>55</ns3:cad>
          </ns3:TrackPointExtension>
        </extensions>
      </trkpt>
      <trkpt lat="49.85744322650134563446044921875" lon="6.885544694960117340087890625">
        <ele>203.600006103515625</ele>
        <time>2026-04-22T10:38:26.000Z</time>
        <extensions>
          <ns3:TrackPointExtension>
            <ns3:hr>115</ns3:hr>
            <ns3:cad>55</ns3:cad>
          </ns3:TrackPointExtension>
        </extensions>
      </trkpt>
      <trkpt lat="49.8574538715183734893798828125" lon="6.8854727782309055328369140625">
        <ele>203.600006103515625</ele>
        <time>2026-04-22T10:38:32.000Z</time>
        <extensions>
          <ns3:TrackPointExtension>
            <ns3:hr>115</ns3:hr>
            <ns3:cad>53</ns3:cad>
          </ns3:TrackPointExtension>
        </extensions>
      </trkpt>
      <trkpt lat="49.857456050813198089599609375" lon="6.88543564639985561370849609375">
        <ele>203.600006103515625</ele>
        <time>2026-04-22T10:38:34.000Z</time>
        <extensions>
          <ns3:TrackPointExtension>
            <ns3:hr>115</ns3:hr>
            <ns3:cad>52</ns3:cad>
          </ns3:TrackPointExtension>
        </extensions>
      </trkpt>
      <trkpt lat="49.85750533640384674072265625" lon="6.88536557368934154510498046875">
        <ele>202.600006103515625</ele>
        <time>2026-04-22T10:38:39.000Z</time>
        <extensions>
          <ns3:TrackPointExtension>
            <ns3:hr>115</ns3:hr>
            <ns3:cad>52</ns3:cad>
          </ns3:TrackPointExtension>
        </extensions>
      </trkpt>
      <trkpt lat="49.85750592313706874847412109375" lon="6.88536456786096096038818359375">
        <ele>202.399993896484375</ele>
        <time>2026-04-22T10:38:40.000Z</time>
        <extensions>
          <ns3:TrackPointExtension>
            <ns3:hr>115</ns3:hr>
            <ns3:cad>52</ns3:cad>
          </ns3:TrackPointExtension>
        </extensions>
      </trkpt>
      <trkpt lat="49.85752084292471408843994140625" lon="6.885367333889007568359375">
        <ele>201.600006103515625</ele>
        <time>2026-04-22T10:38:43.000Z</time>
        <extensions>
          <ns3:TrackPointExtension>
            <ns3:hr>115</ns3:hr>
            <ns3:cad>52</ns3:cad>
          </ns3:TrackPointExtension>
        </extensions>
      </trkpt>
      <trkpt lat="49.8575537838041782379150390625" lon="6.88537797890603542327880859375">
        <ele>200.600006103515625</ele>
        <time>2026-04-22T10:38:47.000Z</time>
        <extensions>
          <ns3:TrackPointExtension>
            <ns3:hr>114</ns3:hr>
            <ns3:cad>0</ns3:cad>
          </ns3:TrackPointExtension>
        </extensions>
      </trkpt>
      <trkpt lat="49.8575621657073497772216796875" lon="6.8853847682476043701171875">
        <ele>200.399993896484375</ele>
        <time>2026-04-22T10:38:48.000Z</time>
        <extensions>
          <ns3:TrackPointExtension>
            <ns3:hr>114</ns3:hr>
            <ns3:cad>0</ns3:cad>
          </ns3:TrackPointExtension>
        </extensions>
      </trkpt>
      <trkpt lat="49.85759410075843334197998046875" lon="6.88544872216880321502685546875">
        <ele>199.399993896484375</ele>
        <time>2026-04-22T10:38:53.000Z</time>
        <extensions>
          <ns3:TrackPointExtension>
            <ns3:hr>109</ns3:hr>
            <ns3:cad>0</ns3:cad>
          </ns3:TrackPointExtension>
        </extensions>
      </trkpt>
      <trkpt lat="49.8576013930141925811767578125" lon="6.88546028919517993927001953125">
        <ele>199.399993896484375</ele>
        <time>2026-04-22T10:38:54.000Z</time>
        <extensions>
          <ns3:TrackPointExtension>
            <ns3:hr>108</ns3:hr>
            <ns3:cad>0</ns3:cad>
          </ns3:TrackPointExtension>
        </extensions>
      </trkpt>
      <trkpt lat="49.8576275445520877838134765625" lon="6.88551661558449268341064453125">
        <ele>198.399993896484375</ele>
        <time>2026-04-22T10:38:59.000Z</time>
        <extensions>
          <ns3:TrackPointExtension>
            <ns3:hr>105</ns3:hr>
            <ns3:cad>51</ns3:cad>
          </ns3:TrackPointExtension>
        </extensions>
      </trkpt>
      <trkpt lat="49.85762293450534343719482421875" lon="6.885527931153774261474609375">
        <ele>198.1999969482421875</ele>
        <time>2026-04-22T10:39:00.000Z</time>
        <extensions>
          <ns3:TrackPointExtension>
            <ns3:hr>105</ns3:hr>
            <ns3:cad>49</ns3:cad>
          </ns3:TrackPointExtension>
        </extensions>
      </trkpt>
      <trkpt lat="49.8576208390295505523681640625" lon="6.885535977780818939208984375">
        <ele>198</ele>
        <time>2026-04-22T10:39:01.000Z</time>
        <extensions>
          <ns3:TrackPointExtension>
            <ns3:hr>105</ns3:hr>
            <ns3:cad>49</ns3:cad>
          </ns3:TrackPointExtension>
        </extensions>
      </trkpt>
      <trkpt lat="49.8576285503804683685302734375" lon="6.8855609558522701263427734375">
        <ele>197.1999969482421875</ele>
        <time>2026-04-22T10:39:06.000Z</time>
        <extensions>
          <ns3:TrackPointExtension>
            <ns3:hr>106</ns3:hr>
            <ns3:cad>0</ns3:cad>
          </ns3:TrackPointExtension>
        </extensions>
      </trkpt>
      <trkpt lat="49.85762947238981723785400390625" lon="6.8855617940425872802734375">
        <ele>197</ele>
        <time>2026-04-22T10:39:07.000Z</time>
        <extensions>
          <ns3:TrackPointExtension>
            <ns3:hr>106</ns3:hr>
            <ns3:cad>0</ns3:cad>
          </ns3:TrackPointExtension>
        </extensions>
      </trkpt>
      <trkpt lat="49.85765797086060047149658203125" lon="6.88556380569934844970703125">
        <ele>196.1999969482421875</ele>
        <time>2026-04-22T10:39:12.000Z</time>
        <extensions>
          <ns3:TrackPointExtension>
            <ns3:hr>108</ns3:hr>
            <ns3:cad>45</ns3:cad>
          </ns3:TrackPointExtension>
        </extensions>
      </trkpt>
      <trkpt lat="49.85767037607729434967041015625" lon="6.88557947985827922821044921875">
        <ele>195.8000030517578125</ele>
        <time>2026-04-22T10:39:14.000Z</time>
        <extensions>
          <ns3:TrackPointExtension>
            <ns3:hr>109</ns3:hr>
            <ns3:cad>45</ns3:cad>
          </ns3:TrackPointExtension>
        </extensions>
      </trkpt>
      <trkpt lat="49.85768345184624195098876953125" lon="6.88556791283190250396728515625">
        <ele>195.1999969482421875</ele>
        <time>2026-04-22T10:39:17.000Z</time>
        <extensions>
          <ns3:TrackPointExtension>
            <ns3:hr>112</ns3:hr>
            <ns3:cad>0</ns3:cad>
          </ns3:TrackPointExtension>
        </extensions>
      </trkpt>
      <trkpt lat="49.8576771654188632965087890625" lon="6.8855602853000164031982421875">
        <ele>195</ele>
        <time>2026-04-22T10:39:18.000Z</time>
        <extensions>
          <ns3:TrackPointExtension>
            <ns3:hr>114</ns3:hr>
            <ns3:cad>0</ns3:cad>
          </ns3:TrackPointExtension>
        </extensions>
      </trkpt>
      <trkpt lat="49.85769174993038177490234375" lon="6.8855592794716358184814453125">
        <ele>195</ele>
        <time>2026-04-22T10:39:19.000Z</time>
        <extensions>
          <ns3:TrackPointExtension>
            <ns3:hr>117</ns3:hr>
            <ns3:cad>0</ns3:cad>
          </ns3:TrackPointExtension>
        </extensions>
      </trkpt>
      <trkpt lat="49.8576952703297138214111328125" lon="6.8855596147477626800537109375">
        <ele>195</ele>
        <time>2026-04-22T10:39:20.000Z</time>
        <extensions>
          <ns3:TrackPointExtension>
            <ns3:hr>120</ns3:hr>
            <ns3:cad>0</ns3:cad>
          </ns3:TrackPointExtension>
        </extensions>
      </trkpt>
      <trkpt lat="49.857696779072284698486328125" lon="6.88555978238582611083984375">
        <ele>195</ele>
        <time>2026-04-22T10:39:21.000Z</time>
        <extensions>
          <ns3:TrackPointExtension>
            <ns3:hr>121</ns3:hr>
            <ns3:cad>0</ns3:cad>
          </ns3:TrackPointExtension>
        </extensions>
      </trkpt>
      <trkpt lat="49.85772469080984592437744140625" lon="6.88554930500686168670654296875">
        <ele>195</ele>
        <time>2026-04-22T10:39:24.000Z</time>
        <extensions>
          <ns3:TrackPointExtension>
            <ns3:hr>117</ns3:hr>
            <ns3:cad>0</ns3:cad>
          </ns3:TrackPointExtension>
        </extensions>
      </trkpt>
      <trkpt lat="49.857737012207508087158203125" lon="6.88554503023624420166015625">
        <ele>195</ele>
        <time>2026-04-22T10:39:28.000Z</time>
        <extensions>
          <ns3:TrackPointExtension>
            <ns3:hr>115</ns3:hr>
            <ns3:cad>0</ns3:cad>
          </ns3:TrackPointExtension>
        </extensions>
      </trkpt>
      <trkpt lat="49.85769317485392093658447265625" lon="6.88564427196979522705078125">
        <ele>194.8000030517578125</ele>
        <time>2026-04-22T10:39:37.000Z</time>
        <extensions>
          <ns3:TrackPointExtension>
            <ns3:hr>115</ns3:hr>
            <ns3:cad>53</ns3:cad>
          </ns3:TrackPointExtension>
        </extensions>
      </trkpt>
      <trkpt lat="49.85768227837979793548583984375" lon="6.88574762083590030670166015625">
        <ele>194.399993896484375</ele>
        <time>2026-04-22T10:39:43.000Z</time>
        <extensions>
          <ns3:TrackPointExtension>
            <ns3:hr>115</ns3:hr>
            <ns3:cad>0</ns3:cad>
          </ns3:TrackPointExtension>
        </extensions>
      </trkpt>
      <trkpt lat="49.8576899059116840362548828125" lon="6.88576589338481426239013671875">
        <ele>194.1999969482421875</ele>
        <time>2026-04-22T10:39:45.000Z</time>
        <extensions>
          <ns3:TrackPointExtension>
            <ns3:hr>115</ns3:hr>
            <ns3:cad>0</ns3:cad>
          </ns3:TrackPointExtension>
        </extensions>
      </trkpt>
      <trkpt lat="49.85769853927195072174072265625" lon="6.88578701578080654144287109375">
        <ele>194</ele>
        <time>2026-04-22T10:39:48.000Z</time>
        <extensions>
          <ns3:TrackPointExtension>
            <ns3:hr>116</ns3:hr>
            <ns3:cad>0</ns3:cad>
          </ns3:TrackPointExtension>
        </extensions>
      </trkpt>
      <trkpt lat="49.85769904218614101409912109375" lon="6.88579975627362728118896484375">
        <ele>193.600006103515625</ele>
        <time>2026-04-22T10:39:51.000Z</time>
        <extensions>
          <ns3:TrackPointExtension>
            <ns3:hr>116</ns3:hr>
            <ns3:cad>0</ns3:cad>
          </ns3:TrackPointExtension>
        </extensions>
      </trkpt>
      <trkpt lat="49.85770340077579021453857421875" lon="6.8858254887163639068603515625">
        <ele>193</ele>
        <time>2026-04-22T10:39:54.000Z</time>
        <extensions>
          <ns3:TrackPointExtension>
            <ns3:hr>115</ns3:hr>
            <ns3:cad>0</ns3:cad>
          </ns3:TrackPointExtension>
        </extensions>
      </trkpt>
      <trkpt lat="49.85772167332470417022705078125" lon="6.8858499638736248016357421875">
        <ele>192</ele>
        <time>2026-04-22T10:39:59.000Z</time>
        <extensions>
          <ns3:TrackPointExtension>
            <ns3:hr>114</ns3:hr>
            <ns3:cad>0</ns3:cad>
          </ns3:TrackPointExtension>
        </extensions>
      </trkpt>
      <trkpt lat="49.85771848820149898529052734375" lon="6.88585977070033550262451171875">
        <ele>191.8000030517578125</ele>
        <time>2026-04-22T10:40:00.000Z</time>
        <extensions>
          <ns3:TrackPointExtension>
            <ns3:hr>114</ns3:hr>
            <ns3:cad>0</ns3:cad>
          </ns3:TrackPointExtension>
        </extensions>
      </trkpt>
      <trkpt lat="49.857722260057926177978515625" lon="6.88590737991034984588623046875">
        <ele>190.8000030517578125</ele>
        <time>2026-04-22T10:40:05.000Z</time>
        <extensions>
          <ns3:TrackPointExtension>
            <ns3:hr>115</ns3:hr>
            <ns3:cad>0</ns3:cad>
          </ns3:TrackPointExtension>
        </extensions>
      </trkpt>
      <trkpt lat="49.857716895639896392822265625" lon="6.88593872822821140289306640625">
        <ele>190.1999969482421875</ele>
        <time>2026-04-22T10:40:07.000Z</time>
        <extensions>
          <ns3:TrackPointExtension>
            <ns3:hr>115</ns3:hr>
            <ns3:cad>0</ns3:cad>
          </ns3:TrackPointExtension>
        </extensions>
      </trkpt>
      <trkpt lat="49.85770809464156627655029296875" lon="6.88596135936677455902099609375">
        <ele>189.600006103515625</ele>
        <time>2026-04-22T10:40:09.000Z</time>
        <extensions>
          <ns3:TrackPointExtension>
            <ns3:hr>115</ns3:hr>
            <ns3:cad>0</ns3:cad>
          </ns3:TrackPointExtension>
        </extensions>
      </trkpt>
      <trkpt lat="49.85769635997712612152099609375" lon="6.8860222958028316497802734375">
        <ele>189.1999969482421875</ele>
        <time>2026-04-22T10:40:13.000Z</time>
        <extensions>
          <ns3:TrackPointExtension>
            <ns3:hr>114</ns3:hr>
            <ns3:cad>0</ns3:cad>
          </ns3:TrackPointExtension>
        </extensions>
      </trkpt>
      <trkpt lat="49.85770625062286853790283203125" lon="6.88604601658880710601806640625">
        <ele>188.600006103515625</ele>
        <time>2026-04-22T10:40:15.000Z</time>
        <extensions>
          <ns3:TrackPointExtension>
            <ns3:hr>114</ns3:hr>
            <ns3:cad>0</ns3:cad>
          </ns3:TrackPointExtension>
        </extensions>
      </trkpt>
      <trkpt lat="49.85773173160851001739501953125" lon="6.88609882257878780364990234375">
        <ele>187.600006103515625</ele>
        <time>2026-04-22T10:40:20.000Z</time>
        <extensions>
          <ns3:TrackPointExtension>
            <ns3:hr>109</ns3:hr>
            <ns3:cad>0</ns3:cad>
          </ns3:TrackPointExtension>
        </extensions>
      </trkpt>
      <trkpt lat="49.85773592256009578704833984375" lon="6.8861114792525768280029296875">
        <ele>187.399993896484375</ele>
        <time>2026-04-22T10:40:21.000Z</time>
        <extensions>
          <ns3:TrackPointExtension>
            <ns3:hr>106</ns3:hr>
            <ns3:cad>0</ns3:cad>
          </ns3:TrackPointExtension>
        </extensions>
      </trkpt>
      <trkpt lat="49.8577368445694446563720703125" lon="6.88612715341150760650634765625">
        <ele>187.1999969482421875</ele>
        <time>2026-04-22T10:40:22.000Z</time>
        <extensions>
          <ns3:TrackPointExtension>
            <ns3:hr>106</ns3:hr>
            <ns3:cad>0</ns3:cad>
          </ns3:TrackPointExtension>
        </extensions>
      </trkpt>
      <trkpt lat="49.8577298037707805633544921875" lon="6.8861842341721057891845703125">
        <ele>186.399993896484375</ele>
        <time>2026-04-22T10:40:26.000Z</time>
        <extensions>
          <ns3:TrackPointExtension>
            <ns3:hr>104</ns3:hr>
            <ns3:cad>0</ns3:cad>
          </ns3:TrackPointExtension>
        </extensions>
      </trkpt>
      <trkpt lat="49.8577277921140193939208984375" lon="6.88619739376008510589599609375">
        <ele>186.1999969482421875</ele>
        <time>2026-04-22T10:40:27.000Z</time>
        <extensions>
          <ns3:TrackPointExtension>
            <ns3:hr>104</ns3:hr>
            <ns3:cad>50</ns3:cad>
          </ns3:TrackPointExtension>
        </extensions>
      </trkpt>
      <trkpt lat="49.85773122869431972503662109375" lon="6.8862948752939701080322265625">
        <ele>185.1999969482421875</ele>
        <time>2026-04-22T10:40:33.000Z</time>
        <extensions>
          <ns3:TrackPointExtension>
            <ns3:hr>105</ns3:hr>
            <ns3:cad>50</ns3:cad>
          </ns3:TrackPointExtension>
        </extensions>
      </trkpt>
      <trkpt lat="49.85773491673171520233154296875" lon="6.88630753196775913238525390625">
        <ele>185</ele>
        <time>2026-04-22T10:40:34.000Z</time>
        <extensions>
          <ns3:TrackPointExtension>
            <ns3:hr>104</ns3:hr>
            <ns3:cad>50</ns3:cad>
          </ns3:TrackPointExtension>
        </extensions>
      </trkpt>
      <trkpt lat="49.85774983651936054229736328125" lon="6.88641616143286228179931640625">
        <ele>184</ele>
        <time>2026-04-22T10:40:41.000Z</time>
        <extensions>
          <ns3:TrackPointExtension>
            <ns3:hr>104</ns3:hr>
            <ns3:cad>51</ns3:cad>
          </ns3:TrackPointExtension>
        </extensions>
      </trkpt>
      <trkpt lat="49.85776475630700588226318359375" lon="6.88642219640314579010009765625">
        <ele>184</ele>
        <time>2026-04-22T10:40:42.000Z</time>
        <extensions>
          <ns3:TrackPointExtension>
            <ns3:hr>104</ns3:hr>
            <ns3:cad>51</ns3:cad>
          </ns3:TrackPointExtension>
        </extensions>
      </trkpt>
      <trkpt lat="49.857769198715686798095703125" lon="6.88647173345088958740234375">
        <ele>183.399993896484375</ele>
        <time>2026-04-22T10:40:45.000Z</time>
        <extensions>
          <ns3:TrackPointExtension>
            <ns3:hr>104</ns3:hr>
            <ns3:cad>0</ns3:cad>
          </ns3:TrackPointExtension>
        </extensions>
      </trkpt>
      <trkpt lat="49.85776928253471851348876953125" lon="6.886500902473926544189453125">
        <ele>183.1999969482421875</ele>
        <time>2026-04-22T10:40:47.000Z</time>
        <extensions>
          <ns3:TrackPointExtension>
            <ns3:hr>104</ns3:hr>
            <ns3:cad>0</ns3:cad>
          </ns3:TrackPointExtension>
        </extensions>
      </trkpt>
      <trkpt lat="49.85776676796376705169677734375" lon="6.88651976175606250762939453125">
        <ele>183</ele>
        <time>2026-04-22T10:40:48.000Z</time>
        <extensions>
          <ns3:TrackPointExtension>
            <ns3:hr>104</ns3:hr>
            <ns3:cad>0</ns3:cad>
          </ns3:TrackPointExtension>
        </extensions>
      </trkpt>
      <trkpt lat="49.85776844434440135955810546875" lon="6.8865327537059783935546875">
        <ele>182.8000030517578125</ele>
        <time>2026-04-22T10:40:49.000Z</time>
        <extensions>
          <ns3:TrackPointExtension>
            <ns3:hr>103</ns3:hr>
            <ns3:cad>0</ns3:cad>
          </ns3:TrackPointExtension>
        </extensions>
      </trkpt>
      <trkpt lat="49.8577594757080078125" lon="6.88661347143352031707763671875">
        <ele>182</ele>
        <time>2026-04-22T10:40:55.000Z</time>
        <extensions>
          <ns3:TrackPointExtension>
            <ns3:hr>103</ns3:hr>
            <ns3:cad>0</ns3:cad>
          </ns3:TrackPointExtension>
        </extensions>
      </trkpt>
      <trkpt lat="49.85776626504957675933837890625" lon="6.886632330715656280517578125">
        <ele>181.600006103515625</ele>
        <time>2026-04-22T10:40:57.000Z</time>
        <extensions>
          <ns3:TrackPointExtension>
            <ns3:hr>107</ns3:hr>
            <ns3:cad>0</ns3:cad>
          </ns3:TrackPointExtension>
        </extensions>
      </trkpt>
      <trkpt lat="49.857767187058925628662109375" lon="6.88665772788226604461669921875">
        <ele>181.1999969482421875</ele>
        <time>2026-04-22T10:40:59.000Z</time>
        <extensions>
          <ns3:TrackPointExtension>
            <ns3:hr>110</ns3:hr>
            <ns3:cad>0</ns3:cad>
          </ns3:TrackPointExtension>
        </extensions>
      </trkpt>
      <trkpt lat="49.8577680252492427825927734375" lon="6.8866802752017974853515625">
        <ele>181</ele>
        <time>2026-04-22T10:41:01.000Z</time>
        <extensions>
          <ns3:TrackPointExtension>
            <ns3:hr>111</ns3:hr>
            <ns3:cad>0</ns3:cad>
          </ns3:TrackPointExtension>
        </extensions>
      </trkpt>
      <trkpt lat="49.85776995308697223663330078125" lon="6.88669695518910884857177734375">
        <ele>180.8000030517578125</ele>
        <time>2026-04-22T10:41:03.000Z</time>
        <extensions>
          <ns3:TrackPointExtension>
            <ns3:hr>111</ns3:hr>
            <ns3:cad>0</ns3:cad>
          </ns3:TrackPointExtension>
        </extensions>
      </trkpt>
      <trkpt lat="49.857767522335052490234375" lon="6.88677675090730190277099609375">
        <ele>179.8000030517578125</ele>
        <time>2026-04-22T10:41:08.000Z</time>
        <extensions>
          <ns3:TrackPointExtension>
            <ns3:hr>112</ns3:hr>
            <ns3:cad>0</ns3:cad>
          </ns3:TrackPointExtension>
        </extensions>
      </trkpt>
      <trkpt lat="49.8577740602195262908935546875" lon="6.88678680919110774993896484375">
        <ele>179.600006103515625</ele>
        <time>2026-04-22T10:41:09.000Z</time>
        <extensions>
          <ns3:TrackPointExtension>
            <ns3:hr>112</ns3:hr>
            <ns3:cad>0</ns3:cad>
          </ns3:TrackPointExtension>
        </extensions>
      </trkpt>
      <trkpt lat="49.8577956855297088623046875" lon="6.88689577393233776092529296875">
        <ele>179</ele>
        <time>2026-04-22T10:41:15.000Z</time>
        <extensions>
          <ns3:TrackPointExtension>
            <ns3:hr>112</ns3:hr>
            <ns3:cad>0</ns3:cad>
          </ns3:TrackPointExtension>
        </extensions>
      </trkpt>
      <trkpt lat="49.8578189872205257415771484375" lon="6.88697372563183307647705078125">
        <ele>178.8000030517578125</ele>
        <time>2026-04-22T10:41:20.000Z</time>
        <extensions>
          <ns3:TrackPointExtension>
            <ns3:hr>112</ns3:hr>
            <ns3:cad>52</ns3:cad>
          </ns3:TrackPointExtension>
        </extensions>
      </trkpt>
      <trkpt lat="49.85781873576343059539794921875" lon="6.886990070343017578125">
        <ele>178.8000030517578125</ele>
        <time>2026-04-22T10:41:22.000Z</time>
        <extensions>
          <ns3:TrackPointExtension>
            <ns3:hr>112</ns3:hr>
            <ns3:cad>53</ns3:cad>
          </ns3:TrackPointExtension>
        </extensions>
      </trkpt>
      <trkpt lat="49.8578126169741153717041015625" lon="6.887014210224151611328125">
        <ele>178.600006103515625</ele>
        <time>2026-04-22T10:41:23.000Z</time>
        <extensions>
          <ns3:TrackPointExtension>
            <ns3:hr>113</ns3:hr>
            <ns3:cad>53</ns3:cad>
          </ns3:TrackPointExtension>
        </extensions>
      </trkpt>
      <trkpt lat="49.85781772993505001068115234375" lon="6.8871072493493556976318359375">
        <ele>178</ele>
        <time>2026-04-22T10:41:29.000Z</time>
        <extensions>
          <ns3:TrackPointExtension>
            <ns3:hr>112</ns3:hr>
            <ns3:cad>54</ns3:cad>
          </ns3:TrackPointExtension>
        </extensions>
      </trkpt>
      <trkpt lat="49.85783197917044162750244140625" lon="6.88716818578541278839111328125">
        <ele>177.600006103515625</ele>
        <time>2026-04-22T10:41:33.000Z</time>
        <extensions>
          <ns3:TrackPointExtension>
            <ns3:hr>115</ns3:hr>
            <ns3:cad>0</ns3:cad>
          </ns3:TrackPointExtension>
        </extensions>
      </trkpt>
      <trkpt lat="49.8578345775604248046875" lon="6.887188889086246490478515625">
        <ele>177.600006103515625</ele>
        <time>2026-04-22T10:41:34.000Z</time>
        <extensions>
          <ns3:TrackPointExtension>
            <ns3:hr>115</ns3:hr>
            <ns3:cad>0</ns3:cad>
          </ns3:TrackPointExtension>
        </extensions>
      </trkpt>
      <trkpt lat="49.8578511737287044525146484375" lon="6.88721763901412487030029296875">
        <ele>177.600006103515625</ele>
        <time>2026-04-22T10:41:36.000Z</time>
        <extensions>
          <ns3:TrackPointExtension>
            <ns3:hr>114</ns3:hr>
            <ns3:cad>52</ns3:cad>
          </ns3:TrackPointExtension>
        </extensions>
      </trkpt>
      <trkpt lat="49.85785410739481449127197265625" lon="6.88723406754434108734130859375">
        <ele>177.600006103515625</ele>
        <time>2026-04-22T10:41:37.000Z</time>
        <extensions>
          <ns3:TrackPointExtension>
            <ns3:hr>114</ns3:hr>
            <ns3:cad>52</ns3:cad>
          </ns3:TrackPointExtension>
        </extensions>
      </trkpt>
      <trkpt lat="49.85785410739481449127197265625" lon="6.88725770451128482818603515625">
        <ele>177.600006103515625</ele>
        <time>2026-04-22T10:41:38.000Z</time>
        <extensions>
          <ns3:TrackPointExtension>
            <ns3:hr>114</ns3:hr>
            <ns3:cad>53</ns3:cad>
          </ns3:TrackPointExtension>
        </extensions>
      </trkpt>
      <trkpt lat="49.8578431271016597747802734375" lon="6.88733096234500408172607421875">
        <ele>177.399993896484375</ele>
        <time>2026-04-22T10:41:42.000Z</time>
        <extensions>
          <ns3:TrackPointExtension>
            <ns3:hr>114</ns3:hr>
            <ns3:cad>53</ns3:cad>
          </ns3:TrackPointExtension>
        </extensions>
      </trkpt>
      <trkpt lat="49.8578397743403911590576171875" lon="6.8873469717800617218017578125">
        <ele>177.399993896484375</ele>
        <time>2026-04-22T10:41:43.000Z</time>
        <extensions>
          <ns3:TrackPointExtension>
            <ns3:hr>114</ns3:hr>
            <ns3:cad>53</ns3:cad>
          </ns3:TrackPointExtension>
        </extensions>
      </trkpt>
      <trkpt lat="49.85782996751368045806884765625" lon="6.8873727880418300628662109375">
        <ele>177.399993896484375</ele>
        <time>2026-04-22T10:41:45.000Z</time>
        <extensions>
          <ns3:TrackPointExtension>
            <ns3:hr>114</ns3:hr>
            <ns3:cad>0</ns3:cad>
          </ns3:TrackPointExtension>
        </extensions>
      </trkpt>
      <trkpt lat="49.85782845877110958099365234375" lon="6.88740623183548450469970703125">
        <ele>177.399993896484375</ele>
        <time>2026-04-22T10:41:47.000Z</time>
        <extensions>
          <ns3:TrackPointExtension>
            <ns3:hr>114</ns3:hr>
            <ns3:cad>53</ns3:cad>
          </ns3:TrackPointExtension>
        </extensions>
      </trkpt>
      <trkpt lat="49.8578345775604248046875" lon="6.88744269311428070068359375">
        <ele>177.399993896484375</ele>
        <time>2026-04-22T10:41:49.000Z</time>
        <extensions>
          <ns3:TrackPointExtension>
            <ns3:hr>114</ns3:hr>
            <ns3:cad>53</ns3:cad>
          </ns3:TrackPointExtension>
        </extensions>
      </trkpt>
      <trkpt lat="49.85782627947628498077392578125" lon="6.88748904503881931304931640625">
        <ele>177</ele>
        <time>2026-04-22T10:41:52.000Z</time>
        <extensions>
          <ns3:TrackPointExtension>
            <ns3:hr>114</ns3:hr>
            <ns3:cad>53</ns3:cad>
          </ns3:TrackPointExtension>
        </extensions>
      </trkpt>
      <trkpt lat="49.8578193224966526031494140625" lon="6.88751402311027050018310546875">
        <ele>176.600006103515625</ele>
        <time>2026-04-22T10:41:54.000Z</time>
        <extensions>
          <ns3:TrackPointExtension>
            <ns3:hr>114</ns3:hr>
            <ns3:cad>55</ns3:cad>
          </ns3:TrackPointExtension>
        </extensions>
      </trkpt>
      <trkpt lat="49.85781387425959110260009765625" lon="6.887530870735645294189453125">
        <ele>176.399993896484375</ele>
        <time>2026-04-22T10:41:55.000Z</time>
        <extensions>
          <ns3:TrackPointExtension>
            <ns3:hr>114</ns3:hr>
            <ns3:cad>55</ns3:cad>
          </ns3:TrackPointExtension>
        </extensions>
      </trkpt>
      <trkpt lat="49.857794344425201416015625" lon="6.88756741583347320556640625">
        <ele>175.8000030517578125</ele>
        <time>2026-04-22T10:41:58.000Z</time>
        <extensions>
          <ns3:TrackPointExtension>
            <ns3:hr>114</ns3:hr>
            <ns3:cad>53</ns3:cad>
          </ns3:TrackPointExtension>
        </extensions>
      </trkpt>
      <trkpt lat="49.857795350253582000732421875" lon="6.8875877000391483306884765625">
        <ele>175.399993896484375</ele>
        <time>2026-04-22T10:42:00.000Z</time>
        <extensions>
          <ns3:TrackPointExtension>
            <ns3:hr>115</ns3:hr>
            <ns3:cad>0</ns3:cad>
          </ns3:TrackPointExtension>
        </extensions>
      </trkpt>
      <trkpt lat="49.857811443507671356201171875" lon="6.88762835226953029632568359375">
        <ele>174.8000030517578125</ele>
        <time>2026-04-22T10:42:04.000Z</time>
        <extensions>
          <ns3:TrackPointExtension>
            <ns3:hr>114</ns3:hr>
            <ns3:cad>0</ns3:cad>
          </ns3:TrackPointExtension>
        </extensions>
      </trkpt>
      <trkpt lat="49.857809431850910186767578125" lon="6.8876809068024158477783203125">
        <ele>174.399993896484375</ele>
        <time>2026-04-22T10:42:08.000Z</time>
        <extensions>
          <ns3:TrackPointExtension>
            <ns3:hr>115</ns3:hr>
            <ns3:cad>0</ns3:cad>
          </ns3:TrackPointExtension>
        </extensions>
      </trkpt>
      <trkpt lat="49.85781320370733737945556640625" lon="6.88769054599106311798095703125">
        <ele>174.399993896484375</ele>
        <time>2026-04-22T10:42:09.000Z</time>
        <extensions>
          <ns3:TrackPointExtension>
            <ns3:hr>115</ns3:hr>
            <ns3:cad>0</ns3:cad>
          </ns3:TrackPointExtension>
        </extensions>
      </trkpt>
      <trkpt lat="49.857816137373447418212890625" lon="6.88779867254197597503662109375">
        <ele>173</ele>
        <time>2026-04-22T10:42:15.000Z</time>
        <extensions>
          <ns3:TrackPointExtension>
            <ns3:hr>114</ns3:hr>
            <ns3:cad>53</ns3:cad>
          </ns3:TrackPointExtension>
        </extensions>
      </trkpt>
      <trkpt lat="49.857816137373447418212890625" lon="6.88779867254197597503662109375">
        <ele>173</ele>
        <time>2026-04-22T10:42:16.000Z</time>
        <extensions>
          <ns3:TrackPointExtension>
            <ns3:hr>114</ns3:hr>
            <ns3:cad>53</ns3:cad>
          </ns3:TrackPointExtension>
        </extensions>
      </trkpt>
      <trkpt lat="49.85782041214406490325927734375" lon="6.88783337362110614776611328125">
        <ele>172</ele>
        <time>2026-04-22T10:42:20.000Z</time>
        <extensions>
          <ns3:TrackPointExtension>
            <ns3:hr>115</ns3:hr>
            <ns3:cad>0</ns3:cad>
          </ns3:TrackPointExtension>
        </extensions>
      </trkpt>
      <trkpt lat="49.857823513448238372802734375" lon="6.88784427009522914886474609375">
        <ele>171.8000030517578125</ele>
        <time>2026-04-22T10:42:21.000Z</time>
        <extensions>
          <ns3:TrackPointExtension>
            <ns3:hr>116</ns3:hr>
            <ns3:cad>0</ns3:cad>
          </ns3:TrackPointExtension>
        </extensions>
      </trkpt>
      <trkpt lat="49.8578397743403911590576171875" lon="6.88792875967919826507568359375">
        <ele>171.1999969482421875</ele>
        <time>2026-04-22T10:42:26.000Z</time>
        <extensions>
          <ns3:TrackPointExtension>
            <ns3:hr>116</ns3:hr>
            <ns3:cad>50</ns3:cad>
          </ns3:TrackPointExtension>
        </extensions>
      </trkpt>
      <trkpt lat="49.8578598909080028533935546875" lon="6.88793479464948177337646484375">
        <ele>170.8000030517578125</ele>
        <time>2026-04-22T10:42:28.000Z</time>
        <extensions>
          <ns3:TrackPointExtension>
            <ns3:hr>116</ns3:hr>
            <ns3:cad>50</ns3:cad>
          </ns3:TrackPointExtension>
        </extensions>
      </trkpt>
      <trkpt lat="49.8578836955130100250244140625" lon="6.88799145631492137908935546875">
        <ele>170</ele>
        <time>2026-04-22T10:42:33.000Z</time>
        <extensions>
          <ns3:TrackPointExtension>
            <ns3:hr>116</ns3:hr>
            <ns3:cad>0</ns3:cad>
          </ns3:TrackPointExtension>
        </extensions>
      </trkpt>
      <trkpt lat="49.85790791921317577362060546875" lon="6.88801207579672336578369140625">
        <ele>169.8000030517578125</ele>
        <time>2026-04-22T10:42:36.000Z</time>
        <extensions>
          <ns3:TrackPointExtension>
            <ns3:hr>116</ns3:hr>
            <ns3:cad>53</ns3:cad>
          </ns3:TrackPointExtension>
        </extensions>
      </trkpt>
      <trkpt lat="49.85792920924723148345947265625" lon="6.88804887235164642333984375">
        <ele>169.1999969482421875</ele>
        <time>2026-04-22T10:42:40.000Z</time>
        <extensions>
          <ns3:TrackPointExtension>
            <ns3:hr>116</ns3:hr>
            <ns3:cad>0</ns3:cad>
          </ns3:TrackPointExtension>
        </extensions>
      </trkpt>
      <trkpt lat="49.8579527623951435089111328125" lon="6.88807209022343158721923828125">
        <ele>168.8000030517578125</ele>
        <time>2026-04-22T10:42:44.000Z</time>
        <extensions>
          <ns3:TrackPointExtension>
            <ns3:hr>114</ns3:hr>
            <ns3:cad>0</ns3:cad>
          </ns3:TrackPointExtension>
        </extensions>
      </trkpt>
      <trkpt lat="49.8579675145447254180908203125" lon="6.8881127424538135528564453125">
        <ele>168</ele>
        <time>2026-04-22T10:42:48.000Z</time>
        <extensions>
          <ns3:TrackPointExtension>
            <ns3:hr>113</ns3:hr>
            <ns3:cad>0</ns3:cad>
          </ns3:TrackPointExtension>
        </extensions>
      </trkpt>
      <trkpt lat="49.85797338187694549560546875" lon="6.8881187774240970611572265625">
        <ele>167.600006103515625</ele>
        <time>2026-04-22T10:42:49.000Z</time>
        <extensions>
          <ns3:TrackPointExtension>
            <ns3:hr>114</ns3:hr>
            <ns3:cad>0</ns3:cad>
          </ns3:TrackPointExtension>
        </extensions>
      </trkpt>
      <trkpt lat="49.8579866252839565277099609375" lon="6.8881680630147457122802734375">
        <ele>166.8000030517578125</ele>
        <time>2026-04-22T10:42:54.000Z</time>
        <extensions>
          <ns3:TrackPointExtension>
            <ns3:hr>115</ns3:hr>
            <ns3:cad>0</ns3:cad>
          </ns3:TrackPointExtension>
        </extensions>
      </trkpt>
      <trkpt lat="49.85798704437911510467529296875" lon="6.8881948851048946380615234375">
        <ele>166.399993896484375</ele>
        <time>2026-04-22T10:42:56.000Z</time>
        <extensions>
          <ns3:TrackPointExtension>
            <ns3:hr>115</ns3:hr>
            <ns3:cad>53</ns3:cad>
          </ns3:TrackPointExtension>
        </extensions>
      </trkpt>
      <trkpt lat="49.85799525864422321319580078125" lon="6.88829739578068256378173828125">
        <ele>165.1999969482421875</ele>
        <time>2026-04-22T10:43:03.000Z</time>
        <extensions>
          <ns3:TrackPointExtension>
            <ns3:hr>115</ns3:hr>
            <ns3:cad>0</ns3:cad>
          </ns3:TrackPointExtension>
        </extensions>
      </trkpt>
      <trkpt lat="49.85800229944288730621337890625" lon="6.88835942186415195465087890625">
        <ele>164.8000030517578125</ele>
        <time>2026-04-22T10:43:09.000Z</time>
        <extensions>
          <ns3:TrackPointExtension>
            <ns3:hr>115</ns3:hr>
            <ns3:cad>0</ns3:cad>
          </ns3:TrackPointExtension>
        </extensions>
      </trkpt>
      <trkpt lat="49.85800900496542453765869140625" lon="6.888412646949291229248046875">
        <ele>164.1999969482421875</ele>
        <time>2026-04-22T10:43:14.000Z</time>
        <extensions>
          <ns3:TrackPointExtension>
            <ns3:hr>114</ns3:hr>
            <ns3:cad>0</ns3:cad>
          </ns3:TrackPointExtension>
        </extensions>
      </trkpt>
      <trkpt lat="49.85801470465958118438720703125" lon="6.88843050040304660797119140625">
        <ele>164</ele>
        <time>2026-04-22T10:43:15.000Z</time>
        <extensions>
          <ns3:TrackPointExtension>
            <ns3:hr>114</ns3:hr>
            <ns3:cad>0</ns3:cad>
          </ns3:TrackPointExtension>
        </extensions>
      </trkpt>
      <trkpt lat="49.85802006907761096954345703125" lon="6.888485737144947052001953125">
        <ele>163.1999969482421875</ele>
        <time>2026-04-22T10:43:20.000Z</time>
        <extensions>
          <ns3:TrackPointExtension>
            <ns3:hr>115</ns3:hr>
            <ns3:cad>0</ns3:cad>
          </ns3:TrackPointExtension>
        </extensions>
      </trkpt>
      <trkpt lat="49.8580248467624187469482421875" lon="6.8885358609259128570556640625">
        <ele>162.8000030517578125</ele>
        <time>2026-04-22T10:43:23.000Z</time>
        <extensions>
          <ns3:TrackPointExtension>
            <ns3:hr>115</ns3:hr>
            <ns3:cad>0</ns3:cad>
          </ns3:TrackPointExtension>
        </extensions>
      </trkpt>
      <trkpt lat="49.8580290377140045166015625" lon="6.8885516189038753509521484375">
        <ele>162.600006103515625</ele>
        <time>2026-04-22T10:43:24.000Z</time>
        <extensions>
          <ns3:TrackPointExtension>
            <ns3:hr>115</ns3:hr>
            <ns3:cad>0</ns3:cad>
          </ns3:TrackPointExtension>
        </extensions>
      </trkpt>
      <trkpt lat="49.8580577038228511810302734375" lon="6.8885760940611362457275390625">
        <ele>162</ele>
        <time>2026-04-22T10:43:27.000Z</time>
        <extensions>
          <ns3:TrackPointExtension>
            <ns3:hr>114</ns3:hr>
            <ns3:cad>0</ns3:cad>
          </ns3:TrackPointExtension>
        </extensions>
      </trkpt>
      <trkpt lat="49.85806784592568874359130859375" lon="6.888603083789348602294921875">
        <ele>161.600006103515625</ele>
        <time>2026-04-22T10:43:30.000Z</time>
        <extensions>
          <ns3:TrackPointExtension>
            <ns3:hr>114</ns3:hr>
            <ns3:cad>0</ns3:cad>
          </ns3:TrackPointExtension>
        </extensions>
      </trkpt>
      <trkpt lat="49.85809466801583766937255859375" lon="6.8886642716825008392333984375">
        <ele>161</ele>
        <time>2026-04-22T10:43:37.000Z</time>
        <extensions>
          <ns3:TrackPointExtension>
            <ns3:hr>114</ns3:hr>
            <ns3:cad>0</ns3:cad>
          </ns3:TrackPointExtension>
        </extensions>
      </trkpt>
      <trkpt lat="49.85809969715774059295654296875" lon="6.88867156393826007843017578125">
        <ele>161</ele>
        <time>2026-04-22T10:43:38.000Z</time>
        <extensions>
          <ns3:TrackPointExtension>
            <ns3:hr>114</ns3:hr>
            <ns3:cad>0</ns3:cad>
          </ns3:TrackPointExtension>
        </extensions>
      </trkpt>
      <trkpt lat="49.85812182538211345672607421875" lon="6.888781450688838958740234375">
        <ele>159.8000030517578125</ele>
        <time>2026-04-22T10:43:44.000Z</time>
        <extensions>
          <ns3:TrackPointExtension>
            <ns3:hr>114</ns3:hr>
            <ns3:cad>0</ns3:cad>
          </ns3:TrackPointExtension>
        </extensions>
      </trkpt>
      <trkpt lat="49.85812165774405002593994140625" lon="6.8887883238494396209716796875">
        <ele>159.8000030517578125</ele>
        <time>2026-04-22T10:43:45.000Z</time>
        <extensions>
          <ns3:TrackPointExtension>
            <ns3:hr>114</ns3:hr>
            <ns3:cad>0</ns3:cad>
          </ns3:TrackPointExtension>
        </extensions>
      </trkpt>
      <trkpt lat="49.85814697109162807464599609375" lon="6.88882864080369472503662109375">
        <ele>158.8000030517578125</ele>
        <time>2026-04-22T10:43:50.000Z</time>
        <extensions>
          <ns3:TrackPointExtension>
            <ns3:hr>114</ns3:hr>
            <ns3:cad>0</ns3:cad>
          </ns3:TrackPointExtension>
        </extensions>
      </trkpt>
      <trkpt lat="49.8581509105861186981201171875" lon="6.8888376094400882720947265625">
        <ele>158.600006103515625</ele>
        <time>2026-04-22T10:43:52.000Z</time>
        <extensions>
          <ns3:TrackPointExtension>
            <ns3:hr>114</ns3:hr>
            <ns3:cad>0</ns3:cad>
          </ns3:TrackPointExtension>
        </extensions>
      </trkpt>
      <trkpt lat="49.858191311359405517578125" lon="6.8888711370527744293212890625">
        <ele>157.8000030517578125</ele>
        <time>2026-04-22T10:43:56.000Z</time>
        <extensions>
          <ns3:TrackPointExtension>
            <ns3:hr>114</ns3:hr>
            <ns3:cad>0</ns3:cad>
          </ns3:TrackPointExtension>
        </extensions>
      </trkpt>
      <trkpt lat="49.85819692723453044891357421875" lon="6.88887859694659709930419921875">
        <ele>157.600006103515625</ele>
        <time>2026-04-22T10:43:58.000Z</time>
        <extensions>
          <ns3:TrackPointExtension>
            <ns3:hr>114</ns3:hr>
            <ns3:cad>0</ns3:cad>
          </ns3:TrackPointExtension>
        </extensions>
      </trkpt>
      <trkpt lat="49.8581938259303569793701171875" lon="6.8888662755489349365234375">
        <ele>156.600006103515625</ele>
        <time>2026-04-22T10:44:05.000Z</time>
        <extensions>
          <ns3:TrackPointExtension>
            <ns3:hr>114</ns3:hr>
            <ns3:cad>0</ns3:cad>
          </ns3:TrackPointExtension>
        </extensions>
      </trkpt>
      <trkpt lat="49.85820782370865345001220703125" lon="6.88887323252856731414794921875">
        <ele>155.8000030517578125</ele>
        <time>2026-04-22T10:44:13.000Z</time>
        <extensions>
          <ns3:TrackPointExtension>
            <ns3:hr>116</ns3:hr>
            <ns3:cad>0</ns3:cad>
          </ns3:TrackPointExtension>
        </extensions>
      </trkpt>
      <trkpt lat="49.8582065664231777191162109375" lon="6.88886853866279125213623046875">
        <ele>155.399993896484375</ele>
        <time>2026-04-22T10:44:15.000Z</time>
        <extensions>
          <ns3:TrackPointExtension>
            <ns3:hr>117</ns3:hr>
            <ns3:cad>0</ns3:cad>
          </ns3:TrackPointExtension>
        </extensions>
      </trkpt>
      <trkpt lat="49.85820245929062366485595703125" lon="6.88889368437230587005615234375">
        <ele>155.399993896484375</ele>
        <time>2026-04-22T10:44:21.000Z</time>
        <extensions>
          <ns3:TrackPointExtension>
            <ns3:hr>117</ns3:hr>
            <ns3:cad>0</ns3:cad>
          </ns3:TrackPointExtension>
        </extensions>
      </trkpt>
      <trkpt lat="49.8581874556839466094970703125" lon="6.88882679678499698638916015625">
        <ele>155</ele>
        <time>2026-04-22T10:44:40.000Z</time>
        <extensions>
          <ns3:TrackPointExtension>
            <ns3:hr>118</ns3:hr>
            <ns3:cad>0</ns3:cad>
          </ns3:TrackPointExtension>
        </extensions>
      </trkpt>
      <trkpt lat="49.8581841029226779937744140625" lon="6.88865295611321926116943359375">
        <ele>154.600006103515625</ele>
        <time>2026-04-22T10:44:47.000Z</time>
        <extensions>
          <ns3:TrackPointExtension>
            <ns3:hr>117</ns3:hr>
            <ns3:cad>0</ns3:cad>
          </ns3:TrackPointExtension>
        </extensions>
      </trkpt>
      <trkpt lat="49.8581780679523944854736328125" lon="6.8886371143162250518798828125">
        <ele>154.399993896484375</ele>
        <time>2026-04-22T10:44:48.000Z</time>
        <extensions>
          <ns3:TrackPointExtension>
            <ns3:hr>116</ns3:hr>
            <ns3:cad>0</ns3:cad>
          </ns3:TrackPointExtension>
        </extensions>
      </trkpt>
      <trkpt lat="49.858152754604816436767578125" lon="6.888527981936931610107421875">
        <ele>153.8000030517578125</ele>
        <time>2026-04-22T10:44:54.000Z</time>
        <extensions>
          <ns3:TrackPointExtension>
            <ns3:hr>116</ns3:hr>
            <ns3:cad>54</ns3:cad>
          </ns3:TrackPointExtension>
        </extensions>
      </trkpt>
      <trkpt lat="49.85812517814338207244873046875" lon="6.88843485899269580841064453125">
        <ele>153.399993896484375</ele>
        <time>2026-04-22T10:45:00.000Z</time>
        <extensions>
          <ns3:TrackPointExtension>
            <ns3:hr>113</ns3:hr>
            <ns3:cad>0</ns3:cad>
          </ns3:TrackPointExtension>
        </extensions>
      </trkpt>
      <trkpt lat="49.858122579753398895263671875" lon="6.88839931972324848175048828125">
        <ele>153.399993896484375</ele>
        <time>2026-04-22T10:45:02.000Z</time>
        <extensions>
          <ns3:TrackPointExtension>
            <ns3:hr>112</ns3:hr>
            <ns3:cad>55</ns3:cad>
          </ns3:TrackPointExtension>
        </extensions>
      </trkpt>
      <trkpt lat="49.8580996133387088775634765625" lon="6.8883219547569751739501953125">
        <ele>153.1999969482421875</ele>
        <time>2026-04-22T10:45:07.000Z</time>
        <extensions>
          <ns3:TrackPointExtension>
            <ns3:hr>112</ns3:hr>
            <ns3:cad>54</ns3:cad>
          </ns3:TrackPointExtension>
        </extensions>
      </trkpt>
      <trkpt lat="49.8580905608832836151123046875" lon="6.8883078731596469879150390625">
        <ele>153.1999969482421875</ele>
        <time>2026-04-22T10:45:08.000Z</time>
        <extensions>
          <ns3:TrackPointExtension>
            <ns3:hr>112</ns3:hr>
            <ns3:cad>0</ns3:cad>
          </ns3:TrackPointExtension>
        </extensions>
      </trkpt>
      <trkpt lat="49.85807790420949459075927734375" lon="6.88824878074228763580322265625">
        <ele>153</ele>
        <time>2026-04-22T10:45:12.000Z</time>
        <extensions>
          <ns3:TrackPointExtension>
            <ns3:hr>112</ns3:hr>
            <ns3:cad>0</ns3:cad>
          </ns3:TrackPointExtension>
        </extensions>
      </trkpt>
      <trkpt lat="49.85807840712368488311767578125" lon="6.88821106217801570892333984375">
        <ele>153</ele>
        <time>2026-04-22T10:45:14.000Z</time>
        <extensions>
          <ns3:TrackPointExtension>
            <ns3:hr>112</ns3:hr>
            <ns3:cad>56</ns3:cad>
          </ns3:TrackPointExtension>
        </extensions>
      </trkpt>
      <trkpt lat="49.85808243043720722198486328125" lon="6.8881925381720066070556640625">
        <ele>153</ele>
        <time>2026-04-22T10:45:15.000Z</time>
        <extensions>
          <ns3:TrackPointExtension>
            <ns3:hr>112</ns3:hr>
            <ns3:cad>56</ns3:cad>
          </ns3:TrackPointExtension>
        </extensions>
      </trkpt>
      <trkpt lat="49.8580952547490596771240234375" lon="6.8881474435329437255859375">
        <ele>152.600006103515625</ele>
        <time>2026-04-22T10:45:17.000Z</time>
        <extensions>
          <ns3:TrackPointExtension>
            <ns3:hr>112</ns3:hr>
            <ns3:cad>55</ns3:cad>
          </ns3:TrackPointExtension>
        </extensions>
      </trkpt>
      <trkpt lat="49.85810187645256519317626953125" lon="6.8881244771182537078857421875">
        <ele>152.399993896484375</ele>
        <time>2026-04-22T10:45:19.000Z</time>
        <extensions>
          <ns3:TrackPointExtension>
            <ns3:hr>112</ns3:hr>
            <ns3:cad>55</ns3:cad>
          </ns3:TrackPointExtension>
        </extensions>
      </trkpt>
      <trkpt lat="49.85810807906091213226318359375" lon="6.88811584375798702239990234375">
        <ele>152.1999969482421875</ele>
        <time>2026-04-22T10:45:20.000Z</time>
        <extensions>
          <ns3:TrackPointExtension>
            <ns3:hr>112</ns3:hr>
            <ns3:cad>0</ns3:cad>
          </ns3:TrackPointExtension>
        </extensions>
      </trkpt>
      <trkpt lat="49.85812048427760601043701171875" lon="6.88808600418269634246826171875">
        <ele>152.1999969482421875</ele>
        <time>2026-04-22T10:45:25.000Z</time>
        <extensions>
          <ns3:TrackPointExtension>
            <ns3:hr>112</ns3:hr>
            <ns3:cad>0</ns3:cad>
          </ns3:TrackPointExtension>
        </extensions>
      </trkpt>
      <trkpt lat="49.85812735743820667266845703125" lon="6.888065636157989501953125">
        <ele>152.600006103515625</ele>
        <time>2026-04-22T10:45:32.000Z</time>
        <extensions>
          <ns3:TrackPointExtension>
            <ns3:hr>111</ns3:hr>
            <ns3:cad>0</ns3:cad>
          </ns3:TrackPointExtension>
        </extensions>
      </trkpt>
      <trkpt lat="49.85814814455807209014892578125" lon="6.88804325647652149200439453125">
        <ele>153.1999969482421875</ele>
        <time>2026-04-22T10:45:39.000Z</time>
        <extensions>
          <ns3:TrackPointExtension>
            <ns3:hr>113</ns3:hr>
            <ns3:cad>0</ns3:cad>
          </ns3:TrackPointExtension>
        </extensions>
      </trkpt>
      <trkpt lat="49.85814931802451610565185546875" lon="6.88803873024880886077880859375">
        <ele>153.399993896484375</ele>
        <time>2026-04-22T10:45:40.000Z</time>
        <extensions>
          <ns3:TrackPointExtension>
            <ns3:hr>114</ns3:hr>
            <ns3:cad>0</ns3:cad>
          </ns3:TrackPointExtension>
        </extensions>
      </trkpt>
      <trkpt lat="49.85816004686057567596435546875" lon="6.8880386464297771453857421875">
        <ele>153.8000030517578125</ele>
        <time>2026-04-22T10:45:43.000Z</time>
        <extensions>
          <ns3:TrackPointExtension>
            <ns3:hr>117</ns3:hr>
            <ns3:cad>0</ns3:cad>
          </ns3:TrackPointExtension>
        </extensions>
      </trkpt>
      <trkpt lat="49.8581636510789394378662109375" lon="6.8880356289446353912353515625">
        <ele>154</ele>
        <time>2026-04-22T10:45:44.000Z</time>
        <extensions>
          <ns3:TrackPointExtension>
            <ns3:hr>117</ns3:hr>
            <ns3:cad>0</ns3:cad>
          </ns3:TrackPointExtension>
        </extensions>
      </trkpt>
      <trkpt lat="49.85816624946892261505126953125" lon="6.88803101889789104461669921875">
        <ele>154.600006103515625</ele>
        <time>2026-04-22T10:45:47.000Z</time>
        <extensions>
          <ns3:TrackPointExtension>
            <ns3:hr>117</ns3:hr>
            <ns3:cad>0</ns3:cad>
          </ns3:TrackPointExtension>
        </extensions>
      </trkpt>
      <trkpt lat="49.85815183259546756744384765625" lon="6.88803839497268199920654296875">
        <ele>155</ele>
        <time>2026-04-22T10:45:49.000Z</time>
        <extensions>
          <ns3:TrackPointExtension>
            <ns3:hr>117</ns3:hr>
            <ns3:cad>0</ns3:cad>
          </ns3:TrackPointExtension>
        </extensions>
      </trkpt>
      <trkpt lat="49.858150742948055267333984375" lon="6.88802414573729038238525390625">
        <ele>155.600006103515625</ele>
        <time>2026-04-22T10:45:53.000Z</time>
        <extensions>
          <ns3:TrackPointExtension>
            <ns3:hr>118</ns3:hr>
            <ns3:cad>0</ns3:cad>
          </ns3:TrackPointExtension>
        </extensions>
      </trkpt>
      <trkpt lat="49.85815200023353099822998046875" lon="6.8880186975002288818359375">
        <ele>155.8000030517578125</ele>
        <time>2026-04-22T10:45:54.000Z</time>
        <extensions>
          <ns3:TrackPointExtension>
            <ns3:hr>118</ns3:hr>
            <ns3:cad>0</ns3:cad>
          </ns3:TrackPointExtension>
        </extensions>
      </trkpt>
      <trkpt lat="49.8581220768392086029052734375" lon="6.8879695795476436614990234375">
        <ele>156.600006103515625</ele>
        <time>2026-04-22T10:46:00.000Z</time>
        <extensions>
          <ns3:TrackPointExtension>
            <ns3:hr>119</ns3:hr>
            <ns3:cad>0</ns3:cad>
          </ns3:TrackPointExtension>
        </extensions>
      </trkpt>
      <trkpt lat="49.85812165774405002593994140625" lon="6.88796572387218475341796875">
        <ele>157.600006103515625</ele>
        <time>2026-04-22T10:46:06.000Z</time>
        <extensions>
          <ns3:TrackPointExtension>
            <ns3:hr>122</ns3:hr>
            <ns3:cad>0</ns3:cad>
          </ns3:TrackPointExtension>
        </extensions>
      </trkpt>
      <trkpt lat="49.8581220768392086029052734375" lon="6.88796572387218475341796875">
        <ele>158</ele>
        <time>2026-04-22T10:46:09.000Z</time>
        <extensions>
          <ns3:TrackPointExtension>
            <ns3:hr>123</ns3:hr>
            <ns3:cad>0</ns3:cad>
          </ns3:TrackPointExtension>
        </extensions>
      </trkpt>
      <trkpt lat="49.858123920857906341552734375" lon="6.88796572387218475341796875">
        <ele>158.8000030517578125</ele>
        <time>2026-04-22T10:46:13.000Z</time>
        <extensions>
          <ns3:TrackPointExtension>
            <ns3:hr>123</ns3:hr>
            <ns3:cad>0</ns3:cad>
          </ns3:TrackPointExtension>
        </extensions>
      </trkpt>
      <trkpt lat="49.85812635160982608795166015625" lon="6.8879382312297821044921875">
        <ele>159.8000030517578125</ele>
        <time>2026-04-22T10:46:20.000Z</time>
        <extensions>
          <ns3:TrackPointExtension>
            <ns3:hr>125</ns3:hr>
            <ns3:cad>0</ns3:cad>
          </ns3:TrackPointExtension>
        </extensions>
      </trkpt>
      <trkpt lat="49.85812735743820667266845703125" lon="6.88791752792894840240478515625">
        <ele>160.8000030517578125</ele>
        <time>2026-04-22T10:46:26.000Z</time>
        <extensions>
          <ns3:TrackPointExtension>
            <ns3:hr>124</ns3:hr>
            <ns3:cad>0</ns3:cad>
          </ns3:TrackPointExtension>
        </extensions>
      </trkpt>
      <trkpt lat="49.8581271059811115264892578125" lon="6.88789254985749721527099609375">
        <ele>161.8000030517578125</ele>
        <time>2026-04-22T10:46:33.000Z</time>
        <extensions>
          <ns3:TrackPointExtension>
            <ns3:hr>125</ns3:hr>
            <ns3:cad>0</ns3:cad>
          </ns3:TrackPointExtension>
        </extensions>
      </trkpt>
      <trkpt lat="49.85812869854271411895751953125" lon="6.8878619559109210968017578125">
        <ele>163</ele>
        <time>2026-04-22T10:46:40.000Z</time>
        <extensions>
          <ns3:TrackPointExtension>
            <ns3:hr>126</ns3:hr>
            <ns3:cad>0</ns3:cad>
          </ns3:TrackPointExtension>
        </extensions>
      </trkpt>
      <trkpt lat="49.8581328056752681732177734375" lon="6.8878227286040782928466796875">
        <ele>164</ele>
        <time>2026-04-22T10:46:48.000Z</time>
        <extensions>
          <ns3:TrackPointExtension>
            <ns3:hr>126</ns3:hr>
            <ns3:cad>0</ns3:cad>
          </ns3:TrackPointExtension>
        </extensions>
      </trkpt>
      <trkpt lat="49.8581532575190067291259765625" lon="6.8878227286040782928466796875">
        <ele>165</ele>
        <time>2026-04-22T10:46:58.000Z</time>
        <extensions>
          <ns3:TrackPointExtension>
            <ns3:hr>128</ns3:hr>
            <ns3:cad>0</ns3:cad>
          </ns3:TrackPointExtension>
        </extensions>
      </trkpt>
      <trkpt lat="49.85820614732801914215087890625" lon="6.88784301280975341796875">
        <ele>166.1999969482421875</ele>
        <time>2026-04-22T10:47:07.000Z</time>
        <extensions>
          <ns3:TrackPointExtension>
            <ns3:hr>130</ns3:hr>
            <ns3:cad>0</ns3:cad>
          </ns3:TrackPointExtension>
        </extensions>
      </trkpt>
      <trkpt lat="49.85824705101549625396728515625" lon="6.8879006803035736083984375">
        <ele>167.1999969482421875</ele>
        <time>2026-04-22T10:47:19.000Z</time>
        <extensions>
          <ns3:TrackPointExtension>
            <ns3:hr>128</ns3:hr>
            <ns3:cad>0</ns3:cad>
          </ns3:TrackPointExtension>
        </extensions>
      </trkpt>
      <trkpt lat="49.85824889503419399261474609375" lon="6.8879018537700176239013671875">
        <ele>168.399993896484375</ele>
        <time>2026-04-22T10:47:29.000Z</time>
        <extensions>
          <ns3:TrackPointExtension>
            <ns3:hr>128</ns3:hr>
            <ns3:cad>0</ns3:cad>
          </ns3:TrackPointExtension>
        </extensions>
      </trkpt>
      <trkpt lat="49.85824369825422763824462890625" lon="6.88788064755499362945556640625">
        <ele>169.399993896484375</ele>
        <time>2026-04-22T10:47:36.000Z</time>
        <extensions>
          <ns3:TrackPointExtension>
            <ns3:hr>128</ns3:hr>
            <ns3:cad>0</ns3:cad>
          </ns3:TrackPointExtension>
        </extensions>
      </trkpt>
      <trkpt lat="49.858237244188785552978515625" lon="6.88783966004848480224609375">
        <ele>170.399993896484375</ele>
        <time>2026-04-22T10:47:43.000Z</time>
        <extensions>
          <ns3:TrackPointExtension>
            <ns3:hr>128</ns3:hr>
            <ns3:cad>0</ns3:cad>
          </ns3:TrackPointExtension>
        </extensions>
      </trkpt>
      <trkpt lat="49.85823950730264186859130859375" lon="6.8878213874995708465576171875">
        <ele>171.399993896484375</ele>
        <time>2026-04-22T10:47:52.000Z</time>
        <extensions>
          <ns3:TrackPointExtension>
            <ns3:hr>127</ns3:hr>
            <ns3:cad>0</ns3:cad>
          </ns3:TrackPointExtension>
        </extensions>
      </trkpt>
      <trkpt lat="49.85826364718377590179443359375" lon="6.88781778328120708465576171875">
        <ele>172.600006103515625</ele>
        <time>2026-04-22T10:48:04.000Z</time>
        <extensions>
          <ns3:TrackPointExtension>
            <ns3:hr>129</ns3:hr>
            <ns3:cad>0</ns3:cad>
          </ns3:TrackPointExtension>
        </extensions>
      </trkpt>
      <trkpt lat="49.8582749627530574798583984375" lon="6.887818537652492523193359375">
        <ele>173.8000030517578125</ele>
        <time>2026-04-22T10:48:08.000Z</time>
        <extensions>
          <ns3:TrackPointExtension>
            <ns3:hr>129</ns3:hr>
            <ns3:cad>0</ns3:cad>
          </ns3:TrackPointExtension>
        </extensions>
      </trkpt>
      <trkpt lat="49.858286194503307342529296875" lon="6.8878190405666828155517578125">
        <ele>174.8000030517578125</ele>
        <time>2026-04-22T10:48:12.000Z</time>
        <extensions>
          <ns3:TrackPointExtension>
            <ns3:hr>129</ns3:hr>
            <ns3:cad>0</ns3:cad>
          </ns3:TrackPointExtension>
        </extensions>
      </trkpt>
      <trkpt lat="49.858306981623172760009765625" lon="6.8878173641860485076904296875">
        <ele>175.8000030517578125</ele>
        <time>2026-04-22T10:48:21.000Z</time>
        <extensions>
          <ns3:TrackPointExtension>
            <ns3:hr>129</ns3:hr>
            <ns3:cad>67</ns3:cad>
          </ns3:TrackPointExtension>
        </extensions>
      </trkpt>
      <trkpt lat="49.85831460915505886077880859375" lon="6.8877838365733623504638671875">
        <ele>177</ele>
        <time>2026-04-22T10:48:32.000Z</time>
        <extensions>
          <ns3:TrackPointExtension>
            <ns3:hr>129</ns3:hr>
            <ns3:cad>0</ns3:cad>
          </ns3:TrackPointExtension>
        </extensions>
      </trkpt>
      <trkpt lat="49.85831796191632747650146484375" lon="6.88775408081710338592529296875">
        <ele>178</ele>
        <time>2026-04-22T10:48:39.000Z</time>
        <extensions>
          <ns3:TrackPointExtension>
            <ns3:hr>129</ns3:hr>
            <ns3:cad>0</ns3:cad>
          </ns3:TrackPointExtension>
        </extensions>
      </trkpt>
      <trkpt lat="49.8583292774856090545654296875" lon="6.887747459113597869873046875">
        <ele>179.1999969482421875</ele>
        <time>2026-04-22T10:48:47.000Z</time>
        <extensions>
          <ns3:TrackPointExtension>
            <ns3:hr>130</ns3:hr>
            <ns3:cad>0</ns3:cad>
          </ns3:TrackPointExtension>
        </extensions>
      </trkpt>
      <trkpt lat="49.85833405517041683197021484375" lon="6.88774846494197845458984375">
        <ele>180.1999969482421875</ele>
        <time>2026-04-22T10:48:53.000Z</time>
        <extensions>
          <ns3:TrackPointExtension>
            <ns3:hr>129</ns3:hr>
            <ns3:cad>0</ns3:cad>
          </ns3:TrackPointExtension>
        </extensions>
      </trkpt>
      <trkpt lat="49.85834143124520778656005859375" lon="6.8877519853413105010986328125">
        <ele>181.1999969482421875</ele>
        <time>2026-04-22T10:49:03.000Z</time>
        <extensions>
          <ns3:TrackPointExtension>
            <ns3:hr>130</ns3:hr>
            <ns3:cad>0</ns3:cad>
          </ns3:TrackPointExtension>
        </extensions>
      </trkpt>
      <trkpt lat="49.85834025777876377105712890625" lon="6.8876874446868896484375">
        <ele>181.8000030517578125</ele>
        <time>2026-04-22T10:49:08.000Z</time>
        <extensions>
          <ns3:TrackPointExtension>
            <ns3:hr>130</ns3:hr>
            <ns3:cad>0</ns3:cad>
          </ns3:TrackPointExtension>
        </extensions>
      </trkpt>
      <trkpt lat="49.85833413898944854736328125" lon="6.887638159096240997314453125">
        <ele>182.399993896484375</ele>
        <time>2026-04-22T10:49:12.000Z</time>
        <extensions>
          <ns3:TrackPointExtension>
            <ns3:hr>129</ns3:hr>
            <ns3:cad>0</ns3:cad>
          </ns3:TrackPointExtension>
        </extensions>
      </trkpt>
      <trkpt lat="49.858323074877262115478515625" lon="6.88761167228221893310546875">
        <ele>182.600006103515625</ele>
        <time>2026-04-22T10:49:16.000Z</time>
        <extensions>
          <ns3:TrackPointExtension>
            <ns3:hr>129</ns3:hr>
            <ns3:cad>75</ns3:cad>
          </ns3:TrackPointExtension>
        </extensions>
      </trkpt>
      <trkpt lat="49.85830572433769702911376953125" lon="6.8875586986541748046875">
        <ele>183.399993896484375</ele>
        <time>2026-04-22T10:49:23.000Z</time>
        <extensions>
          <ns3:TrackPointExtension>
            <ns3:hr>130</ns3:hr>
            <ns3:cad>0</ns3:cad>
          </ns3:TrackPointExtension>
        </extensions>
      </trkpt>
      <trkpt lat="49.85830538906157016754150390625" lon="6.8875367380678653717041015625">
        <ele>183.8000030517578125</ele>
        <time>2026-04-22T10:49:25.000Z</time>
        <extensions>
          <ns3:TrackPointExtension>
            <ns3:hr>130</ns3:hr>
            <ns3:cad>0</ns3:cad>
          </ns3:TrackPointExtension>
        </extensions>
      </trkpt>
      <trkpt lat="49.858302287757396697998046875" lon="6.88743171282112598419189453125">
        <ele>184.600006103515625</ele>
        <time>2026-04-22T10:49:33.000Z</time>
        <extensions>
          <ns3:TrackPointExtension>
            <ns3:hr>129</ns3:hr>
            <ns3:cad>0</ns3:cad>
          </ns3:TrackPointExtension>
        </extensions>
      </trkpt>
      <trkpt lat="49.8583007790148258209228515625" lon="6.8873918987810611724853515625">
        <ele>184.8000030517578125</ele>
        <time>2026-04-22T10:49:36.000Z</time>
        <extensions>
          <ns3:TrackPointExtension>
            <ns3:hr>129</ns3:hr>
            <ns3:cad>0</ns3:cad>
          </ns3:TrackPointExtension>
        </extensions>
      </trkpt>
      <trkpt lat="49.85828862525522708892822265625" lon="6.887351833283901214599609375">
        <ele>185.1999969482421875</ele>
        <time>2026-04-22T10:49:41.000Z</time>
        <extensions>
          <ns3:TrackPointExtension>
            <ns3:hr>128</ns3:hr>
            <ns3:cad>78</ns3:cad>
          </ns3:TrackPointExtension>
        </extensions>
      </trkpt>
      <trkpt lat="49.85828854143619537353515625" lon="6.8873335607349872589111328125">
        <ele>185.600006103515625</ele>
        <time>2026-04-22T10:49:43.000Z</time>
        <extensions>
          <ns3:TrackPointExtension>
            <ns3:hr>128</ns3:hr>
            <ns3:cad>78</ns3:cad>
          </ns3:TrackPointExtension>
        </extensions>
      </trkpt>
      <trkpt lat="49.85828259028494358062744140625" lon="6.88725493848323822021484375">
        <ele>186.399993896484375</ele>
        <time>2026-04-22T10:49:52.000Z</time>
        <extensions>
          <ns3:TrackPointExtension>
            <ns3:hr>129</ns3:hr>
            <ns3:cad>0</ns3:cad>
          </ns3:TrackPointExtension>
        </extensions>
      </trkpt>
      <trkpt lat="49.85827974043786525726318359375" lon="6.88724479638040065765380859375">
        <ele>186.600006103515625</ele>
        <time>2026-04-22T10:49:53.000Z</time>
        <extensions>
          <ns3:TrackPointExtension>
            <ns3:hr>129</ns3:hr>
            <ns3:cad>0</ns3:cad>
          </ns3:TrackPointExtension>
        </extensions>
      </trkpt>
      <trkpt lat="49.85827001743018627166748046875" lon="6.8871464766561985015869140625">
        <ele>187</ele>
        <time>2026-04-22T10:50:01.000Z</time>
        <extensions>
          <ns3:TrackPointExtension>
            <ns3:hr>129</ns3:hr>
            <ns3:cad>0</ns3:cad>
          </ns3:TrackPointExtension>
        </extensions>
      </trkpt>
      <trkpt lat="49.85828158445656299591064453125" lon="6.8870415352284908294677734375">
        <ele>187.600006103515625</ele>
        <time>2026-04-22T10:50:10.000Z</time>
        <extensions>
          <ns3:TrackPointExtension>
            <ns3:hr>129</ns3:hr>
            <ns3:cad>0</ns3:cad>
          </ns3:TrackPointExtension>
        </extensions>
      </trkpt>
      <trkpt lat="49.85828544013202190399169921875" lon="6.8870262801647186279296875">
        <ele>187.600006103515625</ele>
        <time>2026-04-22T10:50:11.000Z</time>
        <extensions>
          <ns3:TrackPointExtension>
            <ns3:hr>129</ns3:hr>
            <ns3:cad>78</ns3:cad>
          </ns3:TrackPointExtension>
        </extensions>
      </trkpt>
      <trkpt lat="49.8582784831523895263671875" lon="6.88696215860545635223388671875">
        <ele>187.8000030517578125</ele>
        <time>2026-04-22T10:50:17.000Z</time>
        <extensions>
          <ns3:TrackPointExtension>
            <ns3:hr>128</ns3:hr>
            <ns3:cad>40</ns3:cad>
          </ns3:TrackPointExtension>
        </extensions>
      </trkpt>
      <trkpt lat="49.858277142047882080078125" lon="6.886897198855876922607421875">
        <ele>188.1999969482421875</ele>
        <time>2026-04-22T10:50:24.000Z</time>
        <extensions>
          <ns3:TrackPointExtension>
            <ns3:hr>127</ns3:hr>
            <ns3:cad>79</ns3:cad>
          </ns3:TrackPointExtension>
        </extensions>
      </trkpt>
      <trkpt lat="49.85827622003853321075439453125" lon="6.88681798987090587615966796875">
        <ele>188.399993896484375</ele>
        <time>2026-04-22T10:50:32.000Z</time>
        <extensions>
          <ns3:TrackPointExtension>
            <ns3:hr>126</ns3:hr>
            <ns3:cad>79</ns3:cad>
          </ns3:TrackPointExtension>
        </extensions>
      </trkpt>
      <trkpt lat="49.8582796566188335418701171875" lon="6.88674272038042545318603515625">
        <ele>188.600006103515625</ele>
        <time>2026-04-22T10:50:37.000Z</time>
        <extensions>
          <ns3:TrackPointExtension>
            <ns3:hr>126</ns3:hr>
            <ns3:cad>78</ns3:cad>
          </ns3:TrackPointExtension>
        </extensions>
      </trkpt>
      <trkpt lat="49.8582784831523895263671875" lon="6.886724866926670074462890625">
        <ele>188.8000030517578125</ele>
        <time>2026-04-22T10:50:38.000Z</time>
        <extensions>
          <ns3:TrackPointExtension>
            <ns3:hr>126</ns3:hr>
            <ns3:cad>0</ns3:cad>
          </ns3:TrackPointExtension>
        </extensions>
      </trkpt>
      <trkpt lat="49.85829751007258892059326171875" lon="6.88663375563919544219970703125">
        <ele>189.600006103515625</ele>
        <time>2026-04-22T10:50:45.000Z</time>
        <extensions>
          <ns3:TrackPointExtension>
            <ns3:hr>126</ns3:hr>
            <ns3:cad>0</ns3:cad>
          </ns3:TrackPointExtension>
        </extensions>
      </trkpt>
      <trkpt lat="49.8582980968058109283447265625" lon="6.8865956179797649383544921875">
        <ele>189.8000030517578125</ele>
        <time>2026-04-22T10:50:47.000Z</time>
        <extensions>
          <ns3:TrackPointExtension>
            <ns3:hr>126</ns3:hr>
            <ns3:cad>40</ns3:cad>
          </ns3:TrackPointExtension>
        </extensions>
      </trkpt>
      <trkpt lat="49.85829348675906658172607421875" lon="6.88648246228694915771484375">
        <ele>190.399993896484375</ele>
        <time>2026-04-22T10:50:54.000Z</time>
        <extensions>
          <ns3:TrackPointExtension>
            <ns3:hr>126</ns3:hr>
            <ns3:cad>78</ns3:cad>
          </ns3:TrackPointExtension>
        </extensions>
      </trkpt>
      <trkpt lat="49.85829348675906658172607421875" lon="6.8864638544619083404541015625">
        <ele>190.399993896484375</ele>
        <time>2026-04-22T10:50:55.000Z</time>
        <extensions>
          <ns3:TrackPointExtension>
            <ns3:hr>126</ns3:hr>
            <ns3:cad>79</ns3:cad>
          </ns3:TrackPointExtension>
        </extensions>
      </trkpt>
      <trkpt lat="49.858290217816829681396484375" lon="6.8864147365093231201171875">
        <ele>190.8000030517578125</ele>
        <time>2026-04-22T10:50:59.000Z</time>
        <extensions>
          <ns3:TrackPointExtension>
            <ns3:hr>126</ns3:hr>
            <ns3:cad>76</ns3:cad>
          </ns3:TrackPointExtension>
        </extensions>
      </trkpt>
      <trkpt lat="49.8582685925066471099853515625" lon="6.88628531992435455322265625">
        <ele>191.1999969482421875</ele>
        <time>2026-04-22T10:51:05.000Z</time>
        <extensions>
          <ns3:TrackPointExtension>
            <ns3:hr>126</ns3:hr>
            <ns3:cad>41</ns3:cad>
          </ns3:TrackPointExtension>
        </extensions>
      </trkpt>
      <trkpt lat="49.85826280899345874786376953125" lon="6.88622170127928256988525390625">
        <ele>191.600006103515625</ele>
        <time>2026-04-22T10:51:13.000Z</time>
        <extensions>
          <ns3:TrackPointExtension>
            <ns3:hr>125</ns3:hr>
            <ns3:cad>41</ns3:cad>
          </ns3:TrackPointExtension>
        </extensions>
      </trkpt>
      <trkpt lat="49.85828879289329051971435546875" lon="6.88612849451601505279541015625">
        <ele>191.8000030517578125</ele>
        <time>2026-04-22T10:51:21.000Z</time>
        <extensions>
          <ns3:TrackPointExtension>
            <ns3:hr>126</ns3:hr>
            <ns3:cad>40</ns3:cad>
          </ns3:TrackPointExtension>
        </extensions>
      </trkpt>
      <trkpt lat="49.85830103047192096710205078125" lon="6.88601617701351642608642578125">
        <ele>193</ele>
        <time>2026-04-22T10:51:31.000Z</time>
        <extensions>
          <ns3:TrackPointExtension>
            <ns3:hr>125</ns3:hr>
            <ns3:cad>0</ns3:cad>
          </ns3:TrackPointExtension>
        </extensions>
      </trkpt>
      <trkpt lat="49.85829583369195461273193359375" lon="6.88593755476176738739013671875">
        <ele>193.399993896484375</ele>
        <time>2026-04-22T10:51:37.000Z</time>
        <extensions>
          <ns3:TrackPointExtension>
            <ns3:hr>125</ns3:hr>
            <ns3:cad>41</ns3:cad>
          </ns3:TrackPointExtension>
        </extensions>
      </trkpt>
      <trkpt lat="49.858303964138031005859375" lon="6.8858700804412364959716796875">
        <ele>193.8000030517578125</ele>
        <time>2026-04-22T10:51:46.000Z</time>
        <extensions>
          <ns3:TrackPointExtension>
            <ns3:hr>125</ns3:hr>
            <ns3:cad>40</ns3:cad>
          </ns3:TrackPointExtension>
        </extensions>
      </trkpt>
      <trkpt lat="49.858306311070919036865234375" lon="6.885806210339069366455078125">
        <ele>194</ele>
        <time>2026-04-22T10:51:50.000Z</time>
        <extensions>
          <ns3:TrackPointExtension>
            <ns3:hr>125</ns3:hr>
            <ns3:cad>40</ns3:cad>
          </ns3:TrackPointExtension>
        </extensions>
      </trkpt>
      <trkpt lat="49.8583091609179973602294921875" lon="6.88577008433640003204345703125">
        <ele>194</ele>
        <time>2026-04-22T10:51:53.000Z</time>
        <extensions>
          <ns3:TrackPointExtension>
            <ns3:hr>125</ns3:hr>
            <ns3:cad>0</ns3:cad>
          </ns3:TrackPointExtension>
        </extensions>
      </trkpt>
      <trkpt lat="49.8583369888365268707275390625" lon="6.8856288492679595947265625">
        <ele>194.8000030517578125</ele>
        <time>2026-04-22T10:52:04.000Z</time>
        <extensions>
          <ns3:TrackPointExtension>
            <ns3:hr>125</ns3:hr>
            <ns3:cad>41</ns3:cad>
          </ns3:TrackPointExtension>
        </extensions>
      </trkpt>
      <trkpt lat="49.85834796912968158721923828125" lon="6.88560009934008121490478515625">
        <ele>195</ele>
        <time>2026-04-22T10:52:08.000Z</time>
        <extensions>
          <ns3:TrackPointExtension>
            <ns3:hr>126</ns3:hr>
            <ns3:cad>42</ns3:cad>
          </ns3:TrackPointExtension>
        </extensions>
      </trkpt>
      <trkpt lat="49.85834646038711071014404296875" lon="6.8855545856058597564697265625">
        <ele>195.1999969482421875</ele>
        <time>2026-04-22T10:52:11.000Z</time>
        <extensions>
          <ns3:TrackPointExtension>
            <ns3:hr>126</ns3:hr>
            <ns3:cad>41</ns3:cad>
          </ns3:TrackPointExtension>
        </extensions>
      </trkpt>
      <trkpt lat="49.858364649116992950439453125" lon="6.885509155690670013427734375">
        <ele>195.600006103515625</ele>
        <time>2026-04-22T10:52:16.000Z</time>
        <extensions>
          <ns3:TrackPointExtension>
            <ns3:hr>126</ns3:hr>
            <ns3:cad>41</ns3:cad>
          </ns3:TrackPointExtension>
        </extensions>
      </trkpt>
      <trkpt lat="49.858379065990447998046875" lon="6.88545911572873592376708984375">
        <ele>196</ele>
        <time>2026-04-22T10:52:21.000Z</time>
        <extensions>
          <ns3:TrackPointExtension>
            <ns3:hr>126</ns3:hr>
            <ns3:cad>0</ns3:cad>
          </ns3:TrackPointExtension>
        </extensions>
      </trkpt>
      <trkpt lat="49.85838644206523895263671875" lon="6.88543371856212615966796875">
        <ele>196.1999969482421875</ele>
        <time>2026-04-22T10:52:23.000Z</time>
        <extensions>
          <ns3:TrackPointExtension>
            <ns3:hr>126</ns3:hr>
            <ns3:cad>0</ns3:cad>
          </ns3:TrackPointExtension>
        </extensions>
      </trkpt>
      <trkpt lat="49.8584016971290111541748046875" lon="6.8853296153247356414794921875">
        <ele>196.8000030517578125</ele>
        <time>2026-04-22T10:52:31.000Z</time>
        <extensions>
          <ns3:TrackPointExtension>
            <ns3:hr>126</ns3:hr>
            <ns3:cad>0</ns3:cad>
          </ns3:TrackPointExtension>
        </extensions>
      </trkpt>
      <trkpt lat="49.8584080673754215240478515625" lon="6.88530455343425273895263671875">
        <ele>197</ele>
        <time>2026-04-22T10:52:33.000Z</time>
        <extensions>
          <ns3:TrackPointExtension>
            <ns3:hr>126</ns3:hr>
            <ns3:cad>0</ns3:cad>
          </ns3:TrackPointExtension>
        </extensions>
      </trkpt>
      <trkpt lat="49.85842156223952770233154296875" lon="6.88523431308567523956298828125">
        <ele>197.399993896484375</ele>
        <time>2026-04-22T10:52:39.000Z</time>
        <extensions>
          <ns3:TrackPointExtension>
            <ns3:hr>127</ns3:hr>
            <ns3:cad>41</ns3:cad>
          </ns3:TrackPointExtension>
        </extensions>
      </trkpt>
      <trkpt lat="49.85843338072299957275390625" lon="6.88513934612274169921875">
        <ele>197.399993896484375</ele>
        <time>2026-04-22T10:52:48.000Z</time>
        <extensions>
          <ns3:TrackPointExtension>
            <ns3:hr>125</ns3:hr>
            <ns3:cad>77</ns3:cad>
          </ns3:TrackPointExtension>
        </extensions>
      </trkpt>
      <trkpt lat="49.85843966715037822723388671875" lon="6.8850521743297576904296875">
        <ele>198</ele>
        <time>2026-04-22T10:52:56.000Z</time>
        <extensions>
          <ns3:TrackPointExtension>
            <ns3:hr>125</ns3:hr>
            <ns3:cad>41</ns3:cad>
          </ns3:TrackPointExtension>
        </extensions>
      </trkpt>
      <trkpt lat="49.85844503156840801239013671875" lon="6.88498176634311676025390625">
        <ele>198.1999969482421875</ele>
        <time>2026-04-22T10:53:00.000Z</time>
        <extensions>
          <ns3:TrackPointExtension>
            <ns3:hr>125</ns3:hr>
            <ns3:cad>41</ns3:cad>
          </ns3:TrackPointExtension>
        </extensions>
      </trkpt>
      <trkpt lat="49.8584566824138164520263671875" lon="6.8849453888833522796630859375">
        <ele>198.399993896484375</ele>
        <time>2026-04-22T10:53:03.000Z</time>
        <extensions>
          <ns3:TrackPointExtension>
            <ns3:hr>125</ns3:hr>
            <ns3:cad>40</ns3:cad>
          </ns3:TrackPointExtension>
        </extensions>
      </trkpt>
      <trkpt lat="49.85846179537475109100341796875" lon="6.88487791456282138824462890625">
        <ele>199</ele>
        <time>2026-04-22T10:53:09.000Z</time>
        <extensions>
          <ns3:TrackPointExtension>
            <ns3:hr>125</ns3:hr>
            <ns3:cad>41</ns3:cad>
          </ns3:TrackPointExtension>
        </extensions>
      </trkpt>
      <trkpt lat="49.8584600351750850677490234375" lon="6.88484036363661289215087890625">
        <ele>199.1999969482421875</ele>
        <time>2026-04-22T10:53:11.000Z</time>
        <extensions>
          <ns3:TrackPointExtension>
            <ns3:hr>125</ns3:hr>
            <ns3:cad>42</ns3:cad>
          </ns3:TrackPointExtension>
        </extensions>
      </trkpt>
      <trkpt lat="49.8584608733654022216796875" lon="6.884766183793544769287109375">
        <ele>200</ele>
        <time>2026-04-22T10:53:18.000Z</time>
        <extensions>
          <ns3:TrackPointExtension>
            <ns3:hr>125</ns3:hr>
            <ns3:cad>43</ns3:cad>
          </ns3:TrackPointExtension>
        </extensions>
      </trkpt>
      <trkpt lat="49.85846732743084430694580078125" lon="6.88471622765064239501953125">
        <ele>200.399993896484375</ele>
        <time>2026-04-22T10:53:22.000Z</time>
        <extensions>
          <ns3:TrackPointExtension>
            <ns3:hr>125</ns3:hr>
            <ns3:cad>42</ns3:cad>
          </ns3:TrackPointExtension>
        </extensions>
      </trkpt>
      <trkpt lat="49.8584744520485401153564453125" lon="6.8846567161381244659423828125">
        <ele>200.8000030517578125</ele>
        <time>2026-04-22T10:53:27.000Z</time>
        <extensions>
          <ns3:TrackPointExtension>
            <ns3:hr>125</ns3:hr>
            <ns3:cad>42</ns3:cad>
          </ns3:TrackPointExtension>
        </extensions>
      </trkpt>
      <trkpt lat="49.85846422612667083740234375" lon="6.8845742382109165191650390625">
        <ele>201.1999969482421875</ele>
        <time>2026-04-22T10:53:35.000Z</time>
        <extensions>
          <ns3:TrackPointExtension>
            <ns3:hr>125</ns3:hr>
            <ns3:cad>42</ns3:cad>
          </ns3:TrackPointExtension>
        </extensions>
      </trkpt>
      <trkpt lat="49.858491383492946624755859375" lon="6.8844669498503208160400390625">
        <ele>201.399993896484375</ele>
        <time>2026-04-22T10:53:41.000Z</time>
        <extensions>
          <ns3:TrackPointExtension>
            <ns3:hr>126</ns3:hr>
            <ns3:cad>41</ns3:cad>
          </ns3:TrackPointExtension>
        </extensions>
      </trkpt>
      <trkpt lat="49.85849951393902301788330078125" lon="6.88443719409406185150146484375">
        <ele>201.600006103515625</ele>
        <time>2026-04-22T10:53:43.000Z</time>
        <extensions>
          <ns3:TrackPointExtension>
            <ns3:hr>126</ns3:hr>
            <ns3:cad>74</ns3:cad>
          </ns3:TrackPointExtension>
        </extensions>
      </trkpt>
      <trkpt lat="49.858525581657886505126953125" lon="6.88436812721192836761474609375">
        <ele>202.1999969482421875</ele>
        <time>2026-04-22T10:53:49.000Z</time>
        <extensions>
          <ns3:TrackPointExtension>
            <ns3:hr>126</ns3:hr>
            <ns3:cad>40</ns3:cad>
          </ns3:TrackPointExtension>
        </extensions>
      </trkpt>
      <trkpt lat="49.85853320918977260589599609375" lon="6.8843184225261211395263671875">
        <ele>202.399993896484375</ele>
        <time>2026-04-22T10:53:53.000Z</time>
        <extensions>
          <ns3:TrackPointExtension>
            <ns3:hr>126</ns3:hr>
            <ns3:cad>0</ns3:cad>
          </ns3:TrackPointExtension>
        </extensions>
      </trkpt>
      <trkpt lat="49.85853128135204315185546875" lon="6.88426050357520580291748046875">
        <ele>202.399993896484375</ele>
        <time>2026-04-22T10:53:56.000Z</time>
        <extensions>
          <ns3:TrackPointExtension>
            <ns3:hr>126</ns3:hr>
            <ns3:cad>0</ns3:cad>
          </ns3:TrackPointExtension>
        </extensions>
      </trkpt>
      <trkpt lat="49.85854527913033962249755859375" lon="6.8841926939785480499267578125">
        <ele>203.399993896484375</ele>
        <time>2026-04-22T10:54:05.000Z</time>
        <extensions>
          <ns3:TrackPointExtension>
            <ns3:hr>127</ns3:hr>
            <ns3:cad>42</ns3:cad>
          </ns3:TrackPointExtension>
        </extensions>
      </trkpt>
      <trkpt lat="49.8585478775203227996826171875" lon="6.884182803332805633544921875">
        <ele>203.600006103515625</ele>
        <time>2026-04-22T10:54:06.000Z</time>
        <extensions>
          <ns3:TrackPointExtension>
            <ns3:hr>127</ns3:hr>
            <ns3:cad>42</ns3:cad>
          </ns3:TrackPointExtension>
        </extensions>
      </trkpt>
      <trkpt lat="49.8585565946996212005615234375" lon="6.88415807671844959259033203125">
        <ele>203.8000030517578125</ele>
        <time>2026-04-22T10:54:07.000Z</time>
        <extensions>
          <ns3:TrackPointExtension>
            <ns3:hr>127</ns3:hr>
            <ns3:cad>79</ns3:cad>
          </ns3:TrackPointExtension>
        </extensions>
      </trkpt>
      <trkpt lat="49.8585706762969493865966796875" lon="6.8841340206563472747802734375">
        <ele>204</ele>
        <time>2026-04-22T10:54:10.000Z</time>
        <extensions>
          <ns3:TrackPointExtension>
            <ns3:hr>127</ns3:hr>
            <ns3:cad>80</ns3:cad>
          </ns3:TrackPointExtension>
        </extensions>
      </trkpt>
      <trkpt lat="49.85858467407524585723876953125" lon="6.88409253023564815521240234375">
        <ele>204.600006103515625</ele>
        <time>2026-04-22T10:54:15.000Z</time>
        <extensions>
          <ns3:TrackPointExtension>
            <ns3:hr>126</ns3:hr>
            <ns3:cad>0</ns3:cad>
          </ns3:TrackPointExtension>
        </extensions>
      </trkpt>
      <trkpt lat="49.8585924692451953887939453125" lon="6.88405330292880535125732421875">
        <ele>205</ele>
        <time>2026-04-22T10:54:18.000Z</time>
        <extensions>
          <ns3:TrackPointExtension>
            <ns3:hr>126</ns3:hr>
            <ns3:cad>0</ns3:cad>
          </ns3:TrackPointExtension>
        </extensions>
      </trkpt>
      <trkpt lat="49.85860529355704784393310546875" lon="6.88403704203665256500244140625">
        <ele>205.600006103515625</ele>
        <time>2026-04-22T10:54:21.000Z</time>
        <extensions>
          <ns3:TrackPointExtension>
            <ns3:hr>126</ns3:hr>
            <ns3:cad>0</ns3:cad>
          </ns3:TrackPointExtension>
        </extensions>
      </trkpt>
      <trkpt lat="49.85862054862082004547119140625" lon="6.8840535543859004974365234375">
        <ele>206.1999969482421875</ele>
        <time>2026-04-22T10:54:24.000Z</time>
        <extensions>
          <ns3:TrackPointExtension>
            <ns3:hr>126</ns3:hr>
            <ns3:cad>0</ns3:cad>
          </ns3:TrackPointExtension>
        </extensions>
      </trkpt>
      <trkpt lat="49.858653657138347625732421875" lon="6.88412069343030452728271484375">
        <ele>206.8000030517578125</ele>
        <time>2026-04-22T10:54:28.000Z</time>
        <extensions>
          <ns3:TrackPointExtension>
            <ns3:hr>127</ns3:hr>
            <ns3:cad>0</ns3:cad>
          </ns3:TrackPointExtension>
        </extensions>
      </trkpt>
      <trkpt lat="49.8586581833660602569580078125" lon="6.88412924297153949737548828125">
        <ele>206.8000030517578125</ele>
        <time>2026-04-22T10:54:29.000Z</time>
        <extensions>
          <ns3:TrackPointExtension>
            <ns3:hr>127</ns3:hr>
            <ns3:cad>0</ns3:cad>
          </ns3:TrackPointExtension>
        </extensions>
      </trkpt>
      <trkpt lat="49.85866094939410686492919921875" lon="6.884174756705760955810546875">
        <ele>207</ele>
        <time>2026-04-22T10:54:32.000Z</time>
        <extensions>
          <ns3:TrackPointExtension>
            <ns3:hr>127</ns3:hr>
            <ns3:cad>41</ns3:cad>
          </ns3:TrackPointExtension>
        </extensions>
      </trkpt>
      <trkpt lat="49.85865089111030101776123046875" lon="6.884267292916774749755859375">
        <ele>207.1999969482421875</ele>
        <time>2026-04-22T10:54:38.000Z</time>
        <extensions>
          <ns3:TrackPointExtension>
            <ns3:hr>128</ns3:hr>
            <ns3:cad>40</ns3:cad>
          </ns3:TrackPointExtension>
        </extensions>
      </trkpt>
      <trkpt lat="49.85865407623350620269775390625" lon="6.88429755158722400665283203125">
        <ele>207.399993896484375</ele>
        <time>2026-04-22T10:54:40.000Z</time>
        <extensions>
          <ns3:TrackPointExtension>
            <ns3:hr>128</ns3:hr>
            <ns3:cad>41</ns3:cad>
          </ns3:TrackPointExtension>
        </extensions>
      </trkpt>
      <trkpt lat="49.8586538247764110565185546875" lon="6.88439176417887210845947265625">
        <ele>207.8000030517578125</ele>
        <time>2026-04-22T10:54:48.000Z</time>
        <extensions>
          <ns3:TrackPointExtension>
            <ns3:hr>128</ns3:hr>
            <ns3:cad>41</ns3:cad>
          </ns3:TrackPointExtension>
        </extensions>
      </trkpt>
      <trkpt lat="49.85865508206188678741455078125" lon="6.88443300314247608184814453125">
        <ele>207.8000030517578125</ele>
        <time>2026-04-22T10:54:52.000Z</time>
        <extensions>
          <ns3:TrackPointExtension>
            <ns3:hr>128</ns3:hr>
            <ns3:cad>41</ns3:cad>
          </ns3:TrackPointExtension>
        </extensions>
      </trkpt>
      <trkpt lat="49.85865424387156963348388671875" lon="6.88445211388170719146728515625">
        <ele>208</ele>
        <time>2026-04-22T10:54:54.000Z</time>
        <extensions>
          <ns3:TrackPointExtension>
            <ns3:hr>128</ns3:hr>
            <ns3:cad>41</ns3:cad>
          </ns3:TrackPointExtension>
        </extensions>
      </trkpt>
      <trkpt lat="49.85865189693868160247802734375" lon="6.88455940224230289459228515625">
        <ele>208.1999969482421875</ele>
        <time>2026-04-22T10:55:01.000Z</time>
        <extensions>
          <ns3:TrackPointExtension>
            <ns3:hr>127</ns3:hr>
            <ns3:cad>43</ns3:cad>
          </ns3:TrackPointExtension>
        </extensions>
      </trkpt>
      <trkpt lat="49.85865089111030101776123046875" lon="6.88457298092544078826904296875">
        <ele>208.1999969482421875</ele>
        <time>2026-04-22T10:55:02.000Z</time>
        <extensions>
          <ns3:TrackPointExtension>
            <ns3:hr>127</ns3:hr>
            <ns3:cad>43</ns3:cad>
          </ns3:TrackPointExtension>
        </extensions>
      </trkpt>
      <trkpt lat="49.85867653973400592803955078125" lon="6.884663589298725128173828125">
        <ele>208.399993896484375</ele>
        <time>2026-04-22T10:55:08.000Z</time>
        <extensions>
          <ns3:TrackPointExtension>
            <ns3:hr>128</ns3:hr>
            <ns3:cad>43</ns3:cad>
          </ns3:TrackPointExtension>
        </extensions>
      </trkpt>
      <trkpt lat="49.85868039540946483612060546875" lon="6.88469518907368183135986328125">
        <ele>208.600006103515625</ele>
        <time>2026-04-22T10:55:10.000Z</time>
        <extensions>
          <ns3:TrackPointExtension>
            <ns3:hr>128</ns3:hr>
            <ns3:cad>44</ns3:cad>
          </ns3:TrackPointExtension>
        </extensions>
      </trkpt>
      <trkpt lat="49.85867033712565898895263671875" lon="6.88477632589638233184814453125">
        <ele>208.8000030517578125</ele>
        <time>2026-04-22T10:55:16.000Z</time>
        <extensions>
          <ns3:TrackPointExtension>
            <ns3:hr>129</ns3:hr>
            <ns3:cad>44</ns3:cad>
          </ns3:TrackPointExtension>
        </extensions>
      </trkpt>
      <trkpt lat="49.858727753162384033203125" lon="6.88489518128335475921630859375">
        <ele>209.399993896484375</ele>
        <time>2026-04-22T10:55:24.000Z</time>
        <extensions>
          <ns3:TrackPointExtension>
            <ns3:hr>126</ns3:hr>
            <ns3:cad>42</ns3:cad>
          </ns3:TrackPointExtension>
        </extensions>
      </trkpt>
      <trkpt lat="49.85873135738074779510498046875" lon="6.8849148787558078765869140625">
        <ele>209.600006103515625</ele>
        <time>2026-04-22T10:55:25.000Z</time>
        <extensions>
          <ns3:TrackPointExtension>
            <ns3:hr>126</ns3:hr>
            <ns3:cad>42</ns3:cad>
          </ns3:TrackPointExtension>
        </extensions>
      </trkpt>
      <trkpt lat="49.85872800461947917938232421875" lon="6.88493424095213413238525390625">
        <ele>210</ele>
        <time>2026-04-22T10:55:28.000Z</time>
        <extensions>
          <ns3:TrackPointExtension>
            <ns3:hr>126</ns3:hr>
            <ns3:cad>42</ns3:cad>
          </ns3:TrackPointExtension>
        </extensions>
      </trkpt>
      <trkpt lat="49.858727753162384033203125" lon="6.88499291427433490753173828125">
        <ele>210.1999969482421875</ele>
        <time>2026-04-22T10:55:32.000Z</time>
        <extensions>
          <ns3:TrackPointExtension>
            <ns3:hr>127</ns3:hr>
            <ns3:cad>0</ns3:cad>
          </ns3:TrackPointExtension>
        </extensions>
      </trkpt>
      <trkpt lat="49.85873915255069732666015625" lon="6.885088048875331878662109375">
        <ele>210.600006103515625</ele>
        <time>2026-04-22T10:55:39.000Z</time>
        <extensions>
          <ns3:TrackPointExtension>
            <ns3:hr>127</ns3:hr>
            <ns3:cad>44</ns3:cad>
          </ns3:TrackPointExtension>
        </extensions>
      </trkpt>
      <trkpt lat="49.85874158330261707305908203125" lon="6.885122247040271759033203125">
        <ele>210.600006103515625</ele>
        <time>2026-04-22T10:55:40.000Z</time>
        <extensions>
          <ns3:TrackPointExtension>
            <ns3:hr>127</ns3:hr>
            <ns3:cad>44</ns3:cad>
          </ns3:TrackPointExtension>
        </extensions>
      </trkpt>
      <trkpt lat="49.85874007456004619598388671875" lon="6.8851485662162303924560546875">
        <ele>211</ele>
        <time>2026-04-22T10:55:44.000Z</time>
        <extensions>
          <ns3:TrackPointExtension>
            <ns3:hr>127</ns3:hr>
            <ns3:cad>44</ns3:cad>
          </ns3:TrackPointExtension>
        </extensions>
      </trkpt>
      <trkpt lat="49.85873471014201641082763671875" lon="6.88517027534544467926025390625">
        <ele>211</ele>
        <time>2026-04-22T10:55:46.000Z</time>
        <extensions>
          <ns3:TrackPointExtension>
            <ns3:hr>127</ns3:hr>
            <ns3:cad>44</ns3:cad>
          </ns3:TrackPointExtension>
        </extensions>
      </trkpt>
      <trkpt lat="49.85872297547757625579833984375" lon="6.88525677658617496490478515625">
        <ele>211.1999969482421875</ele>
        <time>2026-04-22T10:55:53.000Z</time>
        <extensions>
          <ns3:TrackPointExtension>
            <ns3:hr>126</ns3:hr>
            <ns3:cad>44</ns3:cad>
          </ns3:TrackPointExtension>
        </extensions>
      </trkpt>
      <trkpt lat="49.85871694050729274749755859375" lon="6.8853373266756534576416015625">
        <ele>211.8000030517578125</ele>
        <time>2026-04-22T10:56:00.000Z</time>
        <extensions>
          <ns3:TrackPointExtension>
            <ns3:hr>126</ns3:hr>
            <ns3:cad>46</ns3:cad>
          </ns3:TrackPointExtension>
        </extensions>
      </trkpt>
      <trkpt lat="49.8587215505540370941162109375" lon="6.885420642793178558349609375">
        <ele>212</ele>
        <time>2026-04-22T10:56:06.000Z</time>
        <extensions>
          <ns3:TrackPointExtension>
            <ns3:hr>126</ns3:hr>
            <ns3:cad>43</ns3:cad>
          </ns3:TrackPointExtension>
        </extensions>
      </trkpt>
      <trkpt lat="49.85871626995503902435302734375" lon="6.88545861281454563140869140625">
        <ele>212.399993896484375</ele>
        <time>2026-04-22T10:56:08.000Z</time>
        <extensions>
          <ns3:TrackPointExtension>
            <ns3:hr>127</ns3:hr>
            <ns3:cad>41</ns3:cad>
          </ns3:TrackPointExtension>
        </extensions>
      </trkpt>
      <trkpt lat="49.85871425829827785491943359375" lon="6.885544024407863616943359375">
        <ele>212.600006103515625</ele>
        <time>2026-04-22T10:56:15.000Z</time>
        <extensions>
          <ns3:TrackPointExtension>
            <ns3:hr>126</ns3:hr>
            <ns3:cad>43</ns3:cad>
          </ns3:TrackPointExtension>
        </extensions>
      </trkpt>
      <trkpt lat="49.85873110592365264892578125" lon="6.88563932664692401885986328125">
        <ele>213</ele>
        <time>2026-04-22T10:56:24.000Z</time>
        <extensions>
          <ns3:TrackPointExtension>
            <ns3:hr>126</ns3:hr>
            <ns3:cad>0</ns3:cad>
          </ns3:TrackPointExtension>
        </extensions>
      </trkpt>
      <trkpt lat="49.85873647034168243408203125" lon="6.8856628797948360443115234375">
        <ele>213.1999969482421875</ele>
        <time>2026-04-22T10:56:26.000Z</time>
        <extensions>
          <ns3:TrackPointExtension>
            <ns3:hr>126</ns3:hr>
            <ns3:cad>42</ns3:cad>
          </ns3:TrackPointExtension>
        </extensions>
      </trkpt>
      <trkpt lat="49.85874476842582225799560546875" lon="6.8857413344085216522216796875">
        <ele>213.399993896484375</ele>
        <time>2026-04-22T10:56:31.000Z</time>
        <extensions>
          <ns3:TrackPointExtension>
            <ns3:hr>125</ns3:hr>
            <ns3:cad>43</ns3:cad>
          </ns3:TrackPointExtension>
        </extensions>
      </trkpt>
      <trkpt lat="49.858746863901615142822265625" lon="6.88589782454073429107666015625">
        <ele>213.600006103515625</ele>
        <time>2026-04-22T10:56:40.000Z</time>
        <extensions>
          <ns3:TrackPointExtension>
            <ns3:hr>126</ns3:hr>
            <ns3:cad>43</ns3:cad>
          </ns3:TrackPointExtension>
        </extensions>
      </trkpt>
      <trkpt lat="49.8587497137486934661865234375" lon="6.885910145938396453857421875">
        <ele>213.8000030517578125</ele>
        <time>2026-04-22T10:56:41.000Z</time>
        <extensions>
          <ns3:TrackPointExtension>
            <ns3:hr>126</ns3:hr>
            <ns3:cad>0</ns3:cad>
          </ns3:TrackPointExtension>
        </extensions>
      </trkpt>
      <trkpt lat="49.8587611131370067596435546875" lon="6.885952055454254150390625">
        <ele>214.1999969482421875</ele>
        <time>2026-04-22T10:56:45.000Z</time>
        <extensions>
          <ns3:TrackPointExtension>
            <ns3:hr>126</ns3:hr>
            <ns3:cad>0</ns3:cad>
          </ns3:TrackPointExtension>
        </extensions>
      </trkpt>
      <trkpt lat="49.85881953500211238861083984375" lon="6.88601483590900897979736328125">
        <ele>214.600006103515625</ele>
        <time>2026-04-22T10:56:52.000Z</time>
        <extensions>
          <ns3:TrackPointExtension>
            <ns3:hr>126</ns3:hr>
            <ns3:cad>45</ns3:cad>
          </ns3:TrackPointExtension>
        </extensions>
      </trkpt>
      <trkpt lat="49.85883696936070919036865234375" lon="6.88616939820349216461181640625">
        <ele>215</ele>
        <time>2026-04-22T10:57:01.000Z</time>
        <extensions>
          <ns3:TrackPointExtension>
            <ns3:hr>125</ns3:hr>
            <ns3:cad>44</ns3:cad>
          </ns3:TrackPointExtension>
        </extensions>
      </trkpt>
      <trkpt lat="49.8588456027209758758544921875" lon="6.88623569905757904052734375">
        <ele>215.1999969482421875</ele>
        <time>2026-04-22T10:57:06.000Z</time>
        <extensions>
          <ns3:TrackPointExtension>
            <ns3:hr>126</ns3:hr>
            <ns3:cad>44</ns3:cad>
          </ns3:TrackPointExtension>
        </extensions>
      </trkpt>
      <trkpt lat="49.8588751070201396942138671875" lon="6.8862636946141719818115234375">
        <ele>215.399993896484375</ele>
        <time>2026-04-22T10:57:11.000Z</time>
        <extensions>
          <ns3:TrackPointExtension>
            <ns3:hr>125</ns3:hr>
            <ns3:cad>0</ns3:cad>
          </ns3:TrackPointExtension>
        </extensions>
      </trkpt>
      <trkpt lat="49.85889949835836887359619140625" lon="6.88635908067226409912109375">
        <ele>216</ele>
        <time>2026-04-22T10:57:19.000Z</time>
        <extensions>
          <ns3:TrackPointExtension>
            <ns3:hr>125</ns3:hr>
            <ns3:cad>0</ns3:cad>
          </ns3:TrackPointExtension>
        </extensions>
      </trkpt>
      <trkpt lat="49.8588985763490200042724609375" lon="6.88639738596975803375244140625">
        <ele>216.1999969482421875</ele>
        <time>2026-04-22T10:57:21.000Z</time>
        <extensions>
          <ns3:TrackPointExtension>
            <ns3:hr>125</ns3:hr>
            <ns3:cad>0</ns3:cad>
          </ns3:TrackPointExtension>
        </extensions>
      </trkpt>
      <trkpt lat="49.8588972352445125579833984375" lon="6.88641817308962345123291015625">
        <ele>216.8000030517578125</ele>
        <time>2026-04-22T10:57:26.000Z</time>
        <extensions>
          <ns3:TrackPointExtension>
            <ns3:hr>125</ns3:hr>
            <ns3:cad>42</ns3:cad>
          </ns3:TrackPointExtension>
        </extensions>
      </trkpt>
      <trkpt lat="49.8588828183710575103759765625" lon="6.8863874115049839019775390625">
        <ele>217.1999969482421875</ele>
        <time>2026-04-22T10:57:31.000Z</time>
        <extensions>
          <ns3:TrackPointExtension>
            <ns3:hr>126</ns3:hr>
            <ns3:cad>44</ns3:cad>
          </ns3:TrackPointExtension>
        </extensions>
      </trkpt>
      <trkpt lat="49.85888038761913776397705078125" lon="6.8863683007657527923583984375">
        <ele>217.399993896484375</ele>
        <time>2026-04-22T10:57:33.000Z</time>
        <extensions>
          <ns3:TrackPointExtension>
            <ns3:hr>127</ns3:hr>
            <ns3:cad>0</ns3:cad>
          </ns3:TrackPointExtension>
        </extensions>
      </trkpt>
      <trkpt lat="49.85885054804384708404541015625" lon="6.88627836294472217559814453125">
        <ele>217.8000030517578125</ele>
        <time>2026-04-22T10:57:38.000Z</time>
        <extensions>
          <ns3:TrackPointExtension>
            <ns3:hr>127</ns3:hr>
            <ns3:cad>41</ns3:cad>
          </ns3:TrackPointExtension>
        </extensions>
      </trkpt>
      <trkpt lat="49.85886412672698497772216796875" lon="6.88626520335674285888671875">
        <ele>218.399993896484375</ele>
        <time>2026-04-22T10:57:43.000Z</time>
        <extensions>
          <ns3:TrackPointExtension>
            <ns3:hr>127</ns3:hr>
            <ns3:cad>0</ns3:cad>
          </ns3:TrackPointExtension>
        </extensions>
      </trkpt>
      <trkpt lat="49.85886999405920505523681640625" lon="6.8862526305019855499267578125">
        <ele>218.600006103515625</ele>
        <time>2026-04-22T10:57:45.000Z</time>
        <extensions>
          <ns3:TrackPointExtension>
            <ns3:hr>128</ns3:hr>
            <ns3:cad>78</ns3:cad>
          </ns3:TrackPointExtension>
        </extensions>
      </trkpt>
      <trkpt lat="49.858845770359039306640625" lon="6.88617325387895107269287109375">
        <ele>219.399993896484375</ele>
        <time>2026-04-22T10:57:53.000Z</time>
        <extensions>
          <ns3:TrackPointExtension>
            <ns3:hr>128</ns3:hr>
            <ns3:cad>0</ns3:cad>
          </ns3:TrackPointExtension>
        </extensions>
      </trkpt>
      <trkpt lat="49.858840405941009521484375" lon="6.8861134909093379974365234375">
        <ele>220</ele>
        <time>2026-04-22T10:58:00.000Z</time>
        <extensions>
          <ns3:TrackPointExtension>
            <ns3:hr>128</ns3:hr>
            <ns3:cad>0</ns3:cad>
          </ns3:TrackPointExtension>
        </extensions>
      </trkpt>
      <trkpt lat="49.85882724635303020477294921875" lon="6.88610158860683441162109375">
        <ele>220.600006103515625</ele>
        <time>2026-04-22T10:58:04.000Z</time>
        <extensions>
          <ns3:TrackPointExtension>
            <ns3:hr>130</ns3:hr>
            <ns3:cad>0</ns3:cad>
          </ns3:TrackPointExtension>
        </extensions>
      </trkpt>
      <trkpt lat="49.85882892273366451263427734375" lon="6.8860896863043308258056640625">
        <ele>220.600006103515625</ele>
        <time>2026-04-22T10:58:05.000Z</time>
        <extensions>
          <ns3:TrackPointExtension>
            <ns3:hr>130</ns3:hr>
            <ns3:cad>0</ns3:cad>
          </ns3:TrackPointExtension>
        </extensions>
      </trkpt>
      <trkpt lat="49.8588388971984386444091796875" lon="6.885995306074619293212890625">
        <ele>221.399993896484375</ele>
        <time>2026-04-22T10:58:12.000Z</time>
        <extensions>
          <ns3:TrackPointExtension>
            <ns3:hr>130</ns3:hr>
            <ns3:cad>40</ns3:cad>
          </ns3:TrackPointExtension>
        </extensions>
      </trkpt>
      <trkpt lat="49.8588566668331623077392578125" lon="6.88591274432837963104248046875">
        <ele>221.600006103515625</ele>
        <time>2026-04-22T10:58:17.000Z</time>
        <extensions>
          <ns3:TrackPointExtension>
            <ns3:hr>129</ns3:hr>
            <ns3:cad>40</ns3:cad>
          </ns3:TrackPointExtension>
        </extensions>
      </trkpt>
      <trkpt lat="49.8588583432137966156005859375" lon="6.885887682437896728515625">
        <ele>221.600006103515625</ele>
        <time>2026-04-22T10:58:19.000Z</time>
        <extensions>
          <ns3:TrackPointExtension>
            <ns3:hr>129</ns3:hr>
            <ns3:cad>41</ns3:cad>
          </ns3:TrackPointExtension>
        </extensions>
      </trkpt>
      <trkpt lat="49.858849458396434783935546875" lon="6.8858206272125244140625">
        <ele>222.1999969482421875</ele>
        <time>2026-04-22T10:58:24.000Z</time>
        <extensions>
          <ns3:TrackPointExtension>
            <ns3:hr>129</ns3:hr>
            <ns3:cad>41</ns3:cad>
          </ns3:TrackPointExtension>
        </extensions>
      </trkpt>
      <trkpt lat="49.85885004512965679168701171875" lon="6.885810904204845428466796875">
        <ele>222.399993896484375</ele>
        <time>2026-04-22T10:58:26.000Z</time>
        <extensions>
          <ns3:TrackPointExtension>
            <ns3:hr>130</ns3:hr>
            <ns3:cad>0</ns3:cad>
          </ns3:TrackPointExtension>
        </extensions>
      </trkpt>
      <trkpt lat="49.85885239206254482269287109375" lon="6.88578777015209197998046875">
        <ele>222.600006103515625</ele>
        <time>2026-04-22T10:58:28.000Z</time>
        <extensions>
          <ns3:TrackPointExtension>
            <ns3:hr>130</ns3:hr>
            <ns3:cad>0</ns3:cad>
          </ns3:TrackPointExtension>
        </extensions>
      </trkpt>
      <trkpt lat="49.85885725356638431549072265625" lon="6.88570520840585231781005859375">
        <ele>223.1999969482421875</ele>
        <time>2026-04-22T10:58:34.000Z</time>
        <extensions>
          <ns3:TrackPointExtension>
            <ns3:hr>130</ns3:hr>
            <ns3:cad>0</ns3:cad>
          </ns3:TrackPointExtension>
        </extensions>
      </trkpt>
      <trkpt lat="49.8588392324745655059814453125" lon="6.88560915179550647735595703125">
        <ele>223.399993896484375</ele>
        <time>2026-04-22T10:58:43.000Z</time>
        <extensions>
          <ns3:TrackPointExtension>
            <ns3:hr>129</ns3:hr>
            <ns3:cad>42</ns3:cad>
          </ns3:TrackPointExtension>
        </extensions>
      </trkpt>
      <trkpt lat="49.8588342033326625823974609375" lon="6.88559875823557376861572265625">
        <ele>223.399993896484375</ele>
        <time>2026-04-22T10:58:44.000Z</time>
        <extensions>
          <ns3:TrackPointExtension>
            <ns3:hr>129</ns3:hr>
            <ns3:cad>44</ns3:cad>
          </ns3:TrackPointExtension>
        </extensions>
      </trkpt>
      <trkpt lat="49.85884367488324642181396484375" lon="6.8855123408138751983642578125">
        <ele>223.399993896484375</ele>
        <time>2026-04-22T10:58:49.000Z</time>
        <extensions>
          <ns3:TrackPointExtension>
            <ns3:hr>129</ns3:hr>
            <ns3:cad>44</ns3:cad>
          </ns3:TrackPointExtension>
        </extensions>
      </trkpt>
      <trkpt lat="49.85879816114902496337890625" lon="6.88540161587297916412353515625">
        <ele>223.399993896484375</ele>
        <time>2026-04-22T10:58:57.000Z</time>
        <extensions>
          <ns3:TrackPointExtension>
            <ns3:hr>128</ns3:hr>
            <ns3:cad>46</ns3:cad>
          </ns3:TrackPointExtension>
        </extensions>
      </trkpt>
      <trkpt lat="49.8587993346154689788818359375" lon="6.88537311740219593048095703125">
        <ele>223.600006103515625</ele>
        <time>2026-04-22T10:58:58.000Z</time>
        <extensions>
          <ns3:TrackPointExtension>
            <ns3:hr>128</ns3:hr>
            <ns3:cad>46</ns3:cad>
          </ns3:TrackPointExtension>
        </extensions>
      </trkpt>
      <trkpt lat="49.85884216614067554473876953125" lon="6.88525669276714324951171875">
        <ele>223.600006103515625</ele>
        <time>2026-04-22T10:59:05.000Z</time>
        <extensions>
          <ns3:TrackPointExtension>
            <ns3:hr>126</ns3:hr>
            <ns3:cad>44</ns3:cad>
          </ns3:TrackPointExtension>
        </extensions>
      </trkpt>
      <trkpt lat="49.858856834471225738525390625" lon="6.885096766054630279541015625">
        <ele>224.1999969482421875</ele>
        <time>2026-04-22T10:59:14.000Z</time>
        <extensions>
          <ns3:TrackPointExtension>
            <ns3:hr>126</ns3:hr>
            <ns3:cad>49</ns3:cad>
          </ns3:TrackPointExtension>
        </extensions>
      </trkpt>
      <trkpt lat="49.8588717542588710784912109375" lon="6.88505955040454864501953125">
        <ele>224.1999969482421875</ele>
        <time>2026-04-22T10:59:17.000Z</time>
        <extensions>
          <ns3:TrackPointExtension>
            <ns3:hr>126</ns3:hr>
            <ns3:cad>45</ns3:cad>
          </ns3:TrackPointExtension>
        </extensions>
      </trkpt>
      <trkpt lat="49.8588831536471843719482421875" lon="6.88499978743493556976318359375">
        <ele>224.399993896484375</ele>
        <time>2026-04-22T10:59:21.000Z</time>
        <extensions>
          <ns3:TrackPointExtension>
            <ns3:hr>126</ns3:hr>
            <ns3:cad>45</ns3:cad>
          </ns3:TrackPointExtension>
        </extensions>
      </trkpt>
      <trkpt lat="49.8588995821774005889892578125" lon="6.88487355597317218780517578125">
        <ele>224.600006103515625</ele>
        <time>2026-04-22T10:59:30.000Z</time>
        <extensions>
          <ns3:TrackPointExtension>
            <ns3:hr>125</ns3:hr>
            <ns3:cad>44</ns3:cad>
          </ns3:TrackPointExtension>
        </extensions>
      </trkpt>
      <trkpt lat="49.85890142619609832763671875" lon="6.88485461287200450897216796875">
        <ele>224.600006103515625</ele>
        <time>2026-04-22T10:59:32.000Z</time>
        <extensions>
          <ns3:TrackPointExtension>
            <ns3:hr>124</ns3:hr>
            <ns3:cad>44</ns3:cad>
          </ns3:TrackPointExtension>
        </extensions>
      </trkpt>
      <trkpt lat="49.85890301875770092010498046875" lon="6.884771548211574554443359375">
        <ele>225.1999969482421875</ele>
        <time>2026-04-22T10:59:39.000Z</time>
        <extensions>
          <ns3:TrackPointExtension>
            <ns3:hr>125</ns3:hr>
            <ns3:cad>0</ns3:cad>
          </ns3:TrackPointExtension>
        </extensions>
      </trkpt>
      <trkpt lat="49.8589076288044452667236328125" lon="6.88467473722994327545166015625">
        <ele>225.600006103515625</ele>
        <time>2026-04-22T10:59:45.000Z</time>
        <extensions>
          <ns3:TrackPointExtension>
            <ns3:hr>125</ns3:hr>
            <ns3:cad>0</ns3:cad>
          </ns3:TrackPointExtension>
        </extensions>
      </trkpt>
      <trkpt lat="49.85890855081379413604736328125" lon="6.88466333784162998199462890625">
        <ele>225.8000030517578125</ele>
        <time>2026-04-22T10:59:46.000Z</time>
        <extensions>
          <ns3:TrackPointExtension>
            <ns3:hr>125</ns3:hr>
            <ns3:cad>43</ns3:cad>
          </ns3:TrackPointExtension>
        </extensions>
      </trkpt>
      <trkpt lat="49.85891617834568023681640625" lon="6.88459008000791072845458984375">
        <ele>226.1999969482421875</ele>
        <time>2026-04-22T10:59:52.000Z</time>
        <extensions>
          <ns3:TrackPointExtension>
            <ns3:hr>125</ns3:hr>
            <ns3:cad>42</ns3:cad>
          </ns3:TrackPointExtension>
        </extensions>
      </trkpt>
      <trkpt lat="49.858929254114627838134765625" lon="6.88449955545365810394287109375">
        <ele>226.8000030517578125</ele>
        <time>2026-04-22T10:59:57.000Z</time>
        <extensions>
          <ns3:TrackPointExtension>
            <ns3:hr>125</ns3:hr>
            <ns3:cad>0</ns3:cad>
          </ns3:TrackPointExtension>
        </extensions>
      </trkpt>
      <trkpt lat="49.85893285833299160003662109375" lon="6.8844471685588359832763671875">
        <ele>227</ele>
        <time>2026-04-22T11:00:00.000Z</time>
        <extensions>
          <ns3:TrackPointExtension>
            <ns3:hr>125</ns3:hr>
            <ns3:cad>0</ns3:cad>
          </ns3:TrackPointExtension>
        </extensions>
      </trkpt>
      <trkpt lat="49.85893872566521167755126953125" lon="6.88441640697419643402099609375">
        <ele>227.1999969482421875</ele>
        <time>2026-04-22T11:00:06.000Z</time>
        <extensions>
          <ns3:TrackPointExtension>
            <ns3:hr>125</ns3:hr>
            <ns3:cad>0</ns3:cad>
          </ns3:TrackPointExtension>
        </extensions>
      </trkpt>
      <trkpt lat="49.85894459299743175506591796875" lon="6.884400062263011932373046875">
        <ele>227.399993896484375</ele>
        <time>2026-04-22T11:00:11.000Z</time>
        <extensions>
          <ns3:TrackPointExtension>
            <ns3:hr>125</ns3:hr>
            <ns3:cad>0</ns3:cad>
          </ns3:TrackPointExtension>
        </extensions>
      </trkpt>
      <trkpt lat="49.8589542321860790252685546875" lon="6.88430928625166416168212890625">
        <ele>227.8000030517578125</ele>
        <time>2026-04-22T11:00:16.000Z</time>
        <extensions>
          <ns3:TrackPointExtension>
            <ns3:hr>125</ns3:hr>
            <ns3:cad>0</ns3:cad>
          </ns3:TrackPointExtension>
        </extensions>
      </trkpt>
      <trkpt lat="49.85895884223282337188720703125" lon="6.8842952884733676910400390625">
        <ele>228</ele>
        <time>2026-04-22T11:00:17.000Z</time>
        <extensions>
          <ns3:TrackPointExtension>
            <ns3:hr>125</ns3:hr>
            <ns3:cad>0</ns3:cad>
          </ns3:TrackPointExtension>
        </extensions>
      </trkpt>
      <trkpt lat="49.8590132407844066619873046875" lon="6.8841665424406528472900390625">
        <ele>228.8000030517578125</ele>
        <time>2026-04-22T11:00:27.000Z</time>
        <extensions>
          <ns3:TrackPointExtension>
            <ns3:hr>127</ns3:hr>
            <ns3:cad>0</ns3:cad>
          </ns3:TrackPointExtension>
        </extensions>
      </trkpt>
      <trkpt lat="49.85903444699943065643310546875" lon="6.88403687439858913421630859375">
        <ele>229.600006103515625</ele>
        <time>2026-04-22T11:00:38.000Z</time>
        <extensions>
          <ns3:TrackPointExtension>
            <ns3:hr>127</ns3:hr>
            <ns3:cad>0</ns3:cad>
          </ns3:TrackPointExtension>
        </extensions>
      </trkpt>
      <trkpt lat="49.85904249362647533416748046875" lon="6.88396763987839221954345703125">
        <ele>230</ele>
        <time>2026-04-22T11:00:44.000Z</time>
        <extensions>
          <ns3:TrackPointExtension>
            <ns3:hr>127</ns3:hr>
            <ns3:cad>0</ns3:cad>
          </ns3:TrackPointExtension>
        </extensions>
      </trkpt>
      <trkpt lat="49.859058000147342681884765625" lon="6.883903183043003082275390625">
        <ele>230.399993896484375</ele>
        <time>2026-04-22T11:00:49.000Z</time>
        <extensions>
          <ns3:TrackPointExtension>
            <ns3:hr>127</ns3:hr>
            <ns3:cad>0</ns3:cad>
          </ns3:TrackPointExtension>
        </extensions>
      </trkpt>
      <trkpt lat="49.8590739257633686065673828125" lon="6.88381458632647991180419921875">
        <ele>231</ele>
        <time>2026-04-22T11:00:56.000Z</time>
        <extensions>
          <ns3:TrackPointExtension>
            <ns3:hr>127</ns3:hr>
            <ns3:cad>0</ns3:cad>
          </ns3:TrackPointExtension>
        </extensions>
      </trkpt>
      <trkpt lat="49.85907442867755889892578125" lon="6.88380989246070384979248046875">
        <ele>231.1999969482421875</ele>
        <time>2026-04-22T11:00:58.000Z</time>
        <extensions>
          <ns3:TrackPointExtension>
            <ns3:hr>126</ns3:hr>
            <ns3:cad>0</ns3:cad>
          </ns3:TrackPointExtension>
        </extensions>
      </trkpt>
      <trkpt lat="49.8590831458568572998046875" lon="6.883753649890422821044921875">
        <ele>231.399993896484375</ele>
        <time>2026-04-22T11:01:07.000Z</time>
        <extensions>
          <ns3:TrackPointExtension>
            <ns3:hr>126</ns3:hr>
            <ns3:cad>0</ns3:cad>
          </ns3:TrackPointExtension>
        </extensions>
      </trkpt>
      <trkpt lat="49.85909328795969486236572265625" lon="6.8836790509521961212158203125">
        <ele>231.8000030517578125</ele>
        <time>2026-04-22T11:01:13.000Z</time>
        <extensions>
          <ns3:TrackPointExtension>
            <ns3:hr>128</ns3:hr>
            <ns3:cad>79</ns3:cad>
          </ns3:TrackPointExtension>
        </extensions>
      </trkpt>
      <trkpt lat="49.8591064475476741790771484375" lon="6.8836163543164730072021484375">
        <ele>232.1999969482421875</ele>
        <time>2026-04-22T11:01:19.000Z</time>
        <extensions>
          <ns3:TrackPointExtension>
            <ns3:hr>128</ns3:hr>
            <ns3:cad>42</ns3:cad>
          </ns3:TrackPointExtension>
        </extensions>
      </trkpt>
      <trkpt lat="49.85914022661745548248291015625" lon="6.88351820223033428192138671875">
        <ele>232.8000030517578125</ele>
        <time>2026-04-22T11:01:28.000Z</time>
        <extensions>
          <ns3:TrackPointExtension>
            <ns3:hr>128</ns3:hr>
            <ns3:cad>41</ns3:cad>
          </ns3:TrackPointExtension>
        </extensions>
      </trkpt>
      <trkpt lat="49.8591610975563526153564453125" lon="6.88345299102365970611572265625">
        <ele>233.1999969482421875</ele>
        <time>2026-04-22T11:01:33.000Z</time>
        <extensions>
          <ns3:TrackPointExtension>
            <ns3:hr>129</ns3:hr>
            <ns3:cad>42</ns3:cad>
          </ns3:TrackPointExtension>
        </extensions>
      </trkpt>
      <trkpt lat="49.85916637815535068511962890625" lon="6.883420385420322418212890625">
        <ele>233.399993896484375</ele>
        <time>2026-04-22T11:01:36.000Z</time>
        <extensions>
          <ns3:TrackPointExtension>
            <ns3:hr>128</ns3:hr>
            <ns3:cad>42</ns3:cad>
          </ns3:TrackPointExtension>
        </extensions>
      </trkpt>
      <trkpt lat="49.85918498598039150238037109375" lon="6.88333882950246334075927734375">
        <ele>234</ele>
        <time>2026-04-22T11:01:44.000Z</time>
        <extensions>
          <ns3:TrackPointExtension>
            <ns3:hr>128</ns3:hr>
            <ns3:cad>41</ns3:cad>
          </ns3:TrackPointExtension>
        </extensions>
      </trkpt>
      <trkpt lat="49.8591932840645313262939453125" lon="6.88331452198326587677001953125">
        <ele>234.1999969482421875</ele>
        <time>2026-04-22T11:01:47.000Z</time>
        <extensions>
          <ns3:TrackPointExtension>
            <ns3:hr>128</ns3:hr>
            <ns3:cad>0</ns3:cad>
          </ns3:TrackPointExtension>
        </extensions>
      </trkpt>
      <trkpt lat="49.8591993190348148345947265625" lon="6.8832683376967906951904296875">
        <ele>234.399993896484375</ele>
        <time>2026-04-22T11:01:50.000Z</time>
        <extensions>
          <ns3:TrackPointExtension>
            <ns3:hr>128</ns3:hr>
            <ns3:cad>0</ns3:cad>
          </ns3:TrackPointExtension>
        </extensions>
      </trkpt>
      <trkpt lat="49.8592211119830608367919921875" lon="6.88319382257759571075439453125">
        <ele>235.1999969482421875</ele>
        <time>2026-04-22T11:01:57.000Z</time>
        <extensions>
          <ns3:TrackPointExtension>
            <ns3:hr>128</ns3:hr>
            <ns3:cad>41</ns3:cad>
          </ns3:TrackPointExtension>
        </extensions>
      </trkpt>
      <trkpt lat="49.85922387801110744476318359375" lon="6.88318376429378986358642578125">
        <ele>235.1999969482421875</ele>
        <time>2026-04-22T11:01:58.000Z</time>
        <extensions>
          <ns3:TrackPointExtension>
            <ns3:hr>128</ns3:hr>
            <ns3:cad>41</ns3:cad>
          </ns3:TrackPointExtension>
        </extensions>
      </trkpt>
      <trkpt lat="49.85924751497805118560791015625" lon="6.883111931383609771728515625">
        <ele>236</ele>
        <time>2026-04-22T11:02:06.000Z</time>
        <extensions>
          <ns3:TrackPointExtension>
            <ns3:hr>129</ns3:hr>
            <ns3:cad>0</ns3:cad>
          </ns3:TrackPointExtension>
        </extensions>
      </trkpt>
      <trkpt lat="49.85925371758639812469482421875" lon="6.8830698542296886444091796875">
        <ele>236.1999969482421875</ele>
        <time>2026-04-22T11:02:09.000Z</time>
        <extensions>
          <ns3:TrackPointExtension>
            <ns3:hr>128</ns3:hr>
            <ns3:cad>41</ns3:cad>
          </ns3:TrackPointExtension>
        </extensions>
      </trkpt>
      <trkpt lat="49.85926394350826740264892578125" lon="6.88300405628979206085205078125">
        <ele>236.8000030517578125</ele>
        <time>2026-04-22T11:02:14.000Z</time>
        <extensions>
          <ns3:TrackPointExtension>
            <ns3:hr>129</ns3:hr>
            <ns3:cad>42</ns3:cad>
          </ns3:TrackPointExtension>
        </extensions>
      </trkpt>
      <trkpt lat="49.8592663742601871490478515625" lon="6.8829652480781078338623046875">
        <ele>237.399993896484375</ele>
        <time>2026-04-22T11:02:17.000Z</time>
        <extensions>
          <ns3:TrackPointExtension>
            <ns3:hr>129</ns3:hr>
            <ns3:cad>41</ns3:cad>
          </ns3:TrackPointExtension>
        </extensions>
      </trkpt>
      <trkpt lat="49.85926947556436061859130859375" lon="6.882925517857074737548828125">
        <ele>238.399993896484375</ele>
        <time>2026-04-22T11:02:22.000Z</time>
        <extensions>
          <ns3:TrackPointExtension>
            <ns3:hr>129</ns3:hr>
            <ns3:cad>0</ns3:cad>
          </ns3:TrackPointExtension>
        </extensions>
      </trkpt>
      <trkpt lat="49.85927048139274120330810546875" lon="6.88292794860899448394775390625">
        <ele>238.399993896484375</ele>
        <time>2026-04-22T11:02:23.000Z</time>
        <extensions>
          <ns3:TrackPointExtension>
            <ns3:hr>129</ns3:hr>
            <ns3:cad>0</ns3:cad>
          </ns3:TrackPointExtension>
        </extensions>
      </trkpt>
      <trkpt lat="49.8592655360698699951171875" lon="6.88291487284004688262939453125">
        <ele>238</ele>
        <time>2026-04-22T11:02:29.000Z</time>
        <extensions>
          <ns3:TrackPointExtension>
            <ns3:hr>128</ns3:hr>
            <ns3:cad>0</ns3:cad>
          </ns3:TrackPointExtension>
        </extensions>
      </trkpt>
      <trkpt lat="49.8592673800885677337646484375" lon="6.88292224891483783721923828125">
        <ele>237.399993896484375</ele>
        <time>2026-04-22T11:02:35.000Z</time>
        <extensions>
          <ns3:TrackPointExtension>
            <ns3:hr>127</ns3:hr>
            <ns3:cad>0</ns3:cad>
          </ns3:TrackPointExtension>
        </extensions>
      </trkpt>
      <trkpt lat="49.8592667095363140106201171875" lon="6.88291906379163265228271484375">
        <ele>237.1999969482421875</ele>
        <time>2026-04-22T11:02:44.000Z</time>
        <extensions>
          <ns3:TrackPointExtension>
            <ns3:hr>126</ns3:hr>
            <ns3:cad>0</ns3:cad>
          </ns3:TrackPointExtension>
        </extensions>
      </trkpt>
      <trkpt lat="49.85927693545818328857421875" lon="6.88279266469180583953857421875">
        <ele>237.399993896484375</ele>
        <time>2026-04-22T11:03:13.000Z</time>
        <extensions>
          <ns3:TrackPointExtension>
            <ns3:hr>125</ns3:hr>
            <ns3:cad>0</ns3:cad>
          </ns3:TrackPointExtension>
        </extensions>
      </trkpt>
      <trkpt lat="49.8593092896044254302978515625" lon="6.88268219120800495147705078125">
        <ele>238.1999969482421875</ele>
        <time>2026-04-22T11:03:21.000Z</time>
        <extensions>
          <ns3:TrackPointExtension>
            <ns3:hr>124</ns3:hr>
            <ns3:cad>0</ns3:cad>
          </ns3:TrackPointExtension>
        </extensions>
      </trkpt>
      <trkpt lat="49.85930778086185455322265625" lon="6.88265386037528514862060546875">
        <ele>238.399993896484375</ele>
        <time>2026-04-22T11:03:23.000Z</time>
        <extensions>
          <ns3:TrackPointExtension>
            <ns3:hr>124</ns3:hr>
            <ns3:cad>0</ns3:cad>
          </ns3:TrackPointExtension>
        </extensions>
      </trkpt>
      <trkpt lat="49.8593166656792163848876953125" lon="6.88262544572353363037109375">
        <ele>238.8000030517578125</ele>
        <time>2026-04-22T11:03:26.000Z</time>
        <extensions>
          <ns3:TrackPointExtension>
            <ns3:hr>124</ns3:hr>
            <ns3:cad>0</ns3:cad>
          </ns3:TrackPointExtension>
        </extensions>
      </trkpt>
      <trkpt lat="49.8593180067837238311767578125" lon="6.8825756572186946868896484375">
        <ele>239.399993896484375</ele>
        <time>2026-04-22T11:03:32.000Z</time>
        <extensions>
          <ns3:TrackPointExtension>
            <ns3:hr>124</ns3:hr>
            <ns3:cad>0</ns3:cad>
          </ns3:TrackPointExtension>
        </extensions>
      </trkpt>
      <trkpt lat="49.85932529903948307037353515625" lon="6.88256182707846164703369140625">
        <ele>239.600006103515625</ele>
        <time>2026-04-22T11:03:34.000Z</time>
        <extensions>
          <ns3:TrackPointExtension>
            <ns3:hr>125</ns3:hr>
            <ns3:cad>0</ns3:cad>
          </ns3:TrackPointExtension>
        </extensions>
      </trkpt>
      <trkpt lat="49.85933971591293811798095703125" lon="6.8824764154851436614990234375">
        <ele>240.399993896484375</ele>
        <time>2026-04-22T11:03:42.000Z</time>
        <extensions>
          <ns3:TrackPointExtension>
            <ns3:hr>123</ns3:hr>
            <ns3:cad>43</ns3:cad>
          </ns3:TrackPointExtension>
        </extensions>
      </trkpt>
      <trkpt lat="49.8593354411423206329345703125" lon="6.88245085068047046661376953125">
        <ele>240.399993896484375</ele>
        <time>2026-04-22T11:03:44.000Z</time>
        <extensions>
          <ns3:TrackPointExtension>
            <ns3:hr>122</ns3:hr>
            <ns3:cad>43</ns3:cad>
          </ns3:TrackPointExtension>
        </extensions>
      </trkpt>
      <trkpt lat="49.85933016054332256317138671875" lon="6.8823889084160327911376953125">
        <ele>241</ele>
        <time>2026-04-22T11:03:49.000Z</time>
        <extensions>
          <ns3:TrackPointExtension>
            <ns3:hr>124</ns3:hr>
            <ns3:cad>44</ns3:cad>
          </ns3:TrackPointExtension>
        </extensions>
      </trkpt>
      <trkpt lat="49.8593139834702014923095703125" lon="6.88230902887880802154541015625">
        <ele>241.399993896484375</ele>
        <time>2026-04-22T11:03:57.000Z</time>
        <extensions>
          <ns3:TrackPointExtension>
            <ns3:hr>126</ns3:hr>
            <ns3:cad>43</ns3:cad>
          </ns3:TrackPointExtension>
        </extensions>
      </trkpt>
      <trkpt lat="49.85931389965116977691650390625" lon="6.88229327090084552764892578125">
        <ele>241.399993896484375</ele>
        <time>2026-04-22T11:03:58.000Z</time>
        <extensions>
          <ns3:TrackPointExtension>
            <ns3:hr>126</ns3:hr>
            <ns3:cad>0</ns3:cad>
          </ns3:TrackPointExtension>
        </extensions>
      </trkpt>
      <trkpt lat="49.85932043753564357757568359375" lon="6.88220174051821231842041015625">
        <ele>242.1999969482421875</ele>
        <time>2026-04-22T11:04:05.000Z</time>
        <extensions>
          <ns3:TrackPointExtension>
            <ns3:hr>125</ns3:hr>
            <ns3:cad>43</ns3:cad>
          </ns3:TrackPointExtension>
        </extensions>
      </trkpt>
      <trkpt lat="49.85932362265884876251220703125" lon="6.88215765170753002166748046875">
        <ele>242.600006103515625</ele>
        <time>2026-04-22T11:04:08.000Z</time>
        <extensions>
          <ns3:TrackPointExtension>
            <ns3:hr>126</ns3:hr>
            <ns3:cad>44</ns3:cad>
          </ns3:TrackPointExtension>
        </extensions>
      </trkpt>
      <trkpt lat="49.859328903257846832275390625" lon="6.8820680491626262664794921875">
        <ele>243.399993896484375</ele>
        <time>2026-04-22T11:04:15.000Z</time>
        <extensions>
          <ns3:TrackPointExtension>
            <ns3:hr>125</ns3:hr>
            <ns3:cad>42</ns3:cad>
          </ns3:TrackPointExtension>
        </extensions>
      </trkpt>
      <trkpt lat="49.8593287356197834014892578125" lon="6.88205153681337833404541015625">
        <ele>243.399993896484375</ele>
        <time>2026-04-22T11:04:16.000Z</time>
        <extensions>
          <ns3:TrackPointExtension>
            <ns3:hr>125</ns3:hr>
            <ns3:cad>42</ns3:cad>
          </ns3:TrackPointExtension>
        </extensions>
      </trkpt>
      <trkpt lat="49.85932664014399051666259765625" lon="6.88203862868249416351318359375">
        <ele>243.600006103515625</ele>
        <time>2026-04-22T11:04:17.000Z</time>
        <extensions>
          <ns3:TrackPointExtension>
            <ns3:hr>125</ns3:hr>
            <ns3:cad>42</ns3:cad>
          </ns3:TrackPointExtension>
        </extensions>
      </trkpt>
      <trkpt lat="49.8593277297914028167724609375" lon="6.8820043466985225677490234375">
        <ele>244</ele>
        <time>2026-04-22T11:04:20.000Z</time>
        <extensions>
          <ns3:TrackPointExtension>
            <ns3:hr>126</ns3:hr>
            <ns3:cad>0</ns3:cad>
          </ns3:TrackPointExtension>
        </extensions>
      </trkpt>
      <trkpt lat="49.859322868287563323974609375" lon="6.8819148279726505279541015625">
        <ele>244.399993896484375</ele>
        <time>2026-04-22T11:04:27.000Z</time>
        <extensions>
          <ns3:TrackPointExtension>
            <ns3:hr>129</ns3:hr>
            <ns3:cad>0</ns3:cad>
          </ns3:TrackPointExtension>
        </extensions>
      </trkpt>
      <trkpt lat="49.8593233712017536163330078125" lon="6.88187987543642520904541015625">
        <ele>244.8000030517578125</ele>
        <time>2026-04-22T11:04:30.000Z</time>
        <extensions>
          <ns3:TrackPointExtension>
            <ns3:hr>129</ns3:hr>
            <ns3:cad>0</ns3:cad>
          </ns3:TrackPointExtension>
        </extensions>
      </trkpt>
      <trkpt lat="49.85932932235300540924072265625" lon="6.8818067014217376708984375">
        <ele>245.1999969482421875</ele>
        <time>2026-04-22T11:04:36.000Z</time>
        <extensions>
          <ns3:TrackPointExtension>
            <ns3:hr>130</ns3:hr>
            <ns3:cad>43</ns3:cad>
          </ns3:TrackPointExtension>
        </extensions>
      </trkpt>
      <trkpt lat="49.85933049581944942474365234375" lon="6.881736628711223602294921875">
        <ele>245.8000030517578125</ele>
        <time>2026-04-22T11:04:42.000Z</time>
        <extensions>
          <ns3:TrackPointExtension>
            <ns3:hr>130</ns3:hr>
            <ns3:cad>41</ns3:cad>
          </ns3:TrackPointExtension>
        </extensions>
      </trkpt>
      <trkpt lat="49.85933250747621059417724609375" lon="6.8817237205803394317626953125">
        <ele>245.8000030517578125</ele>
        <time>2026-04-22T11:04:43.000Z</time>
        <extensions>
          <ns3:TrackPointExtension>
            <ns3:hr>130</ns3:hr>
            <ns3:cad>41</ns3:cad>
          </ns3:TrackPointExtension>
        </extensions>
      </trkpt>
      <trkpt lat="49.8593391291797161102294921875" lon="6.88164534978568553924560546875">
        <ele>246.399993896484375</ele>
        <time>2026-04-22T11:04:49.000Z</time>
        <extensions>
          <ns3:TrackPointExtension>
            <ns3:hr>131</ns3:hr>
            <ns3:cad>43</ns3:cad>
          </ns3:TrackPointExtension>
        </extensions>
      </trkpt>
      <trkpt lat="49.85933887772262096405029296875" lon="6.88160310499370098114013671875">
        <ele>246.8000030517578125</ele>
        <time>2026-04-22T11:04:53.000Z</time>
        <extensions>
          <ns3:TrackPointExtension>
            <ns3:hr>131</ns3:hr>
            <ns3:cad>43</ns3:cad>
          </ns3:TrackPointExtension>
        </extensions>
      </trkpt>
      <trkpt lat="49.85933250747621059417724609375" lon="6.88156052492558956146240234375">
        <ele>247.1999969482421875</ele>
        <time>2026-04-22T11:04:57.000Z</time>
        <extensions>
          <ns3:TrackPointExtension>
            <ns3:hr>131</ns3:hr>
            <ns3:cad>43</ns3:cad>
          </ns3:TrackPointExtension>
        </extensions>
      </trkpt>
      <trkpt lat="49.859324209392070770263671875" lon="6.881469748914241790771484375">
        <ele>247.600006103515625</ele>
        <time>2026-04-22T11:05:03.000Z</time>
        <extensions>
          <ns3:TrackPointExtension>
            <ns3:hr>132</ns3:hr>
            <ns3:cad>0</ns3:cad>
          </ns3:TrackPointExtension>
        </extensions>
      </trkpt>
      <trkpt lat="49.85931742005050182342529296875" lon="6.8814558349549770355224609375">
        <ele>247.8000030517578125</ele>
        <time>2026-04-22T11:05:04.000Z</time>
        <extensions>
          <ns3:TrackPointExtension>
            <ns3:hr>132</ns3:hr>
            <ns3:cad>0</ns3:cad>
          </ns3:TrackPointExtension>
        </extensions>
      </trkpt>
      <trkpt lat="49.85931046307086944580078125" lon="6.88143479637801647186279296875">
        <ele>247.8000030517578125</ele>
        <time>2026-04-22T11:05:06.000Z</time>
        <extensions>
          <ns3:TrackPointExtension>
            <ns3:hr>132</ns3:hr>
            <ns3:cad>0</ns3:cad>
          </ns3:TrackPointExtension>
        </extensions>
      </trkpt>
      <trkpt lat="49.85929973423480987548828125" lon="6.881398670375347137451171875">
        <ele>248.1999969482421875</ele>
        <time>2026-04-22T11:05:10.000Z</time>
        <extensions>
          <ns3:TrackPointExtension>
            <ns3:hr>133</ns3:hr>
            <ns3:cad>0</ns3:cad>
          </ns3:TrackPointExtension>
        </extensions>
      </trkpt>
      <trkpt lat="49.859314151108264923095703125" lon="6.88133756630122661590576171875">
        <ele>248.8000030517578125</ele>
        <time>2026-04-22T11:05:15.000Z</time>
        <extensions>
          <ns3:TrackPointExtension>
            <ns3:hr>132</ns3:hr>
            <ns3:cad>44</ns3:cad>
          </ns3:TrackPointExtension>
        </extensions>
      </trkpt>
      <trkpt lat="49.85931205563247203826904296875" lon="6.88132314942777156829833984375">
        <ele>249</ele>
        <time>2026-04-22T11:05:16.000Z</time>
        <extensions>
          <ns3:TrackPointExtension>
            <ns3:hr>132</ns3:hr>
            <ns3:cad>43</ns3:cad>
          </ns3:TrackPointExtension>
        </extensions>
      </trkpt>
      <trkpt lat="49.85930979251861572265625" lon="6.88131376169621944427490234375">
        <ele>249.1999969482421875</ele>
        <time>2026-04-22T11:05:17.000Z</time>
        <extensions>
          <ns3:TrackPointExtension>
            <ns3:hr>132</ns3:hr>
            <ns3:cad>43</ns3:cad>
          </ns3:TrackPointExtension>
        </extensions>
      </trkpt>
      <trkpt lat="49.85929244197905063629150390625" lon="6.881235726177692413330078125">
        <ele>249.8000030517578125</ele>
        <time>2026-04-22T11:05:22.000Z</time>
        <extensions>
          <ns3:TrackPointExtension>
            <ns3:hr>132</ns3:hr>
            <ns3:cad>44</ns3:cad>
          </ns3:TrackPointExtension>
        </extensions>
      </trkpt>
      <trkpt lat="49.85929302871227264404296875" lon="6.8812198005616664886474609375">
        <ele>249.8000030517578125</ele>
        <time>2026-04-22T11:05:23.000Z</time>
        <extensions>
          <ns3:TrackPointExtension>
            <ns3:hr>132</ns3:hr>
            <ns3:cad>44</ns3:cad>
          </ns3:TrackPointExtension>
        </extensions>
      </trkpt>
      <trkpt lat="49.859296381473541259765625" lon="6.8811441957950592041015625">
        <ele>250.399993896484375</ele>
        <time>2026-04-22T11:05:29.000Z</time>
        <extensions>
          <ns3:TrackPointExtension>
            <ns3:hr>132</ns3:hr>
            <ns3:cad>44</ns3:cad>
          </ns3:TrackPointExtension>
        </extensions>
      </trkpt>
      <trkpt lat="49.85930099152028560638427734375" lon="6.8810508213937282562255859375">
        <ele>250.8000030517578125</ele>
        <time>2026-04-22T11:05:37.000Z</time>
        <extensions>
          <ns3:TrackPointExtension>
            <ns3:hr>132</ns3:hr>
            <ns3:cad>44</ns3:cad>
          </ns3:TrackPointExtension>
        </extensions>
      </trkpt>
      <trkpt lat="49.859304763376712799072265625" lon="6.8810444511473178863525390625">
        <ele>250.8000030517578125</ele>
        <time>2026-04-22T11:05:38.000Z</time>
        <extensions>
          <ns3:TrackPointExtension>
            <ns3:hr>132</ns3:hr>
            <ns3:cad>44</ns3:cad>
          </ns3:TrackPointExtension>
        </extensions>
      </trkpt>
      <trkpt lat="49.85930752940475940704345703125" lon="6.8809834308922290802001953125">
        <ele>251.399993896484375</ele>
        <time>2026-04-22T11:05:43.000Z</time>
        <extensions>
          <ns3:TrackPointExtension>
            <ns3:hr>131</ns3:hr>
            <ns3:cad>0</ns3:cad>
          </ns3:TrackPointExtension>
        </extensions>
      </trkpt>
      <trkpt lat="49.85931825824081897735595703125" lon="6.88089676201343536376953125">
        <ele>252</ele>
        <time>2026-04-22T11:05:48.000Z</time>
        <extensions>
          <ns3:TrackPointExtension>
            <ns3:hr>132</ns3:hr>
            <ns3:cad>46</ns3:cad>
          </ns3:TrackPointExtension>
        </extensions>
      </trkpt>
      <trkpt lat="49.859318844974040985107421875" lon="6.88084236346185207366943359375">
        <ele>252.1999969482421875</ele>
        <time>2026-04-22T11:05:51.000Z</time>
        <extensions>
          <ns3:TrackPointExtension>
            <ns3:hr>131</ns3:hr>
            <ns3:cad>0</ns3:cad>
          </ns3:TrackPointExtension>
        </extensions>
      </trkpt>
      <trkpt lat="49.85936217941343784332275390625" lon="6.880662739276885986328125">
        <ele>252.399993896484375</ele>
        <time>2026-04-22T11:06:01.000Z</time>
        <extensions>
          <ns3:TrackPointExtension>
            <ns3:hr>131</ns3:hr>
            <ns3:cad>48</ns3:cad>
          </ns3:TrackPointExtension>
        </extensions>
      </trkpt>
      <trkpt lat="49.8593750037252902984619140625" lon="6.88056609593331813812255859375">
        <ele>253</ele>
        <time>2026-04-22T11:06:09.000Z</time>
        <extensions>
          <ns3:TrackPointExtension>
            <ns3:hr>131</ns3:hr>
            <ns3:cad>0</ns3:cad>
          </ns3:TrackPointExtension>
        </extensions>
      </trkpt>
      <trkpt lat="49.8593733273446559906005859375" lon="6.88054681755602359771728515625">
        <ele>253</ele>
        <time>2026-04-22T11:06:10.000Z</time>
        <extensions>
          <ns3:TrackPointExtension>
            <ns3:hr>131</ns3:hr>
            <ns3:cad>0</ns3:cad>
          </ns3:TrackPointExtension>
        </extensions>
      </trkpt>
      <trkpt lat="49.859371818602085113525390625" lon="6.88047523610293865203857421875">
        <ele>254</ele>
        <time>2026-04-22T11:06:17.000Z</time>
        <extensions>
          <ns3:TrackPointExtension>
            <ns3:hr>130</ns3:hr>
            <ns3:cad>40</ns3:cad>
          </ns3:TrackPointExtension>
        </extensions>
      </trkpt>
      <trkpt lat="49.8593817092478275299072265625" lon="6.88045713119208812713623046875">
        <ele>254</ele>
        <time>2026-04-22T11:06:18.000Z</time>
        <extensions>
          <ns3:TrackPointExtension>
            <ns3:hr>131</ns3:hr>
            <ns3:cad>41</ns3:cad>
          </ns3:TrackPointExtension>
        </extensions>
      </trkpt>
      <trkpt lat="49.85941414721310138702392578125" lon="6.88037716783583164215087890625">
        <ele>254.8000030517578125</ele>
        <time>2026-04-22T11:06:26.000Z</time>
        <extensions>
          <ns3:TrackPointExtension>
            <ns3:hr>131</ns3:hr>
            <ns3:cad>0</ns3:cad>
          </ns3:TrackPointExtension>
        </extensions>
      </trkpt>
      <trkpt lat="49.8594249598681926727294921875" lon="6.88033710233867168426513671875">
        <ele>255</ele>
        <time>2026-04-22T11:06:30.000Z</time>
        <extensions>
          <ns3:TrackPointExtension>
            <ns3:hr>131</ns3:hr>
            <ns3:cad>43</ns3:cad>
          </ns3:TrackPointExtension>
        </extensions>
      </trkpt>
      <trkpt lat="49.85943107865750789642333984375" lon="6.88031514175236225128173828125">
        <ele>255.399993896484375</ele>
        <time>2026-04-22T11:06:34.000Z</time>
        <extensions>
          <ns3:TrackPointExtension>
            <ns3:hr>131</ns3:hr>
            <ns3:cad>45</ns3:cad>
          </ns3:TrackPointExtension>
        </extensions>
      </trkpt>
      <trkpt lat="49.8594387061893939971923828125" lon="6.8802119605243206024169921875">
        <ele>256</ele>
        <time>2026-04-22T11:06:41.000Z</time>
        <extensions>
          <ns3:TrackPointExtension>
            <ns3:hr>131</ns3:hr>
            <ns3:cad>79</ns3:cad>
          </ns3:TrackPointExtension>
        </extensions>
      </trkpt>
      <trkpt lat="49.85944147221744060516357421875" lon="6.88010492362082004547119140625">
        <ele>256.600006103515625</ele>
        <time>2026-04-22T11:06:49.000Z</time>
        <extensions>
          <ns3:TrackPointExtension>
            <ns3:hr>132</ns3:hr>
            <ns3:cad>41</ns3:cad>
          </ns3:TrackPointExtension>
        </extensions>
      </trkpt>
      <trkpt lat="49.85941146500408649444580078125" lon="6.88001699745655059814453125">
        <ele>257</ele>
        <time>2026-04-22T11:06:56.000Z</time>
        <extensions>
          <ns3:TrackPointExtension>
            <ns3:hr>132</ns3:hr>
            <ns3:cad>41</ns3:cad>
          </ns3:TrackPointExtension>
        </extensions>
      </trkpt>
      <trkpt lat="49.859395287930965423583984375" lon="6.87997818924486637115478515625">
        <ele>257.399993896484375</ele>
        <time>2026-04-22T11:06:59.000Z</time>
        <extensions>
          <ns3:TrackPointExtension>
            <ns3:hr>132</ns3:hr>
            <ns3:cad>41</ns3:cad>
          </ns3:TrackPointExtension>
        </extensions>
      </trkpt>
      <trkpt lat="49.8594206012785434722900390625" lon="6.87984533607959747314453125">
        <ele>258</ele>
        <time>2026-04-22T11:07:10.000Z</time>
        <extensions>
          <ns3:TrackPointExtension>
            <ns3:hr>131</ns3:hr>
            <ns3:cad>44</ns3:cad>
          </ns3:TrackPointExtension>
        </extensions>
      </trkpt>
      <trkpt lat="49.85942445695400238037109375" lon="6.87981977127492427825927734375">
        <ele>258.20001220703125</ele>
        <time>2026-04-22T11:07:11.000Z</time>
        <extensions>
          <ns3:TrackPointExtension>
            <ns3:hr>131</ns3:hr>
            <ns3:cad>44</ns3:cad>
          </ns3:TrackPointExtension>
        </extensions>
      </trkpt>
      <trkpt lat="49.859374500811100006103515625" lon="6.87969421036541461944580078125">
        <ele>258.600006103515625</ele>
        <time>2026-04-22T11:07:19.000Z</time>
        <extensions>
          <ns3:TrackPointExtension>
            <ns3:hr>131</ns3:hr>
            <ns3:cad>44</ns3:cad>
          </ns3:TrackPointExtension>
        </extensions>
      </trkpt>
      <trkpt lat="49.8593662865459918975830078125" lon="6.87968180514872074127197265625">
        <ele>258.600006103515625</ele>
        <time>2026-04-22T11:07:20.000Z</time>
        <extensions>
          <ns3:TrackPointExtension>
            <ns3:hr>131</ns3:hr>
            <ns3:cad>43</ns3:cad>
          </ns3:TrackPointExtension>
        </extensions>
      </trkpt>
      <trkpt lat="49.85931993462145328521728515625" lon="6.879580132663249969482421875">
        <ele>259.20001220703125</ele>
        <time>2026-04-22T11:07:27.000Z</time>
        <extensions>
          <ns3:TrackPointExtension>
            <ns3:hr>130</ns3:hr>
            <ns3:cad>45</ns3:cad>
          </ns3:TrackPointExtension>
        </extensions>
      </trkpt>
      <trkpt lat="49.85932094044983386993408203125" lon="6.87956370413303375244140625">
        <ele>259.20001220703125</ele>
        <time>2026-04-22T11:07:28.000Z</time>
        <extensions>
          <ns3:TrackPointExtension>
            <ns3:hr>130</ns3:hr>
            <ns3:cad>45</ns3:cad>
          </ns3:TrackPointExtension>
        </extensions>
      </trkpt>
      <trkpt lat="49.85929177142679691314697265625" lon="6.87942800112068653106689453125">
        <ele>259.600006103515625</ele>
        <time>2026-04-22T11:07:34.000Z</time>
        <extensions>
          <ns3:TrackPointExtension>
            <ns3:hr>130</ns3:hr>
            <ns3:cad>45</ns3:cad>
          </ns3:TrackPointExtension>
        </extensions>
      </trkpt>
      <trkpt lat="49.8592918552458286285400390625" lon="6.87937988899648189544677734375">
        <ele>259.79998779296875</ele>
        <time>2026-04-22T11:07:38.000Z</time>
        <extensions>
          <ns3:TrackPointExtension>
            <ns3:hr>130</ns3:hr>
            <ns3:cad>44</ns3:cad>
          </ns3:TrackPointExtension>
        </extensions>
      </trkpt>
      <trkpt lat="49.85929168760776519775390625" lon="6.87937620095908641815185546875">
        <ele>259.79998779296875</ele>
        <time>2026-04-22T11:07:40.000Z</time>
        <extensions>
          <ns3:TrackPointExtension>
            <ns3:hr>130</ns3:hr>
            <ns3:cad>44</ns3:cad>
          </ns3:TrackPointExtension>
        </extensions>
      </trkpt>
      <trkpt lat="49.85929730348289012908935546875" lon="6.879347451031208038330078125">
        <ele>260</ele>
        <time>2026-04-22T11:07:46.000Z</time>
        <extensions>
          <ns3:TrackPointExtension>
            <ns3:hr>130</ns3:hr>
            <ns3:cad>0</ns3:cad>
          </ns3:TrackPointExtension>
        </extensions>
      </trkpt>
      <trkpt lat="49.85929545946419239044189453125" lon="6.87936144880950450897216796875">
        <ele>259.79998779296875</ele>
        <time>2026-04-22T11:07:54.000Z</time>
        <extensions>
          <ns3:TrackPointExtension>
            <ns3:hr>130</ns3:hr>
            <ns3:cad>0</ns3:cad>
          </ns3:TrackPointExtension>
        </extensions>
      </trkpt>
      <trkpt lat="49.85928372479975223541259765625" lon="6.87932875938713550567626953125">
        <ele>259.600006103515625</ele>
        <time>2026-04-22T11:08:05.000Z</time>
        <extensions>
          <ns3:TrackPointExtension>
            <ns3:hr>129</ns3:hr>
            <ns3:cad>0</ns3:cad>
          </ns3:TrackPointExtension>
        </extensions>
      </trkpt>
      <trkpt lat="49.85926042310893535614013671875" lon="6.87924108467996120452880859375">
        <ele>259.600006103515625</ele>
        <time>2026-04-22T11:08:11.000Z</time>
        <extensions>
          <ns3:TrackPointExtension>
            <ns3:hr>129</ns3:hr>
            <ns3:cad>0</ns3:cad>
          </ns3:TrackPointExtension>
        </extensions>
      </trkpt>
      <trkpt lat="49.859269894659519195556640625" lon="6.8791719339787960052490234375">
        <ele>260</ele>
        <time>2026-04-22T11:08:17.000Z</time>
        <extensions>
          <ns3:TrackPointExtension>
            <ns3:hr>128</ns3:hr>
            <ns3:cad>0</ns3:cad>
          </ns3:TrackPointExtension>
        </extensions>
      </trkpt>
      <trkpt lat="49.8592653684318065643310546875" lon="6.8791159428656101226806640625">
        <ele>260.20001220703125</ele>
        <time>2026-04-22T11:08:21.000Z</time>
        <extensions>
          <ns3:TrackPointExtension>
            <ns3:hr>127</ns3:hr>
            <ns3:cad>0</ns3:cad>
          </ns3:TrackPointExtension>
        </extensions>
      </trkpt>
      <trkpt lat="49.85926109366118907928466796875" lon="6.8790535815060138702392578125">
        <ele>260.600006103515625</ele>
        <time>2026-04-22T11:08:26.000Z</time>
        <extensions>
          <ns3:TrackPointExtension>
            <ns3:hr>126</ns3:hr>
            <ns3:cad>0</ns3:cad>
          </ns3:TrackPointExtension>
        </extensions>
      </trkpt>
      <trkpt lat="49.85926352441310882568359375" lon="6.8789747916162014007568359375">
        <ele>261</ele>
        <time>2026-04-22T11:08:31.000Z</time>
        <extensions>
          <ns3:TrackPointExtension>
            <ns3:hr>125</ns3:hr>
            <ns3:cad>0</ns3:cad>
          </ns3:TrackPointExtension>
        </extensions>
      </trkpt>
      <trkpt lat="49.85925958491861820220947265625" lon="6.87893874943256378173828125">
        <ele>261.399993896484375</ele>
        <time>2026-04-22T11:08:33.000Z</time>
        <extensions>
          <ns3:TrackPointExtension>
            <ns3:hr>126</ns3:hr>
            <ns3:cad>0</ns3:cad>
          </ns3:TrackPointExtension>
        </extensions>
      </trkpt>
      <trkpt lat="49.85925388522446155548095703125" lon="6.8788574449717998504638671875">
        <ele>262</ele>
        <time>2026-04-22T11:08:39.000Z</time>
        <extensions>
          <ns3:TrackPointExtension>
            <ns3:hr>125</ns3:hr>
            <ns3:cad>44</ns3:cad>
          </ns3:TrackPointExtension>
        </extensions>
      </trkpt>
      <trkpt lat="49.85923527739942073822021484375" lon="6.878774799406528472900390625">
        <ele>262.399993896484375</ele>
        <time>2026-04-22T11:08:45.000Z</time>
        <extensions>
          <ns3:TrackPointExtension>
            <ns3:hr>125</ns3:hr>
            <ns3:cad>0</ns3:cad>
          </ns3:TrackPointExtension>
        </extensions>
      </trkpt>
      <trkpt lat="49.85923963598906993865966796875" lon="6.87876365147531032562255859375">
        <ele>262.399993896484375</ele>
        <time>2026-04-22T11:08:46.000Z</time>
        <extensions>
          <ns3:TrackPointExtension>
            <ns3:hr>125</ns3:hr>
            <ns3:cad>0</ns3:cad>
          </ns3:TrackPointExtension>
        </extensions>
      </trkpt>
      <trkpt lat="49.85923645086586475372314453125" lon="6.87867589294910430908203125">
        <ele>263.399993896484375</ele>
        <time>2026-04-22T11:08:54.000Z</time>
        <extensions>
          <ns3:TrackPointExtension>
            <ns3:hr>126</ns3:hr>
            <ns3:cad>0</ns3:cad>
          </ns3:TrackPointExtension>
        </extensions>
      </trkpt>
      <trkpt lat="49.859239049255847930908203125" lon="6.87857992015779018402099609375">
        <ele>264.600006103515625</ele>
        <time>2026-04-22T11:09:00.000Z</time>
        <extensions>
          <ns3:TrackPointExtension>
            <ns3:hr>126</ns3:hr>
            <ns3:cad>0</ns3:cad>
          </ns3:TrackPointExtension>
        </extensions>
      </trkpt>
      <trkpt lat="49.8592284880578517913818359375" lon="6.87854580581188201904296875">
        <ele>265</ele>
        <time>2026-04-22T11:09:02.000Z</time>
        <extensions>
          <ns3:TrackPointExtension>
            <ns3:hr>126</ns3:hr>
            <ns3:cad>0</ns3:cad>
          </ns3:TrackPointExtension>
        </extensions>
      </trkpt>
      <trkpt lat="49.859226979315280914306640625" lon="6.878501884639263153076171875">
        <ele>265.79998779296875</ele>
        <time>2026-04-22T11:09:05.000Z</time>
        <extensions>
          <ns3:TrackPointExtension>
            <ns3:hr>127</ns3:hr>
            <ns3:cad>0</ns3:cad>
          </ns3:TrackPointExtension>
        </extensions>
      </trkpt>
      <trkpt lat="49.85922639258205890655517578125" lon="6.8784919939935207366943359375">
        <ele>266.20001220703125</ele>
        <time>2026-04-22T11:09:07.000Z</time>
        <extensions>
          <ns3:TrackPointExtension>
            <ns3:hr>127</ns3:hr>
            <ns3:cad>0</ns3:cad>
          </ns3:TrackPointExtension>
        </extensions>
      </trkpt>
      <trkpt lat="49.85922002233564853668212890625" lon="6.87844798900187015533447265625">
        <ele>267</ele>
        <time>2026-04-22T11:09:11.000Z</time>
        <extensions>
          <ns3:TrackPointExtension>
            <ns3:hr>127</ns3:hr>
            <ns3:cad>0</ns3:cad>
          </ns3:TrackPointExtension>
        </extensions>
      </trkpt>
      <trkpt lat="49.85920879058539867401123046875" lon="6.8784460611641407012939453125">
        <ele>267.20001220703125</ele>
        <time>2026-04-22T11:09:12.000Z</time>
        <extensions>
          <ns3:TrackPointExtension>
            <ns3:hr>127</ns3:hr>
            <ns3:cad>0</ns3:cad>
          </ns3:TrackPointExtension>
        </extensions>
      </trkpt>
      <trkpt lat="49.85919739119708538055419921875" lon="6.87833349220454692840576171875">
        <ele>268</ele>
        <time>2026-04-22T11:09:19.000Z</time>
        <extensions>
          <ns3:TrackPointExtension>
            <ns3:hr>129</ns3:hr>
            <ns3:cad>0</ns3:cad>
          </ns3:TrackPointExtension>
        </extensions>
      </trkpt>
      <trkpt lat="49.8592013306915760040283203125" lon="6.87831404618918895721435546875">
        <ele>268.20001220703125</ele>
        <time>2026-04-22T11:09:20.000Z</time>
        <extensions>
          <ns3:TrackPointExtension>
            <ns3:hr>129</ns3:hr>
            <ns3:cad>45</ns3:cad>
          </ns3:TrackPointExtension>
        </extensions>
      </trkpt>
      <trkpt lat="49.85918708145618438720703125" lon="6.8782018125057220458984375">
        <ele>268.79998779296875</ele>
        <time>2026-04-22T11:09:27.000Z</time>
        <extensions>
          <ns3:TrackPointExtension>
            <ns3:hr>131</ns3:hr>
            <ns3:cad>0</ns3:cad>
          </ns3:TrackPointExtension>
        </extensions>
      </trkpt>
      <trkpt lat="49.85918213613331317901611328125" lon="6.87813517637550830841064453125">
        <ele>269</ele>
        <time>2026-04-22T11:09:30.000Z</time>
        <extensions>
          <ns3:TrackPointExtension>
            <ns3:hr>130</ns3:hr>
            <ns3:cad>0</ns3:cad>
          </ns3:TrackPointExtension>
        </extensions>
      </trkpt>
      <trkpt lat="49.8591721616685390472412109375" lon="6.87809896655380725860595703125">
        <ele>269.399993896484375</ele>
        <time>2026-04-22T11:09:34.000Z</time>
        <extensions>
          <ns3:TrackPointExtension>
            <ns3:hr>130</ns3:hr>
            <ns3:cad>44</ns3:cad>
          </ns3:TrackPointExtension>
        </extensions>
      </trkpt>
      <trkpt lat="49.85916696488857269287109375" lon="6.87800894491374492645263671875">
        <ele>270.20001220703125</ele>
        <time>2026-04-22T11:09:41.000Z</time>
        <extensions>
          <ns3:TrackPointExtension>
            <ns3:hr>129</ns3:hr>
            <ns3:cad>43</ns3:cad>
          </ns3:TrackPointExtension>
        </extensions>
      </trkpt>
      <trkpt lat="49.85917090438306331634521484375" lon="6.87795178033411502838134765625">
        <ele>270.399993896484375</ele>
        <time>2026-04-22T11:09:43.000Z</time>
        <extensions>
          <ns3:TrackPointExtension>
            <ns3:hr>130</ns3:hr>
            <ns3:cad>43</ns3:cad>
          </ns3:TrackPointExtension>
        </extensions>
      </trkpt>
      <trkpt lat="49.85917073674499988555908203125" lon="6.877870894968509674072265625">
        <ele>271.20001220703125</ele>
        <time>2026-04-22T11:09:50.000Z</time>
        <extensions>
          <ns3:TrackPointExtension>
            <ns3:hr>130</ns3:hr>
            <ns3:cad>44</ns3:cad>
          </ns3:TrackPointExtension>
        </extensions>
      </trkpt>
      <trkpt lat="49.85916939564049243927001953125" lon="6.87786326743662357330322265625">
        <ele>271.20001220703125</ele>
        <time>2026-04-22T11:09:51.000Z</time>
        <extensions>
          <ns3:TrackPointExtension>
            <ns3:hr>130</ns3:hr>
            <ns3:cad>45</ns3:cad>
          </ns3:TrackPointExtension>
        </extensions>
      </trkpt>
      <trkpt lat="49.8591738380491733551025390625" lon="6.87776486389338970184326171875">
        <ele>272.20001220703125</ele>
        <time>2026-04-22T11:09:59.000Z</time>
        <extensions>
          <ns3:TrackPointExtension>
            <ns3:hr>130</ns3:hr>
            <ns3:cad>44</ns3:cad>
          </ns3:TrackPointExtension>
        </extensions>
      </trkpt>
      <trkpt lat="49.859177358448505401611328125" lon="6.8777520395815372467041015625">
        <ele>272.20001220703125</ele>
        <time>2026-04-22T11:10:00.000Z</time>
        <extensions>
          <ns3:TrackPointExtension>
            <ns3:hr>130</ns3:hr>
            <ns3:cad>44</ns3:cad>
          </ns3:TrackPointExtension>
        </extensions>
      </trkpt>
      <trkpt lat="49.8591993190348148345947265625" lon="6.87766897492110729217529296875">
        <ele>273</ele>
        <time>2026-04-22T11:10:07.000Z</time>
        <extensions>
          <ns3:TrackPointExtension>
            <ns3:hr>131</ns3:hr>
            <ns3:cad>75</ns3:cad>
          </ns3:TrackPointExtension>
        </extensions>
      </trkpt>
      <trkpt lat="49.8592006601393222808837890625" lon="6.87762538902461528778076171875">
        <ele>273.399993896484375</ele>
        <time>2026-04-22T11:10:10.000Z</time>
        <extensions>
          <ns3:TrackPointExtension>
            <ns3:hr>131</ns3:hr>
            <ns3:cad>40</ns3:cad>
          </ns3:TrackPointExtension>
        </extensions>
      </trkpt>
      <trkpt lat="49.85918884165585041046142578125" lon="6.87755481339991092681884765625">
        <ele>274</ele>
        <time>2026-04-22T11:10:14.000Z</time>
        <extensions>
          <ns3:TrackPointExtension>
            <ns3:hr>131</ns3:hr>
            <ns3:cad>41</ns3:cad>
          </ns3:TrackPointExtension>
        </extensions>
      </trkpt>
      <trkpt lat="49.8591984808444976806640625" lon="6.87753201462328433990478515625">
        <ele>274.399993896484375</ele>
        <time>2026-04-22T11:10:18.000Z</time>
        <extensions>
          <ns3:TrackPointExtension>
            <ns3:hr>131</ns3:hr>
            <ns3:cad>41</ns3:cad>
          </ns3:TrackPointExtension>
        </extensions>
      </trkpt>
      <trkpt lat="49.85919973812997341156005859375" lon="6.877500750124454498291015625">
        <ele>275</ele>
        <time>2026-04-22T11:10:22.000Z</time>
        <extensions>
          <ns3:TrackPointExtension>
            <ns3:hr>131</ns3:hr>
            <ns3:cad>40</ns3:cad>
          </ns3:TrackPointExtension>
        </extensions>
      </trkpt>
      <trkpt lat="49.8592093773186206817626953125" lon="6.87742271460592746734619140625">
        <ele>275.600006103515625</ele>
        <time>2026-04-22T11:10:28.000Z</time>
        <extensions>
          <ns3:TrackPointExtension>
            <ns3:hr>131</ns3:hr>
            <ns3:cad>41</ns3:cad>
          </ns3:TrackPointExtension>
        </extensions>
      </trkpt>
      <trkpt lat="49.8592291586101055145263671875" lon="6.87732942402362823486328125">
        <ele>276.600006103515625</ele>
        <time>2026-04-22T11:10:36.000Z</time>
        <extensions>
          <ns3:TrackPointExtension>
            <ns3:hr>131</ns3:hr>
            <ns3:cad>41</ns3:cad>
          </ns3:TrackPointExtension>
        </extensions>
      </trkpt>
      <trkpt lat="49.8592261411249637603759765625" lon="6.8773155100643634796142578125">
        <ele>276.79998779296875</ele>
        <time>2026-04-22T11:10:37.000Z</time>
        <extensions>
          <ns3:TrackPointExtension>
            <ns3:hr>131</ns3:hr>
            <ns3:cad>41</ns3:cad>
          </ns3:TrackPointExtension>
        </extensions>
      </trkpt>
      <trkpt lat="49.859224967658519744873046875" lon="6.87723982147872447967529296875">
        <ele>277.600006103515625</ele>
        <time>2026-04-22T11:10:45.000Z</time>
        <extensions>
          <ns3:TrackPointExtension>
            <ns3:hr>132</ns3:hr>
            <ns3:cad>41</ns3:cad>
          </ns3:TrackPointExtension>
        </extensions>
      </trkpt>
      <trkpt lat="49.85925908200442790985107421875" lon="6.87721299938857555389404296875">
        <ele>278.20001220703125</ele>
        <time>2026-04-22T11:10:50.000Z</time>
        <extensions>
          <ns3:TrackPointExtension>
            <ns3:hr>132</ns3:hr>
            <ns3:cad>42</ns3:cad>
          </ns3:TrackPointExtension>
        </extensions>
      </trkpt>
      <trkpt lat="49.8592754267156124114990234375" lon="6.87726094387471675872802734375">
        <ele>278.600006103515625</ele>
        <time>2026-04-22T11:10:54.000Z</time>
        <extensions>
          <ns3:TrackPointExtension>
            <ns3:hr>131</ns3:hr>
            <ns3:cad>42</ns3:cad>
          </ns3:TrackPointExtension>
        </extensions>
      </trkpt>
      <trkpt lat="49.85928171314299106597900390625" lon="6.87728650867938995361328125">
        <ele>278.600006103515625</ele>
        <time>2026-04-22T11:10:56.000Z</time>
        <extensions>
          <ns3:TrackPointExtension>
            <ns3:hr>131</ns3:hr>
            <ns3:cad>42</ns3:cad>
          </ns3:TrackPointExtension>
        </extensions>
      </trkpt>
      <trkpt lat="49.8592918552458286285400390625" lon="6.87729732133448123931884765625">
        <ele>278.79998779296875</ele>
        <time>2026-04-22T11:10:57.000Z</time>
        <extensions>
          <ns3:TrackPointExtension>
            <ns3:hr>131</ns3:hr>
            <ns3:cad>42</ns3:cad>
          </ns3:TrackPointExtension>
        </extensions>
      </trkpt>
      <trkpt lat="49.85933250747621059417724609375" lon="6.87736026942729949951171875">
        <ele>279</ele>
        <time>2026-04-22T11:11:03.000Z</time>
        <extensions>
          <ns3:TrackPointExtension>
            <ns3:hr>132</ns3:hr>
            <ns3:cad>0</ns3:cad>
          </ns3:TrackPointExtension>
        </extensions>
      </trkpt>
      <trkpt lat="49.8593374527990818023681640625" lon="6.87738985754549503326416015625">
        <ele>279.20001220703125</ele>
        <time>2026-04-22T11:11:05.000Z</time>
        <extensions>
          <ns3:TrackPointExtension>
            <ns3:hr>132</ns3:hr>
            <ns3:cad>0</ns3:cad>
          </ns3:TrackPointExtension>
        </extensions>
      </trkpt>
      <trkpt lat="49.85935346223413944244384765625" lon="6.87744752503931522369384765625">
        <ele>279.399993896484375</ele>
        <time>2026-04-22T11:11:09.000Z</time>
        <extensions>
          <ns3:TrackPointExtension>
            <ns3:hr>132</ns3:hr>
            <ns3:cad>45</ns3:cad>
          </ns3:TrackPointExtension>
        </extensions>
      </trkpt>
      <trkpt lat="49.85939470119774341583251953125" lon="6.87750368379056453704833984375">
        <ele>279.600006103515625</ele>
        <time>2026-04-22T11:11:14.000Z</time>
        <extensions>
          <ns3:TrackPointExtension>
            <ns3:hr>132</ns3:hr>
            <ns3:cad>45</ns3:cad>
          </ns3:TrackPointExtension>
        </extensions>
      </trkpt>
      <trkpt lat="49.85941414721310138702392578125" lon="6.87758984975516796112060546875">
        <ele>279.79998779296875</ele>
        <time>2026-04-22T11:11:20.000Z</time>
        <extensions>
          <ns3:TrackPointExtension>
            <ns3:hr>131</ns3:hr>
            <ns3:cad>45</ns3:cad>
          </ns3:TrackPointExtension>
        </extensions>
      </trkpt>
      <trkpt lat="49.859414398670196533203125" lon="6.8776112236082553863525390625">
        <ele>279.79998779296875</ele>
        <time>2026-04-22T11:11:22.000Z</time>
        <extensions>
          <ns3:TrackPointExtension>
            <ns3:hr>132</ns3:hr>
            <ns3:cad>45</ns3:cad>
          </ns3:TrackPointExtension>
        </extensions>
      </trkpt>
      <trkpt lat="49.85944993793964385986328125" lon="6.8776960484683513641357421875">
        <ele>280.600006103515625</ele>
        <time>2026-04-22T11:11:30.000Z</time>
        <extensions>
          <ns3:TrackPointExtension>
            <ns3:hr>131</ns3:hr>
            <ns3:cad>45</ns3:cad>
          </ns3:TrackPointExtension>
        </extensions>
      </trkpt>
      <trkpt lat="49.85946728847920894622802734375" lon="6.87772161327302455902099609375">
        <ele>280.79998779296875</ele>
        <time>2026-04-22T11:11:34.000Z</time>
        <extensions>
          <ns3:TrackPointExtension>
            <ns3:hr>131</ns3:hr>
            <ns3:cad>48</ns3:cad>
          </ns3:TrackPointExtension>
        </extensions>
      </trkpt>
      <trkpt lat="49.8594873212277889251708984375" lon="6.87774994410574436187744140625">
        <ele>281</ele>
        <time>2026-04-22T11:11:38.000Z</time>
        <extensions>
          <ns3:TrackPointExtension>
            <ns3:hr>130</ns3:hr>
            <ns3:cad>47</ns3:cad>
          </ns3:TrackPointExtension>
        </extensions>
      </trkpt>
      <trkpt lat="49.85951104201376438140869140625" lon="6.8778278119862079620361328125">
        <ele>281.20001220703125</ele>
        <time>2026-04-22T11:11:45.000Z</time>
        <extensions>
          <ns3:TrackPointExtension>
            <ns3:hr>129</ns3:hr>
            <ns3:cad>47</ns3:cad>
          </ns3:TrackPointExtension>
        </extensions>
      </trkpt>
      <trkpt lat="49.85954607836902141571044921875" lon="6.87794230878353118896484375">
        <ele>281.600006103515625</ele>
        <time>2026-04-22T11:11:53.000Z</time>
        <extensions>
          <ns3:TrackPointExtension>
            <ns3:hr>129</ns3:hr>
            <ns3:cad>47</ns3:cad>
          </ns3:TrackPointExtension>
        </extensions>
      </trkpt>
      <trkpt lat="49.85958916135132312774658203125" lon="6.87805906869471073150634765625">
        <ele>281.79998779296875</ele>
        <time>2026-04-22T11:12:01.000Z</time>
        <extensions>
          <ns3:TrackPointExtension>
            <ns3:hr>128</ns3:hr>
            <ns3:cad>47</ns3:cad>
          </ns3:TrackPointExtension>
        </extensions>
      </trkpt>
      <trkpt lat="49.85959335230290889739990234375" lon="6.8780718930065631866455078125">
        <ele>281.79998779296875</ele>
        <time>2026-04-22T11:12:02.000Z</time>
        <extensions>
          <ns3:TrackPointExtension>
            <ns3:hr>128</ns3:hr>
            <ns3:cad>47</ns3:cad>
          </ns3:TrackPointExtension>
        </extensions>
      </trkpt>
      <trkpt lat="49.85963559709489345550537109375" lon="6.878162920475006103515625">
        <ele>281.79998779296875</ele>
        <time>2026-04-22T11:12:10.000Z</time>
        <extensions>
          <ns3:TrackPointExtension>
            <ns3:hr>127</ns3:hr>
            <ns3:cad>0</ns3:cad>
          </ns3:TrackPointExtension>
        </extensions>
      </trkpt>
      <trkpt lat="49.85965973697602748870849609375" lon="6.8782023154199123382568359375">
        <ele>281.399993896484375</ele>
        <time>2026-04-22T11:12:18.000Z</time>
        <extensions>
          <ns3:TrackPointExtension>
            <ns3:hr>126</ns3:hr>
            <ns3:cad>0</ns3:cad>
          </ns3:TrackPointExtension>
        </extensions>
      </trkpt>
      <trkpt lat="49.8596673645079135894775390625" lon="6.87821681611239910125732421875">
        <ele>281.399993896484375</ele>
        <time>2026-04-22T11:12:26.000Z</time>
        <extensions>
          <ns3:TrackPointExtension>
            <ns3:hr>125</ns3:hr>
            <ns3:cad>0</ns3:cad>
          </ns3:TrackPointExtension>
        </extensions>
      </trkpt>
      <trkpt lat="49.85966744832694530487060546875" lon="6.8782609887421131134033203125">
        <ele>281.399993896484375</ele>
        <time>2026-04-22T11:12:39.000Z</time>
        <extensions>
          <ns3:TrackPointExtension>
            <ns3:hr>125</ns3:hr>
            <ns3:cad>48</ns3:cad>
          </ns3:TrackPointExtension>
        </extensions>
      </trkpt>
      <trkpt lat="49.8597146384418010711669921875" lon="6.878398619592189788818359375">
        <ele>281.20001220703125</ele>
        <time>2026-04-22T11:12:45.000Z</time>
        <extensions>
          <ns3:TrackPointExtension>
            <ns3:hr>124</ns3:hr>
            <ns3:cad>50</ns3:cad>
          </ns3:TrackPointExtension>
        </extensions>
      </trkpt>
      <trkpt lat="49.8597236908972263336181640625" lon="6.87840976752340793609619140625">
        <ele>281.20001220703125</ele>
        <time>2026-04-22T11:12:46.000Z</time>
        <extensions>
          <ns3:TrackPointExtension>
            <ns3:hr>123</ns3:hr>
            <ns3:cad>50</ns3:cad>
          </ns3:TrackPointExtension>
        </extensions>
      </trkpt>
      <trkpt lat="49.85975914634764194488525390625" lon="6.878370456397533416748046875">
        <ele>281.79998779296875</ele>
        <time>2026-04-22T11:12:53.000Z</time>
        <extensions>
          <ns3:TrackPointExtension>
            <ns3:hr>122</ns3:hr>
            <ns3:cad>48</ns3:cad>
          </ns3:TrackPointExtension>
        </extensions>
      </trkpt>
      <trkpt lat="49.85977071337401866912841796875" lon="6.8783609010279178619384765625">
        <ele>281.79998779296875</ele>
        <time>2026-04-22T11:12:54.000Z</time>
        <extensions>
          <ns3:TrackPointExtension>
            <ns3:hr>121</ns3:hr>
            <ns3:cad>48</ns3:cad>
          </ns3:TrackPointExtension>
        </extensions>
      </trkpt>
      <trkpt lat="49.85982184298336505889892578125" lon="6.8783240206539630889892578125">
        <ele>282.600006103515625</ele>
        <time>2026-04-22T11:13:00.000Z</time>
        <extensions>
          <ns3:TrackPointExtension>
            <ns3:hr>121</ns3:hr>
            <ns3:cad>47</ns3:cad>
          </ns3:TrackPointExtension>
        </extensions>
      </trkpt>
      <trkpt lat="49.85982787795364856719970703125" lon="6.87831404618918895721435546875">
        <ele>282.79998779296875</ele>
        <time>2026-04-22T11:13:02.000Z</time>
        <extensions>
          <ns3:TrackPointExtension>
            <ns3:hr>121</ns3:hr>
            <ns3:cad>47</ns3:cad>
          </ns3:TrackPointExtension>
        </extensions>
      </trkpt>
      <trkpt lat="49.85986744053661823272705078125" lon="6.878265850245952606201171875">
        <ele>283.600006103515625</ele>
        <time>2026-04-22T11:13:08.000Z</time>
        <extensions>
          <ns3:TrackPointExtension>
            <ns3:hr>122</ns3:hr>
            <ns3:cad>43</ns3:cad>
          </ns3:TrackPointExtension>
        </extensions>
      </trkpt>
      <trkpt lat="49.85989912413060665130615234375" lon="6.87824665568768978118896484375">
        <ele>284</ele>
        <time>2026-04-22T11:13:12.000Z</time>
        <extensions>
          <ns3:TrackPointExtension>
            <ns3:hr>123</ns3:hr>
            <ns3:cad>43</ns3:cad>
          </ns3:TrackPointExtension>
        </extensions>
      </trkpt>
      <trkpt lat="49.85993265174329280853271484375" lon="6.8782348372042179107666015625">
        <ele>284.399993896484375</ele>
        <time>2026-04-22T11:13:16.000Z</time>
        <extensions>
          <ns3:TrackPointExtension>
            <ns3:hr>126</ns3:hr>
            <ns3:cad>40</ns3:cad>
          </ns3:TrackPointExtension>
        </extensions>
      </trkpt>
      <trkpt lat="49.85994120128452777862548828125" lon="6.8782286345958709716796875">
        <ele>284.399993896484375</ele>
        <time>2026-04-22T11:13:17.000Z</time>
        <extensions>
          <ns3:TrackPointExtension>
            <ns3:hr>126</ns3:hr>
            <ns3:cad>42</ns3:cad>
          </ns3:TrackPointExtension>
        </extensions>
      </trkpt>
      <trkpt lat="49.85996483825147151947021484375" lon="6.87822134234011173248291015625">
        <ele>284.600006103515625</ele>
        <time>2026-04-22T11:13:20.000Z</time>
        <extensions>
          <ns3:TrackPointExtension>
            <ns3:hr>127</ns3:hr>
            <ns3:cad>42</ns3:cad>
          </ns3:TrackPointExtension>
        </extensions>
      </trkpt>
      <trkpt lat="49.86001244746148586273193359375" lon="6.8782106973230838775634765625">
        <ele>285</ele>
        <time>2026-04-22T11:13:25.000Z</time>
        <extensions>
          <ns3:TrackPointExtension>
            <ns3:hr>126</ns3:hr>
            <ns3:cad>44</ns3:cad>
          </ns3:TrackPointExtension>
        </extensions>
      </trkpt>
      <trkpt lat="49.86002736724913120269775390625" lon="6.87820114195346832275390625">
        <ele>285</ele>
        <time>2026-04-22T11:13:27.000Z</time>
        <extensions>
          <ns3:TrackPointExtension>
            <ns3:hr>125</ns3:hr>
            <ns3:cad>44</ns3:cad>
          </ns3:TrackPointExtension>
        </extensions>
      </trkpt>
      <trkpt lat="49.86012342385947704315185546875" lon="6.8781795166432857513427734375">
        <ele>286</ele>
        <time>2026-04-22T11:13:38.000Z</time>
        <extensions>
          <ns3:TrackPointExtension>
            <ns3:hr>128</ns3:hr>
            <ns3:cad>43</ns3:cad>
          </ns3:TrackPointExtension>
        </extensions>
      </trkpt>
      <trkpt lat="49.8601367510855197906494140625" lon="6.878173649311065673828125">
        <ele>286.20001220703125</ele>
        <time>2026-04-22T11:13:40.000Z</time>
        <extensions>
          <ns3:TrackPointExtension>
            <ns3:hr>128</ns3:hr>
            <ns3:cad>0</ns3:cad>
          </ns3:TrackPointExtension>
        </extensions>
      </trkpt>
      <trkpt lat="49.8601836897432804107666015625" lon="6.8781580589711666107177734375">
        <ele>286.600006103515625</ele>
        <time>2026-04-22T11:13:46.000Z</time>
        <extensions>
          <ns3:TrackPointExtension>
            <ns3:hr>128</ns3:hr>
            <ns3:cad>0</ns3:cad>
          </ns3:TrackPointExtension>
        </extensions>
      </trkpt>
      <trkpt lat="49.86025602556765079498291015625" lon="6.878143139183521270751953125">
        <ele>287</ele>
        <time>2026-04-22T11:13:54.000Z</time>
        <extensions>
          <ns3:TrackPointExtension>
            <ns3:hr>129</ns3:hr>
            <ns3:cad>44</ns3:cad>
          </ns3:TrackPointExtension>
        </extensions>
      </trkpt>
      <trkpt lat="49.860298521816730499267578125" lon="6.87812604010105133056640625">
        <ele>287.399993896484375</ele>
        <time>2026-04-22T11:13:59.000Z</time>
        <extensions>
          <ns3:TrackPointExtension>
            <ns3:hr>129</ns3:hr>
            <ns3:cad>43</ns3:cad>
          </ns3:TrackPointExtension>
        </extensions>
      </trkpt>
      <trkpt lat="49.86034856177866458892822265625" lon="6.8781141377985477447509765625">
        <ele>287.79998779296875</ele>
        <time>2026-04-22T11:14:04.000Z</time>
        <extensions>
          <ns3:TrackPointExtension>
            <ns3:hr>130</ns3:hr>
            <ns3:cad>43</ns3:cad>
          </ns3:TrackPointExtension>
        </extensions>
      </trkpt>
      <trkpt lat="49.86042332835495471954345703125" lon="6.87808714807033538818359375">
        <ele>288.399993896484375</ele>
        <time>2026-04-22T11:14:13.000Z</time>
        <extensions>
          <ns3:TrackPointExtension>
            <ns3:hr>130</ns3:hr>
            <ns3:cad>44</ns3:cad>
          </ns3:TrackPointExtension>
        </extensions>
      </trkpt>
      <trkpt lat="49.86043070442974567413330078125" lon="6.8780876509845256805419921875">
        <ele>288.399993896484375</ele>
        <time>2026-04-22T11:14:14.000Z</time>
        <extensions>
          <ns3:TrackPointExtension>
            <ns3:hr>130</ns3:hr>
            <ns3:cad>44</ns3:cad>
          </ns3:TrackPointExtension>
        </extensions>
      </trkpt>
      <trkpt lat="49.8605047166347503662109375" lon="6.8780635111033916473388671875">
        <ele>289</ele>
        <time>2026-04-22T11:14:23.000Z</time>
        <extensions>
          <ns3:TrackPointExtension>
            <ns3:hr>130</ns3:hr>
            <ns3:cad>43</ns3:cad>
          </ns3:TrackPointExtension>
        </extensions>
      </trkpt>
      <trkpt lat="49.860572777688503265380859375" lon="6.87803476117551326751708984375">
        <ele>289.399993896484375</ele>
        <time>2026-04-22T11:14:31.000Z</time>
        <extensions>
          <ns3:TrackPointExtension>
            <ns3:hr>131</ns3:hr>
            <ns3:cad>44</ns3:cad>
          </ns3:TrackPointExtension>
        </extensions>
      </trkpt>
      <trkpt lat="49.8606413416564464569091796875" lon="6.878015063703060150146484375">
        <ele>289.399993896484375</ele>
        <time>2026-04-22T11:14:38.000Z</time>
        <extensions>
          <ns3:TrackPointExtension>
            <ns3:hr>132</ns3:hr>
            <ns3:cad>44</ns3:cad>
          </ns3:TrackPointExtension>
        </extensions>
      </trkpt>
      <trkpt lat="49.860726334154605865478515625" lon="6.877994947135448455810546875">
        <ele>290.399993896484375</ele>
        <time>2026-04-22T11:14:48.000Z</time>
        <extensions>
          <ns3:TrackPointExtension>
            <ns3:hr>131</ns3:hr>
            <ns3:cad>42</ns3:cad>
          </ns3:TrackPointExtension>
        </extensions>
      </trkpt>
      <trkpt lat="49.86077964305877685546875" lon="6.87797441147267818450927734375">
        <ele>291.20001220703125</ele>
        <time>2026-04-22T11:14:54.000Z</time>
        <extensions>
          <ns3:TrackPointExtension>
            <ns3:hr>131</ns3:hr>
            <ns3:cad>43</ns3:cad>
          </ns3:TrackPointExtension>
        </extensions>
      </trkpt>
      <trkpt lat="49.86082498915493488311767578125" lon="6.8779548816382884979248046875">
        <ele>291.399993896484375</ele>
        <time>2026-04-22T11:14:59.000Z</time>
        <extensions>
          <ns3:TrackPointExtension>
            <ns3:hr>131</ns3:hr>
            <ns3:cad>45</ns3:cad>
          </ns3:TrackPointExtension>
        </extensions>
      </trkpt>
      <trkpt lat="49.86086404882371425628662109375" lon="6.87792277894914150238037109375">
        <ele>291.600006103515625</ele>
        <time>2026-04-22T11:15:04.000Z</time>
        <extensions>
          <ns3:TrackPointExtension>
            <ns3:hr>132</ns3:hr>
            <ns3:cad>46</ns3:cad>
          </ns3:TrackPointExtension>
        </extensions>
      </trkpt>
      <trkpt lat="49.86095063388347625732421875" lon="6.87789310701191425323486328125">
        <ele>292.20001220703125</ele>
        <time>2026-04-22T11:15:14.000Z</time>
        <extensions>
          <ns3:TrackPointExtension>
            <ns3:hr>133</ns3:hr>
            <ns3:cad>46</ns3:cad>
          </ns3:TrackPointExtension>
        </extensions>
      </trkpt>
      <trkpt lat="49.86098273657262325286865234375" lon="6.87787793576717376708984375">
        <ele>292.399993896484375</ele>
        <time>2026-04-22T11:15:18.000Z</time>
        <extensions>
          <ns3:TrackPointExtension>
            <ns3:hr>132</ns3:hr>
            <ns3:cad>45</ns3:cad>
          </ns3:TrackPointExtension>
        </extensions>
      </trkpt>
      <trkpt lat="49.86104811541736125946044921875" lon="6.8778351880609989166259765625">
        <ele>293</ele>
        <time>2026-04-22T11:15:25.000Z</time>
        <extensions>
          <ns3:TrackPointExtension>
            <ns3:hr>132</ns3:hr>
            <ns3:cad>46</ns3:cad>
          </ns3:TrackPointExtension>
        </extensions>
      </trkpt>
      <trkpt lat="49.86109639517962932586669921875" lon="6.8778053484857082366943359375">
        <ele>293.399993896484375</ele>
        <time>2026-04-22T11:15:31.000Z</time>
        <extensions>
          <ns3:TrackPointExtension>
            <ns3:hr>131</ns3:hr>
            <ns3:cad>0</ns3:cad>
          </ns3:TrackPointExtension>
        </extensions>
      </trkpt>
      <trkpt lat="49.86111399717628955841064453125" lon="6.87779621221125125885009765625">
        <ele>293.399993896484375</ele>
        <time>2026-04-22T11:15:33.000Z</time>
        <extensions>
          <ns3:TrackPointExtension>
            <ns3:hr>131</ns3:hr>
            <ns3:cad>0</ns3:cad>
          </ns3:TrackPointExtension>
        </extensions>
      </trkpt>
      <trkpt lat="49.8611724190413951873779296875" lon="6.87777559272944927215576171875">
        <ele>293.600006103515625</ele>
        <time>2026-04-22T11:15:39.000Z</time>
        <extensions>
          <ns3:TrackPointExtension>
            <ns3:hr>131</ns3:hr>
            <ns3:cad>46</ns3:cad>
          </ns3:TrackPointExtension>
        </extensions>
      </trkpt>
      <trkpt lat="49.86118306405842304229736328125" lon="6.87777592800557613372802734375">
        <ele>293.600006103515625</ele>
        <time>2026-04-22T11:15:40.000Z</time>
        <extensions>
          <ns3:TrackPointExtension>
            <ns3:hr>131</ns3:hr>
            <ns3:cad>44</ns3:cad>
          </ns3:TrackPointExtension>
        </extensions>
      </trkpt>
      <trkpt lat="49.86127040348947048187255859375" lon="6.87774826772511005401611328125">
        <ele>294</ele>
        <time>2026-04-22T11:15:49.000Z</time>
        <extensions>
          <ns3:TrackPointExtension>
            <ns3:hr>131</ns3:hr>
            <ns3:cad>44</ns3:cad>
          </ns3:TrackPointExtension>
        </extensions>
      </trkpt>
      <trkpt lat="49.86127593554556369781494140625" lon="6.8777463398873805999755859375">
        <ele>294.20001220703125</ele>
        <time>2026-04-22T11:15:50.000Z</time>
        <extensions>
          <ns3:TrackPointExtension>
            <ns3:hr>131</ns3:hr>
            <ns3:cad>44</ns3:cad>
          </ns3:TrackPointExtension>
        </extensions>
      </trkpt>
      <trkpt lat="49.86129504628479480743408203125" lon="6.8777349404990673065185546875">
        <ele>294.600006103515625</ele>
        <time>2026-04-22T11:15:52.000Z</time>
        <extensions>
          <ns3:TrackPointExtension>
            <ns3:hr>131</ns3:hr>
            <ns3:cad>46</ns3:cad>
          </ns3:TrackPointExtension>
        </extensions>
      </trkpt>
      <trkpt lat="49.86132857389748096466064453125" lon="6.8777054361999034881591796875">
        <ele>295.20001220703125</ele>
        <time>2026-04-22T11:15:56.000Z</time>
        <extensions>
          <ns3:TrackPointExtension>
            <ns3:hr>130</ns3:hr>
            <ns3:cad>46</ns3:cad>
          </ns3:TrackPointExtension>
        </extensions>
      </trkpt>
      <trkpt lat="49.8613397218286991119384765625" lon="6.8777014128863811492919921875">
        <ele>295.399993896484375</ele>
        <time>2026-04-22T11:15:57.000Z</time>
        <extensions>
          <ns3:TrackPointExtension>
            <ns3:hr>130</ns3:hr>
            <ns3:cad>47</ns3:cad>
          </ns3:TrackPointExtension>
        </extensions>
      </trkpt>
      <trkpt lat="49.86137417145073413848876953125" lon="6.8776856549084186553955078125">
        <ele>295.79998779296875</ele>
        <time>2026-04-22T11:16:01.000Z</time>
        <extensions>
          <ns3:TrackPointExtension>
            <ns3:hr>131</ns3:hr>
            <ns3:cad>46</ns3:cad>
          </ns3:TrackPointExtension>
        </extensions>
      </trkpt>
      <trkpt lat="49.86140929162502288818359375" lon="6.87765556387603282928466796875">
        <ele>296.20001220703125</ele>
        <time>2026-04-22T11:16:05.000Z</time>
        <extensions>
          <ns3:TrackPointExtension>
            <ns3:hr>131</ns3:hr>
            <ns3:cad>45</ns3:cad>
          </ns3:TrackPointExtension>
        </extensions>
      </trkpt>
      <trkpt lat="49.86149420030415058135986328125" lon="6.877580545842647552490234375">
        <ele>296.600006103515625</ele>
        <time>2026-04-22T11:16:16.000Z</time>
        <extensions>
          <ns3:TrackPointExtension>
            <ns3:hr>131</ns3:hr>
            <ns3:cad>46</ns3:cad>
          </ns3:TrackPointExtension>
        </extensions>
      </trkpt>
      <trkpt lat="49.861511886119842529296875" lon="6.87756009399890899658203125">
        <ele>296.79998779296875</ele>
        <time>2026-04-22T11:16:19.000Z</time>
        <extensions>
          <ns3:TrackPointExtension>
            <ns3:hr>131</ns3:hr>
            <ns3:cad>46</ns3:cad>
          </ns3:TrackPointExtension>
        </extensions>
      </trkpt>
      <trkpt lat="49.86154935322701930999755859375" lon="6.87753804959356784820556640625">
        <ele>296.79998779296875</ele>
        <time>2026-04-22T11:16:23.000Z</time>
        <extensions>
          <ns3:TrackPointExtension>
            <ns3:hr>131</ns3:hr>
            <ns3:cad>47</ns3:cad>
          </ns3:TrackPointExtension>
        </extensions>
      </trkpt>
      <trkpt lat="49.86161406151950359344482421875" lon="6.87749396078288555145263671875">
        <ele>297.20001220703125</ele>
        <time>2026-04-22T11:16:30.000Z</time>
        <extensions>
          <ns3:TrackPointExtension>
            <ns3:hr>130</ns3:hr>
            <ns3:cad>49</ns3:cad>
          </ns3:TrackPointExtension>
        </extensions>
      </trkpt>
      <trkpt lat="49.8616297356784343719482421875" lon="6.8774683959782123565673828125">
        <ele>297.600006103515625</ele>
        <time>2026-04-22T11:16:33.000Z</time>
        <extensions>
          <ns3:TrackPointExtension>
            <ns3:hr>131</ns3:hr>
            <ns3:cad>46</ns3:cad>
          </ns3:TrackPointExtension>
        </extensions>
      </trkpt>
      <trkpt lat="49.86165161244571208953857421875" lon="6.877451799809932708740234375">
        <ele>297.79998779296875</ele>
        <time>2026-04-22T11:16:36.000Z</time>
        <extensions>
          <ns3:TrackPointExtension>
            <ns3:hr>130</ns3:hr>
            <ns3:cad>48</ns3:cad>
          </ns3:TrackPointExtension>
        </extensions>
      </trkpt>
      <trkpt lat="49.8616605810821056365966796875" lon="6.8774543143808841705322265625">
        <ele>298</ele>
        <time>2026-04-22T11:16:37.000Z</time>
        <extensions>
          <ns3:TrackPointExtension>
            <ns3:hr>130</ns3:hr>
            <ns3:cad>48</ns3:cad>
          </ns3:TrackPointExtension>
        </extensions>
      </trkpt>
      <trkpt lat="49.8616709746420383453369140625" lon="6.87747962772846221923828125">
        <ele>298</ele>
        <time>2026-04-22T11:16:41.000Z</time>
        <extensions>
          <ns3:TrackPointExtension>
            <ns3:hr>130</ns3:hr>
            <ns3:cad>0</ns3:cad>
          </ns3:TrackPointExtension>
        </extensions>
      </trkpt>
      <trkpt lat="49.86167348921298980712890625" lon="6.8774734251201152801513671875">
        <ele>298</ele>
        <time>2026-04-22T11:16:47.000Z</time>
        <extensions>
          <ns3:TrackPointExtension>
            <ns3:hr>131</ns3:hr>
            <ns3:cad>0</ns3:cad>
          </ns3:TrackPointExtension>
        </extensions>
      </trkpt>
      <trkpt lat="49.861701317131519317626953125" lon="6.877420283854007720947265625">
        <ele>298</ele>
        <time>2026-04-22T11:16:54.000Z</time>
        <extensions>
          <ns3:TrackPointExtension>
            <ns3:hr>129</ns3:hr>
            <ns3:cad>0</ns3:cad>
          </ns3:TrackPointExtension>
        </extensions>
      </trkpt>
      <trkpt lat="49.861699976027011871337890625" lon="6.87734710983932018280029296875">
        <ele>298</ele>
        <time>2026-04-22T11:17:01.000Z</time>
        <extensions>
          <ns3:TrackPointExtension>
            <ns3:hr>128</ns3:hr>
            <ns3:cad>0</ns3:cad>
          </ns3:TrackPointExtension>
        </extensions>
      </trkpt>
      <trkpt lat="49.8617236129939556121826171875" lon="6.87729514203965663909912109375">
        <ele>298.20001220703125</ele>
        <time>2026-04-22T11:17:06.000Z</time>
        <extensions>
          <ns3:TrackPointExtension>
            <ns3:hr>128</ns3:hr>
            <ns3:cad>0</ns3:cad>
          </ns3:TrackPointExtension>
        </extensions>
      </trkpt>
      <trkpt lat="49.861728139221668243408203125" lon="6.8772925436496734619140625">
        <ele>298.20001220703125</ele>
        <time>2026-04-22T11:17:07.000Z</time>
        <extensions>
          <ns3:TrackPointExtension>
            <ns3:hr>128</ns3:hr>
            <ns3:cad>0</ns3:cad>
          </ns3:TrackPointExtension>
        </extensions>
      </trkpt>
      <trkpt lat="49.8617331683635711669921875" lon="6.87730117700994014739990234375">
        <ele>298.20001220703125</ele>
        <time>2026-04-22T11:17:08.000Z</time>
        <extensions>
          <ns3:TrackPointExtension>
            <ns3:hr>128</ns3:hr>
            <ns3:cad>0</ns3:cad>
          </ns3:TrackPointExtension>
        </extensions>
      </trkpt>
      <trkpt lat="49.8617331683635711669921875" lon="6.87730503268539905548095703125">
        <ele>298</ele>
        <time>2026-04-22T11:17:11.000Z</time>
        <extensions>
          <ns3:TrackPointExtension>
            <ns3:hr>126</ns3:hr>
            <ns3:cad>0</ns3:cad>
          </ns3:TrackPointExtension>
        </extensions>
      </trkpt>
      <trkpt lat="49.8617450706660747528076171875" lon="6.87730821780860424041748046875">
        <ele>297.79998779296875</ele>
        <time>2026-04-22T11:17:19.000Z</time>
        <extensions>
          <ns3:TrackPointExtension>
            <ns3:hr>125</ns3:hr>
            <ns3:cad>0</ns3:cad>
          </ns3:TrackPointExtension>
        </extensions>
      </trkpt>
      <trkpt lat="49.86173995770514011383056640625" lon="6.8773059546947479248046875">
        <ele>298.399993896484375</ele>
        <time>2026-04-22T11:17:30.000Z</time>
        <extensions>
          <ns3:TrackPointExtension>
            <ns3:hr>125</ns3:hr>
            <ns3:cad>0</ns3:cad>
          </ns3:TrackPointExtension>
        </extensions>
      </trkpt>
      <trkpt lat="49.8617242835462093353271484375" lon="6.8773059546947479248046875">
        <ele>298.600006103515625</ele>
        <time>2026-04-22T11:17:39.000Z</time>
        <extensions>
          <ns3:TrackPointExtension>
            <ns3:hr>124</ns3:hr>
            <ns3:cad>0</ns3:cad>
          </ns3:TrackPointExtension>
        </extensions>
      </trkpt>
      <trkpt lat="49.86172235570847988128662109375" lon="6.8773061223328113555908203125">
        <ele>297.20001220703125</ele>
        <time>2026-04-22T11:17:52.000Z</time>
        <extensions>
          <ns3:TrackPointExtension>
            <ns3:hr>122</ns3:hr>
            <ns3:cad>0</ns3:cad>
          </ns3:TrackPointExtension>
        </extensions>
      </trkpt>
      <trkpt lat="49.8616756685078144073486328125" lon="6.87726647593080997467041015625">
        <ele>296.79998779296875</ele>
        <time>2026-04-22T11:17:58.000Z</time>
        <extensions>
          <ns3:TrackPointExtension>
            <ns3:hr>121</ns3:hr>
            <ns3:cad>0</ns3:cad>
          </ns3:TrackPointExtension>
        </extensions>
      </trkpt>
      <trkpt lat="49.86163753084838390350341796875" lon="6.87713588587939739227294921875">
        <ele>297</ele>
        <time>2026-04-22T11:18:05.000Z</time>
        <extensions>
          <ns3:TrackPointExtension>
            <ns3:hr>121</ns3:hr>
            <ns3:cad>0</ns3:cad>
          </ns3:TrackPointExtension>
        </extensions>
      </trkpt>
      <trkpt lat="49.8616253770887851715087890625" lon="6.87704904936254024505615234375">
        <ele>297.79998779296875</ele>
        <time>2026-04-22T11:18:11.000Z</time>
        <extensions>
          <ns3:TrackPointExtension>
            <ns3:hr>121</ns3:hr>
            <ns3:cad>0</ns3:cad>
          </ns3:TrackPointExtension>
        </extensions>
      </trkpt>
      <trkpt lat="49.86161707900464534759521484375" lon="6.87699020840227603912353515625">
        <ele>298.600006103515625</ele>
        <time>2026-04-22T11:18:15.000Z</time>
        <extensions>
          <ns3:TrackPointExtension>
            <ns3:hr>120</ns3:hr>
            <ns3:cad>50</ns3:cad>
          </ns3:TrackPointExtension>
        </extensions>
      </trkpt>
      <trkpt lat="49.86161305569112300872802734375" lon="6.87691544182598590850830078125">
        <ele>298.79998779296875</ele>
        <time>2026-04-22T11:18:20.000Z</time>
        <extensions>
          <ns3:TrackPointExtension>
            <ns3:hr>120</ns3:hr>
            <ns3:cad>49</ns3:cad>
          </ns3:TrackPointExtension>
        </extensions>
      </trkpt>
      <trkpt lat="49.86160366795957088470458984375" lon="6.876855678856372833251953125">
        <ele>299</ele>
        <time>2026-04-22T11:18:24.000Z</time>
        <extensions>
          <ns3:TrackPointExtension>
            <ns3:hr>121</ns3:hr>
            <ns3:cad>51</ns3:cad>
          </ns3:TrackPointExtension>
        </extensions>
      </trkpt>
      <trkpt lat="49.86158170737326145172119140625" lon="6.876723580062389373779296875">
        <ele>299</ele>
        <time>2026-04-22T11:18:32.000Z</time>
        <extensions>
          <ns3:TrackPointExtension>
            <ns3:hr>121</ns3:hr>
            <ns3:cad>0</ns3:cad>
          </ns3:TrackPointExtension>
        </extensions>
      </trkpt>
      <trkpt lat="49.86156427301466464996337890625" lon="6.876578070223331451416015625">
        <ele>299.399993896484375</ele>
        <time>2026-04-22T11:18:42.000Z</time>
        <extensions>
          <ns3:TrackPointExtension>
            <ns3:hr>121</ns3:hr>
            <ns3:cad>50</ns3:cad>
          </ns3:TrackPointExtension>
        </extensions>
      </trkpt>
      <trkpt lat="49.86154985614120960235595703125" lon="6.87641135416924953460693359375">
        <ele>299.600006103515625</ele>
        <time>2026-04-22T11:18:53.000Z</time>
        <extensions>
          <ns3:TrackPointExtension>
            <ns3:hr>121</ns3:hr>
            <ns3:cad>51</ns3:cad>
          </ns3:TrackPointExtension>
        </extensions>
      </trkpt>
      <trkpt lat="49.8615328408777713775634765625" lon="6.87624170444905757904052734375">
        <ele>299.600006103515625</ele>
        <time>2026-04-22T11:19:03.000Z</time>
        <extensions>
          <ns3:TrackPointExtension>
            <ns3:hr>122</ns3:hr>
            <ns3:cad>49</ns3:cad>
          </ns3:TrackPointExtension>
        </extensions>
      </trkpt>
      <trkpt lat="49.861526973545551300048828125" lon="6.8761229328811168670654296875">
        <ele>299.79998779296875</ele>
        <time>2026-04-22T11:19:10.000Z</time>
        <extensions>
          <ns3:TrackPointExtension>
            <ns3:hr>123</ns3:hr>
            <ns3:cad>49</ns3:cad>
          </ns3:TrackPointExtension>
        </extensions>
      </trkpt>
      <trkpt lat="49.861517585813999176025390625" lon="6.8760763294994831085205078125">
        <ele>300</ele>
        <time>2026-04-22T11:19:13.000Z</time>
        <extensions>
          <ns3:TrackPointExtension>
            <ns3:hr>123</ns3:hr>
            <ns3:cad>48</ns3:cad>
          </ns3:TrackPointExtension>
        </extensions>
      </trkpt>
      <trkpt lat="49.86149554140865802764892578125" lon="6.87595604918897151947021484375">
        <ele>300.20001220703125</ele>
        <time>2026-04-22T11:19:21.000Z</time>
        <extensions>
          <ns3:TrackPointExtension>
            <ns3:hr>123</ns3:hr>
            <ns3:cad>48</ns3:cad>
          </ns3:TrackPointExtension>
        </extensions>
      </trkpt>
      <trkpt lat="49.86146654002368450164794921875" lon="6.87578656710684299468994140625">
        <ele>300.20001220703125</ele>
        <time>2026-04-22T11:19:32.000Z</time>
        <extensions>
          <ns3:TrackPointExtension>
            <ns3:hr>125</ns3:hr>
            <ns3:cad>49</ns3:cad>
          </ns3:TrackPointExtension>
        </extensions>
      </trkpt>
      <trkpt lat="49.86143250949680805206298828125" lon="6.875594370067119598388671875">
        <ele>301</ele>
        <time>2026-04-22T11:19:44.000Z</time>
        <extensions>
          <ns3:TrackPointExtension>
            <ns3:hr>126</ns3:hr>
            <ns3:cad>46</ns3:cad>
          </ns3:TrackPointExtension>
        </extensions>
      </trkpt>
      <trkpt lat="49.861404597759246826171875" lon="6.87536059878766536712646484375">
        <ele>302</ele>
        <time>2026-04-22T11:20:00.000Z</time>
        <extensions>
          <ns3:TrackPointExtension>
            <ns3:hr>127</ns3:hr>
            <ns3:cad>48</ns3:cad>
          </ns3:TrackPointExtension>
        </extensions>
      </trkpt>
      <trkpt lat="49.86138506792485713958740234375" lon="6.8752606026828289031982421875">
        <ele>302.79998779296875</ele>
        <time>2026-04-22T11:20:07.000Z</time>
        <extensions>
          <ns3:TrackPointExtension>
            <ns3:hr>129</ns3:hr>
            <ns3:cad>48</ns3:cad>
          </ns3:TrackPointExtension>
        </extensions>
      </trkpt>
      <trkpt lat="49.86137970350682735443115234375" lon="6.8752381391823291778564453125">
        <ele>303</ele>
        <time>2026-04-22T11:20:09.000Z</time>
        <extensions>
          <ns3:TrackPointExtension>
            <ns3:hr>129</ns3:hr>
            <ns3:cad>48</ns3:cad>
          </ns3:TrackPointExtension>
        </extensions>
      </trkpt>
      <trkpt lat="49.8613643646240234375" lon="6.87513495795428752899169921875">
        <ele>303.20001220703125</ele>
        <time>2026-04-22T11:20:16.000Z</time>
        <extensions>
          <ns3:TrackPointExtension>
            <ns3:hr>129</ns3:hr>
            <ns3:cad>49</ns3:cad>
          </ns3:TrackPointExtension>
        </extensions>
      </trkpt>
      <trkpt lat="49.86135120503604412078857421875" lon="6.87496832571923732757568359375">
        <ele>304</ele>
        <time>2026-04-22T11:20:27.000Z</time>
        <extensions>
          <ns3:TrackPointExtension>
            <ns3:hr>129</ns3:hr>
            <ns3:cad>48</ns3:cad>
          </ns3:TrackPointExtension>
        </extensions>
      </trkpt>
      <trkpt lat="49.86132723279297351837158203125" lon="6.87485232017934322357177734375">
        <ele>305.20001220703125</ele>
        <time>2026-04-22T11:20:36.000Z</time>
        <extensions>
          <ns3:TrackPointExtension>
            <ns3:hr>131</ns3:hr>
            <ns3:cad>47</ns3:cad>
          </ns3:TrackPointExtension>
        </extensions>
      </trkpt>
      <trkpt lat="49.86132605932652950286865234375" lon="6.87484075315296649932861328125">
        <ele>305.399993896484375</ele>
        <time>2026-04-22T11:20:37.000Z</time>
        <extensions>
          <ns3:TrackPointExtension>
            <ns3:hr>131</ns3:hr>
            <ns3:cad>47</ns3:cad>
          </ns3:TrackPointExtension>
        </extensions>
      </trkpt>
      <trkpt lat="49.86130535602569580078125" lon="6.87478073872625827789306640625">
        <ele>306.20001220703125</ele>
        <time>2026-04-22T11:20:42.000Z</time>
        <extensions>
          <ns3:TrackPointExtension>
            <ns3:hr>132</ns3:hr>
            <ns3:cad>46</ns3:cad>
          </ns3:TrackPointExtension>
        </extensions>
      </trkpt>
      <trkpt lat="49.86129462718963623046875" lon="6.87474184669554233551025390625">
        <ele>306.79998779296875</ele>
        <time>2026-04-22T11:20:45.000Z</time>
        <extensions>
          <ns3:TrackPointExtension>
            <ns3:hr>132</ns3:hr>
            <ns3:cad>47</ns3:cad>
          </ns3:TrackPointExtension>
        </extensions>
      </trkpt>
      <trkpt lat="49.8612830601632595062255859375" lon="6.874644868075847625732421875">
        <ele>307</ele>
        <time>2026-04-22T11:20:53.000Z</time>
        <extensions>
          <ns3:TrackPointExtension>
            <ns3:hr>132</ns3:hr>
            <ns3:cad>47</ns3:cad>
          </ns3:TrackPointExtension>
        </extensions>
      </trkpt>
      <trkpt lat="49.86125749535858631134033203125" lon="6.874543614685535430908203125">
        <ele>307.399993896484375</ele>
        <time>2026-04-22T11:21:02.000Z</time>
        <extensions>
          <ns3:TrackPointExtension>
            <ns3:hr>131</ns3:hr>
            <ns3:cad>47</ns3:cad>
          </ns3:TrackPointExtension>
        </extensions>
      </trkpt>
      <trkpt lat="49.86125632189214229583740234375" lon="6.874528862535953521728515625">
        <ele>307.399993896484375</ele>
        <time>2026-04-22T11:21:03.000Z</time>
        <extensions>
          <ns3:TrackPointExtension>
            <ns3:hr>131</ns3:hr>
            <ns3:cad>47</ns3:cad>
          </ns3:TrackPointExtension>
        </extensions>
      </trkpt>
      <trkpt lat="49.861225895583629608154296875" lon="6.8743902258574962615966796875">
        <ele>308.20001220703125</ele>
        <time>2026-04-22T11:21:13.000Z</time>
        <extensions>
          <ns3:TrackPointExtension>
            <ns3:hr>132</ns3:hr>
            <ns3:cad>47</ns3:cad>
          </ns3:TrackPointExtension>
        </extensions>
      </trkpt>
      <trkpt lat="49.86122128553688526153564453125" lon="6.8743449635803699493408203125">
        <ele>308.399993896484375</ele>
        <time>2026-04-22T11:21:16.000Z</time>
        <extensions>
          <ns3:TrackPointExtension>
            <ns3:hr>132</ns3:hr>
            <ns3:cad>47</ns3:cad>
          </ns3:TrackPointExtension>
        </extensions>
      </trkpt>
      <trkpt lat="49.8612235486507415771484375" lon="6.87426743097603321075439453125">
        <ele>308.79998779296875</ele>
        <time>2026-04-22T11:21:22.000Z</time>
        <extensions>
          <ns3:TrackPointExtension>
            <ns3:hr>132</ns3:hr>
            <ns3:cad>47</ns3:cad>
          </ns3:TrackPointExtension>
        </extensions>
      </trkpt>
      <trkpt lat="49.861196391284465789794921875" lon="6.8741491623222827911376953125">
        <ele>309.20001220703125</ele>
        <time>2026-04-22T11:21:30.000Z</time>
        <extensions>
          <ns3:TrackPointExtension>
            <ns3:hr>132</ns3:hr>
            <ns3:cad>47</ns3:cad>
          </ns3:TrackPointExtension>
        </extensions>
      </trkpt>
      <trkpt lat="49.861173592507839202880859375" lon="6.87407213263213634490966796875">
        <ele>309.399993896484375</ele>
        <time>2026-04-22T11:21:34.000Z</time>
        <extensions>
          <ns3:TrackPointExtension>
            <ns3:hr>132</ns3:hr>
            <ns3:cad>47</ns3:cad>
          </ns3:TrackPointExtension>
        </extensions>
      </trkpt>
      <trkpt lat="49.86116361804306507110595703125" lon="6.874007843434810638427734375">
        <ele>309.79998779296875</ele>
        <time>2026-04-22T11:21:38.000Z</time>
        <extensions>
          <ns3:TrackPointExtension>
            <ns3:hr>133</ns3:hr>
            <ns3:cad>47</ns3:cad>
          </ns3:TrackPointExtension>
        </extensions>
      </trkpt>
      <trkpt lat="49.86115741543471813201904296875" lon="6.8738792650401592254638671875">
        <ele>310.600006103515625</ele>
        <time>2026-04-22T11:21:45.000Z</time>
        <extensions>
          <ns3:TrackPointExtension>
            <ns3:hr>133</ns3:hr>
            <ns3:cad>48</ns3:cad>
          </ns3:TrackPointExtension>
        </extensions>
      </trkpt>
      <trkpt lat="49.86115138046443462371826171875" lon="6.87386811710894107818603515625">
        <ele>310.600006103515625</ele>
        <time>2026-04-22T11:21:46.000Z</time>
        <extensions>
          <ns3:TrackPointExtension>
            <ns3:hr>133</ns3:hr>
            <ns3:cad>47</ns3:cad>
          </ns3:TrackPointExtension>
        </extensions>
      </trkpt>
      <trkpt lat="49.8611278273165225982666015625" lon="6.873797290027141571044921875">
        <ele>311.600006103515625</ele>
        <time>2026-04-22T11:21:51.000Z</time>
        <extensions>
          <ns3:TrackPointExtension>
            <ns3:hr>133</ns3:hr>
            <ns3:cad>47</ns3:cad>
          </ns3:TrackPointExtension>
        </extensions>
      </trkpt>
      <trkpt lat="49.86112497746944427490234375" lon="6.87376384623348712921142578125">
        <ele>312</ele>
        <time>2026-04-22T11:21:53.000Z</time>
        <extensions>
          <ns3:TrackPointExtension>
            <ns3:hr>133</ns3:hr>
            <ns3:cad>48</ns3:cad>
          </ns3:TrackPointExtension>
        </extensions>
      </trkpt>
      <trkpt lat="49.86112824641168117523193359375" lon="6.87375135719776153564453125">
        <ele>312</ele>
        <time>2026-04-22T11:21:54.000Z</time>
        <extensions>
          <ns3:TrackPointExtension>
            <ns3:hr>133</ns3:hr>
            <ns3:cad>48</ns3:cad>
          </ns3:TrackPointExtension>
        </extensions>
      </trkpt>
      <trkpt lat="49.86112489365041255950927734375" lon="6.87373258173465728759765625">
        <ele>312</ele>
        <time>2026-04-22T11:21:55.000Z</time>
        <extensions>
          <ns3:TrackPointExtension>
            <ns3:hr>133</ns3:hr>
            <ns3:cad>48</ns3:cad>
          </ns3:TrackPointExtension>
        </extensions>
      </trkpt>
      <trkpt lat="49.861109219491481781005859375" lon="6.8736636824905872344970703125">
        <ele>312.399993896484375</ele>
        <time>2026-04-22T11:22:01.000Z</time>
        <extensions>
          <ns3:TrackPointExtension>
            <ns3:hr>133</ns3:hr>
            <ns3:cad>49</ns3:cad>
          </ns3:TrackPointExtension>
        </extensions>
      </trkpt>
      <trkpt lat="49.86108885146677494049072265625" lon="6.87360249459743499755859375">
        <ele>312.600006103515625</ele>
        <time>2026-04-22T11:22:05.000Z</time>
        <extensions>
          <ns3:TrackPointExtension>
            <ns3:hr>134</ns3:hr>
            <ns3:cad>50</ns3:cad>
          </ns3:TrackPointExtension>
        </extensions>
      </trkpt>
      <trkpt lat="49.8610735125839710235595703125" lon="6.8735339306294918060302734375">
        <ele>312.79998779296875</ele>
        <time>2026-04-22T11:22:10.000Z</time>
        <extensions>
          <ns3:TrackPointExtension>
            <ns3:hr>132</ns3:hr>
            <ns3:cad>48</ns3:cad>
          </ns3:TrackPointExtension>
        </extensions>
      </trkpt>
      <trkpt lat="49.86105389893054962158203125" lon="6.8734082020819187164306640625">
        <ele>313</ele>
        <time>2026-04-22T11:22:18.000Z</time>
        <extensions>
          <ns3:TrackPointExtension>
            <ns3:hr>132</ns3:hr>
            <ns3:cad>50</ns3:cad>
          </ns3:TrackPointExtension>
        </extensions>
      </trkpt>
      <trkpt lat="49.861031435430049896240234375" lon="6.87332614324986934661865234375">
        <ele>313.20001220703125</ele>
        <time>2026-04-22T11:22:23.000Z</time>
        <extensions>
          <ns3:TrackPointExtension>
            <ns3:hr>132</ns3:hr>
            <ns3:cad>49</ns3:cad>
          </ns3:TrackPointExtension>
        </extensions>
      </trkpt>
      <trkpt lat="49.8610171861946582794189453125" lon="6.873292028903961181640625">
        <ele>313.20001220703125</ele>
        <time>2026-04-22T11:22:26.000Z</time>
        <extensions>
          <ns3:TrackPointExtension>
            <ns3:hr>132</ns3:hr>
            <ns3:cad>50</ns3:cad>
          </ns3:TrackPointExtension>
        </extensions>
      </trkpt>
      <trkpt lat="49.86100427806377410888671875" lon="6.87322924844920635223388671875">
        <ele>313.399993896484375</ele>
        <time>2026-04-22T11:22:31.000Z</time>
        <extensions>
          <ns3:TrackPointExtension>
            <ns3:hr>131</ns3:hr>
            <ns3:cad>49</ns3:cad>
          </ns3:TrackPointExtension>
        </extensions>
      </trkpt>
      <trkpt lat="49.86098994500935077667236328125" lon="6.8731860816478729248046875">
        <ele>313.600006103515625</ele>
        <time>2026-04-22T11:22:34.000Z</time>
        <extensions>
          <ns3:TrackPointExtension>
            <ns3:hr>131</ns3:hr>
            <ns3:cad>49</ns3:cad>
          </ns3:TrackPointExtension>
        </extensions>
      </trkpt>
      <trkpt lat="49.86098684370517730712890625" lon="6.87317292205989360809326171875">
        <ele>313.600006103515625</ele>
        <time>2026-04-22T11:22:35.000Z</time>
        <extensions>
          <ns3:TrackPointExtension>
            <ns3:hr>131</ns3:hr>
            <ns3:cad>50</ns3:cad>
          </ns3:TrackPointExtension>
        </extensions>
      </trkpt>
      <trkpt lat="49.86096060834825038909912109375" lon="6.87310050241649150848388671875">
        <ele>314</ele>
        <time>2026-04-22T11:22:40.000Z</time>
        <extensions>
          <ns3:TrackPointExtension>
            <ns3:hr>131</ns3:hr>
            <ns3:cad>49</ns3:cad>
          </ns3:TrackPointExtension>
        </extensions>
      </trkpt>
      <trkpt lat="49.8609481193125247955322265625" lon="6.8730655498802661895751953125">
        <ele>314</ele>
        <time>2026-04-22T11:22:42.000Z</time>
        <extensions>
          <ns3:TrackPointExtension>
            <ns3:hr>131</ns3:hr>
            <ns3:cad>49</ns3:cad>
          </ns3:TrackPointExtension>
        </extensions>
      </trkpt>
      <trkpt lat="49.86089237965643405914306640625" lon="6.87293621711432933807373046875">
        <ele>314</ele>
        <time>2026-04-22T11:22:51.000Z</time>
        <extensions>
          <ns3:TrackPointExtension>
            <ns3:hr>130</ns3:hr>
            <ns3:cad>50</ns3:cad>
          </ns3:TrackPointExtension>
        </extensions>
      </trkpt>
      <trkpt lat="49.86085005104541778564453125" lon="6.87278970144689083099365234375">
        <ele>314</ele>
        <time>2026-04-22T11:23:00.000Z</time>
        <extensions>
          <ns3:TrackPointExtension>
            <ns3:hr>130</ns3:hr>
            <ns3:cad>51</ns3:cad>
          </ns3:TrackPointExtension>
        </extensions>
      </trkpt>
      <trkpt lat="49.8608250729739665985107421875" lon="6.87264385633170604705810546875">
        <ele>314.20001220703125</ele>
        <time>2026-04-22T11:23:09.000Z</time>
        <extensions>
          <ns3:TrackPointExtension>
            <ns3:hr>128</ns3:hr>
            <ns3:cad>53</ns3:cad>
          </ns3:TrackPointExtension>
        </extensions>
      </trkpt>
      <trkpt lat="49.8607798106968402862548828125" lon="6.8724660761654376983642578125">
        <ele>314.20001220703125</ele>
        <time>2026-04-22T11:23:20.000Z</time>
        <extensions>
          <ns3:TrackPointExtension>
            <ns3:hr>127</ns3:hr>
            <ns3:cad>0</ns3:cad>
          </ns3:TrackPointExtension>
        </extensions>
      </trkpt>
      <trkpt lat="49.86077553592622280120849609375" lon="6.872399188578128814697265625">
        <ele>314.399993896484375</ele>
        <time>2026-04-22T11:23:26.000Z</time>
        <extensions>
          <ns3:TrackPointExtension>
            <ns3:hr>127</ns3:hr>
            <ns3:cad>0</ns3:cad>
          </ns3:TrackPointExtension>
        </extensions>
      </trkpt>
      <trkpt lat="49.86077620647847652435302734375" lon="6.87234495766460895538330078125">
        <ele>314.600006103515625</ele>
        <time>2026-04-22T11:23:32.000Z</time>
        <extensions>
          <ns3:TrackPointExtension>
            <ns3:hr>126</ns3:hr>
            <ns3:cad>0</ns3:cad>
          </ns3:TrackPointExtension>
        </extensions>
      </trkpt>
      <trkpt lat="49.8608009330928325653076171875" lon="6.87232618220150470733642578125">
        <ele>314.79998779296875</ele>
        <time>2026-04-22T11:23:37.000Z</time>
        <extensions>
          <ns3:TrackPointExtension>
            <ns3:hr>126</ns3:hr>
            <ns3:cad>0</ns3:cad>
          </ns3:TrackPointExtension>
        </extensions>
      </trkpt>
      <trkpt lat="49.86081895418465137481689453125" lon="6.8723011203110218048095703125">
        <ele>314.79998779296875</ele>
        <time>2026-04-22T11:23:40.000Z</time>
        <extensions>
          <ns3:TrackPointExtension>
            <ns3:hr>126</ns3:hr>
            <ns3:cad>50</ns3:cad>
          </ns3:TrackPointExtension>
        </extensions>
      </trkpt>
      <trkpt lat="49.86083722673356533050537109375" lon="6.87228016555309295654296875">
        <ele>315</ele>
        <time>2026-04-22T11:23:41.000Z</time>
        <extensions>
          <ns3:TrackPointExtension>
            <ns3:hr>126</ns3:hr>
            <ns3:cad>51</ns3:cad>
          </ns3:TrackPointExtension>
        </extensions>
      </trkpt>
      <trkpt lat="49.860879890620708465576171875" lon="6.87226004898548126220703125">
        <ele>315.600006103515625</ele>
        <time>2026-04-22T11:23:46.000Z</time>
        <extensions>
          <ns3:TrackPointExtension>
            <ns3:hr>127</ns3:hr>
            <ns3:cad>52</ns3:cad>
          </ns3:TrackPointExtension>
        </extensions>
      </trkpt>
      <trkpt lat="49.86088969744741916656494140625" lon="6.87225812114775180816650390625">
        <ele>315.79998779296875</ele>
        <time>2026-04-22T11:23:47.000Z</time>
        <extensions>
          <ns3:TrackPointExtension>
            <ns3:hr>127</ns3:hr>
            <ns3:cad>52</ns3:cad>
          </ns3:TrackPointExtension>
        </extensions>
      </trkpt>
      <trkpt lat="49.86098156310617923736572265625" lon="6.87224051915109157562255859375">
        <ele>316</ele>
        <time>2026-04-22T11:23:56.000Z</time>
        <extensions>
          <ns3:TrackPointExtension>
            <ns3:hr>127</ns3:hr>
            <ns3:cad>51</ns3:cad>
          </ns3:TrackPointExtension>
        </extensions>
      </trkpt>
      <trkpt lat="49.86107929609715938568115234375" lon="6.872189305722713470458984375">
        <ele>316</ele>
        <time>2026-04-22T11:24:05.000Z</time>
        <extensions>
          <ns3:TrackPointExtension>
            <ns3:hr>126</ns3:hr>
            <ns3:cad>0</ns3:cad>
          </ns3:TrackPointExtension>
        </extensions>
      </trkpt>
      <trkpt lat="49.8611117340624332427978515625" lon="6.87216558493673801422119140625">
        <ele>316.20001220703125</ele>
        <time>2026-04-22T11:24:12.000Z</time>
        <extensions>
          <ns3:TrackPointExtension>
            <ns3:hr>125</ns3:hr>
            <ns3:cad>0</ns3:cad>
          </ns3:TrackPointExtension>
        </extensions>
      </trkpt>
      <trkpt lat="49.8610953055322170257568359375" lon="6.87215200625360012054443359375">
        <ele>316.399993896484375</ele>
        <time>2026-04-22T11:24:20.000Z</time>
        <extensions>
          <ns3:TrackPointExtension>
            <ns3:hr>124</ns3:hr>
            <ns3:cad>0</ns3:cad>
          </ns3:TrackPointExtension>
        </extensions>
      </trkpt>
      <trkpt lat="49.861036799848079681396484375" lon="6.87206433154642581939697265625">
        <ele>316.399993896484375</ele>
        <time>2026-04-22T11:24:27.000Z</time>
        <extensions>
          <ns3:TrackPointExtension>
            <ns3:hr>123</ns3:hr>
            <ns3:cad>53</ns3:cad>
          </ns3:TrackPointExtension>
        </extensions>
      </trkpt>
      <trkpt lat="49.861002601683139801025390625" lon="6.87190105207264423370361328125">
        <ele>316.20001220703125</ele>
        <time>2026-04-22T11:24:38.000Z</time>
        <extensions>
          <ns3:TrackPointExtension>
            <ns3:hr>123</ns3:hr>
            <ns3:cad>0</ns3:cad>
          </ns3:TrackPointExtension>
        </extensions>
      </trkpt>
      <trkpt lat="49.860953651368618011474609375" lon="6.87174598686397075653076171875">
        <ele>316.399993896484375</ele>
        <time>2026-04-22T11:24:49.000Z</time>
        <extensions>
          <ns3:TrackPointExtension>
            <ns3:hr>123</ns3:hr>
            <ns3:cad>0</ns3:cad>
          </ns3:TrackPointExtension>
        </extensions>
      </trkpt>
      <trkpt lat="49.86091551370918750762939453125" lon="6.8715648539364337921142578125">
        <ele>316.399993896484375</ele>
        <time>2026-04-22T11:24:59.000Z</time>
        <extensions>
          <ns3:TrackPointExtension>
            <ns3:hr>123</ns3:hr>
            <ns3:cad>54</ns3:cad>
          </ns3:TrackPointExtension>
        </extensions>
      </trkpt>
      <trkpt lat="49.86090813763439655303955078125" lon="6.87153241597115993499755859375">
        <ele>316.399993896484375</ele>
        <time>2026-04-22T11:25:01.000Z</time>
        <extensions>
          <ns3:TrackPointExtension>
            <ns3:hr>123</ns3:hr>
            <ns3:cad>54</ns3:cad>
          </ns3:TrackPointExtension>
        </extensions>
      </trkpt>
      <trkpt lat="49.86088232137262821197509765625" lon="6.87141255475580692291259765625">
        <ele>316.79998779296875</ele>
        <time>2026-04-22T11:25:07.000Z</time>
        <extensions>
          <ns3:TrackPointExtension>
            <ns3:hr>122</ns3:hr>
            <ns3:cad>0</ns3:cad>
          </ns3:TrackPointExtension>
        </extensions>
      </trkpt>
      <trkpt lat="49.86087863333523273468017578125" lon="6.871396042406558990478515625">
        <ele>316.79998779296875</ele>
        <time>2026-04-22T11:25:08.000Z</time>
        <extensions>
          <ns3:TrackPointExtension>
            <ns3:hr>122</ns3:hr>
            <ns3:cad>0</ns3:cad>
          </ns3:TrackPointExtension>
        </extensions>
      </trkpt>
      <trkpt lat="49.86083261668682098388671875" lon="6.8712641112506389617919921875">
        <ele>316.600006103515625</ele>
        <time>2026-04-22T11:25:16.000Z</time>
        <extensions>
          <ns3:TrackPointExtension>
            <ns3:hr>124</ns3:hr>
            <ns3:cad>55</ns3:cad>
          </ns3:TrackPointExtension>
        </extensions>
      </trkpt>
      <trkpt lat="49.86083454452455043792724609375" lon="6.87116025947034358978271484375">
        <ele>316.399993896484375</ele>
        <time>2026-04-22T11:25:22.000Z</time>
        <extensions>
          <ns3:TrackPointExtension>
            <ns3:hr>124</ns3:hr>
            <ns3:cad>0</ns3:cad>
          </ns3:TrackPointExtension>
        </extensions>
      </trkpt>
      <trkpt lat="49.86082532443106174468994140625" lon="6.87114366330206394195556640625">
        <ele>316.399993896484375</ele>
        <time>2026-04-22T11:25:23.000Z</time>
        <extensions>
          <ns3:TrackPointExtension>
            <ns3:hr>125</ns3:hr>
            <ns3:cad>0</ns3:cad>
          </ns3:TrackPointExtension>
        </extensions>
      </trkpt>
      <trkpt lat="49.8607801459729671478271484375" lon="6.8709854967892169952392578125">
        <ele>315.79998779296875</ele>
        <time>2026-04-22T11:25:33.000Z</time>
        <extensions>
          <ns3:TrackPointExtension>
            <ns3:hr>124</ns3:hr>
            <ns3:cad>0</ns3:cad>
          </ns3:TrackPointExtension>
        </extensions>
      </trkpt>
      <trkpt lat="49.86075994558632373809814453125" lon="6.87092137522995471954345703125">
        <ele>315.79998779296875</ele>
        <time>2026-04-22T11:25:36.000Z</time>
        <extensions>
          <ns3:TrackPointExtension>
            <ns3:hr>124</ns3:hr>
            <ns3:cad>0</ns3:cad>
          </ns3:TrackPointExtension>
        </extensions>
      </trkpt>
      <trkpt lat="49.86075173132121562957763671875" lon="6.87090410850942134857177734375">
        <ele>315.600006103515625</ele>
        <time>2026-04-22T11:25:38.000Z</time>
        <extensions>
          <ns3:TrackPointExtension>
            <ns3:hr>124</ns3:hr>
            <ns3:cad>54</ns3:cad>
          </ns3:TrackPointExtension>
        </extensions>
      </trkpt>
      <trkpt lat="49.8607380688190460205078125" lon="6.87087074853479862213134765625">
        <ele>315.600006103515625</ele>
        <time>2026-04-22T11:25:40.000Z</time>
        <extensions>
          <ns3:TrackPointExtension>
            <ns3:hr>123</ns3:hr>
            <ns3:cad>55</ns3:cad>
          </ns3:TrackPointExtension>
        </extensions>
      </trkpt>
      <trkpt lat="49.860708229243755340576171875" lon="6.87071643769741058349609375">
        <ele>315.399993896484375</ele>
        <time>2026-04-22T11:25:49.000Z</time>
        <extensions>
          <ns3:TrackPointExtension>
            <ns3:hr>123</ns3:hr>
            <ns3:cad>55</ns3:cad>
          </ns3:TrackPointExtension>
        </extensions>
      </trkpt>
      <trkpt lat="49.86066774465143680572509765625" lon="6.870521642267704010009765625">
        <ele>315</ele>
        <time>2026-04-22T11:26:00.000Z</time>
        <extensions>
          <ns3:TrackPointExtension>
            <ns3:hr>123</ns3:hr>
            <ns3:cad>55</ns3:cad>
          </ns3:TrackPointExtension>
        </extensions>
      </trkpt>
      <trkpt lat="49.860626421868801116943359375" lon="6.87038158066570758819580078125">
        <ele>314.79998779296875</ele>
        <time>2026-04-22T11:26:08.000Z</time>
        <extensions>
          <ns3:TrackPointExtension>
            <ns3:hr>122</ns3:hr>
            <ns3:cad>0</ns3:cad>
          </ns3:TrackPointExtension>
        </extensions>
      </trkpt>
      <trkpt lat="49.86059264279901981353759765625" lon="6.870246715843677520751953125">
        <ele>315</ele>
        <time>2026-04-22T11:26:16.000Z</time>
        <extensions>
          <ns3:TrackPointExtension>
            <ns3:hr>123</ns3:hr>
            <ns3:cad>55</ns3:cad>
          </ns3:TrackPointExtension>
        </extensions>
      </trkpt>
      <trkpt lat="49.8605597019195556640625" lon="6.8701229989528656005859375">
        <ele>315</ele>
        <time>2026-04-22T11:26:24.000Z</time>
        <extensions>
          <ns3:TrackPointExtension>
            <ns3:hr>122</ns3:hr>
            <ns3:cad>0</ns3:cad>
          </ns3:TrackPointExtension>
        </extensions>
      </trkpt>
      <trkpt lat="49.8605477996170520782470703125" lon="6.87009056098759174346923828125">
        <ele>315</ele>
        <time>2026-04-22T11:26:26.000Z</time>
        <extensions>
          <ns3:TrackPointExtension>
            <ns3:hr>122</ns3:hr>
            <ns3:cad>55</ns3:cad>
          </ns3:TrackPointExtension>
        </extensions>
      </trkpt>
      <trkpt lat="49.86051334999501705169677734375" lon="6.869924850761890411376953125">
        <ele>314.79998779296875</ele>
        <time>2026-04-22T11:26:36.000Z</time>
        <extensions>
          <ns3:TrackPointExtension>
            <ns3:hr>122</ns3:hr>
            <ns3:cad>0</ns3:cad>
          </ns3:TrackPointExtension>
        </extensions>
      </trkpt>
      <trkpt lat="49.8604837618768215179443359375" lon="6.86984782107174396514892578125">
        <ele>315</ele>
        <time>2026-04-22T11:26:41.000Z</time>
        <extensions>
          <ns3:TrackPointExtension>
            <ns3:hr>122</ns3:hr>
            <ns3:cad>55</ns3:cad>
          </ns3:TrackPointExtension>
        </extensions>
      </trkpt>
      <trkpt lat="49.8604683391749858856201171875" lon="6.869800128042697906494140625">
        <ele>315</ele>
        <time>2026-04-22T11:26:44.000Z</time>
        <extensions>
          <ns3:TrackPointExtension>
            <ns3:hr>123</ns3:hr>
            <ns3:cad>0</ns3:cad>
          </ns3:TrackPointExtension>
        </extensions>
      </trkpt>
      <trkpt lat="49.8604421876370906829833984375" lon="6.86965084634721279144287109375">
        <ele>315.20001220703125</ele>
        <time>2026-04-22T11:26:53.000Z</time>
        <extensions>
          <ns3:TrackPointExtension>
            <ns3:hr>123</ns3:hr>
            <ns3:cad>55</ns3:cad>
          </ns3:TrackPointExtension>
        </extensions>
      </trkpt>
      <trkpt lat="49.86038158647716045379638671875" lon="6.8695168197154998779296875">
        <ele>314.79998779296875</ele>
        <time>2026-04-22T11:27:02.000Z</time>
        <extensions>
          <ns3:TrackPointExtension>
            <ns3:hr>124</ns3:hr>
            <ns3:cad>0</ns3:cad>
          </ns3:TrackPointExtension>
        </extensions>
      </trkpt>
      <trkpt lat="49.86037957482039928436279296875" lon="6.8694854713976383209228515625">
        <ele>314.79998779296875</ele>
        <time>2026-04-22T11:27:04.000Z</time>
        <extensions>
          <ns3:TrackPointExtension>
            <ns3:hr>124</ns3:hr>
            <ns3:cad>0</ns3:cad>
          </ns3:TrackPointExtension>
        </extensions>
      </trkpt>
      <trkpt lat="49.86035845242440700531005859375" lon="6.86940156854689121246337890625">
        <ele>314.79998779296875</ele>
        <time>2026-04-22T11:27:08.000Z</time>
        <extensions>
          <ns3:TrackPointExtension>
            <ns3:hr>123</ns3:hr>
            <ns3:cad>55</ns3:cad>
          </ns3:TrackPointExtension>
        </extensions>
      </trkpt>
      <trkpt lat="49.86035074107348918914794921875" lon="6.86936904676258563995361328125">
        <ele>314.600006103515625</ele>
        <time>2026-04-22T11:27:10.000Z</time>
        <extensions>
          <ns3:TrackPointExtension>
            <ns3:hr>124</ns3:hr>
            <ns3:cad>55</ns3:cad>
          </ns3:TrackPointExtension>
        </extensions>
      </trkpt>
      <trkpt lat="49.8603131063282489776611328125" lon="6.86927231959998607635498046875">
        <ele>314.600006103515625</ele>
        <time>2026-04-22T11:27:17.000Z</time>
        <extensions>
          <ns3:TrackPointExtension>
            <ns3:hr>123</ns3:hr>
            <ns3:cad>0</ns3:cad>
          </ns3:TrackPointExtension>
        </extensions>
      </trkpt>
      <trkpt lat="49.86027748323976993560791015625" lon="6.86913804151117801666259765625">
        <ele>314.399993896484375</ele>
        <time>2026-04-22T11:27:25.000Z</time>
        <extensions>
          <ns3:TrackPointExtension>
            <ns3:hr>123</ns3:hr>
            <ns3:cad>55</ns3:cad>
          </ns3:TrackPointExtension>
        </extensions>
      </trkpt>
      <trkpt lat="49.86026340164244174957275390625" lon="6.8689731694757938385009765625">
        <ele>314.399993896484375</ele>
        <time>2026-04-22T11:27:33.000Z</time>
        <extensions>
          <ns3:TrackPointExtension>
            <ns3:hr>124</ns3:hr>
            <ns3:cad>54</ns3:cad>
          </ns3:TrackPointExtension>
        </extensions>
      </trkpt>
      <trkpt lat="49.8602420277893543243408203125" lon="6.86884048394858837127685546875">
        <ele>314</ele>
        <time>2026-04-22T11:27:40.000Z</time>
        <extensions>
          <ns3:TrackPointExtension>
            <ns3:hr>123</ns3:hr>
            <ns3:cad>55</ns3:cad>
          </ns3:TrackPointExtension>
        </extensions>
      </trkpt>
      <trkpt lat="49.86020036973059177398681640625" lon="6.86869748868048191070556640625">
        <ele>313.79998779296875</ele>
        <time>2026-04-22T11:27:49.000Z</time>
        <extensions>
          <ns3:TrackPointExtension>
            <ns3:hr>122</ns3:hr>
            <ns3:cad>55</ns3:cad>
          </ns3:TrackPointExtension>
        </extensions>
      </trkpt>
      <trkpt lat="49.8601981066167354583740234375" lon="6.86868390999734401702880859375">
        <ele>313.79998779296875</ele>
        <time>2026-04-22T11:27:50.000Z</time>
        <extensions>
          <ns3:TrackPointExtension>
            <ns3:hr>122</ns3:hr>
            <ns3:cad>55</ns3:cad>
          </ns3:TrackPointExtension>
        </extensions>
      </trkpt>
      <trkpt lat="49.860171787440776824951171875" lon="6.868581064045429229736328125">
        <ele>313.79998779296875</ele>
        <time>2026-04-22T11:27:56.000Z</time>
        <extensions>
          <ns3:TrackPointExtension>
            <ns3:hr>123</ns3:hr>
            <ns3:cad>55</ns3:cad>
          </ns3:TrackPointExtension>
        </extensions>
      </trkpt>
      <trkpt lat="49.86013926565647125244140625" lon="6.868431530892848968505859375">
        <ele>314</ele>
        <time>2026-04-22T11:28:05.000Z</time>
        <extensions>
          <ns3:TrackPointExtension>
            <ns3:hr>122</ns3:hr>
            <ns3:cad>55</ns3:cad>
          </ns3:TrackPointExtension>
        </extensions>
      </trkpt>
      <trkpt lat="49.86013591289520263671875" lon="6.868404038250446319580078125">
        <ele>314</ele>
        <time>2026-04-22T11:28:07.000Z</time>
        <extensions>
          <ns3:TrackPointExtension>
            <ns3:hr>122</ns3:hr>
            <ns3:cad>55</ns3:cad>
          </ns3:TrackPointExtension>
        </extensions>
      </trkpt>
      <trkpt lat="49.86010129563510417938232421875" lon="6.8683234043419361114501953125">
        <ele>314</ele>
        <time>2026-04-22T11:28:11.000Z</time>
        <extensions>
          <ns3:TrackPointExtension>
            <ns3:hr>123</ns3:hr>
            <ns3:cad>55</ns3:cad>
          </ns3:TrackPointExtension>
        </extensions>
      </trkpt>
      <trkpt lat="49.8600784130394458770751953125" lon="6.868261210620403289794921875">
        <ele>314.20001220703125</ele>
        <time>2026-04-22T11:28:17.000Z</time>
        <extensions>
          <ns3:TrackPointExtension>
            <ns3:hr>123</ns3:hr>
            <ns3:cad>0</ns3:cad>
          </ns3:TrackPointExtension>
        </extensions>
      </trkpt>
      <trkpt lat="49.86003641970455646514892578125" lon="6.8681400083005428314208984375">
        <ele>314.600006103515625</ele>
        <time>2026-04-22T11:28:24.000Z</time>
        <extensions>
          <ns3:TrackPointExtension>
            <ns3:hr>124</ns3:hr>
            <ns3:cad>0</ns3:cad>
          </ns3:TrackPointExtension>
        </extensions>
      </trkpt>
      <trkpt lat="49.8600163869559764862060546875" lon="6.8680112622678279876708984375">
        <ele>314.600006103515625</ele>
        <time>2026-04-22T11:28:31.000Z</time>
        <extensions>
          <ns3:TrackPointExtension>
            <ns3:hr>125</ns3:hr>
            <ns3:cad>0</ns3:cad>
          </ns3:TrackPointExtension>
        </extensions>
      </trkpt>
      <trkpt lat="49.8600049875676631927490234375" lon="6.86787237413227558135986328125">
        <ele>314.79998779296875</ele>
        <time>2026-04-22T11:28:39.000Z</time>
        <extensions>
          <ns3:TrackPointExtension>
            <ns3:hr>125</ns3:hr>
            <ns3:cad>55</ns3:cad>
          </ns3:TrackPointExtension>
        </extensions>
      </trkpt>
      <trkpt lat="49.85997657291591167449951171875" lon="6.86775988899171352386474609375">
        <ele>314.79998779296875</ele>
        <time>2026-04-22T11:28:46.000Z</time>
        <extensions>
          <ns3:TrackPointExtension>
            <ns3:hr>124</ns3:hr>
            <ns3:cad>55</ns3:cad>
          </ns3:TrackPointExtension>
        </extensions>
      </trkpt>
      <trkpt lat="49.8599396087229251861572265625" lon="6.86763055622577667236328125">
        <ele>314.20001220703125</ele>
        <time>2026-04-22T11:28:55.000Z</time>
        <extensions>
          <ns3:TrackPointExtension>
            <ns3:hr>124</ns3:hr>
            <ns3:cad>0</ns3:cad>
          </ns3:TrackPointExtension>
        </extensions>
      </trkpt>
      <trkpt lat="49.8599023930728435516357421875" lon="6.86745579354465007781982421875">
        <ele>314.600006103515625</ele>
        <time>2026-04-22T11:29:07.000Z</time>
        <extensions>
          <ns3:TrackPointExtension>
            <ns3:hr>123</ns3:hr>
            <ns3:cad>55</ns3:cad>
          </ns3:TrackPointExtension>
        </extensions>
      </trkpt>
      <trkpt lat="49.859845899045467376708984375" lon="6.867223866283893585205078125">
        <ele>314.399993896484375</ele>
        <time>2026-04-22T11:29:20.000Z</time>
        <extensions>
          <ns3:TrackPointExtension>
            <ns3:hr>123</ns3:hr>
            <ns3:cad>55</ns3:cad>
          </ns3:TrackPointExtension>
        </extensions>
      </trkpt>
      <trkpt lat="49.8598269559442996978759765625" lon="6.86712822876870632171630859375">
        <ele>313.79998779296875</ele>
        <time>2026-04-22T11:29:26.000Z</time>
        <extensions>
          <ns3:TrackPointExtension>
            <ns3:hr>123</ns3:hr>
            <ns3:cad>54</ns3:cad>
          </ns3:TrackPointExtension>
        </extensions>
      </trkpt>
      <trkpt lat="49.85982351936399936676025390625" lon="6.86708665452897548675537109375">
        <ele>313.600006103515625</ele>
        <time>2026-04-22T11:29:28.000Z</time>
        <extensions>
          <ns3:TrackPointExtension>
            <ns3:hr>123</ns3:hr>
            <ns3:cad>53</ns3:cad>
          </ns3:TrackPointExtension>
        </extensions>
      </trkpt>
      <trkpt lat="49.85980977304279804229736328125" lon="6.86704809777438640594482421875">
        <ele>313.399993896484375</ele>
        <time>2026-04-22T11:29:31.000Z</time>
        <extensions>
          <ns3:TrackPointExtension>
            <ns3:hr>124</ns3:hr>
            <ns3:cad>55</ns3:cad>
          </ns3:TrackPointExtension>
        </extensions>
      </trkpt>
      <trkpt lat="49.8597940988838672637939453125" lon="6.86699931509792804718017578125">
        <ele>313.20001220703125</ele>
        <time>2026-04-22T11:29:35.000Z</time>
        <extensions>
          <ns3:TrackPointExtension>
            <ns3:hr>124</ns3:hr>
            <ns3:cad>55</ns3:cad>
          </ns3:TrackPointExtension>
        </extensions>
      </trkpt>
      <trkpt lat="49.8597873933613300323486328125" lon="6.86687819659709930419921875">
        <ele>312.600006103515625</ele>
        <time>2026-04-22T11:29:41.000Z</time>
        <extensions>
          <ns3:TrackPointExtension>
            <ns3:hr>123</ns3:hr>
            <ns3:cad>54</ns3:cad>
          </ns3:TrackPointExtension>
        </extensions>
      </trkpt>
      <trkpt lat="49.8597495071589946746826171875" lon="6.86678607948124408721923828125">
        <ele>312.399993896484375</ele>
        <time>2026-04-22T11:29:47.000Z</time>
        <extensions>
          <ns3:TrackPointExtension>
            <ns3:hr>123</ns3:hr>
            <ns3:cad>56</ns3:cad>
          </ns3:TrackPointExtension>
        </extensions>
      </trkpt>
      <trkpt lat="49.859728552401065826416015625" lon="6.866666972637176513671875">
        <ele>312.20001220703125</ele>
        <time>2026-04-22T11:29:54.000Z</time>
        <extensions>
          <ns3:TrackPointExtension>
            <ns3:hr>123</ns3:hr>
            <ns3:cad>56</ns3:cad>
          </ns3:TrackPointExtension>
        </extensions>
      </trkpt>
      <trkpt lat="49.859700389206409454345703125" lon="6.8665712513029575347900390625">
        <ele>311.600006103515625</ele>
        <time>2026-04-22T11:30:00.000Z</time>
        <extensions>
          <ns3:TrackPointExtension>
            <ns3:hr>123</ns3:hr>
            <ns3:cad>55</ns3:cad>
          </ns3:TrackPointExtension>
        </extensions>
      </trkpt>
      <trkpt lat="49.85969644971191883087158203125" lon="6.86655524186789989471435546875">
        <ele>311.399993896484375</ele>
        <time>2026-04-22T11:30:01.000Z</time>
        <extensions>
          <ns3:TrackPointExtension>
            <ns3:hr>123</ns3:hr>
            <ns3:cad>55</ns3:cad>
          </ns3:TrackPointExtension>
        </extensions>
      </trkpt>
      <trkpt lat="49.859666191041469573974609375" lon="6.866448707878589630126953125">
        <ele>310.600006103515625</ele>
        <time>2026-04-22T11:30:08.000Z</time>
        <extensions>
          <ns3:TrackPointExtension>
            <ns3:hr>122</ns3:hr>
            <ns3:cad>0</ns3:cad>
          </ns3:TrackPointExtension>
        </extensions>
      </trkpt>
      <trkpt lat="49.8596584796905517578125" lon="6.86642012558877468109130859375">
        <ele>310.399993896484375</ele>
        <time>2026-04-22T11:30:10.000Z</time>
        <extensions>
          <ns3:TrackPointExtension>
            <ns3:hr>122</ns3:hr>
            <ns3:cad>0</ns3:cad>
          </ns3:TrackPointExtension>
        </extensions>
      </trkpt>
      <trkpt lat="49.85963911749422550201416015625" lon="6.86636480502784252166748046875">
        <ele>309.79998779296875</ele>
        <time>2026-04-22T11:30:14.000Z</time>
        <extensions>
          <ns3:TrackPointExtension>
            <ns3:hr>122</ns3:hr>
            <ns3:cad>54</ns3:cad>
          </ns3:TrackPointExtension>
        </extensions>
      </trkpt>
      <trkpt lat="49.85962587408721446990966796875" lon="6.86632004566490650177001953125">
        <ele>309.399993896484375</ele>
        <time>2026-04-22T11:30:17.000Z</time>
        <extensions>
          <ns3:TrackPointExtension>
            <ns3:hr>122</ns3:hr>
            <ns3:cad>54</ns3:cad>
          </ns3:TrackPointExtension>
        </extensions>
      </trkpt>
      <trkpt lat="49.85962034203112125396728515625" lon="6.86630261130630970001220703125">
        <ele>309.399993896484375</ele>
        <time>2026-04-22T11:30:18.000Z</time>
        <extensions>
          <ns3:TrackPointExtension>
            <ns3:hr>122</ns3:hr>
            <ns3:cad>54</ns3:cad>
          </ns3:TrackPointExtension>
        </extensions>
      </trkpt>
      <trkpt lat="49.85960843972861766815185546875" lon="6.866187192499637603759765625">
        <ele>308.399993896484375</ele>
        <time>2026-04-22T11:30:25.000Z</time>
        <extensions>
          <ns3:TrackPointExtension>
            <ns3:hr>123</ns3:hr>
            <ns3:cad>55</ns3:cad>
          </ns3:TrackPointExtension>
        </extensions>
      </trkpt>
      <trkpt lat="49.85954993404448032379150390625" lon="6.86607831157743930816650390625">
        <ele>307.399993896484375</ele>
        <time>2026-04-22T11:30:32.000Z</time>
        <extensions>
          <ns3:TrackPointExtension>
            <ns3:hr>122</ns3:hr>
            <ns3:cad>0</ns3:cad>
          </ns3:TrackPointExtension>
        </extensions>
      </trkpt>
      <trkpt lat="49.85953803174197673797607421875" lon="6.8660167045891284942626953125">
        <ele>306.399993896484375</ele>
        <time>2026-04-22T11:30:38.000Z</time>
        <extensions>
          <ns3:TrackPointExtension>
            <ns3:hr>122</ns3:hr>
            <ns3:cad>54</ns3:cad>
          </ns3:TrackPointExtension>
        </extensions>
      </trkpt>
      <trkpt lat="49.85953266732394695281982421875" lon="6.8660036288201808929443359375">
        <ele>306.20001220703125</ele>
        <time>2026-04-22T11:30:39.000Z</time>
        <extensions>
          <ns3:TrackPointExtension>
            <ns3:hr>122</ns3:hr>
            <ns3:cad>54</ns3:cad>
          </ns3:TrackPointExtension>
        </extensions>
      </trkpt>
      <trkpt lat="49.85951288603246212005615234375" lon="6.86593540012836456298828125">
        <ele>305.20001220703125</ele>
        <time>2026-04-22T11:30:45.000Z</time>
        <extensions>
          <ns3:TrackPointExtension>
            <ns3:hr>122</ns3:hr>
            <ns3:cad>53</ns3:cad>
          </ns3:TrackPointExtension>
        </extensions>
      </trkpt>
      <trkpt lat="49.8595117963850498199462890625" lon="6.86589156277477741241455078125">
        <ele>304.600006103515625</ele>
        <time>2026-04-22T11:30:48.000Z</time>
        <extensions>
          <ns3:TrackPointExtension>
            <ns3:hr>122</ns3:hr>
            <ns3:cad>0</ns3:cad>
          </ns3:TrackPointExtension>
        </extensions>
      </trkpt>
      <trkpt lat="49.8595024086534976959228515625" lon="6.8658614717423915863037109375">
        <ele>304.20001220703125</ele>
        <time>2026-04-22T11:30:50.000Z</time>
        <extensions>
          <ns3:TrackPointExtension>
            <ns3:hr>122</ns3:hr>
            <ns3:cad>52</ns3:cad>
          </ns3:TrackPointExtension>
        </extensions>
      </trkpt>
      <trkpt lat="49.85948824323713779449462890625" lon="6.86580673791468143463134765625">
        <ele>303.20001220703125</ele>
        <time>2026-04-22T11:30:55.000Z</time>
        <extensions>
          <ns3:TrackPointExtension>
            <ns3:hr>121</ns3:hr>
            <ns3:cad>0</ns3:cad>
          </ns3:TrackPointExtension>
        </extensions>
      </trkpt>
      <trkpt lat="49.8594698868691921234130859375" lon="6.86578310094773769378662109375">
        <ele>302.79998779296875</ele>
        <time>2026-04-22T11:31:00.000Z</time>
        <extensions>
          <ns3:TrackPointExtension>
            <ns3:hr>121</ns3:hr>
            <ns3:cad>0</ns3:cad>
          </ns3:TrackPointExtension>
        </extensions>
      </trkpt>
      <trkpt lat="49.85938564874231815338134765625" lon="6.86578980647027492523193359375">
        <ele>302.600006103515625</ele>
        <time>2026-04-22T11:31:06.000Z</time>
        <extensions>
          <ns3:TrackPointExtension>
            <ns3:hr>122</ns3:hr>
            <ns3:cad>0</ns3:cad>
          </ns3:TrackPointExtension>
        </extensions>
      </trkpt>
      <trkpt lat="49.8593538813292980194091796875" lon="6.86576306819915771484375">
        <ele>302.600006103515625</ele>
        <time>2026-04-22T11:31:08.000Z</time>
        <extensions>
          <ns3:TrackPointExtension>
            <ns3:hr>122</ns3:hr>
            <ns3:cad>0</ns3:cad>
          </ns3:TrackPointExtension>
        </extensions>
      </trkpt>
      <trkpt lat="49.85928154550492763519287109375" lon="6.86571353115141391754150390625">
        <ele>302.600006103515625</ele>
        <time>2026-04-22T11:31:16.000Z</time>
        <extensions>
          <ns3:TrackPointExtension>
            <ns3:hr>122</ns3:hr>
            <ns3:cad>0</ns3:cad>
          </ns3:TrackPointExtension>
        </extensions>
      </trkpt>
      <trkpt lat="49.8591865785419940948486328125" lon="6.8657424487173557281494140625">
        <ele>302.399993896484375</ele>
        <time>2026-04-22T11:31:25.000Z</time>
        <extensions>
          <ns3:TrackPointExtension>
            <ns3:hr>123</ns3:hr>
            <ns3:cad>55</ns3:cad>
          </ns3:TrackPointExtension>
        </extensions>
      </trkpt>
      <trkpt lat="49.85914282500743865966796875" lon="6.86575124971568584442138671875">
        <ele>302</ele>
        <time>2026-04-22T11:31:28.000Z</time>
        <extensions>
          <ns3:TrackPointExtension>
            <ns3:hr>122</ns3:hr>
            <ns3:cad>56</ns3:cad>
          </ns3:TrackPointExtension>
        </extensions>
      </trkpt>
      <trkpt lat="49.85907266847789287567138671875" lon="6.86578108929097652435302734375">
        <ele>301.399993896484375</ele>
        <time>2026-04-22T11:31:34.000Z</time>
        <extensions>
          <ns3:TrackPointExtension>
            <ns3:hr>122</ns3:hr>
            <ns3:cad>57</ns3:cad>
          </ns3:TrackPointExtension>
        </extensions>
      </trkpt>
      <trkpt lat="49.858988933265209197998046875" lon="6.86583640985190868377685546875">
        <ele>301.600006103515625</ele>
        <time>2026-04-22T11:31:43.000Z</time>
        <extensions>
          <ns3:TrackPointExtension>
            <ns3:hr>122</ns3:hr>
            <ns3:cad>56</ns3:cad>
          </ns3:TrackPointExtension>
        </extensions>
      </trkpt>
      <trkpt lat="49.85890410840511322021484375" lon="6.8658849410712718963623046875">
        <ele>301</ele>
        <time>2026-04-22T11:31:50.000Z</time>
        <extensions>
          <ns3:TrackPointExtension>
            <ns3:hr>122</ns3:hr>
            <ns3:cad>0</ns3:cad>
          </ns3:TrackPointExtension>
        </extensions>
      </trkpt>
      <trkpt lat="49.858896397054195404052734375" lon="6.86588753946125507354736328125">
        <ele>301</ele>
        <time>2026-04-22T11:31:51.000Z</time>
        <extensions>
          <ns3:TrackPointExtension>
            <ns3:hr>122</ns3:hr>
            <ns3:cad>56</ns3:cad>
          </ns3:TrackPointExtension>
        </extensions>
      </trkpt>
      <trkpt lat="49.85887820832431316375732421875" lon="6.86589692719280719757080078125">
        <ele>300.79998779296875</ele>
        <time>2026-04-22T11:31:54.000Z</time>
        <extensions>
          <ns3:TrackPointExtension>
            <ns3:hr>122</ns3:hr>
            <ns3:cad>56</ns3:cad>
          </ns3:TrackPointExtension>
        </extensions>
      </trkpt>
      <trkpt lat="49.8588596843183040618896484375" lon="6.86592408455908298492431640625">
        <ele>300.79998779296875</ele>
        <time>2026-04-22T11:31:57.000Z</time>
        <extensions>
          <ns3:TrackPointExtension>
            <ns3:hr>122</ns3:hr>
            <ns3:cad>55</ns3:cad>
          </ns3:TrackPointExtension>
        </extensions>
      </trkpt>
      <trkpt lat="49.85883479006588459014892578125" lon="6.865951158106327056884765625">
        <ele>300.600006103515625</ele>
        <time>2026-04-22T11:32:00.000Z</time>
        <extensions>
          <ns3:TrackPointExtension>
            <ns3:hr>122</ns3:hr>
            <ns3:cad>55</ns3:cad>
          </ns3:TrackPointExtension>
        </extensions>
      </trkpt>
      <trkpt lat="49.85879958607256412506103515625" lon="6.8659949116408824920654296875">
        <ele>300.20001220703125</ele>
        <time>2026-04-22T11:32:04.000Z</time>
        <extensions>
          <ns3:TrackPointExtension>
            <ns3:hr>122</ns3:hr>
            <ns3:cad>56</ns3:cad>
          </ns3:TrackPointExtension>
        </extensions>
      </trkpt>
      <trkpt lat="49.85877997241914272308349609375" lon="6.8660042993724346160888671875">
        <ele>300</ele>
        <time>2026-04-22T11:32:06.000Z</time>
        <extensions>
          <ns3:TrackPointExtension>
            <ns3:hr>121</ns3:hr>
            <ns3:cad>56</ns3:cad>
          </ns3:TrackPointExtension>
        </extensions>
      </trkpt>
      <trkpt lat="49.85871861688792705535888671875" lon="6.86605014838278293609619140625">
        <ele>299.399993896484375</ele>
        <time>2026-04-22T11:32:12.000Z</time>
        <extensions>
          <ns3:TrackPointExtension>
            <ns3:hr>122</ns3:hr>
            <ns3:cad>57</ns3:cad>
          </ns3:TrackPointExtension>
        </extensions>
      </trkpt>
      <trkpt lat="49.8586266674101352691650390625" lon="6.8661399185657501220703125">
        <ele>299</ele>
        <time>2026-04-22T11:32:21.000Z</time>
        <extensions>
          <ns3:TrackPointExtension>
            <ns3:hr>121</ns3:hr>
            <ns3:cad>0</ns3:cad>
          </ns3:TrackPointExtension>
        </extensions>
      </trkpt>
      <trkpt lat="49.85854326747357845306396484375" lon="6.8662265874445438385009765625">
        <ele>298.20001220703125</ele>
        <time>2026-04-22T11:32:30.000Z</time>
        <extensions>
          <ns3:TrackPointExtension>
            <ns3:hr>121</ns3:hr>
            <ns3:cad>56</ns3:cad>
          </ns3:TrackPointExtension>
        </extensions>
      </trkpt>
      <trkpt lat="49.85853471793234348297119140625" lon="6.86623019166290760040283203125">
        <ele>298.20001220703125</ele>
        <time>2026-04-22T11:32:31.000Z</time>
        <extensions>
          <ns3:TrackPointExtension>
            <ns3:hr>121</ns3:hr>
            <ns3:cad>57</ns3:cad>
          </ns3:TrackPointExtension>
        </extensions>
      </trkpt>
      <trkpt lat="49.85851543955504894256591796875" lon="6.86625030823051929473876953125">
        <ele>298</ele>
        <time>2026-04-22T11:32:33.000Z</time>
        <extensions>
          <ns3:TrackPointExtension>
            <ns3:hr>121</ns3:hr>
            <ns3:cad>57</ns3:cad>
          </ns3:TrackPointExtension>
        </extensions>
      </trkpt>
      <trkpt lat="49.8584801517426967620849609375" lon="6.866297163069248199462890625">
        <ele>297.79998779296875</ele>
        <time>2026-04-22T11:32:36.000Z</time>
        <extensions>
          <ns3:TrackPointExtension>
            <ns3:hr>121</ns3:hr>
            <ns3:cad>56</ns3:cad>
          </ns3:TrackPointExtension>
        </extensions>
      </trkpt>
      <trkpt lat="49.85836154781281948089599609375" lon="6.8663714267313480377197265625">
        <ele>297.600006103515625</ele>
        <time>2026-04-22T11:32:44.000Z</time>
        <extensions>
          <ns3:TrackPointExtension>
            <ns3:hr>123</ns3:hr>
            <ns3:cad>57</ns3:cad>
          </ns3:TrackPointExtension>
        </extensions>
      </trkpt>
      <trkpt lat="49.8582528345286846160888671875" lon="6.86638198792934417724609375">
        <ele>297.79998779296875</ele>
        <time>2026-04-22T11:32:51.000Z</time>
        <extensions>
          <ns3:TrackPointExtension>
            <ns3:hr>123</ns3:hr>
            <ns3:cad>56</ns3:cad>
          </ns3:TrackPointExtension>
        </extensions>
      </trkpt>
      <trkpt lat="49.85822576098144054412841796875" lon="6.86637050472199916839599609375">
        <ele>297.600006103515625</ele>
        <time>2026-04-22T11:32:53.000Z</time>
        <extensions>
          <ns3:TrackPointExtension>
            <ns3:hr>124</ns3:hr>
            <ns3:cad>56</ns3:cad>
          </ns3:TrackPointExtension>
        </extensions>
      </trkpt>
      <trkpt lat="49.8581981845200061798095703125" lon="6.8663208000361919403076171875">
        <ele>297.600006103515625</ele>
        <time>2026-04-22T11:32:57.000Z</time>
        <extensions>
          <ns3:TrackPointExtension>
            <ns3:hr>125</ns3:hr>
            <ns3:cad>56</ns3:cad>
          </ns3:TrackPointExtension>
        </extensions>
      </trkpt>
      <trkpt lat="49.85816507600247859954833984375" lon="6.8662242405116558074951171875">
        <ele>297.79998779296875</ele>
        <time>2026-04-22T11:33:03.000Z</time>
        <extensions>
          <ns3:TrackPointExtension>
            <ns3:hr>126</ns3:hr>
            <ns3:cad>52</ns3:cad>
          </ns3:TrackPointExtension>
        </extensions>
      </trkpt>
      <trkpt lat="49.85811998136341571807861328125" lon="6.866089962422847747802734375">
        <ele>298.20001220703125</ele>
        <time>2026-04-22T11:33:11.000Z</time>
        <extensions>
          <ns3:TrackPointExtension>
            <ns3:hr>125</ns3:hr>
            <ns3:cad>0</ns3:cad>
          </ns3:TrackPointExtension>
        </extensions>
      </trkpt>
      <trkpt lat="49.85808528028428554534912109375" lon="6.866008825600147247314453125">
        <ele>298.600006103515625</ele>
        <time>2026-04-22T11:33:18.000Z</time>
        <extensions>
          <ns3:TrackPointExtension>
            <ns3:hr>124</ns3:hr>
            <ns3:cad>52</ns3:cad>
          </ns3:TrackPointExtension>
        </extensions>
      </trkpt>
      <trkpt lat="49.8580731265246868133544921875" lon="6.865977309644222259521484375">
        <ele>298.79998779296875</ele>
        <time>2026-04-22T11:33:20.000Z</time>
        <extensions>
          <ns3:TrackPointExtension>
            <ns3:hr>124</ns3:hr>
            <ns3:cad>52</ns3:cad>
          </ns3:TrackPointExtension>
        </extensions>
      </trkpt>
      <trkpt lat="49.858069606125354766845703125" lon="6.86595995910465717315673828125">
        <ele>299</ele>
        <time>2026-04-22T11:33:21.000Z</time>
        <extensions>
          <ns3:TrackPointExtension>
            <ns3:hr>125</ns3:hr>
            <ns3:cad>52</ns3:cad>
          </ns3:TrackPointExtension>
        </extensions>
      </trkpt>
      <trkpt lat="49.85802526585757732391357421875" lon="6.8658529222011566162109375">
        <ele>299.399993896484375</ele>
        <time>2026-04-22T11:33:28.000Z</time>
        <extensions>
          <ns3:TrackPointExtension>
            <ns3:hr>126</ns3:hr>
            <ns3:cad>0</ns3:cad>
          </ns3:TrackPointExtension>
        </extensions>
      </trkpt>
      <trkpt lat="49.85798302106559276580810546875" lon="6.8657706119120121002197265625">
        <ele>300.20001220703125</ele>
        <time>2026-04-22T11:33:35.000Z</time>
        <extensions>
          <ns3:TrackPointExtension>
            <ns3:hr>125</ns3:hr>
            <ns3:cad>48</ns3:cad>
          </ns3:TrackPointExtension>
        </extensions>
      </trkpt>
      <trkpt lat="49.8579561151564121246337890625" lon="6.8657504953444004058837890625">
        <ele>300.399993896484375</ele>
        <time>2026-04-22T11:33:38.000Z</time>
        <extensions>
          <ns3:TrackPointExtension>
            <ns3:hr>126</ns3:hr>
            <ns3:cad>48</ns3:cad>
          </ns3:TrackPointExtension>
        </extensions>
      </trkpt>
      <trkpt lat="49.857917390763759613037109375" lon="6.86570196412503719329833984375">
        <ele>301.20001220703125</ele>
        <time>2026-04-22T11:33:44.000Z</time>
        <extensions>
          <ns3:TrackPointExtension>
            <ns3:hr>127</ns3:hr>
            <ns3:cad>46</ns3:cad>
          </ns3:TrackPointExtension>
        </extensions>
      </trkpt>
      <trkpt lat="49.85790942795574665069580078125" lon="6.8656877987086772918701171875">
        <ele>301.399993896484375</ele>
        <time>2026-04-22T11:33:45.000Z</time>
        <extensions>
          <ns3:TrackPointExtension>
            <ns3:hr>127</ns3:hr>
            <ns3:cad>47</ns3:cad>
          </ns3:TrackPointExtension>
        </extensions>
      </trkpt>
      <trkpt lat="49.85787372104823589324951171875" lon="6.86566374264657497406005859375">
        <ele>302</ele>
        <time>2026-04-22T11:33:51.000Z</time>
        <extensions>
          <ns3:TrackPointExtension>
            <ns3:hr>126</ns3:hr>
            <ns3:cad>47</ns3:cad>
          </ns3:TrackPointExtension>
        </extensions>
      </trkpt>
      <trkpt lat="49.8578518442809581756591796875" lon="6.8656437098979949951171875">
        <ele>302.399993896484375</ele>
        <time>2026-04-22T11:33:55.000Z</time>
        <extensions>
          <ns3:TrackPointExtension>
            <ns3:hr>126</ns3:hr>
            <ns3:cad>47</ns3:cad>
          </ns3:TrackPointExtension>
        </extensions>
      </trkpt>
      <trkpt lat="49.85780750401318073272705078125" lon="6.86561093665659427642822265625">
        <ele>302.79998779296875</ele>
        <time>2026-04-22T11:33:59.000Z</time>
        <extensions>
          <ns3:TrackPointExtension>
            <ns3:hr>127</ns3:hr>
            <ns3:cad>47</ns3:cad>
          </ns3:TrackPointExtension>
        </extensions>
      </trkpt>
      <trkpt lat="49.85772485844790935516357421875" lon="6.8655094318091869354248046875">
        <ele>303</ele>
        <time>2026-04-22T11:34:06.000Z</time>
        <extensions>
          <ns3:TrackPointExtension>
            <ns3:hr>127</ns3:hr>
            <ns3:cad>47</ns3:cad>
          </ns3:TrackPointExtension>
        </extensions>
      </trkpt>
      <trkpt lat="49.8576872237026691436767578125" lon="6.8654935061931610107421875">
        <ele>303.399993896484375</ele>
        <time>2026-04-22T11:34:10.000Z</time>
        <extensions>
          <ns3:TrackPointExtension>
            <ns3:hr>128</ns3:hr>
            <ns3:cad>47</ns3:cad>
          </ns3:TrackPointExtension>
        </extensions>
      </trkpt>
      <trkpt lat="49.85768076963722705841064453125" lon="6.86548789031803607940673828125">
        <ele>303.600006103515625</ele>
        <time>2026-04-22T11:34:11.000Z</time>
        <extensions>
          <ns3:TrackPointExtension>
            <ns3:hr>128</ns3:hr>
            <ns3:cad>47</ns3:cad>
          </ns3:TrackPointExtension>
        </extensions>
      </trkpt>
      <trkpt lat="49.857665598392486572265625" lon="6.86547531746327877044677734375">
        <ele>303.600006103515625</ele>
        <time>2026-04-22T11:34:13.000Z</time>
        <extensions>
          <ns3:TrackPointExtension>
            <ns3:hr>128</ns3:hr>
            <ns3:cad>47</ns3:cad>
          </ns3:TrackPointExtension>
        </extensions>
      </trkpt>
      <trkpt lat="49.85763953067362308502197265625" lon="6.86545637436211109161376953125">
        <ele>303.79998779296875</ele>
        <time>2026-04-22T11:34:16.000Z</time>
        <extensions>
          <ns3:TrackPointExtension>
            <ns3:hr>128</ns3:hr>
            <ns3:cad>47</ns3:cad>
          </ns3:TrackPointExtension>
        </extensions>
      </trkpt>
      <trkpt lat="49.85763131640851497650146484375" lon="6.865438856184482574462890625">
        <ele>303.79998779296875</ele>
        <time>2026-04-22T11:34:18.000Z</time>
        <extensions>
          <ns3:TrackPointExtension>
            <ns3:hr>128</ns3:hr>
            <ns3:cad>47</ns3:cad>
          </ns3:TrackPointExtension>
        </extensions>
      </trkpt>
      <trkpt lat="49.85756509937345981597900390625" lon="6.8653220124542713165283203125">
        <ele>304.20001220703125</ele>
        <time>2026-04-22T11:34:27.000Z</time>
        <extensions>
          <ns3:TrackPointExtension>
            <ns3:hr>127</ns3:hr>
            <ns3:cad>46</ns3:cad>
          </ns3:TrackPointExtension>
        </extensions>
      </trkpt>
      <trkpt lat="49.857536852359771728515625" lon="6.86524917371571063995361328125">
        <ele>304.600006103515625</ele>
        <time>2026-04-22T11:34:33.000Z</time>
        <extensions>
          <ns3:TrackPointExtension>
            <ns3:hr>127</ns3:hr>
            <ns3:cad>47</ns3:cad>
          </ns3:TrackPointExtension>
        </extensions>
      </trkpt>
      <trkpt lat="49.85752017237246036529541015625" lon="6.86523735523223876953125">
        <ele>304.79998779296875</ele>
        <time>2026-04-22T11:34:35.000Z</time>
        <extensions>
          <ns3:TrackPointExtension>
            <ns3:hr>127</ns3:hr>
            <ns3:cad>46</ns3:cad>
          </ns3:TrackPointExtension>
        </extensions>
      </trkpt>
      <trkpt lat="49.8574692942202091217041015625" lon="6.8651617504656314849853515625">
        <ele>305.399993896484375</ele>
        <time>2026-04-22T11:34:44.000Z</time>
        <extensions>
          <ns3:TrackPointExtension>
            <ns3:hr>129</ns3:hr>
            <ns3:cad>47</ns3:cad>
          </ns3:TrackPointExtension>
        </extensions>
      </trkpt>
      <trkpt lat="49.8574401251971721649169921875" lon="6.8650992214679718017578125">
        <ele>305.600006103515625</ele>
        <time>2026-04-22T11:34:49.000Z</time>
        <extensions>
          <ns3:TrackPointExtension>
            <ns3:hr>131</ns3:hr>
            <ns3:cad>47</ns3:cad>
          </ns3:TrackPointExtension>
        </extensions>
      </trkpt>
      <trkpt lat="49.85743467696011066436767578125" lon="6.8650702200829982757568359375">
        <ele>305.600006103515625</ele>
        <time>2026-04-22T11:34:50.000Z</time>
        <extensions>
          <ns3:TrackPointExtension>
            <ns3:hr>130</ns3:hr>
            <ns3:cad>47</ns3:cad>
          </ns3:TrackPointExtension>
        </extensions>
      </trkpt>
      <trkpt lat="49.857364185154438018798828125" lon="6.86499335803091526031494140625">
        <ele>306</ele>
        <time>2026-04-22T11:34:57.000Z</time>
        <extensions>
          <ns3:TrackPointExtension>
            <ns3:hr>130</ns3:hr>
            <ns3:cad>47</ns3:cad>
          </ns3:TrackPointExtension>
        </extensions>
      </trkpt>
      <trkpt lat="49.85729553736746311187744140625" lon="6.86487726867198944091796875">
        <ele>306.600006103515625</ele>
        <time>2026-04-22T11:35:06.000Z</time>
        <extensions>
          <ns3:TrackPointExtension>
            <ns3:hr>131</ns3:hr>
            <ns3:cad>48</ns3:cad>
          </ns3:TrackPointExtension>
        </extensions>
      </trkpt>
      <trkpt lat="49.8572781868278980255126953125" lon="6.86485036276280879974365234375">
        <ele>306.600006103515625</ele>
        <time>2026-04-22T11:35:08.000Z</time>
        <extensions>
          <ns3:TrackPointExtension>
            <ns3:hr>131</ns3:hr>
            <ns3:cad>48</ns3:cad>
          </ns3:TrackPointExtension>
        </extensions>
      </trkpt>
      <trkpt lat="49.8572324216365814208984375" lon="6.8648177571594715118408203125">
        <ele>307</ele>
        <time>2026-04-22T11:35:15.000Z</time>
        <extensions>
          <ns3:TrackPointExtension>
            <ns3:hr>131</ns3:hr>
            <ns3:cad>49</ns3:cad>
          </ns3:TrackPointExtension>
        </extensions>
      </trkpt>
      <trkpt lat="49.857176430523395538330078125" lon="6.86476838774979114532470703125">
        <ele>307.399993896484375</ele>
        <time>2026-04-22T11:35:21.000Z</time>
        <extensions>
          <ns3:TrackPointExtension>
            <ns3:hr>131</ns3:hr>
            <ns3:cad>48</ns3:cad>
          </ns3:TrackPointExtension>
        </extensions>
      </trkpt>
      <trkpt lat="49.85715153627097606658935546875" lon="6.86473938636481761932373046875">
        <ele>307.79998779296875</ele>
        <time>2026-04-22T11:35:24.000Z</time>
        <extensions>
          <ns3:TrackPointExtension>
            <ns3:hr>130</ns3:hr>
            <ns3:cad>48</ns3:cad>
          </ns3:TrackPointExtension>
        </extensions>
      </trkpt>
      <trkpt lat="49.8570803739130496978759765625" lon="6.86467744410037994384765625">
        <ele>308.20001220703125</ele>
        <time>2026-04-22T11:35:31.000Z</time>
        <extensions>
          <ns3:TrackPointExtension>
            <ns3:hr>130</ns3:hr>
            <ns3:cad>47</ns3:cad>
          </ns3:TrackPointExtension>
        </extensions>
      </trkpt>
      <trkpt lat="49.857058413326740264892578125" lon="6.8646477721631526947021484375">
        <ele>308.20001220703125</ele>
        <time>2026-04-22T11:35:34.000Z</time>
        <extensions>
          <ns3:TrackPointExtension>
            <ns3:hr>130</ns3:hr>
            <ns3:cad>47</ns3:cad>
          </ns3:TrackPointExtension>
        </extensions>
      </trkpt>
      <trkpt lat="49.8570160008966922760009765625" lon="6.864587925374507904052734375">
        <ele>308.399993896484375</ele>
        <time>2026-04-22T11:35:40.000Z</time>
        <extensions>
          <ns3:TrackPointExtension>
            <ns3:hr>131</ns3:hr>
            <ns3:cad>48</ns3:cad>
          </ns3:TrackPointExtension>
        </extensions>
      </trkpt>
      <trkpt lat="49.8570069484412670135498046875" lon="6.86457577161490917205810546875">
        <ele>308.399993896484375</ele>
        <time>2026-04-22T11:35:41.000Z</time>
        <extensions>
          <ns3:TrackPointExtension>
            <ns3:hr>131</ns3:hr>
            <ns3:cad>48</ns3:cad>
          </ns3:TrackPointExtension>
        </extensions>
      </trkpt>
      <trkpt lat="49.85695305280387401580810546875" lon="6.86450846493244171142578125">
        <ele>308.600006103515625</ele>
        <time>2026-04-22T11:35:47.000Z</time>
        <extensions>
          <ns3:TrackPointExtension>
            <ns3:hr>130</ns3:hr>
            <ns3:cad>49</ns3:cad>
          </ns3:TrackPointExtension>
        </extensions>
      </trkpt>
      <trkpt lat="49.85693980939686298370361328125" lon="6.8644868396222591400146484375">
        <ele>308.79998779296875</ele>
        <time>2026-04-22T11:35:49.000Z</time>
        <extensions>
          <ns3:TrackPointExtension>
            <ns3:hr>131</ns3:hr>
            <ns3:cad>49</ns3:cad>
          </ns3:TrackPointExtension>
        </extensions>
      </trkpt>
      <trkpt lat="49.8568916134536266326904296875" lon="6.8644325248897075653076171875">
        <ele>309.600006103515625</ele>
        <time>2026-04-22T11:35:55.000Z</time>
        <extensions>
          <ns3:TrackPointExtension>
            <ns3:hr>131</ns3:hr>
            <ns3:cad>48</ns3:cad>
          </ns3:TrackPointExtension>
        </extensions>
      </trkpt>
      <trkpt lat="49.85688306391239166259765625" lon="6.86442489735782146453857421875">
        <ele>309.79998779296875</ele>
        <time>2026-04-22T11:35:56.000Z</time>
        <extensions>
          <ns3:TrackPointExtension>
            <ns3:hr>131</ns3:hr>
            <ns3:cad>48</ns3:cad>
          </ns3:TrackPointExtension>
        </extensions>
      </trkpt>
      <trkpt lat="49.8568429984152317047119140625" lon="6.86436387710273265838623046875">
        <ele>310.399993896484375</ele>
        <time>2026-04-22T11:36:02.000Z</time>
        <extensions>
          <ns3:TrackPointExtension>
            <ns3:hr>131</ns3:hr>
            <ns3:cad>48</ns3:cad>
          </ns3:TrackPointExtension>
        </extensions>
      </trkpt>
      <trkpt lat="49.85680519603192806243896484375" lon="6.86432263813912868499755859375">
        <ele>310.79998779296875</ele>
        <time>2026-04-22T11:36:05.000Z</time>
        <extensions>
          <ns3:TrackPointExtension>
            <ns3:hr>132</ns3:hr>
            <ns3:cad>48</ns3:cad>
          </ns3:TrackPointExtension>
        </extensions>
      </trkpt>
      <trkpt lat="49.85675272531807422637939453125" lon="6.86425357125699520111083984375">
        <ele>311.399993896484375</ele>
        <time>2026-04-22T11:36:11.000Z</time>
        <extensions>
          <ns3:TrackPointExtension>
            <ns3:hr>131</ns3:hr>
            <ns3:cad>49</ns3:cad>
          </ns3:TrackPointExtension>
        </extensions>
      </trkpt>
      <trkpt lat="49.8567011766135692596435546875" lon="6.8642035312950611114501953125">
        <ele>311.79998779296875</ele>
        <time>2026-04-22T11:36:18.000Z</time>
        <extensions>
          <ns3:TrackPointExtension>
            <ns3:hr>131</ns3:hr>
            <ns3:cad>50</ns3:cad>
          </ns3:TrackPointExtension>
        </extensions>
      </trkpt>
      <trkpt lat="49.8566844128072261810302734375" lon="6.86419003643095493316650390625">
        <ele>311.79998779296875</ele>
        <time>2026-04-22T11:36:19.000Z</time>
        <extensions>
          <ns3:TrackPointExtension>
            <ns3:hr>131</ns3:hr>
            <ns3:cad>50</ns3:cad>
          </ns3:TrackPointExtension>
        </extensions>
      </trkpt>
      <trkpt lat="49.8566267453134059906005859375" lon="6.86412130482494831085205078125">
        <ele>312</ele>
        <time>2026-04-22T11:36:26.000Z</time>
        <extensions>
          <ns3:TrackPointExtension>
            <ns3:hr>130</ns3:hr>
            <ns3:cad>49</ns3:cad>
          </ns3:TrackPointExtension>
        </extensions>
      </trkpt>
      <trkpt lat="49.85660872422158718109130859375" lon="6.86408911831676959991455078125">
        <ele>311.79998779296875</ele>
        <time>2026-04-22T11:36:29.000Z</time>
        <extensions>
          <ns3:TrackPointExtension>
            <ns3:hr>129</ns3:hr>
            <ns3:cad>50</ns3:cad>
          </ns3:TrackPointExtension>
        </extensions>
      </trkpt>
      <trkpt lat="49.85653362236917018890380859375" lon="6.86393581330776214599609375">
        <ele>312</ele>
        <time>2026-04-22T11:36:39.000Z</time>
        <extensions>
          <ns3:TrackPointExtension>
            <ns3:hr>129</ns3:hr>
            <ns3:cad>49</ns3:cad>
          </ns3:TrackPointExtension>
        </extensions>
      </trkpt>
      <trkpt lat="49.8565167747437953948974609375" lon="6.86390588991343975067138671875">
        <ele>312</ele>
        <time>2026-04-22T11:36:41.000Z</time>
        <extensions>
          <ns3:TrackPointExtension>
            <ns3:hr>129</ns3:hr>
            <ns3:cad>49</ns3:cad>
          </ns3:TrackPointExtension>
        </extensions>
      </trkpt>
      <trkpt lat="49.856498502194881439208984375" lon="6.86385266482830047607421875">
        <ele>312.399993896484375</ele>
        <time>2026-04-22T11:36:45.000Z</time>
        <extensions>
          <ns3:TrackPointExtension>
            <ns3:hr>129</ns3:hr>
            <ns3:cad>50</ns3:cad>
          </ns3:TrackPointExtension>
        </extensions>
      </trkpt>
      <trkpt lat="49.85649506561458110809326171875" lon="6.8638390861451625823974609375">
        <ele>312.399993896484375</ele>
        <time>2026-04-22T11:36:46.000Z</time>
        <extensions>
          <ns3:TrackPointExtension>
            <ns3:hr>129</ns3:hr>
            <ns3:cad>50</ns3:cad>
          </ns3:TrackPointExtension>
        </extensions>
      </trkpt>
      <trkpt lat="49.85644695349037647247314453125" lon="6.863759458065032958984375">
        <ele>312.600006103515625</ele>
        <time>2026-04-22T11:36:53.000Z</time>
        <extensions>
          <ns3:TrackPointExtension>
            <ns3:hr>128</ns3:hr>
            <ns3:cad>50</ns3:cad>
          </ns3:TrackPointExtension>
        </extensions>
      </trkpt>
      <trkpt lat="49.8564111627638339996337890625" lon="6.863704137504100799560546875">
        <ele>312.600006103515625</ele>
        <time>2026-04-22T11:36:57.000Z</time>
        <extensions>
          <ns3:TrackPointExtension>
            <ns3:hr>128</ns3:hr>
            <ns3:cad>50</ns3:cad>
          </ns3:TrackPointExtension>
        </extensions>
      </trkpt>
      <trkpt lat="49.85639364458620548248291015625" lon="6.863677315413951873779296875">
        <ele>312.600006103515625</ele>
        <time>2026-04-22T11:36:59.000Z</time>
        <extensions>
          <ns3:TrackPointExtension>
            <ns3:hr>128</ns3:hr>
            <ns3:cad>50</ns3:cad>
          </ns3:TrackPointExtension>
        </extensions>
      </trkpt>
      <trkpt lat="49.856331534683704376220703125" lon="6.8635306321084499359130859375">
        <ele>312.600006103515625</ele>
        <time>2026-04-22T11:37:08.000Z</time>
        <extensions>
          <ns3:TrackPointExtension>
            <ns3:hr>127</ns3:hr>
            <ns3:cad>52</ns3:cad>
          </ns3:TrackPointExtension>
        </extensions>
      </trkpt>
      <trkpt lat="49.85630027018487453460693359375" lon="6.8634270317852497100830078125">
        <ele>312.399993896484375</ele>
        <time>2026-04-22T11:37:15.000Z</time>
        <extensions>
          <ns3:TrackPointExtension>
            <ns3:hr>127</ns3:hr>
            <ns3:cad>53</ns3:cad>
          </ns3:TrackPointExtension>
        </extensions>
      </trkpt>
      <trkpt lat="49.8562713526189327239990234375" lon="6.86333776451647281646728515625">
        <ele>312.600006103515625</ele>
        <time>2026-04-22T11:37:22.000Z</time>
        <extensions>
          <ns3:TrackPointExtension>
            <ns3:hr>128</ns3:hr>
            <ns3:cad>52</ns3:cad>
          </ns3:TrackPointExtension>
        </extensions>
      </trkpt>
      <trkpt lat="49.85624712891876697540283203125" lon="6.86328428797423839569091796875">
        <ele>313</ele>
        <time>2026-04-22T11:37:26.000Z</time>
        <extensions>
          <ns3:TrackPointExtension>
            <ns3:hr>128</ns3:hr>
            <ns3:cad>53</ns3:cad>
          </ns3:TrackPointExtension>
        </extensions>
      </trkpt>
      <trkpt lat="49.85623396933078765869140625" lon="6.8632349185645580291748046875">
        <ele>313.20001220703125</ele>
        <time>2026-04-22T11:37:28.000Z</time>
        <extensions>
          <ns3:TrackPointExtension>
            <ns3:hr>128</ns3:hr>
            <ns3:cad>53</ns3:cad>
          </ns3:TrackPointExtension>
        </extensions>
      </trkpt>
      <trkpt lat="49.85622994601726531982421875" lon="6.86322175897657871246337890625">
        <ele>313.20001220703125</ele>
        <time>2026-04-22T11:37:29.000Z</time>
        <extensions>
          <ns3:TrackPointExtension>
            <ns3:hr>128</ns3:hr>
            <ns3:cad>53</ns3:cad>
          </ns3:TrackPointExtension>
        </extensions>
      </trkpt>
      <trkpt lat="49.8561804927885532379150390625" lon="6.86317213810980319976806640625">
        <ele>313.399993896484375</ele>
        <time>2026-04-22T11:37:35.000Z</time>
        <extensions>
          <ns3:TrackPointExtension>
            <ns3:hr>128</ns3:hr>
            <ns3:cad>54</ns3:cad>
          </ns3:TrackPointExtension>
        </extensions>
      </trkpt>
      <trkpt lat="49.8561503179371356964111328125" lon="6.863061748445034027099609375">
        <ele>313.399993896484375</ele>
        <time>2026-04-22T11:37:42.000Z</time>
        <extensions>
          <ns3:TrackPointExtension>
            <ns3:hr>128</ns3:hr>
            <ns3:cad>54</ns3:cad>
          </ns3:TrackPointExtension>
        </extensions>
      </trkpt>
      <trkpt lat="49.85610497184097766876220703125" lon="6.86292135156691074371337890625">
        <ele>313.399993896484375</ele>
        <time>2026-04-22T11:37:51.000Z</time>
        <extensions>
          <ns3:TrackPointExtension>
            <ns3:hr>127</ns3:hr>
            <ns3:cad>54</ns3:cad>
          </ns3:TrackPointExtension>
        </extensions>
      </trkpt>
      <trkpt lat="49.85603339038789272308349609375" lon="6.8627960421144962310791015625">
        <ele>313.600006103515625</ele>
        <time>2026-04-22T11:37:59.000Z</time>
        <extensions>
          <ns3:TrackPointExtension>
            <ns3:hr>127</ns3:hr>
            <ns3:cad>53</ns3:cad>
          </ns3:TrackPointExtension>
        </extensions>
      </trkpt>
      <trkpt lat="49.8560120165348052978515625" lon="6.86277315951883792877197265625">
        <ele>313.600006103515625</ele>
        <time>2026-04-22T11:38:01.000Z</time>
        <extensions>
          <ns3:TrackPointExtension>
            <ns3:hr>127</ns3:hr>
            <ns3:cad>54</ns3:cad>
          </ns3:TrackPointExtension>
        </extensions>
      </trkpt>
      <trkpt lat="49.85597823746502399444580078125" lon="6.86270442791283130645751953125">
        <ele>313.79998779296875</ele>
        <time>2026-04-22T11:38:06.000Z</time>
        <extensions>
          <ns3:TrackPointExtension>
            <ns3:hr>127</ns3:hr>
            <ns3:cad>54</ns3:cad>
          </ns3:TrackPointExtension>
        </extensions>
      </trkpt>
      <trkpt lat="49.8559518344700336456298828125" lon="6.86264977790415287017822265625">
        <ele>313.600006103515625</ele>
        <time>2026-04-22T11:38:10.000Z</time>
        <extensions>
          <ns3:TrackPointExtension>
            <ns3:hr>127</ns3:hr>
            <ns3:cad>54</ns3:cad>
          </ns3:TrackPointExtension>
        </extensions>
      </trkpt>
      <trkpt lat="49.85593230463564395904541015625" lon="6.86258791945874691009521484375">
        <ele>313.79998779296875</ele>
        <time>2026-04-22T11:38:14.000Z</time>
        <extensions>
          <ns3:TrackPointExtension>
            <ns3:hr>127</ns3:hr>
            <ns3:cad>54</ns3:cad>
          </ns3:TrackPointExtension>
        </extensions>
      </trkpt>
      <trkpt lat="49.85588955692946910858154296875" lon="6.86248582787811756134033203125">
        <ele>313.79998779296875</ele>
        <time>2026-04-22T11:38:22.000Z</time>
        <extensions>
          <ns3:TrackPointExtension>
            <ns3:hr>127</ns3:hr>
            <ns3:cad>53</ns3:cad>
          </ns3:TrackPointExtension>
        </extensions>
      </trkpt>
      <trkpt lat="49.855857454240322113037109375" lon="6.86243151314556598663330078125">
        <ele>314</ele>
        <time>2026-04-22T11:38:26.000Z</time>
        <extensions>
          <ns3:TrackPointExtension>
            <ns3:hr>126</ns3:hr>
            <ns3:cad>53</ns3:cad>
          </ns3:TrackPointExtension>
        </extensions>
      </trkpt>
      <trkpt lat="49.8558485694229602813720703125" lon="6.8624158389866352081298828125">
        <ele>314</ele>
        <time>2026-04-22T11:38:27.000Z</time>
        <extensions>
          <ns3:TrackPointExtension>
            <ns3:hr>126</ns3:hr>
            <ns3:cad>54</ns3:cad>
          </ns3:TrackPointExtension>
        </extensions>
      </trkpt>
      <trkpt lat="49.8557888902723789215087890625" lon="6.8623016774654388427734375">
        <ele>314.20001220703125</ele>
        <time>2026-04-22T11:38:34.000Z</time>
        <extensions>
          <ns3:TrackPointExtension>
            <ns3:hr>127</ns3:hr>
            <ns3:cad>0</ns3:cad>
          </ns3:TrackPointExtension>
        </extensions>
      </trkpt>
      <trkpt lat="49.85577397048473358154296875" lon="6.86226923950016498565673828125">
        <ele>314.20001220703125</ele>
        <time>2026-04-22T11:38:37.000Z</time>
        <extensions>
          <ns3:TrackPointExtension>
            <ns3:hr>126</ns3:hr>
            <ns3:cad>53</ns3:cad>
          </ns3:TrackPointExtension>
        </extensions>
      </trkpt>
      <trkpt lat="49.8557518422603607177734375" lon="6.86223738826811313629150390625">
        <ele>314.399993896484375</ele>
        <time>2026-04-22T11:38:40.000Z</time>
        <extensions>
          <ns3:TrackPointExtension>
            <ns3:hr>126</ns3:hr>
            <ns3:cad>55</ns3:cad>
          </ns3:TrackPointExtension>
        </extensions>
      </trkpt>
      <trkpt lat="49.8556874692440032958984375" lon="6.862108893692493438720703125">
        <ele>314.600006103515625</ele>
        <time>2026-04-22T11:38:51.000Z</time>
        <extensions>
          <ns3:TrackPointExtension>
            <ns3:hr>126</ns3:hr>
            <ns3:cad>55</ns3:cad>
          </ns3:TrackPointExtension>
        </extensions>
      </trkpt>
      <trkpt lat="49.85564832575619220733642578125" lon="6.8619873560965061187744140625">
        <ele>314.600006103515625</ele>
        <time>2026-04-22T11:38:59.000Z</time>
        <extensions>
          <ns3:TrackPointExtension>
            <ns3:hr>125</ns3:hr>
            <ns3:cad>53</ns3:cad>
          </ns3:TrackPointExtension>
        </extensions>
      </trkpt>
      <trkpt lat="49.85563072375953197479248046875" lon="6.86196598224341869354248046875">
        <ele>314.600006103515625</ele>
        <time>2026-04-22T11:39:01.000Z</time>
        <extensions>
          <ns3:TrackPointExtension>
            <ns3:hr>125</ns3:hr>
            <ns3:cad>55</ns3:cad>
          </ns3:TrackPointExtension>
        </extensions>
      </trkpt>
      <trkpt lat="49.8555894009768962860107421875" lon="6.86189171858131885528564453125">
        <ele>314.600006103515625</ele>
        <time>2026-04-22T11:39:06.000Z</time>
        <extensions>
          <ns3:TrackPointExtension>
            <ns3:hr>125</ns3:hr>
            <ns3:cad>0</ns3:cad>
          </ns3:TrackPointExtension>
        </extensions>
      </trkpt>
      <trkpt lat="49.855557717382907867431640625" lon="6.86180689372122287750244140625">
        <ele>314.600006103515625</ele>
        <time>2026-04-22T11:39:13.000Z</time>
        <extensions>
          <ns3:TrackPointExtension>
            <ns3:hr>125</ns3:hr>
            <ns3:cad>53</ns3:cad>
          </ns3:TrackPointExtension>
        </extensions>
      </trkpt>
      <trkpt lat="49.85556031577289104461669921875" lon="6.86179314740002155303955078125">
        <ele>314.600006103515625</ele>
        <time>2026-04-22T11:39:14.000Z</time>
        <extensions>
          <ns3:TrackPointExtension>
            <ns3:hr>125</ns3:hr>
            <ns3:cad>55</ns3:cad>
          </ns3:TrackPointExtension>
        </extensions>
      </trkpt>
      <trkpt lat="49.85556048341095447540283203125" lon="6.86177973635494709014892578125">
        <ele>314.600006103515625</ele>
        <time>2026-04-22T11:39:15.000Z</time>
        <extensions>
          <ns3:TrackPointExtension>
            <ns3:hr>125</ns3:hr>
            <ns3:cad>55</ns3:cad>
          </ns3:TrackPointExtension>
        </extensions>
      </trkpt>
      <trkpt lat="49.85551890917122364044189453125" lon="6.861710250377655029296875">
        <ele>315</ele>
        <time>2026-04-22T11:39:20.000Z</time>
        <extensions>
          <ns3:TrackPointExtension>
            <ns3:hr>126</ns3:hr>
            <ns3:cad>54</ns3:cad>
          </ns3:TrackPointExtension>
        </extensions>
      </trkpt>
      <trkpt lat="49.855506084859371185302734375" lon="6.86168468557298183441162109375">
        <ele>315</ele>
        <time>2026-04-22T11:39:21.000Z</time>
        <extensions>
          <ns3:TrackPointExtension>
            <ns3:hr>126</ns3:hr>
            <ns3:cad>55</ns3:cad>
          </ns3:TrackPointExtension>
        </extensions>
      </trkpt>
      <trkpt lat="49.85546140931546688079833984375" lon="6.8616202287375926971435546875">
        <ele>315.20001220703125</ele>
        <time>2026-04-22T11:39:25.000Z</time>
        <extensions>
          <ns3:TrackPointExtension>
            <ns3:hr>126</ns3:hr>
            <ns3:cad>55</ns3:cad>
          </ns3:TrackPointExtension>
        </extensions>
      </trkpt>
      <trkpt lat="49.8554422147572040557861328125" lon="6.86159466393291950225830078125">
        <ele>315.399993896484375</ele>
        <time>2026-04-22T11:39:27.000Z</time>
        <extensions>
          <ns3:TrackPointExtension>
            <ns3:hr>126</ns3:hr>
            <ns3:cad>55</ns3:cad>
          </ns3:TrackPointExtension>
        </extensions>
      </trkpt>
      <trkpt lat="49.85542528331279754638671875" lon="6.861545629799365997314453125">
        <ele>315.399993896484375</ele>
        <time>2026-04-22T11:39:30.000Z</time>
        <extensions>
          <ns3:TrackPointExtension>
            <ns3:hr>126</ns3:hr>
            <ns3:cad>55</ns3:cad>
          </ns3:TrackPointExtension>
        </extensions>
      </trkpt>
      <trkpt lat="49.85540608875453472137451171875" lon="6.8614908121526241302490234375">
        <ele>315.600006103515625</ele>
        <time>2026-04-22T11:39:34.000Z</time>
        <extensions>
          <ns3:TrackPointExtension>
            <ns3:hr>126</ns3:hr>
            <ns3:cad>54</ns3:cad>
          </ns3:TrackPointExtension>
        </extensions>
      </trkpt>
      <trkpt lat="49.85533769242465496063232421875" lon="6.86139517463743686676025390625">
        <ele>315.79998779296875</ele>
        <time>2026-04-22T11:39:42.000Z</time>
        <extensions>
          <ns3:TrackPointExtension>
            <ns3:hr>127</ns3:hr>
            <ns3:cad>54</ns3:cad>
          </ns3:TrackPointExtension>
        </extensions>
      </trkpt>
      <trkpt lat="49.855331070721149444580078125" lon="6.86138209886848926544189453125">
        <ele>315.79998779296875</ele>
        <time>2026-04-22T11:39:43.000Z</time>
        <extensions>
          <ns3:TrackPointExtension>
            <ns3:hr>128</ns3:hr>
            <ns3:cad>54</ns3:cad>
          </ns3:TrackPointExtension>
        </extensions>
      </trkpt>
      <trkpt lat="49.8553198389708995819091796875" lon="6.86135896481573581695556640625">
        <ele>315.79998779296875</ele>
        <time>2026-04-22T11:39:45.000Z</time>
        <extensions>
          <ns3:TrackPointExtension>
            <ns3:hr>127</ns3:hr>
            <ns3:cad>53</ns3:cad>
          </ns3:TrackPointExtension>
        </extensions>
      </trkpt>
      <trkpt lat="49.85526703298091888427734375" lon="6.86127497814595699310302734375">
        <ele>315.79998779296875</ele>
        <time>2026-04-22T11:39:51.000Z</time>
        <extensions>
          <ns3:TrackPointExtension>
            <ns3:hr>127</ns3:hr>
            <ns3:cad>54</ns3:cad>
          </ns3:TrackPointExtension>
        </extensions>
      </trkpt>
      <trkpt lat="49.8552172444760799407958984375" lon="6.86118043027818202972412109375">
        <ele>316</ele>
        <time>2026-04-22T11:39:57.000Z</time>
        <extensions>
          <ns3:TrackPointExtension>
            <ns3:hr>127</ns3:hr>
            <ns3:cad>54</ns3:cad>
          </ns3:TrackPointExtension>
        </extensions>
      </trkpt>
      <trkpt lat="49.85521045513451099395751953125" lon="6.8611692823469638824462890625">
        <ele>316</ele>
        <time>2026-04-22T11:39:59.000Z</time>
        <extensions>
          <ns3:TrackPointExtension>
            <ns3:hr>127</ns3:hr>
            <ns3:cad>54</ns3:cad>
          </ns3:TrackPointExtension>
        </extensions>
      </trkpt>
      <trkpt lat="49.85519017092883586883544921875" lon="6.861143298447132110595703125">
        <ele>316</ele>
        <time>2026-04-22T11:40:01.000Z</time>
        <extensions>
          <ns3:TrackPointExtension>
            <ns3:hr>127</ns3:hr>
            <ns3:cad>54</ns3:cad>
          </ns3:TrackPointExtension>
        </extensions>
      </trkpt>
      <trkpt lat="49.85513485036790370941162109375" lon="6.86108605004847049713134765625">
        <ele>316.20001220703125</ele>
        <time>2026-04-22T11:40:08.000Z</time>
        <extensions>
          <ns3:TrackPointExtension>
            <ns3:hr>127</ns3:hr>
            <ns3:cad>53</ns3:cad>
          </ns3:TrackPointExtension>
        </extensions>
      </trkpt>
      <trkpt lat="49.85513024032115936279296875" lon="6.86107582412660121917724609375">
        <ele>316.399993896484375</ele>
        <time>2026-04-22T11:40:09.000Z</time>
        <extensions>
          <ns3:TrackPointExtension>
            <ns3:hr>127</ns3:hr>
            <ns3:cad>54</ns3:cad>
          </ns3:TrackPointExtension>
        </extensions>
      </trkpt>
      <trkpt lat="49.855094365775585174560546875" lon="6.86094305478036403656005859375">
        <ele>316.399993896484375</ele>
        <time>2026-04-22T11:40:15.000Z</time>
        <extensions>
          <ns3:TrackPointExtension>
            <ns3:hr>127</ns3:hr>
            <ns3:cad>54</ns3:cad>
          </ns3:TrackPointExtension>
        </extensions>
      </trkpt>
      <trkpt lat="49.8550599999725818634033203125" lon="6.86086912639439105987548828125">
        <ele>316.79998779296875</ele>
        <time>2026-04-22T11:40:22.000Z</time>
        <extensions>
          <ns3:TrackPointExtension>
            <ns3:hr>128</ns3:hr>
            <ns3:cad>0</ns3:cad>
          </ns3:TrackPointExtension>
        </extensions>
      </trkpt>
      <trkpt lat="49.85504734329879283905029296875" lon="6.86083492822945117950439453125">
        <ele>316.79998779296875</ele>
        <time>2026-04-22T11:40:25.000Z</time>
        <extensions>
          <ns3:TrackPointExtension>
            <ns3:hr>129</ns3:hr>
            <ns3:cad>0</ns3:cad>
          </ns3:TrackPointExtension>
        </extensions>
      </trkpt>
      <trkpt lat="49.85499881207942962646484375" lon="6.86079268343746662139892578125">
        <ele>317.20001220703125</ele>
        <time>2026-04-22T11:40:29.000Z</time>
        <extensions>
          <ns3:TrackPointExtension>
            <ns3:hr>128</ns3:hr>
            <ns3:cad>54</ns3:cad>
          </ns3:TrackPointExtension>
        </extensions>
      </trkpt>
      <trkpt lat="49.85490686260163784027099609375" lon="6.8606643564999103546142578125">
        <ele>317.20001220703125</ele>
        <time>2026-04-22T11:40:40.000Z</time>
        <extensions>
          <ns3:TrackPointExtension>
            <ns3:hr>129</ns3:hr>
            <ns3:cad>54</ns3:cad>
          </ns3:TrackPointExtension>
        </extensions>
      </trkpt>
      <trkpt lat="49.85485942102968692779541015625" lon="6.86059688217937946319580078125">
        <ele>317.79998779296875</ele>
        <time>2026-04-22T11:40:46.000Z</time>
        <extensions>
          <ns3:TrackPointExtension>
            <ns3:hr>128</ns3:hr>
            <ns3:cad>54</ns3:cad>
          </ns3:TrackPointExtension>
        </extensions>
      </trkpt>
      <trkpt lat="49.85483544878661632537841796875" lon="6.860569305717945098876953125">
        <ele>318.20001220703125</ele>
        <time>2026-04-22T11:40:50.000Z</time>
        <extensions>
          <ns3:TrackPointExtension>
            <ns3:hr>128</ns3:hr>
            <ns3:cad>48</ns3:cad>
          </ns3:TrackPointExtension>
        </extensions>
      </trkpt>
      <trkpt lat="49.85478029586374759674072265625" lon="6.86049646697938442230224609375">
        <ele>318.79998779296875</ele>
        <time>2026-04-22T11:40:57.000Z</time>
        <extensions>
          <ns3:TrackPointExtension>
            <ns3:hr>130</ns3:hr>
            <ns3:cad>48</ns3:cad>
          </ns3:TrackPointExtension>
        </extensions>
      </trkpt>
      <trkpt lat="49.854698739945888519287109375" lon="6.86043360270559787750244140625">
        <ele>319</ele>
        <time>2026-04-22T11:41:03.000Z</time>
        <extensions>
          <ns3:TrackPointExtension>
            <ns3:hr>131</ns3:hr>
            <ns3:cad>0</ns3:cad>
          </ns3:TrackPointExtension>
        </extensions>
      </trkpt>
      <trkpt lat="49.854636378586292266845703125" lon="6.86034911312162876129150390625">
        <ele>319.399993896484375</ele>
        <time>2026-04-22T11:41:10.000Z</time>
        <extensions>
          <ns3:TrackPointExtension>
            <ns3:hr>129</ns3:hr>
            <ns3:cad>50</ns3:cad>
          </ns3:TrackPointExtension>
        </extensions>
      </trkpt>
      <trkpt lat="49.8546298407018184661865234375" lon="6.8603391386568546295166015625">
        <ele>319.399993896484375</ele>
        <time>2026-04-22T11:41:11.000Z</time>
        <extensions>
          <ns3:TrackPointExtension>
            <ns3:hr>129</ns3:hr>
            <ns3:cad>50</ns3:cad>
          </ns3:TrackPointExtension>
        </extensions>
      </trkpt>
      <trkpt lat="49.85454828478395938873291015625" lon="6.860208548605442047119140625">
        <ele>320</ele>
        <time>2026-04-22T11:41:22.000Z</time>
        <extensions>
          <ns3:TrackPointExtension>
            <ns3:hr>130</ns3:hr>
            <ns3:cad>53</ns3:cad>
          </ns3:TrackPointExtension>
        </extensions>
      </trkpt>
      <trkpt lat="49.8544943891465663909912109375" lon="6.8600980751216411590576171875">
        <ele>320</ele>
        <time>2026-04-22T11:41:31.000Z</time>
        <extensions>
          <ns3:TrackPointExtension>
            <ns3:hr>129</ns3:hr>
            <ns3:cad>53</ns3:cad>
          </ns3:TrackPointExtension>
        </extensions>
      </trkpt>
      <trkpt lat="49.854492209851741790771484375" lon="6.86008122749626636505126953125">
        <ele>320</ele>
        <time>2026-04-22T11:41:32.000Z</time>
        <extensions>
          <ns3:TrackPointExtension>
            <ns3:hr>129</ns3:hr>
            <ns3:cad>53</ns3:cad>
          </ns3:TrackPointExtension>
        </extensions>
      </trkpt>
      <trkpt lat="49.85447737388312816619873046875" lon="6.8600615300238132476806640625">
        <ele>319.79998779296875</ele>
        <time>2026-04-22T11:41:34.000Z</time>
        <extensions>
          <ns3:TrackPointExtension>
            <ns3:hr>129</ns3:hr>
            <ns3:cad>53</ns3:cad>
          </ns3:TrackPointExtension>
        </extensions>
      </trkpt>
      <trkpt lat="49.85445189289748668670654296875" lon="6.86002925969660282135009765625">
        <ele>320</ele>
        <time>2026-04-22T11:41:37.000Z</time>
        <extensions>
          <ns3:TrackPointExtension>
            <ns3:hr>130</ns3:hr>
            <ns3:cad>53</ns3:cad>
          </ns3:TrackPointExtension>
        </extensions>
      </trkpt>
      <trkpt lat="49.8543954826891422271728515625" lon="6.859944351017475128173828125">
        <ele>320.399993896484375</ele>
        <time>2026-04-22T11:41:45.000Z</time>
        <extensions>
          <ns3:TrackPointExtension>
            <ns3:hr>129</ns3:hr>
            <ns3:cad>53</ns3:cad>
          </ns3:TrackPointExtension>
        </extensions>
      </trkpt>
      <trkpt lat="49.8543240688741207122802734375" lon="6.859869919717311859130859375">
        <ele>320.600006103515625</ele>
        <time>2026-04-22T11:41:51.000Z</time>
        <extensions>
          <ns3:TrackPointExtension>
            <ns3:hr>130</ns3:hr>
            <ns3:cad>0</ns3:cad>
          </ns3:TrackPointExtension>
        </extensions>
      </trkpt>
      <trkpt lat="49.854244776070117950439453125" lon="6.85979674570262432098388671875">
        <ele>320.399993896484375</ele>
        <time>2026-04-22T11:42:00.000Z</time>
        <extensions>
          <ns3:TrackPointExtension>
            <ns3:hr>128</ns3:hr>
            <ns3:cad>53</ns3:cad>
          </ns3:TrackPointExtension>
        </extensions>
      </trkpt>
      <trkpt lat="49.85418803058564662933349609375" lon="6.859693229198455810546875">
        <ele>320.20001220703125</ele>
        <time>2026-04-22T11:42:08.000Z</time>
        <extensions>
          <ns3:TrackPointExtension>
            <ns3:hr>128</ns3:hr>
            <ns3:cad>55</ns3:cad>
          </ns3:TrackPointExtension>
        </extensions>
      </trkpt>
      <trkpt lat="49.8541398346424102783203125" lon="6.85967369936406612396240234375">
        <ele>320.399993896484375</ele>
        <time>2026-04-22T11:42:14.000Z</time>
        <extensions>
          <ns3:TrackPointExtension>
            <ns3:hr>128</ns3:hr>
            <ns3:cad>54</ns3:cad>
          </ns3:TrackPointExtension>
        </extensions>
      </trkpt>
      <trkpt lat="49.854061044752597808837890625" lon="6.859634220600128173828125">
        <ele>320.20001220703125</ele>
        <time>2026-04-22T11:42:22.000Z</time>
        <extensions>
          <ns3:TrackPointExtension>
            <ns3:hr>128</ns3:hr>
            <ns3:cad>0</ns3:cad>
          </ns3:TrackPointExtension>
        </extensions>
      </trkpt>
      <trkpt lat="49.85401201061904430389404296875" lon="6.859589628875255584716796875">
        <ele>320.399993896484375</ele>
        <time>2026-04-22T11:42:27.000Z</time>
        <extensions>
          <ns3:TrackPointExtension>
            <ns3:hr>128</ns3:hr>
            <ns3:cad>55</ns3:cad>
          </ns3:TrackPointExtension>
        </extensions>
      </trkpt>
      <trkpt lat="49.85399742610752582550048828125" lon="6.85957479290664196014404296875">
        <ele>320.399993896484375</ele>
        <time>2026-04-22T11:42:29.000Z</time>
        <extensions>
          <ns3:TrackPointExtension>
            <ns3:hr>128</ns3:hr>
            <ns3:cad>55</ns3:cad>
          </ns3:TrackPointExtension>
        </extensions>
      </trkpt>
      <trkpt lat="49.8539857752621173858642578125" lon="6.85957060195505619049072265625">
        <ele>320.399993896484375</ele>
        <time>2026-04-22T11:42:30.000Z</time>
        <extensions>
          <ns3:TrackPointExtension>
            <ns3:hr>128</ns3:hr>
            <ns3:cad>55</ns3:cad>
          </ns3:TrackPointExtension>
        </extensions>
      </trkpt>
      <trkpt lat="49.8539136908948421478271484375" lon="6.8594888783991336822509765625">
        <ele>320.600006103515625</ele>
        <time>2026-04-22T11:42:35.000Z</time>
        <extensions>
          <ns3:TrackPointExtension>
            <ns3:hr>127</ns3:hr>
            <ns3:cad>0</ns3:cad>
          </ns3:TrackPointExtension>
        </extensions>
      </trkpt>
      <trkpt lat="49.8538040556013584136962890625" lon="6.85943372547626495361328125">
        <ele>320.79998779296875</ele>
        <time>2026-04-22T11:42:44.000Z</time>
        <extensions>
          <ns3:TrackPointExtension>
            <ns3:hr>127</ns3:hr>
            <ns3:cad>0</ns3:cad>
          </ns3:TrackPointExtension>
        </extensions>
      </trkpt>
      <trkpt lat="49.85371931456029415130615234375" lon="6.85940832830965518951416015625">
        <ele>320.600006103515625</ele>
        <time>2026-04-22T11:42:52.000Z</time>
        <extensions>
          <ns3:TrackPointExtension>
            <ns3:hr>126</ns3:hr>
            <ns3:cad>0</ns3:cad>
          </ns3:TrackPointExtension>
        </extensions>
      </trkpt>
      <trkpt lat="49.8536608926951885223388671875" lon="6.85932643711566925048828125">
        <ele>320.20001220703125</ele>
        <time>2026-04-22T11:43:00.000Z</time>
        <extensions>
          <ns3:TrackPointExtension>
            <ns3:hr>126</ns3:hr>
            <ns3:cad>0</ns3:cad>
          </ns3:TrackPointExtension>
        </extensions>
      </trkpt>
      <trkpt lat="49.8536065779626369476318359375" lon="6.8592176400125026702880859375">
        <ele>320</ele>
        <time>2026-04-22T11:43:07.000Z</time>
        <extensions>
          <ns3:TrackPointExtension>
            <ns3:hr>126</ns3:hr>
            <ns3:cad>55</ns3:cad>
          </ns3:TrackPointExtension>
        </extensions>
      </trkpt>
      <trkpt lat="49.85359509475529193878173828125" lon="6.8592035584151744842529296875">
        <ele>320</ele>
        <time>2026-04-22T11:43:08.000Z</time>
        <extensions>
          <ns3:TrackPointExtension>
            <ns3:hr>126</ns3:hr>
            <ns3:cad>56</ns3:cad>
          </ns3:TrackPointExtension>
        </extensions>
      </trkpt>
      <trkpt lat="49.85357950441539287567138671875" lon="6.85916894115507602691650390625">
        <ele>319.79998779296875</ele>
        <time>2026-04-22T11:43:10.000Z</time>
        <extensions>
          <ns3:TrackPointExtension>
            <ns3:hr>126</ns3:hr>
            <ns3:cad>56</ns3:cad>
          </ns3:TrackPointExtension>
        </extensions>
      </trkpt>
      <trkpt lat="49.85353357158601284027099609375" lon="6.85913038440048694610595703125">
        <ele>319.600006103515625</ele>
        <time>2026-04-22T11:43:14.000Z</time>
        <extensions>
          <ns3:TrackPointExtension>
            <ns3:hr>125</ns3:hr>
            <ns3:cad>0</ns3:cad>
          </ns3:TrackPointExtension>
        </extensions>
      </trkpt>
      <trkpt lat="49.85351018607616424560546875" lon="6.85911747626960277557373046875">
        <ele>319.399993896484375</ele>
        <time>2026-04-22T11:43:16.000Z</time>
        <extensions>
          <ns3:TrackPointExtension>
            <ns3:hr>125</ns3:hr>
            <ns3:cad>55</ns3:cad>
          </ns3:TrackPointExtension>
        </extensions>
      </trkpt>
      <trkpt lat="49.85342946834862232208251953125" lon="6.8590147979557514190673828125">
        <ele>318.20001220703125</ele>
        <time>2026-04-22T11:43:24.000Z</time>
        <extensions>
          <ns3:TrackPointExtension>
            <ns3:hr>125</ns3:hr>
            <ns3:cad>0</ns3:cad>
          </ns3:TrackPointExtension>
        </extensions>
      </trkpt>
      <trkpt lat="49.85337682999670505523681640625" lon="6.8589913286268711090087890625">
        <ele>318</ele>
        <time>2026-04-22T11:43:28.000Z</time>
        <extensions>
          <ns3:TrackPointExtension>
            <ns3:hr>125</ns3:hr>
            <ns3:cad>56</ns3:cad>
          </ns3:TrackPointExtension>
        </extensions>
      </trkpt>
      <trkpt lat="49.85333173535764217376708984375" lon="6.858954615890979766845703125">
        <ele>317.79998779296875</ele>
        <time>2026-04-22T11:43:32.000Z</time>
        <extensions>
          <ns3:TrackPointExtension>
            <ns3:hr>124</ns3:hr>
            <ns3:cad>55</ns3:cad>
          </ns3:TrackPointExtension>
        </extensions>
      </trkpt>
      <trkpt lat="49.85325403511524200439453125" lon="6.858913041651248931884765625">
        <ele>317.399993896484375</ele>
        <time>2026-04-22T11:43:41.000Z</time>
        <extensions>
          <ns3:TrackPointExtension>
            <ns3:hr>125</ns3:hr>
            <ns3:cad>55</ns3:cad>
          </ns3:TrackPointExtension>
        </extensions>
      </trkpt>
      <trkpt lat="49.85318136401474475860595703125" lon="6.85884975828230381011962890625">
        <ele>317.20001220703125</ele>
        <time>2026-04-22T11:43:47.000Z</time>
        <extensions>
          <ns3:TrackPointExtension>
            <ns3:hr>123</ns3:hr>
            <ns3:cad>56</ns3:cad>
          </ns3:TrackPointExtension>
        </extensions>
      </trkpt>
      <trkpt lat="49.85316510312259197235107421875" lon="6.8588394485414028167724609375">
        <ele>317.20001220703125</ele>
        <time>2026-04-22T11:43:48.000Z</time>
        <extensions>
          <ns3:TrackPointExtension>
            <ns3:hr>123</ns3:hr>
            <ns3:cad>56</ns3:cad>
          </ns3:TrackPointExtension>
        </extensions>
      </trkpt>
      <trkpt lat="49.85315253026783466339111328125" lon="6.858808100223541259765625">
        <ele>316.600006103515625</ele>
        <time>2026-04-22T11:43:50.000Z</time>
        <extensions>
          <ns3:TrackPointExtension>
            <ns3:hr>123</ns3:hr>
            <ns3:cad>57</ns3:cad>
          </ns3:TrackPointExtension>
        </extensions>
      </trkpt>
      <trkpt lat="49.853085391223430633544921875" lon="6.858757473528385162353515625">
        <ele>316.20001220703125</ele>
        <time>2026-04-22T11:43:56.000Z</time>
        <extensions>
          <ns3:TrackPointExtension>
            <ns3:hr>123</ns3:hr>
            <ns3:cad>18</ns3:cad>
          </ns3:TrackPointExtension>
        </extensions>
      </trkpt>
      <trkpt lat="49.85305043868720531463623046875" lon="6.8587432242929935455322265625">
        <ele>315.79998779296875</ele>
        <time>2026-04-22T11:43:59.000Z</time>
        <extensions>
          <ns3:TrackPointExtension>
            <ns3:hr>123</ns3:hr>
            <ns3:cad>0</ns3:cad>
          </ns3:TrackPointExtension>
        </extensions>
      </trkpt>
      <trkpt lat="49.85300282947719097137451171875" lon="6.85872570611536502838134765625">
        <ele>315.20001220703125</ele>
        <time>2026-04-22T11:44:04.000Z</time>
        <extensions>
          <ns3:TrackPointExtension>
            <ns3:hr>123</ns3:hr>
            <ns3:cad>57</ns3:cad>
          </ns3:TrackPointExtension>
        </extensions>
      </trkpt>
      <trkpt lat="49.85295354388654232025146484375" lon="6.85869066976010799407958984375">
        <ele>314.600006103515625</ele>
        <time>2026-04-22T11:44:08.000Z</time>
        <extensions>
          <ns3:TrackPointExtension>
            <ns3:hr>123</ns3:hr>
            <ns3:cad>57</ns3:cad>
          </ns3:TrackPointExtension>
        </extensions>
      </trkpt>
      <trkpt lat="49.85292387194931507110595703125" lon="6.85866703279316425323486328125">
        <ele>314</ele>
        <time>2026-04-22T11:44:12.000Z</time>
        <extensions>
          <ns3:TrackPointExtension>
            <ns3:hr>123</ns3:hr>
            <ns3:cad>0</ns3:cad>
          </ns3:TrackPointExtension>
        </extensions>
      </trkpt>
      <trkpt lat="49.85286586917936801910400390625" lon="6.85862244106829166412353515625">
        <ele>313.20001220703125</ele>
        <time>2026-04-22T11:44:18.000Z</time>
        <extensions>
          <ns3:TrackPointExtension>
            <ns3:hr>123</ns3:hr>
            <ns3:cad>55</ns3:cad>
          </ns3:TrackPointExtension>
        </extensions>
      </trkpt>
      <trkpt lat="49.852833263576030731201171875" lon="6.85862160287797451019287109375">
        <ele>313</ele>
        <time>2026-04-22T11:44:21.000Z</time>
        <extensions>
          <ns3:TrackPointExtension>
            <ns3:hr>123</ns3:hr>
            <ns3:cad>55</ns3:cad>
          </ns3:TrackPointExtension>
        </extensions>
      </trkpt>
      <trkpt lat="49.85282094217836856842041015625" lon="6.85861925594508647918701171875">
        <ele>312.79998779296875</ele>
        <time>2026-04-22T11:44:22.000Z</time>
        <extensions>
          <ns3:TrackPointExtension>
            <ns3:hr>123</ns3:hr>
            <ns3:cad>55</ns3:cad>
          </ns3:TrackPointExtension>
        </extensions>
      </trkpt>
      <trkpt lat="49.85279009677469730377197265625" lon="6.85859830118715763092041015625">
        <ele>312.600006103515625</ele>
        <time>2026-04-22T11:44:25.000Z</time>
        <extensions>
          <ns3:TrackPointExtension>
            <ns3:hr>122</ns3:hr>
            <ns3:cad>55</ns3:cad>
          </ns3:TrackPointExtension>
        </extensions>
      </trkpt>
      <trkpt lat="49.852719940245151519775390625" lon="6.85855639167129993438720703125">
        <ele>311.79998779296875</ele>
        <time>2026-04-22T11:44:31.000Z</time>
        <extensions>
          <ns3:TrackPointExtension>
            <ns3:hr>123</ns3:hr>
            <ns3:cad>56</ns3:cad>
          </ns3:TrackPointExtension>
        </extensions>
      </trkpt>
      <trkpt lat="49.85270376317203044891357421875" lon="6.85853241942822933197021484375">
        <ele>311.600006103515625</ele>
        <time>2026-04-22T11:44:33.000Z</time>
        <extensions>
          <ns3:TrackPointExtension>
            <ns3:hr>123</ns3:hr>
            <ns3:cad>56</ns3:cad>
          </ns3:TrackPointExtension>
        </extensions>
      </trkpt>
      <trkpt lat="49.85265280120074748992919921875" lon="6.858535520732402801513671875">
        <ele>310.79998779296875</ele>
        <time>2026-04-22T11:44:39.000Z</time>
        <extensions>
          <ns3:TrackPointExtension>
            <ns3:hr>121</ns3:hr>
            <ns3:cad>56</ns3:cad>
          </ns3:TrackPointExtension>
        </extensions>
      </trkpt>
      <trkpt lat="49.85262371599674224853515625" lon="6.8585417233407497406005859375">
        <ele>310.600006103515625</ele>
        <time>2026-04-22T11:44:41.000Z</time>
        <extensions>
          <ns3:TrackPointExtension>
            <ns3:hr>121</ns3:hr>
            <ns3:cad>54</ns3:cad>
          </ns3:TrackPointExtension>
        </extensions>
      </trkpt>
      <trkpt lat="49.85256931744515895843505859375" lon="6.85850392095744609832763671875">
        <ele>310</ele>
        <time>2026-04-22T11:44:46.000Z</time>
        <extensions>
          <ns3:TrackPointExtension>
            <ns3:hr>122</ns3:hr>
            <ns3:cad>54</ns3:cad>
          </ns3:TrackPointExtension>
        </extensions>
      </trkpt>
      <trkpt lat="49.852550290524959564208984375" lon="6.85847751796245574951171875">
        <ele>309.79998779296875</ele>
        <time>2026-04-22T11:44:48.000Z</time>
        <extensions>
          <ns3:TrackPointExtension>
            <ns3:hr>122</ns3:hr>
            <ns3:cad>55</ns3:cad>
          </ns3:TrackPointExtension>
        </extensions>
      </trkpt>
      <trkpt lat="49.85253981314599514007568359375" lon="6.8584703095257282257080078125">
        <ele>309.600006103515625</ele>
        <time>2026-04-22T11:44:49.000Z</time>
        <extensions>
          <ns3:TrackPointExtension>
            <ns3:hr>122</ns3:hr>
            <ns3:cad>55</ns3:cad>
          </ns3:TrackPointExtension>
        </extensions>
      </trkpt>
      <trkpt lat="49.8524921201169490814208984375" lon="6.8584277294576168060302734375">
        <ele>308.399993896484375</ele>
        <time>2026-04-22T11:44:54.000Z</time>
        <extensions>
          <ns3:TrackPointExtension>
            <ns3:hr>122</ns3:hr>
            <ns3:cad>53</ns3:cad>
          </ns3:TrackPointExtension>
        </extensions>
      </trkpt>
      <trkpt lat="49.85244493000209331512451171875" lon="6.85843150131404399871826171875">
        <ele>307.399993896484375</ele>
        <time>2026-04-22T11:45:00.000Z</time>
        <extensions>
          <ns3:TrackPointExtension>
            <ns3:hr>123</ns3:hr>
            <ns3:cad>55</ns3:cad>
          </ns3:TrackPointExtension>
        </extensions>
      </trkpt>
      <trkpt lat="49.852420873939990997314453125" lon="6.85843301005661487579345703125">
        <ele>307</ele>
        <time>2026-04-22T11:45:03.000Z</time>
        <extensions>
          <ns3:TrackPointExtension>
            <ns3:hr>123</ns3:hr>
            <ns3:cad>54</ns3:cad>
          </ns3:TrackPointExtension>
        </extensions>
      </trkpt>
      <trkpt lat="49.852369911968708038330078125" lon="6.858408451080322265625">
        <ele>306.399993896484375</ele>
        <time>2026-04-22T11:45:09.000Z</time>
        <extensions>
          <ns3:TrackPointExtension>
            <ns3:hr>123</ns3:hr>
            <ns3:cad>55</ns3:cad>
          </ns3:TrackPointExtension>
        </extensions>
      </trkpt>
      <trkpt lat="49.85236194916069507598876953125" lon="6.858402080833911895751953125">
        <ele>306.20001220703125</ele>
        <time>2026-04-22T11:45:10.000Z</time>
        <extensions>
          <ns3:TrackPointExtension>
            <ns3:hr>122</ns3:hr>
            <ns3:cad>55</ns3:cad>
          </ns3:TrackPointExtension>
        </extensions>
      </trkpt>
      <trkpt lat="49.85235281288623809814453125" lon="6.8583942018449306488037109375">
        <ele>306</ele>
        <time>2026-04-22T11:45:11.000Z</time>
        <extensions>
          <ns3:TrackPointExtension>
            <ns3:hr>122</ns3:hr>
            <ns3:cad>54</ns3:cad>
          </ns3:TrackPointExtension>
        </extensions>
      </trkpt>
      <trkpt lat="49.85230109654366970062255859375" lon="6.858352459967136383056640625">
        <ele>305.20001220703125</ele>
        <time>2026-04-22T11:45:15.000Z</time>
        <extensions>
          <ns3:TrackPointExtension>
            <ns3:hr>122</ns3:hr>
            <ns3:cad>53</ns3:cad>
          </ns3:TrackPointExtension>
        </extensions>
      </trkpt>
      <trkpt lat="49.85224426724016666412353515625" lon="6.858275346457958221435546875">
        <ele>304.20001220703125</ele>
        <time>2026-04-22T11:45:21.000Z</time>
        <extensions>
          <ns3:TrackPointExtension>
            <ns3:hr>122</ns3:hr>
            <ns3:cad>53</ns3:cad>
          </ns3:TrackPointExtension>
        </extensions>
      </trkpt>
      <trkpt lat="49.85223337076604366302490234375" lon="6.85823083855211734771728515625">
        <ele>303.79998779296875</ele>
        <time>2026-04-22T11:45:23.000Z</time>
        <extensions>
          <ns3:TrackPointExtension>
            <ns3:hr>122</ns3:hr>
            <ns3:cad>54</ns3:cad>
          </ns3:TrackPointExtension>
        </extensions>
      </trkpt>
      <trkpt lat="49.8521699197590351104736328125" lon="6.8581085465848445892333984375">
        <ele>303</ele>
        <time>2026-04-22T11:45:31.000Z</time>
        <extensions>
          <ns3:TrackPointExtension>
            <ns3:hr>121</ns3:hr>
            <ns3:cad>53</ns3:cad>
          </ns3:TrackPointExtension>
        </extensions>
      </trkpt>
      <trkpt lat="49.8521709255874156951904296875" lon="6.8580934591591358184814453125">
        <ele>303</ele>
        <time>2026-04-22T11:45:32.000Z</time>
        <extensions>
          <ns3:TrackPointExtension>
            <ns3:hr>121</ns3:hr>
            <ns3:cad>53</ns3:cad>
          </ns3:TrackPointExtension>
        </extensions>
      </trkpt>
      <trkpt lat="49.85215357504785060882568359375" lon="6.858019866049289703369140625">
        <ele>302.20001220703125</ele>
        <time>2026-04-22T11:45:37.000Z</time>
        <extensions>
          <ns3:TrackPointExtension>
            <ns3:hr>121</ns3:hr>
            <ns3:cad>56</ns3:cad>
          </ns3:TrackPointExtension>
        </extensions>
      </trkpt>
      <trkpt lat="49.8521442711353302001953125" lon="6.8580093048512935638427734375">
        <ele>302</ele>
        <time>2026-04-22T11:45:38.000Z</time>
        <extensions>
          <ns3:TrackPointExtension>
            <ns3:hr>121</ns3:hr>
            <ns3:cad>56</ns3:cad>
          </ns3:TrackPointExtension>
        </extensions>
      </trkpt>
      <trkpt lat="49.8521067202091217041015625" lon="6.8578755296766757965087890625">
        <ele>301.20001220703125</ele>
        <time>2026-04-22T11:45:44.000Z</time>
        <extensions>
          <ns3:TrackPointExtension>
            <ns3:hr>120</ns3:hr>
            <ns3:cad>55</ns3:cad>
          </ns3:TrackPointExtension>
        </extensions>
      </trkpt>
      <trkpt lat="49.85207855701446533203125" lon="6.8578292615711688995361328125">
        <ele>300.79998779296875</ele>
        <time>2026-04-22T11:45:48.000Z</time>
        <extensions>
          <ns3:TrackPointExtension>
            <ns3:hr>120</ns3:hr>
            <ns3:cad>54</ns3:cad>
          </ns3:TrackPointExtension>
        </extensions>
      </trkpt>
      <trkpt lat="49.85205668024718761444091796875" lon="6.85780671425163745880126953125">
        <ele>300.399993896484375</ele>
        <time>2026-04-22T11:45:51.000Z</time>
        <extensions>
          <ns3:TrackPointExtension>
            <ns3:hr>120</ns3:hr>
            <ns3:cad>53</ns3:cad>
          </ns3:TrackPointExtension>
        </extensions>
      </trkpt>
      <trkpt lat="49.852037988603115081787109375" lon="6.85776363126933574676513671875">
        <ele>299.79998779296875</ele>
        <time>2026-04-22T11:45:55.000Z</time>
        <extensions>
          <ns3:TrackPointExtension>
            <ns3:hr>120</ns3:hr>
            <ns3:cad>54</ns3:cad>
          </ns3:TrackPointExtension>
        </extensions>
      </trkpt>
      <trkpt lat="49.8520170338451862335205078125" lon="6.85771602205932140350341796875">
        <ele>299.399993896484375</ele>
        <time>2026-04-22T11:45:59.000Z</time>
        <extensions>
          <ns3:TrackPointExtension>
            <ns3:hr>119</ns3:hr>
            <ns3:cad>55</ns3:cad>
          </ns3:TrackPointExtension>
        </extensions>
      </trkpt>
      <trkpt lat="49.85200303606688976287841796875" lon="6.85766321606934070587158203125">
        <ele>298.79998779296875</ele>
        <time>2026-04-22T11:46:03.000Z</time>
        <extensions>
          <ns3:TrackPointExtension>
            <ns3:hr>120</ns3:hr>
            <ns3:cad>54</ns3:cad>
          </ns3:TrackPointExtension>
        </extensions>
      </trkpt>
      <trkpt lat="49.8519967496395111083984375" lon="6.85760605148971080780029296875">
        <ele>298</ele>
        <time>2026-04-22T11:46:07.000Z</time>
        <extensions>
          <ns3:TrackPointExtension>
            <ns3:hr>122</ns3:hr>
            <ns3:cad>0</ns3:cad>
          </ns3:TrackPointExtension>
        </extensions>
      </trkpt>
      <trkpt lat="49.851991049945354461669921875" lon="6.8575942330062389373779296875">
        <ele>297.79998779296875</ele>
        <time>2026-04-22T11:46:08.000Z</time>
        <extensions>
          <ns3:TrackPointExtension>
            <ns3:hr>122</ns3:hr>
            <ns3:cad>0</ns3:cad>
          </ns3:TrackPointExtension>
        </extensions>
      </trkpt>
      <trkpt lat="49.8519779741764068603515625" lon="6.85749582946300506591796875">
        <ele>297.20001220703125</ele>
        <time>2026-04-22T11:46:14.000Z</time>
        <extensions>
          <ns3:TrackPointExtension>
            <ns3:hr>119</ns3:hr>
            <ns3:cad>0</ns3:cad>
          </ns3:TrackPointExtension>
        </extensions>
      </trkpt>
      <trkpt lat="49.85197470523416996002197265625" lon="6.857474036514759063720703125">
        <ele>297</ele>
        <time>2026-04-22T11:46:15.000Z</time>
        <extensions>
          <ns3:TrackPointExtension>
            <ns3:hr>119</ns3:hr>
            <ns3:cad>0</ns3:cad>
          </ns3:TrackPointExtension>
        </extensions>
      </trkpt>
      <trkpt lat="49.8519627191126346588134765625" lon="6.8574473820626735687255859375">
        <ele>296.79998779296875</ele>
        <time>2026-04-22T11:46:17.000Z</time>
        <extensions>
          <ns3:TrackPointExtension>
            <ns3:hr>120</ns3:hr>
            <ns3:cad>54</ns3:cad>
          </ns3:TrackPointExtension>
        </extensions>
      </trkpt>
      <trkpt lat="49.85196364112198352813720703125" lon="6.8573293648660182952880859375">
        <ele>295.79998779296875</ele>
        <time>2026-04-22T11:46:23.000Z</time>
        <extensions>
          <ns3:TrackPointExtension>
            <ns3:hr>121</ns3:hr>
            <ns3:cad>55</ns3:cad>
          </ns3:TrackPointExtension>
        </extensions>
      </trkpt>
      <trkpt lat="49.85195727087557315826416015625" lon="6.8573181331157684326171875">
        <ele>295.600006103515625</ele>
        <time>2026-04-22T11:46:24.000Z</time>
        <extensions>
          <ns3:TrackPointExtension>
            <ns3:hr>121</ns3:hr>
            <ns3:cad>55</ns3:cad>
          </ns3:TrackPointExtension>
        </extensions>
      </trkpt>
      <trkpt lat="49.851935394108295440673828125" lon="6.85723624192178249359130859375">
        <ele>294.399993896484375</ele>
        <time>2026-04-22T11:46:30.000Z</time>
        <extensions>
          <ns3:TrackPointExtension>
            <ns3:hr>121</ns3:hr>
            <ns3:cad>55</ns3:cad>
          </ns3:TrackPointExtension>
        </extensions>
      </trkpt>
      <trkpt lat="49.851928688585758209228515625" lon="6.8571637384593486785888671875">
        <ele>293.399993896484375</ele>
        <time>2026-04-22T11:46:35.000Z</time>
        <extensions>
          <ns3:TrackPointExtension>
            <ns3:hr>121</ns3:hr>
            <ns3:cad>55</ns3:cad>
          </ns3:TrackPointExtension>
        </extensions>
      </trkpt>
      <trkpt lat="49.8519122600555419921875" lon="6.85710883699357509613037109375">
        <ele>292.600006103515625</ele>
        <time>2026-04-22T11:46:39.000Z</time>
        <extensions>
          <ns3:TrackPointExtension>
            <ns3:hr>120</ns3:hr>
            <ns3:cad>54</ns3:cad>
          </ns3:TrackPointExtension>
        </extensions>
      </trkpt>
      <trkpt lat="49.85190798528492450714111328125" lon="6.8570936657488346099853515625">
        <ele>292.399993896484375</ele>
        <time>2026-04-22T11:46:40.000Z</time>
        <extensions>
          <ns3:TrackPointExtension>
            <ns3:hr>120</ns3:hr>
            <ns3:cad>54</ns3:cad>
          </ns3:TrackPointExtension>
        </extensions>
      </trkpt>
      <trkpt lat="49.85189147293567657470703125" lon="6.8570054881274700164794921875">
        <ele>291.20001220703125</ele>
        <time>2026-04-22T11:46:46.000Z</time>
        <extensions>
          <ns3:TrackPointExtension>
            <ns3:hr>121</ns3:hr>
            <ns3:cad>55</ns3:cad>
          </ns3:TrackPointExtension>
        </extensions>
      </trkpt>
      <trkpt lat="49.85188250429928302764892578125" lon="6.85697548091411590576171875">
        <ele>290.600006103515625</ele>
        <time>2026-04-22T11:46:49.000Z</time>
        <extensions>
          <ns3:TrackPointExtension>
            <ns3:hr>121</ns3:hr>
            <ns3:cad>0</ns3:cad>
          </ns3:TrackPointExtension>
        </extensions>
      </trkpt>
      <trkpt lat="49.85188485123217105865478515625" lon="6.85694203712046146392822265625">
        <ele>290.20001220703125</ele>
        <time>2026-04-22T11:46:51.000Z</time>
        <extensions>
          <ns3:TrackPointExtension>
            <ns3:hr>121</ns3:hr>
            <ns3:cad>53</ns3:cad>
          </ns3:TrackPointExtension>
        </extensions>
      </trkpt>
      <trkpt lat="49.851883761584758758544921875" lon="6.85692259110510349273681640625">
        <ele>290.20001220703125</ele>
        <time>2026-04-22T11:46:52.000Z</time>
        <extensions>
          <ns3:TrackPointExtension>
            <ns3:hr>121</ns3:hr>
            <ns3:cad>54</ns3:cad>
          </ns3:TrackPointExtension>
        </extensions>
      </trkpt>
      <trkpt lat="49.851880408823490142822265625" lon="6.856860816478729248046875">
        <ele>289.600006103515625</ele>
        <time>2026-04-22T11:46:56.000Z</time>
        <extensions>
          <ns3:TrackPointExtension>
            <ns3:hr>120</ns3:hr>
            <ns3:cad>55</ns3:cad>
          </ns3:TrackPointExtension>
        </extensions>
      </trkpt>
      <trkpt lat="49.85186875797808170318603515625" lon="6.85677892528474330902099609375">
        <ele>289</ele>
        <time>2026-04-22T11:47:01.000Z</time>
        <extensions>
          <ns3:TrackPointExtension>
            <ns3:hr>120</ns3:hr>
            <ns3:cad>54</ns3:cad>
          </ns3:TrackPointExtension>
        </extensions>
      </trkpt>
      <trkpt lat="49.85185015015304088592529296875" lon="6.85673676431179046630859375">
        <ele>288.600006103515625</ele>
        <time>2026-04-22T11:47:04.000Z</time>
        <extensions>
          <ns3:TrackPointExtension>
            <ns3:hr>120</ns3:hr>
            <ns3:cad>56</ns3:cad>
          </ns3:TrackPointExtension>
        </extensions>
      </trkpt>
      <trkpt lat="49.85184243880212306976318359375" lon="6.85672276653349399566650390625">
        <ele>288.399993896484375</ele>
        <time>2026-04-22T11:47:05.000Z</time>
        <extensions>
          <ns3:TrackPointExtension>
            <ns3:hr>120</ns3:hr>
            <ns3:cad>56</ns3:cad>
          </ns3:TrackPointExtension>
        </extensions>
      </trkpt>
      <trkpt lat="49.85183137468993663787841796875" lon="6.85665001161396503448486328125">
        <ele>288</ele>
        <time>2026-04-22T11:47:10.000Z</time>
        <extensions>
          <ns3:TrackPointExtension>
            <ns3:hr>121</ns3:hr>
            <ns3:cad>55</ns3:cad>
          </ns3:TrackPointExtension>
        </extensions>
      </trkpt>
      <trkpt lat="49.8518286086618900299072265625" lon="6.85659318231046199798583984375">
        <ele>287.399993896484375</ele>
        <time>2026-04-22T11:47:13.000Z</time>
        <extensions>
          <ns3:TrackPointExtension>
            <ns3:hr>121</ns3:hr>
            <ns3:cad>54</ns3:cad>
          </ns3:TrackPointExtension>
        </extensions>
      </trkpt>
      <trkpt lat="49.85181930474936962127685546875" lon="6.85652629472315311431884765625">
        <ele>286.79998779296875</ele>
        <time>2026-04-22T11:47:18.000Z</time>
        <extensions>
          <ns3:TrackPointExtension>
            <ns3:hr>120</ns3:hr>
            <ns3:cad>0</ns3:cad>
          </ns3:TrackPointExtension>
        </extensions>
      </trkpt>
      <trkpt lat="49.85182198695838451385498046875" lon="6.85647851787507534027099609375">
        <ele>286.600006103515625</ele>
        <time>2026-04-22T11:47:20.000Z</time>
        <extensions>
          <ns3:TrackPointExtension>
            <ns3:hr>120</ns3:hr>
            <ns3:cad>54</ns3:cad>
          </ns3:TrackPointExtension>
        </extensions>
      </trkpt>
      <trkpt lat="49.85181947238743305206298828125" lon="6.856469549238681793212890625">
        <ele>286.399993896484375</ele>
        <time>2026-04-22T11:47:21.000Z</time>
        <extensions>
          <ns3:TrackPointExtension>
            <ns3:hr>120</ns3:hr>
            <ns3:cad>54</ns3:cad>
          </ns3:TrackPointExtension>
        </extensions>
      </trkpt>
      <trkpt lat="49.85180237330496311187744140625" lon="6.856419257819652557373046875">
        <ele>285.79998779296875</ele>
        <time>2026-04-22T11:47:25.000Z</time>
        <extensions>
          <ns3:TrackPointExtension>
            <ns3:hr>120</ns3:hr>
            <ns3:cad>55</ns3:cad>
          </ns3:TrackPointExtension>
        </extensions>
      </trkpt>
      <trkpt lat="49.85180170275270938873291015625" lon="6.8564034998416900634765625">
        <ele>285.79998779296875</ele>
        <time>2026-04-22T11:47:26.000Z</time>
        <extensions>
          <ns3:TrackPointExtension>
            <ns3:hr>120</ns3:hr>
            <ns3:cad>55</ns3:cad>
          </ns3:TrackPointExtension>
        </extensions>
      </trkpt>
      <trkpt lat="49.8517967574298381805419921875" lon="6.85629596002399921417236328125">
        <ele>284.600006103515625</ele>
        <time>2026-04-22T11:47:33.000Z</time>
        <extensions>
          <ns3:TrackPointExtension>
            <ns3:hr>121</ns3:hr>
            <ns3:cad>54</ns3:cad>
          </ns3:TrackPointExtension>
        </extensions>
      </trkpt>
      <trkpt lat="49.8517955839633941650390625" lon="6.85628003440797328948974609375">
        <ele>284.399993896484375</ele>
        <time>2026-04-22T11:47:34.000Z</time>
        <extensions>
          <ns3:TrackPointExtension>
            <ns3:hr>121</ns3:hr>
            <ns3:cad>54</ns3:cad>
          </ns3:TrackPointExtension>
        </extensions>
      </trkpt>
      <trkpt lat="49.8517835140228271484375" lon="6.85612656176090240478515625">
        <ele>283.399993896484375</ele>
        <time>2026-04-22T11:47:42.000Z</time>
        <extensions>
          <ns3:TrackPointExtension>
            <ns3:hr>121</ns3:hr>
            <ns3:cad>55</ns3:cad>
          </ns3:TrackPointExtension>
        </extensions>
      </trkpt>
      <trkpt lat="49.851778484880924224853515625" lon="6.85610652901232242584228515625">
        <ele>283.399993896484375</ele>
        <time>2026-04-22T11:47:43.000Z</time>
        <extensions>
          <ns3:TrackPointExtension>
            <ns3:hr>121</ns3:hr>
            <ns3:cad>55</ns3:cad>
          </ns3:TrackPointExtension>
        </extensions>
      </trkpt>
      <trkpt lat="49.8517692647874355316162109375" lon="6.85607300139963626861572265625">
        <ele>283.20001220703125</ele>
        <time>2026-04-22T11:47:45.000Z</time>
        <extensions>
          <ns3:TrackPointExtension>
            <ns3:hr>121</ns3:hr>
            <ns3:cad>54</ns3:cad>
          </ns3:TrackPointExtension>
        </extensions>
      </trkpt>
      <trkpt lat="49.851726181805133819580078125" lon="6.85600561089813709259033203125">
        <ele>282.399993896484375</ele>
        <time>2026-04-22T11:47:50.000Z</time>
        <extensions>
          <ns3:TrackPointExtension>
            <ns3:hr>121</ns3:hr>
            <ns3:cad>0</ns3:cad>
          </ns3:TrackPointExtension>
        </extensions>
      </trkpt>
      <trkpt lat="49.8517124354839324951171875" lon="6.8559879250824451446533203125">
        <ele>282.20001220703125</ele>
        <time>2026-04-22T11:47:53.000Z</time>
        <extensions>
          <ns3:TrackPointExtension>
            <ns3:hr>121</ns3:hr>
            <ns3:cad>0</ns3:cad>
          </ns3:TrackPointExtension>
        </extensions>
      </trkpt>
      <trkpt lat="49.85167798586189746856689453125" lon="6.85599320568144321441650390625">
        <ele>281.79998779296875</ele>
        <time>2026-04-22T11:47:56.000Z</time>
        <extensions>
          <ns3:TrackPointExtension>
            <ns3:hr>121</ns3:hr>
            <ns3:cad>53</ns3:cad>
          </ns3:TrackPointExtension>
        </extensions>
      </trkpt>
      <trkpt lat="49.85163456760346889495849609375" lon="6.85600158758461475372314453125">
        <ele>281.79998779296875</ele>
        <time>2026-04-22T11:47:59.000Z</time>
        <extensions>
          <ns3:TrackPointExtension>
            <ns3:hr>121</ns3:hr>
            <ns3:cad>54</ns3:cad>
          </ns3:TrackPointExtension>
        </extensions>
      </trkpt>
      <trkpt lat="49.85155242495238780975341796875" lon="6.85598314739763736724853515625">
        <ele>281.79998779296875</ele>
        <time>2026-04-22T11:48:06.000Z</time>
        <extensions>
          <ns3:TrackPointExtension>
            <ns3:hr>120</ns3:hr>
            <ns3:cad>54</ns3:cad>
          </ns3:TrackPointExtension>
        </extensions>
      </trkpt>
      <trkpt lat="49.85146877355873584747314453125" lon="6.85598230920732021331787109375">
        <ele>282</ele>
        <time>2026-04-22T11:48:15.000Z</time>
        <extensions>
          <ns3:TrackPointExtension>
            <ns3:hr>121</ns3:hr>
            <ns3:cad>0</ns3:cad>
          </ns3:TrackPointExtension>
        </extensions>
      </trkpt>
      <trkpt lat="49.85136517323553562164306640625" lon="6.8559879250824451446533203125">
        <ele>282.20001220703125</ele>
        <time>2026-04-22T11:48:24.000Z</time>
        <extensions>
          <ns3:TrackPointExtension>
            <ns3:hr>121</ns3:hr>
            <ns3:cad>0</ns3:cad>
          </ns3:TrackPointExtension>
        </extensions>
      </trkpt>
      <trkpt lat="49.8512790910899639129638671875" lon="6.8559912778437137603759765625">
        <ele>282</ele>
        <time>2026-04-22T11:48:32.000Z</time>
        <extensions>
          <ns3:TrackPointExtension>
            <ns3:hr>123</ns3:hr>
            <ns3:cad>55</ns3:cad>
          </ns3:TrackPointExtension>
        </extensions>
      </trkpt>
      <trkpt lat="49.8512267880141735076904296875" lon="6.856021620333194732666015625">
        <ele>281.79998779296875</ele>
        <time>2026-04-22T11:48:37.000Z</time>
        <extensions>
          <ns3:TrackPointExtension>
            <ns3:hr>123</ns3:hr>
            <ns3:cad>55</ns3:cad>
          </ns3:TrackPointExtension>
        </extensions>
      </trkpt>
      <trkpt lat="49.8512103594839572906494140625" lon="6.8560117296874523162841796875">
        <ele>281.600006103515625</ele>
        <time>2026-04-22T11:48:39.000Z</time>
        <extensions>
          <ns3:TrackPointExtension>
            <ns3:hr>123</ns3:hr>
            <ns3:cad>48</ns3:cad>
          </ns3:TrackPointExtension>
        </extensions>
      </trkpt>
      <trkpt lat="49.8511989600956439971923828125" lon="6.85601214878261089324951171875">
        <ele>281.399993896484375</ele>
        <time>2026-04-22T11:48:45.000Z</time>
        <extensions>
          <ns3:TrackPointExtension>
            <ns3:hr>124</ns3:hr>
            <ns3:cad>0</ns3:cad>
          </ns3:TrackPointExtension>
        </extensions>
      </trkpt>
      <trkpt lat="49.8511459864675998687744140625" lon="6.85591374523937702178955078125">
        <ele>281.20001220703125</ele>
        <time>2026-04-22T11:48:53.000Z</time>
        <extensions>
          <ns3:TrackPointExtension>
            <ns3:hr>124</ns3:hr>
            <ns3:cad>50</ns3:cad>
          </ns3:TrackPointExtension>
        </extensions>
      </trkpt>
      <trkpt lat="49.85113819129765033721923828125" lon="6.85580779798328876495361328125">
        <ele>280.399993896484375</ele>
        <time>2026-04-22T11:49:00.000Z</time>
        <extensions>
          <ns3:TrackPointExtension>
            <ns3:hr>123</ns3:hr>
            <ns3:cad>52</ns3:cad>
          </ns3:TrackPointExtension>
        </extensions>
      </trkpt>
      <trkpt lat="49.8511365987360477447509765625" lon="6.855796985328197479248046875">
        <ele>280.20001220703125</ele>
        <time>2026-04-22T11:49:01.000Z</time>
        <extensions>
          <ns3:TrackPointExtension>
            <ns3:hr>123</ns3:hr>
            <ns3:cad>52</ns3:cad>
          </ns3:TrackPointExtension>
        </extensions>
      </trkpt>
      <trkpt lat="49.85112008638679981231689453125" lon="6.85572800226509571075439453125">
        <ele>279.399993896484375</ele>
        <time>2026-04-22T11:49:06.000Z</time>
        <extensions>
          <ns3:TrackPointExtension>
            <ns3:hr>124</ns3:hr>
            <ns3:cad>0</ns3:cad>
          </ns3:TrackPointExtension>
        </extensions>
      </trkpt>
      <trkpt lat="49.851101897656917572021484375" lon="6.855653487145900726318359375">
        <ele>278.600006103515625</ele>
        <time>2026-04-22T11:49:11.000Z</time>
        <extensions>
          <ns3:TrackPointExtension>
            <ns3:hr>123</ns3:hr>
            <ns3:cad>53</ns3:cad>
          </ns3:TrackPointExtension>
        </extensions>
      </trkpt>
      <trkpt lat="49.8510955274105072021484375" lon="6.85562356375157833099365234375">
        <ele>278.399993896484375</ele>
        <time>2026-04-22T11:49:13.000Z</time>
        <extensions>
          <ns3:TrackPointExtension>
            <ns3:hr>123</ns3:hr>
            <ns3:cad>53</ns3:cad>
          </ns3:TrackPointExtension>
        </extensions>
      </trkpt>
      <trkpt lat="49.8510646820068359375" lon="6.8555228970944881439208984375">
        <ele>277.399993896484375</ele>
        <time>2026-04-22T11:49:20.000Z</time>
        <extensions>
          <ns3:TrackPointExtension>
            <ns3:hr>123</ns3:hr>
            <ns3:cad>54</ns3:cad>
          </ns3:TrackPointExtension>
        </extensions>
      </trkpt>
      <trkpt lat="49.85105420462787151336669921875" lon="6.85544569976627826690673828125">
        <ele>276.79998779296875</ele>
        <time>2026-04-22T11:49:25.000Z</time>
        <extensions>
          <ns3:TrackPointExtension>
            <ns3:hr>123</ns3:hr>
            <ns3:cad>0</ns3:cad>
          </ns3:TrackPointExtension>
        </extensions>
      </trkpt>
      <trkpt lat="49.85104632563889026641845703125" lon="6.855376549065113067626953125">
        <ele>276.20001220703125</ele>
        <time>2026-04-22T11:49:29.000Z</time>
        <extensions>
          <ns3:TrackPointExtension>
            <ns3:hr>122</ns3:hr>
            <ns3:cad>0</ns3:cad>
          </ns3:TrackPointExtension>
        </extensions>
      </trkpt>
      <trkpt lat="49.85102671198546886444091796875" lon="6.85526465065777301788330078125">
        <ele>275.20001220703125</ele>
        <time>2026-04-22T11:49:36.000Z</time>
        <extensions>
          <ns3:TrackPointExtension>
            <ns3:hr>121</ns3:hr>
            <ns3:cad>52</ns3:cad>
          </ns3:TrackPointExtension>
        </extensions>
      </trkpt>
      <trkpt lat="49.85099435783922672271728515625" lon="6.85509793460369110107421875">
        <ele>274</ele>
        <time>2026-04-22T11:49:46.000Z</time>
        <extensions>
          <ns3:TrackPointExtension>
            <ns3:hr>121</ns3:hr>
            <ns3:cad>53</ns3:cad>
          </ns3:TrackPointExtension>
        </extensions>
      </trkpt>
      <trkpt lat="49.85097809694707393646240234375" lon="6.855073459446430206298828125">
        <ele>273.79998779296875</ele>
        <time>2026-04-22T11:49:48.000Z</time>
        <extensions>
          <ns3:TrackPointExtension>
            <ns3:hr>120</ns3:hr>
            <ns3:cad>54</ns3:cad>
          </ns3:TrackPointExtension>
        </extensions>
      </trkpt>
      <trkpt lat="49.85093518160283565521240234375" lon="6.85495552606880664825439453125">
        <ele>273.20001220703125</ele>
        <time>2026-04-22T11:49:57.000Z</time>
        <extensions>
          <ns3:TrackPointExtension>
            <ns3:hr>120</ns3:hr>
            <ns3:cad>53</ns3:cad>
          </ns3:TrackPointExtension>
        </extensions>
      </trkpt>
      <trkpt lat="49.85092914663255214691162109375" lon="6.85494915582239627838134765625">
        <ele>273</ele>
        <time>2026-04-22T11:49:58.000Z</time>
        <extensions>
          <ns3:TrackPointExtension>
            <ns3:hr>120</ns3:hr>
            <ns3:cad>53</ns3:cad>
          </ns3:TrackPointExtension>
        </extensions>
      </trkpt>
      <trkpt lat="49.85088740475475788116455078125" lon="6.8549401871860027313232421875">
        <ele>272.600006103515625</ele>
        <time>2026-04-22T11:50:03.000Z</time>
        <extensions>
          <ns3:TrackPointExtension>
            <ns3:hr>120</ns3:hr>
            <ns3:cad>54</ns3:cad>
          </ns3:TrackPointExtension>
        </extensions>
      </trkpt>
      <trkpt lat="49.85086427070200443267822265625" lon="6.8549452163279056549072265625">
        <ele>272</ele>
        <time>2026-04-22T11:50:08.000Z</time>
        <extensions>
          <ns3:TrackPointExtension>
            <ns3:hr>121</ns3:hr>
            <ns3:cad>0</ns3:cad>
          </ns3:TrackPointExtension>
        </extensions>
      </trkpt>
      <trkpt lat="49.85079444944858551025390625" lon="6.85495133511722087860107421875">
        <ele>271.600006103515625</ele>
        <time>2026-04-22T11:50:14.000Z</time>
        <extensions>
          <ns3:TrackPointExtension>
            <ns3:hr>122</ns3:hr>
            <ns3:cad>55</ns3:cad>
          </ns3:TrackPointExtension>
        </extensions>
      </trkpt>
      <trkpt lat="49.85075287520885467529296875" lon="6.85494630597531795501708984375">
        <ele>270.79998779296875</ele>
        <time>2026-04-22T11:50:18.000Z</time>
        <extensions>
          <ns3:TrackPointExtension>
            <ns3:hr>122</ns3:hr>
            <ns3:cad>56</ns3:cad>
          </ns3:TrackPointExtension>
        </extensions>
      </trkpt>
      <trkpt lat="49.8507024161517620086669921875" lon="6.8549497425556182861328125">
        <ele>269.79998779296875</ele>
        <time>2026-04-22T11:50:22.000Z</time>
        <extensions>
          <ns3:TrackPointExtension>
            <ns3:hr>120</ns3:hr>
            <ns3:cad>55</ns3:cad>
          </ns3:TrackPointExtension>
        </extensions>
      </trkpt>
      <trkpt lat="49.85068171285092830657958984375" lon="6.8549485690891742706298828125">
        <ele>269.600006103515625</ele>
        <time>2026-04-22T11:50:24.000Z</time>
        <extensions>
          <ns3:TrackPointExtension>
            <ns3:hr>120</ns3:hr>
            <ns3:cad>0</ns3:cad>
          </ns3:TrackPointExtension>
        </extensions>
      </trkpt>
      <trkpt lat="49.85058649443089962005615234375" lon="6.8549606390297412872314453125">
        <ele>269.600006103515625</ele>
        <time>2026-04-22T11:50:36.000Z</time>
        <extensions>
          <ns3:TrackPointExtension>
            <ns3:hr>119</ns3:hr>
            <ns3:cad>0</ns3:cad>
          </ns3:TrackPointExtension>
        </extensions>
      </trkpt>
      <trkpt lat="49.85056302510201930999755859375" lon="6.85497262515127658843994140625">
        <ele>269.600006103515625</ele>
        <time>2026-04-22T11:50:44.000Z</time>
        <extensions>
          <ns3:TrackPointExtension>
            <ns3:hr>119</ns3:hr>
            <ns3:cad>0</ns3:cad>
          </ns3:TrackPointExtension>
        </extensions>
      </trkpt>
      <trkpt lat="49.85048155300319194793701171875" lon="6.85496189631521701812744140625">
        <ele>268.600006103515625</ele>
        <time>2026-04-22T11:50:51.000Z</time>
        <extensions>
          <ns3:TrackPointExtension>
            <ns3:hr>119</ns3:hr>
            <ns3:cad>55</ns3:cad>
          </ns3:TrackPointExtension>
        </extensions>
      </trkpt>
      <trkpt lat="49.85045674256980419158935546875" lon="6.854956783354282379150390625">
        <ele>268.399993896484375</ele>
        <time>2026-04-22T11:50:53.000Z</time>
        <extensions>
          <ns3:TrackPointExtension>
            <ns3:hr>120</ns3:hr>
            <ns3:cad>55</ns3:cad>
          </ns3:TrackPointExtension>
        </extensions>
      </trkpt>
      <trkpt lat="49.85040016472339630126953125" lon="6.85494898818433284759521484375">
        <ele>267.399993896484375</ele>
        <time>2026-04-22T11:50:58.000Z</time>
        <extensions>
          <ns3:TrackPointExtension>
            <ns3:hr>120</ns3:hr>
            <ns3:cad>56</ns3:cad>
          </ns3:TrackPointExtension>
        </extensions>
      </trkpt>
      <trkpt lat="49.85029765404760837554931640625" lon="6.85494010336697101593017578125">
        <ele>267.399993896484375</ele>
        <time>2026-04-22T11:51:06.000Z</time>
        <extensions>
          <ns3:TrackPointExtension>
            <ns3:hr>120</ns3:hr>
            <ns3:cad>56</ns3:cad>
          </ns3:TrackPointExtension>
        </extensions>
      </trkpt>
      <trkpt lat="49.85018835403025150299072265625" lon="6.8549331463873386383056640625">
        <ele>266.20001220703125</ele>
        <time>2026-04-22T11:51:17.000Z</time>
        <extensions>
          <ns3:TrackPointExtension>
            <ns3:hr>121</ns3:hr>
            <ns3:cad>56</ns3:cad>
          </ns3:TrackPointExtension>
        </extensions>
      </trkpt>
      <trkpt lat="49.8500345461070537567138671875" lon="6.85492434538900852203369140625">
        <ele>265.399993896484375</ele>
        <time>2026-04-22T11:51:30.000Z</time>
        <extensions>
          <ns3:TrackPointExtension>
            <ns3:hr>120</ns3:hr>
            <ns3:cad>57</ns3:cad>
          </ns3:TrackPointExtension>
        </extensions>
      </trkpt>
      <trkpt lat="49.84999506734311580657958984375" lon="6.8549250997602939605712890625">
        <ele>265.20001220703125</ele>
        <time>2026-04-22T11:51:33.000Z</time>
        <extensions>
          <ns3:TrackPointExtension>
            <ns3:hr>120</ns3:hr>
            <ns3:cad>56</ns3:cad>
          </ns3:TrackPointExtension>
        </extensions>
      </trkpt>
      <trkpt lat="49.8499126732349395751953125" lon="6.85493926517665386199951171875">
        <ele>264.79998779296875</ele>
        <time>2026-04-22T11:51:40.000Z</time>
        <extensions>
          <ns3:TrackPointExtension>
            <ns3:hr>120</ns3:hr>
            <ns3:cad>56</ns3:cad>
          </ns3:TrackPointExtension>
        </extensions>
      </trkpt>
      <trkpt lat="49.84981267713010311126708984375" lon="6.85493507422506809234619140625">
        <ele>264.600006103515625</ele>
        <time>2026-04-22T11:51:48.000Z</time>
        <extensions>
          <ns3:TrackPointExtension>
            <ns3:hr>120</ns3:hr>
            <ns3:cad>57</ns3:cad>
          </ns3:TrackPointExtension>
        </extensions>
      </trkpt>
      <trkpt lat="49.84976624138653278350830078125" lon="6.85494102537631988525390625">
        <ele>264</ele>
        <time>2026-04-22T11:51:52.000Z</time>
        <extensions>
          <ns3:TrackPointExtension>
            <ns3:hr>120</ns3:hr>
            <ns3:cad>58</ns3:cad>
          </ns3:TrackPointExtension>
        </extensions>
      </trkpt>
      <trkpt lat="49.84971159137785434722900390625" lon="6.85497933067381381988525390625">
        <ele>263.600006103515625</ele>
        <time>2026-04-22T11:51:58.000Z</time>
        <extensions>
          <ns3:TrackPointExtension>
            <ns3:hr>120</ns3:hr>
            <ns3:cad>58</ns3:cad>
          </ns3:TrackPointExtension>
        </extensions>
      </trkpt>
      <trkpt lat="49.84958418644964694976806640625" lon="6.85502811335027217864990234375">
        <ele>263.79998779296875</ele>
        <time>2026-04-22T11:52:09.000Z</time>
        <extensions>
          <ns3:TrackPointExtension>
            <ns3:hr>120</ns3:hr>
            <ns3:cad>51</ns3:cad>
          </ns3:TrackPointExtension>
        </extensions>
      </trkpt>
      <trkpt lat="49.84949617646634578704833984375" lon="6.855049990117549896240234375">
        <ele>264</ele>
        <time>2026-04-22T11:52:17.000Z</time>
        <extensions>
          <ns3:TrackPointExtension>
            <ns3:hr>123</ns3:hr>
            <ns3:cad>51</ns3:cad>
          </ns3:TrackPointExtension>
        </extensions>
      </trkpt>
      <trkpt lat="49.84948762692511081695556640625" lon="6.8550528399646282196044921875">
        <ele>264.20001220703125</ele>
        <time>2026-04-22T11:52:18.000Z</time>
        <extensions>
          <ns3:TrackPointExtension>
            <ns3:hr>123</ns3:hr>
            <ns3:cad>50</ns3:cad>
          </ns3:TrackPointExtension>
        </extensions>
      </trkpt>
      <trkpt lat="49.84943498857319355010986328125" lon="6.85508527792990207672119140625">
        <ele>264.600006103515625</ele>
        <time>2026-04-22T11:52:23.000Z</time>
        <extensions>
          <ns3:TrackPointExtension>
            <ns3:hr>126</ns3:hr>
            <ns3:cad>49</ns3:cad>
          </ns3:TrackPointExtension>
        </extensions>
      </trkpt>
      <trkpt lat="49.84935351647436618804931640625" lon="6.855121068656444549560546875">
        <ele>265</ele>
        <time>2026-04-22T11:52:31.000Z</time>
        <extensions>
          <ns3:TrackPointExtension>
            <ns3:hr>126</ns3:hr>
            <ns3:cad>50</ns3:cad>
          </ns3:TrackPointExtension>
        </extensions>
      </trkpt>
      <trkpt lat="49.849344380199909210205078125" lon="6.8551266007125377655029296875">
        <ele>265.20001220703125</ele>
        <time>2026-04-22T11:52:32.000Z</time>
        <extensions>
          <ns3:TrackPointExtension>
            <ns3:hr>127</ns3:hr>
            <ns3:cad>50</ns3:cad>
          </ns3:TrackPointExtension>
        </extensions>
      </trkpt>
      <trkpt lat="49.8492603935301303863525390625" lon="6.855187118053436279296875">
        <ele>265.79998779296875</ele>
        <time>2026-04-22T11:52:41.000Z</time>
        <extensions>
          <ns3:TrackPointExtension>
            <ns3:hr>127</ns3:hr>
            <ns3:cad>47</ns3:cad>
          </ns3:TrackPointExtension>
        </extensions>
      </trkpt>
      <trkpt lat="49.849222339689731597900390625" lon="6.855210252106189727783203125">
        <ele>266.20001220703125</ele>
        <time>2026-04-22T11:52:45.000Z</time>
        <extensions>
          <ns3:TrackPointExtension>
            <ns3:hr>128</ns3:hr>
            <ns3:cad>47</ns3:cad>
          </ns3:TrackPointExtension>
        </extensions>
      </trkpt>
      <trkpt lat="49.84918889589607715606689453125" lon="6.8552291952073574066162109375">
        <ele>266.79998779296875</ele>
        <time>2026-04-22T11:52:49.000Z</time>
        <extensions>
          <ns3:TrackPointExtension>
            <ns3:hr>128</ns3:hr>
            <ns3:cad>46</ns3:cad>
          </ns3:TrackPointExtension>
        </extensions>
      </trkpt>
      <trkpt lat="49.8491417057812213897705078125" lon="6.85525258071720600128173828125">
        <ele>267.20001220703125</ele>
        <time>2026-04-22T11:52:54.000Z</time>
        <extensions>
          <ns3:TrackPointExtension>
            <ns3:hr>129</ns3:hr>
            <ns3:cad>45</ns3:cad>
          </ns3:TrackPointExtension>
        </extensions>
      </trkpt>
      <trkpt lat="49.84910122118890285491943359375" lon="6.8552804924547672271728515625">
        <ele>267.79998779296875</ele>
        <time>2026-04-22T11:52:59.000Z</time>
        <extensions>
          <ns3:TrackPointExtension>
            <ns3:hr>129</ns3:hr>
            <ns3:cad>45</ns3:cad>
          </ns3:TrackPointExtension>
        </extensions>
      </trkpt>
      <trkpt lat="49.84905830584466457366943359375" lon="6.85531158931553363800048828125">
        <ele>268.20001220703125</ele>
        <time>2026-04-22T11:53:04.000Z</time>
        <extensions>
          <ns3:TrackPointExtension>
            <ns3:hr>130</ns3:hr>
            <ns3:cad>46</ns3:cad>
          </ns3:TrackPointExtension>
        </extensions>
      </trkpt>
      <trkpt lat="49.8490183241665363311767578125" lon="6.8553307838737964630126953125">
        <ele>268.20001220703125</ele>
        <time>2026-04-22T11:53:09.000Z</time>
        <extensions>
          <ns3:TrackPointExtension>
            <ns3:hr>130</ns3:hr>
            <ns3:cad>46</ns3:cad>
          </ns3:TrackPointExtension>
        </extensions>
      </trkpt>
      <trkpt lat="49.8489566333591938018798828125" lon="6.85536104254424571990966796875">
        <ele>268.20001220703125</ele>
        <time>2026-04-22T11:53:16.000Z</time>
        <extensions>
          <ns3:TrackPointExtension>
            <ns3:hr>129</ns3:hr>
            <ns3:cad>46</ns3:cad>
          </ns3:TrackPointExtension>
        </extensions>
      </trkpt>
      <trkpt lat="49.848928637802600860595703125" lon="6.8553797341883182525634765625">
        <ele>268.399993896484375</ele>
        <time>2026-04-22T11:53:19.000Z</time>
        <extensions>
          <ns3:TrackPointExtension>
            <ns3:hr>130</ns3:hr>
            <ns3:cad>42</ns3:cad>
          </ns3:TrackPointExtension>
        </extensions>
      </trkpt>
      <trkpt lat="49.84888597391545772552490234375" lon="6.85540764592587947845458984375">
        <ele>269.600006103515625</ele>
        <time>2026-04-22T11:53:24.000Z</time>
        <extensions>
          <ns3:TrackPointExtension>
            <ns3:hr>131</ns3:hr>
            <ns3:cad>43</ns3:cad>
          </ns3:TrackPointExtension>
        </extensions>
      </trkpt>
      <trkpt lat="49.8488604091107845306396484375" lon="6.85543329454958438873291015625">
        <ele>269.79998779296875</ele>
        <time>2026-04-22T11:53:27.000Z</time>
        <extensions>
          <ns3:TrackPointExtension>
            <ns3:hr>131</ns3:hr>
            <ns3:cad>43</ns3:cad>
          </ns3:TrackPointExtension>
        </extensions>
      </trkpt>
      <trkpt lat="49.8488332517445087432861328125" lon="6.85546246357262134552001953125">
        <ele>270.79998779296875</ele>
        <time>2026-04-22T11:53:31.000Z</time>
        <extensions>
          <ns3:TrackPointExtension>
            <ns3:hr>132</ns3:hr>
            <ns3:cad>46</ns3:cad>
          </ns3:TrackPointExtension>
        </extensions>
      </trkpt>
      <trkpt lat="49.84880215488374233245849609375" lon="6.8555054627358913421630859375">
        <ele>271.79998779296875</ele>
        <time>2026-04-22T11:53:36.000Z</time>
        <extensions>
          <ns3:TrackPointExtension>
            <ns3:hr>132</ns3:hr>
            <ns3:cad>45</ns3:cad>
          </ns3:TrackPointExtension>
        </extensions>
      </trkpt>
      <trkpt lat="49.848779104650020599365234375" lon="6.8555359728634357452392578125">
        <ele>272.399993896484375</ele>
        <time>2026-04-22T11:53:40.000Z</time>
        <extensions>
          <ns3:TrackPointExtension>
            <ns3:hr>130</ns3:hr>
            <ns3:cad>0</ns3:cad>
          </ns3:TrackPointExtension>
        </extensions>
      </trkpt>
      <trkpt lat="49.84875404275953769683837890625" lon="6.85552247799932956695556640625">
        <ele>272.20001220703125</ele>
        <time>2026-04-22T11:53:43.000Z</time>
        <extensions>
          <ns3:TrackPointExtension>
            <ns3:hr>131</ns3:hr>
            <ns3:cad>0</ns3:cad>
          </ns3:TrackPointExtension>
        </extensions>
      </trkpt>
      <trkpt lat="49.84872085042297840118408203125" lon="6.85547352768480777740478515625">
        <ele>271.600006103515625</ele>
        <time>2026-04-22T11:53:48.000Z</time>
        <extensions>
          <ns3:TrackPointExtension>
            <ns3:hr>131</ns3:hr>
            <ns3:cad>0</ns3:cad>
          </ns3:TrackPointExtension>
        </extensions>
      </trkpt>
      <trkpt lat="49.8486599139869213104248046875" lon="6.855360455811023712158203125">
        <ele>270.79998779296875</ele>
        <time>2026-04-22T11:53:57.000Z</time>
        <extensions>
          <ns3:TrackPointExtension>
            <ns3:hr>131</ns3:hr>
            <ns3:cad>0</ns3:cad>
          </ns3:TrackPointExtension>
        </extensions>
      </trkpt>
      <trkpt lat="49.848632253706455230712890625" lon="6.85530739836394786834716796875">
        <ele>270.399993896484375</ele>
        <time>2026-04-22T11:54:01.000Z</time>
        <extensions>
          <ns3:TrackPointExtension>
            <ns3:hr>130</ns3:hr>
            <ns3:cad>0</ns3:cad>
          </ns3:TrackPointExtension>
        </extensions>
      </trkpt>
      <trkpt lat="49.84858221374452114105224609375" lon="6.8551822565495967864990234375">
        <ele>269.600006103515625</ele>
        <time>2026-04-22T11:54:10.000Z</time>
        <extensions>
          <ns3:TrackPointExtension>
            <ns3:hr>129</ns3:hr>
            <ns3:cad>52</ns3:cad>
          </ns3:TrackPointExtension>
        </extensions>
      </trkpt>
      <trkpt lat="49.8485278151929378509521484375" lon="6.85503783635795116424560546875">
        <ele>268.79998779296875</ele>
        <time>2026-04-22T11:54:20.000Z</time>
        <extensions>
          <ns3:TrackPointExtension>
            <ns3:hr>128</ns3:hr>
            <ns3:cad>0</ns3:cad>
          </ns3:TrackPointExtension>
        </extensions>
      </trkpt>
      <trkpt lat="49.848522953689098358154296875" lon="6.85502174310386180877685546875">
        <ele>268.600006103515625</ele>
        <time>2026-04-22T11:54:21.000Z</time>
        <extensions>
          <ns3:TrackPointExtension>
            <ns3:hr>128</ns3:hr>
            <ns3:cad>0</ns3:cad>
          </ns3:TrackPointExtension>
        </extensions>
      </trkpt>
      <trkpt lat="49.8484553955495357513427734375" lon="6.854849159717559814453125">
        <ele>268.20001220703125</ele>
        <time>2026-04-22T11:54:33.000Z</time>
        <extensions>
          <ns3:TrackPointExtension>
            <ns3:hr>125</ns3:hr>
            <ns3:cad>0</ns3:cad>
          </ns3:TrackPointExtension>
        </extensions>
      </trkpt>
      <trkpt lat="49.84844508580863475799560546875" lon="6.85482024215161800384521484375">
        <ele>267.600006103515625</ele>
        <time>2026-04-22T11:54:35.000Z</time>
        <extensions>
          <ns3:TrackPointExtension>
            <ns3:hr>125</ns3:hr>
            <ns3:cad>53</ns3:cad>
          </ns3:TrackPointExtension>
        </extensions>
      </trkpt>
      <trkpt lat="49.8484124802052974700927734375" lon="6.8547172285616397857666015625">
        <ele>266.600006103515625</ele>
        <time>2026-04-22T11:54:42.000Z</time>
        <extensions>
          <ns3:TrackPointExtension>
            <ns3:hr>125</ns3:hr>
            <ns3:cad>0</ns3:cad>
          </ns3:TrackPointExtension>
        </extensions>
      </trkpt>
      <trkpt lat="49.84836210496723651885986328125" lon="6.854583285748958587646484375">
        <ele>265.79998779296875</ele>
        <time>2026-04-22T11:54:51.000Z</time>
        <extensions>
          <ns3:TrackPointExtension>
            <ns3:hr>125</ns3:hr>
            <ns3:cad>51</ns3:cad>
          </ns3:TrackPointExtension>
        </extensions>
      </trkpt>
      <trkpt lat="49.8483514599502086639404296875" lon="6.85453207232058048248291015625">
        <ele>265.600006103515625</ele>
        <time>2026-04-22T11:54:54.000Z</time>
        <extensions>
          <ns3:TrackPointExtension>
            <ns3:hr>125</ns3:hr>
            <ns3:cad>53</ns3:cad>
          </ns3:TrackPointExtension>
        </extensions>
      </trkpt>
      <trkpt lat="49.8483115620911121368408203125" lon="6.854413636028766632080078125">
        <ele>265</ele>
        <time>2026-04-22T11:55:02.000Z</time>
        <extensions>
          <ns3:TrackPointExtension>
            <ns3:hr>123</ns3:hr>
            <ns3:cad>0</ns3:cad>
          </ns3:TrackPointExtension>
        </extensions>
      </trkpt>
      <trkpt lat="49.84828851185739040374755859375" lon="6.8543524481356143951416015625">
        <ele>264.399993896484375</ele>
        <time>2026-04-22T11:55:06.000Z</time>
        <extensions>
          <ns3:TrackPointExtension>
            <ns3:hr>123</ns3:hr>
            <ns3:cad>54</ns3:cad>
          </ns3:TrackPointExtension>
        </extensions>
      </trkpt>
      <trkpt lat="49.848260767757892608642578125" lon="6.8543048389256000518798828125">
        <ele>264</ele>
        <time>2026-04-22T11:55:10.000Z</time>
        <extensions>
          <ns3:TrackPointExtension>
            <ns3:hr>123</ns3:hr>
            <ns3:cad>53</ns3:cad>
          </ns3:TrackPointExtension>
        </extensions>
      </trkpt>
      <trkpt lat="49.848211146891117095947265625" lon="6.85421523638069629669189453125">
        <ele>263.399993896484375</ele>
        <time>2026-04-22T11:55:17.000Z</time>
        <extensions>
          <ns3:TrackPointExtension>
            <ns3:hr>122</ns3:hr>
            <ns3:cad>53</ns3:cad>
          </ns3:TrackPointExtension>
        </extensions>
      </trkpt>
      <trkpt lat="49.84819748438894748687744140625" lon="6.85417047701776027679443359375">
        <ele>263</ele>
        <time>2026-04-22T11:55:20.000Z</time>
        <extensions>
          <ns3:TrackPointExtension>
            <ns3:hr>119</ns3:hr>
            <ns3:cad>0</ns3:cad>
          </ns3:TrackPointExtension>
        </extensions>
      </trkpt>
      <trkpt lat="49.8481786251068115234375" lon="6.854082047939300537109375">
        <ele>262.600006103515625</ele>
        <time>2026-04-22T11:55:25.000Z</time>
        <extensions>
          <ns3:TrackPointExtension>
            <ns3:hr>122</ns3:hr>
            <ns3:cad>54</ns3:cad>
          </ns3:TrackPointExtension>
        </extensions>
      </trkpt>
      <trkpt lat="49.8481821455061435699462890625" lon="6.8540610931813716888427734375">
        <ele>262.600006103515625</ele>
        <time>2026-04-22T11:55:29.000Z</time>
        <extensions>
          <ns3:TrackPointExtension>
            <ns3:hr>121</ns3:hr>
            <ns3:cad>0</ns3:cad>
          </ns3:TrackPointExtension>
        </extensions>
      </trkpt>
      <trkpt lat="49.8481543175876140594482421875" lon="6.8540175072848796844482421875">
        <ele>262.399993896484375</ele>
        <time>2026-04-22T11:55:37.000Z</time>
        <extensions>
          <ns3:TrackPointExtension>
            <ns3:hr>121</ns3:hr>
            <ns3:cad>0</ns3:cad>
          </ns3:TrackPointExtension>
        </extensions>
      </trkpt>
      <trkpt lat="49.8481155931949615478515625" lon="6.8539125658571720123291015625">
        <ele>261.600006103515625</ele>
        <time>2026-04-22T11:55:44.000Z</time>
        <extensions>
          <ns3:TrackPointExtension>
            <ns3:hr>121</ns3:hr>
            <ns3:cad>0</ns3:cad>
          </ns3:TrackPointExtension>
        </extensions>
      </trkpt>
      <trkpt lat="49.848087094724178314208984375" lon="6.85383972711861133575439453125">
        <ele>261.20001220703125</ele>
        <time>2026-04-22T11:55:49.000Z</time>
        <extensions>
          <ns3:TrackPointExtension>
            <ns3:hr>122</ns3:hr>
            <ns3:cad>0</ns3:cad>
          </ns3:TrackPointExtension>
        </extensions>
      </trkpt>
      <trkpt lat="49.84806169755756855010986328125" lon="6.853784658014774322509765625">
        <ele>260.79998779296875</ele>
        <time>2026-04-22T11:55:53.000Z</time>
        <extensions>
          <ns3:TrackPointExtension>
            <ns3:hr>120</ns3:hr>
            <ns3:cad>0</ns3:cad>
          </ns3:TrackPointExtension>
        </extensions>
      </trkpt>
      <trkpt lat="49.847986511886119842529296875" lon="6.853626072406768798828125">
        <ele>260.399993896484375</ele>
        <time>2026-04-22T11:56:04.000Z</time>
        <extensions>
          <ns3:TrackPointExtension>
            <ns3:hr>121</ns3:hr>
            <ns3:cad>55</ns3:cad>
          </ns3:TrackPointExtension>
        </extensions>
      </trkpt>
      <trkpt lat="49.84797284938395023345947265625" lon="6.85359455645084381103515625">
        <ele>260.20001220703125</ele>
        <time>2026-04-22T11:56:06.000Z</time>
        <extensions>
          <ns3:TrackPointExtension>
            <ns3:hr>120</ns3:hr>
            <ns3:cad>55</ns3:cad>
          </ns3:TrackPointExtension>
        </extensions>
      </trkpt>
      <trkpt lat="49.847889281809329986572265625" lon="6.85339498333632946014404296875">
        <ele>259.399993896484375</ele>
        <time>2026-04-22T11:56:19.000Z</time>
        <extensions>
          <ns3:TrackPointExtension>
            <ns3:hr>121</ns3:hr>
            <ns3:cad>56</ns3:cad>
          </ns3:TrackPointExtension>
        </extensions>
      </trkpt>
      <trkpt lat="49.84787628985941410064697265625" lon="6.85336614958941936492919921875">
        <ele>259.20001220703125</ele>
        <time>2026-04-22T11:56:21.000Z</time>
        <extensions>
          <ns3:TrackPointExtension>
            <ns3:hr>120</ns3:hr>
            <ns3:cad>56</ns3:cad>
          </ns3:TrackPointExtension>
        </extensions>
      </trkpt>
      <trkpt lat="49.847799427807331085205078125" lon="6.853175126016139984130859375">
        <ele>258.399993896484375</ele>
        <time>2026-04-22T11:56:34.000Z</time>
        <extensions>
          <ns3:TrackPointExtension>
            <ns3:hr>120</ns3:hr>
            <ns3:cad>55</ns3:cad>
          </ns3:TrackPointExtension>
        </extensions>
      </trkpt>
      <trkpt lat="49.84773899428546428680419921875" lon="6.85303892008960247039794921875">
        <ele>258.20001220703125</ele>
        <time>2026-04-22T11:56:43.000Z</time>
        <extensions>
          <ns3:TrackPointExtension>
            <ns3:hr>120</ns3:hr>
            <ns3:cad>55</ns3:cad>
          </ns3:TrackPointExtension>
        </extensions>
      </trkpt>
      <trkpt lat="49.84772868454456329345703125" lon="6.85301092453300952911376953125">
        <ele>258.20001220703125</ele>
        <time>2026-04-22T11:56:45.000Z</time>
        <extensions>
          <ns3:TrackPointExtension>
            <ns3:hr>120</ns3:hr>
            <ns3:cad>55</ns3:cad>
          </ns3:TrackPointExtension>
        </extensions>
      </trkpt>
      <trkpt lat="49.84766573645174503326416015625" lon="6.852874718606472015380859375">
        <ele>257.399993896484375</ele>
        <time>2026-04-22T11:56:55.000Z</time>
        <extensions>
          <ns3:TrackPointExtension>
            <ns3:hr>119</ns3:hr>
            <ns3:cad>54</ns3:cad>
          </ns3:TrackPointExtension>
        </extensions>
      </trkpt>
      <trkpt lat="49.847652576863765716552734375" lon="6.85284680686891078948974609375">
        <ele>257</ele>
        <time>2026-04-22T11:56:57.000Z</time>
        <extensions>
          <ns3:TrackPointExtension>
            <ns3:hr>119</ns3:hr>
            <ns3:cad>54</ns3:cad>
          </ns3:TrackPointExtension>
        </extensions>
      </trkpt>
      <trkpt lat="49.84760890714824199676513671875" lon="6.85276282019913196563720703125">
        <ele>256</ele>
        <time>2026-04-22T11:57:03.000Z</time>
        <extensions>
          <ns3:TrackPointExtension>
            <ns3:hr>119</ns3:hr>
            <ns3:cad>0</ns3:cad>
          </ns3:TrackPointExtension>
        </extensions>
      </trkpt>
      <trkpt lat="49.8476031236350536346435546875" lon="6.85274831950664520263671875">
        <ele>255.8000030517578125</ele>
        <time>2026-04-22T11:57:04.000Z</time>
        <extensions>
          <ns3:TrackPointExtension>
            <ns3:hr>119</ns3:hr>
            <ns3:cad>0</ns3:cad>
          </ns3:TrackPointExtension>
        </extensions>
      </trkpt>
      <trkpt lat="49.84759683720767498016357421875" lon="6.85273750685155391693115234375">
        <ele>255.600006103515625</ele>
        <time>2026-04-22T11:57:05.000Z</time>
        <extensions>
          <ns3:TrackPointExtension>
            <ns3:hr>119</ns3:hr>
            <ns3:cad>0</ns3:cad>
          </ns3:TrackPointExtension>
        </extensions>
      </trkpt>
      <trkpt lat="49.8475816659629344940185546875" lon="6.85269274748861789703369140625">
        <ele>255</ele>
        <time>2026-04-22T11:57:08.000Z</time>
        <extensions>
          <ns3:TrackPointExtension>
            <ns3:hr>119</ns3:hr>
            <ns3:cad>54</ns3:cad>
          </ns3:TrackPointExtension>
        </extensions>
      </trkpt>
      <trkpt lat="49.8475625552237033843994140625" lon="6.85265050269663333892822265625">
        <ele>254.1999969482421875</ele>
        <time>2026-04-22T11:57:11.000Z</time>
        <extensions>
          <ns3:TrackPointExtension>
            <ns3:hr>120</ns3:hr>
            <ns3:cad>54</ns3:cad>
          </ns3:TrackPointExtension>
        </extensions>
      </trkpt>
      <trkpt lat="49.84754805453121662139892578125" lon="6.8525976128876209259033203125">
        <ele>254</ele>
        <time>2026-04-22T11:57:14.000Z</time>
        <extensions>
          <ns3:TrackPointExtension>
            <ns3:hr>119</ns3:hr>
            <ns3:cad>56</ns3:cad>
          </ns3:TrackPointExtension>
        </extensions>
      </trkpt>
      <trkpt lat="49.847510755062103271484375" lon="6.852465011179447174072265625">
        <ele>253.399993896484375</ele>
        <time>2026-04-22T11:57:22.000Z</time>
        <extensions>
          <ns3:TrackPointExtension>
            <ns3:hr>120</ns3:hr>
            <ns3:cad>0</ns3:cad>
          </ns3:TrackPointExtension>
        </extensions>
      </trkpt>
      <trkpt lat="49.847430288791656494140625" lon="6.852395273745059967041015625">
        <ele>253.399993896484375</ele>
        <time>2026-04-22T11:57:31.000Z</time>
        <extensions>
          <ns3:TrackPointExtension>
            <ns3:hr>120</ns3:hr>
            <ns3:cad>54</ns3:cad>
          </ns3:TrackPointExtension>
        </extensions>
      </trkpt>
      <trkpt lat="49.84729324467480182647705078125" lon="6.85242150910198688507080078125">
        <ele>253.8000030517578125</ele>
        <time>2026-04-22T11:57:43.000Z</time>
        <extensions>
          <ns3:TrackPointExtension>
            <ns3:hr>122</ns3:hr>
            <ns3:cad>54</ns3:cad>
          </ns3:TrackPointExtension>
        </extensions>
      </trkpt>
      <trkpt lat="49.84721261076629161834716796875" lon="6.852442882955074310302734375">
        <ele>254.399993896484375</ele>
        <time>2026-04-22T11:57:50.000Z</time>
        <extensions>
          <ns3:TrackPointExtension>
            <ns3:hr>125</ns3:hr>
            <ns3:cad>54</ns3:cad>
          </ns3:TrackPointExtension>
        </extensions>
      </trkpt>
      <trkpt lat="49.8471669293940067291259765625" lon="6.85245771892368793487548828125">
        <ele>254.600006103515625</ele>
        <time>2026-04-22T11:57:54.000Z</time>
        <extensions>
          <ns3:TrackPointExtension>
            <ns3:hr>125</ns3:hr>
            <ns3:cad>55</ns3:cad>
          </ns3:TrackPointExtension>
        </extensions>
      </trkpt>
      <trkpt lat="49.84708989970386028289794921875" lon="6.85245553962886333465576171875">
        <ele>254.600006103515625</ele>
        <time>2026-04-22T11:58:03.000Z</time>
        <extensions>
          <ns3:TrackPointExtension>
            <ns3:hr>124</ns3:hr>
            <ns3:cad>0</ns3:cad>
          </ns3:TrackPointExtension>
        </extensions>
      </trkpt>
      <trkpt lat="49.84708738513290882110595703125" lon="6.852456964552402496337890625">
        <ele>254.600006103515625</ele>
        <time>2026-04-22T11:58:08.000Z</time>
        <extensions>
          <ns3:TrackPointExtension>
            <ns3:hr>124</ns3:hr>
            <ns3:cad>0</ns3:cad>
          </ns3:TrackPointExtension>
        </extensions>
      </trkpt>
      <trkpt lat="49.8471404425799846649169921875" lon="6.8524510972201824188232421875">
        <ele>255</ele>
        <time>2026-04-22T11:58:14.000Z</time>
        <extensions>
          <ns3:TrackPointExtension>
            <ns3:hr>123</ns3:hr>
            <ns3:cad>51</ns3:cad>
          </ns3:TrackPointExtension>
        </extensions>
      </trkpt>
      <trkpt lat="49.847149662673473358154296875" lon="6.85245034284889698028564453125">
        <ele>255</ele>
        <time>2026-04-22T11:58:15.000Z</time>
        <extensions>
          <ns3:TrackPointExtension>
            <ns3:hr>123</ns3:hr>
            <ns3:cad>51</ns3:cad>
          </ns3:TrackPointExtension>
        </extensions>
      </trkpt>
      <trkpt lat="49.8472487367689609527587890625" lon="6.85242251493036746978759765625">
        <ele>255.1999969482421875</ele>
        <time>2026-04-22T11:58:25.000Z</time>
        <extensions>
          <ns3:TrackPointExtension>
            <ns3:hr>124</ns3:hr>
            <ns3:cad>54</ns3:cad>
          </ns3:TrackPointExtension>
        </extensions>
      </trkpt>
      <trkpt lat="49.8474089987576007843017578125" lon="6.85238529928028583526611328125">
        <ele>255.399993896484375</ele>
        <time>2026-04-22T11:58:39.000Z</time>
        <extensions>
          <ns3:TrackPointExtension>
            <ns3:hr>125</ns3:hr>
            <ns3:cad>55</ns3:cad>
          </ns3:TrackPointExtension>
        </extensions>
      </trkpt>
      <trkpt lat="49.84745568595826625823974609375" lon="6.85232176445424556732177734375">
        <ele>255.1999969482421875</ele>
        <time>2026-04-22T11:58:46.000Z</time>
        <extensions>
          <ns3:TrackPointExtension>
            <ns3:hr>122</ns3:hr>
            <ns3:cad>55</ns3:cad>
          </ns3:TrackPointExtension>
        </extensions>
      </trkpt>
      <trkpt lat="49.8474559374153614044189453125" lon="6.85230885632336139678955078125">
        <ele>255.1999969482421875</ele>
        <time>2026-04-22T11:58:47.000Z</time>
        <extensions>
          <ns3:TrackPointExtension>
            <ns3:hr>122</ns3:hr>
            <ns3:cad>54</ns3:cad>
          </ns3:TrackPointExtension>
        </extensions>
      </trkpt>
      <trkpt lat="49.84745551832020282745361328125" lon="6.85229175724089145660400390625">
        <ele>255.1999969482421875</ele>
        <time>2026-04-22T11:58:48.000Z</time>
        <extensions>
          <ns3:TrackPointExtension>
            <ns3:hr>122</ns3:hr>
            <ns3:cad>54</ns3:cad>
          </ns3:TrackPointExtension>
        </extensions>
      </trkpt>
      <trkpt lat="49.847408495843410491943359375" lon="6.8521362729370594024658203125">
        <ele>254.8000030517578125</ele>
        <time>2026-04-22T11:58:58.000Z</time>
        <extensions>
          <ns3:TrackPointExtension>
            <ns3:hr>120</ns3:hr>
            <ns3:cad>53</ns3:cad>
          </ns3:TrackPointExtension>
        </extensions>
      </trkpt>
      <trkpt lat="49.84739198349416255950927734375" lon="6.85209520161151885986328125">
        <ele>254.600006103515625</ele>
        <time>2026-04-22T11:59:01.000Z</time>
        <extensions>
          <ns3:TrackPointExtension>
            <ns3:hr>123</ns3:hr>
            <ns3:cad>0</ns3:cad>
          </ns3:TrackPointExtension>
        </extensions>
      </trkpt>
      <trkpt lat="49.84736256301403045654296875" lon="6.8519671261310577392578125">
        <ele>253.8000030517578125</ele>
        <time>2026-04-22T11:59:09.000Z</time>
        <extensions>
          <ns3:TrackPointExtension>
            <ns3:hr>122</ns3:hr>
            <ns3:cad>54</ns3:cad>
          </ns3:TrackPointExtension>
        </extensions>
      </trkpt>
      <trkpt lat="49.84734705649316310882568359375" lon="6.85192496515810489654541015625">
        <ele>253.399993896484375</ele>
        <time>2026-04-22T11:59:12.000Z</time>
        <extensions>
          <ns3:TrackPointExtension>
            <ns3:hr>122</ns3:hr>
            <ns3:cad>0</ns3:cad>
          </ns3:TrackPointExtension>
        </extensions>
      </trkpt>
      <trkpt lat="49.847340770065784454345703125" lon="6.85188221745193004608154296875">
        <ele>253.1999969482421875</ele>
        <time>2026-04-22T11:59:18.000Z</time>
        <extensions>
          <ns3:TrackPointExtension>
            <ns3:hr>122</ns3:hr>
            <ns3:cad>0</ns3:cad>
          </ns3:TrackPointExtension>
        </extensions>
      </trkpt>
      <trkpt lat="49.8473231680691242218017578125" lon="6.8518316745758056640625">
        <ele>252.8000030517578125</ele>
        <time>2026-04-22T11:59:23.000Z</time>
        <extensions>
          <ns3:TrackPointExtension>
            <ns3:hr>121</ns3:hr>
            <ns3:cad>0</ns3:cad>
          </ns3:TrackPointExtension>
        </extensions>
      </trkpt>
      <trkpt lat="49.84731235541403293609619140625" lon="6.8518033437430858612060546875">
        <ele>252.600006103515625</ele>
        <time>2026-04-22T11:59:25.000Z</time>
        <extensions>
          <ns3:TrackPointExtension>
            <ns3:hr>119</ns3:hr>
            <ns3:cad>0</ns3:cad>
          </ns3:TrackPointExtension>
        </extensions>
      </trkpt>
      <trkpt lat="49.847265668213367462158203125" lon="6.8516658805310726165771484375">
        <ele>251.600006103515625</ele>
        <time>2026-04-22T11:59:34.000Z</time>
        <extensions>
          <ns3:TrackPointExtension>
            <ns3:hr>121</ns3:hr>
            <ns3:cad>0</ns3:cad>
          </ns3:TrackPointExtension>
        </extensions>
      </trkpt>
      <trkpt lat="49.84726122580468654632568359375" lon="6.85164995491504669189453125">
        <ele>251.399993896484375</ele>
        <time>2026-04-22T11:59:35.000Z</time>
        <extensions>
          <ns3:TrackPointExtension>
            <ns3:hr>121</ns3:hr>
            <ns3:cad>0</ns3:cad>
          </ns3:TrackPointExtension>
        </extensions>
      </trkpt>
      <trkpt lat="49.84721914865076541900634765625" lon="6.8515280820429325103759765625">
        <ele>250.600006103515625</ele>
        <time>2026-04-22T11:59:43.000Z</time>
        <extensions>
          <ns3:TrackPointExtension>
            <ns3:hr>121</ns3:hr>
            <ns3:cad>55</ns3:cad>
          </ns3:TrackPointExtension>
        </extensions>
      </trkpt>
      <trkpt lat="49.8472078330814838409423828125" lon="6.85150017030537128448486328125">
        <ele>250.1999969482421875</ele>
        <time>2026-04-22T11:59:45.000Z</time>
        <extensions>
          <ns3:TrackPointExtension>
            <ns3:hr>121</ns3:hr>
            <ns3:cad>55</ns3:cad>
          </ns3:TrackPointExtension>
        </extensions>
      </trkpt>
      <trkpt lat="49.84715041704475879669189453125" lon="6.85139841400086879730224609375">
        <ele>249.600006103515625</ele>
        <time>2026-04-22T11:59:53.000Z</time>
        <extensions>
          <ns3:TrackPointExtension>
            <ns3:hr>121</ns3:hr>
            <ns3:cad>55</ns3:cad>
          </ns3:TrackPointExtension>
        </extensions>
      </trkpt>
      <trkpt lat="49.84709459356963634490966796875" lon="6.851324401795864105224609375">
        <ele>249</ele>
        <time>2026-04-22T12:00:00.000Z</time>
        <extensions>
          <ns3:TrackPointExtension>
            <ns3:hr>122</ns3:hr>
            <ns3:cad>0</ns3:cad>
          </ns3:TrackPointExtension>
        </extensions>
      </trkpt>
      <trkpt lat="49.8470254428684711456298828125" lon="6.851221807301044464111328125">
        <ele>248.399993896484375</ele>
        <time>2026-04-22T12:00:09.000Z</time>
        <extensions>
          <ns3:TrackPointExtension>
            <ns3:hr>120</ns3:hr>
            <ns3:cad>56</ns3:cad>
          </ns3:TrackPointExtension>
        </extensions>
      </trkpt>
      <trkpt lat="49.84699384309351444244384765625" lon="6.85117277316749095916748046875">
        <ele>248</ele>
        <time>2026-04-22T12:00:13.000Z</time>
        <extensions>
          <ns3:TrackPointExtension>
            <ns3:hr>121</ns3:hr>
            <ns3:cad>56</ns3:cad>
          </ns3:TrackPointExtension>
        </extensions>
      </trkpt>
      <trkpt lat="49.84689594246447086334228515625" lon="6.85104788281023502349853515625">
        <ele>247.399993896484375</ele>
        <time>2026-04-22T12:00:24.000Z</time>
        <extensions>
          <ns3:TrackPointExtension>
            <ns3:hr>122</ns3:hr>
            <ns3:cad>0</ns3:cad>
          </ns3:TrackPointExtension>
        </extensions>
      </trkpt>
      <trkpt lat="49.84688839875161647796630859375" lon="6.851037405431270599365234375">
        <ele>247.399993896484375</ele>
        <time>2026-04-22T12:00:25.000Z</time>
        <extensions>
          <ns3:TrackPointExtension>
            <ns3:hr>122</ns3:hr>
            <ns3:cad>0</ns3:cad>
          </ns3:TrackPointExtension>
        </extensions>
      </trkpt>
      <trkpt lat="49.8468169011175632476806640625" lon="6.85097529552876949310302734375">
        <ele>247.1999969482421875</ele>
        <time>2026-04-22T12:00:33.000Z</time>
        <extensions>
          <ns3:TrackPointExtension>
            <ns3:hr>121</ns3:hr>
            <ns3:cad>55</ns3:cad>
          </ns3:TrackPointExtension>
        </extensions>
      </trkpt>
      <trkpt lat="49.84678077511489391326904296875" lon="6.85084789060056209564208984375">
        <ele>246.399993896484375</ele>
        <time>2026-04-22T12:00:42.000Z</time>
        <extensions>
          <ns3:TrackPointExtension>
            <ns3:hr>120</ns3:hr>
            <ns3:cad>53</ns3:cad>
          </ns3:TrackPointExtension>
        </extensions>
      </trkpt>
      <trkpt lat="49.8467771708965301513671875" lon="6.85083297081291675567626953125">
        <ele>246.1999969482421875</ele>
        <time>2026-04-22T12:00:43.000Z</time>
        <extensions>
          <ns3:TrackPointExtension>
            <ns3:hr>121</ns3:hr>
            <ns3:cad>54</ns3:cad>
          </ns3:TrackPointExtension>
        </extensions>
      </trkpt>
      <trkpt lat="49.8467723093926906585693359375" lon="6.85069701634347438812255859375">
        <ele>245.1999969482421875</ele>
        <time>2026-04-22T12:00:51.000Z</time>
        <extensions>
          <ns3:TrackPointExtension>
            <ns3:hr>120</ns3:hr>
            <ns3:cad>53</ns3:cad>
          </ns3:TrackPointExtension>
        </extensions>
      </trkpt>
      <trkpt lat="49.846772812306880950927734375" lon="6.850621663033962249755859375">
        <ele>244.8000030517578125</ele>
        <time>2026-04-22T12:00:56.000Z</time>
        <extensions>
          <ns3:TrackPointExtension>
            <ns3:hr>120</ns3:hr>
            <ns3:cad>53</ns3:cad>
          </ns3:TrackPointExtension>
        </extensions>
      </trkpt>
      <trkpt lat="49.8467820324003696441650390625" lon="6.8505383469164371490478515625">
        <ele>244.1999969482421875</ele>
        <time>2026-04-22T12:01:05.000Z</time>
        <extensions>
          <ns3:TrackPointExtension>
            <ns3:hr>119</ns3:hr>
            <ns3:cad>0</ns3:cad>
          </ns3:TrackPointExtension>
        </extensions>
      </trkpt>
      <trkpt lat="49.8467820324003696441650390625" lon="6.85051781125366687774658203125">
        <ele>244</ele>
        <time>2026-04-22T12:01:16.000Z</time>
        <extensions>
          <ns3:TrackPointExtension>
            <ns3:hr>120</ns3:hr>
            <ns3:cad>0</ns3:cad>
          </ns3:TrackPointExtension>
        </extensions>
      </trkpt>
      <trkpt lat="49.8467691242694854736328125" lon="6.85049685649573802947998046875">
        <ele>243.1999969482421875</ele>
        <time>2026-04-22T12:01:26.000Z</time>
        <extensions>
          <ns3:TrackPointExtension>
            <ns3:hr>119</ns3:hr>
            <ns3:cad>0</ns3:cad>
          </ns3:TrackPointExtension>
        </extensions>
      </trkpt>
      <trkpt lat="49.84676384367048740386962890625" lon="6.85048051178455352783203125">
        <ele>243.1999969482421875</ele>
        <time>2026-04-22T12:01:27.000Z</time>
        <extensions>
          <ns3:TrackPointExtension>
            <ns3:hr>119</ns3:hr>
            <ns3:cad>0</ns3:cad>
          </ns3:TrackPointExtension>
        </extensions>
      </trkpt>
      <trkpt lat="49.8467357642948627471923828125" lon="6.8503971956670284271240234375">
        <ele>242.1999969482421875</ele>
        <time>2026-04-22T12:01:32.000Z</time>
        <extensions>
          <ns3:TrackPointExtension>
            <ns3:hr>120</ns3:hr>
            <ns3:cad>0</ns3:cad>
          </ns3:TrackPointExtension>
        </extensions>
      </trkpt>
      <trkpt lat="49.84670550562441349029541015625" lon="6.85033299028873443603515625">
        <ele>241</ele>
        <time>2026-04-22T12:01:37.000Z</time>
        <extensions>
          <ns3:TrackPointExtension>
            <ns3:hr>119</ns3:hr>
            <ns3:cad>0</ns3:cad>
          </ns3:TrackPointExtension>
        </extensions>
      </trkpt>
      <trkpt lat="49.8466945253312587738037109375" lon="6.85030792839825153350830078125">
        <ele>240.8000030517578125</ele>
        <time>2026-04-22T12:01:39.000Z</time>
        <extensions>
          <ns3:TrackPointExtension>
            <ns3:hr>119</ns3:hr>
            <ns3:cad>0</ns3:cad>
          </ns3:TrackPointExtension>
        </extensions>
      </trkpt>
      <trkpt lat="49.8466579802334308624267578125" lon="6.8502144701778888702392578125">
        <ele>240</ele>
        <time>2026-04-22T12:01:46.000Z</time>
        <extensions>
          <ns3:TrackPointExtension>
            <ns3:hr>118</ns3:hr>
            <ns3:cad>54</ns3:cad>
          </ns3:TrackPointExtension>
        </extensions>
      </trkpt>
      <trkpt lat="49.84665303491055965423583984375" lon="6.85020382516086101531982421875">
        <ele>239.8000030517578125</ele>
        <time>2026-04-22T12:01:47.000Z</time>
        <extensions>
          <ns3:TrackPointExtension>
            <ns3:hr>118</ns3:hr>
            <ns3:cad>53</ns3:cad>
          </ns3:TrackPointExtension>
        </extensions>
      </trkpt>
      <trkpt lat="49.84661766327917575836181640625" lon="6.85008413158357143402099609375">
        <ele>238.8000030517578125</ele>
        <time>2026-04-22T12:01:55.000Z</time>
        <extensions>
          <ns3:TrackPointExtension>
            <ns3:hr>118</ns3:hr>
            <ns3:cad>54</ns3:cad>
          </ns3:TrackPointExtension>
        </extensions>
      </trkpt>
      <trkpt lat="49.84660886228084564208984375" lon="6.85003618709743022918701171875">
        <ele>238.600006103515625</ele>
        <time>2026-04-22T12:01:58.000Z</time>
        <extensions>
          <ns3:TrackPointExtension>
            <ns3:hr>118</ns3:hr>
            <ns3:cad>53</ns3:cad>
          </ns3:TrackPointExtension>
        </extensions>
      </trkpt>
      <trkpt lat="49.8465698026120662689208984375" lon="6.84989847242832183837890625">
        <ele>237.8000030517578125</ele>
        <time>2026-04-22T12:02:08.000Z</time>
        <extensions>
          <ns3:TrackPointExtension>
            <ns3:hr>118</ns3:hr>
            <ns3:cad>0</ns3:cad>
          </ns3:TrackPointExtension>
        </extensions>
      </trkpt>
      <trkpt lat="49.8465272225439548492431640625" lon="6.84971901588141918182373046875">
        <ele>236.8000030517578125</ele>
        <time>2026-04-22T12:02:20.000Z</time>
        <extensions>
          <ns3:TrackPointExtension>
            <ns3:hr>119</ns3:hr>
            <ns3:cad>0</ns3:cad>
          </ns3:TrackPointExtension>
        </extensions>
      </trkpt>
      <trkpt lat="49.846523702144622802734375" lon="6.84970677830278873443603515625">
        <ele>236.600006103515625</ele>
        <time>2026-04-22T12:02:21.000Z</time>
        <extensions>
          <ns3:TrackPointExtension>
            <ns3:hr>119</ns3:hr>
            <ns3:cad>0</ns3:cad>
          </ns3:TrackPointExtension>
        </extensions>
      </trkpt>
      <trkpt lat="49.84650366939604282379150390625" lon="6.84961625374853610992431640625">
        <ele>235.600006103515625</ele>
        <time>2026-04-22T12:02:27.000Z</time>
        <extensions>
          <ns3:TrackPointExtension>
            <ns3:hr>120</ns3:hr>
            <ns3:cad>54</ns3:cad>
          </ns3:TrackPointExtension>
        </extensions>
      </trkpt>
      <trkpt lat="49.846496880054473876953125" lon="6.84957065619528293609619140625">
        <ele>235.399993896484375</ele>
        <time>2026-04-22T12:02:30.000Z</time>
        <extensions>
          <ns3:TrackPointExtension>
            <ns3:hr>120</ns3:hr>
            <ns3:cad>0</ns3:cad>
          </ns3:TrackPointExtension>
        </extensions>
      </trkpt>
      <trkpt lat="49.84647810459136962890625" lon="6.84943101368844509124755859375">
        <ele>234.399993896484375</ele>
        <time>2026-04-22T12:02:40.000Z</time>
        <extensions>
          <ns3:TrackPointExtension>
            <ns3:hr>119</ns3:hr>
            <ns3:cad>0</ns3:cad>
          </ns3:TrackPointExtension>
        </extensions>
      </trkpt>
      <trkpt lat="49.84646058641374111175537109375" lon="6.84931785799562931060791015625">
        <ele>233.399993896484375</ele>
        <time>2026-04-22T12:02:48.000Z</time>
        <extensions>
          <ns3:TrackPointExtension>
            <ns3:hr>119</ns3:hr>
            <ns3:cad>0</ns3:cad>
          </ns3:TrackPointExtension>
        </extensions>
      </trkpt>
      <trkpt lat="49.8464568145573139190673828125" lon="6.84925817884504795074462890625">
        <ele>233.1999969482421875</ele>
        <time>2026-04-22T12:02:52.000Z</time>
        <extensions>
          <ns3:TrackPointExtension>
            <ns3:hr>119</ns3:hr>
            <ns3:cad>0</ns3:cad>
          </ns3:TrackPointExtension>
        </extensions>
      </trkpt>
      <trkpt lat="49.8464252986013889312744140625" lon="6.84917167760431766510009765625">
        <ele>232.1999969482421875</ele>
        <time>2026-04-22T12:03:02.000Z</time>
        <extensions>
          <ns3:TrackPointExtension>
            <ns3:hr>119</ns3:hr>
            <ns3:cad>0</ns3:cad>
          </ns3:TrackPointExtension>
        </extensions>
      </trkpt>
      <trkpt lat="49.84642521478235721588134765625" lon="6.8491717614233493804931640625">
        <ele>231.600006103515625</ele>
        <time>2026-04-22T12:03:10.000Z</time>
        <extensions>
          <ns3:TrackPointExtension>
            <ns3:hr>119</ns3:hr>
            <ns3:cad>0</ns3:cad>
          </ns3:TrackPointExtension>
        </extensions>
      </trkpt>
      <trkpt lat="49.8464266397058963775634765625" lon="6.84917268343269824981689453125">
        <ele>231.1999969482421875</ele>
        <time>2026-04-22T12:03:35.000Z</time>
        <extensions>
          <ns3:TrackPointExtension>
            <ns3:hr>120</ns3:hr>
            <ns3:cad>0</ns3:cad>
          </ns3:TrackPointExtension>
        </extensions>
      </trkpt>
      <trkpt lat="49.846427477896213531494140625" lon="6.84917695820331573486328125">
        <ele>230.600006103515625</ele>
        <time>2026-04-22T12:03:51.000Z</time>
        <extensions>
          <ns3:TrackPointExtension>
            <ns3:hr>118</ns3:hr>
            <ns3:cad>0</ns3:cad>
          </ns3:TrackPointExtension>
        </extensions>
      </trkpt>
      <trkpt lat="49.84642647206783294677734375" lon="6.84917888604104518890380859375">
        <ele>230.399993896484375</ele>
        <time>2026-04-22T12:04:02.000Z</time>
        <extensions>
          <ns3:TrackPointExtension>
            <ns3:hr>115</ns3:hr>
            <ns3:cad>0</ns3:cad>
          </ns3:TrackPointExtension>
        </extensions>
      </trkpt>
      <trkpt lat="49.84642655588686466217041015625" lon="6.84917964041233062744140625">
        <ele>230.1999969482421875</ele>
        <time>2026-04-22T12:04:05.000Z</time>
        <extensions>
          <ns3:TrackPointExtension>
            <ns3:hr>114</ns3:hr>
            <ns3:cad>0</ns3:cad>
          </ns3:TrackPointExtension>
        </extensions>
      </trkpt>
      <trkpt lat="49.84643007628619670867919921875" lon="6.849179305136203765869140625">
        <ele>229.1999969482421875</ele>
        <time>2026-04-22T12:04:18.000Z</time>
        <extensions>
          <ns3:TrackPointExtension>
            <ns3:hr>117</ns3:hr>
            <ns3:cad>72</ns3:cad>
          </ns3:TrackPointExtension>
        </extensions>
      </trkpt>
      <trkpt lat="49.8464338481426239013671875" lon="6.849174611270427703857421875">
        <ele>229</ele>
        <time>2026-04-22T12:04:19.000Z</time>
        <extensions>
          <ns3:TrackPointExtension>
            <ns3:hr>118</ns3:hr>
            <ns3:cad>0</ns3:cad>
          </ns3:TrackPointExtension>
        </extensions>
      </trkpt>
      <trkpt lat="49.84643594361841678619384765625" lon="6.8491610325872898101806640625">
        <ele>228</ele>
        <time>2026-04-22T12:04:24.000Z</time>
        <extensions>
          <ns3:TrackPointExtension>
            <ns3:hr>119</ns3:hr>
            <ns3:cad>0</ns3:cad>
          </ns3:TrackPointExtension>
        </extensions>
      </trkpt>
      <trkpt lat="49.84643594361841678619384765625" lon="6.84912599623203277587890625">
        <ele>227</ele>
        <time>2026-04-22T12:04:31.000Z</time>
        <extensions>
          <ns3:TrackPointExtension>
            <ns3:hr>117</ns3:hr>
            <ns3:cad>0</ns3:cad>
          </ns3:TrackPointExtension>
        </extensions>
      </trkpt>
      <trkpt lat="49.84643510542809963226318359375" lon="6.84908098541200160980224609375">
        <ele>226</ele>
        <time>2026-04-22T12:04:37.000Z</time>
        <extensions>
          <ns3:TrackPointExtension>
            <ns3:hr>117</ns3:hr>
            <ns3:cad>0</ns3:cad>
          </ns3:TrackPointExtension>
        </extensions>
      </trkpt>
      <trkpt lat="49.84642337076365947723388671875" lon="6.8490413390100002288818359375">
        <ele>224.8000030517578125</ele>
        <time>2026-04-22T12:04:43.000Z</time>
        <extensions>
          <ns3:TrackPointExtension>
            <ns3:hr>118</ns3:hr>
            <ns3:cad>0</ns3:cad>
          </ns3:TrackPointExtension>
        </extensions>
      </trkpt>
      <trkpt lat="49.84641398303210735321044921875" lon="6.84899431653320789337158203125">
        <ele>223.600006103515625</ele>
        <time>2026-04-22T12:04:50.000Z</time>
        <extensions>
          <ns3:TrackPointExtension>
            <ns3:hr>118</ns3:hr>
            <ns3:cad>0</ns3:cad>
          </ns3:TrackPointExtension>
        </extensions>
      </trkpt>
      <trkpt lat="49.84639017842710018157958984375" lon="6.8489518202841281890869140625">
        <ele>222.1999969482421875</ele>
        <time>2026-04-22T12:04:59.000Z</time>
        <extensions>
          <ns3:TrackPointExtension>
            <ns3:hr>119</ns3:hr>
            <ns3:cad>0</ns3:cad>
          </ns3:TrackPointExtension>
        </extensions>
      </trkpt>
      <trkpt lat="49.84632882289588451385498046875" lon="6.8489840067923069000244140625">
        <ele>221.600006103515625</ele>
        <time>2026-04-22T12:05:05.000Z</time>
        <extensions>
          <ns3:TrackPointExtension>
            <ns3:hr>119</ns3:hr>
            <ns3:cad>0</ns3:cad>
          </ns3:TrackPointExtension>
        </extensions>
      </trkpt>
      <trkpt lat="49.8462885059416294097900390625" lon="6.84902943670749664306640625">
        <ele>221.8000030517578125</ele>
        <time>2026-04-22T12:05:10.000Z</time>
        <extensions>
          <ns3:TrackPointExtension>
            <ns3:hr>119</ns3:hr>
            <ns3:cad>0</ns3:cad>
          </ns3:TrackPointExtension>
        </extensions>
      </trkpt>
      <trkpt lat="49.84629370272159576416015625" lon="6.84906707145273685455322265625">
        <ele>222.1999969482421875</ele>
        <time>2026-04-22T12:05:18.000Z</time>
        <extensions>
          <ns3:TrackPointExtension>
            <ns3:hr>120</ns3:hr>
            <ns3:cad>0</ns3:cad>
          </ns3:TrackPointExtension>
        </extensions>
      </trkpt>
      <trkpt lat="49.84628808684647083282470703125" lon="6.84915575198829174041748046875">
        <ele>223.1999969482421875</ele>
        <time>2026-04-22T12:05:24.000Z</time>
        <extensions>
          <ns3:TrackPointExtension>
            <ns3:hr>120</ns3:hr>
            <ns3:cad>49</ns3:cad>
          </ns3:TrackPointExtension>
        </extensions>
      </trkpt>
      <trkpt lat="49.84628691338002681732177734375" lon="6.8491709232330322265625">
        <ele>223.399993896484375</ele>
        <time>2026-04-22T12:05:25.000Z</time>
        <extensions>
          <ns3:TrackPointExtension>
            <ns3:hr>120</ns3:hr>
            <ns3:cad>49</ns3:cad>
          </ns3:TrackPointExtension>
        </extensions>
      </trkpt>
      <trkpt lat="49.8462841473519802093505859375" lon="6.84928692877292633056640625">
        <ele>224.1999969482421875</ele>
        <time>2026-04-22T12:05:32.000Z</time>
        <extensions>
          <ns3:TrackPointExtension>
            <ns3:hr>121</ns3:hr>
            <ns3:cad>49</ns3:cad>
          </ns3:TrackPointExtension>
        </extensions>
      </trkpt>
      <trkpt lat="49.8462794534862041473388671875" lon="6.84935842640697956085205078125">
        <ele>224.399993896484375</ele>
        <time>2026-04-22T12:05:36.000Z</time>
        <extensions>
          <ns3:TrackPointExtension>
            <ns3:hr>121</ns3:hr>
            <ns3:cad>49</ns3:cad>
          </ns3:TrackPointExtension>
        </extensions>
      </trkpt>
      <trkpt lat="49.846267215907573699951171875" lon="6.84950955212116241455078125">
        <ele>225.1999969482421875</ele>
        <time>2026-04-22T12:05:45.000Z</time>
        <extensions>
          <ns3:TrackPointExtension>
            <ns3:hr>122</ns3:hr>
            <ns3:cad>50</ns3:cad>
          </ns3:TrackPointExtension>
        </extensions>
      </trkpt>
      <trkpt lat="49.846266545355319976806640625" lon="6.8496575765311717987060546875">
        <ele>225.399993896484375</ele>
        <time>2026-04-22T12:05:54.000Z</time>
        <extensions>
          <ns3:TrackPointExtension>
            <ns3:hr>123</ns3:hr>
            <ns3:cad>50</ns3:cad>
          </ns3:TrackPointExtension>
        </extensions>
      </trkpt>
      <trkpt lat="49.84626629389822483062744140625" lon="6.8496723286807537078857421875">
        <ele>225.399993896484375</ele>
        <time>2026-04-22T12:05:55.000Z</time>
        <extensions>
          <ns3:TrackPointExtension>
            <ns3:hr>123</ns3:hr>
            <ns3:cad>50</ns3:cad>
          </ns3:TrackPointExtension>
        </extensions>
      </trkpt>
      <trkpt lat="49.84623913653194904327392578125" lon="6.8497879989445209503173828125">
        <ele>226</ele>
        <time>2026-04-22T12:06:03.000Z</time>
        <extensions>
          <ns3:TrackPointExtension>
            <ns3:hr>125</ns3:hr>
            <ns3:cad>50</ns3:cad>
          </ns3:TrackPointExtension>
        </extensions>
      </trkpt>
      <trkpt lat="49.8462058603763580322265625" lon="6.8498456664383411407470703125">
        <ele>226.399993896484375</ele>
        <time>2026-04-22T12:06:07.000Z</time>
        <extensions>
          <ns3:TrackPointExtension>
            <ns3:hr>126</ns3:hr>
            <ns3:cad>50</ns3:cad>
          </ns3:TrackPointExtension>
        </extensions>
      </trkpt>
      <trkpt lat="49.84613486565649509429931640625" lon="6.84990576468408107757568359375">
        <ele>226.399993896484375</ele>
        <time>2026-04-22T12:06:14.000Z</time>
        <extensions>
          <ns3:TrackPointExtension>
            <ns3:hr>126</ns3:hr>
            <ns3:cad>52</ns3:cad>
          </ns3:TrackPointExtension>
        </extensions>
      </trkpt>
      <trkpt lat="49.84607602469623088836669921875" lon="6.84998723678290843963623046875">
        <ele>226.1999969482421875</ele>
        <time>2026-04-22T12:06:22.000Z</time>
        <extensions>
          <ns3:TrackPointExtension>
            <ns3:hr>125</ns3:hr>
            <ns3:cad>53</ns3:cad>
          </ns3:TrackPointExtension>
        </extensions>
      </trkpt>
      <trkpt lat="49.8460766114294528961181640625" lon="6.8500005640089511871337890625">
        <ele>226</ele>
        <time>2026-04-22T12:06:23.000Z</time>
        <extensions>
          <ns3:TrackPointExtension>
            <ns3:hr>125</ns3:hr>
            <ns3:cad>53</ns3:cad>
          </ns3:TrackPointExtension>
        </extensions>
      </trkpt>
      <trkpt lat="49.846089519560337066650390625" lon="6.8501303158700466156005859375">
        <ele>225.399993896484375</ele>
        <time>2026-04-22T12:06:31.000Z</time>
        <extensions>
          <ns3:TrackPointExtension>
            <ns3:hr>124</ns3:hr>
            <ns3:cad>53</ns3:cad>
          </ns3:TrackPointExtension>
        </extensions>
      </trkpt>
      <trkpt lat="49.84608876518905162811279296875" lon="6.85016845352947711944580078125">
        <ele>225.1999969482421875</ele>
        <time>2026-04-22T12:06:33.000Z</time>
        <extensions>
          <ns3:TrackPointExtension>
            <ns3:hr>124</ns3:hr>
            <ns3:cad>53</ns3:cad>
          </ns3:TrackPointExtension>
        </extensions>
      </trkpt>
      <trkpt lat="49.8460762761533260345458984375" lon="6.85023835860192775726318359375">
        <ele>225.1999969482421875</ele>
        <time>2026-04-22T12:06:36.000Z</time>
        <extensions>
          <ns3:TrackPointExtension>
            <ns3:hr>124</ns3:hr>
            <ns3:cad>55</ns3:cad>
          </ns3:TrackPointExtension>
        </extensions>
      </trkpt>
      <trkpt lat="49.8460762761533260345458984375" lon="6.85023835860192775726318359375">
        <ele>225.1999969482421875</ele>
        <time>2026-04-22T12:06:37.000Z</time>
        <extensions>
          <ns3:TrackPointExtension>
            <ns3:hr>124</ns3:hr>
            <ns3:cad>55</ns3:cad>
          </ns3:TrackPointExtension>
        </extensions>
      </trkpt>
      <trkpt lat="49.846037216484546661376953125" lon="6.850289739668369293212890625">
        <ele>225.8000030517578125</ele>
        <time>2026-04-22T12:06:45.000Z</time>
        <extensions>
          <ns3:TrackPointExtension>
            <ns3:hr>125</ns3:hr>
            <ns3:cad>0</ns3:cad>
          </ns3:TrackPointExtension>
        </extensions>
      </trkpt>
      <trkpt lat="49.84603889286518096923828125" lon="6.85028915293514728546142578125">
        <ele>225.1999969482421875</ele>
        <time>2026-04-22T12:06:53.000Z</time>
        <extensions>
          <ns3:TrackPointExtension>
            <ns3:hr>123</ns3:hr>
            <ns3:cad>0</ns3:cad>
          </ns3:TrackPointExtension>
        </extensions>
      </trkpt>
      <trkpt lat="49.84606211073696613311767578125" lon="6.850319914519786834716796875">
        <ele>226.8000030517578125</ele>
        <time>2026-04-22T12:06:58.000Z</time>
        <extensions>
          <ns3:TrackPointExtension>
            <ns3:hr>124</ns3:hr>
            <ns3:cad>0</ns3:cad>
          </ns3:TrackPointExtension>
        </extensions>
      </trkpt>
      <trkpt lat="49.84607149846851825714111328125" lon="6.85035168193280696868896484375">
        <ele>227</ele>
        <time>2026-04-22T12:07:00.000Z</time>
        <extensions>
          <ns3:TrackPointExtension>
            <ns3:hr>123</ns3:hr>
            <ns3:cad>47</ns3:cad>
          </ns3:TrackPointExtension>
        </extensions>
      </trkpt>
      <trkpt lat="49.84608390368521213531494140625" lon="6.85042016208171844482421875">
        <ele>227.8000030517578125</ele>
        <time>2026-04-22T12:07:05.000Z</time>
        <extensions>
          <ns3:TrackPointExtension>
            <ns3:hr>125</ns3:hr>
            <ns3:cad>0</ns3:cad>
          </ns3:TrackPointExtension>
        </extensions>
      </trkpt>
      <trkpt lat="49.8460870049893856048583984375" lon="6.85044765472412109375">
        <ele>227.8000030517578125</ele>
        <time>2026-04-22T12:07:07.000Z</time>
        <extensions>
          <ns3:TrackPointExtension>
            <ns3:hr>125</ns3:hr>
            <ns3:cad>0</ns3:cad>
          </ns3:TrackPointExtension>
        </extensions>
      </trkpt>
      <trkpt lat="49.84610519371926784515380859375" lon="6.85057614929974079132080078125">
        <ele>228.399993896484375</ele>
        <time>2026-04-22T12:07:16.000Z</time>
        <extensions>
          <ns3:TrackPointExtension>
            <ns3:hr>125</ns3:hr>
            <ns3:cad>0</ns3:cad>
          </ns3:TrackPointExtension>
        </extensions>
      </trkpt>
      <trkpt lat="49.84611927531659603118896484375" lon="6.850681006908416748046875">
        <ele>228.8000030517578125</ele>
        <time>2026-04-22T12:07:25.000Z</time>
        <extensions>
          <ns3:TrackPointExtension>
            <ns3:hr>126</ns3:hr>
            <ns3:cad>0</ns3:cad>
          </ns3:TrackPointExtension>
        </extensions>
      </trkpt>
      <trkpt lat="49.8461146652698516845703125" lon="6.85068494640290737152099609375">
        <ele>229.1999969482421875</ele>
        <time>2026-04-22T12:07:29.000Z</time>
        <extensions>
          <ns3:TrackPointExtension>
            <ns3:hr>129</ns3:hr>
            <ns3:cad>0</ns3:cad>
          </ns3:TrackPointExtension>
        </extensions>
      </trkpt>
      <trkpt lat="49.84611910767853260040283203125" lon="6.8506835214793682098388671875">
        <ele>228</ele>
        <time>2026-04-22T12:07:33.000Z</time>
        <extensions>
          <ns3:TrackPointExtension>
            <ns3:hr>129</ns3:hr>
            <ns3:cad>0</ns3:cad>
          </ns3:TrackPointExtension>
        </extensions>
      </trkpt>
      <trkpt lat="49.84613989479839801788330078125" lon="6.8507411889731884002685546875">
        <ele>229.399993896484375</ele>
        <time>2026-04-22T12:07:40.000Z</time>
        <extensions>
          <ns3:TrackPointExtension>
            <ns3:hr>128</ns3:hr>
            <ns3:cad>0</ns3:cad>
          </ns3:TrackPointExtension>
        </extensions>
      </trkpt>
      <trkpt lat="49.8461597599089145660400390625" lon="6.8507968448102474212646484375">
        <ele>230</ele>
        <time>2026-04-22T12:07:44.000Z</time>
        <extensions>
          <ns3:TrackPointExtension>
            <ns3:hr>127</ns3:hr>
            <ns3:cad>45</ns3:cad>
          </ns3:TrackPointExtension>
        </extensions>
      </trkpt>
      <trkpt lat="49.84617560170590877532958984375" lon="6.8508367426693439483642578125">
        <ele>230.1999969482421875</ele>
        <time>2026-04-22T12:07:47.000Z</time>
        <extensions>
          <ns3:TrackPointExtension>
            <ns3:hr>128</ns3:hr>
            <ns3:cad>47</ns3:cad>
          </ns3:TrackPointExtension>
        </extensions>
      </trkpt>
      <trkpt lat="49.846206866204738616943359375" lon="6.8509383313357830047607421875">
        <ele>230.600006103515625</ele>
        <time>2026-04-22T12:07:54.000Z</time>
        <extensions>
          <ns3:TrackPointExtension>
            <ns3:hr>127</ns3:hr>
            <ns3:cad>47</ns3:cad>
          </ns3:TrackPointExtension>
        </extensions>
      </trkpt>
      <trkpt lat="49.84621717594563961029052734375" lon="6.85098485089838504791259765625">
        <ele>231</ele>
        <time>2026-04-22T12:07:57.000Z</time>
        <extensions>
          <ns3:TrackPointExtension>
            <ns3:hr>126</ns3:hr>
            <ns3:cad>47</ns3:cad>
          </ns3:TrackPointExtension>
        </extensions>
      </trkpt>
      <trkpt lat="49.84626109711825847625732421875" lon="6.85110722668468952178955078125">
        <ele>230.8000030517578125</ele>
        <time>2026-04-22T12:08:05.000Z</time>
        <extensions>
          <ns3:TrackPointExtension>
            <ns3:hr>126</ns3:hr>
            <ns3:cad>0</ns3:cad>
          </ns3:TrackPointExtension>
        </extensions>
      </trkpt>
      <trkpt lat="49.846303761005401611328125" lon="6.8512367270886898040771484375">
        <ele>230.8000030517578125</ele>
        <time>2026-04-22T12:08:14.000Z</time>
        <extensions>
          <ns3:TrackPointExtension>
            <ns3:hr>125</ns3:hr>
            <ns3:cad>49</ns3:cad>
          </ns3:TrackPointExtension>
        </extensions>
      </trkpt>
      <trkpt lat="49.84632060863077640533447265625" lon="6.8512947298586368560791015625">
        <ele>231</ele>
        <time>2026-04-22T12:08:18.000Z</time>
        <extensions>
          <ns3:TrackPointExtension>
            <ns3:hr>125</ns3:hr>
            <ns3:cad>50</ns3:cad>
          </ns3:TrackPointExtension>
        </extensions>
      </trkpt>
      <trkpt lat="49.84633871354162693023681640625" lon="6.85134208761155605316162109375">
        <ele>231</ele>
        <time>2026-04-22T12:08:21.000Z</time>
        <extensions>
          <ns3:TrackPointExtension>
            <ns3:hr>125</ns3:hr>
            <ns3:cad>49</ns3:cad>
          </ns3:TrackPointExtension>
        </extensions>
      </trkpt>
      <trkpt lat="49.84634659253060817718505859375" lon="6.85137226246297359466552734375">
        <ele>231</ele>
        <time>2026-04-22T12:08:23.000Z</time>
        <extensions>
          <ns3:TrackPointExtension>
            <ns3:hr>125</ns3:hr>
            <ns3:cad>49</ns3:cad>
          </ns3:TrackPointExtension>
        </extensions>
      </trkpt>
      <trkpt lat="49.84637014567852020263671875" lon="6.85147116892039775848388671875">
        <ele>231.8000030517578125</ele>
        <time>2026-04-22T12:08:29.000Z</time>
        <extensions>
          <ns3:TrackPointExtension>
            <ns3:hr>126</ns3:hr>
            <ns3:cad>51</ns3:cad>
          </ns3:TrackPointExtension>
        </extensions>
      </trkpt>
      <trkpt lat="49.8463904298841953277587890625" lon="6.85157191939651966094970703125">
        <ele>232</ele>
        <time>2026-04-22T12:08:36.000Z</time>
        <extensions>
          <ns3:TrackPointExtension>
            <ns3:hr>127</ns3:hr>
            <ns3:cad>50</ns3:cad>
          </ns3:TrackPointExtension>
        </extensions>
      </trkpt>
      <trkpt lat="49.84639369882643222808837890625" lon="6.8516031838953495025634765625">
        <ele>232</ele>
        <time>2026-04-22T12:08:38.000Z</time>
        <extensions>
          <ns3:TrackPointExtension>
            <ns3:hr>127</ns3:hr>
            <ns3:cad>50</ns3:cad>
          </ns3:TrackPointExtension>
        </extensions>
      </trkpt>
      <trkpt lat="49.8464016616344451904296875" lon="6.85162271372973918914794921875">
        <ele>232</ele>
        <time>2026-04-22T12:08:39.000Z</time>
        <extensions>
          <ns3:TrackPointExtension>
            <ns3:hr>127</ns3:hr>
            <ns3:cad>50</ns3:cad>
          </ns3:TrackPointExtension>
        </extensions>
      </trkpt>
      <trkpt lat="49.8464504443109035491943359375" lon="6.851739473640918731689453125">
        <ele>232.399993896484375</ele>
        <time>2026-04-22T12:08:48.000Z</time>
        <extensions>
          <ns3:TrackPointExtension>
            <ns3:hr>127</ns3:hr>
            <ns3:cad>49</ns3:cad>
          </ns3:TrackPointExtension>
        </extensions>
      </trkpt>
      <trkpt lat="49.84646226279437541961669921875" lon="6.851797141134738922119140625">
        <ele>232.600006103515625</ele>
        <time>2026-04-22T12:08:57.000Z</time>
        <extensions>
          <ns3:TrackPointExtension>
            <ns3:hr>129</ns3:hr>
            <ns3:cad>0</ns3:cad>
          </ns3:TrackPointExtension>
        </extensions>
      </trkpt>
      <trkpt lat="49.8464631848037242889404296875" lon="6.8518003262579441070556640625">
        <ele>232.600006103515625</ele>
        <time>2026-04-22T12:09:07.000Z</time>
        <extensions>
          <ns3:TrackPointExtension>
            <ns3:hr>127</ns3:hr>
            <ns3:cad>0</ns3:cad>
          </ns3:TrackPointExtension>
        </extensions>
      </trkpt>
      <trkpt lat="49.84647785313427448272705078125" lon="6.8518745899200439453125">
        <ele>232.8000030517578125</ele>
        <time>2026-04-22T12:09:15.000Z</time>
        <extensions>
          <ns3:TrackPointExtension>
            <ns3:hr>127</ns3:hr>
            <ns3:cad>47</ns3:cad>
          </ns3:TrackPointExtension>
        </extensions>
      </trkpt>
      <trkpt lat="49.8465035855770111083984375" lon="6.8519652821123600006103515625">
        <ele>233</ele>
        <time>2026-04-22T12:09:20.000Z</time>
        <extensions>
          <ns3:TrackPointExtension>
            <ns3:hr>128</ns3:hr>
            <ns3:cad>46</ns3:cad>
          </ns3:TrackPointExtension>
        </extensions>
      </trkpt>
      <trkpt lat="49.846520014107227325439453125" lon="6.85202789492905139923095703125">
        <ele>233.1999969482421875</ele>
        <time>2026-04-22T12:09:24.000Z</time>
        <extensions>
          <ns3:TrackPointExtension>
            <ns3:hr>128</ns3:hr>
            <ns3:cad>48</ns3:cad>
          </ns3:TrackPointExtension>
        </extensions>
      </trkpt>
      <trkpt lat="49.84656955115497112274169921875" lon="6.852199472486972808837890625">
        <ele>233.600006103515625</ele>
        <time>2026-04-22T12:09:35.000Z</time>
        <extensions>
          <ns3:TrackPointExtension>
            <ns3:hr>127</ns3:hr>
            <ns3:cad>50</ns3:cad>
          </ns3:TrackPointExtension>
        </extensions>
      </trkpt>
      <trkpt lat="49.8465996421873569488525390625" lon="6.852309443056583404541015625">
        <ele>234</ele>
        <time>2026-04-22T12:09:42.000Z</time>
        <extensions>
          <ns3:TrackPointExtension>
            <ns3:hr>127</ns3:hr>
            <ns3:cad>50</ns3:cad>
          </ns3:TrackPointExtension>
        </extensions>
      </trkpt>
      <trkpt lat="49.84664062969386577606201171875" lon="6.8524453975260257720947265625">
        <ele>234.600006103515625</ele>
        <time>2026-04-22T12:09:52.000Z</time>
        <extensions>
          <ns3:TrackPointExtension>
            <ns3:hr>127</ns3:hr>
            <ns3:cad>47</ns3:cad>
          </ns3:TrackPointExtension>
        </extensions>
      </trkpt>
      <trkpt lat="49.8466680385172367095947265625" lon="6.8525412864983081817626953125">
        <ele>234.8000030517578125</ele>
        <time>2026-04-22T12:09:59.000Z</time>
        <extensions>
          <ns3:TrackPointExtension>
            <ns3:hr>128</ns3:hr>
            <ns3:cad>46</ns3:cad>
          </ns3:TrackPointExtension>
        </extensions>
      </trkpt>
      <trkpt lat="49.8466707207262516021728515625" lon="6.852557547390460968017578125">
        <ele>235</ele>
        <time>2026-04-22T12:10:00.000Z</time>
        <extensions>
          <ns3:TrackPointExtension>
            <ns3:hr>127</ns3:hr>
            <ns3:cad>47</ns3:cad>
          </ns3:TrackPointExtension>
        </extensions>
      </trkpt>
      <trkpt lat="49.84667767770588397979736328125" lon="6.85257221572101116180419921875">
        <ele>235</ele>
        <time>2026-04-22T12:10:01.000Z</time>
        <extensions>
          <ns3:TrackPointExtension>
            <ns3:hr>128</ns3:hr>
            <ns3:cad>48</ns3:cad>
          </ns3:TrackPointExtension>
        </extensions>
      </trkpt>
      <trkpt lat="49.84671472571790218353271484375" lon="6.8526844494044780731201171875">
        <ele>235.8000030517578125</ele>
        <time>2026-04-22T12:10:09.000Z</time>
        <extensions>
          <ns3:TrackPointExtension>
            <ns3:hr>128</ns3:hr>
            <ns3:cad>46</ns3:cad>
          </ns3:TrackPointExtension>
        </extensions>
      </trkpt>
      <trkpt lat="49.846714474260807037353515625" lon="6.85274505056440830230712890625">
        <ele>236.1999969482421875</ele>
        <time>2026-04-22T12:10:13.000Z</time>
        <extensions>
          <ns3:TrackPointExtension>
            <ns3:hr>128</ns3:hr>
            <ns3:cad>45</ns3:cad>
          </ns3:TrackPointExtension>
        </extensions>
      </trkpt>
      <trkpt lat="49.846727550029754638671875" lon="6.8527823500335216522216796875">
        <ele>236.399993896484375</ele>
        <time>2026-04-22T12:10:16.000Z</time>
        <extensions>
          <ns3:TrackPointExtension>
            <ns3:hr>128</ns3:hr>
            <ns3:cad>46</ns3:cad>
          </ns3:TrackPointExtension>
        </extensions>
      </trkpt>
      <trkpt lat="49.84674791805446147918701171875" lon="6.85287262313067913055419921875">
        <ele>237.1999969482421875</ele>
        <time>2026-04-22T12:10:22.000Z</time>
        <extensions>
          <ns3:TrackPointExtension>
            <ns3:hr>128</ns3:hr>
            <ns3:cad>45</ns3:cad>
          </ns3:TrackPointExtension>
        </extensions>
      </trkpt>
      <trkpt lat="49.84675378538668155670166015625" lon="6.85291587375104427337646484375">
        <ele>237.399993896484375</ele>
        <time>2026-04-22T12:10:25.000Z</time>
        <extensions>
          <ns3:TrackPointExtension>
            <ns3:hr>128</ns3:hr>
            <ns3:cad>46</ns3:cad>
          </ns3:TrackPointExtension>
        </extensions>
      </trkpt>
      <trkpt lat="49.84677574597299098968505859375" lon="6.85304176993668079376220703125">
        <ele>238.1999969482421875</ele>
        <time>2026-04-22T12:10:34.000Z</time>
        <extensions>
          <ns3:TrackPointExtension>
            <ns3:hr>130</ns3:hr>
            <ns3:cad>46</ns3:cad>
          </ns3:TrackPointExtension>
        </extensions>
      </trkpt>
      <trkpt lat="49.8468158952891826629638671875" lon="6.853185184299945831298828125">
        <ele>239</ele>
        <time>2026-04-22T12:10:45.000Z</time>
        <extensions>
          <ns3:TrackPointExtension>
            <ns3:hr>131</ns3:hr>
            <ns3:cad>44</ns3:cad>
          </ns3:TrackPointExtension>
        </extensions>
      </trkpt>
      <trkpt lat="49.846837185323238372802734375" lon="6.85325701721012592315673828125">
        <ele>239.1999969482421875</ele>
        <time>2026-04-22T12:10:50.000Z</time>
        <extensions>
          <ns3:TrackPointExtension>
            <ns3:hr>131</ns3:hr>
            <ns3:cad>45</ns3:cad>
          </ns3:TrackPointExtension>
        </extensions>
      </trkpt>
      <trkpt lat="49.84685000963509082794189453125" lon="6.85328115709125995635986328125">
        <ele>239.1999969482421875</ele>
        <time>2026-04-22T12:10:52.000Z</time>
        <extensions>
          <ns3:TrackPointExtension>
            <ns3:hr>131</ns3:hr>
            <ns3:cad>47</ns3:cad>
          </ns3:TrackPointExtension>
        </extensions>
      </trkpt>
      <trkpt lat="49.846857972443103790283203125" lon="6.8533243238925933837890625">
        <ele>239.1999969482421875</ele>
        <time>2026-04-22T12:10:55.000Z</time>
        <extensions>
          <ns3:TrackPointExtension>
            <ns3:hr>131</ns3:hr>
            <ns3:cad>45</ns3:cad>
          </ns3:TrackPointExtension>
        </extensions>
      </trkpt>
      <trkpt lat="49.8468628339469432830810546875" lon="6.85336925089359283447265625">
        <ele>239.1999969482421875</ele>
        <time>2026-04-22T12:10:58.000Z</time>
        <extensions>
          <ns3:TrackPointExtension>
            <ns3:hr>131</ns3:hr>
            <ns3:cad>45</ns3:cad>
          </ns3:TrackPointExtension>
        </extensions>
      </trkpt>
      <trkpt lat="49.84687213785946369171142578125" lon="6.8533912114799022674560546875">
        <ele>239.399993896484375</ele>
        <time>2026-04-22T12:11:00.000Z</time>
        <extensions>
          <ns3:TrackPointExtension>
            <ns3:hr>131</ns3:hr>
            <ns3:cad>45</ns3:cad>
          </ns3:TrackPointExtension>
        </extensions>
      </trkpt>
      <trkpt lat="49.846884794533252716064453125" lon="6.8534465320408344268798828125">
        <ele>239.8000030517578125</ele>
        <time>2026-04-22T12:11:04.000Z</time>
        <extensions>
          <ns3:TrackPointExtension>
            <ns3:hr>131</ns3:hr>
            <ns3:cad>44</ns3:cad>
          </ns3:TrackPointExtension>
        </extensions>
      </trkpt>
      <trkpt lat="49.84689183533191680908203125" lon="6.85348450206220149993896484375">
        <ele>240.600006103515625</ele>
        <time>2026-04-22T12:11:07.000Z</time>
        <extensions>
          <ns3:TrackPointExtension>
            <ns3:hr>131</ns3:hr>
            <ns3:cad>43</ns3:cad>
          </ns3:TrackPointExtension>
        </extensions>
      </trkpt>
      <trkpt lat="49.84690818004310131072998046875" lon="6.85355432331562042236328125">
        <ele>241.1999969482421875</ele>
        <time>2026-04-22T12:11:13.000Z</time>
        <extensions>
          <ns3:TrackPointExtension>
            <ns3:hr>132</ns3:hr>
            <ns3:cad>0</ns3:cad>
          </ns3:TrackPointExtension>
        </extensions>
      </trkpt>
      <trkpt lat="49.8469285480678081512451171875" lon="6.85367175377905368804931640625">
        <ele>241.600006103515625</ele>
        <time>2026-04-22T12:11:22.000Z</time>
        <extensions>
          <ns3:TrackPointExtension>
            <ns3:hr>133</ns3:hr>
            <ns3:cad>41</ns3:cad>
          </ns3:TrackPointExtension>
        </extensions>
      </trkpt>
      <trkpt lat="49.8469359241425991058349609375" lon="6.8536959774792194366455078125">
        <ele>241.8000030517578125</ele>
        <time>2026-04-22T12:11:24.000Z</time>
        <extensions>
          <ns3:TrackPointExtension>
            <ns3:hr>133</ns3:hr>
            <ns3:cad>41</ns3:cad>
          </ns3:TrackPointExtension>
        </extensions>
      </trkpt>
      <trkpt lat="49.84695092774927616119384765625" lon="6.85380871407687664031982421875">
        <ele>241.8000030517578125</ele>
        <time>2026-04-22T12:11:33.000Z</time>
        <extensions>
          <ns3:TrackPointExtension>
            <ns3:hr>133</ns3:hr>
            <ns3:cad>0</ns3:cad>
          </ns3:TrackPointExtension>
        </extensions>
      </trkpt>
      <trkpt lat="49.84697942622005939483642578125" lon="6.85393477790057659149169921875">
        <ele>242.8000030517578125</ele>
        <time>2026-04-22T12:11:43.000Z</time>
        <extensions>
          <ns3:TrackPointExtension>
            <ns3:hr>134</ns3:hr>
            <ns3:cad>41</ns3:cad>
          </ns3:TrackPointExtension>
        </extensions>
      </trkpt>
      <trkpt lat="49.84698696993291378021240234375" lon="6.85396193526685237884521484375">
        <ele>243</ele>
        <time>2026-04-22T12:11:46.000Z</time>
        <extensions>
          <ns3:TrackPointExtension>
            <ns3:hr>134</ns3:hr>
            <ns3:cad>42</ns3:cad>
          </ns3:TrackPointExtension>
        </extensions>
      </trkpt>
      <trkpt lat="49.84698395244777202606201171875" lon="6.85396495275199413299560546875">
        <ele>242.8000030517578125</ele>
        <time>2026-04-22T12:11:54.000Z</time>
        <extensions>
          <ns3:TrackPointExtension>
            <ns3:hr>133</ns3:hr>
            <ns3:cad>0</ns3:cad>
          </ns3:TrackPointExtension>
        </extensions>
      </trkpt>
      <trkpt lat="49.84701328910887241363525390625" lon="6.8540191836655139923095703125">
        <ele>243.399993896484375</ele>
        <time>2026-04-22T12:12:03.000Z</time>
        <extensions>
          <ns3:TrackPointExtension>
            <ns3:hr>132</ns3:hr>
            <ns3:cad>0</ns3:cad>
          </ns3:TrackPointExtension>
        </extensions>
      </trkpt>
      <trkpt lat="49.84702770598232746124267578125" lon="6.8540651164948940277099609375">
        <ele>243.8000030517578125</ele>
        <time>2026-04-22T12:12:07.000Z</time>
        <extensions>
          <ns3:TrackPointExtension>
            <ns3:hr>133</ns3:hr>
            <ns3:cad>0</ns3:cad>
          </ns3:TrackPointExtension>
        </extensions>
      </trkpt>
      <trkpt lat="49.84703265130519866943359375" lon="6.854122616350650787353515625">
        <ele>244.1999969482421875</ele>
        <time>2026-04-22T12:12:11.000Z</time>
        <extensions>
          <ns3:TrackPointExtension>
            <ns3:hr>132</ns3:hr>
            <ns3:cad>0</ns3:cad>
          </ns3:TrackPointExtension>
        </extensions>
      </trkpt>
      <trkpt lat="49.84705368988215923309326171875" lon="6.8542290665209293365478515625">
        <ele>244.600006103515625</ele>
        <time>2026-04-22T12:12:19.000Z</time>
        <extensions>
          <ns3:TrackPointExtension>
            <ns3:hr>133</ns3:hr>
            <ns3:cad>0</ns3:cad>
          </ns3:TrackPointExtension>
        </extensions>
      </trkpt>
      <trkpt lat="49.847067855298519134521484375" lon="6.8542877398431301116943359375">
        <ele>244.8000030517578125</ele>
        <time>2026-04-22T12:12:23.000Z</time>
        <extensions>
          <ns3:TrackPointExtension>
            <ns3:hr>132</ns3:hr>
            <ns3:cad>0</ns3:cad>
          </ns3:TrackPointExtension>
        </extensions>
      </trkpt>
      <trkpt lat="49.84707330353558063507080078125" lon="6.85432738624513149261474609375">
        <ele>245</ele>
        <time>2026-04-22T12:12:26.000Z</time>
        <extensions>
          <ns3:TrackPointExtension>
            <ns3:hr>133</ns3:hr>
            <ns3:cad>0</ns3:cad>
          </ns3:TrackPointExtension>
        </extensions>
      </trkpt>
      <trkpt lat="49.84708369709551334381103515625" lon="6.8544282205402851104736328125">
        <ele>245.8000030517578125</ele>
        <time>2026-04-22T12:12:33.000Z</time>
        <extensions>
          <ns3:TrackPointExtension>
            <ns3:hr>131</ns3:hr>
            <ns3:cad>0</ns3:cad>
          </ns3:TrackPointExtension>
        </extensions>
      </trkpt>
      <trkpt lat="49.847089312970638275146484375" lon="6.85443735681474208831787109375">
        <ele>245.8000030517578125</ele>
        <time>2026-04-22T12:12:34.000Z</time>
        <extensions>
          <ns3:TrackPointExtension>
            <ns3:hr>132</ns3:hr>
            <ns3:cad>0</ns3:cad>
          </ns3:TrackPointExtension>
        </extensions>
      </trkpt>
      <trkpt lat="49.84711152501404285430908203125" lon="6.8545251153409481048583984375">
        <ele>246.600006103515625</ele>
        <time>2026-04-22T12:12:41.000Z</time>
        <extensions>
          <ns3:TrackPointExtension>
            <ns3:hr>132</ns3:hr>
            <ns3:cad>0</ns3:cad>
          </ns3:TrackPointExtension>
        </extensions>
      </trkpt>
      <trkpt lat="49.8471240140497684478759765625" lon="6.85458269901573657989501953125">
        <ele>246.8000030517578125</ele>
        <time>2026-04-22T12:12:45.000Z</time>
        <extensions>
          <ns3:TrackPointExtension>
            <ns3:hr>132</ns3:hr>
            <ns3:cad>15</ns3:cad>
          </ns3:TrackPointExtension>
        </extensions>
      </trkpt>
      <trkpt lat="49.8471307195723056793212890625" lon="6.85465562157332897186279296875">
        <ele>247.600006103515625</ele>
        <time>2026-04-22T12:12:50.000Z</time>
        <extensions>
          <ns3:TrackPointExtension>
            <ns3:hr>132</ns3:hr>
            <ns3:cad>0</ns3:cad>
          </ns3:TrackPointExtension>
        </extensions>
      </trkpt>
      <trkpt lat="49.847141616046428680419921875" lon="6.854695938527584075927734375">
        <ele>248.1999969482421875</ele>
        <time>2026-04-22T12:12:53.000Z</time>
        <extensions>
          <ns3:TrackPointExtension>
            <ns3:hr>132</ns3:hr>
            <ns3:cad>0</ns3:cad>
          </ns3:TrackPointExtension>
        </extensions>
      </trkpt>
      <trkpt lat="49.84717237763106822967529296875" lon="6.85477011837065219879150390625">
        <ele>249</ele>
        <time>2026-04-22T12:12:59.000Z</time>
        <extensions>
          <ns3:TrackPointExtension>
            <ns3:hr>132</ns3:hr>
            <ns3:cad>46</ns3:cad>
          </ns3:TrackPointExtension>
        </extensions>
      </trkpt>
      <trkpt lat="49.847189225256443023681640625" lon="6.85486701317131519317626953125">
        <ele>249</ele>
        <time>2026-04-22T12:13:06.000Z</time>
        <extensions>
          <ns3:TrackPointExtension>
            <ns3:hr>132</ns3:hr>
            <ns3:cad>0</ns3:cad>
          </ns3:TrackPointExtension>
        </extensions>
      </trkpt>
      <trkpt lat="49.8472081683576107025146484375" lon="6.8548781611025333404541015625">
        <ele>249</ele>
        <time>2026-04-22T12:13:18.000Z</time>
        <extensions>
          <ns3:TrackPointExtension>
            <ns3:hr>131</ns3:hr>
            <ns3:cad>0</ns3:cad>
          </ns3:TrackPointExtension>
        </extensions>
      </trkpt>
      <trkpt lat="49.8472296260297298431396484375" lon="6.85493356548249721527099609375">
        <ele>249.399993896484375</ele>
        <time>2026-04-22T12:13:22.000Z</time>
        <extensions>
          <ns3:TrackPointExtension>
            <ns3:hr>131</ns3:hr>
            <ns3:cad>0</ns3:cad>
          </ns3:TrackPointExtension>
        </extensions>
      </trkpt>
      <trkpt lat="49.84725384972989559173583984375" lon="6.85498662292957305908203125">
        <ele>249.600006103515625</ele>
        <time>2026-04-22T12:13:26.000Z</time>
        <extensions>
          <ns3:TrackPointExtension>
            <ns3:hr>131</ns3:hr>
            <ns3:cad>0</ns3:cad>
          </ns3:TrackPointExtension>
        </extensions>
      </trkpt>
      <trkpt lat="49.8473198153078556060791015625" lon="6.85513623990118503570556640625">
        <ele>250</ele>
        <time>2026-04-22T12:13:36.000Z</time>
        <extensions>
          <ns3:TrackPointExtension>
            <ns3:hr>131</ns3:hr>
            <ns3:cad>0</ns3:cad>
          </ns3:TrackPointExtension>
        </extensions>
      </trkpt>
      <trkpt lat="49.84736926853656768798828125" lon="6.85528728179633617401123046875">
        <ele>250.1999969482421875</ele>
        <time>2026-04-22T12:13:46.000Z</time>
        <extensions>
          <ns3:TrackPointExtension>
            <ns3:hr>129</ns3:hr>
            <ns3:cad>0</ns3:cad>
          </ns3:TrackPointExtension>
        </extensions>
      </trkpt>
      <trkpt lat="49.847421236336231231689453125" lon="6.85545735061168670654296875">
        <ele>250.1999969482421875</ele>
        <time>2026-04-22T12:13:57.000Z</time>
        <extensions>
          <ns3:TrackPointExtension>
            <ns3:hr>129</ns3:hr>
            <ns3:cad>0</ns3:cad>
          </ns3:TrackPointExtension>
        </extensions>
      </trkpt>
      <trkpt lat="49.8474291153252124786376953125" lon="6.85552733950316905975341796875">
        <ele>250.1999969482421875</ele>
        <time>2026-04-22T12:14:04.000Z</time>
        <extensions>
          <ns3:TrackPointExtension>
            <ns3:hr>128</ns3:hr>
            <ns3:cad>0</ns3:cad>
          </ns3:TrackPointExtension>
        </extensions>
      </trkpt>
      <trkpt lat="49.84745233319699764251708984375" lon="6.85557796619832515716552734375">
        <ele>250</ele>
        <time>2026-04-22T12:14:14.000Z</time>
        <extensions>
          <ns3:TrackPointExtension>
            <ns3:hr>128</ns3:hr>
            <ns3:cad>0</ns3:cad>
          </ns3:TrackPointExtension>
        </extensions>
      </trkpt>
      <trkpt lat="49.847472198307514190673828125" lon="6.85569715686142444610595703125">
        <ele>250</ele>
        <time>2026-04-22T12:14:21.000Z</time>
        <extensions>
          <ns3:TrackPointExtension>
            <ns3:hr>128</ns3:hr>
            <ns3:cad>53</ns3:cad>
          </ns3:TrackPointExtension>
        </extensions>
      </trkpt>
      <trkpt lat="49.84749876894056797027587890625" lon="6.85587451793253421783447265625">
        <ele>249.8000030517578125</ele>
        <time>2026-04-22T12:14:31.000Z</time>
        <extensions>
          <ns3:TrackPointExtension>
            <ns3:hr>127</ns3:hr>
            <ns3:cad>54</ns3:cad>
          </ns3:TrackPointExtension>
        </extensions>
      </trkpt>
      <trkpt lat="49.8475169576704502105712890625" lon="6.85599379241466522216796875">
        <ele>249.8000030517578125</ele>
        <time>2026-04-22T12:14:38.000Z</time>
        <extensions>
          <ns3:TrackPointExtension>
            <ns3:hr>127</ns3:hr>
            <ns3:cad>0</ns3:cad>
          </ns3:TrackPointExtension>
        </extensions>
      </trkpt>
      <trkpt lat="49.8475196398794651031494140625" lon="6.8560083769261837005615234375">
        <ele>249.8000030517578125</ele>
        <time>2026-04-22T12:14:39.000Z</time>
        <extensions>
          <ns3:TrackPointExtension>
            <ns3:hr>127</ns3:hr>
            <ns3:cad>0</ns3:cad>
          </ns3:TrackPointExtension>
        </extensions>
      </trkpt>
      <trkpt lat="49.8475300334393978118896484375" lon="6.85605422593653202056884765625">
        <ele>249.8000030517578125</ele>
        <time>2026-04-22T12:14:42.000Z</time>
        <extensions>
          <ns3:TrackPointExtension>
            <ns3:hr>130</ns3:hr>
            <ns3:cad>55</ns3:cad>
          </ns3:TrackPointExtension>
        </extensions>
      </trkpt>
      <trkpt lat="49.84755107201635837554931640625" lon="6.85613770969212055206298828125">
        <ele>249.8000030517578125</ele>
        <time>2026-04-22T12:14:47.000Z</time>
        <extensions>
          <ns3:TrackPointExtension>
            <ns3:hr>127</ns3:hr>
            <ns3:cad>54</ns3:cad>
          </ns3:TrackPointExtension>
        </extensions>
      </trkpt>
      <trkpt lat="49.84755526296794414520263671875" lon="6.85615464113652706146240234375">
        <ele>249.399993896484375</ele>
        <time>2026-04-22T12:14:48.000Z</time>
        <extensions>
          <ns3:TrackPointExtension>
            <ns3:hr>127</ns3:hr>
            <ns3:cad>0</ns3:cad>
          </ns3:TrackPointExtension>
        </extensions>
      </trkpt>
      <trkpt lat="49.8476336337625980377197265625" lon="6.8563647754490375518798828125">
        <ele>249.600006103515625</ele>
        <time>2026-04-22T12:15:01.000Z</time>
        <extensions>
          <ns3:TrackPointExtension>
            <ns3:hr>126</ns3:hr>
            <ns3:cad>55</ns3:cad>
          </ns3:TrackPointExtension>
        </extensions>
      </trkpt>
      <trkpt lat="49.8476845957338809967041015625" lon="6.85650081373751163482666015625">
        <ele>249.1999969482421875</ele>
        <time>2026-04-22T12:15:11.000Z</time>
        <extensions>
          <ns3:TrackPointExtension>
            <ns3:hr>125</ns3:hr>
            <ns3:cad>0</ns3:cad>
          </ns3:TrackPointExtension>
        </extensions>
      </trkpt>
      <trkpt lat="49.84775860793888568878173828125" lon="6.85668957419693470001220703125">
        <ele>248.8000030517578125</ele>
        <time>2026-04-22T12:15:24.000Z</time>
        <extensions>
          <ns3:TrackPointExtension>
            <ns3:hr>125</ns3:hr>
            <ns3:cad>0</ns3:cad>
          </ns3:TrackPointExtension>
        </extensions>
      </trkpt>
      <trkpt lat="49.84776087105274200439453125" lon="6.85671706683933734893798828125">
        <ele>248</ele>
        <time>2026-04-22T12:15:28.000Z</time>
        <extensions>
          <ns3:TrackPointExtension>
            <ns3:hr>123</ns3:hr>
            <ns3:cad>0</ns3:cad>
          </ns3:TrackPointExtension>
        </extensions>
      </trkpt>
      <trkpt lat="49.847760535776615142822265625" lon="6.8567208386957645416259765625">
        <ele>247.8000030517578125</ele>
        <time>2026-04-22T12:15:31.000Z</time>
        <extensions>
          <ns3:TrackPointExtension>
            <ns3:hr>124</ns3:hr>
            <ns3:cad>0</ns3:cad>
          </ns3:TrackPointExtension>
        </extensions>
      </trkpt>
      <trkpt lat="49.84779230318963527679443359375" lon="6.85675847344100475311279296875">
        <ele>248.399993896484375</ele>
        <time>2026-04-22T12:15:37.000Z</time>
        <extensions>
          <ns3:TrackPointExtension>
            <ns3:hr>124</ns3:hr>
            <ns3:cad>0</ns3:cad>
          </ns3:TrackPointExtension>
        </extensions>
      </trkpt>
      <trkpt lat="49.84784494154155254364013671875" lon="6.856863163411617279052734375">
        <ele>248.1999969482421875</ele>
        <time>2026-04-22T12:15:45.000Z</time>
        <extensions>
          <ns3:TrackPointExtension>
            <ns3:hr>124</ns3:hr>
            <ns3:cad>52</ns3:cad>
          </ns3:TrackPointExtension>
        </extensions>
      </trkpt>
      <trkpt lat="49.84785877168178558349609375" lon="6.85688839294016361236572265625">
        <ele>247.600006103515625</ele>
        <time>2026-04-22T12:15:51.000Z</time>
        <extensions>
          <ns3:TrackPointExtension>
            <ns3:hr>124</ns3:hr>
            <ns3:cad>0</ns3:cad>
          </ns3:TrackPointExtension>
        </extensions>
      </trkpt>
      <trkpt lat="49.84789095818996429443359375" lon="6.85690306127071380615234375">
        <ele>247.399993896484375</ele>
        <time>2026-04-22T12:15:58.000Z</time>
        <extensions>
          <ns3:TrackPointExtension>
            <ns3:hr>123</ns3:hr>
            <ns3:cad>0</ns3:cad>
          </ns3:TrackPointExtension>
        </extensions>
      </trkpt>
      <trkpt lat="49.8479011841118335723876953125" lon="6.8569280393421649932861328125">
        <ele>247.600006103515625</ele>
        <time>2026-04-22T12:16:03.000Z</time>
        <extensions>
          <ns3:TrackPointExtension>
            <ns3:hr>122</ns3:hr>
            <ns3:cad>0</ns3:cad>
          </ns3:TrackPointExtension>
        </extensions>
      </trkpt>
      <trkpt lat="49.847905375063419342041015625" lon="6.85693868435919284820556640625">
        <ele>248</ele>
        <time>2026-04-22T12:16:06.000Z</time>
        <extensions>
          <ns3:TrackPointExtension>
            <ns3:hr>126</ns3:hr>
            <ns3:cad>0</ns3:cad>
          </ns3:TrackPointExtension>
        </extensions>
      </trkpt>
      <trkpt lat="49.84791434369981288909912109375" lon="6.856941282749176025390625">
        <ele>248.8000030517578125</ele>
        <time>2026-04-22T12:16:09.000Z</time>
        <extensions>
          <ns3:TrackPointExtension>
            <ns3:hr>127</ns3:hr>
            <ns3:cad>0</ns3:cad>
          </ns3:TrackPointExtension>
        </extensions>
      </trkpt>
      <trkpt lat="49.847912751138210296630859375" lon="6.85693248175084590911865234375">
        <ele>249</ele>
        <time>2026-04-22T12:16:11.000Z</time>
        <extensions>
          <ns3:TrackPointExtension>
            <ns3:hr>127</ns3:hr>
            <ns3:cad>0</ns3:cad>
          </ns3:TrackPointExtension>
        </extensions>
      </trkpt>
      <trkpt lat="49.84791400842368602752685546875" lon="6.85690716840326786041259765625">
        <ele>249.600006103515625</ele>
        <time>2026-04-22T12:16:15.000Z</time>
        <extensions>
          <ns3:TrackPointExtension>
            <ns3:hr>126</ns3:hr>
            <ns3:cad>0</ns3:cad>
          </ns3:TrackPointExtension>
        </extensions>
      </trkpt>
      <trkpt lat="49.84791778028011322021484375" lon="6.8568888120353221893310546875">
        <ele>250</ele>
        <time>2026-04-22T12:16:18.000Z</time>
        <extensions>
          <ns3:TrackPointExtension>
            <ns3:hr>126</ns3:hr>
            <ns3:cad>0</ns3:cad>
          </ns3:TrackPointExtension>
        </extensions>
      </trkpt>
      <trkpt lat="49.84792272560298442840576171875" lon="6.85683039017021656036376953125">
        <ele>251.1999969482421875</ele>
        <time>2026-04-22T12:16:28.000Z</time>
        <extensions>
          <ns3:TrackPointExtension>
            <ns3:hr>128</ns3:hr>
            <ns3:cad>0</ns3:cad>
          </ns3:TrackPointExtension>
        </extensions>
      </trkpt>
      <trkpt lat="49.847925491631031036376953125" lon="6.856782026588916778564453125">
        <ele>252.1999969482421875</ele>
        <time>2026-04-22T12:16:35.000Z</time>
        <extensions>
          <ns3:TrackPointExtension>
            <ns3:hr>128</ns3:hr>
            <ns3:cad>0</ns3:cad>
          </ns3:TrackPointExtension>
        </extensions>
      </trkpt>
      <trkpt lat="49.84794502146542072296142578125" lon="6.856789402663707733154296875">
        <ele>252.8000030517578125</ele>
        <time>2026-04-22T12:16:39.000Z</time>
        <extensions>
          <ns3:TrackPointExtension>
            <ns3:hr>130</ns3:hr>
            <ns3:cad>0</ns3:cad>
          </ns3:TrackPointExtension>
        </extensions>
      </trkpt>
      <trkpt lat="49.84798072837293148040771484375" lon="6.85686039738357067108154296875">
        <ele>253.399993896484375</ele>
        <time>2026-04-22T12:16:46.000Z</time>
        <extensions>
          <ns3:TrackPointExtension>
            <ns3:hr>133</ns3:hr>
            <ns3:cad>0</ns3:cad>
          </ns3:TrackPointExtension>
        </extensions>
      </trkpt>
      <trkpt lat="49.8479860089719295501708984375" lon="6.85686710290610790252685546875">
        <ele>253.399993896484375</ele>
        <time>2026-04-22T12:16:47.000Z</time>
        <extensions>
          <ns3:TrackPointExtension>
            <ns3:hr>133</ns3:hr>
            <ns3:cad>0</ns3:cad>
          </ns3:TrackPointExtension>
        </extensions>
      </trkpt>
      <trkpt lat="49.848001934587955474853515625" lon="6.85689023695886135101318359375">
        <ele>254.1999969482421875</ele>
        <time>2026-04-22T12:16:53.000Z</time>
        <extensions>
          <ns3:TrackPointExtension>
            <ns3:hr>134</ns3:hr>
            <ns3:cad>0</ns3:cad>
          </ns3:TrackPointExtension>
        </extensions>
      </trkpt>
      <trkpt lat="49.84800302423536777496337890625" lon="6.8568941764533519744873046875">
        <ele>254.399993896484375</ele>
        <time>2026-04-22T12:16:54.000Z</time>
        <extensions>
          <ns3:TrackPointExtension>
            <ns3:hr>134</ns3:hr>
            <ns3:cad>0</ns3:cad>
          </ns3:TrackPointExtension>
        </extensions>
      </trkpt>
      <trkpt lat="49.84802104532718658447265625" lon="6.856918819248676300048828125">
        <ele>255.1999969482421875</ele>
        <time>2026-04-22T12:17:00.000Z</time>
        <extensions>
          <ns3:TrackPointExtension>
            <ns3:hr>134</ns3:hr>
            <ns3:cad>0</ns3:cad>
          </ns3:TrackPointExtension>
        </extensions>
      </trkpt>
      <trkpt lat="49.848031103610992431640625" lon="6.85693047009408473968505859375">
        <ele>255.399993896484375</ele>
        <time>2026-04-22T12:17:03.000Z</time>
        <extensions>
          <ns3:TrackPointExtension>
            <ns3:hr>136</ns3:hr>
            <ns3:cad>0</ns3:cad>
          </ns3:TrackPointExtension>
        </extensions>
      </trkpt>
      <trkpt lat="49.84804945997893810272216796875" lon="6.85694036073982715606689453125">
        <ele>255.8000030517578125</ele>
        <time>2026-04-22T12:17:07.000Z</time>
        <extensions>
          <ns3:TrackPointExtension>
            <ns3:hr>136</ns3:hr>
            <ns3:cad>0</ns3:cad>
          </ns3:TrackPointExtension>
        </extensions>
      </trkpt>
      <trkpt lat="49.84807200729846954345703125" lon="6.8569665960967540740966796875">
        <ele>256.399993896484375</ele>
        <time>2026-04-22T12:17:14.000Z</time>
        <extensions>
          <ns3:TrackPointExtension>
            <ns3:hr>135</ns3:hr>
            <ns3:cad>0</ns3:cad>
          </ns3:TrackPointExtension>
        </extensions>
      </trkpt>
      <trkpt lat="49.8480939678847789764404296875" lon="6.857018060982227325439453125">
        <ele>257.399993896484375</ele>
        <time>2026-04-22T12:17:22.000Z</time>
        <extensions>
          <ns3:TrackPointExtension>
            <ns3:hr>133</ns3:hr>
            <ns3:cad>0</ns3:cad>
          </ns3:TrackPointExtension>
        </extensions>
      </trkpt>
      <trkpt lat="49.848120622336864471435546875" lon="6.857080757617950439453125">
        <ele>258.399993896484375</ele>
        <time>2026-04-22T12:17:32.000Z</time>
        <extensions>
          <ns3:TrackPointExtension>
            <ns3:hr>135</ns3:hr>
            <ns3:cad>0</ns3:cad>
          </ns3:TrackPointExtension>
        </extensions>
      </trkpt>
      <trkpt lat="49.84812439419329166412353515625" lon="6.85708276927471160888671875">
        <ele>258.79998779296875</ele>
        <time>2026-04-22T12:17:33.000Z</time>
        <extensions>
          <ns3:TrackPointExtension>
            <ns3:hr>135</ns3:hr>
            <ns3:cad>0</ns3:cad>
          </ns3:TrackPointExtension>
        </extensions>
      </trkpt>
      <trkpt lat="49.8481362126767635345458984375" lon="6.85709877870976924896240234375">
        <ele>259.600006103515625</ele>
        <time>2026-04-22T12:17:40.000Z</time>
        <extensions>
          <ns3:TrackPointExtension>
            <ns3:hr>135</ns3:hr>
            <ns3:cad>0</ns3:cad>
          </ns3:TrackPointExtension>
        </extensions>
      </trkpt>
      <trkpt lat="49.8481362126767635345458984375" lon="6.85709877870976924896240234375">
        <ele>260.600006103515625</ele>
        <time>2026-04-22T12:17:46.000Z</time>
        <extensions>
          <ns3:TrackPointExtension>
            <ns3:hr>136</ns3:hr>
            <ns3:cad>0</ns3:cad>
          </ns3:TrackPointExtension>
        </extensions>
      </trkpt>
      <trkpt lat="49.8481362126767635345458984375" lon="6.85709877870976924896240234375">
        <ele>260.600006103515625</ele>
        <time>2026-04-22T12:17:47.000Z</time>
        <extensions>
          <ns3:TrackPointExtension>
            <ns3:hr>136</ns3:hr>
            <ns3:cad>0</ns3:cad>
          </ns3:TrackPointExtension>
        </extensions>
      </trkpt>
      <trkpt lat="49.8481263220310211181640625" lon="6.85706592164933681488037109375">
        <ele>261.79998779296875</ele>
        <time>2026-04-22T12:17:59.000Z</time>
        <extensions>
          <ns3:TrackPointExtension>
            <ns3:hr>137</ns3:hr>
            <ns3:cad>0</ns3:cad>
          </ns3:TrackPointExtension>
        </extensions>
      </trkpt>
      <trkpt lat="49.84812389127910137176513671875" lon="6.85695343650877475738525390625">
        <ele>261.79998779296875</ele>
        <time>2026-04-22T12:18:04.000Z</time>
        <extensions>
          <ns3:TrackPointExtension>
            <ns3:hr>136</ns3:hr>
            <ns3:cad>0</ns3:cad>
          </ns3:TrackPointExtension>
        </extensions>
      </trkpt>
      <trkpt lat="49.848130680620670318603515625" lon="6.856825612485408782958984375">
        <ele>262.399993896484375</ele>
        <time>2026-04-22T12:18:13.000Z</time>
        <extensions>
          <ns3:TrackPointExtension>
            <ns3:hr>136</ns3:hr>
            <ns3:cad>0</ns3:cad>
          </ns3:TrackPointExtension>
        </extensions>
      </trkpt>
      <trkpt lat="49.84814350493252277374267578125" lon="6.8568059988319873809814453125">
        <ele>262.79998779296875</ele>
        <time>2026-04-22T12:18:19.000Z</time>
        <extensions>
          <ns3:TrackPointExtension>
            <ns3:hr>136</ns3:hr>
            <ns3:cad>0</ns3:cad>
          </ns3:TrackPointExtension>
        </extensions>
      </trkpt>
      <trkpt lat="49.8481432534754276275634765625" lon="6.856788061559200286865234375">
        <ele>263</ele>
        <time>2026-04-22T12:18:22.000Z</time>
        <extensions>
          <ns3:TrackPointExtension>
            <ns3:hr>136</ns3:hr>
            <ns3:cad>0</ns3:cad>
          </ns3:TrackPointExtension>
        </extensions>
      </trkpt>
      <trkpt lat="49.84815255738794803619384765625" lon="6.8567654304206371307373046875">
        <ele>263.600006103515625</ele>
        <time>2026-04-22T12:18:30.000Z</time>
        <extensions>
          <ns3:TrackPointExtension>
            <ns3:hr>136</ns3:hr>
            <ns3:cad>0</ns3:cad>
          </ns3:TrackPointExtension>
        </extensions>
      </trkpt>
      <trkpt lat="49.84815591014921665191650390625" lon="6.8567530252039432525634765625">
        <ele>263.79998779296875</ele>
        <time>2026-04-22T12:18:33.000Z</time>
        <extensions>
          <ns3:TrackPointExtension>
            <ns3:hr>137</ns3:hr>
            <ns3:cad>0</ns3:cad>
          </ns3:TrackPointExtension>
        </extensions>
      </trkpt>
      <trkpt lat="49.84817082993686199188232421875" lon="6.85672947205603122711181640625">
        <ele>264.399993896484375</ele>
        <time>2026-04-22T12:18:40.000Z</time>
        <extensions>
          <ns3:TrackPointExtension>
            <ns3:hr>136</ns3:hr>
            <ns3:cad>0</ns3:cad>
          </ns3:TrackPointExtension>
        </extensions>
      </trkpt>
      <trkpt lat="49.8481861688196659088134765625" lon="6.85675662942230701446533203125">
        <ele>265</ele>
        <time>2026-04-22T12:18:45.000Z</time>
        <extensions>
          <ns3:TrackPointExtension>
            <ns3:hr>136</ns3:hr>
            <ns3:cad>0</ns3:cad>
          </ns3:TrackPointExtension>
        </extensions>
      </trkpt>
      <trkpt lat="49.84820955432951450347900390625" lon="6.8568006344139575958251953125">
        <ele>265.399993896484375</ele>
        <time>2026-04-22T12:18:50.000Z</time>
        <extensions>
          <ns3:TrackPointExtension>
            <ns3:hr>136</ns3:hr>
            <ns3:cad>0</ns3:cad>
          </ns3:TrackPointExtension>
        </extensions>
      </trkpt>
      <trkpt lat="49.8482310958206653594970703125" lon="6.8568542785942554473876953125">
        <ele>266</ele>
        <time>2026-04-22T12:18:58.000Z</time>
        <extensions>
          <ns3:TrackPointExtension>
            <ns3:hr>137</ns3:hr>
            <ns3:cad>0</ns3:cad>
          </ns3:TrackPointExtension>
        </extensions>
      </trkpt>
      <trkpt lat="49.8482525534927845001220703125" lon="6.856912784278392791748046875">
        <ele>266.600006103515625</ele>
        <time>2026-04-22T12:19:08.000Z</time>
        <extensions>
          <ns3:TrackPointExtension>
            <ns3:hr>136</ns3:hr>
            <ns3:cad>0</ns3:cad>
          </ns3:TrackPointExtension>
        </extensions>
      </trkpt>
      <trkpt lat="49.84825967811048030853271484375" lon="6.85693382285535335540771484375">
        <ele>267.20001220703125</ele>
        <time>2026-04-22T12:19:12.000Z</time>
        <extensions>
          <ns3:TrackPointExtension>
            <ns3:hr>137</ns3:hr>
            <ns3:cad>0</ns3:cad>
          </ns3:TrackPointExtension>
        </extensions>
      </trkpt>
      <trkpt lat="49.84826571308076381683349609375" lon="6.85695745982229709625244140625">
        <ele>267.600006103515625</ele>
        <time>2026-04-22T12:19:16.000Z</time>
        <extensions>
          <ns3:TrackPointExtension>
            <ns3:hr>137</ns3:hr>
            <ns3:cad>0</ns3:cad>
          </ns3:TrackPointExtension>
        </extensions>
      </trkpt>
      <trkpt lat="49.848275519907474517822265625" lon="6.85698042623698711395263671875">
        <ele>268.20001220703125</ele>
        <time>2026-04-22T12:19:21.000Z</time>
        <extensions>
          <ns3:TrackPointExtension>
            <ns3:hr>137</ns3:hr>
            <ns3:cad>0</ns3:cad>
          </ns3:TrackPointExtension>
        </extensions>
      </trkpt>
      <trkpt lat="49.84829555265605449676513671875" lon="6.857004649937152862548828125">
        <ele>269</ele>
        <time>2026-04-22T12:19:29.000Z</time>
        <extensions>
          <ns3:TrackPointExtension>
            <ns3:hr>138</ns3:hr>
            <ns3:cad>0</ns3:cad>
          </ns3:TrackPointExtension>
        </extensions>
      </trkpt>
      <trkpt lat="49.84829999506473541259765625" lon="6.85700875706970691680908203125">
        <ele>269.20001220703125</ele>
        <time>2026-04-22T12:19:31.000Z</time>
        <extensions>
          <ns3:TrackPointExtension>
            <ns3:hr>138</ns3:hr>
            <ns3:cad>0</ns3:cad>
          </ns3:TrackPointExtension>
        </extensions>
      </trkpt>
      <trkpt lat="49.84829756431281566619873046875" lon="6.8570155464112758636474609375">
        <ele>269.399993896484375</ele>
        <time>2026-04-22T12:19:38.000Z</time>
        <extensions>
          <ns3:TrackPointExtension>
            <ns3:hr>138</ns3:hr>
            <ns3:cad>0</ns3:cad>
          </ns3:TrackPointExtension>
        </extensions>
      </trkpt>
      <trkpt lat="49.84829823486506938934326171875" lon="6.8570155464112758636474609375">
        <ele>270.20001220703125</ele>
        <time>2026-04-22T12:19:48.000Z</time>
        <extensions>
          <ns3:TrackPointExtension>
            <ns3:hr>138</ns3:hr>
            <ns3:cad>0</ns3:cad>
          </ns3:TrackPointExtension>
        </extensions>
      </trkpt>
      <trkpt lat="49.84831030480563640594482421875" lon="6.857025437057018280029296875">
        <ele>271.20001220703125</ele>
        <time>2026-04-22T12:19:57.000Z</time>
        <extensions>
          <ns3:TrackPointExtension>
            <ns3:hr>138</ns3:hr>
            <ns3:cad>0</ns3:cad>
          </ns3:TrackPointExtension>
        </extensions>
      </trkpt>
      <trkpt lat="49.8483283258974552154541015625" lon="6.857031472027301788330078125">
        <ele>272.399993896484375</ele>
        <time>2026-04-22T12:20:05.000Z</time>
        <extensions>
          <ns3:TrackPointExtension>
            <ns3:hr>138</ns3:hr>
            <ns3:cad>0</ns3:cad>
          </ns3:TrackPointExtension>
        </extensions>
      </trkpt>
      <trkpt lat="49.848338551819324493408203125" lon="6.857031472027301788330078125">
        <ele>273.399993896484375</ele>
        <time>2026-04-22T12:20:11.000Z</time>
        <extensions>
          <ns3:TrackPointExtension>
            <ns3:hr>138</ns3:hr>
            <ns3:cad>0</ns3:cad>
          </ns3:TrackPointExtension>
        </extensions>
      </trkpt>
      <trkpt lat="49.8483444191515445709228515625" lon="6.8570172227919101715087890625">
        <ele>274</ele>
        <time>2026-04-22T12:20:15.000Z</time>
        <extensions>
          <ns3:TrackPointExtension>
            <ns3:hr>141</ns3:hr>
            <ns3:cad>76</ns3:cad>
          </ns3:TrackPointExtension>
        </extensions>
      </trkpt>
      <trkpt lat="49.84835372306406497955322265625" lon="6.857001967728137969970703125">
        <ele>274.600006103515625</ele>
        <time>2026-04-22T12:20:18.000Z</time>
        <extensions>
          <ns3:TrackPointExtension>
            <ns3:hr>141</ns3:hr>
            <ns3:cad>0</ns3:cad>
          </ns3:TrackPointExtension>
        </extensions>
      </trkpt>
      <trkpt lat="49.84838104806840419769287109375" lon="6.8569263629615306854248046875">
        <ele>275.600006103515625</ele>
        <time>2026-04-22T12:20:28.000Z</time>
        <extensions>
          <ns3:TrackPointExtension>
            <ns3:hr>139</ns3:hr>
            <ns3:cad>0</ns3:cad>
          </ns3:TrackPointExtension>
        </extensions>
      </trkpt>
      <trkpt lat="49.84841759316623210906982421875" lon="6.85687833465635776519775390625">
        <ele>275.600006103515625</ele>
        <time>2026-04-22T12:20:57.000Z</time>
        <extensions>
          <ns3:TrackPointExtension>
            <ns3:hr>136</ns3:hr>
            <ns3:cad>0</ns3:cad>
          </ns3:TrackPointExtension>
        </extensions>
      </trkpt>
      <trkpt lat="49.84844022430479526519775390625" lon="6.85692141763865947723388671875">
        <ele>276</ele>
        <time>2026-04-22T12:21:10.000Z</time>
        <extensions>
          <ns3:TrackPointExtension>
            <ns3:hr>134</ns3:hr>
            <ns3:cad>0</ns3:cad>
          </ns3:TrackPointExtension>
        </extensions>
      </trkpt>
      <trkpt lat="49.848481379449367523193359375" lon="6.8570229224860668182373046875">
        <ele>276.600006103515625</ele>
        <time>2026-04-22T12:21:18.000Z</time>
        <extensions>
          <ns3:TrackPointExtension>
            <ns3:hr>133</ns3:hr>
            <ns3:cad>41</ns3:cad>
          </ns3:TrackPointExtension>
        </extensions>
      </trkpt>
      <trkpt lat="49.84848448075354099273681640625" lon="6.8570359982550144195556640625">
        <ele>276.600006103515625</ele>
        <time>2026-04-22T12:21:19.000Z</time>
        <extensions>
          <ns3:TrackPointExtension>
            <ns3:hr>133</ns3:hr>
            <ns3:cad>41</ns3:cad>
          </ns3:TrackPointExtension>
        </extensions>
      </trkpt>
      <trkpt lat="49.8485019989311695098876953125" lon="6.85711621306836605072021484375">
        <ele>277.20001220703125</ele>
        <time>2026-04-22T12:21:26.000Z</time>
        <extensions>
          <ns3:TrackPointExtension>
            <ns3:hr>132</ns3:hr>
            <ns3:cad>42</ns3:cad>
          </ns3:TrackPointExtension>
        </extensions>
      </trkpt>
      <trkpt lat="49.8485179245471954345703125" lon="6.85716046951711177825927734375">
        <ele>277.600006103515625</ele>
        <time>2026-04-22T12:21:30.000Z</time>
        <extensions>
          <ns3:TrackPointExtension>
            <ns3:hr>131</ns3:hr>
            <ns3:cad>41</ns3:cad>
          </ns3:TrackPointExtension>
        </extensions>
      </trkpt>
      <trkpt lat="49.84852169640362262725830078125" lon="6.857187040150165557861328125">
        <ele>277.79998779296875</ele>
        <time>2026-04-22T12:21:32.000Z</time>
        <extensions>
          <ns3:TrackPointExtension>
            <ns3:hr>131</ns3:hr>
            <ns3:cad>41</ns3:cad>
          </ns3:TrackPointExtension>
        </extensions>
      </trkpt>
      <trkpt lat="49.8485660366714000701904296875" lon="6.857285611331462860107421875">
        <ele>278.79998779296875</ele>
        <time>2026-04-22T12:21:41.000Z</time>
        <extensions>
          <ns3:TrackPointExtension>
            <ns3:hr>131</ns3:hr>
            <ns3:cad>0</ns3:cad>
          </ns3:TrackPointExtension>
        </extensions>
      </trkpt>
      <trkpt lat="49.8485703952610492706298828125" lon="6.8572966754436492919921875">
        <ele>278.79998779296875</ele>
        <time>2026-04-22T12:21:42.000Z</time>
        <extensions>
          <ns3:TrackPointExtension>
            <ns3:hr>131</ns3:hr>
            <ns3:cad>0</ns3:cad>
          </ns3:TrackPointExtension>
        </extensions>
      </trkpt>
      <trkpt lat="49.8486109636723995208740234375" lon="6.8573890440165996551513671875">
        <ele>279.79998779296875</ele>
        <time>2026-04-22T12:21:51.000Z</time>
        <extensions>
          <ns3:TrackPointExtension>
            <ns3:hr>130</ns3:hr>
            <ns3:cad>42</ns3:cad>
          </ns3:TrackPointExtension>
        </extensions>
      </trkpt>
      <trkpt lat="49.84861825592815876007080078125" lon="6.85741008259356021881103515625">
        <ele>280</ele>
        <time>2026-04-22T12:21:53.000Z</time>
        <extensions>
          <ns3:TrackPointExtension>
            <ns3:hr>130</ns3:hr>
            <ns3:cad>42</ns3:cad>
          </ns3:TrackPointExtension>
        </extensions>
      </trkpt>
      <trkpt lat="49.8486699722707271575927734375" lon="6.857503540813922882080078125">
        <ele>280.79998779296875</ele>
        <time>2026-04-22T12:22:02.000Z</time>
        <extensions>
          <ns3:TrackPointExtension>
            <ns3:hr>132</ns3:hr>
            <ns3:cad>41</ns3:cad>
          </ns3:TrackPointExtension>
        </extensions>
      </trkpt>
      <trkpt lat="49.8486820422112941741943359375" lon="6.85753564350306987762451171875">
        <ele>281</ele>
        <time>2026-04-22T12:22:05.000Z</time>
        <extensions>
          <ns3:TrackPointExtension>
            <ns3:hr>131</ns3:hr>
            <ns3:cad>41</ns3:cad>
          </ns3:TrackPointExtension>
        </extensions>
      </trkpt>
      <trkpt lat="49.84871347434818744659423828125" lon="6.85760923661291599273681640625">
        <ele>281.399993896484375</ele>
        <time>2026-04-22T12:22:12.000Z</time>
        <extensions>
          <ns3:TrackPointExtension>
            <ns3:hr>132</ns3:hr>
            <ns3:cad>43</ns3:cad>
          </ns3:TrackPointExtension>
        </extensions>
      </trkpt>
      <trkpt lat="49.848717749118804931640625" lon="6.85762030072510242462158203125">
        <ele>281.399993896484375</ele>
        <time>2026-04-22T12:22:13.000Z</time>
        <extensions>
          <ns3:TrackPointExtension>
            <ns3:hr>132</ns3:hr>
            <ns3:cad>42</ns3:cad>
          </ns3:TrackPointExtension>
        </extensions>
      </trkpt>
      <trkpt lat="49.84875186346471309661865234375" lon="6.857673190534114837646484375">
        <ele>281.79998779296875</ele>
        <time>2026-04-22T12:22:18.000Z</time>
        <extensions>
          <ns3:TrackPointExtension>
            <ns3:hr>132</ns3:hr>
            <ns3:cad>44</ns3:cad>
          </ns3:TrackPointExtension>
        </extensions>
      </trkpt>
      <trkpt lat="49.8487682081758975982666015625" lon="6.8577031977474689483642578125">
        <ele>282</ele>
        <time>2026-04-22T12:22:21.000Z</time>
        <extensions>
          <ns3:TrackPointExtension>
            <ns3:hr>132</ns3:hr>
            <ns3:cad>43</ns3:cad>
          </ns3:TrackPointExtension>
        </extensions>
      </trkpt>
      <trkpt lat="49.84876980073750019073486328125" lon="6.85771468095481395721435546875">
        <ele>282</ele>
        <time>2026-04-22T12:22:22.000Z</time>
        <extensions>
          <ns3:TrackPointExtension>
            <ns3:hr>132</ns3:hr>
            <ns3:cad>43</ns3:cad>
          </ns3:TrackPointExtension>
        </extensions>
      </trkpt>
      <trkpt lat="49.848798215389251708984375" lon="6.85781761072576045989990234375">
        <ele>282.79998779296875</ele>
        <time>2026-04-22T12:22:30.000Z</time>
        <extensions>
          <ns3:TrackPointExtension>
            <ns3:hr>133</ns3:hr>
            <ns3:cad>43</ns3:cad>
          </ns3:TrackPointExtension>
        </extensions>
      </trkpt>
      <trkpt lat="49.848802573978900909423828125" lon="6.85783152468502521514892578125">
        <ele>283.20001220703125</ele>
        <time>2026-04-22T12:22:31.000Z</time>
        <extensions>
          <ns3:TrackPointExtension>
            <ns3:hr>133</ns3:hr>
            <ns3:cad>43</ns3:cad>
          </ns3:TrackPointExtension>
        </extensions>
      </trkpt>
      <trkpt lat="49.8488330841064453125" lon="6.8578658066689968109130859375">
        <ele>284</ele>
        <time>2026-04-22T12:22:35.000Z</time>
        <extensions>
          <ns3:TrackPointExtension>
            <ns3:hr>133</ns3:hr>
            <ns3:cad>43</ns3:cad>
          </ns3:TrackPointExtension>
        </extensions>
      </trkpt>
      <trkpt lat="49.84885328449308872222900390625" lon="6.85791970230638980865478515625">
        <ele>284</ele>
        <time>2026-04-22T12:22:40.000Z</time>
        <extensions>
          <ns3:TrackPointExtension>
            <ns3:hr>134</ns3:hr>
            <ns3:cad>45</ns3:cad>
          </ns3:TrackPointExtension>
        </extensions>
      </trkpt>
      <trkpt lat="49.84888630919158458709716796875" lon="6.8580101430416107177734375">
        <ele>284.20001220703125</ele>
        <time>2026-04-22T12:22:47.000Z</time>
        <extensions>
          <ns3:TrackPointExtension>
            <ns3:hr>133</ns3:hr>
            <ns3:cad>44</ns3:cad>
          </ns3:TrackPointExtension>
        </extensions>
      </trkpt>
      <trkpt lat="49.8489090241491794586181640625" lon="6.8580639548599720001220703125">
        <ele>284.399993896484375</ele>
        <time>2026-04-22T12:22:51.000Z</time>
        <extensions>
          <ns3:TrackPointExtension>
            <ns3:hr>132</ns3:hr>
            <ns3:cad>46</ns3:cad>
          </ns3:TrackPointExtension>
        </extensions>
      </trkpt>
      <trkpt lat="49.848925285041332244873046875" lon="6.858115084469318389892578125">
        <ele>284.399993896484375</ele>
        <time>2026-04-22T12:22:55.000Z</time>
        <extensions>
          <ns3:TrackPointExtension>
            <ns3:hr>132</ns3:hr>
            <ns3:cad>45</ns3:cad>
          </ns3:TrackPointExtension>
        </extensions>
      </trkpt>
      <trkpt lat="49.84895755536854267120361328125" lon="6.85823142528533935546875">
        <ele>284.79998779296875</ele>
        <time>2026-04-22T12:23:03.000Z</time>
        <extensions>
          <ns3:TrackPointExtension>
            <ns3:hr>131</ns3:hr>
            <ns3:cad>45</ns3:cad>
          </ns3:TrackPointExtension>
        </extensions>
      </trkpt>
      <trkpt lat="49.84897666610777378082275390625" lon="6.858268640935420989990234375">
        <ele>285</ele>
        <time>2026-04-22T12:23:06.000Z</time>
        <extensions>
          <ns3:TrackPointExtension>
            <ns3:hr>131</ns3:hr>
            <ns3:cad>45</ns3:cad>
          </ns3:TrackPointExtension>
        </extensions>
      </trkpt>
      <trkpt lat="49.8490243591368198394775390625" lon="6.8583636917173862457275390625">
        <ele>285.20001220703125</ele>
        <time>2026-04-22T12:23:13.000Z</time>
        <extensions>
          <ns3:TrackPointExtension>
            <ns3:hr>130</ns3:hr>
            <ns3:cad>48</ns3:cad>
          </ns3:TrackPointExtension>
        </extensions>
      </trkpt>
      <trkpt lat="49.84902955591678619384765625" lon="6.858377270400524139404296875">
        <ele>285.20001220703125</ele>
        <time>2026-04-22T12:23:14.000Z</time>
        <extensions>
          <ns3:TrackPointExtension>
            <ns3:hr>130</ns3:hr>
            <ns3:cad>48</ns3:cad>
          </ns3:TrackPointExtension>
        </extensions>
      </trkpt>
      <trkpt lat="49.84905076213181018829345703125" lon="6.85845580883324146270751953125">
        <ele>285.399993896484375</ele>
        <time>2026-04-22T12:23:23.000Z</time>
        <extensions>
          <ns3:TrackPointExtension>
            <ns3:hr>131</ns3:hr>
            <ns3:cad>0</ns3:cad>
          </ns3:TrackPointExtension>
        </extensions>
      </trkpt>
      <trkpt lat="49.8490409553050994873046875" lon="6.85845865868031978607177734375">
        <ele>285.399993896484375</ele>
        <time>2026-04-22T12:23:28.000Z</time>
        <extensions>
          <ns3:TrackPointExtension>
            <ns3:hr>131</ns3:hr>
            <ns3:cad>0</ns3:cad>
          </ns3:TrackPointExtension>
        </extensions>
      </trkpt>
      <trkpt lat="49.84908529557287693023681640625" lon="6.858519427478313446044921875">
        <ele>285.600006103515625</ele>
        <time>2026-04-22T12:23:35.000Z</time>
        <extensions>
          <ns3:TrackPointExtension>
            <ns3:hr>131</ns3:hr>
            <ns3:cad>0</ns3:cad>
          </ns3:TrackPointExtension>
        </extensions>
      </trkpt>
      <trkpt lat="49.8491242714226245880126953125" lon="6.85859285295009613037109375">
        <ele>285.79998779296875</ele>
        <time>2026-04-22T12:23:43.000Z</time>
        <extensions>
          <ns3:TrackPointExtension>
            <ns3:hr>130</ns3:hr>
            <ns3:cad>0</ns3:cad>
          </ns3:TrackPointExtension>
        </extensions>
      </trkpt>
      <trkpt lat="49.8491350002586841583251953125" lon="6.85856871306896209716796875">
        <ele>286</ele>
        <time>2026-04-22T12:23:49.000Z</time>
        <extensions>
          <ns3:TrackPointExtension>
            <ns3:hr>128</ns3:hr>
            <ns3:cad>0</ns3:cad>
          </ns3:TrackPointExtension>
        </extensions>
      </trkpt>
      <trkpt lat="49.84915453009307384490966796875" lon="6.858554966747760772705078125">
        <ele>286.399993896484375</ele>
        <time>2026-04-22T12:23:52.000Z</time>
        <extensions>
          <ns3:TrackPointExtension>
            <ns3:hr>127</ns3:hr>
            <ns3:cad>0</ns3:cad>
          </ns3:TrackPointExtension>
        </extensions>
      </trkpt>
      <trkpt lat="49.84917632304131984710693359375" lon="6.8585494346916675567626953125">
        <ele>286</ele>
        <time>2026-04-22T12:23:59.000Z</time>
        <extensions>
          <ns3:TrackPointExtension>
            <ns3:hr>127</ns3:hr>
            <ns3:cad>0</ns3:cad>
          </ns3:TrackPointExtension>
        </extensions>
      </trkpt>
      <trkpt lat="49.8491643369197845458984375" lon="6.85860232450067996978759765625">
        <ele>286.20001220703125</ele>
        <time>2026-04-22T12:24:05.000Z</time>
        <extensions>
          <ns3:TrackPointExtension>
            <ns3:hr>127</ns3:hr>
            <ns3:cad>0</ns3:cad>
          </ns3:TrackPointExtension>
        </extensions>
      </trkpt>
      <trkpt lat="49.84915050677955150604248046875" lon="6.85865881852805614471435546875">
        <ele>286.20001220703125</ele>
        <time>2026-04-22T12:24:12.000Z</time>
        <extensions>
          <ns3:TrackPointExtension>
            <ns3:hr>127</ns3:hr>
            <ns3:cad>0</ns3:cad>
          </ns3:TrackPointExtension>
        </extensions>
      </trkpt>
      <trkpt lat="49.84916274435818195343017578125" lon="6.85874900780618190765380859375">
        <ele>286.399993896484375</ele>
        <time>2026-04-22T12:24:18.000Z</time>
        <extensions>
          <ns3:TrackPointExtension>
            <ns3:hr>125</ns3:hr>
            <ns3:cad>0</ns3:cad>
          </ns3:TrackPointExtension>
        </extensions>
      </trkpt>
      <trkpt lat="49.849210269749164581298828125" lon="6.858845651149749755859375">
        <ele>286.20001220703125</ele>
        <time>2026-04-22T12:24:25.000Z</time>
        <extensions>
          <ns3:TrackPointExtension>
            <ns3:hr>125</ns3:hr>
            <ns3:cad>0</ns3:cad>
          </ns3:TrackPointExtension>
        </extensions>
      </trkpt>
      <trkpt lat="49.84924740158021450042724609375" lon="6.85894397087395191192626953125">
        <ele>286.20001220703125</ele>
        <time>2026-04-22T12:24:32.000Z</time>
        <extensions>
          <ns3:TrackPointExtension>
            <ns3:hr>125</ns3:hr>
            <ns3:cad>0</ns3:cad>
          </ns3:TrackPointExtension>
        </extensions>
      </trkpt>
      <trkpt lat="49.84925092197954654693603515625" lon="6.85897297225892543792724609375">
        <ele>286.20001220703125</ele>
        <time>2026-04-22T12:24:34.000Z</time>
        <extensions>
          <ns3:TrackPointExtension>
            <ns3:hr>125</ns3:hr>
            <ns3:cad>0</ns3:cad>
          </ns3:TrackPointExtension>
        </extensions>
      </trkpt>
      <trkpt lat="49.84927573241293430328369140625" lon="6.8590419553220272064208984375">
        <ele>286.20001220703125</ele>
        <time>2026-04-22T12:24:38.000Z</time>
        <extensions>
          <ns3:TrackPointExtension>
            <ns3:hr>125</ns3:hr>
            <ns3:cad>50</ns3:cad>
          </ns3:TrackPointExtension>
        </extensions>
      </trkpt>
      <trkpt lat="49.84927992336452007293701171875" lon="6.859052181243896484375">
        <ele>286.20001220703125</ele>
        <time>2026-04-22T12:24:39.000Z</time>
        <extensions>
          <ns3:TrackPointExtension>
            <ns3:hr>125</ns3:hr>
            <ns3:cad>0</ns3:cad>
          </ns3:TrackPointExtension>
        </extensions>
      </trkpt>
      <trkpt lat="49.8492769896984100341796875" lon="6.85906550846993923187255859375">
        <ele>286</ele>
        <time>2026-04-22T12:24:43.000Z</time>
        <extensions>
          <ns3:TrackPointExtension>
            <ns3:hr>125</ns3:hr>
            <ns3:cad>0</ns3:cad>
          </ns3:TrackPointExtension>
        </extensions>
      </trkpt>
      <trkpt lat="49.84928629361093044281005859375" lon="6.85906517319381237030029296875">
        <ele>286</ele>
        <time>2026-04-22T12:24:53.000Z</time>
        <extensions>
          <ns3:TrackPointExtension>
            <ns3:hr>123</ns3:hr>
            <ns3:cad>0</ns3:cad>
          </ns3:TrackPointExtension>
        </extensions>
      </trkpt>
      <trkpt lat="49.849323928356170654296875" lon="6.85914899222552776336669921875">
        <ele>286.399993896484375</ele>
        <time>2026-04-22T12:25:03.000Z</time>
        <extensions>
          <ns3:TrackPointExtension>
            <ns3:hr>125</ns3:hr>
            <ns3:cad>0</ns3:cad>
          </ns3:TrackPointExtension>
        </extensions>
      </trkpt>
      <trkpt lat="49.849338345229625701904296875" lon="6.85923348180949687957763671875">
        <ele>286.399993896484375</ele>
        <time>2026-04-22T12:25:08.000Z</time>
        <extensions>
          <ns3:TrackPointExtension>
            <ns3:hr>126</ns3:hr>
            <ns3:cad>50</ns3:cad>
          </ns3:TrackPointExtension>
        </extensions>
      </trkpt>
      <trkpt lat="49.84936977736651897430419921875" lon="6.8593463860452175140380859375">
        <ele>286.79998779296875</ele>
        <time>2026-04-22T12:25:15.000Z</time>
        <extensions>
          <ns3:TrackPointExtension>
            <ns3:hr>125</ns3:hr>
            <ns3:cad>0</ns3:cad>
          </ns3:TrackPointExtension>
        </extensions>
      </trkpt>
      <trkpt lat="49.84939442016184329986572265625" lon="6.85948259197175502777099609375">
        <ele>286.79998779296875</ele>
        <time>2026-04-22T12:25:23.000Z</time>
        <extensions>
          <ns3:TrackPointExtension>
            <ns3:hr>124</ns3:hr>
            <ns3:cad>0</ns3:cad>
          </ns3:TrackPointExtension>
        </extensions>
      </trkpt>
      <trkpt lat="49.8494003713130950927734375" lon="6.8595234118402004241943359375">
        <ele>286.79998779296875</ele>
        <time>2026-04-22T12:25:26.000Z</time>
        <extensions>
          <ns3:TrackPointExtension>
            <ns3:hr>123</ns3:hr>
            <ns3:cad>52</ns3:cad>
          </ns3:TrackPointExtension>
        </extensions>
      </trkpt>
      <trkpt lat="49.8494084179401397705078125" lon="6.85955149121582508087158203125">
        <ele>286.79998779296875</ele>
        <time>2026-04-22T12:25:28.000Z</time>
        <extensions>
          <ns3:TrackPointExtension>
            <ns3:hr>124</ns3:hr>
            <ns3:cad>0</ns3:cad>
          </ns3:TrackPointExtension>
        </extensions>
      </trkpt>
      <trkpt lat="49.84940866939723491668701171875" lon="6.8595646508038043975830078125">
        <ele>286.79998779296875</ele>
        <time>2026-04-22T12:25:29.000Z</time>
        <extensions>
          <ns3:TrackPointExtension>
            <ns3:hr>124</ns3:hr>
            <ns3:cad>0</ns3:cad>
          </ns3:TrackPointExtension>
        </extensions>
      </trkpt>
      <trkpt lat="49.84942124225199222564697265625" lon="6.85967646539211273193359375">
        <ele>286.79998779296875</ele>
        <time>2026-04-22T12:25:34.000Z</time>
        <extensions>
          <ns3:TrackPointExtension>
            <ns3:hr>125</ns3:hr>
            <ns3:cad>53</ns3:cad>
          </ns3:TrackPointExtension>
        </extensions>
      </trkpt>
      <trkpt lat="49.8494347371160984039306640625" lon="6.8598018586635589599609375">
        <ele>286.79998779296875</ele>
        <time>2026-04-22T12:25:41.000Z</time>
        <extensions>
          <ns3:TrackPointExtension>
            <ns3:hr>125</ns3:hr>
            <ns3:cad>52</ns3:cad>
          </ns3:TrackPointExtension>
        </extensions>
      </trkpt>
      <trkpt lat="49.8494401015341281890869140625" lon="6.85982130467891693115234375">
        <ele>286.79998779296875</ele>
        <time>2026-04-22T12:25:42.000Z</time>
        <extensions>
          <ns3:TrackPointExtension>
            <ns3:hr>125</ns3:hr>
            <ns3:cad>52</ns3:cad>
          </ns3:TrackPointExtension>
        </extensions>
      </trkpt>
      <trkpt lat="49.8494602181017398834228515625" lon="6.85990177094936370849609375">
        <ele>286.79998779296875</ele>
        <time>2026-04-22T12:25:46.000Z</time>
        <extensions>
          <ns3:TrackPointExtension>
            <ns3:hr>125</ns3:hr>
            <ns3:cad>53</ns3:cad>
          </ns3:TrackPointExtension>
        </extensions>
      </trkpt>
      <trkpt lat="49.8494555242359638214111328125" lon="6.85991895385086536407470703125">
        <ele>286.79998779296875</ele>
        <time>2026-04-22T12:25:47.000Z</time>
        <extensions>
          <ns3:TrackPointExtension>
            <ns3:hr>125</ns3:hr>
            <ns3:cad>53</ns3:cad>
          </ns3:TrackPointExtension>
        </extensions>
      </trkpt>
      <trkpt lat="49.8494566977024078369140625" lon="6.86004786752164363861083984375">
        <ele>286.79998779296875</ele>
        <time>2026-04-22T12:25:55.000Z</time>
        <extensions>
          <ns3:TrackPointExtension>
            <ns3:hr>125</ns3:hr>
            <ns3:cad>0</ns3:cad>
          </ns3:TrackPointExtension>
        </extensions>
      </trkpt>
      <trkpt lat="49.8494692705571651458740234375" lon="6.86017527244985103607177734375">
        <ele>286.79998779296875</ele>
        <time>2026-04-22T12:26:03.000Z</time>
        <extensions>
          <ns3:TrackPointExtension>
            <ns3:hr>125</ns3:hr>
            <ns3:cad>52</ns3:cad>
          </ns3:TrackPointExtension>
        </extensions>
      </trkpt>
      <trkpt lat="49.849464409053325653076171875" lon="6.8601909466087818145751953125">
        <ele>286.79998779296875</ele>
        <time>2026-04-22T12:26:04.000Z</time>
        <extensions>
          <ns3:TrackPointExtension>
            <ns3:hr>125</ns3:hr>
            <ns3:cad>53</ns3:cad>
          </ns3:TrackPointExtension>
        </extensions>
      </trkpt>
      <trkpt lat="49.8494566977024078369140625" lon="6.86026093550026416778564453125">
        <ele>286.79998779296875</ele>
        <time>2026-04-22T12:26:08.000Z</time>
        <extensions>
          <ns3:TrackPointExtension>
            <ns3:hr>125</ns3:hr>
            <ns3:cad>53</ns3:cad>
          </ns3:TrackPointExtension>
        </extensions>
      </trkpt>
      <trkpt lat="49.84944655559957027435302734375" lon="6.86028675176203250885009765625">
        <ele>286.79998779296875</ele>
        <time>2026-04-22T12:26:10.000Z</time>
        <extensions>
          <ns3:TrackPointExtension>
            <ns3:hr>125</ns3:hr>
            <ns3:cad>0</ns3:cad>
          </ns3:TrackPointExtension>
        </extensions>
      </trkpt>
      <trkpt lat="49.849440939724445343017578125" lon="6.860296726226806640625">
        <ele>286.79998779296875</ele>
        <time>2026-04-22T12:26:11.000Z</time>
        <extensions>
          <ns3:TrackPointExtension>
            <ns3:hr>124</ns3:hr>
            <ns3:cad>0</ns3:cad>
          </ns3:TrackPointExtension>
        </extensions>
      </trkpt>
      <trkpt lat="49.8494340665638446807861328125" lon="6.8603758513927459716796875">
        <ele>286.79998779296875</ele>
        <time>2026-04-22T12:26:16.000Z</time>
        <extensions>
          <ns3:TrackPointExtension>
            <ns3:hr>124</ns3:hr>
            <ns3:cad>0</ns3:cad>
          </ns3:TrackPointExtension>
        </extensions>
      </trkpt>
      <trkpt lat="49.84943482093513011932373046875" lon="6.86041197739541530609130859375">
        <ele>286.79998779296875</ele>
        <time>2026-04-22T12:26:18.000Z</time>
        <extensions>
          <ns3:TrackPointExtension>
            <ns3:hr>124</ns3:hr>
            <ns3:cad>0</ns3:cad>
          </ns3:TrackPointExtension>
        </extensions>
      </trkpt>
      <trkpt lat="49.8494287021458148956298828125" lon="6.8604849837720394134521484375">
        <ele>287</ele>
        <time>2026-04-22T12:26:22.000Z</time>
        <extensions>
          <ns3:TrackPointExtension>
            <ns3:hr>123</ns3:hr>
            <ns3:cad>0</ns3:cad>
          </ns3:TrackPointExtension>
        </extensions>
      </trkpt>
      <trkpt lat="49.84942962415516376495361328125" lon="6.86050132848322391510009765625">
        <ele>287</ele>
        <time>2026-04-22T12:26:23.000Z</time>
        <extensions>
          <ns3:TrackPointExtension>
            <ns3:hr>123</ns3:hr>
            <ns3:cad>51</ns3:cad>
          </ns3:TrackPointExtension>
        </extensions>
      </trkpt>
      <trkpt lat="49.84944068826735019683837890625" lon="6.86055958271026611328125">
        <ele>287</ele>
        <time>2026-04-22T12:26:26.000Z</time>
        <extensions>
          <ns3:TrackPointExtension>
            <ns3:hr>124</ns3:hr>
            <ns3:cad>0</ns3:cad>
          </ns3:TrackPointExtension>
        </extensions>
      </trkpt>
      <trkpt lat="49.849440939724445343017578125" lon="6.8605929426848888397216796875">
        <ele>287.20001220703125</ele>
        <time>2026-04-22T12:26:28.000Z</time>
        <extensions>
          <ns3:TrackPointExtension>
            <ns3:hr>125</ns3:hr>
            <ns3:cad>0</ns3:cad>
          </ns3:TrackPointExtension>
        </extensions>
      </trkpt>
      <trkpt lat="49.84945141710340976715087890625" lon="6.86069704592227935791015625">
        <ele>287.20001220703125</ele>
        <time>2026-04-22T12:26:34.000Z</time>
        <extensions>
          <ns3:TrackPointExtension>
            <ns3:hr>125</ns3:hr>
            <ns3:cad>0</ns3:cad>
          </ns3:TrackPointExtension>
        </extensions>
      </trkpt>
      <trkpt lat="49.84944538213312625885009765625" lon="6.860712468624114990234375">
        <ele>287.20001220703125</ele>
        <time>2026-04-22T12:26:35.000Z</time>
        <extensions>
          <ns3:TrackPointExtension>
            <ns3:hr>125</ns3:hr>
            <ns3:cad>0</ns3:cad>
          </ns3:TrackPointExtension>
        </extensions>
      </trkpt>
      <trkpt lat="49.849418140947818756103515625" lon="6.86082855798304080963134765625">
        <ele>287.20001220703125</ele>
        <time>2026-04-22T12:26:41.000Z</time>
        <extensions>
          <ns3:TrackPointExtension>
            <ns3:hr>126</ns3:hr>
            <ns3:cad>0</ns3:cad>
          </ns3:TrackPointExtension>
        </extensions>
      </trkpt>
      <trkpt lat="49.84940146096050739288330078125" lon="6.8608631752431392669677734375">
        <ele>287.399993896484375</ele>
        <time>2026-04-22T12:26:43.000Z</time>
        <extensions>
          <ns3:TrackPointExtension>
            <ns3:hr>126</ns3:hr>
            <ns3:cad>52</ns3:cad>
          </ns3:TrackPointExtension>
        </extensions>
      </trkpt>
      <trkpt lat="49.84940372407436370849609375" lon="6.8609925918281078338623046875">
        <ele>287.399993896484375</ele>
        <time>2026-04-22T12:26:51.000Z</time>
        <extensions>
          <ns3:TrackPointExtension>
            <ns3:hr>127</ns3:hr>
            <ns3:cad>0</ns3:cad>
          </ns3:TrackPointExtension>
        </extensions>
      </trkpt>
      <trkpt lat="49.84940732829272747039794921875" lon="6.8611062504351139068603515625">
        <ele>287.600006103515625</ele>
        <time>2026-04-22T12:26:57.000Z</time>
        <extensions>
          <ns3:TrackPointExtension>
            <ns3:hr>126</ns3:hr>
            <ns3:cad>53</ns3:cad>
          </ns3:TrackPointExtension>
        </extensions>
      </trkpt>
      <trkpt lat="49.84940732829272747039794921875" lon="6.8611340783536434173583984375">
        <ele>287.600006103515625</ele>
        <time>2026-04-22T12:27:00.000Z</time>
        <extensions>
          <ns3:TrackPointExtension>
            <ns3:hr>127</ns3:hr>
            <ns3:cad>53</ns3:cad>
          </ns3:TrackPointExtension>
        </extensions>
      </trkpt>
      <trkpt lat="49.84941034577786922454833984375" lon="6.86116534285247325897216796875">
        <ele>287.600006103515625</ele>
        <time>2026-04-22T12:27:03.000Z</time>
        <extensions>
          <ns3:TrackPointExtension>
            <ns3:hr>127</ns3:hr>
            <ns3:cad>0</ns3:cad>
          </ns3:TrackPointExtension>
        </extensions>
      </trkpt>
      <trkpt lat="49.84941017813980579376220703125" lon="6.86116768978536128997802734375">
        <ele>287.600006103515625</ele>
        <time>2026-04-22T12:27:04.000Z</time>
        <extensions>
          <ns3:TrackPointExtension>
            <ns3:hr>127</ns3:hr>
            <ns3:cad>0</ns3:cad>
          </ns3:TrackPointExtension>
        </extensions>
      </trkpt>
      <trkpt lat="49.8494045622646808624267578125" lon="6.8611712940037250518798828125">
        <ele>287.600006103515625</ele>
        <time>2026-04-22T12:27:15.000Z</time>
        <extensions>
          <ns3:TrackPointExtension>
            <ns3:hr>129</ns3:hr>
            <ns3:cad>0</ns3:cad>
          </ns3:TrackPointExtension>
        </extensions>
      </trkpt>
      <trkpt lat="49.84939274378120899200439453125" lon="6.86120934784412384033203125">
        <ele>287.20001220703125</ele>
        <time>2026-04-22T12:27:33.000Z</time>
        <extensions>
          <ns3:TrackPointExtension>
            <ns3:hr>129</ns3:hr>
            <ns3:cad>0</ns3:cad>
          </ns3:TrackPointExtension>
        </extensions>
      </trkpt>
      <trkpt lat="49.849390648305416107177734375" lon="6.8612301349639892578125">
        <ele>287</ele>
        <time>2026-04-22T12:27:39.000Z</time>
        <extensions>
          <ns3:TrackPointExtension>
            <ns3:hr>129</ns3:hr>
            <ns3:cad>0</ns3:cad>
          </ns3:TrackPointExtension>
        </extensions>
      </trkpt>
      <trkpt lat="49.84938754700124263763427734375" lon="6.86123122461140155792236328125">
        <ele>286.79998779296875</ele>
        <time>2026-04-22T12:27:46.000Z</time>
        <extensions>
          <ns3:TrackPointExtension>
            <ns3:hr>128</ns3:hr>
            <ns3:cad>0</ns3:cad>
          </ns3:TrackPointExtension>
        </extensions>
      </trkpt>
      <trkpt lat="49.8493975214660167694091796875" lon="6.86131152324378490447998046875">
        <ele>286.79998779296875</ele>
        <time>2026-04-22T12:28:30.000Z</time>
        <extensions>
          <ns3:TrackPointExtension>
            <ns3:hr>127</ns3:hr>
            <ns3:cad>52</ns3:cad>
          </ns3:TrackPointExtension>
        </extensions>
      </trkpt>
      <trkpt lat="49.84939827583730220794677734375" lon="6.86133004724979400634765625">
        <ele>286.79998779296875</ele>
        <time>2026-04-22T12:28:31.000Z</time>
        <extensions>
          <ns3:TrackPointExtension>
            <ns3:hr>127</ns3:hr>
            <ns3:cad>52</ns3:cad>
          </ns3:TrackPointExtension>
        </extensions>
      </trkpt>
      <trkpt lat="49.84940330497920513153076171875" lon="6.86140590347349643707275390625">
        <ele>286.79998779296875</ele>
        <time>2026-04-22T12:28:34.000Z</time>
        <extensions>
          <ns3:TrackPointExtension>
            <ns3:hr>127</ns3:hr>
            <ns3:cad>53</ns3:cad>
          </ns3:TrackPointExtension>
        </extensions>
      </trkpt>
      <trkpt lat="49.84939324669539928436279296875" lon="6.86144496314227581024169921875">
        <ele>286.79998779296875</ele>
        <time>2026-04-22T12:28:36.000Z</time>
        <extensions>
          <ns3:TrackPointExtension>
            <ns3:hr>126</ns3:hr>
            <ns3:cad>53</ns3:cad>
          </ns3:TrackPointExtension>
        </extensions>
      </trkpt>
      <trkpt lat="49.84939835965633392333984375" lon="6.8615186400711536407470703125">
        <ele>287</ele>
        <time>2026-04-22T12:28:40.000Z</time>
        <extensions>
          <ns3:TrackPointExtension>
            <ns3:hr>127</ns3:hr>
            <ns3:cad>53</ns3:cad>
          </ns3:TrackPointExtension>
        </extensions>
      </trkpt>
      <trkpt lat="49.84940196387469768524169921875" lon="6.86153900809586048126220703125">
        <ele>287.20001220703125</ele>
        <time>2026-04-22T12:28:41.000Z</time>
        <extensions>
          <ns3:TrackPointExtension>
            <ns3:hr>127</ns3:hr>
            <ns3:cad>53</ns3:cad>
          </ns3:TrackPointExtension>
        </extensions>
      </trkpt>
      <trkpt lat="49.84940447844564914703369140625" lon="6.8615989387035369873046875">
        <ele>287.20001220703125</ele>
        <time>2026-04-22T12:28:44.000Z</time>
        <extensions>
          <ns3:TrackPointExtension>
            <ns3:hr>125</ns3:hr>
            <ns3:cad>53</ns3:cad>
          </ns3:TrackPointExtension>
        </extensions>
      </trkpt>
      <trkpt lat="49.84940162859857082366943359375" lon="6.861634813249111175537109375">
        <ele>287.399993896484375</ele>
        <time>2026-04-22T12:28:46.000Z</time>
        <extensions>
          <ns3:TrackPointExtension>
            <ns3:hr>125</ns3:hr>
            <ns3:cad>51</ns3:cad>
          </ns3:TrackPointExtension>
        </extensions>
      </trkpt>
      <trkpt lat="49.84942677430808544158935546875" lon="6.86171620152890682220458984375">
        <ele>287.600006103515625</ele>
        <time>2026-04-22T12:28:50.000Z</time>
        <extensions>
          <ns3:TrackPointExtension>
            <ns3:hr>126</ns3:hr>
            <ns3:cad>0</ns3:cad>
          </ns3:TrackPointExtension>
        </extensions>
      </trkpt>
      <trkpt lat="49.8494327254593372344970703125" lon="6.86186405830085277557373046875">
        <ele>287.79998779296875</ele>
        <time>2026-04-22T12:28:57.000Z</time>
        <extensions>
          <ns3:TrackPointExtension>
            <ns3:hr>126</ns3:hr>
            <ns3:cad>54</ns3:cad>
          </ns3:TrackPointExtension>
        </extensions>
      </trkpt>
      <trkpt lat="49.84942912124097347259521484375" lon="6.86189993284642696380615234375">
        <ele>287.79998779296875</ele>
        <time>2026-04-22T12:28:59.000Z</time>
        <extensions>
          <ns3:TrackPointExtension>
            <ns3:hr>125</ns3:hr>
            <ns3:cad>54</ns3:cad>
          </ns3:TrackPointExtension>
        </extensions>
      </trkpt>
      <trkpt lat="49.84941051341593265533447265625" lon="6.861967742443084716796875">
        <ele>288</ele>
        <time>2026-04-22T12:29:03.000Z</time>
        <extensions>
          <ns3:TrackPointExtension>
            <ns3:hr>126</ns3:hr>
            <ns3:cad>52</ns3:cad>
          </ns3:TrackPointExtension>
        </extensions>
      </trkpt>
      <trkpt lat="49.8494084179401397705078125" lon="6.86197671107947826385498046875">
        <ele>288.20001220703125</ele>
        <time>2026-04-22T12:29:04.000Z</time>
        <extensions>
          <ns3:TrackPointExtension>
            <ns3:hr>125</ns3:hr>
            <ns3:cad>0</ns3:cad>
          </ns3:TrackPointExtension>
        </extensions>
      </trkpt>
      <trkpt lat="49.8494109325110912322998046875" lon="6.86197838746011257171630859375">
        <ele>288.20001220703125</ele>
        <time>2026-04-22T12:29:10.000Z</time>
        <extensions>
          <ns3:TrackPointExtension>
            <ns3:hr>126</ns3:hr>
            <ns3:cad>0</ns3:cad>
          </ns3:TrackPointExtension>
        </extensions>
      </trkpt>
      <trkpt lat="49.84940548427402973175048828125" lon="6.86202348209917545318603515625">
        <ele>288.600006103515625</ele>
        <time>2026-04-22T12:29:19.000Z</time>
        <extensions>
          <ns3:TrackPointExtension>
            <ns3:hr>125</ns3:hr>
            <ns3:cad>71</ns3:cad>
          </ns3:TrackPointExtension>
        </extensions>
      </trkpt>
      <trkpt lat="49.8494082503020763397216796875" lon="6.86210763640701770782470703125">
        <ele>289.20001220703125</ele>
        <time>2026-04-22T12:29:24.000Z</time>
        <extensions>
          <ns3:TrackPointExtension>
            <ns3:hr>125</ns3:hr>
            <ns3:cad>0</ns3:cad>
          </ns3:TrackPointExtension>
        </extensions>
      </trkpt>
      <trkpt lat="49.84940950758755207061767578125" lon="6.86212624423205852508544921875">
        <ele>289.20001220703125</ele>
        <time>2026-04-22T12:29:25.000Z</time>
        <extensions>
          <ns3:TrackPointExtension>
            <ns3:hr>126</ns3:hr>
            <ns3:cad>0</ns3:cad>
          </ns3:TrackPointExtension>
        </extensions>
      </trkpt>
      <trkpt lat="49.84939274378120899200439453125" lon="6.86223118565976619720458984375">
        <ele>289.600006103515625</ele>
        <time>2026-04-22T12:29:32.000Z</time>
        <extensions>
          <ns3:TrackPointExtension>
            <ns3:hr>128</ns3:hr>
            <ns3:cad>0</ns3:cad>
          </ns3:TrackPointExtension>
        </extensions>
      </trkpt>
      <trkpt lat="49.84940665774047374725341796875" lon="6.86234450899064540863037109375">
        <ele>290</ele>
        <time>2026-04-22T12:29:39.000Z</time>
        <extensions>
          <ns3:TrackPointExtension>
            <ns3:hr>128</ns3:hr>
            <ns3:cad>0</ns3:cad>
          </ns3:TrackPointExtension>
        </extensions>
      </trkpt>
      <trkpt lat="49.8493981920182704925537109375" lon="6.862402260303497314453125">
        <ele>290.20001220703125</ele>
        <time>2026-04-22T12:29:43.000Z</time>
        <extensions>
          <ns3:TrackPointExtension>
            <ns3:hr>128</ns3:hr>
            <ns3:cad>0</ns3:cad>
          </ns3:TrackPointExtension>
        </extensions>
      </trkpt>
      <trkpt lat="49.84939643181860446929931640625" lon="6.86243805103003978729248046875">
        <ele>290.399993896484375</ele>
        <time>2026-04-22T12:29:45.000Z</time>
        <extensions>
          <ns3:TrackPointExtension>
            <ns3:hr>127</ns3:hr>
            <ns3:cad>0</ns3:cad>
          </ns3:TrackPointExtension>
        </extensions>
      </trkpt>
      <trkpt lat="49.84939609654247760772705078125" lon="6.86251415871083736419677734375">
        <ele>290.600006103515625</ele>
        <time>2026-04-22T12:29:50.000Z</time>
        <extensions>
          <ns3:TrackPointExtension>
            <ns3:hr>126</ns3:hr>
            <ns3:cad>0</ns3:cad>
          </ns3:TrackPointExtension>
        </extensions>
      </trkpt>
      <trkpt lat="49.84936416149139404296875" lon="6.86260216869413852691650390625">
        <ele>291</ele>
        <time>2026-04-22T12:29:55.000Z</time>
        <extensions>
          <ns3:TrackPointExtension>
            <ns3:hr>125</ns3:hr>
            <ns3:cad>0</ns3:cad>
          </ns3:TrackPointExtension>
        </extensions>
      </trkpt>
      <trkpt lat="49.84936709515750408172607421875" lon="6.8626488558948040008544921875">
        <ele>291</ele>
        <time>2026-04-22T12:29:58.000Z</time>
        <extensions>
          <ns3:TrackPointExtension>
            <ns3:hr>126</ns3:hr>
            <ns3:cad>0</ns3:cad>
          </ns3:TrackPointExtension>
        </extensions>
      </trkpt>
      <trkpt lat="49.84936214983463287353515625" lon="6.86268858611583709716796875">
        <ele>291.20001220703125</ele>
        <time>2026-04-22T12:30:01.000Z</time>
        <extensions>
          <ns3:TrackPointExtension>
            <ns3:hr>127</ns3:hr>
            <ns3:cad>0</ns3:cad>
          </ns3:TrackPointExtension>
        </extensions>
      </trkpt>
      <trkpt lat="49.84936055727303028106689453125" lon="6.86272823251783847808837890625">
        <ele>291.20001220703125</ele>
        <time>2026-04-22T12:30:03.000Z</time>
        <extensions>
          <ns3:TrackPointExtension>
            <ns3:hr>127</ns3:hr>
            <ns3:cad>0</ns3:cad>
          </ns3:TrackPointExtension>
        </extensions>
      </trkpt>
      <trkpt lat="49.84934194944798946380615234375" lon="6.86280526220798492431640625">
        <ele>291.600006103515625</ele>
        <time>2026-04-22T12:30:08.000Z</time>
        <extensions>
          <ns3:TrackPointExtension>
            <ns3:hr>127</ns3:hr>
            <ns3:cad>51</ns3:cad>
          </ns3:TrackPointExtension>
        </extensions>
      </trkpt>
      <trkpt lat="49.8493368364870548248291015625" lon="6.862820349633693695068359375">
        <ele>291.79998779296875</ele>
        <time>2026-04-22T12:30:09.000Z</time>
        <extensions>
          <ns3:TrackPointExtension>
            <ns3:hr>127</ns3:hr>
            <ns3:cad>51</ns3:cad>
          </ns3:TrackPointExtension>
        </extensions>
      </trkpt>
      <trkpt lat="49.84933272935450077056884765625" lon="6.86290048062801361083984375">
        <ele>292</ele>
        <time>2026-04-22T12:30:17.000Z</time>
        <extensions>
          <ns3:TrackPointExtension>
            <ns3:hr>127</ns3:hr>
            <ns3:cad>0</ns3:cad>
          </ns3:TrackPointExtension>
        </extensions>
      </trkpt>
      <trkpt lat="49.84932585619390010833740234375" lon="6.862958483397960662841796875">
        <ele>292</ele>
        <time>2026-04-22T12:30:23.000Z</time>
        <extensions>
          <ns3:TrackPointExtension>
            <ns3:hr>128</ns3:hr>
            <ns3:cad>0</ns3:cad>
          </ns3:TrackPointExtension>
        </extensions>
      </trkpt>
      <trkpt lat="49.84932334162294864654541015625" lon="6.86297315172851085662841796875">
        <ele>292</ele>
        <time>2026-04-22T12:30:29.000Z</time>
        <extensions>
          <ns3:TrackPointExtension>
            <ns3:hr>129</ns3:hr>
            <ns3:cad>0</ns3:cad>
          </ns3:TrackPointExtension>
        </extensions>
      </trkpt>
      <trkpt lat="49.84931051731109619140625" lon="6.86299578286707401275634765625">
        <ele>292</ele>
        <time>2026-04-22T12:30:34.000Z</time>
        <extensions>
          <ns3:TrackPointExtension>
            <ns3:hr>129</ns3:hr>
            <ns3:cad>0</ns3:cad>
          </ns3:TrackPointExtension>
        </extensions>
      </trkpt>
      <trkpt lat="49.84929534606635570526123046875" lon="6.86302998103201389312744140625">
        <ele>292.20001220703125</ele>
        <time>2026-04-22T12:30:37.000Z</time>
        <extensions>
          <ns3:TrackPointExtension>
            <ns3:hr>129</ns3:hr>
            <ns3:cad>0</ns3:cad>
          </ns3:TrackPointExtension>
        </extensions>
      </trkpt>
      <trkpt lat="49.84927321784198284149169921875" lon="6.863086558878421783447265625">
        <ele>292.399993896484375</ele>
        <time>2026-04-22T12:30:42.000Z</time>
        <extensions>
          <ns3:TrackPointExtension>
            <ns3:hr>130</ns3:hr>
            <ns3:cad>0</ns3:cad>
          </ns3:TrackPointExtension>
        </extensions>
      </trkpt>
      <trkpt lat="49.8492394387722015380859375" lon="6.86316174454987049102783203125">
        <ele>293</ele>
        <time>2026-04-22T12:30:48.000Z</time>
        <extensions>
          <ns3:TrackPointExtension>
            <ns3:hr>130</ns3:hr>
            <ns3:cad>0</ns3:cad>
          </ns3:TrackPointExtension>
        </extensions>
      </trkpt>
      <trkpt lat="49.84921202994883060455322265625" lon="6.8632724694907665252685546875">
        <ele>293</ele>
        <time>2026-04-22T12:30:55.000Z</time>
        <extensions>
          <ns3:TrackPointExtension>
            <ns3:hr>129</ns3:hr>
            <ns3:cad>0</ns3:cad>
          </ns3:TrackPointExtension>
        </extensions>
      </trkpt>
      <trkpt lat="49.84916173852980136871337890625" lon="6.8633743934333324432373046875">
        <ele>293.20001220703125</ele>
        <time>2026-04-22T12:31:02.000Z</time>
        <extensions>
          <ns3:TrackPointExtension>
            <ns3:hr>129</ns3:hr>
            <ns3:cad>49</ns3:cad>
          </ns3:TrackPointExtension>
        </extensions>
      </trkpt>
      <trkpt lat="49.849153272807598114013671875" lon="6.86340448446571826934814453125">
        <ele>293.20001220703125</ele>
        <time>2026-04-22T12:31:04.000Z</time>
        <extensions>
          <ns3:TrackPointExtension>
            <ns3:hr>129</ns3:hr>
            <ns3:cad>51</ns3:cad>
          </ns3:TrackPointExtension>
        </extensions>
      </trkpt>
      <trkpt lat="49.849130474030971527099609375" lon="6.86348126269876956939697265625">
        <ele>293.600006103515625</ele>
        <time>2026-04-22T12:31:09.000Z</time>
        <extensions>
          <ns3:TrackPointExtension>
            <ns3:hr>130</ns3:hr>
            <ns3:cad>0</ns3:cad>
          </ns3:TrackPointExtension>
        </extensions>
      </trkpt>
      <trkpt lat="49.84907926060259342193603515625" lon="6.8635718710720539093017578125">
        <ele>294</ele>
        <time>2026-04-22T12:31:16.000Z</time>
        <extensions>
          <ns3:TrackPointExtension>
            <ns3:hr>132</ns3:hr>
            <ns3:cad>52</ns3:cad>
          </ns3:TrackPointExtension>
        </extensions>
      </trkpt>
      <trkpt lat="49.84906987287104129791259765625" lon="6.86359626241028308868408203125">
        <ele>294.20001220703125</ele>
        <time>2026-04-22T12:31:18.000Z</time>
        <extensions>
          <ns3:TrackPointExtension>
            <ns3:hr>132</ns3:hr>
            <ns3:cad>52</ns3:cad>
          </ns3:TrackPointExtension>
        </extensions>
      </trkpt>
      <trkpt lat="49.84906048513948917388916015625" lon="6.86361621133983135223388671875">
        <ele>294.20001220703125</ele>
        <time>2026-04-22T12:31:20.000Z</time>
        <extensions>
          <ns3:TrackPointExtension>
            <ns3:hr>130</ns3:hr>
            <ns3:cad>46</ns3:cad>
          </ns3:TrackPointExtension>
        </extensions>
      </trkpt>
      <trkpt lat="49.84905780293047428131103515625" lon="6.86362995766103267669677734375">
        <ele>294.20001220703125</ele>
        <time>2026-04-22T12:31:21.000Z</time>
        <extensions>
          <ns3:TrackPointExtension>
            <ns3:hr>130</ns3:hr>
            <ns3:cad>46</ns3:cad>
          </ns3:TrackPointExtension>
        </extensions>
      </trkpt>
      <trkpt lat="49.849059395492076873779296875" lon="6.863656528294086456298828125">
        <ele>294.399993896484375</ele>
        <time>2026-04-22T12:31:23.000Z</time>
        <extensions>
          <ns3:TrackPointExtension>
            <ns3:hr>130</ns3:hr>
            <ns3:cad>47</ns3:cad>
          </ns3:TrackPointExtension>
        </extensions>
      </trkpt>
      <trkpt lat="49.84900415875017642974853515625" lon="6.8637646548449993133544921875">
        <ele>294.399993896484375</ele>
        <time>2026-04-22T12:31:32.000Z</time>
        <extensions>
          <ns3:TrackPointExtension>
            <ns3:hr>130</ns3:hr>
            <ns3:cad>0</ns3:cad>
          </ns3:TrackPointExtension>
        </extensions>
      </trkpt>
      <trkpt lat="49.84898253343999385833740234375" lon="6.8638592027127742767333984375">
        <ele>294.20001220703125</ele>
        <time>2026-04-22T12:31:40.000Z</time>
        <extensions>
          <ns3:TrackPointExtension>
            <ns3:hr>129</ns3:hr>
            <ns3:cad>0</ns3:cad>
          </ns3:TrackPointExtension>
        </extensions>
      </trkpt>
      <trkpt lat="49.84892184846103191375732421875" lon="6.863928772509098052978515625">
        <ele>294.20001220703125</ele>
        <time>2026-04-22T12:31:49.000Z</time>
        <extensions>
          <ns3:TrackPointExtension>
            <ns3:hr>129</ns3:hr>
            <ns3:cad>0</ns3:cad>
          </ns3:TrackPointExtension>
        </extensions>
      </trkpt>
      <trkpt lat="49.84891690313816070556640625" lon="6.8639324605464935302734375">
        <ele>294.20001220703125</ele>
        <time>2026-04-22T12:31:57.000Z</time>
        <extensions>
          <ns3:TrackPointExtension>
            <ns3:hr>129</ns3:hr>
            <ns3:cad>0</ns3:cad>
          </ns3:TrackPointExtension>
        </extensions>
      </trkpt>
      <trkpt lat="49.84895017929375171661376953125" lon="6.86391628347337245941162109375">
        <ele>294</ele>
        <time>2026-04-22T12:32:04.000Z</time>
        <extensions>
          <ns3:TrackPointExtension>
            <ns3:hr>128</ns3:hr>
            <ns3:cad>66</ns3:cad>
          </ns3:TrackPointExtension>
        </extensions>
      </trkpt>
      <trkpt lat="49.8489898256957530975341796875" lon="6.86394293792545795440673828125">
        <ele>293.399993896484375</ele>
        <time>2026-04-22T12:32:12.000Z</time>
        <extensions>
          <ns3:TrackPointExtension>
            <ns3:hr>128</ns3:hr>
            <ns3:cad>45</ns3:cad>
          </ns3:TrackPointExtension>
        </extensions>
      </trkpt>
      <trkpt lat="49.84901103191077709197998046875" lon="6.8639832548797130584716796875">
        <ele>293.20001220703125</ele>
        <time>2026-04-22T12:32:20.000Z</time>
        <extensions>
          <ns3:TrackPointExtension>
            <ns3:hr>131</ns3:hr>
            <ns3:cad>0</ns3:cad>
          </ns3:TrackPointExtension>
        </extensions>
      </trkpt>
      <trkpt lat="49.84901371411979198455810546875" lon="6.86398501507937908172607421875">
        <ele>293.20001220703125</ele>
        <time>2026-04-22T12:32:21.000Z</time>
        <extensions>
          <ns3:TrackPointExtension>
            <ns3:hr>130</ns3:hr>
            <ns3:cad>0</ns3:cad>
          </ns3:TrackPointExtension>
        </extensions>
      </trkpt>
      <trkpt lat="49.849003739655017852783203125" lon="6.86398543417453765869140625">
        <ele>293.20001220703125</ele>
        <time>2026-04-22T12:32:28.000Z</time>
        <extensions>
          <ns3:TrackPointExtension>
            <ns3:hr>129</ns3:hr>
            <ns3:cad>0</ns3:cad>
          </ns3:TrackPointExtension>
        </extensions>
      </trkpt>
      <trkpt lat="49.84900700859725475311279296875" lon="6.86398484744131565093994140625">
        <ele>293.399993896484375</ele>
        <time>2026-04-22T12:32:46.000Z</time>
        <extensions>
          <ns3:TrackPointExtension>
            <ns3:hr>128</ns3:hr>
            <ns3:cad>0</ns3:cad>
          </ns3:TrackPointExtension>
        </extensions>
      </trkpt>
      <trkpt lat="49.84903584234416484832763671875" lon="6.86396523378789424896240234375">
        <ele>293.79998779296875</ele>
        <time>2026-04-22T12:33:03.000Z</time>
        <extensions>
          <ns3:TrackPointExtension>
            <ns3:hr>128</ns3:hr>
            <ns3:cad>0</ns3:cad>
          </ns3:TrackPointExtension>
        </extensions>
      </trkpt>
      <trkpt lat="49.84903835691511631011962890625" lon="6.8639953248202800750732421875">
        <ele>294</ele>
        <time>2026-04-22T12:33:09.000Z</time>
        <extensions>
          <ns3:TrackPointExtension>
            <ns3:hr>127</ns3:hr>
            <ns3:cad>0</ns3:cad>
          </ns3:TrackPointExtension>
        </extensions>
      </trkpt>
      <trkpt lat="49.84903818927705287933349609375" lon="6.86399339698255062103271484375">
        <ele>294.20001220703125</ele>
        <time>2026-04-22T12:33:11.000Z</time>
        <extensions>
          <ns3:TrackPointExtension>
            <ns3:hr>126</ns3:hr>
            <ns3:cad>0</ns3:cad>
          </ns3:TrackPointExtension>
        </extensions>
      </trkpt>
      <trkpt lat="49.84903818927705287933349609375" lon="6.86398467980325222015380859375">
        <ele>293.79998779296875</ele>
        <time>2026-04-22T12:33:24.000Z</time>
        <extensions>
          <ns3:TrackPointExtension>
            <ns3:hr>125</ns3:hr>
            <ns3:cad>0</ns3:cad>
          </ns3:TrackPointExtension>
        </extensions>
      </trkpt>
      <trkpt lat="49.84903852455317974090576171875" lon="6.8639842607080936431884765625">
        <ele>293.79998779296875</ele>
        <time>2026-04-22T12:33:29.000Z</time>
        <extensions>
          <ns3:TrackPointExtension>
            <ns3:hr>125</ns3:hr>
            <ns3:cad>0</ns3:cad>
          </ns3:TrackPointExtension>
        </extensions>
      </trkpt>
    </trkseg>
  </trk>
</gpx>
